<?xml version="1.0" encoding="UTF-8"?>
<gpx xmlns="http://www.topografix.com/GPX/1/1"
     creator="GpsDump 4.71"
     version="1.1"
     xmlns:xsi="http://www.w3.org/2001/XMLSchema-instance"
     xsi:schemaLocation="http://www.topografix.com/GPX/1/1 http://www.topografix.com/GPX/1/1/gpx.xsd">
  <metadata>
    <link href="http://www.gethome.no/stein.sorensen/">
      <text>GPS dump for www.flightlog.org</text>
    </link>
    <time>2013-07-21T12:02:44Z</time>
    <bounds minlat="40.180100" minlon="-4.919000" maxlat="40.309183" maxlon="-4.380350"/>
  </metadata>
  <trk>
    <name>Track 001</name>
    <trkseg>
      <trkpt lat="40.256400" lon="-4.905783">
        <ele>1256.0</ele>
        <time>2013-07-02T10:53:44Z</time>
      </trkpt>
      <trkpt lat="40.256367" lon="-4.905850">
        <ele>1255.0</ele>
        <time>2013-07-02T10:53:45Z</time>
      </trkpt>
      <trkpt lat="40.256350" lon="-4.905917">
        <ele>1255.0</ele>
        <time>2013-07-02T10:53:46Z</time>
      </trkpt>
      <trkpt lat="40.256317" lon="-4.905967">
        <ele>1255.0</ele>
        <time>2013-07-02T10:53:47Z</time>
      </trkpt>
      <trkpt lat="40.256267" lon="-4.906017">
        <ele>1254.0</ele>
        <time>2013-07-02T10:53:48Z</time>
      </trkpt>
      <trkpt lat="40.256233" lon="-4.906083">
        <ele>1255.0</ele>
        <time>2013-07-02T10:53:49Z</time>
      </trkpt>
      <trkpt lat="40.256200" lon="-4.906133">
        <ele>1258.0</ele>
        <time>2013-07-02T10:53:50Z</time>
      </trkpt>
      <trkpt lat="40.256183" lon="-4.906183">
        <ele>1259.0</ele>
        <time>2013-07-02T10:53:51Z</time>
      </trkpt>
      <trkpt lat="40.256167" lon="-4.906233">
        <ele>1259.0</ele>
        <time>2013-07-02T10:53:52Z</time>
      </trkpt>
      <trkpt lat="40.256150" lon="-4.906267">
        <ele>1259.0</ele>
        <time>2013-07-02T10:53:53Z</time>
      </trkpt>
      <trkpt lat="40.256117" lon="-4.906300">
        <ele>1257.0</ele>
        <time>2013-07-02T10:53:54Z</time>
      </trkpt>
      <trkpt lat="40.256067" lon="-4.906350">
        <ele>1256.0</ele>
        <time>2013-07-02T10:53:55Z</time>
      </trkpt>
      <trkpt lat="40.256017" lon="-4.906417">
        <ele>1255.0</ele>
        <time>2013-07-02T10:53:56Z</time>
      </trkpt>
      <trkpt lat="40.255967" lon="-4.906467">
        <ele>1254.0</ele>
        <time>2013-07-02T10:53:57Z</time>
      </trkpt>
      <trkpt lat="40.255933" lon="-4.906517">
        <ele>1255.0</ele>
        <time>2013-07-02T10:53:58Z</time>
      </trkpt>
      <trkpt lat="40.255900" lon="-4.906550">
        <ele>1255.0</ele>
        <time>2013-07-02T10:53:59Z</time>
      </trkpt>
      <trkpt lat="40.255850" lon="-4.906600">
        <ele>1253.0</ele>
        <time>2013-07-02T10:54:00Z</time>
      </trkpt>
      <trkpt lat="40.255800" lon="-4.906650">
        <ele>1250.0</ele>
        <time>2013-07-02T10:54:01Z</time>
      </trkpt>
      <trkpt lat="40.255767" lon="-4.906717">
        <ele>1249.0</ele>
        <time>2013-07-02T10:54:02Z</time>
      </trkpt>
      <trkpt lat="40.255717" lon="-4.906783">
        <ele>1249.0</ele>
        <time>2013-07-02T10:54:03Z</time>
      </trkpt>
      <trkpt lat="40.255700" lon="-4.906850">
        <ele>1250.0</ele>
        <time>2013-07-02T10:54:04Z</time>
      </trkpt>
      <trkpt lat="40.255667" lon="-4.906900">
        <ele>1250.0</ele>
        <time>2013-07-02T10:54:05Z</time>
      </trkpt>
      <trkpt lat="40.255650" lon="-4.906967">
        <ele>1248.0</ele>
        <time>2013-07-02T10:54:06Z</time>
      </trkpt>
      <trkpt lat="40.255617" lon="-4.907033">
        <ele>1246.0</ele>
        <time>2013-07-02T10:54:07Z</time>
      </trkpt>
      <trkpt lat="40.255600" lon="-4.907117">
        <ele>1244.0</ele>
        <time>2013-07-02T10:54:08Z</time>
      </trkpt>
      <trkpt lat="40.255567" lon="-4.907200">
        <ele>1242.0</ele>
        <time>2013-07-02T10:54:09Z</time>
      </trkpt>
      <trkpt lat="40.255517" lon="-4.907300">
        <ele>1240.0</ele>
        <time>2013-07-02T10:54:10Z</time>
      </trkpt>
      <trkpt lat="40.255483" lon="-4.907383">
        <ele>1240.0</ele>
        <time>2013-07-02T10:54:11Z</time>
      </trkpt>
      <trkpt lat="40.255467" lon="-4.907450">
        <ele>1241.0</ele>
        <time>2013-07-02T10:54:12Z</time>
      </trkpt>
      <trkpt lat="40.255450" lon="-4.907517">
        <ele>1241.0</ele>
        <time>2013-07-02T10:54:13Z</time>
      </trkpt>
      <trkpt lat="40.255467" lon="-4.907567">
        <ele>1241.0</ele>
        <time>2013-07-02T10:54:14Z</time>
      </trkpt>
      <trkpt lat="40.255467" lon="-4.907650">
        <ele>1239.0</ele>
        <time>2013-07-02T10:54:15Z</time>
      </trkpt>
      <trkpt lat="40.255467" lon="-4.907750">
        <ele>1236.0</ele>
        <time>2013-07-02T10:54:16Z</time>
      </trkpt>
      <trkpt lat="40.255433" lon="-4.907850">
        <ele>1234.0</ele>
        <time>2013-07-02T10:54:17Z</time>
      </trkpt>
      <trkpt lat="40.255400" lon="-4.907967">
        <ele>1232.0</ele>
        <time>2013-07-02T10:54:18Z</time>
      </trkpt>
      <trkpt lat="40.255383" lon="-4.908067">
        <ele>1232.0</ele>
        <time>2013-07-02T10:54:19Z</time>
      </trkpt>
      <trkpt lat="40.255367" lon="-4.908150">
        <ele>1232.0</ele>
        <time>2013-07-02T10:54:20Z</time>
      </trkpt>
      <trkpt lat="40.255350" lon="-4.908250">
        <ele>1232.0</ele>
        <time>2013-07-02T10:54:21Z</time>
      </trkpt>
      <trkpt lat="40.255333" lon="-4.908317">
        <ele>1231.0</ele>
        <time>2013-07-02T10:54:22Z</time>
      </trkpt>
      <trkpt lat="40.255317" lon="-4.908417">
        <ele>1229.0</ele>
        <time>2013-07-02T10:54:23Z</time>
      </trkpt>
      <trkpt lat="40.255300" lon="-4.908517">
        <ele>1226.0</ele>
        <time>2013-07-02T10:54:24Z</time>
      </trkpt>
      <trkpt lat="40.255283" lon="-4.908633">
        <ele>1225.0</ele>
        <time>2013-07-02T10:54:25Z</time>
      </trkpt>
      <trkpt lat="40.255267" lon="-4.908733">
        <ele>1223.0</ele>
        <time>2013-07-02T10:54:26Z</time>
      </trkpt>
      <trkpt lat="40.255250" lon="-4.908833">
        <ele>1223.0</ele>
        <time>2013-07-02T10:54:27Z</time>
      </trkpt>
      <trkpt lat="40.255217" lon="-4.908933">
        <ele>1223.0</ele>
        <time>2013-07-02T10:54:28Z</time>
      </trkpt>
      <trkpt lat="40.255183" lon="-4.909033">
        <ele>1222.0</ele>
        <time>2013-07-02T10:54:29Z</time>
      </trkpt>
      <trkpt lat="40.255167" lon="-4.909133">
        <ele>1220.0</ele>
        <time>2013-07-02T10:54:30Z</time>
      </trkpt>
      <trkpt lat="40.255133" lon="-4.909250">
        <ele>1219.0</ele>
        <time>2013-07-02T10:54:31Z</time>
      </trkpt>
      <trkpt lat="40.255117" lon="-4.909367">
        <ele>1219.0</ele>
        <time>2013-07-02T10:54:32Z</time>
      </trkpt>
      <trkpt lat="40.255083" lon="-4.909483">
        <ele>1218.0</ele>
        <time>2013-07-02T10:54:33Z</time>
      </trkpt>
      <trkpt lat="40.255067" lon="-4.909583">
        <ele>1217.0</ele>
        <time>2013-07-02T10:54:34Z</time>
      </trkpt>
      <trkpt lat="40.255033" lon="-4.909683">
        <ele>1217.0</ele>
        <time>2013-07-02T10:54:35Z</time>
      </trkpt>
      <trkpt lat="40.255000" lon="-4.909767">
        <ele>1216.0</ele>
        <time>2013-07-02T10:54:36Z</time>
      </trkpt>
      <trkpt lat="40.254967" lon="-4.909850">
        <ele>1214.0</ele>
        <time>2013-07-02T10:54:37Z</time>
      </trkpt>
      <trkpt lat="40.254933" lon="-4.909950">
        <ele>1211.0</ele>
        <time>2013-07-02T10:54:38Z</time>
      </trkpt>
      <trkpt lat="40.254900" lon="-4.910067">
        <ele>1209.0</ele>
        <time>2013-07-02T10:54:39Z</time>
      </trkpt>
      <trkpt lat="40.254883" lon="-4.910183">
        <ele>1207.0</ele>
        <time>2013-07-02T10:54:40Z</time>
      </trkpt>
      <trkpt lat="40.254867" lon="-4.910300">
        <ele>1206.0</ele>
        <time>2013-07-02T10:54:41Z</time>
      </trkpt>
      <trkpt lat="40.254850" lon="-4.910417">
        <ele>1206.0</ele>
        <time>2013-07-02T10:54:42Z</time>
      </trkpt>
      <trkpt lat="40.254833" lon="-4.910517">
        <ele>1204.0</ele>
        <time>2013-07-02T10:54:43Z</time>
      </trkpt>
      <trkpt lat="40.254783" lon="-4.910600">
        <ele>1202.0</ele>
        <time>2013-07-02T10:54:44Z</time>
      </trkpt>
      <trkpt lat="40.254733" lon="-4.910700">
        <ele>1199.0</ele>
        <time>2013-07-02T10:54:45Z</time>
      </trkpt>
      <trkpt lat="40.254683" lon="-4.910800">
        <ele>1197.0</ele>
        <time>2013-07-02T10:54:46Z</time>
      </trkpt>
      <trkpt lat="40.254633" lon="-4.910917">
        <ele>1196.0</ele>
        <time>2013-07-02T10:54:47Z</time>
      </trkpt>
      <trkpt lat="40.254583" lon="-4.911017">
        <ele>1195.0</ele>
        <time>2013-07-02T10:54:48Z</time>
      </trkpt>
      <trkpt lat="40.254567" lon="-4.911133">
        <ele>1195.0</ele>
        <time>2013-07-02T10:54:49Z</time>
      </trkpt>
      <trkpt lat="40.254533" lon="-4.911250">
        <ele>1194.0</ele>
        <time>2013-07-02T10:54:50Z</time>
      </trkpt>
      <trkpt lat="40.254500" lon="-4.911367">
        <ele>1193.0</ele>
        <time>2013-07-02T10:54:51Z</time>
      </trkpt>
      <trkpt lat="40.254467" lon="-4.911483">
        <ele>1193.0</ele>
        <time>2013-07-02T10:54:52Z</time>
      </trkpt>
      <trkpt lat="40.254417" lon="-4.911600">
        <ele>1192.0</ele>
        <time>2013-07-02T10:54:53Z</time>
      </trkpt>
      <trkpt lat="40.254367" lon="-4.911733">
        <ele>1192.0</ele>
        <time>2013-07-02T10:54:54Z</time>
      </trkpt>
      <trkpt lat="40.254333" lon="-4.911850">
        <ele>1192.0</ele>
        <time>2013-07-02T10:54:55Z</time>
      </trkpt>
      <trkpt lat="40.254300" lon="-4.911983">
        <ele>1192.0</ele>
        <time>2013-07-02T10:54:56Z</time>
      </trkpt>
      <trkpt lat="40.254283" lon="-4.912100">
        <ele>1192.0</ele>
        <time>2013-07-02T10:54:57Z</time>
      </trkpt>
      <trkpt lat="40.254250" lon="-4.912233">
        <ele>1191.0</ele>
        <time>2013-07-02T10:54:58Z</time>
      </trkpt>
      <trkpt lat="40.254233" lon="-4.912350">
        <ele>1190.0</ele>
        <time>2013-07-02T10:54:59Z</time>
      </trkpt>
      <trkpt lat="40.254200" lon="-4.912483">
        <ele>1189.0</ele>
        <time>2013-07-02T10:55:00Z</time>
      </trkpt>
      <trkpt lat="40.254167" lon="-4.912633">
        <ele>1189.0</ele>
        <time>2013-07-02T10:55:01Z</time>
      </trkpt>
      <trkpt lat="40.254133" lon="-4.912767">
        <ele>1189.0</ele>
        <time>2013-07-02T10:55:02Z</time>
      </trkpt>
      <trkpt lat="40.254083" lon="-4.912900">
        <ele>1189.0</ele>
        <time>2013-07-02T10:55:03Z</time>
      </trkpt>
      <trkpt lat="40.254050" lon="-4.913033">
        <ele>1189.0</ele>
        <time>2013-07-02T10:55:04Z</time>
      </trkpt>
      <trkpt lat="40.254000" lon="-4.913150">
        <ele>1188.0</ele>
        <time>2013-07-02T10:55:05Z</time>
      </trkpt>
      <trkpt lat="40.253950" lon="-4.913267">
        <ele>1188.0</ele>
        <time>2013-07-02T10:55:06Z</time>
      </trkpt>
      <trkpt lat="40.253900" lon="-4.913400">
        <ele>1188.0</ele>
        <time>2013-07-02T10:55:07Z</time>
      </trkpt>
      <trkpt lat="40.253833" lon="-4.913517">
        <ele>1188.0</ele>
        <time>2013-07-02T10:55:08Z</time>
      </trkpt>
      <trkpt lat="40.253767" lon="-4.913633">
        <ele>1189.0</ele>
        <time>2013-07-02T10:55:09Z</time>
      </trkpt>
      <trkpt lat="40.253717" lon="-4.913750">
        <ele>1192.0</ele>
        <time>2013-07-02T10:55:10Z</time>
      </trkpt>
      <trkpt lat="40.253667" lon="-4.913850">
        <ele>1194.0</ele>
        <time>2013-07-02T10:55:11Z</time>
      </trkpt>
      <trkpt lat="40.253650" lon="-4.913950">
        <ele>1195.0</ele>
        <time>2013-07-02T10:55:12Z</time>
      </trkpt>
      <trkpt lat="40.253617" lon="-4.914050">
        <ele>1195.0</ele>
        <time>2013-07-02T10:55:13Z</time>
      </trkpt>
      <trkpt lat="40.253600" lon="-4.914167">
        <ele>1194.0</ele>
        <time>2013-07-02T10:55:14Z</time>
      </trkpt>
      <trkpt lat="40.253550" lon="-4.914283">
        <ele>1193.0</ele>
        <time>2013-07-02T10:55:15Z</time>
      </trkpt>
      <trkpt lat="40.253500" lon="-4.914383">
        <ele>1191.0</ele>
        <time>2013-07-02T10:55:16Z</time>
      </trkpt>
      <trkpt lat="40.253417" lon="-4.914467">
        <ele>1190.0</ele>
        <time>2013-07-02T10:55:17Z</time>
      </trkpt>
      <trkpt lat="40.253350" lon="-4.914550">
        <ele>1189.0</ele>
        <time>2013-07-02T10:55:18Z</time>
      </trkpt>
      <trkpt lat="40.253283" lon="-4.914633">
        <ele>1189.0</ele>
        <time>2013-07-02T10:55:19Z</time>
      </trkpt>
      <trkpt lat="40.253233" lon="-4.914733">
        <ele>1189.0</ele>
        <time>2013-07-02T10:55:20Z</time>
      </trkpt>
      <trkpt lat="40.253167" lon="-4.914817">
        <ele>1189.0</ele>
        <time>2013-07-02T10:55:21Z</time>
      </trkpt>
      <trkpt lat="40.253100" lon="-4.914900">
        <ele>1188.0</ele>
        <time>2013-07-02T10:55:22Z</time>
      </trkpt>
      <trkpt lat="40.253017" lon="-4.914983">
        <ele>1188.0</ele>
        <time>2013-07-02T10:55:23Z</time>
      </trkpt>
      <trkpt lat="40.252950" lon="-4.915033">
        <ele>1190.0</ele>
        <time>2013-07-02T10:55:24Z</time>
      </trkpt>
      <trkpt lat="40.252900" lon="-4.915083">
        <ele>1191.0</ele>
        <time>2013-07-02T10:55:25Z</time>
      </trkpt>
      <trkpt lat="40.252833" lon="-4.915133">
        <ele>1192.0</ele>
        <time>2013-07-02T10:55:26Z</time>
      </trkpt>
      <trkpt lat="40.252783" lon="-4.915200">
        <ele>1192.0</ele>
        <time>2013-07-02T10:55:27Z</time>
      </trkpt>
      <trkpt lat="40.252717" lon="-4.915267">
        <ele>1192.0</ele>
        <time>2013-07-02T10:55:28Z</time>
      </trkpt>
      <trkpt lat="40.252650" lon="-4.915333">
        <ele>1193.0</ele>
        <time>2013-07-02T10:55:29Z</time>
      </trkpt>
      <trkpt lat="40.252583" lon="-4.915383">
        <ele>1193.0</ele>
        <time>2013-07-02T10:55:30Z</time>
      </trkpt>
      <trkpt lat="40.252517" lon="-4.915450">
        <ele>1192.0</ele>
        <time>2013-07-02T10:55:31Z</time>
      </trkpt>
      <trkpt lat="40.252450" lon="-4.915517">
        <ele>1191.0</ele>
        <time>2013-07-02T10:55:32Z</time>
      </trkpt>
      <trkpt lat="40.252367" lon="-4.915600">
        <ele>1191.0</ele>
        <time>2013-07-02T10:55:33Z</time>
      </trkpt>
      <trkpt lat="40.252300" lon="-4.915683">
        <ele>1191.0</ele>
        <time>2013-07-02T10:55:34Z</time>
      </trkpt>
      <trkpt lat="40.252233" lon="-4.915783">
        <ele>1192.0</ele>
        <time>2013-07-02T10:55:35Z</time>
      </trkpt>
      <trkpt lat="40.252167" lon="-4.915867">
        <ele>1192.0</ele>
        <time>2013-07-02T10:55:36Z</time>
      </trkpt>
      <trkpt lat="40.252117" lon="-4.915950">
        <ele>1191.0</ele>
        <time>2013-07-02T10:55:37Z</time>
      </trkpt>
      <trkpt lat="40.252050" lon="-4.916033">
        <ele>1190.0</ele>
        <time>2013-07-02T10:55:38Z</time>
      </trkpt>
      <trkpt lat="40.251983" lon="-4.916133">
        <ele>1189.0</ele>
        <time>2013-07-02T10:55:39Z</time>
      </trkpt>
      <trkpt lat="40.251917" lon="-4.916217">
        <ele>1187.0</ele>
        <time>2013-07-02T10:55:40Z</time>
      </trkpt>
      <trkpt lat="40.251833" lon="-4.916317">
        <ele>1186.0</ele>
        <time>2013-07-02T10:55:41Z</time>
      </trkpt>
      <trkpt lat="40.251767" lon="-4.916400">
        <ele>1186.0</ele>
        <time>2013-07-02T10:55:42Z</time>
      </trkpt>
      <trkpt lat="40.251700" lon="-4.916500">
        <ele>1186.0</ele>
        <time>2013-07-02T10:55:43Z</time>
      </trkpt>
      <trkpt lat="40.251617" lon="-4.916583">
        <ele>1186.0</ele>
        <time>2013-07-02T10:55:44Z</time>
      </trkpt>
      <trkpt lat="40.251550" lon="-4.916683">
        <ele>1186.0</ele>
        <time>2013-07-02T10:55:45Z</time>
      </trkpt>
      <trkpt lat="40.251500" lon="-4.916783">
        <ele>1187.0</ele>
        <time>2013-07-02T10:55:46Z</time>
      </trkpt>
      <trkpt lat="40.251433" lon="-4.916883">
        <ele>1187.0</ele>
        <time>2013-07-02T10:55:47Z</time>
      </trkpt>
      <trkpt lat="40.251367" lon="-4.916983">
        <ele>1187.0</ele>
        <time>2013-07-02T10:55:48Z</time>
      </trkpt>
      <trkpt lat="40.251317" lon="-4.917083">
        <ele>1188.0</ele>
        <time>2013-07-02T10:55:49Z</time>
      </trkpt>
      <trkpt lat="40.251267" lon="-4.917167">
        <ele>1189.0</ele>
        <time>2013-07-02T10:55:50Z</time>
      </trkpt>
      <trkpt lat="40.251200" lon="-4.917233">
        <ele>1190.0</ele>
        <time>2013-07-02T10:55:51Z</time>
      </trkpt>
      <trkpt lat="40.251150" lon="-4.917300">
        <ele>1190.0</ele>
        <time>2013-07-02T10:55:52Z</time>
      </trkpt>
      <trkpt lat="40.251083" lon="-4.917333">
        <ele>1190.0</ele>
        <time>2013-07-02T10:55:53Z</time>
      </trkpt>
      <trkpt lat="40.251017" lon="-4.917400">
        <ele>1189.0</ele>
        <time>2013-07-02T10:55:54Z</time>
      </trkpt>
      <trkpt lat="40.250950" lon="-4.917450">
        <ele>1190.0</ele>
        <time>2013-07-02T10:55:55Z</time>
      </trkpt>
      <trkpt lat="40.250867" lon="-4.917517">
        <ele>1190.0</ele>
        <time>2013-07-02T10:55:56Z</time>
      </trkpt>
      <trkpt lat="40.250783" lon="-4.917567">
        <ele>1190.0</ele>
        <time>2013-07-02T10:55:57Z</time>
      </trkpt>
      <trkpt lat="40.250700" lon="-4.917633">
        <ele>1190.0</ele>
        <time>2013-07-02T10:55:58Z</time>
      </trkpt>
      <trkpt lat="40.250617" lon="-4.917700">
        <ele>1191.0</ele>
        <time>2013-07-02T10:55:59Z</time>
      </trkpt>
      <trkpt lat="40.250533" lon="-4.917783">
        <ele>1193.0</ele>
        <time>2013-07-02T10:56:00Z</time>
      </trkpt>
      <trkpt lat="40.250483" lon="-4.917850">
        <ele>1194.0</ele>
        <time>2013-07-02T10:56:01Z</time>
      </trkpt>
      <trkpt lat="40.250417" lon="-4.917933">
        <ele>1195.0</ele>
        <time>2013-07-02T10:56:02Z</time>
      </trkpt>
      <trkpt lat="40.250367" lon="-4.917983">
        <ele>1196.0</ele>
        <time>2013-07-02T10:56:03Z</time>
      </trkpt>
      <trkpt lat="40.250300" lon="-4.918033">
        <ele>1199.0</ele>
        <time>2013-07-02T10:56:04Z</time>
      </trkpt>
      <trkpt lat="40.250250" lon="-4.918067">
        <ele>1201.0</ele>
        <time>2013-07-02T10:56:05Z</time>
      </trkpt>
      <trkpt lat="40.250183" lon="-4.918100">
        <ele>1204.0</ele>
        <time>2013-07-02T10:56:06Z</time>
      </trkpt>
      <trkpt lat="40.250133" lon="-4.918133">
        <ele>1206.0</ele>
        <time>2013-07-02T10:56:07Z</time>
      </trkpt>
      <trkpt lat="40.250067" lon="-4.918150">
        <ele>1209.0</ele>
        <time>2013-07-02T10:56:08Z</time>
      </trkpt>
      <trkpt lat="40.250017" lon="-4.918167">
        <ele>1211.0</ele>
        <time>2013-07-02T10:56:09Z</time>
      </trkpt>
      <trkpt lat="40.249967" lon="-4.918200">
        <ele>1212.0</ele>
        <time>2013-07-02T10:56:10Z</time>
      </trkpt>
      <trkpt lat="40.249917" lon="-4.918233">
        <ele>1213.0</ele>
        <time>2013-07-02T10:56:11Z</time>
      </trkpt>
      <trkpt lat="40.249867" lon="-4.918267">
        <ele>1215.0</ele>
        <time>2013-07-02T10:56:12Z</time>
      </trkpt>
      <trkpt lat="40.249817" lon="-4.918333">
        <ele>1216.0</ele>
        <time>2013-07-02T10:56:13Z</time>
      </trkpt>
      <trkpt lat="40.249800" lon="-4.918417">
        <ele>1218.0</ele>
        <time>2013-07-02T10:56:14Z</time>
      </trkpt>
      <trkpt lat="40.249817" lon="-4.918517">
        <ele>1220.0</ele>
        <time>2013-07-02T10:56:15Z</time>
      </trkpt>
      <trkpt lat="40.249850" lon="-4.918617">
        <ele>1222.0</ele>
        <time>2013-07-02T10:56:16Z</time>
      </trkpt>
      <trkpt lat="40.249900" lon="-4.918700">
        <ele>1224.0</ele>
        <time>2013-07-02T10:56:17Z</time>
      </trkpt>
      <trkpt lat="40.249950" lon="-4.918783">
        <ele>1226.0</ele>
        <time>2013-07-02T10:56:18Z</time>
      </trkpt>
      <trkpt lat="40.250017" lon="-4.918833">
        <ele>1227.0</ele>
        <time>2013-07-02T10:56:19Z</time>
      </trkpt>
      <trkpt lat="40.250100" lon="-4.918883">
        <ele>1229.0</ele>
        <time>2013-07-02T10:56:20Z</time>
      </trkpt>
      <trkpt lat="40.250200" lon="-4.918917">
        <ele>1230.0</ele>
        <time>2013-07-02T10:56:21Z</time>
      </trkpt>
      <trkpt lat="40.250300" lon="-4.918933">
        <ele>1231.0</ele>
        <time>2013-07-02T10:56:22Z</time>
      </trkpt>
      <trkpt lat="40.250400" lon="-4.918933">
        <ele>1232.0</ele>
        <time>2013-07-02T10:56:23Z</time>
      </trkpt>
      <trkpt lat="40.250500" lon="-4.918900">
        <ele>1232.0</ele>
        <time>2013-07-02T10:56:24Z</time>
      </trkpt>
      <trkpt lat="40.250600" lon="-4.918817">
        <ele>1231.0</ele>
        <time>2013-07-02T10:56:25Z</time>
      </trkpt>
      <trkpt lat="40.250683" lon="-4.918733">
        <ele>1231.0</ele>
        <time>2013-07-02T10:56:26Z</time>
      </trkpt>
      <trkpt lat="40.250750" lon="-4.918617">
        <ele>1232.0</ele>
        <time>2013-07-02T10:56:27Z</time>
      </trkpt>
      <trkpt lat="40.250783" lon="-4.918483">
        <ele>1233.0</ele>
        <time>2013-07-02T10:56:28Z</time>
      </trkpt>
      <trkpt lat="40.250800" lon="-4.918367">
        <ele>1235.0</ele>
        <time>2013-07-02T10:56:29Z</time>
      </trkpt>
      <trkpt lat="40.250817" lon="-4.918267">
        <ele>1237.0</ele>
        <time>2013-07-02T10:56:30Z</time>
      </trkpt>
      <trkpt lat="40.250833" lon="-4.918167">
        <ele>1240.0</ele>
        <time>2013-07-02T10:56:31Z</time>
      </trkpt>
      <trkpt lat="40.250833" lon="-4.918083">
        <ele>1243.0</ele>
        <time>2013-07-02T10:56:32Z</time>
      </trkpt>
      <trkpt lat="40.250800" lon="-4.918017">
        <ele>1244.0</ele>
        <time>2013-07-02T10:56:33Z</time>
      </trkpt>
      <trkpt lat="40.250767" lon="-4.917933">
        <ele>1245.0</ele>
        <time>2013-07-02T10:56:34Z</time>
      </trkpt>
      <trkpt lat="40.250733" lon="-4.917867">
        <ele>1246.0</ele>
        <time>2013-07-02T10:56:35Z</time>
      </trkpt>
      <trkpt lat="40.250683" lon="-4.917800">
        <ele>1248.0</ele>
        <time>2013-07-02T10:56:36Z</time>
      </trkpt>
      <trkpt lat="40.250617" lon="-4.917767">
        <ele>1249.0</ele>
        <time>2013-07-02T10:56:37Z</time>
      </trkpt>
      <trkpt lat="40.250550" lon="-4.917750">
        <ele>1251.0</ele>
        <time>2013-07-02T10:56:38Z</time>
      </trkpt>
      <trkpt lat="40.250483" lon="-4.917783">
        <ele>1254.0</ele>
        <time>2013-07-02T10:56:39Z</time>
      </trkpt>
      <trkpt lat="40.250433" lon="-4.917850">
        <ele>1258.0</ele>
        <time>2013-07-02T10:56:40Z</time>
      </trkpt>
      <trkpt lat="40.250400" lon="-4.917900">
        <ele>1264.0</ele>
        <time>2013-07-02T10:56:41Z</time>
      </trkpt>
      <trkpt lat="40.250383" lon="-4.917950">
        <ele>1269.0</ele>
        <time>2013-07-02T10:56:42Z</time>
      </trkpt>
      <trkpt lat="40.250367" lon="-4.918017">
        <ele>1274.0</ele>
        <time>2013-07-02T10:56:43Z</time>
      </trkpt>
      <trkpt lat="40.250333" lon="-4.918100">
        <ele>1277.0</ele>
        <time>2013-07-02T10:56:44Z</time>
      </trkpt>
      <trkpt lat="40.250350" lon="-4.918200">
        <ele>1279.0</ele>
        <time>2013-07-02T10:56:45Z</time>
      </trkpt>
      <trkpt lat="40.250400" lon="-4.918333">
        <ele>1281.0</ele>
        <time>2013-07-02T10:56:46Z</time>
      </trkpt>
      <trkpt lat="40.250483" lon="-4.918433">
        <ele>1283.0</ele>
        <time>2013-07-02T10:56:47Z</time>
      </trkpt>
      <trkpt lat="40.250583" lon="-4.918500">
        <ele>1286.0</ele>
        <time>2013-07-02T10:56:48Z</time>
      </trkpt>
      <trkpt lat="40.250683" lon="-4.918550">
        <ele>1291.0</ele>
        <time>2013-07-02T10:56:49Z</time>
      </trkpt>
      <trkpt lat="40.250783" lon="-4.918550">
        <ele>1295.0</ele>
        <time>2013-07-02T10:56:50Z</time>
      </trkpt>
      <trkpt lat="40.250867" lon="-4.918533">
        <ele>1298.0</ele>
        <time>2013-07-02T10:56:51Z</time>
      </trkpt>
      <trkpt lat="40.250933" lon="-4.918500">
        <ele>1300.0</ele>
        <time>2013-07-02T10:56:52Z</time>
      </trkpt>
      <trkpt lat="40.251017" lon="-4.918433">
        <ele>1303.0</ele>
        <time>2013-07-02T10:56:53Z</time>
      </trkpt>
      <trkpt lat="40.251100" lon="-4.918367">
        <ele>1306.0</ele>
        <time>2013-07-02T10:56:54Z</time>
      </trkpt>
      <trkpt lat="40.251167" lon="-4.918283">
        <ele>1308.0</ele>
        <time>2013-07-02T10:56:55Z</time>
      </trkpt>
      <trkpt lat="40.251200" lon="-4.918183">
        <ele>1311.0</ele>
        <time>2013-07-02T10:56:56Z</time>
      </trkpt>
      <trkpt lat="40.251200" lon="-4.918083">
        <ele>1314.0</ele>
        <time>2013-07-02T10:56:57Z</time>
      </trkpt>
      <trkpt lat="40.251183" lon="-4.918017">
        <ele>1318.0</ele>
        <time>2013-07-02T10:56:58Z</time>
      </trkpt>
      <trkpt lat="40.251133" lon="-4.917950">
        <ele>1321.0</ele>
        <time>2013-07-02T10:56:59Z</time>
      </trkpt>
      <trkpt lat="40.251083" lon="-4.917900">
        <ele>1324.0</ele>
        <time>2013-07-02T10:57:00Z</time>
      </trkpt>
      <trkpt lat="40.251017" lon="-4.917883">
        <ele>1326.0</ele>
        <time>2013-07-02T10:57:01Z</time>
      </trkpt>
      <trkpt lat="40.250950" lon="-4.917900">
        <ele>1328.0</ele>
        <time>2013-07-02T10:57:02Z</time>
      </trkpt>
      <trkpt lat="40.250883" lon="-4.917950">
        <ele>1330.0</ele>
        <time>2013-07-02T10:57:03Z</time>
      </trkpt>
      <trkpt lat="40.250833" lon="-4.918033">
        <ele>1333.0</ele>
        <time>2013-07-02T10:57:04Z</time>
      </trkpt>
      <trkpt lat="40.250800" lon="-4.918133">
        <ele>1339.0</ele>
        <time>2013-07-02T10:57:05Z</time>
      </trkpt>
      <trkpt lat="40.250800" lon="-4.918217">
        <ele>1345.0</ele>
        <time>2013-07-02T10:57:06Z</time>
      </trkpt>
      <trkpt lat="40.250817" lon="-4.918300">
        <ele>1350.0</ele>
        <time>2013-07-02T10:57:07Z</time>
      </trkpt>
      <trkpt lat="40.250833" lon="-4.918383">
        <ele>1354.0</ele>
        <time>2013-07-02T10:57:08Z</time>
      </trkpt>
      <trkpt lat="40.250867" lon="-4.918467">
        <ele>1357.0</ele>
        <time>2013-07-02T10:57:09Z</time>
      </trkpt>
      <trkpt lat="40.250900" lon="-4.918583">
        <ele>1358.0</ele>
        <time>2013-07-02T10:57:10Z</time>
      </trkpt>
      <trkpt lat="40.250967" lon="-4.918700">
        <ele>1360.0</ele>
        <time>2013-07-02T10:57:11Z</time>
      </trkpt>
      <trkpt lat="40.251050" lon="-4.918817">
        <ele>1363.0</ele>
        <time>2013-07-02T10:57:12Z</time>
      </trkpt>
      <trkpt lat="40.251150" lon="-4.918883">
        <ele>1366.0</ele>
        <time>2013-07-02T10:57:13Z</time>
      </trkpt>
      <trkpt lat="40.251250" lon="-4.918933">
        <ele>1370.0</ele>
        <time>2013-07-02T10:57:14Z</time>
      </trkpt>
      <trkpt lat="40.251350" lon="-4.918950">
        <ele>1374.0</ele>
        <time>2013-07-02T10:57:15Z</time>
      </trkpt>
      <trkpt lat="40.251450" lon="-4.918950">
        <ele>1376.0</ele>
        <time>2013-07-02T10:57:16Z</time>
      </trkpt>
      <trkpt lat="40.251550" lon="-4.918950">
        <ele>1378.0</ele>
        <time>2013-07-02T10:57:17Z</time>
      </trkpt>
      <trkpt lat="40.251650" lon="-4.918917">
        <ele>1380.0</ele>
        <time>2013-07-02T10:57:18Z</time>
      </trkpt>
      <trkpt lat="40.251733" lon="-4.918867">
        <ele>1382.0</ele>
        <time>2013-07-02T10:57:19Z</time>
      </trkpt>
      <trkpt lat="40.251833" lon="-4.918767">
        <ele>1383.0</ele>
        <time>2013-07-02T10:57:20Z</time>
      </trkpt>
      <trkpt lat="40.251900" lon="-4.918650">
        <ele>1385.0</ele>
        <time>2013-07-02T10:57:21Z</time>
      </trkpt>
      <trkpt lat="40.251950" lon="-4.918550">
        <ele>1388.0</ele>
        <time>2013-07-02T10:57:22Z</time>
      </trkpt>
      <trkpt lat="40.251967" lon="-4.918433">
        <ele>1391.0</ele>
        <time>2013-07-02T10:57:23Z</time>
      </trkpt>
      <trkpt lat="40.251967" lon="-4.918350">
        <ele>1394.0</ele>
        <time>2013-07-02T10:57:24Z</time>
      </trkpt>
      <trkpt lat="40.251950" lon="-4.918267">
        <ele>1397.0</ele>
        <time>2013-07-02T10:57:25Z</time>
      </trkpt>
      <trkpt lat="40.251933" lon="-4.918200">
        <ele>1400.0</ele>
        <time>2013-07-02T10:57:26Z</time>
      </trkpt>
      <trkpt lat="40.251900" lon="-4.918150">
        <ele>1403.0</ele>
        <time>2013-07-02T10:57:27Z</time>
      </trkpt>
      <trkpt lat="40.251867" lon="-4.918100">
        <ele>1406.0</ele>
        <time>2013-07-02T10:57:28Z</time>
      </trkpt>
      <trkpt lat="40.251817" lon="-4.918050">
        <ele>1409.0</ele>
        <time>2013-07-02T10:57:29Z</time>
      </trkpt>
      <trkpt lat="40.251767" lon="-4.918000">
        <ele>1412.0</ele>
        <time>2013-07-02T10:57:30Z</time>
      </trkpt>
      <trkpt lat="40.251717" lon="-4.917967">
        <ele>1415.0</ele>
        <time>2013-07-02T10:57:31Z</time>
      </trkpt>
      <trkpt lat="40.251667" lon="-4.917933">
        <ele>1418.0</ele>
        <time>2013-07-02T10:57:32Z</time>
      </trkpt>
      <trkpt lat="40.251600" lon="-4.917900">
        <ele>1422.0</ele>
        <time>2013-07-02T10:57:33Z</time>
      </trkpt>
      <trkpt lat="40.251550" lon="-4.917883">
        <ele>1427.0</ele>
        <time>2013-07-02T10:57:34Z</time>
      </trkpt>
      <trkpt lat="40.251500" lon="-4.917867">
        <ele>1431.0</ele>
        <time>2013-07-02T10:57:35Z</time>
      </trkpt>
      <trkpt lat="40.251467" lon="-4.917850">
        <ele>1435.0</ele>
        <time>2013-07-02T10:57:36Z</time>
      </trkpt>
      <trkpt lat="40.251417" lon="-4.917850">
        <ele>1437.0</ele>
        <time>2013-07-02T10:57:37Z</time>
      </trkpt>
      <trkpt lat="40.251367" lon="-4.917867">
        <ele>1440.0</ele>
        <time>2013-07-02T10:57:38Z</time>
      </trkpt>
      <trkpt lat="40.251317" lon="-4.917917">
        <ele>1443.0</ele>
        <time>2013-07-02T10:57:39Z</time>
      </trkpt>
      <trkpt lat="40.251267" lon="-4.918000">
        <ele>1447.0</ele>
        <time>2013-07-02T10:57:40Z</time>
      </trkpt>
      <trkpt lat="40.251250" lon="-4.918083">
        <ele>1452.0</ele>
        <time>2013-07-02T10:57:41Z</time>
      </trkpt>
      <trkpt lat="40.251267" lon="-4.918183">
        <ele>1455.0</ele>
        <time>2013-07-02T10:57:42Z</time>
      </trkpt>
      <trkpt lat="40.251283" lon="-4.918283">
        <ele>1459.0</ele>
        <time>2013-07-02T10:57:43Z</time>
      </trkpt>
      <trkpt lat="40.251333" lon="-4.918367">
        <ele>1461.0</ele>
        <time>2013-07-02T10:57:44Z</time>
      </trkpt>
      <trkpt lat="40.251400" lon="-4.918467">
        <ele>1463.0</ele>
        <time>2013-07-02T10:57:45Z</time>
      </trkpt>
      <trkpt lat="40.251483" lon="-4.918533">
        <ele>1466.0</ele>
        <time>2013-07-02T10:57:46Z</time>
      </trkpt>
      <trkpt lat="40.251583" lon="-4.918600">
        <ele>1468.0</ele>
        <time>2013-07-02T10:57:47Z</time>
      </trkpt>
      <trkpt lat="40.251700" lon="-4.918650">
        <ele>1469.0</ele>
        <time>2013-07-02T10:57:48Z</time>
      </trkpt>
      <trkpt lat="40.251817" lon="-4.918650">
        <ele>1470.0</ele>
        <time>2013-07-02T10:57:49Z</time>
      </trkpt>
      <trkpt lat="40.251933" lon="-4.918633">
        <ele>1472.0</ele>
        <time>2013-07-02T10:57:50Z</time>
      </trkpt>
      <trkpt lat="40.252033" lon="-4.918567">
        <ele>1476.0</ele>
        <time>2013-07-02T10:57:51Z</time>
      </trkpt>
      <trkpt lat="40.252100" lon="-4.918517">
        <ele>1480.0</ele>
        <time>2013-07-02T10:57:52Z</time>
      </trkpt>
      <trkpt lat="40.252150" lon="-4.918450">
        <ele>1484.0</ele>
        <time>2013-07-02T10:57:53Z</time>
      </trkpt>
      <trkpt lat="40.252200" lon="-4.918383">
        <ele>1489.0</ele>
        <time>2013-07-02T10:57:54Z</time>
      </trkpt>
      <trkpt lat="40.252250" lon="-4.918300">
        <ele>1493.0</ele>
        <time>2013-07-02T10:57:55Z</time>
      </trkpt>
      <trkpt lat="40.252283" lon="-4.918217">
        <ele>1496.0</ele>
        <time>2013-07-02T10:57:56Z</time>
      </trkpt>
      <trkpt lat="40.252300" lon="-4.918133">
        <ele>1500.0</ele>
        <time>2013-07-02T10:57:57Z</time>
      </trkpt>
      <trkpt lat="40.252300" lon="-4.918050">
        <ele>1504.0</ele>
        <time>2013-07-02T10:57:58Z</time>
      </trkpt>
      <trkpt lat="40.252283" lon="-4.917983">
        <ele>1506.0</ele>
        <time>2013-07-02T10:57:59Z</time>
      </trkpt>
      <trkpt lat="40.252233" lon="-4.917933">
        <ele>1508.0</ele>
        <time>2013-07-02T10:58:00Z</time>
      </trkpt>
      <trkpt lat="40.252167" lon="-4.917900">
        <ele>1510.0</ele>
        <time>2013-07-02T10:58:01Z</time>
      </trkpt>
      <trkpt lat="40.252083" lon="-4.917917">
        <ele>1513.0</ele>
        <time>2013-07-02T10:58:02Z</time>
      </trkpt>
      <trkpt lat="40.252050" lon="-4.917983">
        <ele>1516.0</ele>
        <time>2013-07-02T10:58:03Z</time>
      </trkpt>
      <trkpt lat="40.252033" lon="-4.918067">
        <ele>1521.0</ele>
        <time>2013-07-02T10:58:04Z</time>
      </trkpt>
      <trkpt lat="40.252033" lon="-4.918150">
        <ele>1526.0</ele>
        <time>2013-07-02T10:58:05Z</time>
      </trkpt>
      <trkpt lat="40.252033" lon="-4.918217">
        <ele>1530.0</ele>
        <time>2013-07-02T10:58:06Z</time>
      </trkpt>
      <trkpt lat="40.252050" lon="-4.918267">
        <ele>1533.0</ele>
        <time>2013-07-02T10:58:07Z</time>
      </trkpt>
      <trkpt lat="40.252067" lon="-4.918317">
        <ele>1536.0</ele>
        <time>2013-07-02T10:58:08Z</time>
      </trkpt>
      <trkpt lat="40.252100" lon="-4.918383">
        <ele>1538.0</ele>
        <time>2013-07-02T10:58:09Z</time>
      </trkpt>
      <trkpt lat="40.252150" lon="-4.918467">
        <ele>1538.0</ele>
        <time>2013-07-02T10:58:10Z</time>
      </trkpt>
      <trkpt lat="40.252200" lon="-4.918567">
        <ele>1539.0</ele>
        <time>2013-07-02T10:58:11Z</time>
      </trkpt>
      <trkpt lat="40.252267" lon="-4.918683">
        <ele>1540.0</ele>
        <time>2013-07-02T10:58:12Z</time>
      </trkpt>
      <trkpt lat="40.252350" lon="-4.918767">
        <ele>1541.0</ele>
        <time>2013-07-02T10:58:13Z</time>
      </trkpt>
      <trkpt lat="40.252450" lon="-4.918833">
        <ele>1544.0</ele>
        <time>2013-07-02T10:58:14Z</time>
      </trkpt>
      <trkpt lat="40.252550" lon="-4.918883">
        <ele>1546.0</ele>
        <time>2013-07-02T10:58:15Z</time>
      </trkpt>
      <trkpt lat="40.252650" lon="-4.918917">
        <ele>1548.0</ele>
        <time>2013-07-02T10:58:16Z</time>
      </trkpt>
      <trkpt lat="40.252750" lon="-4.918967">
        <ele>1549.0</ele>
        <time>2013-07-02T10:58:17Z</time>
      </trkpt>
      <trkpt lat="40.252867" lon="-4.919000">
        <ele>1549.0</ele>
        <time>2013-07-02T10:58:18Z</time>
      </trkpt>
      <trkpt lat="40.252983" lon="-4.919000">
        <ele>1550.0</ele>
        <time>2013-07-02T10:58:19Z</time>
      </trkpt>
      <trkpt lat="40.253083" lon="-4.918950">
        <ele>1550.0</ele>
        <time>2013-07-02T10:58:20Z</time>
      </trkpt>
      <trkpt lat="40.253167" lon="-4.918883">
        <ele>1549.0</ele>
        <time>2013-07-02T10:58:21Z</time>
      </trkpt>
      <trkpt lat="40.253233" lon="-4.918783">
        <ele>1550.0</ele>
        <time>2013-07-02T10:58:22Z</time>
      </trkpt>
      <trkpt lat="40.253283" lon="-4.918667">
        <ele>1551.0</ele>
        <time>2013-07-02T10:58:23Z</time>
      </trkpt>
      <trkpt lat="40.253317" lon="-4.918567">
        <ele>1554.0</ele>
        <time>2013-07-02T10:58:24Z</time>
      </trkpt>
      <trkpt lat="40.253350" lon="-4.918467">
        <ele>1556.0</ele>
        <time>2013-07-02T10:58:25Z</time>
      </trkpt>
      <trkpt lat="40.253367" lon="-4.918383">
        <ele>1559.0</ele>
        <time>2013-07-02T10:58:26Z</time>
      </trkpt>
      <trkpt lat="40.253400" lon="-4.918300">
        <ele>1562.0</ele>
        <time>2013-07-02T10:58:27Z</time>
      </trkpt>
      <trkpt lat="40.253417" lon="-4.918200">
        <ele>1564.0</ele>
        <time>2013-07-02T10:58:28Z</time>
      </trkpt>
      <trkpt lat="40.253433" lon="-4.918117">
        <ele>1566.0</ele>
        <time>2013-07-02T10:58:29Z</time>
      </trkpt>
      <trkpt lat="40.253450" lon="-4.918033">
        <ele>1568.0</ele>
        <time>2013-07-02T10:58:30Z</time>
      </trkpt>
      <trkpt lat="40.253433" lon="-4.917950">
        <ele>1569.0</ele>
        <time>2013-07-02T10:58:31Z</time>
      </trkpt>
      <trkpt lat="40.253400" lon="-4.917867">
        <ele>1570.0</ele>
        <time>2013-07-02T10:58:32Z</time>
      </trkpt>
      <trkpt lat="40.253367" lon="-4.917783">
        <ele>1571.0</ele>
        <time>2013-07-02T10:58:33Z</time>
      </trkpt>
      <trkpt lat="40.253317" lon="-4.917717">
        <ele>1573.0</ele>
        <time>2013-07-02T10:58:34Z</time>
      </trkpt>
      <trkpt lat="40.253250" lon="-4.917683">
        <ele>1577.0</ele>
        <time>2013-07-02T10:58:35Z</time>
      </trkpt>
      <trkpt lat="40.253200" lon="-4.917667">
        <ele>1581.0</ele>
        <time>2013-07-02T10:58:36Z</time>
      </trkpt>
      <trkpt lat="40.253150" lon="-4.917667">
        <ele>1585.0</ele>
        <time>2013-07-02T10:58:37Z</time>
      </trkpt>
      <trkpt lat="40.253117" lon="-4.917650">
        <ele>1588.0</ele>
        <time>2013-07-02T10:58:38Z</time>
      </trkpt>
      <trkpt lat="40.253083" lon="-4.917633">
        <ele>1591.0</ele>
        <time>2013-07-02T10:58:39Z</time>
      </trkpt>
      <trkpt lat="40.253050" lon="-4.917650">
        <ele>1592.0</ele>
        <time>2013-07-02T10:58:40Z</time>
      </trkpt>
      <trkpt lat="40.253000" lon="-4.917683">
        <ele>1594.0</ele>
        <time>2013-07-02T10:58:41Z</time>
      </trkpt>
      <trkpt lat="40.252967" lon="-4.917750">
        <ele>1597.0</ele>
        <time>2013-07-02T10:58:42Z</time>
      </trkpt>
      <trkpt lat="40.252950" lon="-4.917833">
        <ele>1601.0</ele>
        <time>2013-07-02T10:58:43Z</time>
      </trkpt>
      <trkpt lat="40.252983" lon="-4.917917">
        <ele>1603.0</ele>
        <time>2013-07-02T10:58:44Z</time>
      </trkpt>
      <trkpt lat="40.253033" lon="-4.918017">
        <ele>1606.0</ele>
        <time>2013-07-02T10:58:45Z</time>
      </trkpt>
      <trkpt lat="40.253067" lon="-4.918100">
        <ele>1609.0</ele>
        <time>2013-07-02T10:58:46Z</time>
      </trkpt>
      <trkpt lat="40.253117" lon="-4.918217">
        <ele>1612.0</ele>
        <time>2013-07-02T10:58:47Z</time>
      </trkpt>
      <trkpt lat="40.253150" lon="-4.918300">
        <ele>1616.0</ele>
        <time>2013-07-02T10:58:48Z</time>
      </trkpt>
      <trkpt lat="40.253233" lon="-4.918367">
        <ele>1618.0</ele>
        <time>2013-07-02T10:58:49Z</time>
      </trkpt>
      <trkpt lat="40.253317" lon="-4.918417">
        <ele>1618.0</ele>
        <time>2013-07-02T10:58:50Z</time>
      </trkpt>
      <trkpt lat="40.253417" lon="-4.918433">
        <ele>1619.0</ele>
        <time>2013-07-02T10:58:51Z</time>
      </trkpt>
      <trkpt lat="40.253533" lon="-4.918433">
        <ele>1619.0</ele>
        <time>2013-07-02T10:58:52Z</time>
      </trkpt>
      <trkpt lat="40.253633" lon="-4.918400">
        <ele>1621.0</ele>
        <time>2013-07-02T10:58:53Z</time>
      </trkpt>
      <trkpt lat="40.253733" lon="-4.918350">
        <ele>1622.0</ele>
        <time>2013-07-02T10:58:54Z</time>
      </trkpt>
      <trkpt lat="40.253817" lon="-4.918300">
        <ele>1623.0</ele>
        <time>2013-07-02T10:58:55Z</time>
      </trkpt>
      <trkpt lat="40.253900" lon="-4.918233">
        <ele>1624.0</ele>
        <time>2013-07-02T10:58:56Z</time>
      </trkpt>
      <trkpt lat="40.253967" lon="-4.918150">
        <ele>1625.0</ele>
        <time>2013-07-02T10:58:57Z</time>
      </trkpt>
      <trkpt lat="40.254033" lon="-4.918050">
        <ele>1626.0</ele>
        <time>2013-07-02T10:58:58Z</time>
      </trkpt>
      <trkpt lat="40.254083" lon="-4.917933">
        <ele>1628.0</ele>
        <time>2013-07-02T10:58:59Z</time>
      </trkpt>
      <trkpt lat="40.254133" lon="-4.917850">
        <ele>1630.0</ele>
        <time>2013-07-02T10:59:00Z</time>
      </trkpt>
      <trkpt lat="40.254200" lon="-4.917750">
        <ele>1634.0</ele>
        <time>2013-07-02T10:59:01Z</time>
      </trkpt>
      <trkpt lat="40.254250" lon="-4.917650">
        <ele>1638.0</ele>
        <time>2013-07-02T10:59:02Z</time>
      </trkpt>
      <trkpt lat="40.254283" lon="-4.917533">
        <ele>1642.0</ele>
        <time>2013-07-02T10:59:03Z</time>
      </trkpt>
      <trkpt lat="40.254317" lon="-4.917433">
        <ele>1646.0</ele>
        <time>2013-07-02T10:59:04Z</time>
      </trkpt>
      <trkpt lat="40.254333" lon="-4.917333">
        <ele>1650.0</ele>
        <time>2013-07-02T10:59:05Z</time>
      </trkpt>
      <trkpt lat="40.254367" lon="-4.917233">
        <ele>1653.0</ele>
        <time>2013-07-02T10:59:06Z</time>
      </trkpt>
      <trkpt lat="40.254383" lon="-4.917133">
        <ele>1655.0</ele>
        <time>2013-07-02T10:59:07Z</time>
      </trkpt>
      <trkpt lat="40.254400" lon="-4.917017">
        <ele>1657.0</ele>
        <time>2013-07-02T10:59:08Z</time>
      </trkpt>
      <trkpt lat="40.254400" lon="-4.916900">
        <ele>1659.0</ele>
        <time>2013-07-02T10:59:09Z</time>
      </trkpt>
      <trkpt lat="40.254383" lon="-4.916800">
        <ele>1661.0</ele>
        <time>2013-07-02T10:59:10Z</time>
      </trkpt>
      <trkpt lat="40.254367" lon="-4.916700">
        <ele>1663.0</ele>
        <time>2013-07-02T10:59:11Z</time>
      </trkpt>
      <trkpt lat="40.254333" lon="-4.916617">
        <ele>1665.0</ele>
        <time>2013-07-02T10:59:12Z</time>
      </trkpt>
      <trkpt lat="40.254317" lon="-4.916500">
        <ele>1667.0</ele>
        <time>2013-07-02T10:59:13Z</time>
      </trkpt>
      <trkpt lat="40.254283" lon="-4.916383">
        <ele>1669.0</ele>
        <time>2013-07-02T10:59:14Z</time>
      </trkpt>
      <trkpt lat="40.254250" lon="-4.916267">
        <ele>1672.0</ele>
        <time>2013-07-02T10:59:15Z</time>
      </trkpt>
      <trkpt lat="40.254233" lon="-4.916167">
        <ele>1675.0</ele>
        <time>2013-07-02T10:59:16Z</time>
      </trkpt>
      <trkpt lat="40.254200" lon="-4.916067">
        <ele>1677.0</ele>
        <time>2013-07-02T10:59:17Z</time>
      </trkpt>
      <trkpt lat="40.254183" lon="-4.916000">
        <ele>1679.0</ele>
        <time>2013-07-02T10:59:18Z</time>
      </trkpt>
      <trkpt lat="40.254150" lon="-4.915917">
        <ele>1680.0</ele>
        <time>2013-07-02T10:59:19Z</time>
      </trkpt>
      <trkpt lat="40.254117" lon="-4.915850">
        <ele>1681.0</ele>
        <time>2013-07-02T10:59:20Z</time>
      </trkpt>
      <trkpt lat="40.254083" lon="-4.915783">
        <ele>1681.0</ele>
        <time>2013-07-02T10:59:21Z</time>
      </trkpt>
      <trkpt lat="40.254033" lon="-4.915717">
        <ele>1682.0</ele>
        <time>2013-07-02T10:59:22Z</time>
      </trkpt>
      <trkpt lat="40.253967" lon="-4.915667">
        <ele>1683.0</ele>
        <time>2013-07-02T10:59:23Z</time>
      </trkpt>
      <trkpt lat="40.253917" lon="-4.915650">
        <ele>1682.0</ele>
        <time>2013-07-02T10:59:24Z</time>
      </trkpt>
      <trkpt lat="40.253833" lon="-4.915650">
        <ele>1682.0</ele>
        <time>2013-07-02T10:59:25Z</time>
      </trkpt>
      <trkpt lat="40.253767" lon="-4.915650">
        <ele>1682.0</ele>
        <time>2013-07-02T10:59:26Z</time>
      </trkpt>
      <trkpt lat="40.253683" lon="-4.915650">
        <ele>1683.0</ele>
        <time>2013-07-02T10:59:27Z</time>
      </trkpt>
      <trkpt lat="40.253617" lon="-4.915683">
        <ele>1684.0</ele>
        <time>2013-07-02T10:59:28Z</time>
      </trkpt>
      <trkpt lat="40.253550" lon="-4.915717">
        <ele>1686.0</ele>
        <time>2013-07-02T10:59:29Z</time>
      </trkpt>
      <trkpt lat="40.253483" lon="-4.915767">
        <ele>1688.0</ele>
        <time>2013-07-02T10:59:30Z</time>
      </trkpt>
      <trkpt lat="40.253433" lon="-4.915800">
        <ele>1691.0</ele>
        <time>2013-07-02T10:59:31Z</time>
      </trkpt>
      <trkpt lat="40.253383" lon="-4.915833">
        <ele>1692.0</ele>
        <time>2013-07-02T10:59:32Z</time>
      </trkpt>
      <trkpt lat="40.253317" lon="-4.915850">
        <ele>1694.0</ele>
        <time>2013-07-02T10:59:33Z</time>
      </trkpt>
      <trkpt lat="40.253283" lon="-4.915900">
        <ele>1697.0</ele>
        <time>2013-07-02T10:59:34Z</time>
      </trkpt>
      <trkpt lat="40.253250" lon="-4.915933">
        <ele>1700.0</ele>
        <time>2013-07-02T10:59:35Z</time>
      </trkpt>
      <trkpt lat="40.253217" lon="-4.915983">
        <ele>1702.0</ele>
        <time>2013-07-02T10:59:36Z</time>
      </trkpt>
      <trkpt lat="40.253200" lon="-4.916050">
        <ele>1705.0</ele>
        <time>2013-07-02T10:59:37Z</time>
      </trkpt>
      <trkpt lat="40.253167" lon="-4.916100">
        <ele>1709.0</ele>
        <time>2013-07-02T10:59:38Z</time>
      </trkpt>
      <trkpt lat="40.253133" lon="-4.916150">
        <ele>1713.0</ele>
        <time>2013-07-02T10:59:39Z</time>
      </trkpt>
      <trkpt lat="40.253100" lon="-4.916200">
        <ele>1716.0</ele>
        <time>2013-07-02T10:59:40Z</time>
      </trkpt>
      <trkpt lat="40.253067" lon="-4.916250">
        <ele>1720.0</ele>
        <time>2013-07-02T10:59:41Z</time>
      </trkpt>
      <trkpt lat="40.253050" lon="-4.916300">
        <ele>1725.0</ele>
        <time>2013-07-02T10:59:42Z</time>
      </trkpt>
      <trkpt lat="40.253033" lon="-4.916367">
        <ele>1729.0</ele>
        <time>2013-07-02T10:59:43Z</time>
      </trkpt>
      <trkpt lat="40.253033" lon="-4.916433">
        <ele>1733.0</ele>
        <time>2013-07-02T10:59:44Z</time>
      </trkpt>
      <trkpt lat="40.253067" lon="-4.916500">
        <ele>1737.0</ele>
        <time>2013-07-02T10:59:45Z</time>
      </trkpt>
      <trkpt lat="40.253100" lon="-4.916583">
        <ele>1740.0</ele>
        <time>2013-07-02T10:59:46Z</time>
      </trkpt>
      <trkpt lat="40.253133" lon="-4.916683">
        <ele>1743.0</ele>
        <time>2013-07-02T10:59:47Z</time>
      </trkpt>
      <trkpt lat="40.253200" lon="-4.916750">
        <ele>1746.0</ele>
        <time>2013-07-02T10:59:48Z</time>
      </trkpt>
      <trkpt lat="40.253283" lon="-4.916800">
        <ele>1750.0</ele>
        <time>2013-07-02T10:59:49Z</time>
      </trkpt>
      <trkpt lat="40.253383" lon="-4.916833">
        <ele>1753.0</ele>
        <time>2013-07-02T10:59:50Z</time>
      </trkpt>
      <trkpt lat="40.253483" lon="-4.916817">
        <ele>1757.0</ele>
        <time>2013-07-02T10:59:51Z</time>
      </trkpt>
      <trkpt lat="40.253583" lon="-4.916783">
        <ele>1760.0</ele>
        <time>2013-07-02T10:59:52Z</time>
      </trkpt>
      <trkpt lat="40.253667" lon="-4.916750">
        <ele>1763.0</ele>
        <time>2013-07-02T10:59:53Z</time>
      </trkpt>
      <trkpt lat="40.253750" lon="-4.916700">
        <ele>1765.0</ele>
        <time>2013-07-02T10:59:54Z</time>
      </trkpt>
      <trkpt lat="40.253833" lon="-4.916633">
        <ele>1766.0</ele>
        <time>2013-07-02T10:59:55Z</time>
      </trkpt>
      <trkpt lat="40.253900" lon="-4.916533">
        <ele>1768.0</ele>
        <time>2013-07-02T10:59:56Z</time>
      </trkpt>
      <trkpt lat="40.253950" lon="-4.916417">
        <ele>1771.0</ele>
        <time>2013-07-02T10:59:57Z</time>
      </trkpt>
      <trkpt lat="40.253967" lon="-4.916300">
        <ele>1774.0</ele>
        <time>2013-07-02T10:59:58Z</time>
      </trkpt>
      <trkpt lat="40.253967" lon="-4.916200">
        <ele>1778.0</ele>
        <time>2013-07-02T10:59:59Z</time>
      </trkpt>
      <trkpt lat="40.253967" lon="-4.916100">
        <ele>1781.0</ele>
        <time>2013-07-02T11:00:00Z</time>
      </trkpt>
      <trkpt lat="40.253950" lon="-4.916000">
        <ele>1784.0</ele>
        <time>2013-07-02T11:00:01Z</time>
      </trkpt>
      <trkpt lat="40.253950" lon="-4.915900">
        <ele>1787.0</ele>
        <time>2013-07-02T11:00:02Z</time>
      </trkpt>
      <trkpt lat="40.253933" lon="-4.915817">
        <ele>1790.0</ele>
        <time>2013-07-02T11:00:03Z</time>
      </trkpt>
      <trkpt lat="40.253917" lon="-4.915733">
        <ele>1793.0</ele>
        <time>2013-07-02T11:00:04Z</time>
      </trkpt>
      <trkpt lat="40.253883" lon="-4.915683">
        <ele>1798.0</ele>
        <time>2013-07-02T11:00:05Z</time>
      </trkpt>
      <trkpt lat="40.253867" lon="-4.915650">
        <ele>1801.0</ele>
        <time>2013-07-02T11:00:06Z</time>
      </trkpt>
      <trkpt lat="40.253833" lon="-4.915617">
        <ele>1805.0</ele>
        <time>2013-07-02T11:00:07Z</time>
      </trkpt>
      <trkpt lat="40.253817" lon="-4.915600">
        <ele>1808.0</ele>
        <time>2013-07-02T11:00:08Z</time>
      </trkpt>
      <trkpt lat="40.253767" lon="-4.915583">
        <ele>1810.0</ele>
        <time>2013-07-02T11:00:09Z</time>
      </trkpt>
      <trkpt lat="40.253717" lon="-4.915567">
        <ele>1812.0</ele>
        <time>2013-07-02T11:00:10Z</time>
      </trkpt>
      <trkpt lat="40.253650" lon="-4.915583">
        <ele>1814.0</ele>
        <time>2013-07-02T11:00:11Z</time>
      </trkpt>
      <trkpt lat="40.253600" lon="-4.915600">
        <ele>1818.0</ele>
        <time>2013-07-02T11:00:12Z</time>
      </trkpt>
      <trkpt lat="40.253567" lon="-4.915617">
        <ele>1823.0</ele>
        <time>2013-07-02T11:00:13Z</time>
      </trkpt>
      <trkpt lat="40.253533" lon="-4.915617">
        <ele>1827.0</ele>
        <time>2013-07-02T11:00:14Z</time>
      </trkpt>
      <trkpt lat="40.253500" lon="-4.915600">
        <ele>1831.0</ele>
        <time>2013-07-02T11:00:15Z</time>
      </trkpt>
      <trkpt lat="40.253467" lon="-4.915567">
        <ele>1833.0</ele>
        <time>2013-07-02T11:00:16Z</time>
      </trkpt>
      <trkpt lat="40.253417" lon="-4.915567">
        <ele>1836.0</ele>
        <time>2013-07-02T11:00:17Z</time>
      </trkpt>
      <trkpt lat="40.253367" lon="-4.915583">
        <ele>1839.0</ele>
        <time>2013-07-02T11:00:18Z</time>
      </trkpt>
      <trkpt lat="40.253333" lon="-4.915633">
        <ele>1843.0</ele>
        <time>2013-07-02T11:00:19Z</time>
      </trkpt>
      <trkpt lat="40.253317" lon="-4.915667">
        <ele>1847.0</ele>
        <time>2013-07-02T11:00:20Z</time>
      </trkpt>
      <trkpt lat="40.253283" lon="-4.915733">
        <ele>1850.0</ele>
        <time>2013-07-02T11:00:21Z</time>
      </trkpt>
      <trkpt lat="40.253283" lon="-4.915800">
        <ele>1853.0</ele>
        <time>2013-07-02T11:00:22Z</time>
      </trkpt>
      <trkpt lat="40.253283" lon="-4.915867">
        <ele>1857.0</ele>
        <time>2013-07-02T11:00:23Z</time>
      </trkpt>
      <trkpt lat="40.253317" lon="-4.915933">
        <ele>1860.0</ele>
        <time>2013-07-02T11:00:24Z</time>
      </trkpt>
      <trkpt lat="40.253350" lon="-4.916000">
        <ele>1863.0</ele>
        <time>2013-07-02T11:00:25Z</time>
      </trkpt>
      <trkpt lat="40.253400" lon="-4.916050">
        <ele>1866.0</ele>
        <time>2013-07-02T11:00:26Z</time>
      </trkpt>
      <trkpt lat="40.253433" lon="-4.916100">
        <ele>1869.0</ele>
        <time>2013-07-02T11:00:27Z</time>
      </trkpt>
      <trkpt lat="40.253500" lon="-4.916150">
        <ele>1872.0</ele>
        <time>2013-07-02T11:00:28Z</time>
      </trkpt>
      <trkpt lat="40.253583" lon="-4.916183">
        <ele>1873.0</ele>
        <time>2013-07-02T11:00:29Z</time>
      </trkpt>
      <trkpt lat="40.253650" lon="-4.916200">
        <ele>1875.0</ele>
        <time>2013-07-02T11:00:30Z</time>
      </trkpt>
      <trkpt lat="40.253733" lon="-4.916200">
        <ele>1877.0</ele>
        <time>2013-07-02T11:00:31Z</time>
      </trkpt>
      <trkpt lat="40.253817" lon="-4.916183">
        <ele>1879.0</ele>
        <time>2013-07-02T11:00:32Z</time>
      </trkpt>
      <trkpt lat="40.253900" lon="-4.916150">
        <ele>1881.0</ele>
        <time>2013-07-02T11:00:33Z</time>
      </trkpt>
      <trkpt lat="40.253967" lon="-4.916117">
        <ele>1882.0</ele>
        <time>2013-07-02T11:00:34Z</time>
      </trkpt>
      <trkpt lat="40.254050" lon="-4.916067">
        <ele>1883.0</ele>
        <time>2013-07-02T11:00:35Z</time>
      </trkpt>
      <trkpt lat="40.254117" lon="-4.916017">
        <ele>1884.0</ele>
        <time>2013-07-02T11:00:36Z</time>
      </trkpt>
      <trkpt lat="40.254217" lon="-4.915967">
        <ele>1886.0</ele>
        <time>2013-07-02T11:00:37Z</time>
      </trkpt>
      <trkpt lat="40.254300" lon="-4.915917">
        <ele>1887.0</ele>
        <time>2013-07-02T11:00:38Z</time>
      </trkpt>
      <trkpt lat="40.254383" lon="-4.915833">
        <ele>1889.0</ele>
        <time>2013-07-02T11:00:39Z</time>
      </trkpt>
      <trkpt lat="40.254450" lon="-4.915750">
        <ele>1891.0</ele>
        <time>2013-07-02T11:00:40Z</time>
      </trkpt>
      <trkpt lat="40.254517" lon="-4.915683">
        <ele>1892.0</ele>
        <time>2013-07-02T11:00:41Z</time>
      </trkpt>
      <trkpt lat="40.254600" lon="-4.915600">
        <ele>1893.0</ele>
        <time>2013-07-02T11:00:42Z</time>
      </trkpt>
      <trkpt lat="40.254683" lon="-4.915517">
        <ele>1894.0</ele>
        <time>2013-07-02T11:00:43Z</time>
      </trkpt>
      <trkpt lat="40.254750" lon="-4.915417">
        <ele>1895.0</ele>
        <time>2013-07-02T11:00:44Z</time>
      </trkpt>
      <trkpt lat="40.254800" lon="-4.915283">
        <ele>1897.0</ele>
        <time>2013-07-02T11:00:45Z</time>
      </trkpt>
      <trkpt lat="40.254833" lon="-4.915167">
        <ele>1898.0</ele>
        <time>2013-07-02T11:00:46Z</time>
      </trkpt>
      <trkpt lat="40.254867" lon="-4.915050">
        <ele>1900.0</ele>
        <time>2013-07-02T11:00:47Z</time>
      </trkpt>
      <trkpt lat="40.254883" lon="-4.914917">
        <ele>1901.0</ele>
        <time>2013-07-02T11:00:48Z</time>
      </trkpt>
      <trkpt lat="40.254900" lon="-4.914783">
        <ele>1902.0</ele>
        <time>2013-07-02T11:00:49Z</time>
      </trkpt>
      <trkpt lat="40.254917" lon="-4.914650">
        <ele>1904.0</ele>
        <time>2013-07-02T11:00:50Z</time>
      </trkpt>
      <trkpt lat="40.254917" lon="-4.914517">
        <ele>1906.0</ele>
        <time>2013-07-02T11:00:51Z</time>
      </trkpt>
      <trkpt lat="40.254900" lon="-4.914400">
        <ele>1908.0</ele>
        <time>2013-07-02T11:00:52Z</time>
      </trkpt>
      <trkpt lat="40.254900" lon="-4.914300">
        <ele>1910.0</ele>
        <time>2013-07-02T11:00:53Z</time>
      </trkpt>
      <trkpt lat="40.254883" lon="-4.914217">
        <ele>1911.0</ele>
        <time>2013-07-02T11:00:54Z</time>
      </trkpt>
      <trkpt lat="40.254867" lon="-4.914117">
        <ele>1912.0</ele>
        <time>2013-07-02T11:00:55Z</time>
      </trkpt>
      <trkpt lat="40.254833" lon="-4.914017">
        <ele>1913.0</ele>
        <time>2013-07-02T11:00:56Z</time>
      </trkpt>
      <trkpt lat="40.254800" lon="-4.913917">
        <ele>1914.0</ele>
        <time>2013-07-02T11:00:57Z</time>
      </trkpt>
      <trkpt lat="40.254767" lon="-4.913833">
        <ele>1916.0</ele>
        <time>2013-07-02T11:00:58Z</time>
      </trkpt>
      <trkpt lat="40.254717" lon="-4.913750">
        <ele>1918.0</ele>
        <time>2013-07-02T11:00:59Z</time>
      </trkpt>
      <trkpt lat="40.254683" lon="-4.913683">
        <ele>1920.0</ele>
        <time>2013-07-02T11:01:00Z</time>
      </trkpt>
      <trkpt lat="40.254650" lon="-4.913600">
        <ele>1922.0</ele>
        <time>2013-07-02T11:01:01Z</time>
      </trkpt>
      <trkpt lat="40.254617" lon="-4.913500">
        <ele>1922.0</ele>
        <time>2013-07-02T11:01:02Z</time>
      </trkpt>
      <trkpt lat="40.254583" lon="-4.913367">
        <ele>1923.0</ele>
        <time>2013-07-02T11:01:03Z</time>
      </trkpt>
      <trkpt lat="40.254550" lon="-4.913250">
        <ele>1924.0</ele>
        <time>2013-07-02T11:01:04Z</time>
      </trkpt>
      <trkpt lat="40.254500" lon="-4.913183">
        <ele>1925.0</ele>
        <time>2013-07-02T11:01:05Z</time>
      </trkpt>
      <trkpt lat="40.254450" lon="-4.913133">
        <ele>1926.0</ele>
        <time>2013-07-02T11:01:06Z</time>
      </trkpt>
      <trkpt lat="40.254400" lon="-4.913100">
        <ele>1927.0</ele>
        <time>2013-07-02T11:01:07Z</time>
      </trkpt>
      <trkpt lat="40.254350" lon="-4.913067">
        <ele>1927.0</ele>
        <time>2013-07-02T11:01:08Z</time>
      </trkpt>
      <trkpt lat="40.254300" lon="-4.913050">
        <ele>1927.0</ele>
        <time>2013-07-02T11:01:09Z</time>
      </trkpt>
      <trkpt lat="40.254250" lon="-4.913067">
        <ele>1926.0</ele>
        <time>2013-07-02T11:01:10Z</time>
      </trkpt>
      <trkpt lat="40.254200" lon="-4.913100">
        <ele>1925.0</ele>
        <time>2013-07-02T11:01:11Z</time>
      </trkpt>
      <trkpt lat="40.254150" lon="-4.913150">
        <ele>1924.0</ele>
        <time>2013-07-02T11:01:12Z</time>
      </trkpt>
      <trkpt lat="40.254117" lon="-4.913200">
        <ele>1925.0</ele>
        <time>2013-07-02T11:01:13Z</time>
      </trkpt>
      <trkpt lat="40.254067" lon="-4.913250">
        <ele>1926.0</ele>
        <time>2013-07-02T11:01:14Z</time>
      </trkpt>
      <trkpt lat="40.254033" lon="-4.913317">
        <ele>1927.0</ele>
        <time>2013-07-02T11:01:15Z</time>
      </trkpt>
      <trkpt lat="40.254000" lon="-4.913367">
        <ele>1929.0</ele>
        <time>2013-07-02T11:01:16Z</time>
      </trkpt>
      <trkpt lat="40.253967" lon="-4.913433">
        <ele>1930.0</ele>
        <time>2013-07-02T11:01:17Z</time>
      </trkpt>
      <trkpt lat="40.253950" lon="-4.913483">
        <ele>1933.0</ele>
        <time>2013-07-02T11:01:18Z</time>
      </trkpt>
      <trkpt lat="40.253933" lon="-4.913550">
        <ele>1935.0</ele>
        <time>2013-07-02T11:01:19Z</time>
      </trkpt>
      <trkpt lat="40.253933" lon="-4.913600">
        <ele>1938.0</ele>
        <time>2013-07-02T11:01:20Z</time>
      </trkpt>
      <trkpt lat="40.253917" lon="-4.913633">
        <ele>1939.0</ele>
        <time>2013-07-02T11:01:21Z</time>
      </trkpt>
      <trkpt lat="40.253900" lon="-4.913667">
        <ele>1940.0</ele>
        <time>2013-07-02T11:01:22Z</time>
      </trkpt>
      <trkpt lat="40.253883" lon="-4.913733">
        <ele>1941.0</ele>
        <time>2013-07-02T11:01:23Z</time>
      </trkpt>
      <trkpt lat="40.253883" lon="-4.913817">
        <ele>1943.0</ele>
        <time>2013-07-02T11:01:24Z</time>
      </trkpt>
      <trkpt lat="40.253900" lon="-4.913900">
        <ele>1946.0</ele>
        <time>2013-07-02T11:01:25Z</time>
      </trkpt>
      <trkpt lat="40.253900" lon="-4.913967">
        <ele>1950.0</ele>
        <time>2013-07-02T11:01:26Z</time>
      </trkpt>
      <trkpt lat="40.253917" lon="-4.914033">
        <ele>1954.0</ele>
        <time>2013-07-02T11:01:27Z</time>
      </trkpt>
      <trkpt lat="40.253933" lon="-4.914083">
        <ele>1957.0</ele>
        <time>2013-07-02T11:01:28Z</time>
      </trkpt>
      <trkpt lat="40.253950" lon="-4.914133">
        <ele>1960.0</ele>
        <time>2013-07-02T11:01:29Z</time>
      </trkpt>
      <trkpt lat="40.253983" lon="-4.914183">
        <ele>1963.0</ele>
        <time>2013-07-02T11:01:30Z</time>
      </trkpt>
      <trkpt lat="40.254017" lon="-4.914233">
        <ele>1965.0</ele>
        <time>2013-07-02T11:01:31Z</time>
      </trkpt>
      <trkpt lat="40.254083" lon="-4.914283">
        <ele>1967.0</ele>
        <time>2013-07-02T11:01:32Z</time>
      </trkpt>
      <trkpt lat="40.254167" lon="-4.914317">
        <ele>1970.0</ele>
        <time>2013-07-02T11:01:33Z</time>
      </trkpt>
      <trkpt lat="40.254267" lon="-4.914300">
        <ele>1974.0</ele>
        <time>2013-07-02T11:01:34Z</time>
      </trkpt>
      <trkpt lat="40.254367" lon="-4.914250">
        <ele>1978.0</ele>
        <time>2013-07-02T11:01:35Z</time>
      </trkpt>
      <trkpt lat="40.254450" lon="-4.914183">
        <ele>1982.0</ele>
        <time>2013-07-02T11:01:36Z</time>
      </trkpt>
      <trkpt lat="40.254517" lon="-4.914117">
        <ele>1985.0</ele>
        <time>2013-07-02T11:01:37Z</time>
      </trkpt>
      <trkpt lat="40.254600" lon="-4.914033">
        <ele>1988.0</ele>
        <time>2013-07-02T11:01:38Z</time>
      </trkpt>
      <trkpt lat="40.254667" lon="-4.913933">
        <ele>1990.0</ele>
        <time>2013-07-02T11:01:39Z</time>
      </trkpt>
      <trkpt lat="40.254733" lon="-4.913817">
        <ele>1993.0</ele>
        <time>2013-07-02T11:01:40Z</time>
      </trkpt>
      <trkpt lat="40.254783" lon="-4.913700">
        <ele>1995.0</ele>
        <time>2013-07-02T11:01:41Z</time>
      </trkpt>
      <trkpt lat="40.254850" lon="-4.913583">
        <ele>1999.0</ele>
        <time>2013-07-02T11:01:42Z</time>
      </trkpt>
      <trkpt lat="40.254900" lon="-4.913483">
        <ele>2002.0</ele>
        <time>2013-07-02T11:01:43Z</time>
      </trkpt>
      <trkpt lat="40.254967" lon="-4.913367">
        <ele>2005.0</ele>
        <time>2013-07-02T11:01:44Z</time>
      </trkpt>
      <trkpt lat="40.255033" lon="-4.913267">
        <ele>2007.0</ele>
        <time>2013-07-02T11:01:45Z</time>
      </trkpt>
      <trkpt lat="40.255083" lon="-4.913133">
        <ele>2009.0</ele>
        <time>2013-07-02T11:01:46Z</time>
      </trkpt>
      <trkpt lat="40.255117" lon="-4.913000">
        <ele>2011.0</ele>
        <time>2013-07-02T11:01:47Z</time>
      </trkpt>
      <trkpt lat="40.255133" lon="-4.912850">
        <ele>2013.0</ele>
        <time>2013-07-02T11:01:48Z</time>
      </trkpt>
      <trkpt lat="40.255133" lon="-4.912717">
        <ele>2016.0</ele>
        <time>2013-07-02T11:01:49Z</time>
      </trkpt>
      <trkpt lat="40.255133" lon="-4.912600">
        <ele>2018.0</ele>
        <time>2013-07-02T11:01:50Z</time>
      </trkpt>
      <trkpt lat="40.255100" lon="-4.912483">
        <ele>2021.0</ele>
        <time>2013-07-02T11:01:51Z</time>
      </trkpt>
      <trkpt lat="40.255050" lon="-4.912400">
        <ele>2021.0</ele>
        <time>2013-07-02T11:01:52Z</time>
      </trkpt>
      <trkpt lat="40.255017" lon="-4.912333">
        <ele>2023.0</ele>
        <time>2013-07-02T11:01:53Z</time>
      </trkpt>
      <trkpt lat="40.254983" lon="-4.912267">
        <ele>2024.0</ele>
        <time>2013-07-02T11:01:54Z</time>
      </trkpt>
      <trkpt lat="40.254933" lon="-4.912217">
        <ele>2025.0</ele>
        <time>2013-07-02T11:01:55Z</time>
      </trkpt>
      <trkpt lat="40.254883" lon="-4.912200">
        <ele>2025.0</ele>
        <time>2013-07-02T11:01:56Z</time>
      </trkpt>
      <trkpt lat="40.254817" lon="-4.912200">
        <ele>2026.0</ele>
        <time>2013-07-02T11:01:57Z</time>
      </trkpt>
      <trkpt lat="40.254767" lon="-4.912200">
        <ele>2027.0</ele>
        <time>2013-07-02T11:01:58Z</time>
      </trkpt>
      <trkpt lat="40.254733" lon="-4.912200">
        <ele>2028.0</ele>
        <time>2013-07-02T11:01:59Z</time>
      </trkpt>
      <trkpt lat="40.254683" lon="-4.912217">
        <ele>2029.0</ele>
        <time>2013-07-02T11:02:00Z</time>
      </trkpt>
      <trkpt lat="40.254650" lon="-4.912217">
        <ele>2029.0</ele>
        <time>2013-07-02T11:02:01Z</time>
      </trkpt>
      <trkpt lat="40.254600" lon="-4.912250">
        <ele>2029.0</ele>
        <time>2013-07-02T11:02:02Z</time>
      </trkpt>
      <trkpt lat="40.254567" lon="-4.912267">
        <ele>2030.0</ele>
        <time>2013-07-02T11:02:03Z</time>
      </trkpt>
      <trkpt lat="40.254533" lon="-4.912283">
        <ele>2031.0</ele>
        <time>2013-07-02T11:02:04Z</time>
      </trkpt>
      <trkpt lat="40.254517" lon="-4.912317">
        <ele>2033.0</ele>
        <time>2013-07-02T11:02:05Z</time>
      </trkpt>
      <trkpt lat="40.254483" lon="-4.912350">
        <ele>2035.0</ele>
        <time>2013-07-02T11:02:06Z</time>
      </trkpt>
      <trkpt lat="40.254483" lon="-4.912400">
        <ele>2037.0</ele>
        <time>2013-07-02T11:02:07Z</time>
      </trkpt>
      <trkpt lat="40.254483" lon="-4.912450">
        <ele>2039.0</ele>
        <time>2013-07-02T11:02:08Z</time>
      </trkpt>
      <trkpt lat="40.254500" lon="-4.912533">
        <ele>2041.0</ele>
        <time>2013-07-02T11:02:09Z</time>
      </trkpt>
      <trkpt lat="40.254500" lon="-4.912600">
        <ele>2043.0</ele>
        <time>2013-07-02T11:02:10Z</time>
      </trkpt>
      <trkpt lat="40.254517" lon="-4.912683">
        <ele>2045.0</ele>
        <time>2013-07-02T11:02:11Z</time>
      </trkpt>
      <trkpt lat="40.254517" lon="-4.912750">
        <ele>2049.0</ele>
        <time>2013-07-02T11:02:12Z</time>
      </trkpt>
      <trkpt lat="40.254533" lon="-4.912817">
        <ele>2052.0</ele>
        <time>2013-07-02T11:02:13Z</time>
      </trkpt>
      <trkpt lat="40.254567" lon="-4.912883">
        <ele>2054.0</ele>
        <time>2013-07-02T11:02:14Z</time>
      </trkpt>
      <trkpt lat="40.254600" lon="-4.912950">
        <ele>2056.0</ele>
        <time>2013-07-02T11:02:15Z</time>
      </trkpt>
      <trkpt lat="40.254633" lon="-4.913033">
        <ele>2059.0</ele>
        <time>2013-07-02T11:02:16Z</time>
      </trkpt>
      <trkpt lat="40.254683" lon="-4.913100">
        <ele>2062.0</ele>
        <time>2013-07-02T11:02:17Z</time>
      </trkpt>
      <trkpt lat="40.254750" lon="-4.913150">
        <ele>2065.0</ele>
        <time>2013-07-02T11:02:18Z</time>
      </trkpt>
      <trkpt lat="40.254817" lon="-4.913183">
        <ele>2067.0</ele>
        <time>2013-07-02T11:02:19Z</time>
      </trkpt>
      <trkpt lat="40.254883" lon="-4.913217">
        <ele>2069.0</ele>
        <time>2013-07-02T11:02:20Z</time>
      </trkpt>
      <trkpt lat="40.254967" lon="-4.913250">
        <ele>2072.0</ele>
        <time>2013-07-02T11:02:21Z</time>
      </trkpt>
      <trkpt lat="40.255033" lon="-4.913250">
        <ele>2073.0</ele>
        <time>2013-07-02T11:02:22Z</time>
      </trkpt>
      <trkpt lat="40.255117" lon="-4.913250">
        <ele>2075.0</ele>
        <time>2013-07-02T11:02:23Z</time>
      </trkpt>
      <trkpt lat="40.255217" lon="-4.913233">
        <ele>2076.0</ele>
        <time>2013-07-02T11:02:24Z</time>
      </trkpt>
      <trkpt lat="40.255300" lon="-4.913217">
        <ele>2077.0</ele>
        <time>2013-07-02T11:02:25Z</time>
      </trkpt>
      <trkpt lat="40.255400" lon="-4.913200">
        <ele>2079.0</ele>
        <time>2013-07-02T11:02:26Z</time>
      </trkpt>
      <trkpt lat="40.255483" lon="-4.913183">
        <ele>2081.0</ele>
        <time>2013-07-02T11:02:27Z</time>
      </trkpt>
      <trkpt lat="40.255567" lon="-4.913167">
        <ele>2082.0</ele>
        <time>2013-07-02T11:02:28Z</time>
      </trkpt>
      <trkpt lat="40.255650" lon="-4.913133">
        <ele>2083.0</ele>
        <time>2013-07-02T11:02:29Z</time>
      </trkpt>
      <trkpt lat="40.255733" lon="-4.913083">
        <ele>2083.0</ele>
        <time>2013-07-02T11:02:30Z</time>
      </trkpt>
      <trkpt lat="40.255817" lon="-4.913017">
        <ele>2084.0</ele>
        <time>2013-07-02T11:02:31Z</time>
      </trkpt>
      <trkpt lat="40.255900" lon="-4.912950">
        <ele>2083.0</ele>
        <time>2013-07-02T11:02:32Z</time>
      </trkpt>
      <trkpt lat="40.255983" lon="-4.912867">
        <ele>2083.0</ele>
        <time>2013-07-02T11:02:33Z</time>
      </trkpt>
      <trkpt lat="40.256050" lon="-4.912750">
        <ele>2082.0</ele>
        <time>2013-07-02T11:02:34Z</time>
      </trkpt>
      <trkpt lat="40.256117" lon="-4.912617">
        <ele>2082.0</ele>
        <time>2013-07-02T11:02:35Z</time>
      </trkpt>
      <trkpt lat="40.256183" lon="-4.912500">
        <ele>2082.0</ele>
        <time>2013-07-02T11:02:36Z</time>
      </trkpt>
      <trkpt lat="40.256233" lon="-4.912367">
        <ele>2083.0</ele>
        <time>2013-07-02T11:02:37Z</time>
      </trkpt>
      <trkpt lat="40.256267" lon="-4.912233">
        <ele>2084.0</ele>
        <time>2013-07-02T11:02:38Z</time>
      </trkpt>
      <trkpt lat="40.256300" lon="-4.912083">
        <ele>2084.0</ele>
        <time>2013-07-02T11:02:39Z</time>
      </trkpt>
      <trkpt lat="40.256350" lon="-4.911950">
        <ele>2085.0</ele>
        <time>2013-07-02T11:02:40Z</time>
      </trkpt>
      <trkpt lat="40.256383" lon="-4.911800">
        <ele>2086.0</ele>
        <time>2013-07-02T11:02:41Z</time>
      </trkpt>
      <trkpt lat="40.256417" lon="-4.911667">
        <ele>2087.0</ele>
        <time>2013-07-02T11:02:42Z</time>
      </trkpt>
      <trkpt lat="40.256450" lon="-4.911517">
        <ele>2088.0</ele>
        <time>2013-07-02T11:02:43Z</time>
      </trkpt>
      <trkpt lat="40.256450" lon="-4.911367">
        <ele>2088.0</ele>
        <time>2013-07-02T11:02:44Z</time>
      </trkpt>
      <trkpt lat="40.256450" lon="-4.911233">
        <ele>2088.0</ele>
        <time>2013-07-02T11:02:45Z</time>
      </trkpt>
      <trkpt lat="40.256450" lon="-4.911083">
        <ele>2089.0</ele>
        <time>2013-07-02T11:02:46Z</time>
      </trkpt>
      <trkpt lat="40.256433" lon="-4.910950">
        <ele>2090.0</ele>
        <time>2013-07-02T11:02:47Z</time>
      </trkpt>
      <trkpt lat="40.256433" lon="-4.910800">
        <ele>2091.0</ele>
        <time>2013-07-02T11:02:48Z</time>
      </trkpt>
      <trkpt lat="40.256417" lon="-4.910683">
        <ele>2092.0</ele>
        <time>2013-07-02T11:02:49Z</time>
      </trkpt>
      <trkpt lat="40.256383" lon="-4.910550">
        <ele>2093.0</ele>
        <time>2013-07-02T11:02:50Z</time>
      </trkpt>
      <trkpt lat="40.256350" lon="-4.910400">
        <ele>2094.0</ele>
        <time>2013-07-02T11:02:51Z</time>
      </trkpt>
      <trkpt lat="40.256333" lon="-4.910283">
        <ele>2097.0</ele>
        <time>2013-07-02T11:02:52Z</time>
      </trkpt>
      <trkpt lat="40.256300" lon="-4.910183">
        <ele>2100.0</ele>
        <time>2013-07-02T11:02:53Z</time>
      </trkpt>
      <trkpt lat="40.256300" lon="-4.910117">
        <ele>2101.0</ele>
        <time>2013-07-02T11:02:54Z</time>
      </trkpt>
      <trkpt lat="40.256267" lon="-4.910033">
        <ele>2101.0</ele>
        <time>2013-07-02T11:02:55Z</time>
      </trkpt>
      <trkpt lat="40.256233" lon="-4.909950">
        <ele>2099.0</ele>
        <time>2013-07-02T11:02:56Z</time>
      </trkpt>
      <trkpt lat="40.256183" lon="-4.909883">
        <ele>2098.0</ele>
        <time>2013-07-02T11:02:57Z</time>
      </trkpt>
      <trkpt lat="40.256117" lon="-4.909817">
        <ele>2097.0</ele>
        <time>2013-07-02T11:02:58Z</time>
      </trkpt>
      <trkpt lat="40.256050" lon="-4.909767">
        <ele>2097.0</ele>
        <time>2013-07-02T11:02:59Z</time>
      </trkpt>
      <trkpt lat="40.255983" lon="-4.909733">
        <ele>2097.0</ele>
        <time>2013-07-02T11:03:00Z</time>
      </trkpt>
      <trkpt lat="40.255917" lon="-4.909717">
        <ele>2098.0</ele>
        <time>2013-07-02T11:03:01Z</time>
      </trkpt>
      <trkpt lat="40.255867" lon="-4.909717">
        <ele>2100.0</ele>
        <time>2013-07-02T11:03:02Z</time>
      </trkpt>
      <trkpt lat="40.255817" lon="-4.909717">
        <ele>2100.0</ele>
        <time>2013-07-02T11:03:03Z</time>
      </trkpt>
      <trkpt lat="40.255767" lon="-4.909717">
        <ele>2101.0</ele>
        <time>2013-07-02T11:03:04Z</time>
      </trkpt>
      <trkpt lat="40.255717" lon="-4.909717">
        <ele>2102.0</ele>
        <time>2013-07-02T11:03:05Z</time>
      </trkpt>
      <trkpt lat="40.255667" lon="-4.909733">
        <ele>2103.0</ele>
        <time>2013-07-02T11:03:06Z</time>
      </trkpt>
      <trkpt lat="40.255617" lon="-4.909733">
        <ele>2105.0</ele>
        <time>2013-07-02T11:03:07Z</time>
      </trkpt>
      <trkpt lat="40.255583" lon="-4.909767">
        <ele>2106.0</ele>
        <time>2013-07-02T11:03:08Z</time>
      </trkpt>
      <trkpt lat="40.255567" lon="-4.909783">
        <ele>2107.0</ele>
        <time>2013-07-02T11:03:09Z</time>
      </trkpt>
      <trkpt lat="40.255533" lon="-4.909817">
        <ele>2108.0</ele>
        <time>2013-07-02T11:03:10Z</time>
      </trkpt>
      <trkpt lat="40.255517" lon="-4.909850">
        <ele>2109.0</ele>
        <time>2013-07-02T11:03:11Z</time>
      </trkpt>
      <trkpt lat="40.255483" lon="-4.909883">
        <ele>2111.0</ele>
        <time>2013-07-02T11:03:12Z</time>
      </trkpt>
      <trkpt lat="40.255467" lon="-4.909933">
        <ele>2113.0</ele>
        <time>2013-07-02T11:03:13Z</time>
      </trkpt>
      <trkpt lat="40.255433" lon="-4.909983">
        <ele>2115.0</ele>
        <time>2013-07-02T11:03:14Z</time>
      </trkpt>
      <trkpt lat="40.255433" lon="-4.910033">
        <ele>2116.0</ele>
        <time>2013-07-02T11:03:15Z</time>
      </trkpt>
      <trkpt lat="40.255417" lon="-4.910117">
        <ele>2117.0</ele>
        <time>2013-07-02T11:03:16Z</time>
      </trkpt>
      <trkpt lat="40.255400" lon="-4.910183">
        <ele>2119.0</ele>
        <time>2013-07-02T11:03:17Z</time>
      </trkpt>
      <trkpt lat="40.255383" lon="-4.910283">
        <ele>2122.0</ele>
        <time>2013-07-02T11:03:18Z</time>
      </trkpt>
      <trkpt lat="40.255400" lon="-4.910350">
        <ele>2126.0</ele>
        <time>2013-07-02T11:03:19Z</time>
      </trkpt>
      <trkpt lat="40.255417" lon="-4.910383">
        <ele>2128.0</ele>
        <time>2013-07-02T11:03:20Z</time>
      </trkpt>
      <trkpt lat="40.255433" lon="-4.910400">
        <ele>2129.0</ele>
        <time>2013-07-02T11:03:21Z</time>
      </trkpt>
      <trkpt lat="40.255450" lon="-4.910433">
        <ele>2129.0</ele>
        <time>2013-07-02T11:03:22Z</time>
      </trkpt>
      <trkpt lat="40.255483" lon="-4.910483">
        <ele>2128.0</ele>
        <time>2013-07-02T11:03:23Z</time>
      </trkpt>
      <trkpt lat="40.255533" lon="-4.910533">
        <ele>2126.0</ele>
        <time>2013-07-02T11:03:24Z</time>
      </trkpt>
      <trkpt lat="40.255583" lon="-4.910583">
        <ele>2125.0</ele>
        <time>2013-07-02T11:03:25Z</time>
      </trkpt>
      <trkpt lat="40.255633" lon="-4.910617">
        <ele>2125.0</ele>
        <time>2013-07-02T11:03:26Z</time>
      </trkpt>
      <trkpt lat="40.255700" lon="-4.910650">
        <ele>2124.0</ele>
        <time>2013-07-02T11:03:27Z</time>
      </trkpt>
      <trkpt lat="40.255783" lon="-4.910683">
        <ele>2123.0</ele>
        <time>2013-07-02T11:03:28Z</time>
      </trkpt>
      <trkpt lat="40.255850" lon="-4.910717">
        <ele>2121.0</ele>
        <time>2013-07-02T11:03:29Z</time>
      </trkpt>
      <trkpt lat="40.255950" lon="-4.910717">
        <ele>2121.0</ele>
        <time>2013-07-02T11:03:30Z</time>
      </trkpt>
      <trkpt lat="40.256050" lon="-4.910700">
        <ele>2120.0</ele>
        <time>2013-07-02T11:03:31Z</time>
      </trkpt>
      <trkpt lat="40.256133" lon="-4.910667">
        <ele>2120.0</ele>
        <time>2013-07-02T11:03:32Z</time>
      </trkpt>
      <trkpt lat="40.256200" lon="-4.910633">
        <ele>2120.0</ele>
        <time>2013-07-02T11:03:33Z</time>
      </trkpt>
      <trkpt lat="40.256283" lon="-4.910583">
        <ele>2119.0</ele>
        <time>2013-07-02T11:03:34Z</time>
      </trkpt>
      <trkpt lat="40.256367" lon="-4.910517">
        <ele>2116.0</ele>
        <time>2013-07-02T11:03:35Z</time>
      </trkpt>
      <trkpt lat="40.256450" lon="-4.910433">
        <ele>2114.0</ele>
        <time>2013-07-02T11:03:36Z</time>
      </trkpt>
      <trkpt lat="40.256550" lon="-4.910317">
        <ele>2113.0</ele>
        <time>2013-07-02T11:03:37Z</time>
      </trkpt>
      <trkpt lat="40.256633" lon="-4.910200">
        <ele>2112.0</ele>
        <time>2013-07-02T11:03:38Z</time>
      </trkpt>
      <trkpt lat="40.256733" lon="-4.910083">
        <ele>2114.0</ele>
        <time>2013-07-02T11:03:39Z</time>
      </trkpt>
      <trkpt lat="40.256817" lon="-4.909950">
        <ele>2115.0</ele>
        <time>2013-07-02T11:03:40Z</time>
      </trkpt>
      <trkpt lat="40.256900" lon="-4.909817">
        <ele>2117.0</ele>
        <time>2013-07-02T11:03:41Z</time>
      </trkpt>
      <trkpt lat="40.256967" lon="-4.909700">
        <ele>2119.0</ele>
        <time>2013-07-02T11:03:42Z</time>
      </trkpt>
      <trkpt lat="40.257017" lon="-4.909567">
        <ele>2121.0</ele>
        <time>2013-07-02T11:03:43Z</time>
      </trkpt>
      <trkpt lat="40.257083" lon="-4.909450">
        <ele>2122.0</ele>
        <time>2013-07-02T11:03:44Z</time>
      </trkpt>
      <trkpt lat="40.257133" lon="-4.909317">
        <ele>2123.0</ele>
        <time>2013-07-02T11:03:45Z</time>
      </trkpt>
      <trkpt lat="40.257200" lon="-4.909183">
        <ele>2124.0</ele>
        <time>2013-07-02T11:03:46Z</time>
      </trkpt>
      <trkpt lat="40.257250" lon="-4.909033">
        <ele>2124.0</ele>
        <time>2013-07-02T11:03:47Z</time>
      </trkpt>
      <trkpt lat="40.257300" lon="-4.908900">
        <ele>2125.0</ele>
        <time>2013-07-02T11:03:48Z</time>
      </trkpt>
      <trkpt lat="40.257350" lon="-4.908750">
        <ele>2126.0</ele>
        <time>2013-07-02T11:03:49Z</time>
      </trkpt>
      <trkpt lat="40.257400" lon="-4.908617">
        <ele>2127.0</ele>
        <time>2013-07-02T11:03:50Z</time>
      </trkpt>
      <trkpt lat="40.257433" lon="-4.908467">
        <ele>2129.0</ele>
        <time>2013-07-02T11:03:51Z</time>
      </trkpt>
      <trkpt lat="40.257450" lon="-4.908317">
        <ele>2130.0</ele>
        <time>2013-07-02T11:03:52Z</time>
      </trkpt>
      <trkpt lat="40.257483" lon="-4.908183">
        <ele>2132.0</ele>
        <time>2013-07-02T11:03:53Z</time>
      </trkpt>
      <trkpt lat="40.257500" lon="-4.908033">
        <ele>2133.0</ele>
        <time>2013-07-02T11:03:54Z</time>
      </trkpt>
      <trkpt lat="40.257533" lon="-4.907867">
        <ele>2133.0</ele>
        <time>2013-07-02T11:03:55Z</time>
      </trkpt>
      <trkpt lat="40.257533" lon="-4.907700">
        <ele>2134.0</ele>
        <time>2013-07-02T11:03:56Z</time>
      </trkpt>
      <trkpt lat="40.257533" lon="-4.907550">
        <ele>2134.0</ele>
        <time>2013-07-02T11:03:57Z</time>
      </trkpt>
      <trkpt lat="40.257500" lon="-4.907433">
        <ele>2134.0</ele>
        <time>2013-07-02T11:03:58Z</time>
      </trkpt>
      <trkpt lat="40.257467" lon="-4.907317">
        <ele>2134.0</ele>
        <time>2013-07-02T11:03:59Z</time>
      </trkpt>
      <trkpt lat="40.257450" lon="-4.907217">
        <ele>2134.0</ele>
        <time>2013-07-02T11:04:00Z</time>
      </trkpt>
      <trkpt lat="40.257417" lon="-4.907117">
        <ele>2134.0</ele>
        <time>2013-07-02T11:04:01Z</time>
      </trkpt>
      <trkpt lat="40.257383" lon="-4.907017">
        <ele>2133.0</ele>
        <time>2013-07-02T11:04:02Z</time>
      </trkpt>
      <trkpt lat="40.257333" lon="-4.906917">
        <ele>2132.0</ele>
        <time>2013-07-02T11:04:03Z</time>
      </trkpt>
      <trkpt lat="40.257283" lon="-4.906850">
        <ele>2130.0</ele>
        <time>2013-07-02T11:04:04Z</time>
      </trkpt>
      <trkpt lat="40.257200" lon="-4.906800">
        <ele>2128.0</ele>
        <time>2013-07-02T11:04:05Z</time>
      </trkpt>
      <trkpt lat="40.257117" lon="-4.906733">
        <ele>2127.0</ele>
        <time>2013-07-02T11:04:06Z</time>
      </trkpt>
      <trkpt lat="40.257033" lon="-4.906700">
        <ele>2126.0</ele>
        <time>2013-07-02T11:04:07Z</time>
      </trkpt>
      <trkpt lat="40.256967" lon="-4.906667">
        <ele>2126.0</ele>
        <time>2013-07-02T11:04:08Z</time>
      </trkpt>
      <trkpt lat="40.256900" lon="-4.906633">
        <ele>2125.0</ele>
        <time>2013-07-02T11:04:09Z</time>
      </trkpt>
      <trkpt lat="40.256833" lon="-4.906617">
        <ele>2124.0</ele>
        <time>2013-07-02T11:04:10Z</time>
      </trkpt>
      <trkpt lat="40.256767" lon="-4.906617">
        <ele>2123.0</ele>
        <time>2013-07-02T11:04:11Z</time>
      </trkpt>
      <trkpt lat="40.256700" lon="-4.906633">
        <ele>2121.0</ele>
        <time>2013-07-02T11:04:12Z</time>
      </trkpt>
      <trkpt lat="40.256633" lon="-4.906650">
        <ele>2120.0</ele>
        <time>2013-07-02T11:04:13Z</time>
      </trkpt>
      <trkpt lat="40.256567" lon="-4.906683">
        <ele>2120.0</ele>
        <time>2013-07-02T11:04:14Z</time>
      </trkpt>
      <trkpt lat="40.256517" lon="-4.906717">
        <ele>2120.0</ele>
        <time>2013-07-02T11:04:15Z</time>
      </trkpt>
      <trkpt lat="40.256483" lon="-4.906750">
        <ele>2122.0</ele>
        <time>2013-07-02T11:04:16Z</time>
      </trkpt>
      <trkpt lat="40.256450" lon="-4.906750">
        <ele>2124.0</ele>
        <time>2013-07-02T11:04:17Z</time>
      </trkpt>
      <trkpt lat="40.256417" lon="-4.906750">
        <ele>2125.0</ele>
        <time>2013-07-02T11:04:18Z</time>
      </trkpt>
      <trkpt lat="40.256400" lon="-4.906750">
        <ele>2126.0</ele>
        <time>2013-07-02T11:04:19Z</time>
      </trkpt>
      <trkpt lat="40.256383" lon="-4.906750">
        <ele>2125.0</ele>
        <time>2013-07-02T11:04:20Z</time>
      </trkpt>
      <trkpt lat="40.256367" lon="-4.906767">
        <ele>2125.0</ele>
        <time>2013-07-02T11:04:21Z</time>
      </trkpt>
      <trkpt lat="40.256350" lon="-4.906783">
        <ele>2124.0</ele>
        <time>2013-07-02T11:04:22Z</time>
      </trkpt>
      <trkpt lat="40.256333" lon="-4.906817">
        <ele>2123.0</ele>
        <time>2013-07-02T11:04:23Z</time>
      </trkpt>
      <trkpt lat="40.256333" lon="-4.906850">
        <ele>2122.0</ele>
        <time>2013-07-02T11:04:24Z</time>
      </trkpt>
      <trkpt lat="40.256317" lon="-4.906900">
        <ele>2120.0</ele>
        <time>2013-07-02T11:04:25Z</time>
      </trkpt>
      <trkpt lat="40.256300" lon="-4.906950">
        <ele>2119.0</ele>
        <time>2013-07-02T11:04:26Z</time>
      </trkpt>
      <trkpt lat="40.256300" lon="-4.907000">
        <ele>2120.0</ele>
        <time>2013-07-02T11:04:27Z</time>
      </trkpt>
      <trkpt lat="40.256300" lon="-4.907033">
        <ele>2120.0</ele>
        <time>2013-07-02T11:04:28Z</time>
      </trkpt>
      <trkpt lat="40.256317" lon="-4.907083">
        <ele>2120.0</ele>
        <time>2013-07-02T11:04:29Z</time>
      </trkpt>
      <trkpt lat="40.256317" lon="-4.907133">
        <ele>2119.0</ele>
        <time>2013-07-02T11:04:30Z</time>
      </trkpt>
      <trkpt lat="40.256333" lon="-4.907167">
        <ele>2119.0</ele>
        <time>2013-07-02T11:04:31Z</time>
      </trkpt>
      <trkpt lat="40.256350" lon="-4.907217">
        <ele>2118.0</ele>
        <time>2013-07-02T11:04:32Z</time>
      </trkpt>
      <trkpt lat="40.256367" lon="-4.907267">
        <ele>2116.0</ele>
        <time>2013-07-02T11:04:33Z</time>
      </trkpt>
      <trkpt lat="40.256400" lon="-4.907333">
        <ele>2115.0</ele>
        <time>2013-07-02T11:04:34Z</time>
      </trkpt>
      <trkpt lat="40.256450" lon="-4.907383">
        <ele>2114.0</ele>
        <time>2013-07-02T11:04:35Z</time>
      </trkpt>
      <trkpt lat="40.256483" lon="-4.907450">
        <ele>2114.0</ele>
        <time>2013-07-02T11:04:36Z</time>
      </trkpt>
      <trkpt lat="40.256517" lon="-4.907500">
        <ele>2114.0</ele>
        <time>2013-07-02T11:04:37Z</time>
      </trkpt>
      <trkpt lat="40.256567" lon="-4.907550">
        <ele>2114.0</ele>
        <time>2013-07-02T11:04:38Z</time>
      </trkpt>
      <trkpt lat="40.256617" lon="-4.907600">
        <ele>2114.0</ele>
        <time>2013-07-02T11:04:39Z</time>
      </trkpt>
      <trkpt lat="40.256667" lon="-4.907650">
        <ele>2114.0</ele>
        <time>2013-07-02T11:04:40Z</time>
      </trkpt>
      <trkpt lat="40.256700" lon="-4.907717">
        <ele>2115.0</ele>
        <time>2013-07-02T11:04:41Z</time>
      </trkpt>
      <trkpt lat="40.256750" lon="-4.907750">
        <ele>2116.0</ele>
        <time>2013-07-02T11:04:42Z</time>
      </trkpt>
      <trkpt lat="40.256800" lon="-4.907800">
        <ele>2118.0</ele>
        <time>2013-07-02T11:04:43Z</time>
      </trkpt>
      <trkpt lat="40.256833" lon="-4.907817">
        <ele>2119.0</ele>
        <time>2013-07-02T11:04:44Z</time>
      </trkpt>
      <trkpt lat="40.256883" lon="-4.907833">
        <ele>2118.0</ele>
        <time>2013-07-02T11:04:45Z</time>
      </trkpt>
      <trkpt lat="40.256917" lon="-4.907850">
        <ele>2118.0</ele>
        <time>2013-07-02T11:04:46Z</time>
      </trkpt>
      <trkpt lat="40.256950" lon="-4.907883">
        <ele>2116.0</ele>
        <time>2013-07-02T11:04:47Z</time>
      </trkpt>
      <trkpt lat="40.257000" lon="-4.907917">
        <ele>2114.0</ele>
        <time>2013-07-02T11:04:48Z</time>
      </trkpt>
      <trkpt lat="40.257083" lon="-4.907967">
        <ele>2113.0</ele>
        <time>2013-07-02T11:04:49Z</time>
      </trkpt>
      <trkpt lat="40.257150" lon="-4.907983">
        <ele>2113.0</ele>
        <time>2013-07-02T11:04:50Z</time>
      </trkpt>
      <trkpt lat="40.257250" lon="-4.907983">
        <ele>2113.0</ele>
        <time>2013-07-02T11:04:51Z</time>
      </trkpt>
      <trkpt lat="40.257350" lon="-4.907950">
        <ele>2113.0</ele>
        <time>2013-07-02T11:04:52Z</time>
      </trkpt>
      <trkpt lat="40.257450" lon="-4.907917">
        <ele>2112.0</ele>
        <time>2013-07-02T11:04:53Z</time>
      </trkpt>
      <trkpt lat="40.257550" lon="-4.907883">
        <ele>2111.0</ele>
        <time>2013-07-02T11:04:54Z</time>
      </trkpt>
      <trkpt lat="40.257650" lon="-4.907850">
        <ele>2111.0</ele>
        <time>2013-07-02T11:04:55Z</time>
      </trkpt>
      <trkpt lat="40.257750" lon="-4.907833">
        <ele>2110.0</ele>
        <time>2013-07-02T11:04:56Z</time>
      </trkpt>
      <trkpt lat="40.257850" lon="-4.907800">
        <ele>2109.0</ele>
        <time>2013-07-02T11:04:57Z</time>
      </trkpt>
      <trkpt lat="40.257967" lon="-4.907783">
        <ele>2108.0</ele>
        <time>2013-07-02T11:04:58Z</time>
      </trkpt>
      <trkpt lat="40.258083" lon="-4.907750">
        <ele>2108.0</ele>
        <time>2013-07-02T11:04:59Z</time>
      </trkpt>
      <trkpt lat="40.258200" lon="-4.907717">
        <ele>2107.0</ele>
        <time>2013-07-02T11:05:00Z</time>
      </trkpt>
      <trkpt lat="40.258317" lon="-4.907683">
        <ele>2107.0</ele>
        <time>2013-07-02T11:05:01Z</time>
      </trkpt>
      <trkpt lat="40.258417" lon="-4.907633">
        <ele>2107.0</ele>
        <time>2013-07-02T11:05:02Z</time>
      </trkpt>
      <trkpt lat="40.258517" lon="-4.907600">
        <ele>2107.0</ele>
        <time>2013-07-02T11:05:03Z</time>
      </trkpt>
      <trkpt lat="40.258600" lon="-4.907567">
        <ele>2107.0</ele>
        <time>2013-07-02T11:05:04Z</time>
      </trkpt>
      <trkpt lat="40.258700" lon="-4.907517">
        <ele>2106.0</ele>
        <time>2013-07-02T11:05:05Z</time>
      </trkpt>
      <trkpt lat="40.258800" lon="-4.907483">
        <ele>2106.0</ele>
        <time>2013-07-02T11:05:06Z</time>
      </trkpt>
      <trkpt lat="40.258900" lon="-4.907450">
        <ele>2104.0</ele>
        <time>2013-07-02T11:05:07Z</time>
      </trkpt>
      <trkpt lat="40.259033" lon="-4.907417">
        <ele>2104.0</ele>
        <time>2013-07-02T11:05:08Z</time>
      </trkpt>
      <trkpt lat="40.259150" lon="-4.907400">
        <ele>2104.0</ele>
        <time>2013-07-02T11:05:09Z</time>
      </trkpt>
      <trkpt lat="40.259267" lon="-4.907400">
        <ele>2105.0</ele>
        <time>2013-07-02T11:05:10Z</time>
      </trkpt>
      <trkpt lat="40.259367" lon="-4.907383">
        <ele>2108.0</ele>
        <time>2013-07-02T11:05:11Z</time>
      </trkpt>
      <trkpt lat="40.259467" lon="-4.907350">
        <ele>2111.0</ele>
        <time>2013-07-02T11:05:12Z</time>
      </trkpt>
      <trkpt lat="40.259533" lon="-4.907333">
        <ele>2112.0</ele>
        <time>2013-07-02T11:05:13Z</time>
      </trkpt>
      <trkpt lat="40.259617" lon="-4.907317">
        <ele>2113.0</ele>
        <time>2013-07-02T11:05:14Z</time>
      </trkpt>
      <trkpt lat="40.259700" lon="-4.907300">
        <ele>2113.0</ele>
        <time>2013-07-02T11:05:15Z</time>
      </trkpt>
      <trkpt lat="40.259800" lon="-4.907267">
        <ele>2113.0</ele>
        <time>2013-07-02T11:05:16Z</time>
      </trkpt>
      <trkpt lat="40.259900" lon="-4.907217">
        <ele>2113.0</ele>
        <time>2013-07-02T11:05:17Z</time>
      </trkpt>
      <trkpt lat="40.260000" lon="-4.907183">
        <ele>2113.0</ele>
        <time>2013-07-02T11:05:18Z</time>
      </trkpt>
      <trkpt lat="40.260083" lon="-4.907133">
        <ele>2114.0</ele>
        <time>2013-07-02T11:05:19Z</time>
      </trkpt>
      <trkpt lat="40.260183" lon="-4.907100">
        <ele>2114.0</ele>
        <time>2013-07-02T11:05:20Z</time>
      </trkpt>
      <trkpt lat="40.260267" lon="-4.907067">
        <ele>2114.0</ele>
        <time>2013-07-02T11:05:21Z</time>
      </trkpt>
      <trkpt lat="40.260367" lon="-4.907050">
        <ele>2113.0</ele>
        <time>2013-07-02T11:05:22Z</time>
      </trkpt>
      <trkpt lat="40.260483" lon="-4.907033">
        <ele>2112.0</ele>
        <time>2013-07-02T11:05:23Z</time>
      </trkpt>
      <trkpt lat="40.260600" lon="-4.907017">
        <ele>2111.0</ele>
        <time>2013-07-02T11:05:24Z</time>
      </trkpt>
      <trkpt lat="40.260717" lon="-4.907000">
        <ele>2111.0</ele>
        <time>2013-07-02T11:05:25Z</time>
      </trkpt>
      <trkpt lat="40.260817" lon="-4.906967">
        <ele>2110.0</ele>
        <time>2013-07-02T11:05:26Z</time>
      </trkpt>
      <trkpt lat="40.260917" lon="-4.906933">
        <ele>2112.0</ele>
        <time>2013-07-02T11:05:27Z</time>
      </trkpt>
      <trkpt lat="40.261000" lon="-4.906917">
        <ele>2114.0</ele>
        <time>2013-07-02T11:05:28Z</time>
      </trkpt>
      <trkpt lat="40.261083" lon="-4.906867">
        <ele>2114.0</ele>
        <time>2013-07-02T11:05:29Z</time>
      </trkpt>
      <trkpt lat="40.261167" lon="-4.906833">
        <ele>2113.0</ele>
        <time>2013-07-02T11:05:30Z</time>
      </trkpt>
      <trkpt lat="40.261250" lon="-4.906767">
        <ele>2112.0</ele>
        <time>2013-07-02T11:05:31Z</time>
      </trkpt>
      <trkpt lat="40.261350" lon="-4.906683">
        <ele>2112.0</ele>
        <time>2013-07-02T11:05:32Z</time>
      </trkpt>
      <trkpt lat="40.261433" lon="-4.906583">
        <ele>2112.0</ele>
        <time>2013-07-02T11:05:33Z</time>
      </trkpt>
      <trkpt lat="40.261533" lon="-4.906467">
        <ele>2112.0</ele>
        <time>2013-07-02T11:05:34Z</time>
      </trkpt>
      <trkpt lat="40.261617" lon="-4.906367">
        <ele>2112.0</ele>
        <time>2013-07-02T11:05:35Z</time>
      </trkpt>
      <trkpt lat="40.261700" lon="-4.906250">
        <ele>2112.0</ele>
        <time>2013-07-02T11:05:36Z</time>
      </trkpt>
      <trkpt lat="40.261750" lon="-4.906117">
        <ele>2112.0</ele>
        <time>2013-07-02T11:05:37Z</time>
      </trkpt>
      <trkpt lat="40.261800" lon="-4.905983">
        <ele>2110.0</ele>
        <time>2013-07-02T11:05:38Z</time>
      </trkpt>
      <trkpt lat="40.261850" lon="-4.905833">
        <ele>2108.0</ele>
        <time>2013-07-02T11:05:39Z</time>
      </trkpt>
      <trkpt lat="40.261883" lon="-4.905667">
        <ele>2107.0</ele>
        <time>2013-07-02T11:05:40Z</time>
      </trkpt>
      <trkpt lat="40.261900" lon="-4.905500">
        <ele>2105.0</ele>
        <time>2013-07-02T11:05:41Z</time>
      </trkpt>
      <trkpt lat="40.261900" lon="-4.905333">
        <ele>2103.0</ele>
        <time>2013-07-02T11:05:42Z</time>
      </trkpt>
      <trkpt lat="40.261867" lon="-4.905150">
        <ele>2102.0</ele>
        <time>2013-07-02T11:05:43Z</time>
      </trkpt>
      <trkpt lat="40.261833" lon="-4.905000">
        <ele>2102.0</ele>
        <time>2013-07-02T11:05:44Z</time>
      </trkpt>
      <trkpt lat="40.261800" lon="-4.904850">
        <ele>2102.0</ele>
        <time>2013-07-02T11:05:45Z</time>
      </trkpt>
      <trkpt lat="40.261767" lon="-4.904717">
        <ele>2101.0</ele>
        <time>2013-07-02T11:05:46Z</time>
      </trkpt>
      <trkpt lat="40.261733" lon="-4.904567">
        <ele>2100.0</ele>
        <time>2013-07-02T11:05:47Z</time>
      </trkpt>
      <trkpt lat="40.261683" lon="-4.904417">
        <ele>2098.0</ele>
        <time>2013-07-02T11:05:48Z</time>
      </trkpt>
      <trkpt lat="40.261633" lon="-4.904267">
        <ele>2098.0</ele>
        <time>2013-07-02T11:05:49Z</time>
      </trkpt>
      <trkpt lat="40.261567" lon="-4.904133">
        <ele>2099.0</ele>
        <time>2013-07-02T11:05:50Z</time>
      </trkpt>
      <trkpt lat="40.261483" lon="-4.904017">
        <ele>2100.0</ele>
        <time>2013-07-02T11:05:51Z</time>
      </trkpt>
      <trkpt lat="40.261417" lon="-4.903917">
        <ele>2101.0</ele>
        <time>2013-07-02T11:05:52Z</time>
      </trkpt>
      <trkpt lat="40.261367" lon="-4.903833">
        <ele>2102.0</ele>
        <time>2013-07-02T11:05:53Z</time>
      </trkpt>
      <trkpt lat="40.261317" lon="-4.903767">
        <ele>2102.0</ele>
        <time>2013-07-02T11:05:54Z</time>
      </trkpt>
      <trkpt lat="40.261267" lon="-4.903700">
        <ele>2101.0</ele>
        <time>2013-07-02T11:05:55Z</time>
      </trkpt>
      <trkpt lat="40.261217" lon="-4.903617">
        <ele>2100.0</ele>
        <time>2013-07-02T11:05:56Z</time>
      </trkpt>
      <trkpt lat="40.261150" lon="-4.903550">
        <ele>2098.0</ele>
        <time>2013-07-02T11:05:57Z</time>
      </trkpt>
      <trkpt lat="40.261083" lon="-4.903467">
        <ele>2095.0</ele>
        <time>2013-07-02T11:05:58Z</time>
      </trkpt>
      <trkpt lat="40.261000" lon="-4.903400">
        <ele>2093.0</ele>
        <time>2013-07-02T11:05:59Z</time>
      </trkpt>
      <trkpt lat="40.260900" lon="-4.903333">
        <ele>2092.0</ele>
        <time>2013-07-02T11:06:00Z</time>
      </trkpt>
      <trkpt lat="40.260833" lon="-4.903283">
        <ele>2092.0</ele>
        <time>2013-07-02T11:06:01Z</time>
      </trkpt>
      <trkpt lat="40.260783" lon="-4.903250">
        <ele>2093.0</ele>
        <time>2013-07-02T11:06:02Z</time>
      </trkpt>
      <trkpt lat="40.260700" lon="-4.903200">
        <ele>2092.0</ele>
        <time>2013-07-02T11:06:03Z</time>
      </trkpt>
      <trkpt lat="40.260617" lon="-4.903167">
        <ele>2091.0</ele>
        <time>2013-07-02T11:06:04Z</time>
      </trkpt>
      <trkpt lat="40.260550" lon="-4.903150">
        <ele>2089.0</ele>
        <time>2013-07-02T11:06:05Z</time>
      </trkpt>
      <trkpt lat="40.260483" lon="-4.903133">
        <ele>2088.0</ele>
        <time>2013-07-02T11:06:06Z</time>
      </trkpt>
      <trkpt lat="40.260400" lon="-4.903133">
        <ele>2086.0</ele>
        <time>2013-07-02T11:06:07Z</time>
      </trkpt>
      <trkpt lat="40.260333" lon="-4.903150">
        <ele>2085.0</ele>
        <time>2013-07-02T11:06:08Z</time>
      </trkpt>
      <trkpt lat="40.260283" lon="-4.903167">
        <ele>2084.0</ele>
        <time>2013-07-02T11:06:09Z</time>
      </trkpt>
      <trkpt lat="40.260217" lon="-4.903183">
        <ele>2083.0</ele>
        <time>2013-07-02T11:06:10Z</time>
      </trkpt>
      <trkpt lat="40.260167" lon="-4.903217">
        <ele>2082.0</ele>
        <time>2013-07-02T11:06:11Z</time>
      </trkpt>
      <trkpt lat="40.260117" lon="-4.903250">
        <ele>2081.0</ele>
        <time>2013-07-02T11:06:12Z</time>
      </trkpt>
      <trkpt lat="40.260067" lon="-4.903300">
        <ele>2080.0</ele>
        <time>2013-07-02T11:06:13Z</time>
      </trkpt>
      <trkpt lat="40.260017" lon="-4.903350">
        <ele>2080.0</ele>
        <time>2013-07-02T11:06:14Z</time>
      </trkpt>
      <trkpt lat="40.259967" lon="-4.903383">
        <ele>2080.0</ele>
        <time>2013-07-02T11:06:15Z</time>
      </trkpt>
      <trkpt lat="40.259933" lon="-4.903433">
        <ele>2080.0</ele>
        <time>2013-07-02T11:06:16Z</time>
      </trkpt>
      <trkpt lat="40.259900" lon="-4.903467">
        <ele>2080.0</ele>
        <time>2013-07-02T11:06:17Z</time>
      </trkpt>
      <trkpt lat="40.259867" lon="-4.903517">
        <ele>2079.0</ele>
        <time>2013-07-02T11:06:18Z</time>
      </trkpt>
      <trkpt lat="40.259833" lon="-4.903550">
        <ele>2077.0</ele>
        <time>2013-07-02T11:06:19Z</time>
      </trkpt>
      <trkpt lat="40.259800" lon="-4.903600">
        <ele>2075.0</ele>
        <time>2013-07-02T11:06:20Z</time>
      </trkpt>
      <trkpt lat="40.259750" lon="-4.903650">
        <ele>2074.0</ele>
        <time>2013-07-02T11:06:21Z</time>
      </trkpt>
      <trkpt lat="40.259717" lon="-4.903700">
        <ele>2073.0</ele>
        <time>2013-07-02T11:06:22Z</time>
      </trkpt>
      <trkpt lat="40.259667" lon="-4.903750">
        <ele>2072.0</ele>
        <time>2013-07-02T11:06:23Z</time>
      </trkpt>
      <trkpt lat="40.259617" lon="-4.903783">
        <ele>2071.0</ele>
        <time>2013-07-02T11:06:24Z</time>
      </trkpt>
      <trkpt lat="40.259567" lon="-4.903833">
        <ele>2070.0</ele>
        <time>2013-07-02T11:06:25Z</time>
      </trkpt>
      <trkpt lat="40.259517" lon="-4.903883">
        <ele>2068.0</ele>
        <time>2013-07-02T11:06:26Z</time>
      </trkpt>
      <trkpt lat="40.259467" lon="-4.903933">
        <ele>2066.0</ele>
        <time>2013-07-02T11:06:27Z</time>
      </trkpt>
      <trkpt lat="40.259417" lon="-4.903983">
        <ele>2065.0</ele>
        <time>2013-07-02T11:06:28Z</time>
      </trkpt>
      <trkpt lat="40.259367" lon="-4.904033">
        <ele>2063.0</ele>
        <time>2013-07-02T11:06:29Z</time>
      </trkpt>
      <trkpt lat="40.259333" lon="-4.904100">
        <ele>2061.0</ele>
        <time>2013-07-02T11:06:30Z</time>
      </trkpt>
      <trkpt lat="40.259300" lon="-4.904167">
        <ele>2060.0</ele>
        <time>2013-07-02T11:06:31Z</time>
      </trkpt>
      <trkpt lat="40.259283" lon="-4.904250">
        <ele>2059.0</ele>
        <time>2013-07-02T11:06:32Z</time>
      </trkpt>
      <trkpt lat="40.259267" lon="-4.904333">
        <ele>2059.0</ele>
        <time>2013-07-02T11:06:33Z</time>
      </trkpt>
      <trkpt lat="40.259250" lon="-4.904417">
        <ele>2059.0</ele>
        <time>2013-07-02T11:06:34Z</time>
      </trkpt>
      <trkpt lat="40.259233" lon="-4.904483">
        <ele>2059.0</ele>
        <time>2013-07-02T11:06:35Z</time>
      </trkpt>
      <trkpt lat="40.259233" lon="-4.904550">
        <ele>2059.0</ele>
        <time>2013-07-02T11:06:36Z</time>
      </trkpt>
      <trkpt lat="40.259200" lon="-4.904633">
        <ele>2059.0</ele>
        <time>2013-07-02T11:06:37Z</time>
      </trkpt>
      <trkpt lat="40.259183" lon="-4.904700">
        <ele>2059.0</ele>
        <time>2013-07-02T11:06:38Z</time>
      </trkpt>
      <trkpt lat="40.259167" lon="-4.904767">
        <ele>2059.0</ele>
        <time>2013-07-02T11:06:39Z</time>
      </trkpt>
      <trkpt lat="40.259133" lon="-4.904833">
        <ele>2059.0</ele>
        <time>2013-07-02T11:06:40Z</time>
      </trkpt>
      <trkpt lat="40.259100" lon="-4.904900">
        <ele>2058.0</ele>
        <time>2013-07-02T11:06:41Z</time>
      </trkpt>
      <trkpt lat="40.259067" lon="-4.904983">
        <ele>2058.0</ele>
        <time>2013-07-02T11:06:42Z</time>
      </trkpt>
      <trkpt lat="40.259033" lon="-4.905050">
        <ele>2057.0</ele>
        <time>2013-07-02T11:06:43Z</time>
      </trkpt>
      <trkpt lat="40.259000" lon="-4.905117">
        <ele>2057.0</ele>
        <time>2013-07-02T11:06:44Z</time>
      </trkpt>
      <trkpt lat="40.258967" lon="-4.905183">
        <ele>2057.0</ele>
        <time>2013-07-02T11:06:45Z</time>
      </trkpt>
      <trkpt lat="40.258967" lon="-4.905233">
        <ele>2056.0</ele>
        <time>2013-07-02T11:06:46Z</time>
      </trkpt>
      <trkpt lat="40.258967" lon="-4.905317">
        <ele>2055.0</ele>
        <time>2013-07-02T11:06:47Z</time>
      </trkpt>
      <trkpt lat="40.258950" lon="-4.905383">
        <ele>2053.0</ele>
        <time>2013-07-02T11:06:48Z</time>
      </trkpt>
      <trkpt lat="40.258933" lon="-4.905467">
        <ele>2051.0</ele>
        <time>2013-07-02T11:06:49Z</time>
      </trkpt>
      <trkpt lat="40.258917" lon="-4.905550">
        <ele>2049.0</ele>
        <time>2013-07-02T11:06:50Z</time>
      </trkpt>
      <trkpt lat="40.258883" lon="-4.905617">
        <ele>2048.0</ele>
        <time>2013-07-02T11:06:51Z</time>
      </trkpt>
      <trkpt lat="40.258867" lon="-4.905667">
        <ele>2047.0</ele>
        <time>2013-07-02T11:06:52Z</time>
      </trkpt>
      <trkpt lat="40.258850" lon="-4.905733">
        <ele>2048.0</ele>
        <time>2013-07-02T11:06:53Z</time>
      </trkpt>
      <trkpt lat="40.258833" lon="-4.905800">
        <ele>2048.0</ele>
        <time>2013-07-02T11:06:54Z</time>
      </trkpt>
      <trkpt lat="40.258833" lon="-4.905867">
        <ele>2047.0</ele>
        <time>2013-07-02T11:06:55Z</time>
      </trkpt>
      <trkpt lat="40.258817" lon="-4.905933">
        <ele>2047.0</ele>
        <time>2013-07-02T11:06:56Z</time>
      </trkpt>
      <trkpt lat="40.258783" lon="-4.906000">
        <ele>2047.0</ele>
        <time>2013-07-02T11:06:57Z</time>
      </trkpt>
      <trkpt lat="40.258767" lon="-4.906083">
        <ele>2047.0</ele>
        <time>2013-07-02T11:06:58Z</time>
      </trkpt>
      <trkpt lat="40.258733" lon="-4.906167">
        <ele>2047.0</ele>
        <time>2013-07-02T11:06:59Z</time>
      </trkpt>
      <trkpt lat="40.258717" lon="-4.906233">
        <ele>2047.0</ele>
        <time>2013-07-02T11:07:00Z</time>
      </trkpt>
      <trkpt lat="40.258700" lon="-4.906317">
        <ele>2048.0</ele>
        <time>2013-07-02T11:07:01Z</time>
      </trkpt>
      <trkpt lat="40.258683" lon="-4.906367">
        <ele>2049.0</ele>
        <time>2013-07-02T11:07:02Z</time>
      </trkpt>
      <trkpt lat="40.258683" lon="-4.906400">
        <ele>2050.0</ele>
        <time>2013-07-02T11:07:03Z</time>
      </trkpt>
      <trkpt lat="40.258667" lon="-4.906450">
        <ele>2051.0</ele>
        <time>2013-07-02T11:07:04Z</time>
      </trkpt>
      <trkpt lat="40.258650" lon="-4.906483">
        <ele>2050.0</ele>
        <time>2013-07-02T11:07:05Z</time>
      </trkpt>
      <trkpt lat="40.258633" lon="-4.906533">
        <ele>2049.0</ele>
        <time>2013-07-02T11:07:06Z</time>
      </trkpt>
      <trkpt lat="40.258633" lon="-4.906600">
        <ele>2048.0</ele>
        <time>2013-07-02T11:07:07Z</time>
      </trkpt>
      <trkpt lat="40.258617" lon="-4.906667">
        <ele>2046.0</ele>
        <time>2013-07-02T11:07:08Z</time>
      </trkpt>
      <trkpt lat="40.258600" lon="-4.906750">
        <ele>2044.0</ele>
        <time>2013-07-02T11:07:09Z</time>
      </trkpt>
      <trkpt lat="40.258567" lon="-4.906833">
        <ele>2042.0</ele>
        <time>2013-07-02T11:07:10Z</time>
      </trkpt>
      <trkpt lat="40.258533" lon="-4.906900">
        <ele>2041.0</ele>
        <time>2013-07-02T11:07:11Z</time>
      </trkpt>
      <trkpt lat="40.258500" lon="-4.906967">
        <ele>2040.0</ele>
        <time>2013-07-02T11:07:12Z</time>
      </trkpt>
      <trkpt lat="40.258450" lon="-4.907017">
        <ele>2039.0</ele>
        <time>2013-07-02T11:07:13Z</time>
      </trkpt>
      <trkpt lat="40.258400" lon="-4.907083">
        <ele>2039.0</ele>
        <time>2013-07-02T11:07:14Z</time>
      </trkpt>
      <trkpt lat="40.258383" lon="-4.907117">
        <ele>2039.0</ele>
        <time>2013-07-02T11:07:15Z</time>
      </trkpt>
      <trkpt lat="40.258350" lon="-4.907167">
        <ele>2038.0</ele>
        <time>2013-07-02T11:07:16Z</time>
      </trkpt>
      <trkpt lat="40.258333" lon="-4.907233">
        <ele>2036.0</ele>
        <time>2013-07-02T11:07:17Z</time>
      </trkpt>
      <trkpt lat="40.258300" lon="-4.907300">
        <ele>2034.0</ele>
        <time>2013-07-02T11:07:18Z</time>
      </trkpt>
      <trkpt lat="40.258250" lon="-4.907367">
        <ele>2033.0</ele>
        <time>2013-07-02T11:07:19Z</time>
      </trkpt>
      <trkpt lat="40.258200" lon="-4.907417">
        <ele>2033.0</ele>
        <time>2013-07-02T11:07:20Z</time>
      </trkpt>
      <trkpt lat="40.258150" lon="-4.907467">
        <ele>2033.0</ele>
        <time>2013-07-02T11:07:21Z</time>
      </trkpt>
      <trkpt lat="40.258133" lon="-4.907517">
        <ele>2033.0</ele>
        <time>2013-07-02T11:07:22Z</time>
      </trkpt>
      <trkpt lat="40.258083" lon="-4.907567">
        <ele>2032.0</ele>
        <time>2013-07-02T11:07:23Z</time>
      </trkpt>
      <trkpt lat="40.258033" lon="-4.907617">
        <ele>2031.0</ele>
        <time>2013-07-02T11:07:24Z</time>
      </trkpt>
      <trkpt lat="40.257967" lon="-4.907667">
        <ele>2030.0</ele>
        <time>2013-07-02T11:07:25Z</time>
      </trkpt>
      <trkpt lat="40.257900" lon="-4.907733">
        <ele>2029.0</ele>
        <time>2013-07-02T11:07:26Z</time>
      </trkpt>
      <trkpt lat="40.257850" lon="-4.907800">
        <ele>2029.0</ele>
        <time>2013-07-02T11:07:27Z</time>
      </trkpt>
      <trkpt lat="40.257783" lon="-4.907867">
        <ele>2030.0</ele>
        <time>2013-07-02T11:07:28Z</time>
      </trkpt>
      <trkpt lat="40.257733" lon="-4.907917">
        <ele>2030.0</ele>
        <time>2013-07-02T11:07:29Z</time>
      </trkpt>
      <trkpt lat="40.257683" lon="-4.907983">
        <ele>2030.0</ele>
        <time>2013-07-02T11:07:30Z</time>
      </trkpt>
      <trkpt lat="40.257633" lon="-4.908033">
        <ele>2030.0</ele>
        <time>2013-07-02T11:07:31Z</time>
      </trkpt>
      <trkpt lat="40.257583" lon="-4.908083">
        <ele>2030.0</ele>
        <time>2013-07-02T11:07:32Z</time>
      </trkpt>
      <trkpt lat="40.257533" lon="-4.908133">
        <ele>2030.0</ele>
        <time>2013-07-02T11:07:33Z</time>
      </trkpt>
      <trkpt lat="40.257483" lon="-4.908167">
        <ele>2030.0</ele>
        <time>2013-07-02T11:07:34Z</time>
      </trkpt>
      <trkpt lat="40.257433" lon="-4.908217">
        <ele>2030.0</ele>
        <time>2013-07-02T11:07:35Z</time>
      </trkpt>
      <trkpt lat="40.257383" lon="-4.908267">
        <ele>2031.0</ele>
        <time>2013-07-02T11:07:36Z</time>
      </trkpt>
      <trkpt lat="40.257333" lon="-4.908300">
        <ele>2032.0</ele>
        <time>2013-07-02T11:07:37Z</time>
      </trkpt>
      <trkpt lat="40.257283" lon="-4.908333">
        <ele>2033.0</ele>
        <time>2013-07-02T11:07:38Z</time>
      </trkpt>
      <trkpt lat="40.257233" lon="-4.908333">
        <ele>2033.0</ele>
        <time>2013-07-02T11:07:39Z</time>
      </trkpt>
      <trkpt lat="40.257183" lon="-4.908350">
        <ele>2032.0</ele>
        <time>2013-07-02T11:07:40Z</time>
      </trkpt>
      <trkpt lat="40.257117" lon="-4.908367">
        <ele>2032.0</ele>
        <time>2013-07-02T11:07:41Z</time>
      </trkpt>
      <trkpt lat="40.257050" lon="-4.908400">
        <ele>2031.0</ele>
        <time>2013-07-02T11:07:42Z</time>
      </trkpt>
      <trkpt lat="40.256983" lon="-4.908450">
        <ele>2031.0</ele>
        <time>2013-07-02T11:07:43Z</time>
      </trkpt>
      <trkpt lat="40.256917" lon="-4.908483">
        <ele>2032.0</ele>
        <time>2013-07-02T11:07:44Z</time>
      </trkpt>
      <trkpt lat="40.256867" lon="-4.908500">
        <ele>2033.0</ele>
        <time>2013-07-02T11:07:45Z</time>
      </trkpt>
      <trkpt lat="40.256817" lon="-4.908517">
        <ele>2034.0</ele>
        <time>2013-07-02T11:07:46Z</time>
      </trkpt>
      <trkpt lat="40.256767" lon="-4.908533">
        <ele>2034.0</ele>
        <time>2013-07-02T11:07:47Z</time>
      </trkpt>
      <trkpt lat="40.256717" lon="-4.908533">
        <ele>2033.0</ele>
        <time>2013-07-02T11:07:48Z</time>
      </trkpt>
      <trkpt lat="40.256667" lon="-4.908550">
        <ele>2033.0</ele>
        <time>2013-07-02T11:07:49Z</time>
      </trkpt>
      <trkpt lat="40.256600" lon="-4.908600">
        <ele>2032.0</ele>
        <time>2013-07-02T11:07:50Z</time>
      </trkpt>
      <trkpt lat="40.256550" lon="-4.908667">
        <ele>2033.0</ele>
        <time>2013-07-02T11:07:51Z</time>
      </trkpt>
      <trkpt lat="40.256500" lon="-4.908717">
        <ele>2034.0</ele>
        <time>2013-07-02T11:07:52Z</time>
      </trkpt>
      <trkpt lat="40.256450" lon="-4.908767">
        <ele>2036.0</ele>
        <time>2013-07-02T11:07:53Z</time>
      </trkpt>
      <trkpt lat="40.256400" lon="-4.908783">
        <ele>2038.0</ele>
        <time>2013-07-02T11:07:54Z</time>
      </trkpt>
      <trkpt lat="40.256383" lon="-4.908800">
        <ele>2040.0</ele>
        <time>2013-07-02T11:07:55Z</time>
      </trkpt>
      <trkpt lat="40.256350" lon="-4.908800">
        <ele>2041.0</ele>
        <time>2013-07-02T11:07:56Z</time>
      </trkpt>
      <trkpt lat="40.256333" lon="-4.908800">
        <ele>2042.0</ele>
        <time>2013-07-02T11:07:57Z</time>
      </trkpt>
      <trkpt lat="40.256317" lon="-4.908783">
        <ele>2041.0</ele>
        <time>2013-07-02T11:07:58Z</time>
      </trkpt>
      <trkpt lat="40.256300" lon="-4.908800">
        <ele>2039.0</ele>
        <time>2013-07-02T11:07:59Z</time>
      </trkpt>
      <trkpt lat="40.256283" lon="-4.908833">
        <ele>2038.0</ele>
        <time>2013-07-02T11:08:00Z</time>
      </trkpt>
      <trkpt lat="40.256267" lon="-4.908900">
        <ele>2037.0</ele>
        <time>2013-07-02T11:08:01Z</time>
      </trkpt>
      <trkpt lat="40.256283" lon="-4.908967">
        <ele>2038.0</ele>
        <time>2013-07-02T11:08:02Z</time>
      </trkpt>
      <trkpt lat="40.256317" lon="-4.909033">
        <ele>2039.0</ele>
        <time>2013-07-02T11:08:03Z</time>
      </trkpt>
      <trkpt lat="40.256367" lon="-4.909067">
        <ele>2040.0</ele>
        <time>2013-07-02T11:08:04Z</time>
      </trkpt>
      <trkpt lat="40.256417" lon="-4.909117">
        <ele>2040.0</ele>
        <time>2013-07-02T11:08:05Z</time>
      </trkpt>
      <trkpt lat="40.256467" lon="-4.909183">
        <ele>2040.0</ele>
        <time>2013-07-02T11:08:06Z</time>
      </trkpt>
      <trkpt lat="40.256533" lon="-4.909250">
        <ele>2039.0</ele>
        <time>2013-07-02T11:08:07Z</time>
      </trkpt>
      <trkpt lat="40.256583" lon="-4.909317">
        <ele>2040.0</ele>
        <time>2013-07-02T11:08:08Z</time>
      </trkpt>
      <trkpt lat="40.256650" lon="-4.909367">
        <ele>2040.0</ele>
        <time>2013-07-02T11:08:09Z</time>
      </trkpt>
      <trkpt lat="40.256717" lon="-4.909417">
        <ele>2041.0</ele>
        <time>2013-07-02T11:08:10Z</time>
      </trkpt>
      <trkpt lat="40.256783" lon="-4.909467">
        <ele>2042.0</ele>
        <time>2013-07-02T11:08:11Z</time>
      </trkpt>
      <trkpt lat="40.256883" lon="-4.909483">
        <ele>2042.0</ele>
        <time>2013-07-02T11:08:12Z</time>
      </trkpt>
      <trkpt lat="40.256967" lon="-4.909467">
        <ele>2043.0</ele>
        <time>2013-07-02T11:08:13Z</time>
      </trkpt>
      <trkpt lat="40.257050" lon="-4.909467">
        <ele>2045.0</ele>
        <time>2013-07-02T11:08:14Z</time>
      </trkpt>
      <trkpt lat="40.257133" lon="-4.909450">
        <ele>2046.0</ele>
        <time>2013-07-02T11:08:15Z</time>
      </trkpt>
      <trkpt lat="40.257200" lon="-4.909417">
        <ele>2046.0</ele>
        <time>2013-07-02T11:08:16Z</time>
      </trkpt>
      <trkpt lat="40.257283" lon="-4.909383">
        <ele>2047.0</ele>
        <time>2013-07-02T11:08:17Z</time>
      </trkpt>
      <trkpt lat="40.257367" lon="-4.909317">
        <ele>2046.0</ele>
        <time>2013-07-02T11:08:18Z</time>
      </trkpt>
      <trkpt lat="40.257450" lon="-4.909250">
        <ele>2045.0</ele>
        <time>2013-07-02T11:08:19Z</time>
      </trkpt>
      <trkpt lat="40.257533" lon="-4.909150">
        <ele>2045.0</ele>
        <time>2013-07-02T11:08:20Z</time>
      </trkpt>
      <trkpt lat="40.257617" lon="-4.909033">
        <ele>2045.0</ele>
        <time>2013-07-02T11:08:21Z</time>
      </trkpt>
      <trkpt lat="40.257667" lon="-4.908917">
        <ele>2045.0</ele>
        <time>2013-07-02T11:08:22Z</time>
      </trkpt>
      <trkpt lat="40.257683" lon="-4.908767">
        <ele>2044.0</ele>
        <time>2013-07-02T11:08:23Z</time>
      </trkpt>
      <trkpt lat="40.257667" lon="-4.908633">
        <ele>2043.0</ele>
        <time>2013-07-02T11:08:24Z</time>
      </trkpt>
      <trkpt lat="40.257633" lon="-4.908500">
        <ele>2043.0</ele>
        <time>2013-07-02T11:08:25Z</time>
      </trkpt>
      <trkpt lat="40.257600" lon="-4.908383">
        <ele>2043.0</ele>
        <time>2013-07-02T11:08:26Z</time>
      </trkpt>
      <trkpt lat="40.257583" lon="-4.908267">
        <ele>2043.0</ele>
        <time>2013-07-02T11:08:27Z</time>
      </trkpt>
      <trkpt lat="40.257550" lon="-4.908150">
        <ele>2044.0</ele>
        <time>2013-07-02T11:08:28Z</time>
      </trkpt>
      <trkpt lat="40.257533" lon="-4.908033">
        <ele>2044.0</ele>
        <time>2013-07-02T11:08:29Z</time>
      </trkpt>
      <trkpt lat="40.257500" lon="-4.907933">
        <ele>2043.0</ele>
        <time>2013-07-02T11:08:30Z</time>
      </trkpt>
      <trkpt lat="40.257467" lon="-4.907833">
        <ele>2042.0</ele>
        <time>2013-07-02T11:08:31Z</time>
      </trkpt>
      <trkpt lat="40.257417" lon="-4.907717">
        <ele>2040.0</ele>
        <time>2013-07-02T11:08:32Z</time>
      </trkpt>
      <trkpt lat="40.257367" lon="-4.907633">
        <ele>2040.0</ele>
        <time>2013-07-02T11:08:33Z</time>
      </trkpt>
      <trkpt lat="40.257317" lon="-4.907533">
        <ele>2040.0</ele>
        <time>2013-07-02T11:08:34Z</time>
      </trkpt>
      <trkpt lat="40.257267" lon="-4.907433">
        <ele>2040.0</ele>
        <time>2013-07-02T11:08:35Z</time>
      </trkpt>
      <trkpt lat="40.257217" lon="-4.907350">
        <ele>2040.0</ele>
        <time>2013-07-02T11:08:36Z</time>
      </trkpt>
      <trkpt lat="40.257167" lon="-4.907250">
        <ele>2040.0</ele>
        <time>2013-07-02T11:08:37Z</time>
      </trkpt>
      <trkpt lat="40.257117" lon="-4.907150">
        <ele>2040.0</ele>
        <time>2013-07-02T11:08:38Z</time>
      </trkpt>
      <trkpt lat="40.257050" lon="-4.907067">
        <ele>2040.0</ele>
        <time>2013-07-02T11:08:39Z</time>
      </trkpt>
      <trkpt lat="40.256983" lon="-4.906967">
        <ele>2041.0</ele>
        <time>2013-07-02T11:08:40Z</time>
      </trkpt>
      <trkpt lat="40.256917" lon="-4.906883">
        <ele>2042.0</ele>
        <time>2013-07-02T11:08:41Z</time>
      </trkpt>
      <trkpt lat="40.256850" lon="-4.906817">
        <ele>2042.0</ele>
        <time>2013-07-02T11:08:42Z</time>
      </trkpt>
      <trkpt lat="40.256783" lon="-4.906733">
        <ele>2043.0</ele>
        <time>2013-07-02T11:08:43Z</time>
      </trkpt>
      <trkpt lat="40.256700" lon="-4.906667">
        <ele>2043.0</ele>
        <time>2013-07-02T11:08:44Z</time>
      </trkpt>
      <trkpt lat="40.256633" lon="-4.906600">
        <ele>2045.0</ele>
        <time>2013-07-02T11:08:45Z</time>
      </trkpt>
      <trkpt lat="40.256567" lon="-4.906517">
        <ele>2046.0</ele>
        <time>2013-07-02T11:08:46Z</time>
      </trkpt>
      <trkpt lat="40.256517" lon="-4.906433">
        <ele>2049.0</ele>
        <time>2013-07-02T11:08:47Z</time>
      </trkpt>
      <trkpt lat="40.256467" lon="-4.906350">
        <ele>2051.0</ele>
        <time>2013-07-02T11:08:48Z</time>
      </trkpt>
      <trkpt lat="40.256433" lon="-4.906283">
        <ele>2052.0</ele>
        <time>2013-07-02T11:08:49Z</time>
      </trkpt>
      <trkpt lat="40.256383" lon="-4.906217">
        <ele>2053.0</ele>
        <time>2013-07-02T11:08:50Z</time>
      </trkpt>
      <trkpt lat="40.256333" lon="-4.906133">
        <ele>2053.0</ele>
        <time>2013-07-02T11:08:51Z</time>
      </trkpt>
      <trkpt lat="40.256267" lon="-4.906050">
        <ele>2053.0</ele>
        <time>2013-07-02T11:08:52Z</time>
      </trkpt>
      <trkpt lat="40.256217" lon="-4.905967">
        <ele>2054.0</ele>
        <time>2013-07-02T11:08:53Z</time>
      </trkpt>
      <trkpt lat="40.256150" lon="-4.905900">
        <ele>2054.0</ele>
        <time>2013-07-02T11:08:54Z</time>
      </trkpt>
      <trkpt lat="40.256083" lon="-4.905833">
        <ele>2055.0</ele>
        <time>2013-07-02T11:08:55Z</time>
      </trkpt>
      <trkpt lat="40.256000" lon="-4.905750">
        <ele>2055.0</ele>
        <time>2013-07-02T11:08:56Z</time>
      </trkpt>
      <trkpt lat="40.255917" lon="-4.905650">
        <ele>2056.0</ele>
        <time>2013-07-02T11:08:57Z</time>
      </trkpt>
      <trkpt lat="40.255833" lon="-4.905550">
        <ele>2056.0</ele>
        <time>2013-07-02T11:08:58Z</time>
      </trkpt>
      <trkpt lat="40.255750" lon="-4.905467">
        <ele>2057.0</ele>
        <time>2013-07-02T11:08:59Z</time>
      </trkpt>
      <trkpt lat="40.255667" lon="-4.905383">
        <ele>2060.0</ele>
        <time>2013-07-02T11:09:00Z</time>
      </trkpt>
      <trkpt lat="40.255583" lon="-4.905300">
        <ele>2063.0</ele>
        <time>2013-07-02T11:09:01Z</time>
      </trkpt>
      <trkpt lat="40.255517" lon="-4.905233">
        <ele>2066.0</ele>
        <time>2013-07-02T11:09:02Z</time>
      </trkpt>
      <trkpt lat="40.255467" lon="-4.905150">
        <ele>2068.0</ele>
        <time>2013-07-02T11:09:03Z</time>
      </trkpt>
      <trkpt lat="40.255433" lon="-4.905067">
        <ele>2069.0</ele>
        <time>2013-07-02T11:09:04Z</time>
      </trkpt>
      <trkpt lat="40.255383" lon="-4.904967">
        <ele>2069.0</ele>
        <time>2013-07-02T11:09:05Z</time>
      </trkpt>
      <trkpt lat="40.255333" lon="-4.904883">
        <ele>2070.0</ele>
        <time>2013-07-02T11:09:06Z</time>
      </trkpt>
      <trkpt lat="40.255267" lon="-4.904817">
        <ele>2070.0</ele>
        <time>2013-07-02T11:09:07Z</time>
      </trkpt>
      <trkpt lat="40.255183" lon="-4.904800">
        <ele>2070.0</ele>
        <time>2013-07-02T11:09:08Z</time>
      </trkpt>
      <trkpt lat="40.255117" lon="-4.904800">
        <ele>2070.0</ele>
        <time>2013-07-02T11:09:09Z</time>
      </trkpt>
      <trkpt lat="40.255083" lon="-4.904850">
        <ele>2070.0</ele>
        <time>2013-07-02T11:09:10Z</time>
      </trkpt>
      <trkpt lat="40.255067" lon="-4.904917">
        <ele>2071.0</ele>
        <time>2013-07-02T11:09:11Z</time>
      </trkpt>
      <trkpt lat="40.255050" lon="-4.904983">
        <ele>2073.0</ele>
        <time>2013-07-02T11:09:12Z</time>
      </trkpt>
      <trkpt lat="40.255050" lon="-4.905033">
        <ele>2075.0</ele>
        <time>2013-07-02T11:09:13Z</time>
      </trkpt>
      <trkpt lat="40.255067" lon="-4.905067">
        <ele>2077.0</ele>
        <time>2013-07-02T11:09:14Z</time>
      </trkpt>
      <trkpt lat="40.255100" lon="-4.905083">
        <ele>2079.0</ele>
        <time>2013-07-02T11:09:15Z</time>
      </trkpt>
      <trkpt lat="40.255133" lon="-4.905100">
        <ele>2079.0</ele>
        <time>2013-07-02T11:09:16Z</time>
      </trkpt>
      <trkpt lat="40.255183" lon="-4.905117">
        <ele>2079.0</ele>
        <time>2013-07-02T11:09:17Z</time>
      </trkpt>
      <trkpt lat="40.255233" lon="-4.905133">
        <ele>2079.0</ele>
        <time>2013-07-02T11:09:18Z</time>
      </trkpt>
      <trkpt lat="40.255283" lon="-4.905167">
        <ele>2079.0</ele>
        <time>2013-07-02T11:09:19Z</time>
      </trkpt>
      <trkpt lat="40.255367" lon="-4.905200">
        <ele>2078.0</ele>
        <time>2013-07-02T11:09:20Z</time>
      </trkpt>
      <trkpt lat="40.255450" lon="-4.905217">
        <ele>2077.0</ele>
        <time>2013-07-02T11:09:21Z</time>
      </trkpt>
      <trkpt lat="40.255550" lon="-4.905233">
        <ele>2077.0</ele>
        <time>2013-07-02T11:09:22Z</time>
      </trkpt>
      <trkpt lat="40.255650" lon="-4.905233">
        <ele>2078.0</ele>
        <time>2013-07-02T11:09:23Z</time>
      </trkpt>
      <trkpt lat="40.255750" lon="-4.905217">
        <ele>2079.0</ele>
        <time>2013-07-02T11:09:24Z</time>
      </trkpt>
      <trkpt lat="40.255833" lon="-4.905183">
        <ele>2081.0</ele>
        <time>2013-07-02T11:09:25Z</time>
      </trkpt>
      <trkpt lat="40.255917" lon="-4.905133">
        <ele>2084.0</ele>
        <time>2013-07-02T11:09:26Z</time>
      </trkpt>
      <trkpt lat="40.255983" lon="-4.905083">
        <ele>2085.0</ele>
        <time>2013-07-02T11:09:27Z</time>
      </trkpt>
      <trkpt lat="40.256033" lon="-4.905000">
        <ele>2087.0</ele>
        <time>2013-07-02T11:09:28Z</time>
      </trkpt>
      <trkpt lat="40.256100" lon="-4.904900">
        <ele>2087.0</ele>
        <time>2013-07-02T11:09:29Z</time>
      </trkpt>
      <trkpt lat="40.256150" lon="-4.904783">
        <ele>2087.0</ele>
        <time>2013-07-02T11:09:30Z</time>
      </trkpt>
      <trkpt lat="40.256200" lon="-4.904667">
        <ele>2087.0</ele>
        <time>2013-07-02T11:09:31Z</time>
      </trkpt>
      <trkpt lat="40.256250" lon="-4.904533">
        <ele>2088.0</ele>
        <time>2013-07-02T11:09:32Z</time>
      </trkpt>
      <trkpt lat="40.256300" lon="-4.904417">
        <ele>2089.0</ele>
        <time>2013-07-02T11:09:33Z</time>
      </trkpt>
      <trkpt lat="40.256333" lon="-4.904283">
        <ele>2091.0</ele>
        <time>2013-07-02T11:09:34Z</time>
      </trkpt>
      <trkpt lat="40.256383" lon="-4.904183">
        <ele>2092.0</ele>
        <time>2013-07-02T11:09:35Z</time>
      </trkpt>
      <trkpt lat="40.256417" lon="-4.904067">
        <ele>2092.0</ele>
        <time>2013-07-02T11:09:36Z</time>
      </trkpt>
      <trkpt lat="40.256467" lon="-4.903950">
        <ele>2092.0</ele>
        <time>2013-07-02T11:09:37Z</time>
      </trkpt>
      <trkpt lat="40.256500" lon="-4.903817">
        <ele>2091.0</ele>
        <time>2013-07-02T11:09:38Z</time>
      </trkpt>
      <trkpt lat="40.256517" lon="-4.903667">
        <ele>2090.0</ele>
        <time>2013-07-02T11:09:39Z</time>
      </trkpt>
      <trkpt lat="40.256550" lon="-4.903517">
        <ele>2090.0</ele>
        <time>2013-07-02T11:09:40Z</time>
      </trkpt>
      <trkpt lat="40.256583" lon="-4.903350">
        <ele>2090.0</ele>
        <time>2013-07-02T11:09:41Z</time>
      </trkpt>
      <trkpt lat="40.256600" lon="-4.903200">
        <ele>2090.0</ele>
        <time>2013-07-02T11:09:42Z</time>
      </trkpt>
      <trkpt lat="40.256600" lon="-4.903067">
        <ele>2090.0</ele>
        <time>2013-07-02T11:09:43Z</time>
      </trkpt>
      <trkpt lat="40.256600" lon="-4.902933">
        <ele>2089.0</ele>
        <time>2013-07-02T11:09:44Z</time>
      </trkpt>
      <trkpt lat="40.256583" lon="-4.902783">
        <ele>2089.0</ele>
        <time>2013-07-02T11:09:45Z</time>
      </trkpt>
      <trkpt lat="40.256567" lon="-4.902633">
        <ele>2088.0</ele>
        <time>2013-07-02T11:09:46Z</time>
      </trkpt>
      <trkpt lat="40.256533" lon="-4.902500">
        <ele>2088.0</ele>
        <time>2013-07-02T11:09:47Z</time>
      </trkpt>
      <trkpt lat="40.256500" lon="-4.902367">
        <ele>2089.0</ele>
        <time>2013-07-02T11:09:48Z</time>
      </trkpt>
      <trkpt lat="40.256467" lon="-4.902250">
        <ele>2090.0</ele>
        <time>2013-07-02T11:09:49Z</time>
      </trkpt>
      <trkpt lat="40.256433" lon="-4.902117">
        <ele>2090.0</ele>
        <time>2013-07-02T11:09:50Z</time>
      </trkpt>
      <trkpt lat="40.256383" lon="-4.902000">
        <ele>2091.0</ele>
        <time>2013-07-02T11:09:51Z</time>
      </trkpt>
      <trkpt lat="40.256350" lon="-4.901900">
        <ele>2093.0</ele>
        <time>2013-07-02T11:09:52Z</time>
      </trkpt>
      <trkpt lat="40.256317" lon="-4.901817">
        <ele>2095.0</ele>
        <time>2013-07-02T11:09:53Z</time>
      </trkpt>
      <trkpt lat="40.256283" lon="-4.901717">
        <ele>2096.0</ele>
        <time>2013-07-02T11:09:54Z</time>
      </trkpt>
      <trkpt lat="40.256267" lon="-4.901633">
        <ele>2098.0</ele>
        <time>2013-07-02T11:09:55Z</time>
      </trkpt>
      <trkpt lat="40.256233" lon="-4.901550">
        <ele>2098.0</ele>
        <time>2013-07-02T11:09:56Z</time>
      </trkpt>
      <trkpt lat="40.256200" lon="-4.901483">
        <ele>2098.0</ele>
        <time>2013-07-02T11:09:57Z</time>
      </trkpt>
      <trkpt lat="40.256150" lon="-4.901400">
        <ele>2097.0</ele>
        <time>2013-07-02T11:09:58Z</time>
      </trkpt>
      <trkpt lat="40.256100" lon="-4.901350">
        <ele>2097.0</ele>
        <time>2013-07-02T11:09:59Z</time>
      </trkpt>
      <trkpt lat="40.256050" lon="-4.901317">
        <ele>2096.0</ele>
        <time>2013-07-02T11:10:00Z</time>
      </trkpt>
      <trkpt lat="40.255983" lon="-4.901300">
        <ele>2095.0</ele>
        <time>2013-07-02T11:10:01Z</time>
      </trkpt>
      <trkpt lat="40.255933" lon="-4.901300">
        <ele>2095.0</ele>
        <time>2013-07-02T11:10:02Z</time>
      </trkpt>
      <trkpt lat="40.255883" lon="-4.901300">
        <ele>2095.0</ele>
        <time>2013-07-02T11:10:03Z</time>
      </trkpt>
      <trkpt lat="40.255833" lon="-4.901317">
        <ele>2096.0</ele>
        <time>2013-07-02T11:10:04Z</time>
      </trkpt>
      <trkpt lat="40.255800" lon="-4.901350">
        <ele>2096.0</ele>
        <time>2013-07-02T11:10:05Z</time>
      </trkpt>
      <trkpt lat="40.255767" lon="-4.901383">
        <ele>2096.0</ele>
        <time>2013-07-02T11:10:06Z</time>
      </trkpt>
      <trkpt lat="40.255733" lon="-4.901417">
        <ele>2096.0</ele>
        <time>2013-07-02T11:10:07Z</time>
      </trkpt>
      <trkpt lat="40.255717" lon="-4.901467">
        <ele>2096.0</ele>
        <time>2013-07-02T11:10:08Z</time>
      </trkpt>
      <trkpt lat="40.255700" lon="-4.901483">
        <ele>2097.0</ele>
        <time>2013-07-02T11:10:09Z</time>
      </trkpt>
      <trkpt lat="40.255683" lon="-4.901500">
        <ele>2096.0</ele>
        <time>2013-07-02T11:10:10Z</time>
      </trkpt>
      <trkpt lat="40.255667" lon="-4.901517">
        <ele>2095.0</ele>
        <time>2013-07-02T11:10:11Z</time>
      </trkpt>
      <trkpt lat="40.255667" lon="-4.901550">
        <ele>2093.0</ele>
        <time>2013-07-02T11:10:12Z</time>
      </trkpt>
      <trkpt lat="40.255650" lon="-4.901600">
        <ele>2090.0</ele>
        <time>2013-07-02T11:10:13Z</time>
      </trkpt>
      <trkpt lat="40.255650" lon="-4.901683">
        <ele>2089.0</ele>
        <time>2013-07-02T11:10:14Z</time>
      </trkpt>
      <trkpt lat="40.255650" lon="-4.901767">
        <ele>2088.0</ele>
        <time>2013-07-02T11:10:15Z</time>
      </trkpt>
      <trkpt lat="40.255667" lon="-4.901850">
        <ele>2090.0</ele>
        <time>2013-07-02T11:10:16Z</time>
      </trkpt>
      <trkpt lat="40.255700" lon="-4.901917">
        <ele>2095.0</ele>
        <time>2013-07-02T11:10:17Z</time>
      </trkpt>
      <trkpt lat="40.255733" lon="-4.901933">
        <ele>2099.0</ele>
        <time>2013-07-02T11:10:18Z</time>
      </trkpt>
      <trkpt lat="40.255767" lon="-4.901933">
        <ele>2101.0</ele>
        <time>2013-07-02T11:10:19Z</time>
      </trkpt>
      <trkpt lat="40.255800" lon="-4.901933">
        <ele>2101.0</ele>
        <time>2013-07-02T11:10:20Z</time>
      </trkpt>
      <trkpt lat="40.255833" lon="-4.901967">
        <ele>2100.0</ele>
        <time>2013-07-02T11:10:21Z</time>
      </trkpt>
      <trkpt lat="40.255900" lon="-4.902017">
        <ele>2098.0</ele>
        <time>2013-07-02T11:10:22Z</time>
      </trkpt>
      <trkpt lat="40.255983" lon="-4.902033">
        <ele>2098.0</ele>
        <time>2013-07-02T11:10:23Z</time>
      </trkpt>
      <trkpt lat="40.256083" lon="-4.901983">
        <ele>2098.0</ele>
        <time>2013-07-02T11:10:24Z</time>
      </trkpt>
      <trkpt lat="40.256183" lon="-4.901883">
        <ele>2097.0</ele>
        <time>2013-07-02T11:10:25Z</time>
      </trkpt>
      <trkpt lat="40.256250" lon="-4.901733">
        <ele>2095.0</ele>
        <time>2013-07-02T11:10:26Z</time>
      </trkpt>
      <trkpt lat="40.256317" lon="-4.901583">
        <ele>2094.0</ele>
        <time>2013-07-02T11:10:27Z</time>
      </trkpt>
      <trkpt lat="40.256400" lon="-4.901433">
        <ele>2095.0</ele>
        <time>2013-07-02T11:10:28Z</time>
      </trkpt>
      <trkpt lat="40.256483" lon="-4.901283">
        <ele>2095.0</ele>
        <time>2013-07-02T11:10:29Z</time>
      </trkpt>
      <trkpt lat="40.256567" lon="-4.901150">
        <ele>2096.0</ele>
        <time>2013-07-02T11:10:30Z</time>
      </trkpt>
      <trkpt lat="40.256650" lon="-4.901000">
        <ele>2096.0</ele>
        <time>2013-07-02T11:10:31Z</time>
      </trkpt>
      <trkpt lat="40.256700" lon="-4.900850">
        <ele>2097.0</ele>
        <time>2013-07-02T11:10:32Z</time>
      </trkpt>
      <trkpt lat="40.256733" lon="-4.900700">
        <ele>2097.0</ele>
        <time>2013-07-02T11:10:33Z</time>
      </trkpt>
      <trkpt lat="40.256767" lon="-4.900550">
        <ele>2098.0</ele>
        <time>2013-07-02T11:10:34Z</time>
      </trkpt>
      <trkpt lat="40.256783" lon="-4.900417">
        <ele>2098.0</ele>
        <time>2013-07-02T11:10:35Z</time>
      </trkpt>
      <trkpt lat="40.256783" lon="-4.900283">
        <ele>2097.0</ele>
        <time>2013-07-02T11:10:36Z</time>
      </trkpt>
      <trkpt lat="40.256800" lon="-4.900150">
        <ele>2096.0</ele>
        <time>2013-07-02T11:10:37Z</time>
      </trkpt>
      <trkpt lat="40.256800" lon="-4.900017">
        <ele>2095.0</ele>
        <time>2013-07-02T11:10:38Z</time>
      </trkpt>
      <trkpt lat="40.256800" lon="-4.899883">
        <ele>2093.0</ele>
        <time>2013-07-02T11:10:39Z</time>
      </trkpt>
      <trkpt lat="40.256783" lon="-4.899750">
        <ele>2091.0</ele>
        <time>2013-07-02T11:10:40Z</time>
      </trkpt>
      <trkpt lat="40.256750" lon="-4.899617">
        <ele>2089.0</ele>
        <time>2013-07-02T11:10:41Z</time>
      </trkpt>
      <trkpt lat="40.256717" lon="-4.899483">
        <ele>2088.0</ele>
        <time>2013-07-02T11:10:42Z</time>
      </trkpt>
      <trkpt lat="40.256667" lon="-4.899350">
        <ele>2088.0</ele>
        <time>2013-07-02T11:10:43Z</time>
      </trkpt>
      <trkpt lat="40.256617" lon="-4.899233">
        <ele>2087.0</ele>
        <time>2013-07-02T11:10:44Z</time>
      </trkpt>
      <trkpt lat="40.256583" lon="-4.899117">
        <ele>2087.0</ele>
        <time>2013-07-02T11:10:45Z</time>
      </trkpt>
      <trkpt lat="40.256533" lon="-4.899000">
        <ele>2087.0</ele>
        <time>2013-07-02T11:10:46Z</time>
      </trkpt>
      <trkpt lat="40.256467" lon="-4.898917">
        <ele>2087.0</ele>
        <time>2013-07-02T11:10:47Z</time>
      </trkpt>
      <trkpt lat="40.256417" lon="-4.898850">
        <ele>2087.0</ele>
        <time>2013-07-02T11:10:48Z</time>
      </trkpt>
      <trkpt lat="40.256350" lon="-4.898783">
        <ele>2087.0</ele>
        <time>2013-07-02T11:10:49Z</time>
      </trkpt>
      <trkpt lat="40.256300" lon="-4.898733">
        <ele>2086.0</ele>
        <time>2013-07-02T11:10:50Z</time>
      </trkpt>
      <trkpt lat="40.256233" lon="-4.898700">
        <ele>2086.0</ele>
        <time>2013-07-02T11:10:51Z</time>
      </trkpt>
      <trkpt lat="40.256167" lon="-4.898667">
        <ele>2085.0</ele>
        <time>2013-07-02T11:10:52Z</time>
      </trkpt>
      <trkpt lat="40.256100" lon="-4.898650">
        <ele>2084.0</ele>
        <time>2013-07-02T11:10:53Z</time>
      </trkpt>
      <trkpt lat="40.256017" lon="-4.898667">
        <ele>2083.0</ele>
        <time>2013-07-02T11:10:54Z</time>
      </trkpt>
      <trkpt lat="40.255950" lon="-4.898683">
        <ele>2083.0</ele>
        <time>2013-07-02T11:10:55Z</time>
      </trkpt>
      <trkpt lat="40.255900" lon="-4.898717">
        <ele>2082.0</ele>
        <time>2013-07-02T11:10:56Z</time>
      </trkpt>
      <trkpt lat="40.255850" lon="-4.898783">
        <ele>2082.0</ele>
        <time>2013-07-02T11:10:57Z</time>
      </trkpt>
      <trkpt lat="40.255817" lon="-4.898833">
        <ele>2081.0</ele>
        <time>2013-07-02T11:10:58Z</time>
      </trkpt>
      <trkpt lat="40.255783" lon="-4.898883">
        <ele>2080.0</ele>
        <time>2013-07-02T11:10:59Z</time>
      </trkpt>
      <trkpt lat="40.255750" lon="-4.898933">
        <ele>2079.0</ele>
        <time>2013-07-02T11:11:00Z</time>
      </trkpt>
      <trkpt lat="40.255717" lon="-4.899000">
        <ele>2079.0</ele>
        <time>2013-07-02T11:11:01Z</time>
      </trkpt>
      <trkpt lat="40.255683" lon="-4.899067">
        <ele>2078.0</ele>
        <time>2013-07-02T11:11:02Z</time>
      </trkpt>
      <trkpt lat="40.255650" lon="-4.899133">
        <ele>2076.0</ele>
        <time>2013-07-02T11:11:03Z</time>
      </trkpt>
      <trkpt lat="40.255617" lon="-4.899200">
        <ele>2076.0</ele>
        <time>2013-07-02T11:11:04Z</time>
      </trkpt>
      <trkpt lat="40.255600" lon="-4.899267">
        <ele>2075.0</ele>
        <time>2013-07-02T11:11:05Z</time>
      </trkpt>
      <trkpt lat="40.255583" lon="-4.899333">
        <ele>2074.0</ele>
        <time>2013-07-02T11:11:06Z</time>
      </trkpt>
      <trkpt lat="40.255567" lon="-4.899400">
        <ele>2074.0</ele>
        <time>2013-07-02T11:11:07Z</time>
      </trkpt>
      <trkpt lat="40.255550" lon="-4.899467">
        <ele>2073.0</ele>
        <time>2013-07-02T11:11:08Z</time>
      </trkpt>
      <trkpt lat="40.255550" lon="-4.899533">
        <ele>2072.0</ele>
        <time>2013-07-02T11:11:09Z</time>
      </trkpt>
      <trkpt lat="40.255533" lon="-4.899600">
        <ele>2070.0</ele>
        <time>2013-07-02T11:11:10Z</time>
      </trkpt>
      <trkpt lat="40.255550" lon="-4.899667">
        <ele>2069.0</ele>
        <time>2013-07-02T11:11:11Z</time>
      </trkpt>
      <trkpt lat="40.255550" lon="-4.899750">
        <ele>2066.0</ele>
        <time>2013-07-02T11:11:12Z</time>
      </trkpt>
      <trkpt lat="40.255550" lon="-4.899833">
        <ele>2064.0</ele>
        <time>2013-07-02T11:11:13Z</time>
      </trkpt>
      <trkpt lat="40.255567" lon="-4.899933">
        <ele>2062.0</ele>
        <time>2013-07-02T11:11:14Z</time>
      </trkpt>
      <trkpt lat="40.255583" lon="-4.900033">
        <ele>2060.0</ele>
        <time>2013-07-02T11:11:15Z</time>
      </trkpt>
      <trkpt lat="40.255600" lon="-4.900117">
        <ele>2059.0</ele>
        <time>2013-07-02T11:11:16Z</time>
      </trkpt>
      <trkpt lat="40.255633" lon="-4.900183">
        <ele>2058.0</ele>
        <time>2013-07-02T11:11:17Z</time>
      </trkpt>
      <trkpt lat="40.255650" lon="-4.900267">
        <ele>2057.0</ele>
        <time>2013-07-02T11:11:18Z</time>
      </trkpt>
      <trkpt lat="40.255650" lon="-4.900350">
        <ele>2055.0</ele>
        <time>2013-07-02T11:11:19Z</time>
      </trkpt>
      <trkpt lat="40.255667" lon="-4.900433">
        <ele>2053.0</ele>
        <time>2013-07-02T11:11:20Z</time>
      </trkpt>
      <trkpt lat="40.255683" lon="-4.900517">
        <ele>2050.0</ele>
        <time>2013-07-02T11:11:21Z</time>
      </trkpt>
      <trkpt lat="40.255700" lon="-4.900583">
        <ele>2048.0</ele>
        <time>2013-07-02T11:11:22Z</time>
      </trkpt>
      <trkpt lat="40.255683" lon="-4.900650">
        <ele>2047.0</ele>
        <time>2013-07-02T11:11:23Z</time>
      </trkpt>
      <trkpt lat="40.255650" lon="-4.900700">
        <ele>2046.0</ele>
        <time>2013-07-02T11:11:24Z</time>
      </trkpt>
      <trkpt lat="40.255633" lon="-4.900733">
        <ele>2045.0</ele>
        <time>2013-07-02T11:11:25Z</time>
      </trkpt>
      <trkpt lat="40.255617" lon="-4.900783">
        <ele>2045.0</ele>
        <time>2013-07-02T11:11:26Z</time>
      </trkpt>
      <trkpt lat="40.255600" lon="-4.900833">
        <ele>2045.0</ele>
        <time>2013-07-02T11:11:27Z</time>
      </trkpt>
      <trkpt lat="40.255583" lon="-4.900900">
        <ele>2044.0</ele>
        <time>2013-07-02T11:11:28Z</time>
      </trkpt>
      <trkpt lat="40.255567" lon="-4.900967">
        <ele>2043.0</ele>
        <time>2013-07-02T11:11:29Z</time>
      </trkpt>
      <trkpt lat="40.255567" lon="-4.901033">
        <ele>2042.0</ele>
        <time>2013-07-02T11:11:30Z</time>
      </trkpt>
      <trkpt lat="40.255567" lon="-4.901100">
        <ele>2041.0</ele>
        <time>2013-07-02T11:11:31Z</time>
      </trkpt>
      <trkpt lat="40.255600" lon="-4.901167">
        <ele>2041.0</ele>
        <time>2013-07-02T11:11:32Z</time>
      </trkpt>
      <trkpt lat="40.255617" lon="-4.901233">
        <ele>2041.0</ele>
        <time>2013-07-02T11:11:33Z</time>
      </trkpt>
      <trkpt lat="40.255633" lon="-4.901283">
        <ele>2042.0</ele>
        <time>2013-07-02T11:11:34Z</time>
      </trkpt>
      <trkpt lat="40.255633" lon="-4.901350">
        <ele>2043.0</ele>
        <time>2013-07-02T11:11:35Z</time>
      </trkpt>
      <trkpt lat="40.255633" lon="-4.901400">
        <ele>2044.0</ele>
        <time>2013-07-02T11:11:36Z</time>
      </trkpt>
      <trkpt lat="40.255633" lon="-4.901433">
        <ele>2045.0</ele>
        <time>2013-07-02T11:11:37Z</time>
      </trkpt>
      <trkpt lat="40.255633" lon="-4.901450">
        <ele>2045.0</ele>
        <time>2013-07-02T11:11:38Z</time>
      </trkpt>
      <trkpt lat="40.255650" lon="-4.901467">
        <ele>2044.0</ele>
        <time>2013-07-02T11:11:39Z</time>
      </trkpt>
      <trkpt lat="40.255650" lon="-4.901500">
        <ele>2042.0</ele>
        <time>2013-07-02T11:11:40Z</time>
      </trkpt>
      <trkpt lat="40.255667" lon="-4.901550">
        <ele>2040.0</ele>
        <time>2013-07-02T11:11:41Z</time>
      </trkpt>
      <trkpt lat="40.255683" lon="-4.901617">
        <ele>2037.0</ele>
        <time>2013-07-02T11:11:42Z</time>
      </trkpt>
      <trkpt lat="40.255700" lon="-4.901700">
        <ele>2034.0</ele>
        <time>2013-07-02T11:11:43Z</time>
      </trkpt>
      <trkpt lat="40.255717" lon="-4.901783">
        <ele>2032.0</ele>
        <time>2013-07-02T11:11:44Z</time>
      </trkpt>
      <trkpt lat="40.255733" lon="-4.901867">
        <ele>2031.0</ele>
        <time>2013-07-02T11:11:45Z</time>
      </trkpt>
      <trkpt lat="40.255767" lon="-4.901933">
        <ele>2030.0</ele>
        <time>2013-07-02T11:11:46Z</time>
      </trkpt>
      <trkpt lat="40.255817" lon="-4.901983">
        <ele>2029.0</ele>
        <time>2013-07-02T11:11:47Z</time>
      </trkpt>
      <trkpt lat="40.255850" lon="-4.902033">
        <ele>2028.0</ele>
        <time>2013-07-02T11:11:48Z</time>
      </trkpt>
      <trkpt lat="40.255900" lon="-4.902100">
        <ele>2027.0</ele>
        <time>2013-07-02T11:11:49Z</time>
      </trkpt>
      <trkpt lat="40.255933" lon="-4.902183">
        <ele>2027.0</ele>
        <time>2013-07-02T11:11:50Z</time>
      </trkpt>
      <trkpt lat="40.255950" lon="-4.902250">
        <ele>2026.0</ele>
        <time>2013-07-02T11:11:51Z</time>
      </trkpt>
      <trkpt lat="40.255983" lon="-4.902317">
        <ele>2024.0</ele>
        <time>2013-07-02T11:11:52Z</time>
      </trkpt>
      <trkpt lat="40.256017" lon="-4.902383">
        <ele>2024.0</ele>
        <time>2013-07-02T11:11:53Z</time>
      </trkpt>
      <trkpt lat="40.256033" lon="-4.902417">
        <ele>2023.0</ele>
        <time>2013-07-02T11:11:54Z</time>
      </trkpt>
      <trkpt lat="40.256050" lon="-4.902467">
        <ele>2022.0</ele>
        <time>2013-07-02T11:11:55Z</time>
      </trkpt>
      <trkpt lat="40.256083" lon="-4.902500">
        <ele>2019.0</ele>
        <time>2013-07-02T11:11:56Z</time>
      </trkpt>
      <trkpt lat="40.256100" lon="-4.902550">
        <ele>2016.0</ele>
        <time>2013-07-02T11:11:57Z</time>
      </trkpt>
      <trkpt lat="40.256133" lon="-4.902617">
        <ele>2013.0</ele>
        <time>2013-07-02T11:11:58Z</time>
      </trkpt>
      <trkpt lat="40.256150" lon="-4.902667">
        <ele>2011.0</ele>
        <time>2013-07-02T11:11:59Z</time>
      </trkpt>
      <trkpt lat="40.256183" lon="-4.902717">
        <ele>2010.0</ele>
        <time>2013-07-02T11:12:00Z</time>
      </trkpt>
      <trkpt lat="40.256217" lon="-4.902767">
        <ele>2010.0</ele>
        <time>2013-07-02T11:12:01Z</time>
      </trkpt>
      <trkpt lat="40.256250" lon="-4.902817">
        <ele>2008.0</ele>
        <time>2013-07-02T11:12:02Z</time>
      </trkpt>
      <trkpt lat="40.256283" lon="-4.902867">
        <ele>2005.0</ele>
        <time>2013-07-02T11:12:03Z</time>
      </trkpt>
      <trkpt lat="40.256317" lon="-4.902917">
        <ele>2002.0</ele>
        <time>2013-07-02T11:12:04Z</time>
      </trkpt>
      <trkpt lat="40.256367" lon="-4.902983">
        <ele>1999.0</ele>
        <time>2013-07-02T11:12:05Z</time>
      </trkpt>
      <trkpt lat="40.256417" lon="-4.903033">
        <ele>1997.0</ele>
        <time>2013-07-02T11:12:06Z</time>
      </trkpt>
      <trkpt lat="40.256467" lon="-4.903083">
        <ele>1995.0</ele>
        <time>2013-07-02T11:12:07Z</time>
      </trkpt>
      <trkpt lat="40.256517" lon="-4.903117">
        <ele>1993.0</ele>
        <time>2013-07-02T11:12:08Z</time>
      </trkpt>
      <trkpt lat="40.256583" lon="-4.903167">
        <ele>1992.0</ele>
        <time>2013-07-02T11:12:09Z</time>
      </trkpt>
      <trkpt lat="40.256633" lon="-4.903200">
        <ele>1989.0</ele>
        <time>2013-07-02T11:12:10Z</time>
      </trkpt>
      <trkpt lat="40.256683" lon="-4.903250">
        <ele>1986.0</ele>
        <time>2013-07-02T11:12:11Z</time>
      </trkpt>
      <trkpt lat="40.256750" lon="-4.903283">
        <ele>1984.0</ele>
        <time>2013-07-02T11:12:12Z</time>
      </trkpt>
      <trkpt lat="40.256817" lon="-4.903333">
        <ele>1981.0</ele>
        <time>2013-07-02T11:12:13Z</time>
      </trkpt>
      <trkpt lat="40.256867" lon="-4.903367">
        <ele>1979.0</ele>
        <time>2013-07-02T11:12:14Z</time>
      </trkpt>
      <trkpt lat="40.256933" lon="-4.903400">
        <ele>1976.0</ele>
        <time>2013-07-02T11:12:15Z</time>
      </trkpt>
      <trkpt lat="40.256983" lon="-4.903433">
        <ele>1974.0</ele>
        <time>2013-07-02T11:12:16Z</time>
      </trkpt>
      <trkpt lat="40.257033" lon="-4.903467">
        <ele>1971.0</ele>
        <time>2013-07-02T11:12:17Z</time>
      </trkpt>
      <trkpt lat="40.257100" lon="-4.903500">
        <ele>1968.0</ele>
        <time>2013-07-02T11:12:18Z</time>
      </trkpt>
      <trkpt lat="40.257167" lon="-4.903533">
        <ele>1966.0</ele>
        <time>2013-07-02T11:12:19Z</time>
      </trkpt>
      <trkpt lat="40.257233" lon="-4.903567">
        <ele>1965.0</ele>
        <time>2013-07-02T11:12:20Z</time>
      </trkpt>
      <trkpt lat="40.257283" lon="-4.903600">
        <ele>1963.0</ele>
        <time>2013-07-02T11:12:21Z</time>
      </trkpt>
      <trkpt lat="40.257333" lon="-4.903650">
        <ele>1963.0</ele>
        <time>2013-07-02T11:12:22Z</time>
      </trkpt>
      <trkpt lat="40.257383" lon="-4.903683">
        <ele>1962.0</ele>
        <time>2013-07-02T11:12:23Z</time>
      </trkpt>
      <trkpt lat="40.257433" lon="-4.903717">
        <ele>1961.0</ele>
        <time>2013-07-02T11:12:24Z</time>
      </trkpt>
      <trkpt lat="40.257467" lon="-4.903767">
        <ele>1961.0</ele>
        <time>2013-07-02T11:12:25Z</time>
      </trkpt>
      <trkpt lat="40.257500" lon="-4.903833">
        <ele>1962.0</ele>
        <time>2013-07-02T11:12:26Z</time>
      </trkpt>
      <trkpt lat="40.257550" lon="-4.903883">
        <ele>1962.0</ele>
        <time>2013-07-02T11:12:27Z</time>
      </trkpt>
      <trkpt lat="40.257583" lon="-4.903950">
        <ele>1962.0</ele>
        <time>2013-07-02T11:12:28Z</time>
      </trkpt>
      <trkpt lat="40.257633" lon="-4.904000">
        <ele>1962.0</ele>
        <time>2013-07-02T11:12:29Z</time>
      </trkpt>
      <trkpt lat="40.257683" lon="-4.904033">
        <ele>1962.0</ele>
        <time>2013-07-02T11:12:30Z</time>
      </trkpt>
      <trkpt lat="40.257733" lon="-4.904083">
        <ele>1962.0</ele>
        <time>2013-07-02T11:12:31Z</time>
      </trkpt>
      <trkpt lat="40.257767" lon="-4.904117">
        <ele>1962.0</ele>
        <time>2013-07-02T11:12:32Z</time>
      </trkpt>
      <trkpt lat="40.257817" lon="-4.904167">
        <ele>1961.0</ele>
        <time>2013-07-02T11:12:33Z</time>
      </trkpt>
      <trkpt lat="40.257883" lon="-4.904200">
        <ele>1960.0</ele>
        <time>2013-07-02T11:12:34Z</time>
      </trkpt>
      <trkpt lat="40.257950" lon="-4.904233">
        <ele>1958.0</ele>
        <time>2013-07-02T11:12:35Z</time>
      </trkpt>
      <trkpt lat="40.258017" lon="-4.904283">
        <ele>1955.0</ele>
        <time>2013-07-02T11:12:36Z</time>
      </trkpt>
      <trkpt lat="40.258100" lon="-4.904317">
        <ele>1954.0</ele>
        <time>2013-07-02T11:12:37Z</time>
      </trkpt>
      <trkpt lat="40.258167" lon="-4.904367">
        <ele>1953.0</ele>
        <time>2013-07-02T11:12:38Z</time>
      </trkpt>
      <trkpt lat="40.258233" lon="-4.904417">
        <ele>1952.0</ele>
        <time>2013-07-02T11:12:39Z</time>
      </trkpt>
      <trkpt lat="40.258300" lon="-4.904450">
        <ele>1952.0</ele>
        <time>2013-07-02T11:12:40Z</time>
      </trkpt>
      <trkpt lat="40.258367" lon="-4.904483">
        <ele>1951.0</ele>
        <time>2013-07-02T11:12:41Z</time>
      </trkpt>
      <trkpt lat="40.258450" lon="-4.904533">
        <ele>1950.0</ele>
        <time>2013-07-02T11:12:42Z</time>
      </trkpt>
      <trkpt lat="40.258517" lon="-4.904583">
        <ele>1949.0</ele>
        <time>2013-07-02T11:12:43Z</time>
      </trkpt>
      <trkpt lat="40.258600" lon="-4.904633">
        <ele>1948.0</ele>
        <time>2013-07-02T11:12:44Z</time>
      </trkpt>
      <trkpt lat="40.258667" lon="-4.904667">
        <ele>1948.0</ele>
        <time>2013-07-02T11:12:45Z</time>
      </trkpt>
      <trkpt lat="40.258733" lon="-4.904700">
        <ele>1946.0</ele>
        <time>2013-07-02T11:12:46Z</time>
      </trkpt>
      <trkpt lat="40.258800" lon="-4.904733">
        <ele>1945.0</ele>
        <time>2013-07-02T11:12:47Z</time>
      </trkpt>
      <trkpt lat="40.258883" lon="-4.904767">
        <ele>1943.0</ele>
        <time>2013-07-02T11:12:48Z</time>
      </trkpt>
      <trkpt lat="40.258967" lon="-4.904783">
        <ele>1940.0</ele>
        <time>2013-07-02T11:12:49Z</time>
      </trkpt>
      <trkpt lat="40.259050" lon="-4.904817">
        <ele>1939.0</ele>
        <time>2013-07-02T11:12:50Z</time>
      </trkpt>
      <trkpt lat="40.259117" lon="-4.904867">
        <ele>1938.0</ele>
        <time>2013-07-02T11:12:51Z</time>
      </trkpt>
      <trkpt lat="40.259183" lon="-4.904883">
        <ele>1937.0</ele>
        <time>2013-07-02T11:12:52Z</time>
      </trkpt>
      <trkpt lat="40.259250" lon="-4.904917">
        <ele>1936.0</ele>
        <time>2013-07-02T11:12:53Z</time>
      </trkpt>
      <trkpt lat="40.259300" lon="-4.904950">
        <ele>1935.0</ele>
        <time>2013-07-02T11:12:54Z</time>
      </trkpt>
      <trkpt lat="40.259367" lon="-4.904983">
        <ele>1932.0</ele>
        <time>2013-07-02T11:12:55Z</time>
      </trkpt>
      <trkpt lat="40.259433" lon="-4.905033">
        <ele>1930.0</ele>
        <time>2013-07-02T11:12:56Z</time>
      </trkpt>
      <trkpt lat="40.259500" lon="-4.905100">
        <ele>1928.0</ele>
        <time>2013-07-02T11:12:57Z</time>
      </trkpt>
      <trkpt lat="40.259567" lon="-4.905150">
        <ele>1927.0</ele>
        <time>2013-07-02T11:12:58Z</time>
      </trkpt>
      <trkpt lat="40.259633" lon="-4.905200">
        <ele>1926.0</ele>
        <time>2013-07-02T11:12:59Z</time>
      </trkpt>
      <trkpt lat="40.259717" lon="-4.905250">
        <ele>1926.0</ele>
        <time>2013-07-02T11:13:00Z</time>
      </trkpt>
      <trkpt lat="40.259783" lon="-4.905300">
        <ele>1924.0</ele>
        <time>2013-07-02T11:13:01Z</time>
      </trkpt>
      <trkpt lat="40.259850" lon="-4.905367">
        <ele>1922.0</ele>
        <time>2013-07-02T11:13:02Z</time>
      </trkpt>
      <trkpt lat="40.259917" lon="-4.905467">
        <ele>1920.0</ele>
        <time>2013-07-02T11:13:03Z</time>
      </trkpt>
      <trkpt lat="40.259967" lon="-4.905550">
        <ele>1920.0</ele>
        <time>2013-07-02T11:13:04Z</time>
      </trkpt>
      <trkpt lat="40.260000" lon="-4.905617">
        <ele>1921.0</ele>
        <time>2013-07-02T11:13:05Z</time>
      </trkpt>
      <trkpt lat="40.260050" lon="-4.905667">
        <ele>1920.0</ele>
        <time>2013-07-02T11:13:06Z</time>
      </trkpt>
      <trkpt lat="40.260117" lon="-4.905733">
        <ele>1919.0</ele>
        <time>2013-07-02T11:13:07Z</time>
      </trkpt>
      <trkpt lat="40.260167" lon="-4.905783">
        <ele>1917.0</ele>
        <time>2013-07-02T11:13:08Z</time>
      </trkpt>
      <trkpt lat="40.260233" lon="-4.905867">
        <ele>1917.0</ele>
        <time>2013-07-02T11:13:09Z</time>
      </trkpt>
      <trkpt lat="40.260300" lon="-4.905933">
        <ele>1917.0</ele>
        <time>2013-07-02T11:13:10Z</time>
      </trkpt>
      <trkpt lat="40.260367" lon="-4.906000">
        <ele>1919.0</ele>
        <time>2013-07-02T11:13:11Z</time>
      </trkpt>
      <trkpt lat="40.260433" lon="-4.906033">
        <ele>1921.0</ele>
        <time>2013-07-02T11:13:12Z</time>
      </trkpt>
      <trkpt lat="40.260517" lon="-4.906067">
        <ele>1922.0</ele>
        <time>2013-07-02T11:13:13Z</time>
      </trkpt>
      <trkpt lat="40.260567" lon="-4.906100">
        <ele>1922.0</ele>
        <time>2013-07-02T11:13:14Z</time>
      </trkpt>
      <trkpt lat="40.260633" lon="-4.906150">
        <ele>1923.0</ele>
        <time>2013-07-02T11:13:15Z</time>
      </trkpt>
      <trkpt lat="40.260700" lon="-4.906217">
        <ele>1923.0</ele>
        <time>2013-07-02T11:13:16Z</time>
      </trkpt>
      <trkpt lat="40.260750" lon="-4.906283">
        <ele>1923.0</ele>
        <time>2013-07-02T11:13:17Z</time>
      </trkpt>
      <trkpt lat="40.260800" lon="-4.906367">
        <ele>1924.0</ele>
        <time>2013-07-02T11:13:18Z</time>
      </trkpt>
      <trkpt lat="40.260850" lon="-4.906433">
        <ele>1924.0</ele>
        <time>2013-07-02T11:13:19Z</time>
      </trkpt>
      <trkpt lat="40.260883" lon="-4.906483">
        <ele>1924.0</ele>
        <time>2013-07-02T11:13:20Z</time>
      </trkpt>
      <trkpt lat="40.260917" lon="-4.906517">
        <ele>1925.0</ele>
        <time>2013-07-02T11:13:21Z</time>
      </trkpt>
      <trkpt lat="40.260950" lon="-4.906567">
        <ele>1926.0</ele>
        <time>2013-07-02T11:13:22Z</time>
      </trkpt>
      <trkpt lat="40.261000" lon="-4.906600">
        <ele>1926.0</ele>
        <time>2013-07-02T11:13:23Z</time>
      </trkpt>
      <trkpt lat="40.261050" lon="-4.906633">
        <ele>1927.0</ele>
        <time>2013-07-02T11:13:24Z</time>
      </trkpt>
      <trkpt lat="40.261083" lon="-4.906683">
        <ele>1928.0</ele>
        <time>2013-07-02T11:13:25Z</time>
      </trkpt>
      <trkpt lat="40.261133" lon="-4.906750">
        <ele>1929.0</ele>
        <time>2013-07-02T11:13:26Z</time>
      </trkpt>
      <trkpt lat="40.261167" lon="-4.906800">
        <ele>1932.0</ele>
        <time>2013-07-02T11:13:27Z</time>
      </trkpt>
      <trkpt lat="40.261200" lon="-4.906850">
        <ele>1934.0</ele>
        <time>2013-07-02T11:13:28Z</time>
      </trkpt>
      <trkpt lat="40.261233" lon="-4.906900">
        <ele>1937.0</ele>
        <time>2013-07-02T11:13:29Z</time>
      </trkpt>
      <trkpt lat="40.261250" lon="-4.906950">
        <ele>1939.0</ele>
        <time>2013-07-02T11:13:30Z</time>
      </trkpt>
      <trkpt lat="40.261283" lon="-4.906983">
        <ele>1942.0</ele>
        <time>2013-07-02T11:13:31Z</time>
      </trkpt>
      <trkpt lat="40.261317" lon="-4.907000">
        <ele>1943.0</ele>
        <time>2013-07-02T11:13:32Z</time>
      </trkpt>
      <trkpt lat="40.261367" lon="-4.907017">
        <ele>1943.0</ele>
        <time>2013-07-02T11:13:33Z</time>
      </trkpt>
      <trkpt lat="40.261417" lon="-4.907017">
        <ele>1943.0</ele>
        <time>2013-07-02T11:13:34Z</time>
      </trkpt>
      <trkpt lat="40.261500" lon="-4.907000">
        <ele>1942.0</ele>
        <time>2013-07-02T11:13:35Z</time>
      </trkpt>
      <trkpt lat="40.261583" lon="-4.906950">
        <ele>1940.0</ele>
        <time>2013-07-02T11:13:36Z</time>
      </trkpt>
      <trkpt lat="40.261683" lon="-4.906867">
        <ele>1938.0</ele>
        <time>2013-07-02T11:13:37Z</time>
      </trkpt>
      <trkpt lat="40.261767" lon="-4.906733">
        <ele>1936.0</ele>
        <time>2013-07-02T11:13:38Z</time>
      </trkpt>
      <trkpt lat="40.261833" lon="-4.906567">
        <ele>1935.0</ele>
        <time>2013-07-02T11:13:39Z</time>
      </trkpt>
      <trkpt lat="40.261850" lon="-4.906383">
        <ele>1934.0</ele>
        <time>2013-07-02T11:13:40Z</time>
      </trkpt>
      <trkpt lat="40.261833" lon="-4.906217">
        <ele>1933.0</ele>
        <time>2013-07-02T11:13:41Z</time>
      </trkpt>
      <trkpt lat="40.261800" lon="-4.906083">
        <ele>1933.0</ele>
        <time>2013-07-02T11:13:42Z</time>
      </trkpt>
      <trkpt lat="40.261750" lon="-4.905950">
        <ele>1935.0</ele>
        <time>2013-07-02T11:13:43Z</time>
      </trkpt>
      <trkpt lat="40.261717" lon="-4.905833">
        <ele>1938.0</ele>
        <time>2013-07-02T11:13:44Z</time>
      </trkpt>
      <trkpt lat="40.261700" lon="-4.905717">
        <ele>1941.0</ele>
        <time>2013-07-02T11:13:45Z</time>
      </trkpt>
      <trkpt lat="40.261667" lon="-4.905633">
        <ele>1944.0</ele>
        <time>2013-07-02T11:13:46Z</time>
      </trkpt>
      <trkpt lat="40.261633" lon="-4.905567">
        <ele>1946.0</ele>
        <time>2013-07-02T11:13:47Z</time>
      </trkpt>
      <trkpt lat="40.261583" lon="-4.905517">
        <ele>1947.0</ele>
        <time>2013-07-02T11:13:48Z</time>
      </trkpt>
      <trkpt lat="40.261533" lon="-4.905500">
        <ele>1947.0</ele>
        <time>2013-07-02T11:13:49Z</time>
      </trkpt>
      <trkpt lat="40.261483" lon="-4.905517">
        <ele>1947.0</ele>
        <time>2013-07-02T11:13:50Z</time>
      </trkpt>
      <trkpt lat="40.261467" lon="-4.905567">
        <ele>1948.0</ele>
        <time>2013-07-02T11:13:51Z</time>
      </trkpt>
      <trkpt lat="40.261483" lon="-4.905633">
        <ele>1948.0</ele>
        <time>2013-07-02T11:13:52Z</time>
      </trkpt>
      <trkpt lat="40.261533" lon="-4.905683">
        <ele>1949.0</ele>
        <time>2013-07-02T11:13:53Z</time>
      </trkpt>
      <trkpt lat="40.261600" lon="-4.905717">
        <ele>1950.0</ele>
        <time>2013-07-02T11:13:54Z</time>
      </trkpt>
      <trkpt lat="40.261650" lon="-4.905733">
        <ele>1951.0</ele>
        <time>2013-07-02T11:13:55Z</time>
      </trkpt>
      <trkpt lat="40.261700" lon="-4.905733">
        <ele>1951.0</ele>
        <time>2013-07-02T11:13:56Z</time>
      </trkpt>
      <trkpt lat="40.261783" lon="-4.905733">
        <ele>1950.0</ele>
        <time>2013-07-02T11:13:57Z</time>
      </trkpt>
      <trkpt lat="40.261867" lon="-4.905717">
        <ele>1948.0</ele>
        <time>2013-07-02T11:13:58Z</time>
      </trkpt>
      <trkpt lat="40.261967" lon="-4.905717">
        <ele>1946.0</ele>
        <time>2013-07-02T11:13:59Z</time>
      </trkpt>
      <trkpt lat="40.262083" lon="-4.905717">
        <ele>1947.0</ele>
        <time>2013-07-02T11:14:00Z</time>
      </trkpt>
      <trkpt lat="40.262167" lon="-4.905717">
        <ele>1948.0</ele>
        <time>2013-07-02T11:14:01Z</time>
      </trkpt>
      <trkpt lat="40.262267" lon="-4.905717">
        <ele>1949.0</ele>
        <time>2013-07-02T11:14:02Z</time>
      </trkpt>
      <trkpt lat="40.262350" lon="-4.905683">
        <ele>1949.0</ele>
        <time>2013-07-02T11:14:03Z</time>
      </trkpt>
      <trkpt lat="40.262433" lon="-4.905667">
        <ele>1949.0</ele>
        <time>2013-07-02T11:14:04Z</time>
      </trkpt>
      <trkpt lat="40.262533" lon="-4.905667">
        <ele>1947.0</ele>
        <time>2013-07-02T11:14:05Z</time>
      </trkpt>
      <trkpt lat="40.262617" lon="-4.905683">
        <ele>1946.0</ele>
        <time>2013-07-02T11:14:06Z</time>
      </trkpt>
      <trkpt lat="40.262717" lon="-4.905717">
        <ele>1945.0</ele>
        <time>2013-07-02T11:14:07Z</time>
      </trkpt>
      <trkpt lat="40.262833" lon="-4.905767">
        <ele>1945.0</ele>
        <time>2013-07-02T11:14:08Z</time>
      </trkpt>
      <trkpt lat="40.262950" lon="-4.905800">
        <ele>1947.0</ele>
        <time>2013-07-02T11:14:09Z</time>
      </trkpt>
      <trkpt lat="40.263050" lon="-4.905817">
        <ele>1948.0</ele>
        <time>2013-07-02T11:14:10Z</time>
      </trkpt>
      <trkpt lat="40.263167" lon="-4.905833">
        <ele>1951.0</ele>
        <time>2013-07-02T11:14:11Z</time>
      </trkpt>
      <trkpt lat="40.263250" lon="-4.905867">
        <ele>1953.0</ele>
        <time>2013-07-02T11:14:12Z</time>
      </trkpt>
      <trkpt lat="40.263300" lon="-4.905900">
        <ele>1955.0</ele>
        <time>2013-07-02T11:14:13Z</time>
      </trkpt>
      <trkpt lat="40.263350" lon="-4.905900">
        <ele>1957.0</ele>
        <time>2013-07-02T11:14:14Z</time>
      </trkpt>
      <trkpt lat="40.263400" lon="-4.905900">
        <ele>1956.0</ele>
        <time>2013-07-02T11:14:15Z</time>
      </trkpt>
      <trkpt lat="40.263483" lon="-4.905883">
        <ele>1954.0</ele>
        <time>2013-07-02T11:14:16Z</time>
      </trkpt>
      <trkpt lat="40.263583" lon="-4.905850">
        <ele>1953.0</ele>
        <time>2013-07-02T11:14:17Z</time>
      </trkpt>
      <trkpt lat="40.263683" lon="-4.905800">
        <ele>1952.0</ele>
        <time>2013-07-02T11:14:18Z</time>
      </trkpt>
      <trkpt lat="40.263783" lon="-4.905683">
        <ele>1953.0</ele>
        <time>2013-07-02T11:14:19Z</time>
      </trkpt>
      <trkpt lat="40.263867" lon="-4.905550">
        <ele>1953.0</ele>
        <time>2013-07-02T11:14:20Z</time>
      </trkpt>
      <trkpt lat="40.263917" lon="-4.905400">
        <ele>1953.0</ele>
        <time>2013-07-02T11:14:21Z</time>
      </trkpt>
      <trkpt lat="40.263967" lon="-4.905267">
        <ele>1954.0</ele>
        <time>2013-07-02T11:14:22Z</time>
      </trkpt>
      <trkpt lat="40.264033" lon="-4.905117">
        <ele>1955.0</ele>
        <time>2013-07-02T11:14:23Z</time>
      </trkpt>
      <trkpt lat="40.264083" lon="-4.904983">
        <ele>1954.0</ele>
        <time>2013-07-02T11:14:24Z</time>
      </trkpt>
      <trkpt lat="40.264117" lon="-4.904833">
        <ele>1954.0</ele>
        <time>2013-07-02T11:14:25Z</time>
      </trkpt>
      <trkpt lat="40.264133" lon="-4.904683">
        <ele>1953.0</ele>
        <time>2013-07-02T11:14:26Z</time>
      </trkpt>
      <trkpt lat="40.264133" lon="-4.904533">
        <ele>1954.0</ele>
        <time>2013-07-02T11:14:27Z</time>
      </trkpt>
      <trkpt lat="40.264133" lon="-4.904367">
        <ele>1956.0</ele>
        <time>2013-07-02T11:14:28Z</time>
      </trkpt>
      <trkpt lat="40.264117" lon="-4.904233">
        <ele>1958.0</ele>
        <time>2013-07-02T11:14:29Z</time>
      </trkpt>
      <trkpt lat="40.264117" lon="-4.904117">
        <ele>1960.0</ele>
        <time>2013-07-02T11:14:30Z</time>
      </trkpt>
      <trkpt lat="40.264133" lon="-4.903983">
        <ele>1962.0</ele>
        <time>2013-07-02T11:14:31Z</time>
      </trkpt>
      <trkpt lat="40.264167" lon="-4.903850">
        <ele>1962.0</ele>
        <time>2013-07-02T11:14:32Z</time>
      </trkpt>
      <trkpt lat="40.264167" lon="-4.903733">
        <ele>1962.0</ele>
        <time>2013-07-02T11:14:33Z</time>
      </trkpt>
      <trkpt lat="40.264167" lon="-4.903617">
        <ele>1961.0</ele>
        <time>2013-07-02T11:14:34Z</time>
      </trkpt>
      <trkpt lat="40.264133" lon="-4.903517">
        <ele>1959.0</ele>
        <time>2013-07-02T11:14:35Z</time>
      </trkpt>
      <trkpt lat="40.264100" lon="-4.903450">
        <ele>1959.0</ele>
        <time>2013-07-02T11:14:36Z</time>
      </trkpt>
      <trkpt lat="40.264067" lon="-4.903417">
        <ele>1958.0</ele>
        <time>2013-07-02T11:14:37Z</time>
      </trkpt>
      <trkpt lat="40.264050" lon="-4.903417">
        <ele>1957.0</ele>
        <time>2013-07-02T11:14:38Z</time>
      </trkpt>
      <trkpt lat="40.264050" lon="-4.903450">
        <ele>1957.0</ele>
        <time>2013-07-02T11:14:39Z</time>
      </trkpt>
      <trkpt lat="40.264050" lon="-4.903483">
        <ele>1957.0</ele>
        <time>2013-07-02T11:14:40Z</time>
      </trkpt>
      <trkpt lat="40.264067" lon="-4.903533">
        <ele>1957.0</ele>
        <time>2013-07-02T11:14:41Z</time>
      </trkpt>
      <trkpt lat="40.264117" lon="-4.903583">
        <ele>1956.0</ele>
        <time>2013-07-02T11:14:42Z</time>
      </trkpt>
      <trkpt lat="40.264167" lon="-4.903667">
        <ele>1956.0</ele>
        <time>2013-07-02T11:14:43Z</time>
      </trkpt>
      <trkpt lat="40.264233" lon="-4.903767">
        <ele>1957.0</ele>
        <time>2013-07-02T11:14:44Z</time>
      </trkpt>
      <trkpt lat="40.264317" lon="-4.903850">
        <ele>1959.0</ele>
        <time>2013-07-02T11:14:45Z</time>
      </trkpt>
      <trkpt lat="40.264383" lon="-4.903900">
        <ele>1963.0</ele>
        <time>2013-07-02T11:14:46Z</time>
      </trkpt>
      <trkpt lat="40.264467" lon="-4.903950">
        <ele>1966.0</ele>
        <time>2013-07-02T11:14:47Z</time>
      </trkpt>
      <trkpt lat="40.264533" lon="-4.903983">
        <ele>1968.0</ele>
        <time>2013-07-02T11:14:48Z</time>
      </trkpt>
      <trkpt lat="40.264583" lon="-4.904000">
        <ele>1970.0</ele>
        <time>2013-07-02T11:14:49Z</time>
      </trkpt>
      <trkpt lat="40.264650" lon="-4.904017">
        <ele>1971.0</ele>
        <time>2013-07-02T11:14:50Z</time>
      </trkpt>
      <trkpt lat="40.264717" lon="-4.904017">
        <ele>1972.0</ele>
        <time>2013-07-02T11:14:51Z</time>
      </trkpt>
      <trkpt lat="40.264800" lon="-4.904000">
        <ele>1972.0</ele>
        <time>2013-07-02T11:14:52Z</time>
      </trkpt>
      <trkpt lat="40.264900" lon="-4.903967">
        <ele>1971.0</ele>
        <time>2013-07-02T11:14:53Z</time>
      </trkpt>
      <trkpt lat="40.265017" lon="-4.903917">
        <ele>1971.0</ele>
        <time>2013-07-02T11:14:54Z</time>
      </trkpt>
      <trkpt lat="40.265133" lon="-4.903817">
        <ele>1972.0</ele>
        <time>2013-07-02T11:14:55Z</time>
      </trkpt>
      <trkpt lat="40.265233" lon="-4.903683">
        <ele>1972.0</ele>
        <time>2013-07-02T11:14:56Z</time>
      </trkpt>
      <trkpt lat="40.265300" lon="-4.903533">
        <ele>1972.0</ele>
        <time>2013-07-02T11:14:57Z</time>
      </trkpt>
      <trkpt lat="40.265350" lon="-4.903383">
        <ele>1973.0</ele>
        <time>2013-07-02T11:14:58Z</time>
      </trkpt>
      <trkpt lat="40.265400" lon="-4.903217">
        <ele>1975.0</ele>
        <time>2013-07-02T11:14:59Z</time>
      </trkpt>
      <trkpt lat="40.265467" lon="-4.903100">
        <ele>1977.0</ele>
        <time>2013-07-02T11:15:00Z</time>
      </trkpt>
      <trkpt lat="40.265533" lon="-4.902983">
        <ele>1979.0</ele>
        <time>2013-07-02T11:15:01Z</time>
      </trkpt>
      <trkpt lat="40.265600" lon="-4.902867">
        <ele>1980.0</ele>
        <time>2013-07-02T11:15:02Z</time>
      </trkpt>
      <trkpt lat="40.265667" lon="-4.902700">
        <ele>1980.0</ele>
        <time>2013-07-02T11:15:03Z</time>
      </trkpt>
      <trkpt lat="40.265717" lon="-4.902533">
        <ele>1980.0</ele>
        <time>2013-07-02T11:15:04Z</time>
      </trkpt>
      <trkpt lat="40.265733" lon="-4.902350">
        <ele>1981.0</ele>
        <time>2013-07-02T11:15:05Z</time>
      </trkpt>
      <trkpt lat="40.265750" lon="-4.902200">
        <ele>1982.0</ele>
        <time>2013-07-02T11:15:06Z</time>
      </trkpt>
      <trkpt lat="40.265750" lon="-4.902067">
        <ele>1981.0</ele>
        <time>2013-07-02T11:15:07Z</time>
      </trkpt>
      <trkpt lat="40.265733" lon="-4.901967">
        <ele>1981.0</ele>
        <time>2013-07-02T11:15:08Z</time>
      </trkpt>
      <trkpt lat="40.265700" lon="-4.901883">
        <ele>1979.0</ele>
        <time>2013-07-02T11:15:09Z</time>
      </trkpt>
      <trkpt lat="40.265650" lon="-4.901850">
        <ele>1977.0</ele>
        <time>2013-07-02T11:15:10Z</time>
      </trkpt>
      <trkpt lat="40.265617" lon="-4.901833">
        <ele>1975.0</ele>
        <time>2013-07-02T11:15:11Z</time>
      </trkpt>
      <trkpt lat="40.265600" lon="-4.901867">
        <ele>1974.0</ele>
        <time>2013-07-02T11:15:12Z</time>
      </trkpt>
      <trkpt lat="40.265600" lon="-4.901917">
        <ele>1972.0</ele>
        <time>2013-07-02T11:15:13Z</time>
      </trkpt>
      <trkpt lat="40.265617" lon="-4.902000">
        <ele>1972.0</ele>
        <time>2013-07-02T11:15:14Z</time>
      </trkpt>
      <trkpt lat="40.265650" lon="-4.902083">
        <ele>1973.0</ele>
        <time>2013-07-02T11:15:15Z</time>
      </trkpt>
      <trkpt lat="40.265683" lon="-4.902150">
        <ele>1976.0</ele>
        <time>2013-07-02T11:15:16Z</time>
      </trkpt>
      <trkpt lat="40.265717" lon="-4.902200">
        <ele>1977.0</ele>
        <time>2013-07-02T11:15:17Z</time>
      </trkpt>
      <trkpt lat="40.265767" lon="-4.902250">
        <ele>1979.0</ele>
        <time>2013-07-02T11:15:18Z</time>
      </trkpt>
      <trkpt lat="40.265817" lon="-4.902283">
        <ele>1979.0</ele>
        <time>2013-07-02T11:15:19Z</time>
      </trkpt>
      <trkpt lat="40.265867" lon="-4.902350">
        <ele>1979.0</ele>
        <time>2013-07-02T11:15:20Z</time>
      </trkpt>
      <trkpt lat="40.265933" lon="-4.902417">
        <ele>1980.0</ele>
        <time>2013-07-02T11:15:21Z</time>
      </trkpt>
      <trkpt lat="40.265983" lon="-4.902483">
        <ele>1981.0</ele>
        <time>2013-07-02T11:15:22Z</time>
      </trkpt>
      <trkpt lat="40.266050" lon="-4.902533">
        <ele>1983.0</ele>
        <time>2013-07-02T11:15:23Z</time>
      </trkpt>
      <trkpt lat="40.266083" lon="-4.902567">
        <ele>1983.0</ele>
        <time>2013-07-02T11:15:24Z</time>
      </trkpt>
      <trkpt lat="40.266133" lon="-4.902583">
        <ele>1982.0</ele>
        <time>2013-07-02T11:15:25Z</time>
      </trkpt>
      <trkpt lat="40.266200" lon="-4.902617">
        <ele>1981.0</ele>
        <time>2013-07-02T11:15:26Z</time>
      </trkpt>
      <trkpt lat="40.266250" lon="-4.902683">
        <ele>1979.0</ele>
        <time>2013-07-02T11:15:27Z</time>
      </trkpt>
      <trkpt lat="40.266333" lon="-4.902750">
        <ele>1976.0</ele>
        <time>2013-07-02T11:15:28Z</time>
      </trkpt>
      <trkpt lat="40.266400" lon="-4.902817">
        <ele>1977.0</ele>
        <time>2013-07-02T11:15:29Z</time>
      </trkpt>
      <trkpt lat="40.266467" lon="-4.902867">
        <ele>1977.0</ele>
        <time>2013-07-02T11:15:30Z</time>
      </trkpt>
      <trkpt lat="40.266517" lon="-4.902900">
        <ele>1977.0</ele>
        <time>2013-07-02T11:15:31Z</time>
      </trkpt>
      <trkpt lat="40.266583" lon="-4.902933">
        <ele>1977.0</ele>
        <time>2013-07-02T11:15:32Z</time>
      </trkpt>
      <trkpt lat="40.266633" lon="-4.903000">
        <ele>1975.0</ele>
        <time>2013-07-02T11:15:33Z</time>
      </trkpt>
      <trkpt lat="40.266700" lon="-4.903050">
        <ele>1974.0</ele>
        <time>2013-07-02T11:15:34Z</time>
      </trkpt>
      <trkpt lat="40.266750" lon="-4.903117">
        <ele>1974.0</ele>
        <time>2013-07-02T11:15:35Z</time>
      </trkpt>
      <trkpt lat="40.266800" lon="-4.903167">
        <ele>1974.0</ele>
        <time>2013-07-02T11:15:36Z</time>
      </trkpt>
      <trkpt lat="40.266850" lon="-4.903217">
        <ele>1975.0</ele>
        <time>2013-07-02T11:15:37Z</time>
      </trkpt>
      <trkpt lat="40.266900" lon="-4.903250">
        <ele>1977.0</ele>
        <time>2013-07-02T11:15:38Z</time>
      </trkpt>
      <trkpt lat="40.266950" lon="-4.903300">
        <ele>1979.0</ele>
        <time>2013-07-02T11:15:39Z</time>
      </trkpt>
      <trkpt lat="40.266983" lon="-4.903300">
        <ele>1983.0</ele>
        <time>2013-07-02T11:15:40Z</time>
      </trkpt>
      <trkpt lat="40.267033" lon="-4.903300">
        <ele>1986.0</ele>
        <time>2013-07-02T11:15:41Z</time>
      </trkpt>
      <trkpt lat="40.267050" lon="-4.903283">
        <ele>1988.0</ele>
        <time>2013-07-02T11:15:42Z</time>
      </trkpt>
      <trkpt lat="40.267083" lon="-4.903267">
        <ele>1988.0</ele>
        <time>2013-07-02T11:15:43Z</time>
      </trkpt>
      <trkpt lat="40.267133" lon="-4.903283">
        <ele>1987.0</ele>
        <time>2013-07-02T11:15:44Z</time>
      </trkpt>
      <trkpt lat="40.267183" lon="-4.903300">
        <ele>1987.0</ele>
        <time>2013-07-02T11:15:45Z</time>
      </trkpt>
      <trkpt lat="40.267267" lon="-4.903300">
        <ele>1988.0</ele>
        <time>2013-07-02T11:15:46Z</time>
      </trkpt>
      <trkpt lat="40.267350" lon="-4.903250">
        <ele>1990.0</ele>
        <time>2013-07-02T11:15:47Z</time>
      </trkpt>
      <trkpt lat="40.267450" lon="-4.903150">
        <ele>1991.0</ele>
        <time>2013-07-02T11:15:48Z</time>
      </trkpt>
      <trkpt lat="40.267517" lon="-4.903033">
        <ele>1993.0</ele>
        <time>2013-07-02T11:15:49Z</time>
      </trkpt>
      <trkpt lat="40.267583" lon="-4.902900">
        <ele>1995.0</ele>
        <time>2013-07-02T11:15:50Z</time>
      </trkpt>
      <trkpt lat="40.267617" lon="-4.902750">
        <ele>1996.0</ele>
        <time>2013-07-02T11:15:51Z</time>
      </trkpt>
      <trkpt lat="40.267617" lon="-4.902600">
        <ele>1996.0</ele>
        <time>2013-07-02T11:15:52Z</time>
      </trkpt>
      <trkpt lat="40.267617" lon="-4.902433">
        <ele>1996.0</ele>
        <time>2013-07-02T11:15:53Z</time>
      </trkpt>
      <trkpt lat="40.267583" lon="-4.902267">
        <ele>1998.0</ele>
        <time>2013-07-02T11:15:54Z</time>
      </trkpt>
      <trkpt lat="40.267550" lon="-4.902133">
        <ele>2000.0</ele>
        <time>2013-07-02T11:15:55Z</time>
      </trkpt>
      <trkpt lat="40.267517" lon="-4.902017">
        <ele>2002.0</ele>
        <time>2013-07-02T11:15:56Z</time>
      </trkpt>
      <trkpt lat="40.267467" lon="-4.901950">
        <ele>2003.0</ele>
        <time>2013-07-02T11:15:57Z</time>
      </trkpt>
      <trkpt lat="40.267417" lon="-4.901917">
        <ele>2003.0</ele>
        <time>2013-07-02T11:15:58Z</time>
      </trkpt>
      <trkpt lat="40.267383" lon="-4.901900">
        <ele>2003.0</ele>
        <time>2013-07-02T11:15:59Z</time>
      </trkpt>
      <trkpt lat="40.267350" lon="-4.901917">
        <ele>2003.0</ele>
        <time>2013-07-02T11:16:00Z</time>
      </trkpt>
      <trkpt lat="40.267333" lon="-4.901950">
        <ele>2003.0</ele>
        <time>2013-07-02T11:16:01Z</time>
      </trkpt>
      <trkpt lat="40.267333" lon="-4.902000">
        <ele>2004.0</ele>
        <time>2013-07-02T11:16:02Z</time>
      </trkpt>
      <trkpt lat="40.267350" lon="-4.902067">
        <ele>2006.0</ele>
        <time>2013-07-02T11:16:03Z</time>
      </trkpt>
      <trkpt lat="40.267367" lon="-4.902083">
        <ele>2008.0</ele>
        <time>2013-07-02T11:16:04Z</time>
      </trkpt>
      <trkpt lat="40.267383" lon="-4.902100">
        <ele>2010.0</ele>
        <time>2013-07-02T11:16:05Z</time>
      </trkpt>
      <trkpt lat="40.267400" lon="-4.902100">
        <ele>2011.0</ele>
        <time>2013-07-02T11:16:06Z</time>
      </trkpt>
      <trkpt lat="40.267417" lon="-4.902117">
        <ele>2011.0</ele>
        <time>2013-07-02T11:16:07Z</time>
      </trkpt>
      <trkpt lat="40.267450" lon="-4.902150">
        <ele>2011.0</ele>
        <time>2013-07-02T11:16:08Z</time>
      </trkpt>
      <trkpt lat="40.267500" lon="-4.902183">
        <ele>2011.0</ele>
        <time>2013-07-02T11:16:09Z</time>
      </trkpt>
      <trkpt lat="40.267550" lon="-4.902217">
        <ele>2011.0</ele>
        <time>2013-07-02T11:16:10Z</time>
      </trkpt>
      <trkpt lat="40.267600" lon="-4.902250">
        <ele>2011.0</ele>
        <time>2013-07-02T11:16:11Z</time>
      </trkpt>
      <trkpt lat="40.267667" lon="-4.902300">
        <ele>2012.0</ele>
        <time>2013-07-02T11:16:12Z</time>
      </trkpt>
      <trkpt lat="40.267717" lon="-4.902367">
        <ele>2013.0</ele>
        <time>2013-07-02T11:16:13Z</time>
      </trkpt>
      <trkpt lat="40.267783" lon="-4.902433">
        <ele>2014.0</ele>
        <time>2013-07-02T11:16:14Z</time>
      </trkpt>
      <trkpt lat="40.267850" lon="-4.902500">
        <ele>2015.0</ele>
        <time>2013-07-02T11:16:15Z</time>
      </trkpt>
      <trkpt lat="40.267917" lon="-4.902567">
        <ele>2017.0</ele>
        <time>2013-07-02T11:16:16Z</time>
      </trkpt>
      <trkpt lat="40.267967" lon="-4.902617">
        <ele>2018.0</ele>
        <time>2013-07-02T11:16:17Z</time>
      </trkpt>
      <trkpt lat="40.267983" lon="-4.902667">
        <ele>2020.0</ele>
        <time>2013-07-02T11:16:18Z</time>
      </trkpt>
      <trkpt lat="40.267983" lon="-4.902717">
        <ele>2022.0</ele>
        <time>2013-07-02T11:16:19Z</time>
      </trkpt>
      <trkpt lat="40.267983" lon="-4.902750">
        <ele>2024.0</ele>
        <time>2013-07-02T11:16:20Z</time>
      </trkpt>
      <trkpt lat="40.268000" lon="-4.902783">
        <ele>2026.0</ele>
        <time>2013-07-02T11:16:21Z</time>
      </trkpt>
      <trkpt lat="40.268033" lon="-4.902800">
        <ele>2026.0</ele>
        <time>2013-07-02T11:16:22Z</time>
      </trkpt>
      <trkpt lat="40.268083" lon="-4.902800">
        <ele>2026.0</ele>
        <time>2013-07-02T11:16:23Z</time>
      </trkpt>
      <trkpt lat="40.268117" lon="-4.902817">
        <ele>2027.0</ele>
        <time>2013-07-02T11:16:24Z</time>
      </trkpt>
      <trkpt lat="40.268167" lon="-4.902850">
        <ele>2027.0</ele>
        <time>2013-07-02T11:16:25Z</time>
      </trkpt>
      <trkpt lat="40.268217" lon="-4.902883">
        <ele>2028.0</ele>
        <time>2013-07-02T11:16:26Z</time>
      </trkpt>
      <trkpt lat="40.268283" lon="-4.902900">
        <ele>2029.0</ele>
        <time>2013-07-02T11:16:27Z</time>
      </trkpt>
      <trkpt lat="40.268350" lon="-4.902917">
        <ele>2030.0</ele>
        <time>2013-07-02T11:16:28Z</time>
      </trkpt>
      <trkpt lat="40.268417" lon="-4.902933">
        <ele>2030.0</ele>
        <time>2013-07-02T11:16:29Z</time>
      </trkpt>
      <trkpt lat="40.268483" lon="-4.902967">
        <ele>2030.0</ele>
        <time>2013-07-02T11:16:30Z</time>
      </trkpt>
      <trkpt lat="40.268567" lon="-4.902967">
        <ele>2030.0</ele>
        <time>2013-07-02T11:16:31Z</time>
      </trkpt>
      <trkpt lat="40.268667" lon="-4.902933">
        <ele>2030.0</ele>
        <time>2013-07-02T11:16:32Z</time>
      </trkpt>
      <trkpt lat="40.268783" lon="-4.902850">
        <ele>2031.0</ele>
        <time>2013-07-02T11:16:33Z</time>
      </trkpt>
      <trkpt lat="40.268867" lon="-4.902750">
        <ele>2031.0</ele>
        <time>2013-07-02T11:16:34Z</time>
      </trkpt>
      <trkpt lat="40.268950" lon="-4.902650">
        <ele>2031.0</ele>
        <time>2013-07-02T11:16:35Z</time>
      </trkpt>
      <trkpt lat="40.269033" lon="-4.902550">
        <ele>2031.0</ele>
        <time>2013-07-02T11:16:36Z</time>
      </trkpt>
      <trkpt lat="40.269100" lon="-4.902450">
        <ele>2030.0</ele>
        <time>2013-07-02T11:16:37Z</time>
      </trkpt>
      <trkpt lat="40.269183" lon="-4.902333">
        <ele>2028.0</ele>
        <time>2013-07-02T11:16:38Z</time>
      </trkpt>
      <trkpt lat="40.269267" lon="-4.902167">
        <ele>2025.0</ele>
        <time>2013-07-02T11:16:39Z</time>
      </trkpt>
      <trkpt lat="40.269333" lon="-4.902000">
        <ele>2023.0</ele>
        <time>2013-07-02T11:16:40Z</time>
      </trkpt>
      <trkpt lat="40.269400" lon="-4.901817">
        <ele>2022.0</ele>
        <time>2013-07-02T11:16:41Z</time>
      </trkpt>
      <trkpt lat="40.269450" lon="-4.901633">
        <ele>2021.0</ele>
        <time>2013-07-02T11:16:42Z</time>
      </trkpt>
      <trkpt lat="40.269533" lon="-4.901450">
        <ele>2022.0</ele>
        <time>2013-07-02T11:16:43Z</time>
      </trkpt>
      <trkpt lat="40.269583" lon="-4.901267">
        <ele>2025.0</ele>
        <time>2013-07-02T11:16:44Z</time>
      </trkpt>
      <trkpt lat="40.269633" lon="-4.901083">
        <ele>2028.0</ele>
        <time>2013-07-02T11:16:45Z</time>
      </trkpt>
      <trkpt lat="40.269667" lon="-4.900950">
        <ele>2031.0</ele>
        <time>2013-07-02T11:16:46Z</time>
      </trkpt>
      <trkpt lat="40.269683" lon="-4.900833">
        <ele>2033.0</ele>
        <time>2013-07-02T11:16:47Z</time>
      </trkpt>
      <trkpt lat="40.269700" lon="-4.900683">
        <ele>2035.0</ele>
        <time>2013-07-02T11:16:48Z</time>
      </trkpt>
      <trkpt lat="40.269700" lon="-4.900533">
        <ele>2036.0</ele>
        <time>2013-07-02T11:16:49Z</time>
      </trkpt>
      <trkpt lat="40.269700" lon="-4.900400">
        <ele>2037.0</ele>
        <time>2013-07-02T11:16:50Z</time>
      </trkpt>
      <trkpt lat="40.269667" lon="-4.900283">
        <ele>2038.0</ele>
        <time>2013-07-02T11:16:51Z</time>
      </trkpt>
      <trkpt lat="40.269633" lon="-4.900200">
        <ele>2038.0</ele>
        <time>2013-07-02T11:16:52Z</time>
      </trkpt>
      <trkpt lat="40.269567" lon="-4.900167">
        <ele>2038.0</ele>
        <time>2013-07-02T11:16:53Z</time>
      </trkpt>
      <trkpt lat="40.269517" lon="-4.900150">
        <ele>2039.0</ele>
        <time>2013-07-02T11:16:54Z</time>
      </trkpt>
      <trkpt lat="40.269483" lon="-4.900117">
        <ele>2041.0</ele>
        <time>2013-07-02T11:16:55Z</time>
      </trkpt>
      <trkpt lat="40.269450" lon="-4.900067">
        <ele>2043.0</ele>
        <time>2013-07-02T11:16:56Z</time>
      </trkpt>
      <trkpt lat="40.269417" lon="-4.899983">
        <ele>2043.0</ele>
        <time>2013-07-02T11:16:57Z</time>
      </trkpt>
      <trkpt lat="40.269383" lon="-4.899917">
        <ele>2043.0</ele>
        <time>2013-07-02T11:16:58Z</time>
      </trkpt>
      <trkpt lat="40.269333" lon="-4.899850">
        <ele>2042.0</ele>
        <time>2013-07-02T11:16:59Z</time>
      </trkpt>
      <trkpt lat="40.269283" lon="-4.899800">
        <ele>2041.0</ele>
        <time>2013-07-02T11:17:00Z</time>
      </trkpt>
      <trkpt lat="40.269217" lon="-4.899750">
        <ele>2041.0</ele>
        <time>2013-07-02T11:17:01Z</time>
      </trkpt>
      <trkpt lat="40.269150" lon="-4.899733">
        <ele>2041.0</ele>
        <time>2013-07-02T11:17:02Z</time>
      </trkpt>
      <trkpt lat="40.269083" lon="-4.899717">
        <ele>2042.0</ele>
        <time>2013-07-02T11:17:03Z</time>
      </trkpt>
      <trkpt lat="40.269017" lon="-4.899683">
        <ele>2043.0</ele>
        <time>2013-07-02T11:17:04Z</time>
      </trkpt>
      <trkpt lat="40.268950" lon="-4.899650">
        <ele>2043.0</ele>
        <time>2013-07-02T11:17:05Z</time>
      </trkpt>
      <trkpt lat="40.268900" lon="-4.899650">
        <ele>2045.0</ele>
        <time>2013-07-02T11:17:06Z</time>
      </trkpt>
      <trkpt lat="40.268867" lon="-4.899667">
        <ele>2045.0</ele>
        <time>2013-07-02T11:17:07Z</time>
      </trkpt>
      <trkpt lat="40.268850" lon="-4.899700">
        <ele>2047.0</ele>
        <time>2013-07-02T11:17:08Z</time>
      </trkpt>
      <trkpt lat="40.268850" lon="-4.899750">
        <ele>2048.0</ele>
        <time>2013-07-02T11:17:09Z</time>
      </trkpt>
      <trkpt lat="40.268850" lon="-4.899783">
        <ele>2049.0</ele>
        <time>2013-07-02T11:17:10Z</time>
      </trkpt>
      <trkpt lat="40.268867" lon="-4.899833">
        <ele>2049.0</ele>
        <time>2013-07-02T11:17:11Z</time>
      </trkpt>
      <trkpt lat="40.268883" lon="-4.899883">
        <ele>2049.0</ele>
        <time>2013-07-02T11:17:12Z</time>
      </trkpt>
      <trkpt lat="40.268900" lon="-4.899933">
        <ele>2050.0</ele>
        <time>2013-07-02T11:17:13Z</time>
      </trkpt>
      <trkpt lat="40.268917" lon="-4.899983">
        <ele>2050.0</ele>
        <time>2013-07-02T11:17:14Z</time>
      </trkpt>
      <trkpt lat="40.268950" lon="-4.900033">
        <ele>2050.0</ele>
        <time>2013-07-02T11:17:15Z</time>
      </trkpt>
      <trkpt lat="40.268983" lon="-4.900117">
        <ele>2049.0</ele>
        <time>2013-07-02T11:17:16Z</time>
      </trkpt>
      <trkpt lat="40.269033" lon="-4.900200">
        <ele>2048.0</ele>
        <time>2013-07-02T11:17:17Z</time>
      </trkpt>
      <trkpt lat="40.269083" lon="-4.900283">
        <ele>2050.0</ele>
        <time>2013-07-02T11:17:18Z</time>
      </trkpt>
      <trkpt lat="40.269150" lon="-4.900350">
        <ele>2051.0</ele>
        <time>2013-07-02T11:17:19Z</time>
      </trkpt>
      <trkpt lat="40.269200" lon="-4.900400">
        <ele>2051.0</ele>
        <time>2013-07-02T11:17:20Z</time>
      </trkpt>
      <trkpt lat="40.269267" lon="-4.900450">
        <ele>2051.0</ele>
        <time>2013-07-02T11:17:21Z</time>
      </trkpt>
      <trkpt lat="40.269333" lon="-4.900483">
        <ele>2051.0</ele>
        <time>2013-07-02T11:17:22Z</time>
      </trkpt>
      <trkpt lat="40.269400" lon="-4.900517">
        <ele>2052.0</ele>
        <time>2013-07-02T11:17:23Z</time>
      </trkpt>
      <trkpt lat="40.269467" lon="-4.900517">
        <ele>2052.0</ele>
        <time>2013-07-02T11:17:24Z</time>
      </trkpt>
      <trkpt lat="40.269550" lon="-4.900517">
        <ele>2051.0</ele>
        <time>2013-07-02T11:17:25Z</time>
      </trkpt>
      <trkpt lat="40.269650" lon="-4.900517">
        <ele>2050.0</ele>
        <time>2013-07-02T11:17:26Z</time>
      </trkpt>
      <trkpt lat="40.269750" lon="-4.900483">
        <ele>2049.0</ele>
        <time>2013-07-02T11:17:27Z</time>
      </trkpt>
      <trkpt lat="40.269850" lon="-4.900450">
        <ele>2048.0</ele>
        <time>2013-07-02T11:17:28Z</time>
      </trkpt>
      <trkpt lat="40.269967" lon="-4.900400">
        <ele>2046.0</ele>
        <time>2013-07-02T11:17:29Z</time>
      </trkpt>
      <trkpt lat="40.270083" lon="-4.900333">
        <ele>2045.0</ele>
        <time>2013-07-02T11:17:30Z</time>
      </trkpt>
      <trkpt lat="40.270217" lon="-4.900267">
        <ele>2045.0</ele>
        <time>2013-07-02T11:17:31Z</time>
      </trkpt>
      <trkpt lat="40.270333" lon="-4.900200">
        <ele>2044.0</ele>
        <time>2013-07-02T11:17:32Z</time>
      </trkpt>
      <trkpt lat="40.270450" lon="-4.900117">
        <ele>2045.0</ele>
        <time>2013-07-02T11:17:33Z</time>
      </trkpt>
      <trkpt lat="40.270567" lon="-4.900033">
        <ele>2045.0</ele>
        <time>2013-07-02T11:17:34Z</time>
      </trkpt>
      <trkpt lat="40.270667" lon="-4.899967">
        <ele>2046.0</ele>
        <time>2013-07-02T11:17:35Z</time>
      </trkpt>
      <trkpt lat="40.270767" lon="-4.899883">
        <ele>2047.0</ele>
        <time>2013-07-02T11:17:36Z</time>
      </trkpt>
      <trkpt lat="40.270867" lon="-4.899800">
        <ele>2047.0</ele>
        <time>2013-07-02T11:17:37Z</time>
      </trkpt>
      <trkpt lat="40.270933" lon="-4.899717">
        <ele>2047.0</ele>
        <time>2013-07-02T11:17:38Z</time>
      </trkpt>
      <trkpt lat="40.271000" lon="-4.899617">
        <ele>2045.0</ele>
        <time>2013-07-02T11:17:39Z</time>
      </trkpt>
      <trkpt lat="40.271067" lon="-4.899517">
        <ele>2043.0</ele>
        <time>2013-07-02T11:17:40Z</time>
      </trkpt>
      <trkpt lat="40.271150" lon="-4.899383">
        <ele>2040.0</ele>
        <time>2013-07-02T11:17:41Z</time>
      </trkpt>
      <trkpt lat="40.271233" lon="-4.899267">
        <ele>2039.0</ele>
        <time>2013-07-02T11:17:42Z</time>
      </trkpt>
      <trkpt lat="40.271333" lon="-4.899167">
        <ele>2039.0</ele>
        <time>2013-07-02T11:17:43Z</time>
      </trkpt>
      <trkpt lat="40.271433" lon="-4.899083">
        <ele>2038.0</ele>
        <time>2013-07-02T11:17:44Z</time>
      </trkpt>
      <trkpt lat="40.271550" lon="-4.899033">
        <ele>2037.0</ele>
        <time>2013-07-02T11:17:45Z</time>
      </trkpt>
      <trkpt lat="40.271667" lon="-4.899017">
        <ele>2036.0</ele>
        <time>2013-07-02T11:17:46Z</time>
      </trkpt>
      <trkpt lat="40.271783" lon="-4.899017">
        <ele>2035.0</ele>
        <time>2013-07-02T11:17:47Z</time>
      </trkpt>
      <trkpt lat="40.271900" lon="-4.899033">
        <ele>2034.0</ele>
        <time>2013-07-02T11:17:48Z</time>
      </trkpt>
      <trkpt lat="40.271983" lon="-4.899083">
        <ele>2034.0</ele>
        <time>2013-07-02T11:17:49Z</time>
      </trkpt>
      <trkpt lat="40.272067" lon="-4.899150">
        <ele>2034.0</ele>
        <time>2013-07-02T11:17:50Z</time>
      </trkpt>
      <trkpt lat="40.272133" lon="-4.899200">
        <ele>2033.0</ele>
        <time>2013-07-02T11:17:51Z</time>
      </trkpt>
      <trkpt lat="40.272217" lon="-4.899267">
        <ele>2032.0</ele>
        <time>2013-07-02T11:17:52Z</time>
      </trkpt>
      <trkpt lat="40.272317" lon="-4.899317">
        <ele>2031.0</ele>
        <time>2013-07-02T11:17:53Z</time>
      </trkpt>
      <trkpt lat="40.272400" lon="-4.899367">
        <ele>2031.0</ele>
        <time>2013-07-02T11:17:54Z</time>
      </trkpt>
      <trkpt lat="40.272483" lon="-4.899433">
        <ele>2030.0</ele>
        <time>2013-07-02T11:17:55Z</time>
      </trkpt>
      <trkpt lat="40.272550" lon="-4.899500">
        <ele>2030.0</ele>
        <time>2013-07-02T11:17:56Z</time>
      </trkpt>
      <trkpt lat="40.272633" lon="-4.899567">
        <ele>2030.0</ele>
        <time>2013-07-02T11:17:57Z</time>
      </trkpt>
      <trkpt lat="40.272717" lon="-4.899633">
        <ele>2029.0</ele>
        <time>2013-07-02T11:17:58Z</time>
      </trkpt>
      <trkpt lat="40.272800" lon="-4.899700">
        <ele>2028.0</ele>
        <time>2013-07-02T11:17:59Z</time>
      </trkpt>
      <trkpt lat="40.272867" lon="-4.899783">
        <ele>2028.0</ele>
        <time>2013-07-02T11:18:00Z</time>
      </trkpt>
      <trkpt lat="40.272917" lon="-4.899867">
        <ele>2026.0</ele>
        <time>2013-07-02T11:18:01Z</time>
      </trkpt>
      <trkpt lat="40.272967" lon="-4.899967">
        <ele>2026.0</ele>
        <time>2013-07-02T11:18:02Z</time>
      </trkpt>
      <trkpt lat="40.273017" lon="-4.900050">
        <ele>2026.0</ele>
        <time>2013-07-02T11:18:03Z</time>
      </trkpt>
      <trkpt lat="40.273067" lon="-4.900133">
        <ele>2026.0</ele>
        <time>2013-07-02T11:18:04Z</time>
      </trkpt>
      <trkpt lat="40.273117" lon="-4.900200">
        <ele>2026.0</ele>
        <time>2013-07-02T11:18:05Z</time>
      </trkpt>
      <trkpt lat="40.273167" lon="-4.900267">
        <ele>2025.0</ele>
        <time>2013-07-02T11:18:06Z</time>
      </trkpt>
      <trkpt lat="40.273200" lon="-4.900333">
        <ele>2024.0</ele>
        <time>2013-07-02T11:18:07Z</time>
      </trkpt>
      <trkpt lat="40.273217" lon="-4.900400">
        <ele>2024.0</ele>
        <time>2013-07-02T11:18:08Z</time>
      </trkpt>
      <trkpt lat="40.273250" lon="-4.900483">
        <ele>2023.0</ele>
        <time>2013-07-02T11:18:09Z</time>
      </trkpt>
      <trkpt lat="40.273283" lon="-4.900567">
        <ele>2022.0</ele>
        <time>2013-07-02T11:18:10Z</time>
      </trkpt>
      <trkpt lat="40.273317" lon="-4.900667">
        <ele>2022.0</ele>
        <time>2013-07-02T11:18:11Z</time>
      </trkpt>
      <trkpt lat="40.273350" lon="-4.900750">
        <ele>2022.0</ele>
        <time>2013-07-02T11:18:12Z</time>
      </trkpt>
      <trkpt lat="40.273383" lon="-4.900833">
        <ele>2023.0</ele>
        <time>2013-07-02T11:18:13Z</time>
      </trkpt>
      <trkpt lat="40.273400" lon="-4.900917">
        <ele>2023.0</ele>
        <time>2013-07-02T11:18:14Z</time>
      </trkpt>
      <trkpt lat="40.273417" lon="-4.901000">
        <ele>2022.0</ele>
        <time>2013-07-02T11:18:15Z</time>
      </trkpt>
      <trkpt lat="40.273433" lon="-4.901083">
        <ele>2022.0</ele>
        <time>2013-07-02T11:18:16Z</time>
      </trkpt>
      <trkpt lat="40.273450" lon="-4.901150">
        <ele>2022.0</ele>
        <time>2013-07-02T11:18:17Z</time>
      </trkpt>
      <trkpt lat="40.273450" lon="-4.901233">
        <ele>2022.0</ele>
        <time>2013-07-02T11:18:18Z</time>
      </trkpt>
      <trkpt lat="40.273467" lon="-4.901300">
        <ele>2021.0</ele>
        <time>2013-07-02T11:18:19Z</time>
      </trkpt>
      <trkpt lat="40.273483" lon="-4.901367">
        <ele>2021.0</ele>
        <time>2013-07-02T11:18:20Z</time>
      </trkpt>
      <trkpt lat="40.273483" lon="-4.901450">
        <ele>2020.0</ele>
        <time>2013-07-02T11:18:21Z</time>
      </trkpt>
      <trkpt lat="40.273483" lon="-4.901517">
        <ele>2019.0</ele>
        <time>2013-07-02T11:18:22Z</time>
      </trkpt>
      <trkpt lat="40.273500" lon="-4.901583">
        <ele>2019.0</ele>
        <time>2013-07-02T11:18:23Z</time>
      </trkpt>
      <trkpt lat="40.273517" lon="-4.901650">
        <ele>2018.0</ele>
        <time>2013-07-02T11:18:24Z</time>
      </trkpt>
      <trkpt lat="40.273550" lon="-4.901717">
        <ele>2016.0</ele>
        <time>2013-07-02T11:18:25Z</time>
      </trkpt>
      <trkpt lat="40.273567" lon="-4.901783">
        <ele>2015.0</ele>
        <time>2013-07-02T11:18:26Z</time>
      </trkpt>
      <trkpt lat="40.273567" lon="-4.901867">
        <ele>2014.0</ele>
        <time>2013-07-02T11:18:27Z</time>
      </trkpt>
      <trkpt lat="40.273583" lon="-4.901933">
        <ele>2013.0</ele>
        <time>2013-07-02T11:18:28Z</time>
      </trkpt>
      <trkpt lat="40.273583" lon="-4.902017">
        <ele>2011.0</ele>
        <time>2013-07-02T11:18:29Z</time>
      </trkpt>
      <trkpt lat="40.273617" lon="-4.902117">
        <ele>2010.0</ele>
        <time>2013-07-02T11:18:30Z</time>
      </trkpt>
      <trkpt lat="40.273650" lon="-4.902200">
        <ele>2008.0</ele>
        <time>2013-07-02T11:18:31Z</time>
      </trkpt>
      <trkpt lat="40.273667" lon="-4.902283">
        <ele>2008.0</ele>
        <time>2013-07-02T11:18:32Z</time>
      </trkpt>
      <trkpt lat="40.273667" lon="-4.902350">
        <ele>2008.0</ele>
        <time>2013-07-02T11:18:33Z</time>
      </trkpt>
      <trkpt lat="40.273667" lon="-4.902400">
        <ele>2008.0</ele>
        <time>2013-07-02T11:18:34Z</time>
      </trkpt>
      <trkpt lat="40.273667" lon="-4.902467">
        <ele>2008.0</ele>
        <time>2013-07-02T11:18:35Z</time>
      </trkpt>
      <trkpt lat="40.273667" lon="-4.902517">
        <ele>2007.0</ele>
        <time>2013-07-02T11:18:36Z</time>
      </trkpt>
      <trkpt lat="40.273667" lon="-4.902567">
        <ele>2007.0</ele>
        <time>2013-07-02T11:18:37Z</time>
      </trkpt>
      <trkpt lat="40.273667" lon="-4.902617">
        <ele>2007.0</ele>
        <time>2013-07-02T11:18:38Z</time>
      </trkpt>
      <trkpt lat="40.273667" lon="-4.902683">
        <ele>2007.0</ele>
        <time>2013-07-02T11:18:39Z</time>
      </trkpt>
      <trkpt lat="40.273667" lon="-4.902750">
        <ele>2009.0</ele>
        <time>2013-07-02T11:18:40Z</time>
      </trkpt>
      <trkpt lat="40.273650" lon="-4.902800">
        <ele>2011.0</ele>
        <time>2013-07-02T11:18:41Z</time>
      </trkpt>
      <trkpt lat="40.273650" lon="-4.902817">
        <ele>2013.0</ele>
        <time>2013-07-02T11:18:42Z</time>
      </trkpt>
      <trkpt lat="40.273633" lon="-4.902817">
        <ele>2015.0</ele>
        <time>2013-07-02T11:18:43Z</time>
      </trkpt>
      <trkpt lat="40.273633" lon="-4.902817">
        <ele>2015.0</ele>
        <time>2013-07-02T11:18:44Z</time>
      </trkpt>
      <trkpt lat="40.273633" lon="-4.902817">
        <ele>2015.0</ele>
        <time>2013-07-02T11:18:45Z</time>
      </trkpt>
      <trkpt lat="40.273650" lon="-4.902850">
        <ele>2015.0</ele>
        <time>2013-07-02T11:18:46Z</time>
      </trkpt>
      <trkpt lat="40.273667" lon="-4.902883">
        <ele>2014.0</ele>
        <time>2013-07-02T11:18:47Z</time>
      </trkpt>
      <trkpt lat="40.273700" lon="-4.902900">
        <ele>2014.0</ele>
        <time>2013-07-02T11:18:48Z</time>
      </trkpt>
      <trkpt lat="40.273750" lon="-4.902917">
        <ele>2014.0</ele>
        <time>2013-07-02T11:18:49Z</time>
      </trkpt>
      <trkpt lat="40.273833" lon="-4.902900">
        <ele>2012.0</ele>
        <time>2013-07-02T11:18:50Z</time>
      </trkpt>
      <trkpt lat="40.273933" lon="-4.902833">
        <ele>2010.0</ele>
        <time>2013-07-02T11:18:51Z</time>
      </trkpt>
      <trkpt lat="40.274033" lon="-4.902733">
        <ele>2008.0</ele>
        <time>2013-07-02T11:18:52Z</time>
      </trkpt>
      <trkpt lat="40.274117" lon="-4.902600">
        <ele>2006.0</ele>
        <time>2013-07-02T11:18:53Z</time>
      </trkpt>
      <trkpt lat="40.274183" lon="-4.902450">
        <ele>2005.0</ele>
        <time>2013-07-02T11:18:54Z</time>
      </trkpt>
      <trkpt lat="40.274250" lon="-4.902317">
        <ele>2006.0</ele>
        <time>2013-07-02T11:18:55Z</time>
      </trkpt>
      <trkpt lat="40.274300" lon="-4.902183">
        <ele>2007.0</ele>
        <time>2013-07-02T11:18:56Z</time>
      </trkpt>
      <trkpt lat="40.274350" lon="-4.902050">
        <ele>2007.0</ele>
        <time>2013-07-02T11:18:57Z</time>
      </trkpt>
      <trkpt lat="40.274400" lon="-4.901933">
        <ele>2008.0</ele>
        <time>2013-07-02T11:18:58Z</time>
      </trkpt>
      <trkpt lat="40.274433" lon="-4.901800">
        <ele>2007.0</ele>
        <time>2013-07-02T11:18:59Z</time>
      </trkpt>
      <trkpt lat="40.274450" lon="-4.901650">
        <ele>2006.0</ele>
        <time>2013-07-02T11:19:00Z</time>
      </trkpt>
      <trkpt lat="40.274483" lon="-4.901483">
        <ele>2007.0</ele>
        <time>2013-07-02T11:19:01Z</time>
      </trkpt>
      <trkpt lat="40.274483" lon="-4.901317">
        <ele>2007.0</ele>
        <time>2013-07-02T11:19:02Z</time>
      </trkpt>
      <trkpt lat="40.274483" lon="-4.901183">
        <ele>2008.0</ele>
        <time>2013-07-02T11:19:03Z</time>
      </trkpt>
      <trkpt lat="40.274483" lon="-4.901050">
        <ele>2007.0</ele>
        <time>2013-07-02T11:19:04Z</time>
      </trkpt>
      <trkpt lat="40.274467" lon="-4.900950">
        <ele>2007.0</ele>
        <time>2013-07-02T11:19:05Z</time>
      </trkpt>
      <trkpt lat="40.274433" lon="-4.900833">
        <ele>2005.0</ele>
        <time>2013-07-02T11:19:06Z</time>
      </trkpt>
      <trkpt lat="40.274383" lon="-4.900717">
        <ele>2004.0</ele>
        <time>2013-07-02T11:19:07Z</time>
      </trkpt>
      <trkpt lat="40.274350" lon="-4.900600">
        <ele>2003.0</ele>
        <time>2013-07-02T11:19:08Z</time>
      </trkpt>
      <trkpt lat="40.274300" lon="-4.900500">
        <ele>2002.0</ele>
        <time>2013-07-02T11:19:09Z</time>
      </trkpt>
      <trkpt lat="40.274250" lon="-4.900400">
        <ele>2001.0</ele>
        <time>2013-07-02T11:19:10Z</time>
      </trkpt>
      <trkpt lat="40.274183" lon="-4.900300">
        <ele>1999.0</ele>
        <time>2013-07-02T11:19:11Z</time>
      </trkpt>
      <trkpt lat="40.274117" lon="-4.900200">
        <ele>1998.0</ele>
        <time>2013-07-02T11:19:12Z</time>
      </trkpt>
      <trkpt lat="40.274033" lon="-4.900117">
        <ele>1998.0</ele>
        <time>2013-07-02T11:19:13Z</time>
      </trkpt>
      <trkpt lat="40.273967" lon="-4.900050">
        <ele>1999.0</ele>
        <time>2013-07-02T11:19:14Z</time>
      </trkpt>
      <trkpt lat="40.273883" lon="-4.900000">
        <ele>1999.0</ele>
        <time>2013-07-02T11:19:15Z</time>
      </trkpt>
      <trkpt lat="40.273817" lon="-4.899950">
        <ele>1999.0</ele>
        <time>2013-07-02T11:19:16Z</time>
      </trkpt>
      <trkpt lat="40.273750" lon="-4.899917">
        <ele>1999.0</ele>
        <time>2013-07-02T11:19:17Z</time>
      </trkpt>
      <trkpt lat="40.273700" lon="-4.899867">
        <ele>1999.0</ele>
        <time>2013-07-02T11:19:18Z</time>
      </trkpt>
      <trkpt lat="40.273633" lon="-4.899800">
        <ele>1999.0</ele>
        <time>2013-07-02T11:19:19Z</time>
      </trkpt>
      <trkpt lat="40.273583" lon="-4.899750">
        <ele>1998.0</ele>
        <time>2013-07-02T11:19:20Z</time>
      </trkpt>
      <trkpt lat="40.273517" lon="-4.899717">
        <ele>1998.0</ele>
        <time>2013-07-02T11:19:21Z</time>
      </trkpt>
      <trkpt lat="40.273467" lon="-4.899683">
        <ele>1998.0</ele>
        <time>2013-07-02T11:19:22Z</time>
      </trkpt>
      <trkpt lat="40.273417" lon="-4.899667">
        <ele>1997.0</ele>
        <time>2013-07-02T11:19:23Z</time>
      </trkpt>
      <trkpt lat="40.273367" lon="-4.899667">
        <ele>1997.0</ele>
        <time>2013-07-02T11:19:24Z</time>
      </trkpt>
      <trkpt lat="40.273333" lon="-4.899683">
        <ele>1996.0</ele>
        <time>2013-07-02T11:19:25Z</time>
      </trkpt>
      <trkpt lat="40.273317" lon="-4.899717">
        <ele>1995.0</ele>
        <time>2013-07-02T11:19:26Z</time>
      </trkpt>
      <trkpt lat="40.273300" lon="-4.899767">
        <ele>1994.0</ele>
        <time>2013-07-02T11:19:27Z</time>
      </trkpt>
      <trkpt lat="40.273283" lon="-4.899817">
        <ele>1993.0</ele>
        <time>2013-07-02T11:19:28Z</time>
      </trkpt>
      <trkpt lat="40.273267" lon="-4.899900">
        <ele>1992.0</ele>
        <time>2013-07-02T11:19:29Z</time>
      </trkpt>
      <trkpt lat="40.273267" lon="-4.900000">
        <ele>1991.0</ele>
        <time>2013-07-02T11:19:30Z</time>
      </trkpt>
      <trkpt lat="40.273283" lon="-4.900083">
        <ele>1990.0</ele>
        <time>2013-07-02T11:19:31Z</time>
      </trkpt>
      <trkpt lat="40.273283" lon="-4.900150">
        <ele>1991.0</ele>
        <time>2013-07-02T11:19:32Z</time>
      </trkpt>
      <trkpt lat="40.273283" lon="-4.900183">
        <ele>1991.0</ele>
        <time>2013-07-02T11:19:33Z</time>
      </trkpt>
      <trkpt lat="40.273283" lon="-4.900233">
        <ele>1991.0</ele>
        <time>2013-07-02T11:19:34Z</time>
      </trkpt>
      <trkpt lat="40.273300" lon="-4.900283">
        <ele>1989.0</ele>
        <time>2013-07-02T11:19:35Z</time>
      </trkpt>
      <trkpt lat="40.273300" lon="-4.900350">
        <ele>1985.0</ele>
        <time>2013-07-02T11:19:36Z</time>
      </trkpt>
      <trkpt lat="40.273317" lon="-4.900433">
        <ele>1982.0</ele>
        <time>2013-07-02T11:19:37Z</time>
      </trkpt>
      <trkpt lat="40.273350" lon="-4.900533">
        <ele>1980.0</ele>
        <time>2013-07-02T11:19:38Z</time>
      </trkpt>
      <trkpt lat="40.273367" lon="-4.900617">
        <ele>1978.0</ele>
        <time>2013-07-02T11:19:39Z</time>
      </trkpt>
      <trkpt lat="40.273383" lon="-4.900683">
        <ele>1977.0</ele>
        <time>2013-07-02T11:19:40Z</time>
      </trkpt>
      <trkpt lat="40.273417" lon="-4.900750">
        <ele>1976.0</ele>
        <time>2013-07-02T11:19:41Z</time>
      </trkpt>
      <trkpt lat="40.273433" lon="-4.900800">
        <ele>1976.0</ele>
        <time>2013-07-02T11:19:42Z</time>
      </trkpt>
      <trkpt lat="40.273450" lon="-4.900867">
        <ele>1977.0</ele>
        <time>2013-07-02T11:19:43Z</time>
      </trkpt>
      <trkpt lat="40.273467" lon="-4.900917">
        <ele>1977.0</ele>
        <time>2013-07-02T11:19:44Z</time>
      </trkpt>
      <trkpt lat="40.273483" lon="-4.900950">
        <ele>1977.0</ele>
        <time>2013-07-02T11:19:45Z</time>
      </trkpt>
      <trkpt lat="40.273500" lon="-4.900983">
        <ele>1977.0</ele>
        <time>2013-07-02T11:19:46Z</time>
      </trkpt>
      <trkpt lat="40.273517" lon="-4.901017">
        <ele>1976.0</ele>
        <time>2013-07-02T11:19:47Z</time>
      </trkpt>
      <trkpt lat="40.273533" lon="-4.901067">
        <ele>1976.0</ele>
        <time>2013-07-02T11:19:48Z</time>
      </trkpt>
      <trkpt lat="40.273550" lon="-4.901117">
        <ele>1977.0</ele>
        <time>2013-07-02T11:19:49Z</time>
      </trkpt>
      <trkpt lat="40.273550" lon="-4.901167">
        <ele>1977.0</ele>
        <time>2013-07-02T11:19:50Z</time>
      </trkpt>
      <trkpt lat="40.273550" lon="-4.901217">
        <ele>1979.0</ele>
        <time>2013-07-02T11:19:51Z</time>
      </trkpt>
      <trkpt lat="40.273550" lon="-4.901267">
        <ele>1980.0</ele>
        <time>2013-07-02T11:19:52Z</time>
      </trkpt>
      <trkpt lat="40.273533" lon="-4.901317">
        <ele>1982.0</ele>
        <time>2013-07-02T11:19:53Z</time>
      </trkpt>
      <trkpt lat="40.273533" lon="-4.901333">
        <ele>1982.0</ele>
        <time>2013-07-02T11:19:54Z</time>
      </trkpt>
      <trkpt lat="40.273533" lon="-4.901350">
        <ele>1981.0</ele>
        <time>2013-07-02T11:19:55Z</time>
      </trkpt>
      <trkpt lat="40.273550" lon="-4.901367">
        <ele>1979.0</ele>
        <time>2013-07-02T11:19:56Z</time>
      </trkpt>
      <trkpt lat="40.273583" lon="-4.901400">
        <ele>1977.0</ele>
        <time>2013-07-02T11:19:57Z</time>
      </trkpt>
      <trkpt lat="40.273617" lon="-4.901467">
        <ele>1976.0</ele>
        <time>2013-07-02T11:19:58Z</time>
      </trkpt>
      <trkpt lat="40.273633" lon="-4.901550">
        <ele>1976.0</ele>
        <time>2013-07-02T11:19:59Z</time>
      </trkpt>
      <trkpt lat="40.273650" lon="-4.901617">
        <ele>1977.0</ele>
        <time>2013-07-02T11:20:00Z</time>
      </trkpt>
      <trkpt lat="40.273667" lon="-4.901683">
        <ele>1979.0</ele>
        <time>2013-07-02T11:20:01Z</time>
      </trkpt>
      <trkpt lat="40.273667" lon="-4.901733">
        <ele>1982.0</ele>
        <time>2013-07-02T11:20:02Z</time>
      </trkpt>
      <trkpt lat="40.273683" lon="-4.901750">
        <ele>1984.0</ele>
        <time>2013-07-02T11:20:03Z</time>
      </trkpt>
      <trkpt lat="40.273683" lon="-4.901767">
        <ele>1986.0</ele>
        <time>2013-07-02T11:20:04Z</time>
      </trkpt>
      <trkpt lat="40.273683" lon="-4.901767">
        <ele>1988.0</ele>
        <time>2013-07-02T11:20:05Z</time>
      </trkpt>
      <trkpt lat="40.273683" lon="-4.901783">
        <ele>1989.0</ele>
        <time>2013-07-02T11:20:06Z</time>
      </trkpt>
      <trkpt lat="40.273683" lon="-4.901800">
        <ele>1990.0</ele>
        <time>2013-07-02T11:20:07Z</time>
      </trkpt>
      <trkpt lat="40.273700" lon="-4.901833">
        <ele>1991.0</ele>
        <time>2013-07-02T11:20:08Z</time>
      </trkpt>
      <trkpt lat="40.273750" lon="-4.901850">
        <ele>1993.0</ele>
        <time>2013-07-02T11:20:09Z</time>
      </trkpt>
      <trkpt lat="40.273833" lon="-4.901850">
        <ele>1994.0</ele>
        <time>2013-07-02T11:20:10Z</time>
      </trkpt>
      <trkpt lat="40.273933" lon="-4.901817">
        <ele>1995.0</ele>
        <time>2013-07-02T11:20:11Z</time>
      </trkpt>
      <trkpt lat="40.274033" lon="-4.901733">
        <ele>1996.0</ele>
        <time>2013-07-02T11:20:12Z</time>
      </trkpt>
      <trkpt lat="40.274117" lon="-4.901633">
        <ele>1998.0</ele>
        <time>2013-07-02T11:20:13Z</time>
      </trkpt>
      <trkpt lat="40.274183" lon="-4.901483">
        <ele>1999.0</ele>
        <time>2013-07-02T11:20:14Z</time>
      </trkpt>
      <trkpt lat="40.274217" lon="-4.901317">
        <ele>2000.0</ele>
        <time>2013-07-02T11:20:15Z</time>
      </trkpt>
      <trkpt lat="40.274233" lon="-4.901167">
        <ele>2000.0</ele>
        <time>2013-07-02T11:20:16Z</time>
      </trkpt>
      <trkpt lat="40.274233" lon="-4.901033">
        <ele>2001.0</ele>
        <time>2013-07-02T11:20:17Z</time>
      </trkpt>
      <trkpt lat="40.274217" lon="-4.900917">
        <ele>2001.0</ele>
        <time>2013-07-02T11:20:18Z</time>
      </trkpt>
      <trkpt lat="40.274183" lon="-4.900783">
        <ele>2000.0</ele>
        <time>2013-07-02T11:20:19Z</time>
      </trkpt>
      <trkpt lat="40.274167" lon="-4.900633">
        <ele>1999.0</ele>
        <time>2013-07-02T11:20:20Z</time>
      </trkpt>
      <trkpt lat="40.274133" lon="-4.900500">
        <ele>1999.0</ele>
        <time>2013-07-02T11:20:21Z</time>
      </trkpt>
      <trkpt lat="40.274083" lon="-4.900367">
        <ele>2000.0</ele>
        <time>2013-07-02T11:20:22Z</time>
      </trkpt>
      <trkpt lat="40.274033" lon="-4.900217">
        <ele>2000.0</ele>
        <time>2013-07-02T11:20:23Z</time>
      </trkpt>
      <trkpt lat="40.274000" lon="-4.900067">
        <ele>2001.0</ele>
        <time>2013-07-02T11:20:24Z</time>
      </trkpt>
      <trkpt lat="40.273950" lon="-4.899917">
        <ele>2002.0</ele>
        <time>2013-07-02T11:20:25Z</time>
      </trkpt>
      <trkpt lat="40.273883" lon="-4.899800">
        <ele>2002.0</ele>
        <time>2013-07-02T11:20:26Z</time>
      </trkpt>
      <trkpt lat="40.273817" lon="-4.899717">
        <ele>2002.0</ele>
        <time>2013-07-02T11:20:27Z</time>
      </trkpt>
      <trkpt lat="40.273733" lon="-4.899683">
        <ele>2001.0</ele>
        <time>2013-07-02T11:20:28Z</time>
      </trkpt>
      <trkpt lat="40.273667" lon="-4.899667">
        <ele>1998.0</ele>
        <time>2013-07-02T11:20:29Z</time>
      </trkpt>
      <trkpt lat="40.273600" lon="-4.899683">
        <ele>1996.0</ele>
        <time>2013-07-02T11:20:30Z</time>
      </trkpt>
      <trkpt lat="40.273567" lon="-4.899717">
        <ele>1993.0</ele>
        <time>2013-07-02T11:20:31Z</time>
      </trkpt>
      <trkpt lat="40.273550" lon="-4.899767">
        <ele>1991.0</ele>
        <time>2013-07-02T11:20:32Z</time>
      </trkpt>
      <trkpt lat="40.273550" lon="-4.899833">
        <ele>1988.0</ele>
        <time>2013-07-02T11:20:33Z</time>
      </trkpt>
      <trkpt lat="40.273550" lon="-4.899883">
        <ele>1985.0</ele>
        <time>2013-07-02T11:20:34Z</time>
      </trkpt>
      <trkpt lat="40.273550" lon="-4.899950">
        <ele>1985.0</ele>
        <time>2013-07-02T11:20:35Z</time>
      </trkpt>
      <trkpt lat="40.273550" lon="-4.900017">
        <ele>1983.0</ele>
        <time>2013-07-02T11:20:36Z</time>
      </trkpt>
      <trkpt lat="40.273550" lon="-4.900083">
        <ele>1980.0</ele>
        <time>2013-07-02T11:20:37Z</time>
      </trkpt>
      <trkpt lat="40.273550" lon="-4.900167">
        <ele>1978.0</ele>
        <time>2013-07-02T11:20:38Z</time>
      </trkpt>
      <trkpt lat="40.273550" lon="-4.900267">
        <ele>1977.0</ele>
        <time>2013-07-02T11:20:39Z</time>
      </trkpt>
      <trkpt lat="40.273567" lon="-4.900350">
        <ele>1977.0</ele>
        <time>2013-07-02T11:20:40Z</time>
      </trkpt>
      <trkpt lat="40.273600" lon="-4.900400">
        <ele>1977.0</ele>
        <time>2013-07-02T11:20:41Z</time>
      </trkpt>
      <trkpt lat="40.273617" lon="-4.900433">
        <ele>1977.0</ele>
        <time>2013-07-02T11:20:42Z</time>
      </trkpt>
      <trkpt lat="40.273633" lon="-4.900483">
        <ele>1976.0</ele>
        <time>2013-07-02T11:20:43Z</time>
      </trkpt>
      <trkpt lat="40.273650" lon="-4.900550">
        <ele>1974.0</ele>
        <time>2013-07-02T11:20:44Z</time>
      </trkpt>
      <trkpt lat="40.273683" lon="-4.900617">
        <ele>1972.0</ele>
        <time>2013-07-02T11:20:45Z</time>
      </trkpt>
      <trkpt lat="40.273700" lon="-4.900683">
        <ele>1971.0</ele>
        <time>2013-07-02T11:20:46Z</time>
      </trkpt>
      <trkpt lat="40.273717" lon="-4.900767">
        <ele>1970.0</ele>
        <time>2013-07-02T11:20:47Z</time>
      </trkpt>
      <trkpt lat="40.273733" lon="-4.900833">
        <ele>1970.0</ele>
        <time>2013-07-02T11:20:48Z</time>
      </trkpt>
      <trkpt lat="40.273750" lon="-4.900883">
        <ele>1970.0</ele>
        <time>2013-07-02T11:20:49Z</time>
      </trkpt>
      <trkpt lat="40.273767" lon="-4.900933">
        <ele>1970.0</ele>
        <time>2013-07-02T11:20:50Z</time>
      </trkpt>
      <trkpt lat="40.273800" lon="-4.900967">
        <ele>1971.0</ele>
        <time>2013-07-02T11:20:51Z</time>
      </trkpt>
      <trkpt lat="40.273817" lon="-4.901033">
        <ele>1972.0</ele>
        <time>2013-07-02T11:20:52Z</time>
      </trkpt>
      <trkpt lat="40.273833" lon="-4.901083">
        <ele>1974.0</ele>
        <time>2013-07-02T11:20:53Z</time>
      </trkpt>
      <trkpt lat="40.273833" lon="-4.901117">
        <ele>1975.0</ele>
        <time>2013-07-02T11:20:54Z</time>
      </trkpt>
      <trkpt lat="40.273867" lon="-4.901133">
        <ele>1976.0</ele>
        <time>2013-07-02T11:20:55Z</time>
      </trkpt>
      <trkpt lat="40.273883" lon="-4.901167">
        <ele>1977.0</ele>
        <time>2013-07-02T11:20:56Z</time>
      </trkpt>
      <trkpt lat="40.273900" lon="-4.901200">
        <ele>1977.0</ele>
        <time>2013-07-02T11:20:57Z</time>
      </trkpt>
      <trkpt lat="40.273883" lon="-4.901233">
        <ele>1977.0</ele>
        <time>2013-07-02T11:20:58Z</time>
      </trkpt>
      <trkpt lat="40.273883" lon="-4.901283">
        <ele>1976.0</ele>
        <time>2013-07-02T11:20:59Z</time>
      </trkpt>
      <trkpt lat="40.273867" lon="-4.901317">
        <ele>1975.0</ele>
        <time>2013-07-02T11:21:00Z</time>
      </trkpt>
      <trkpt lat="40.273883" lon="-4.901367">
        <ele>1975.0</ele>
        <time>2013-07-02T11:21:01Z</time>
      </trkpt>
      <trkpt lat="40.273900" lon="-4.901400">
        <ele>1976.0</ele>
        <time>2013-07-02T11:21:02Z</time>
      </trkpt>
      <trkpt lat="40.273933" lon="-4.901417">
        <ele>1977.0</ele>
        <time>2013-07-02T11:21:03Z</time>
      </trkpt>
      <trkpt lat="40.273967" lon="-4.901450">
        <ele>1977.0</ele>
        <time>2013-07-02T11:21:04Z</time>
      </trkpt>
      <trkpt lat="40.274000" lon="-4.901467">
        <ele>1977.0</ele>
        <time>2013-07-02T11:21:05Z</time>
      </trkpt>
      <trkpt lat="40.274017" lon="-4.901500">
        <ele>1976.0</ele>
        <time>2013-07-02T11:21:06Z</time>
      </trkpt>
      <trkpt lat="40.274033" lon="-4.901533">
        <ele>1976.0</ele>
        <time>2013-07-02T11:21:07Z</time>
      </trkpt>
      <trkpt lat="40.274033" lon="-4.901567">
        <ele>1976.0</ele>
        <time>2013-07-02T11:21:08Z</time>
      </trkpt>
      <trkpt lat="40.274050" lon="-4.901600">
        <ele>1976.0</ele>
        <time>2013-07-02T11:21:09Z</time>
      </trkpt>
      <trkpt lat="40.274067" lon="-4.901667">
        <ele>1975.0</ele>
        <time>2013-07-02T11:21:10Z</time>
      </trkpt>
      <trkpt lat="40.274083" lon="-4.901717">
        <ele>1974.0</ele>
        <time>2013-07-02T11:21:11Z</time>
      </trkpt>
      <trkpt lat="40.274083" lon="-4.901767">
        <ele>1974.0</ele>
        <time>2013-07-02T11:21:12Z</time>
      </trkpt>
      <trkpt lat="40.274100" lon="-4.901817">
        <ele>1973.0</ele>
        <time>2013-07-02T11:21:13Z</time>
      </trkpt>
      <trkpt lat="40.274117" lon="-4.901867">
        <ele>1972.0</ele>
        <time>2013-07-02T11:21:14Z</time>
      </trkpt>
      <trkpt lat="40.274150" lon="-4.901933">
        <ele>1969.0</ele>
        <time>2013-07-02T11:21:15Z</time>
      </trkpt>
      <trkpt lat="40.274183" lon="-4.902000">
        <ele>1966.0</ele>
        <time>2013-07-02T11:21:16Z</time>
      </trkpt>
      <trkpt lat="40.274217" lon="-4.902050">
        <ele>1964.0</ele>
        <time>2013-07-02T11:21:17Z</time>
      </trkpt>
      <trkpt lat="40.274217" lon="-4.902117">
        <ele>1961.0</ele>
        <time>2013-07-02T11:21:18Z</time>
      </trkpt>
      <trkpt lat="40.274217" lon="-4.902167">
        <ele>1957.0</ele>
        <time>2013-07-02T11:21:19Z</time>
      </trkpt>
      <trkpt lat="40.274217" lon="-4.902217">
        <ele>1954.0</ele>
        <time>2013-07-02T11:21:20Z</time>
      </trkpt>
      <trkpt lat="40.274233" lon="-4.902300">
        <ele>1950.0</ele>
        <time>2013-07-02T11:21:21Z</time>
      </trkpt>
      <trkpt lat="40.274250" lon="-4.902400">
        <ele>1948.0</ele>
        <time>2013-07-02T11:21:22Z</time>
      </trkpt>
      <trkpt lat="40.274267" lon="-4.902500">
        <ele>1947.0</ele>
        <time>2013-07-02T11:21:23Z</time>
      </trkpt>
      <trkpt lat="40.274267" lon="-4.902583">
        <ele>1948.0</ele>
        <time>2013-07-02T11:21:24Z</time>
      </trkpt>
      <trkpt lat="40.274283" lon="-4.902650">
        <ele>1949.0</ele>
        <time>2013-07-02T11:21:25Z</time>
      </trkpt>
      <trkpt lat="40.274283" lon="-4.902700">
        <ele>1948.0</ele>
        <time>2013-07-02T11:21:26Z</time>
      </trkpt>
      <trkpt lat="40.274300" lon="-4.902767">
        <ele>1947.0</ele>
        <time>2013-07-02T11:21:27Z</time>
      </trkpt>
      <trkpt lat="40.274300" lon="-4.902850">
        <ele>1944.0</ele>
        <time>2013-07-02T11:21:28Z</time>
      </trkpt>
      <trkpt lat="40.274267" lon="-4.902967">
        <ele>1941.0</ele>
        <time>2013-07-02T11:21:29Z</time>
      </trkpt>
      <trkpt lat="40.274250" lon="-4.903067">
        <ele>1940.0</ele>
        <time>2013-07-02T11:21:30Z</time>
      </trkpt>
      <trkpt lat="40.274233" lon="-4.903167">
        <ele>1942.0</ele>
        <time>2013-07-02T11:21:31Z</time>
      </trkpt>
      <trkpt lat="40.274233" lon="-4.903233">
        <ele>1943.0</ele>
        <time>2013-07-02T11:21:32Z</time>
      </trkpt>
      <trkpt lat="40.274250" lon="-4.903283">
        <ele>1943.0</ele>
        <time>2013-07-02T11:21:33Z</time>
      </trkpt>
      <trkpt lat="40.274267" lon="-4.903317">
        <ele>1943.0</ele>
        <time>2013-07-02T11:21:34Z</time>
      </trkpt>
      <trkpt lat="40.274267" lon="-4.903367">
        <ele>1943.0</ele>
        <time>2013-07-02T11:21:35Z</time>
      </trkpt>
      <trkpt lat="40.274267" lon="-4.903417">
        <ele>1943.0</ele>
        <time>2013-07-02T11:21:36Z</time>
      </trkpt>
      <trkpt lat="40.274267" lon="-4.903500">
        <ele>1942.0</ele>
        <time>2013-07-02T11:21:37Z</time>
      </trkpt>
      <trkpt lat="40.274267" lon="-4.903583">
        <ele>1941.0</ele>
        <time>2013-07-02T11:21:38Z</time>
      </trkpt>
      <trkpt lat="40.274250" lon="-4.903683">
        <ele>1940.0</ele>
        <time>2013-07-02T11:21:39Z</time>
      </trkpt>
      <trkpt lat="40.274250" lon="-4.903750">
        <ele>1939.0</ele>
        <time>2013-07-02T11:21:40Z</time>
      </trkpt>
      <trkpt lat="40.274233" lon="-4.903817">
        <ele>1937.0</ele>
        <time>2013-07-02T11:21:41Z</time>
      </trkpt>
      <trkpt lat="40.274233" lon="-4.903883">
        <ele>1934.0</ele>
        <time>2013-07-02T11:21:42Z</time>
      </trkpt>
      <trkpt lat="40.274217" lon="-4.903967">
        <ele>1931.0</ele>
        <time>2013-07-02T11:21:43Z</time>
      </trkpt>
      <trkpt lat="40.274217" lon="-4.904067">
        <ele>1930.0</ele>
        <time>2013-07-02T11:21:44Z</time>
      </trkpt>
      <trkpt lat="40.274217" lon="-4.904167">
        <ele>1928.0</ele>
        <time>2013-07-02T11:21:45Z</time>
      </trkpt>
      <trkpt lat="40.274217" lon="-4.904250">
        <ele>1926.0</ele>
        <time>2013-07-02T11:21:46Z</time>
      </trkpt>
      <trkpt lat="40.274217" lon="-4.904333">
        <ele>1924.0</ele>
        <time>2013-07-02T11:21:47Z</time>
      </trkpt>
      <trkpt lat="40.274217" lon="-4.904417">
        <ele>1922.0</ele>
        <time>2013-07-02T11:21:48Z</time>
      </trkpt>
      <trkpt lat="40.274200" lon="-4.904500">
        <ele>1919.0</ele>
        <time>2013-07-02T11:21:49Z</time>
      </trkpt>
      <trkpt lat="40.274200" lon="-4.904583">
        <ele>1918.0</ele>
        <time>2013-07-02T11:21:50Z</time>
      </trkpt>
      <trkpt lat="40.274217" lon="-4.904667">
        <ele>1917.0</ele>
        <time>2013-07-02T11:21:51Z</time>
      </trkpt>
      <trkpt lat="40.274217" lon="-4.904750">
        <ele>1917.0</ele>
        <time>2013-07-02T11:21:52Z</time>
      </trkpt>
      <trkpt lat="40.274233" lon="-4.904817">
        <ele>1917.0</ele>
        <time>2013-07-02T11:21:53Z</time>
      </trkpt>
      <trkpt lat="40.274233" lon="-4.904883">
        <ele>1916.0</ele>
        <time>2013-07-02T11:21:54Z</time>
      </trkpt>
      <trkpt lat="40.274250" lon="-4.904983">
        <ele>1915.0</ele>
        <time>2013-07-02T11:21:55Z</time>
      </trkpt>
      <trkpt lat="40.274267" lon="-4.905067">
        <ele>1915.0</ele>
        <time>2013-07-02T11:21:56Z</time>
      </trkpt>
      <trkpt lat="40.274283" lon="-4.905150">
        <ele>1915.0</ele>
        <time>2013-07-02T11:21:57Z</time>
      </trkpt>
      <trkpt lat="40.274300" lon="-4.905233">
        <ele>1916.0</ele>
        <time>2013-07-02T11:21:58Z</time>
      </trkpt>
      <trkpt lat="40.274317" lon="-4.905317">
        <ele>1918.0</ele>
        <time>2013-07-02T11:21:59Z</time>
      </trkpt>
      <trkpt lat="40.274333" lon="-4.905367">
        <ele>1919.0</ele>
        <time>2013-07-02T11:22:00Z</time>
      </trkpt>
      <trkpt lat="40.274333" lon="-4.905433">
        <ele>1920.0</ele>
        <time>2013-07-02T11:22:01Z</time>
      </trkpt>
      <trkpt lat="40.274350" lon="-4.905517">
        <ele>1919.0</ele>
        <time>2013-07-02T11:22:02Z</time>
      </trkpt>
      <trkpt lat="40.274367" lon="-4.905600">
        <ele>1919.0</ele>
        <time>2013-07-02T11:22:03Z</time>
      </trkpt>
      <trkpt lat="40.274383" lon="-4.905683">
        <ele>1920.0</ele>
        <time>2013-07-02T11:22:04Z</time>
      </trkpt>
      <trkpt lat="40.274400" lon="-4.905767">
        <ele>1922.0</ele>
        <time>2013-07-02T11:22:05Z</time>
      </trkpt>
      <trkpt lat="40.274417" lon="-4.905817">
        <ele>1924.0</ele>
        <time>2013-07-02T11:22:06Z</time>
      </trkpt>
      <trkpt lat="40.274417" lon="-4.905883">
        <ele>1924.0</ele>
        <time>2013-07-02T11:22:07Z</time>
      </trkpt>
      <trkpt lat="40.274433" lon="-4.905950">
        <ele>1925.0</ele>
        <time>2013-07-02T11:22:08Z</time>
      </trkpt>
      <trkpt lat="40.274433" lon="-4.906017">
        <ele>1926.0</ele>
        <time>2013-07-02T11:22:09Z</time>
      </trkpt>
      <trkpt lat="40.274450" lon="-4.906083">
        <ele>1928.0</ele>
        <time>2013-07-02T11:22:10Z</time>
      </trkpt>
      <trkpt lat="40.274467" lon="-4.906133">
        <ele>1929.0</ele>
        <time>2013-07-02T11:22:11Z</time>
      </trkpt>
      <trkpt lat="40.274467" lon="-4.906200">
        <ele>1929.0</ele>
        <time>2013-07-02T11:22:12Z</time>
      </trkpt>
      <trkpt lat="40.274483" lon="-4.906250">
        <ele>1929.0</ele>
        <time>2013-07-02T11:22:13Z</time>
      </trkpt>
      <trkpt lat="40.274500" lon="-4.906333">
        <ele>1928.0</ele>
        <time>2013-07-02T11:22:14Z</time>
      </trkpt>
      <trkpt lat="40.274517" lon="-4.906417">
        <ele>1926.0</ele>
        <time>2013-07-02T11:22:15Z</time>
      </trkpt>
      <trkpt lat="40.274517" lon="-4.906533">
        <ele>1925.0</ele>
        <time>2013-07-02T11:22:16Z</time>
      </trkpt>
      <trkpt lat="40.274533" lon="-4.906633">
        <ele>1925.0</ele>
        <time>2013-07-02T11:22:17Z</time>
      </trkpt>
      <trkpt lat="40.274550" lon="-4.906750">
        <ele>1925.0</ele>
        <time>2013-07-02T11:22:18Z</time>
      </trkpt>
      <trkpt lat="40.274567" lon="-4.906850">
        <ele>1927.0</ele>
        <time>2013-07-02T11:22:19Z</time>
      </trkpt>
      <trkpt lat="40.274567" lon="-4.906950">
        <ele>1928.0</ele>
        <time>2013-07-02T11:22:20Z</time>
      </trkpt>
      <trkpt lat="40.274583" lon="-4.907033">
        <ele>1928.0</ele>
        <time>2013-07-02T11:22:21Z</time>
      </trkpt>
      <trkpt lat="40.274583" lon="-4.907133">
        <ele>1928.0</ele>
        <time>2013-07-02T11:22:22Z</time>
      </trkpt>
      <trkpt lat="40.274583" lon="-4.907217">
        <ele>1927.0</ele>
        <time>2013-07-02T11:22:23Z</time>
      </trkpt>
      <trkpt lat="40.274583" lon="-4.907317">
        <ele>1927.0</ele>
        <time>2013-07-02T11:22:24Z</time>
      </trkpt>
      <trkpt lat="40.274583" lon="-4.907400">
        <ele>1926.0</ele>
        <time>2013-07-02T11:22:25Z</time>
      </trkpt>
      <trkpt lat="40.274583" lon="-4.907500">
        <ele>1926.0</ele>
        <time>2013-07-02T11:22:26Z</time>
      </trkpt>
      <trkpt lat="40.274583" lon="-4.907583">
        <ele>1925.0</ele>
        <time>2013-07-02T11:22:27Z</time>
      </trkpt>
      <trkpt lat="40.274567" lon="-4.907683">
        <ele>1924.0</ele>
        <time>2013-07-02T11:22:28Z</time>
      </trkpt>
      <trkpt lat="40.274567" lon="-4.907783">
        <ele>1924.0</ele>
        <time>2013-07-02T11:22:29Z</time>
      </trkpt>
      <trkpt lat="40.274567" lon="-4.907867">
        <ele>1924.0</ele>
        <time>2013-07-02T11:22:30Z</time>
      </trkpt>
      <trkpt lat="40.274550" lon="-4.907950">
        <ele>1924.0</ele>
        <time>2013-07-02T11:22:31Z</time>
      </trkpt>
      <trkpt lat="40.274550" lon="-4.908017">
        <ele>1924.0</ele>
        <time>2013-07-02T11:22:32Z</time>
      </trkpt>
      <trkpt lat="40.274533" lon="-4.908083">
        <ele>1924.0</ele>
        <time>2013-07-02T11:22:33Z</time>
      </trkpt>
      <trkpt lat="40.274500" lon="-4.908167">
        <ele>1921.0</ele>
        <time>2013-07-02T11:22:34Z</time>
      </trkpt>
      <trkpt lat="40.274483" lon="-4.908250">
        <ele>1919.0</ele>
        <time>2013-07-02T11:22:35Z</time>
      </trkpt>
      <trkpt lat="40.274467" lon="-4.908367">
        <ele>1919.0</ele>
        <time>2013-07-02T11:22:36Z</time>
      </trkpt>
      <trkpt lat="40.274450" lon="-4.908467">
        <ele>1919.0</ele>
        <time>2013-07-02T11:22:37Z</time>
      </trkpt>
      <trkpt lat="40.274467" lon="-4.908550">
        <ele>1919.0</ele>
        <time>2013-07-02T11:22:38Z</time>
      </trkpt>
      <trkpt lat="40.274467" lon="-4.908633">
        <ele>1919.0</ele>
        <time>2013-07-02T11:22:39Z</time>
      </trkpt>
      <trkpt lat="40.274467" lon="-4.908717">
        <ele>1919.0</ele>
        <time>2013-07-02T11:22:40Z</time>
      </trkpt>
      <trkpt lat="40.274467" lon="-4.908800">
        <ele>1918.0</ele>
        <time>2013-07-02T11:22:41Z</time>
      </trkpt>
      <trkpt lat="40.274467" lon="-4.908883">
        <ele>1917.0</ele>
        <time>2013-07-02T11:22:42Z</time>
      </trkpt>
      <trkpt lat="40.274483" lon="-4.908967">
        <ele>1915.0</ele>
        <time>2013-07-02T11:22:43Z</time>
      </trkpt>
      <trkpt lat="40.274500" lon="-4.909067">
        <ele>1914.0</ele>
        <time>2013-07-02T11:22:44Z</time>
      </trkpt>
      <trkpt lat="40.274517" lon="-4.909150">
        <ele>1913.0</ele>
        <time>2013-07-02T11:22:45Z</time>
      </trkpt>
      <trkpt lat="40.274517" lon="-4.909233">
        <ele>1911.0</ele>
        <time>2013-07-02T11:22:46Z</time>
      </trkpt>
      <trkpt lat="40.274517" lon="-4.909317">
        <ele>1910.0</ele>
        <time>2013-07-02T11:22:47Z</time>
      </trkpt>
      <trkpt lat="40.274517" lon="-4.909400">
        <ele>1907.0</ele>
        <time>2013-07-02T11:22:48Z</time>
      </trkpt>
      <trkpt lat="40.274533" lon="-4.909483">
        <ele>1905.0</ele>
        <time>2013-07-02T11:22:49Z</time>
      </trkpt>
      <trkpt lat="40.274533" lon="-4.909583">
        <ele>1902.0</ele>
        <time>2013-07-02T11:22:50Z</time>
      </trkpt>
      <trkpt lat="40.274550" lon="-4.909683">
        <ele>1900.0</ele>
        <time>2013-07-02T11:22:51Z</time>
      </trkpt>
      <trkpt lat="40.274567" lon="-4.909783">
        <ele>1898.0</ele>
        <time>2013-07-02T11:22:52Z</time>
      </trkpt>
      <trkpt lat="40.274583" lon="-4.909867">
        <ele>1896.0</ele>
        <time>2013-07-02T11:22:53Z</time>
      </trkpt>
      <trkpt lat="40.274583" lon="-4.909950">
        <ele>1893.0</ele>
        <time>2013-07-02T11:22:54Z</time>
      </trkpt>
      <trkpt lat="40.274567" lon="-4.910033">
        <ele>1891.0</ele>
        <time>2013-07-02T11:22:55Z</time>
      </trkpt>
      <trkpt lat="40.274550" lon="-4.910133">
        <ele>1888.0</ele>
        <time>2013-07-02T11:22:56Z</time>
      </trkpt>
      <trkpt lat="40.274517" lon="-4.910200">
        <ele>1886.0</ele>
        <time>2013-07-02T11:22:57Z</time>
      </trkpt>
      <trkpt lat="40.274500" lon="-4.910267">
        <ele>1884.0</ele>
        <time>2013-07-02T11:22:58Z</time>
      </trkpt>
      <trkpt lat="40.274467" lon="-4.910317">
        <ele>1882.0</ele>
        <time>2013-07-02T11:22:59Z</time>
      </trkpt>
      <trkpt lat="40.274433" lon="-4.910383">
        <ele>1880.0</ele>
        <time>2013-07-02T11:23:00Z</time>
      </trkpt>
      <trkpt lat="40.274400" lon="-4.910433">
        <ele>1876.0</ele>
        <time>2013-07-02T11:23:01Z</time>
      </trkpt>
      <trkpt lat="40.274350" lon="-4.910483">
        <ele>1873.0</ele>
        <time>2013-07-02T11:23:02Z</time>
      </trkpt>
      <trkpt lat="40.274300" lon="-4.910533">
        <ele>1870.0</ele>
        <time>2013-07-02T11:23:03Z</time>
      </trkpt>
      <trkpt lat="40.274250" lon="-4.910583">
        <ele>1867.0</ele>
        <time>2013-07-02T11:23:04Z</time>
      </trkpt>
      <trkpt lat="40.274183" lon="-4.910617">
        <ele>1863.0</ele>
        <time>2013-07-02T11:23:05Z</time>
      </trkpt>
      <trkpt lat="40.274100" lon="-4.910633">
        <ele>1860.0</ele>
        <time>2013-07-02T11:23:06Z</time>
      </trkpt>
      <trkpt lat="40.274033" lon="-4.910650">
        <ele>1857.0</ele>
        <time>2013-07-02T11:23:07Z</time>
      </trkpt>
      <trkpt lat="40.273950" lon="-4.910650">
        <ele>1855.0</ele>
        <time>2013-07-02T11:23:08Z</time>
      </trkpt>
      <trkpt lat="40.273867" lon="-4.910667">
        <ele>1853.0</ele>
        <time>2013-07-02T11:23:09Z</time>
      </trkpt>
      <trkpt lat="40.273800" lon="-4.910667">
        <ele>1851.0</ele>
        <time>2013-07-02T11:23:10Z</time>
      </trkpt>
      <trkpt lat="40.273717" lon="-4.910667">
        <ele>1848.0</ele>
        <time>2013-07-02T11:23:11Z</time>
      </trkpt>
      <trkpt lat="40.273650" lon="-4.910683">
        <ele>1845.0</ele>
        <time>2013-07-02T11:23:12Z</time>
      </trkpt>
      <trkpt lat="40.273550" lon="-4.910683">
        <ele>1843.0</ele>
        <time>2013-07-02T11:23:13Z</time>
      </trkpt>
      <trkpt lat="40.273467" lon="-4.910683">
        <ele>1840.0</ele>
        <time>2013-07-02T11:23:14Z</time>
      </trkpt>
      <trkpt lat="40.273383" lon="-4.910683">
        <ele>1839.0</ele>
        <time>2013-07-02T11:23:15Z</time>
      </trkpt>
      <trkpt lat="40.273283" lon="-4.910683">
        <ele>1837.0</ele>
        <time>2013-07-02T11:23:16Z</time>
      </trkpt>
      <trkpt lat="40.273200" lon="-4.910650">
        <ele>1836.0</ele>
        <time>2013-07-02T11:23:17Z</time>
      </trkpt>
      <trkpt lat="40.273117" lon="-4.910617">
        <ele>1835.0</ele>
        <time>2013-07-02T11:23:18Z</time>
      </trkpt>
      <trkpt lat="40.273050" lon="-4.910583">
        <ele>1834.0</ele>
        <time>2013-07-02T11:23:19Z</time>
      </trkpt>
      <trkpt lat="40.272967" lon="-4.910550">
        <ele>1832.0</ele>
        <time>2013-07-02T11:23:20Z</time>
      </trkpt>
      <trkpt lat="40.272867" lon="-4.910533">
        <ele>1831.0</ele>
        <time>2013-07-02T11:23:21Z</time>
      </trkpt>
      <trkpt lat="40.272783" lon="-4.910500">
        <ele>1830.0</ele>
        <time>2013-07-02T11:23:22Z</time>
      </trkpt>
      <trkpt lat="40.272683" lon="-4.910467">
        <ele>1830.0</ele>
        <time>2013-07-02T11:23:23Z</time>
      </trkpt>
      <trkpt lat="40.272617" lon="-4.910433">
        <ele>1829.0</ele>
        <time>2013-07-02T11:23:24Z</time>
      </trkpt>
      <trkpt lat="40.272533" lon="-4.910417">
        <ele>1828.0</ele>
        <time>2013-07-02T11:23:25Z</time>
      </trkpt>
      <trkpt lat="40.272450" lon="-4.910417">
        <ele>1827.0</ele>
        <time>2013-07-02T11:23:26Z</time>
      </trkpt>
      <trkpt lat="40.272350" lon="-4.910400">
        <ele>1826.0</ele>
        <time>2013-07-02T11:23:27Z</time>
      </trkpt>
      <trkpt lat="40.272267" lon="-4.910383">
        <ele>1826.0</ele>
        <time>2013-07-02T11:23:28Z</time>
      </trkpt>
      <trkpt lat="40.272183" lon="-4.910367">
        <ele>1826.0</ele>
        <time>2013-07-02T11:23:29Z</time>
      </trkpt>
      <trkpt lat="40.272117" lon="-4.910333">
        <ele>1828.0</ele>
        <time>2013-07-02T11:23:30Z</time>
      </trkpt>
      <trkpt lat="40.272050" lon="-4.910300">
        <ele>1828.0</ele>
        <time>2013-07-02T11:23:31Z</time>
      </trkpt>
      <trkpt lat="40.271967" lon="-4.910283">
        <ele>1828.0</ele>
        <time>2013-07-02T11:23:32Z</time>
      </trkpt>
      <trkpt lat="40.271900" lon="-4.910267">
        <ele>1828.0</ele>
        <time>2013-07-02T11:23:33Z</time>
      </trkpt>
      <trkpt lat="40.271800" lon="-4.910233">
        <ele>1827.0</ele>
        <time>2013-07-02T11:23:34Z</time>
      </trkpt>
      <trkpt lat="40.271717" lon="-4.910217">
        <ele>1829.0</ele>
        <time>2013-07-02T11:23:35Z</time>
      </trkpt>
      <trkpt lat="40.271633" lon="-4.910200">
        <ele>1832.0</ele>
        <time>2013-07-02T11:23:36Z</time>
      </trkpt>
      <trkpt lat="40.271567" lon="-4.910167">
        <ele>1835.0</ele>
        <time>2013-07-02T11:23:37Z</time>
      </trkpt>
      <trkpt lat="40.271500" lon="-4.910150">
        <ele>1836.0</ele>
        <time>2013-07-02T11:23:38Z</time>
      </trkpt>
      <trkpt lat="40.271450" lon="-4.910150">
        <ele>1836.0</ele>
        <time>2013-07-02T11:23:39Z</time>
      </trkpt>
      <trkpt lat="40.271383" lon="-4.910150">
        <ele>1836.0</ele>
        <time>2013-07-02T11:23:40Z</time>
      </trkpt>
      <trkpt lat="40.271300" lon="-4.910150">
        <ele>1837.0</ele>
        <time>2013-07-02T11:23:41Z</time>
      </trkpt>
      <trkpt lat="40.271200" lon="-4.910150">
        <ele>1838.0</ele>
        <time>2013-07-02T11:23:42Z</time>
      </trkpt>
      <trkpt lat="40.271133" lon="-4.910167">
        <ele>1840.0</ele>
        <time>2013-07-02T11:23:43Z</time>
      </trkpt>
      <trkpt lat="40.271050" lon="-4.910167">
        <ele>1841.0</ele>
        <time>2013-07-02T11:23:44Z</time>
      </trkpt>
      <trkpt lat="40.270983" lon="-4.910183">
        <ele>1842.0</ele>
        <time>2013-07-02T11:23:45Z</time>
      </trkpt>
      <trkpt lat="40.270917" lon="-4.910200">
        <ele>1841.0</ele>
        <time>2013-07-02T11:23:46Z</time>
      </trkpt>
      <trkpt lat="40.270833" lon="-4.910217">
        <ele>1840.0</ele>
        <time>2013-07-02T11:23:47Z</time>
      </trkpt>
      <trkpt lat="40.270750" lon="-4.910233">
        <ele>1838.0</ele>
        <time>2013-07-02T11:23:48Z</time>
      </trkpt>
      <trkpt lat="40.270683" lon="-4.910250">
        <ele>1836.0</ele>
        <time>2013-07-02T11:23:49Z</time>
      </trkpt>
      <trkpt lat="40.270583" lon="-4.910283">
        <ele>1833.0</ele>
        <time>2013-07-02T11:23:50Z</time>
      </trkpt>
      <trkpt lat="40.270500" lon="-4.910300">
        <ele>1833.0</ele>
        <time>2013-07-02T11:23:51Z</time>
      </trkpt>
      <trkpt lat="40.270417" lon="-4.910300">
        <ele>1831.0</ele>
        <time>2013-07-02T11:23:52Z</time>
      </trkpt>
      <trkpt lat="40.270317" lon="-4.910300">
        <ele>1830.0</ele>
        <time>2013-07-02T11:23:53Z</time>
      </trkpt>
      <trkpt lat="40.270250" lon="-4.910283">
        <ele>1828.0</ele>
        <time>2013-07-02T11:23:54Z</time>
      </trkpt>
      <trkpt lat="40.270167" lon="-4.910300">
        <ele>1828.0</ele>
        <time>2013-07-02T11:23:55Z</time>
      </trkpt>
      <trkpt lat="40.270083" lon="-4.910300">
        <ele>1826.0</ele>
        <time>2013-07-02T11:23:56Z</time>
      </trkpt>
      <trkpt lat="40.270000" lon="-4.910317">
        <ele>1823.0</ele>
        <time>2013-07-02T11:23:57Z</time>
      </trkpt>
      <trkpt lat="40.269917" lon="-4.910350">
        <ele>1819.0</ele>
        <time>2013-07-02T11:23:58Z</time>
      </trkpt>
      <trkpt lat="40.269817" lon="-4.910367">
        <ele>1817.0</ele>
        <time>2013-07-02T11:23:59Z</time>
      </trkpt>
      <trkpt lat="40.269733" lon="-4.910383">
        <ele>1814.0</ele>
        <time>2013-07-02T11:24:00Z</time>
      </trkpt>
      <trkpt lat="40.269650" lon="-4.910400">
        <ele>1812.0</ele>
        <time>2013-07-02T11:24:01Z</time>
      </trkpt>
      <trkpt lat="40.269567" lon="-4.910433">
        <ele>1811.0</ele>
        <time>2013-07-02T11:24:02Z</time>
      </trkpt>
      <trkpt lat="40.269500" lon="-4.910450">
        <ele>1809.0</ele>
        <time>2013-07-02T11:24:03Z</time>
      </trkpt>
      <trkpt lat="40.269417" lon="-4.910467">
        <ele>1806.0</ele>
        <time>2013-07-02T11:24:04Z</time>
      </trkpt>
      <trkpt lat="40.269350" lon="-4.910483">
        <ele>1804.0</ele>
        <time>2013-07-02T11:24:05Z</time>
      </trkpt>
      <trkpt lat="40.269267" lon="-4.910500">
        <ele>1801.0</ele>
        <time>2013-07-02T11:24:06Z</time>
      </trkpt>
      <trkpt lat="40.269200" lon="-4.910517">
        <ele>1798.0</ele>
        <time>2013-07-02T11:24:07Z</time>
      </trkpt>
      <trkpt lat="40.269117" lon="-4.910517">
        <ele>1795.0</ele>
        <time>2013-07-02T11:24:08Z</time>
      </trkpt>
      <trkpt lat="40.269050" lon="-4.910533">
        <ele>1792.0</ele>
        <time>2013-07-02T11:24:09Z</time>
      </trkpt>
      <trkpt lat="40.268967" lon="-4.910550">
        <ele>1790.0</ele>
        <time>2013-07-02T11:24:10Z</time>
      </trkpt>
      <trkpt lat="40.268900" lon="-4.910567">
        <ele>1787.0</ele>
        <time>2013-07-02T11:24:11Z</time>
      </trkpt>
      <trkpt lat="40.268817" lon="-4.910600">
        <ele>1784.0</ele>
        <time>2013-07-02T11:24:12Z</time>
      </trkpt>
      <trkpt lat="40.268733" lon="-4.910617">
        <ele>1781.0</ele>
        <time>2013-07-02T11:24:13Z</time>
      </trkpt>
      <trkpt lat="40.268650" lon="-4.910650">
        <ele>1779.0</ele>
        <time>2013-07-02T11:24:14Z</time>
      </trkpt>
      <trkpt lat="40.268567" lon="-4.910683">
        <ele>1776.0</ele>
        <time>2013-07-02T11:24:15Z</time>
      </trkpt>
      <trkpt lat="40.268483" lon="-4.910700">
        <ele>1774.0</ele>
        <time>2013-07-02T11:24:16Z</time>
      </trkpt>
      <trkpt lat="40.268400" lon="-4.910700">
        <ele>1773.0</ele>
        <time>2013-07-02T11:24:17Z</time>
      </trkpt>
      <trkpt lat="40.268317" lon="-4.910717">
        <ele>1773.0</ele>
        <time>2013-07-02T11:24:18Z</time>
      </trkpt>
      <trkpt lat="40.268233" lon="-4.910750">
        <ele>1771.0</ele>
        <time>2013-07-02T11:24:19Z</time>
      </trkpt>
      <trkpt lat="40.268150" lon="-4.910767">
        <ele>1768.0</ele>
        <time>2013-07-02T11:24:20Z</time>
      </trkpt>
      <trkpt lat="40.268067" lon="-4.910800">
        <ele>1767.0</ele>
        <time>2013-07-02T11:24:21Z</time>
      </trkpt>
      <trkpt lat="40.267983" lon="-4.910817">
        <ele>1766.0</ele>
        <time>2013-07-02T11:24:22Z</time>
      </trkpt>
      <trkpt lat="40.267900" lon="-4.910833">
        <ele>1765.0</ele>
        <time>2013-07-02T11:24:23Z</time>
      </trkpt>
      <trkpt lat="40.267833" lon="-4.910850">
        <ele>1764.0</ele>
        <time>2013-07-02T11:24:24Z</time>
      </trkpt>
      <trkpt lat="40.267767" lon="-4.910867">
        <ele>1763.0</ele>
        <time>2013-07-02T11:24:25Z</time>
      </trkpt>
      <trkpt lat="40.267700" lon="-4.910900">
        <ele>1761.0</ele>
        <time>2013-07-02T11:24:26Z</time>
      </trkpt>
      <trkpt lat="40.267617" lon="-4.910917">
        <ele>1760.0</ele>
        <time>2013-07-02T11:24:27Z</time>
      </trkpt>
      <trkpt lat="40.267550" lon="-4.910933">
        <ele>1759.0</ele>
        <time>2013-07-02T11:24:28Z</time>
      </trkpt>
      <trkpt lat="40.267467" lon="-4.910950">
        <ele>1757.0</ele>
        <time>2013-07-02T11:24:29Z</time>
      </trkpt>
      <trkpt lat="40.267400" lon="-4.910983">
        <ele>1755.0</ele>
        <time>2013-07-02T11:24:30Z</time>
      </trkpt>
      <trkpt lat="40.267333" lon="-4.911000">
        <ele>1754.0</ele>
        <time>2013-07-02T11:24:31Z</time>
      </trkpt>
      <trkpt lat="40.267250" lon="-4.911017">
        <ele>1753.0</ele>
        <time>2013-07-02T11:24:32Z</time>
      </trkpt>
      <trkpt lat="40.267167" lon="-4.911017">
        <ele>1752.0</ele>
        <time>2013-07-02T11:24:33Z</time>
      </trkpt>
      <trkpt lat="40.267083" lon="-4.911033">
        <ele>1752.0</ele>
        <time>2013-07-02T11:24:34Z</time>
      </trkpt>
      <trkpt lat="40.267033" lon="-4.911067">
        <ele>1751.0</ele>
        <time>2013-07-02T11:24:35Z</time>
      </trkpt>
      <trkpt lat="40.266967" lon="-4.911083">
        <ele>1750.0</ele>
        <time>2013-07-02T11:24:36Z</time>
      </trkpt>
      <trkpt lat="40.266900" lon="-4.911083">
        <ele>1750.0</ele>
        <time>2013-07-02T11:24:37Z</time>
      </trkpt>
      <trkpt lat="40.266833" lon="-4.911083">
        <ele>1750.0</ele>
        <time>2013-07-02T11:24:38Z</time>
      </trkpt>
      <trkpt lat="40.266767" lon="-4.911100">
        <ele>1750.0</ele>
        <time>2013-07-02T11:24:39Z</time>
      </trkpt>
      <trkpt lat="40.266700" lon="-4.911117">
        <ele>1750.0</ele>
        <time>2013-07-02T11:24:40Z</time>
      </trkpt>
      <trkpt lat="40.266633" lon="-4.911133">
        <ele>1751.0</ele>
        <time>2013-07-02T11:24:41Z</time>
      </trkpt>
      <trkpt lat="40.266583" lon="-4.911150">
        <ele>1752.0</ele>
        <time>2013-07-02T11:24:42Z</time>
      </trkpt>
      <trkpt lat="40.266517" lon="-4.911167">
        <ele>1753.0</ele>
        <time>2013-07-02T11:24:43Z</time>
      </trkpt>
      <trkpt lat="40.266450" lon="-4.911167">
        <ele>1754.0</ele>
        <time>2013-07-02T11:24:44Z</time>
      </trkpt>
      <trkpt lat="40.266400" lon="-4.911183">
        <ele>1754.0</ele>
        <time>2013-07-02T11:24:45Z</time>
      </trkpt>
      <trkpt lat="40.266333" lon="-4.911183">
        <ele>1753.0</ele>
        <time>2013-07-02T11:24:46Z</time>
      </trkpt>
      <trkpt lat="40.266283" lon="-4.911200">
        <ele>1752.0</ele>
        <time>2013-07-02T11:24:47Z</time>
      </trkpt>
      <trkpt lat="40.266200" lon="-4.911200">
        <ele>1750.0</ele>
        <time>2013-07-02T11:24:48Z</time>
      </trkpt>
      <trkpt lat="40.266150" lon="-4.911217">
        <ele>1749.0</ele>
        <time>2013-07-02T11:24:49Z</time>
      </trkpt>
      <trkpt lat="40.266083" lon="-4.911217">
        <ele>1748.0</ele>
        <time>2013-07-02T11:24:50Z</time>
      </trkpt>
      <trkpt lat="40.266050" lon="-4.911233">
        <ele>1747.0</ele>
        <time>2013-07-02T11:24:51Z</time>
      </trkpt>
      <trkpt lat="40.266000" lon="-4.911233">
        <ele>1745.0</ele>
        <time>2013-07-02T11:24:52Z</time>
      </trkpt>
      <trkpt lat="40.265950" lon="-4.911250">
        <ele>1742.0</ele>
        <time>2013-07-02T11:24:53Z</time>
      </trkpt>
      <trkpt lat="40.265900" lon="-4.911267">
        <ele>1739.0</ele>
        <time>2013-07-02T11:24:54Z</time>
      </trkpt>
      <trkpt lat="40.265833" lon="-4.911300">
        <ele>1739.0</ele>
        <time>2013-07-02T11:24:55Z</time>
      </trkpt>
      <trkpt lat="40.265767" lon="-4.911317">
        <ele>1738.0</ele>
        <time>2013-07-02T11:24:56Z</time>
      </trkpt>
      <trkpt lat="40.265717" lon="-4.911333">
        <ele>1736.0</ele>
        <time>2013-07-02T11:24:57Z</time>
      </trkpt>
      <trkpt lat="40.265667" lon="-4.911350">
        <ele>1735.0</ele>
        <time>2013-07-02T11:24:58Z</time>
      </trkpt>
      <trkpt lat="40.265617" lon="-4.911367">
        <ele>1733.0</ele>
        <time>2013-07-02T11:24:59Z</time>
      </trkpt>
      <trkpt lat="40.265567" lon="-4.911383">
        <ele>1731.0</ele>
        <time>2013-07-02T11:25:00Z</time>
      </trkpt>
      <trkpt lat="40.265500" lon="-4.911400">
        <ele>1729.0</ele>
        <time>2013-07-02T11:25:01Z</time>
      </trkpt>
      <trkpt lat="40.265433" lon="-4.911417">
        <ele>1727.0</ele>
        <time>2013-07-02T11:25:02Z</time>
      </trkpt>
      <trkpt lat="40.265350" lon="-4.911400">
        <ele>1726.0</ele>
        <time>2013-07-02T11:25:03Z</time>
      </trkpt>
      <trkpt lat="40.265283" lon="-4.911417">
        <ele>1725.0</ele>
        <time>2013-07-02T11:25:04Z</time>
      </trkpt>
      <trkpt lat="40.265233" lon="-4.911417">
        <ele>1724.0</ele>
        <time>2013-07-02T11:25:05Z</time>
      </trkpt>
      <trkpt lat="40.265167" lon="-4.911400">
        <ele>1722.0</ele>
        <time>2013-07-02T11:25:06Z</time>
      </trkpt>
      <trkpt lat="40.265100" lon="-4.911400">
        <ele>1720.0</ele>
        <time>2013-07-02T11:25:07Z</time>
      </trkpt>
      <trkpt lat="40.265033" lon="-4.911367">
        <ele>1718.0</ele>
        <time>2013-07-02T11:25:08Z</time>
      </trkpt>
      <trkpt lat="40.264950" lon="-4.911350">
        <ele>1717.0</ele>
        <time>2013-07-02T11:25:09Z</time>
      </trkpt>
      <trkpt lat="40.264883" lon="-4.911350">
        <ele>1718.0</ele>
        <time>2013-07-02T11:25:10Z</time>
      </trkpt>
      <trkpt lat="40.264833" lon="-4.911350">
        <ele>1718.0</ele>
        <time>2013-07-02T11:25:11Z</time>
      </trkpt>
      <trkpt lat="40.264767" lon="-4.911350">
        <ele>1718.0</ele>
        <time>2013-07-02T11:25:12Z</time>
      </trkpt>
      <trkpt lat="40.264717" lon="-4.911350">
        <ele>1717.0</ele>
        <time>2013-07-02T11:25:13Z</time>
      </trkpt>
      <trkpt lat="40.264650" lon="-4.911350">
        <ele>1717.0</ele>
        <time>2013-07-02T11:25:14Z</time>
      </trkpt>
      <trkpt lat="40.264600" lon="-4.911367">
        <ele>1715.0</ele>
        <time>2013-07-02T11:25:15Z</time>
      </trkpt>
      <trkpt lat="40.264550" lon="-4.911367">
        <ele>1713.0</ele>
        <time>2013-07-02T11:25:16Z</time>
      </trkpt>
      <trkpt lat="40.264483" lon="-4.911367">
        <ele>1711.0</ele>
        <time>2013-07-02T11:25:17Z</time>
      </trkpt>
      <trkpt lat="40.264417" lon="-4.911383">
        <ele>1707.0</ele>
        <time>2013-07-02T11:25:18Z</time>
      </trkpt>
      <trkpt lat="40.264350" lon="-4.911417">
        <ele>1703.0</ele>
        <time>2013-07-02T11:25:19Z</time>
      </trkpt>
      <trkpt lat="40.264283" lon="-4.911483">
        <ele>1700.0</ele>
        <time>2013-07-02T11:25:20Z</time>
      </trkpt>
      <trkpt lat="40.264200" lon="-4.911533">
        <ele>1697.0</ele>
        <time>2013-07-02T11:25:21Z</time>
      </trkpt>
      <trkpt lat="40.264133" lon="-4.911567">
        <ele>1697.0</ele>
        <time>2013-07-02T11:25:22Z</time>
      </trkpt>
      <trkpt lat="40.264067" lon="-4.911583">
        <ele>1698.0</ele>
        <time>2013-07-02T11:25:23Z</time>
      </trkpt>
      <trkpt lat="40.264017" lon="-4.911583">
        <ele>1701.0</ele>
        <time>2013-07-02T11:25:24Z</time>
      </trkpt>
      <trkpt lat="40.263983" lon="-4.911583">
        <ele>1702.0</ele>
        <time>2013-07-02T11:25:25Z</time>
      </trkpt>
      <trkpt lat="40.263950" lon="-4.911600">
        <ele>1703.0</ele>
        <time>2013-07-02T11:25:26Z</time>
      </trkpt>
      <trkpt lat="40.263883" lon="-4.911617">
        <ele>1704.0</ele>
        <time>2013-07-02T11:25:27Z</time>
      </trkpt>
      <trkpt lat="40.263833" lon="-4.911650">
        <ele>1707.0</ele>
        <time>2013-07-02T11:25:28Z</time>
      </trkpt>
      <trkpt lat="40.263767" lon="-4.911683">
        <ele>1710.0</ele>
        <time>2013-07-02T11:25:29Z</time>
      </trkpt>
      <trkpt lat="40.263717" lon="-4.911700">
        <ele>1715.0</ele>
        <time>2013-07-02T11:25:30Z</time>
      </trkpt>
      <trkpt lat="40.263683" lon="-4.911700">
        <ele>1718.0</ele>
        <time>2013-07-02T11:25:31Z</time>
      </trkpt>
      <trkpt lat="40.263633" lon="-4.911683">
        <ele>1722.0</ele>
        <time>2013-07-02T11:25:32Z</time>
      </trkpt>
      <trkpt lat="40.263583" lon="-4.911667">
        <ele>1724.0</ele>
        <time>2013-07-02T11:25:33Z</time>
      </trkpt>
      <trkpt lat="40.263533" lon="-4.911667">
        <ele>1726.0</ele>
        <time>2013-07-02T11:25:34Z</time>
      </trkpt>
      <trkpt lat="40.263500" lon="-4.911667">
        <ele>1727.0</ele>
        <time>2013-07-02T11:25:35Z</time>
      </trkpt>
      <trkpt lat="40.263450" lon="-4.911717">
        <ele>1729.0</ele>
        <time>2013-07-02T11:25:36Z</time>
      </trkpt>
      <trkpt lat="40.263450" lon="-4.911783">
        <ele>1731.0</ele>
        <time>2013-07-02T11:25:37Z</time>
      </trkpt>
      <trkpt lat="40.263483" lon="-4.911850">
        <ele>1733.0</ele>
        <time>2013-07-02T11:25:38Z</time>
      </trkpt>
      <trkpt lat="40.263550" lon="-4.911900">
        <ele>1734.0</ele>
        <time>2013-07-02T11:25:39Z</time>
      </trkpt>
      <trkpt lat="40.263633" lon="-4.911883">
        <ele>1736.0</ele>
        <time>2013-07-02T11:25:40Z</time>
      </trkpt>
      <trkpt lat="40.263733" lon="-4.911817">
        <ele>1737.0</ele>
        <time>2013-07-02T11:25:41Z</time>
      </trkpt>
      <trkpt lat="40.263833" lon="-4.911717">
        <ele>1738.0</ele>
        <time>2013-07-02T11:25:42Z</time>
      </trkpt>
      <trkpt lat="40.263900" lon="-4.911600">
        <ele>1740.0</ele>
        <time>2013-07-02T11:25:43Z</time>
      </trkpt>
      <trkpt lat="40.263950" lon="-4.911483">
        <ele>1742.0</ele>
        <time>2013-07-02T11:25:44Z</time>
      </trkpt>
      <trkpt lat="40.263967" lon="-4.911350">
        <ele>1744.0</ele>
        <time>2013-07-02T11:25:45Z</time>
      </trkpt>
      <trkpt lat="40.263983" lon="-4.911233">
        <ele>1746.0</ele>
        <time>2013-07-02T11:25:46Z</time>
      </trkpt>
      <trkpt lat="40.263967" lon="-4.911117">
        <ele>1750.0</ele>
        <time>2013-07-02T11:25:47Z</time>
      </trkpt>
      <trkpt lat="40.263950" lon="-4.911000">
        <ele>1753.0</ele>
        <time>2013-07-02T11:25:48Z</time>
      </trkpt>
      <trkpt lat="40.263900" lon="-4.910900">
        <ele>1755.0</ele>
        <time>2013-07-02T11:25:49Z</time>
      </trkpt>
      <trkpt lat="40.263833" lon="-4.910800">
        <ele>1757.0</ele>
        <time>2013-07-02T11:25:50Z</time>
      </trkpt>
      <trkpt lat="40.263767" lon="-4.910717">
        <ele>1760.0</ele>
        <time>2013-07-02T11:25:51Z</time>
      </trkpt>
      <trkpt lat="40.263700" lon="-4.910633">
        <ele>1763.0</ele>
        <time>2013-07-02T11:25:52Z</time>
      </trkpt>
      <trkpt lat="40.263650" lon="-4.910550">
        <ele>1767.0</ele>
        <time>2013-07-02T11:25:53Z</time>
      </trkpt>
      <trkpt lat="40.263600" lon="-4.910500">
        <ele>1770.0</ele>
        <time>2013-07-02T11:25:54Z</time>
      </trkpt>
      <trkpt lat="40.263550" lon="-4.910483">
        <ele>1773.0</ele>
        <time>2013-07-02T11:25:55Z</time>
      </trkpt>
      <trkpt lat="40.263483" lon="-4.910483">
        <ele>1776.0</ele>
        <time>2013-07-02T11:25:56Z</time>
      </trkpt>
      <trkpt lat="40.263467" lon="-4.910517">
        <ele>1779.0</ele>
        <time>2013-07-02T11:25:57Z</time>
      </trkpt>
      <trkpt lat="40.263467" lon="-4.910550">
        <ele>1782.0</ele>
        <time>2013-07-02T11:25:58Z</time>
      </trkpt>
      <trkpt lat="40.263500" lon="-4.910583">
        <ele>1785.0</ele>
        <time>2013-07-02T11:25:59Z</time>
      </trkpt>
      <trkpt lat="40.263583" lon="-4.910583">
        <ele>1787.0</ele>
        <time>2013-07-02T11:26:00Z</time>
      </trkpt>
      <trkpt lat="40.263667" lon="-4.910550">
        <ele>1790.0</ele>
        <time>2013-07-02T11:26:01Z</time>
      </trkpt>
      <trkpt lat="40.263767" lon="-4.910467">
        <ele>1795.0</ele>
        <time>2013-07-02T11:26:02Z</time>
      </trkpt>
      <trkpt lat="40.263817" lon="-4.910350">
        <ele>1799.0</ele>
        <time>2013-07-02T11:26:03Z</time>
      </trkpt>
      <trkpt lat="40.263850" lon="-4.910217">
        <ele>1803.0</ele>
        <time>2013-07-02T11:26:04Z</time>
      </trkpt>
      <trkpt lat="40.263850" lon="-4.910050">
        <ele>1807.0</ele>
        <time>2013-07-02T11:26:05Z</time>
      </trkpt>
      <trkpt lat="40.263833" lon="-4.909900">
        <ele>1810.0</ele>
        <time>2013-07-02T11:26:06Z</time>
      </trkpt>
      <trkpt lat="40.263800" lon="-4.909783">
        <ele>1813.0</ele>
        <time>2013-07-02T11:26:07Z</time>
      </trkpt>
      <trkpt lat="40.263767" lon="-4.909650">
        <ele>1816.0</ele>
        <time>2013-07-02T11:26:08Z</time>
      </trkpt>
      <trkpt lat="40.263700" lon="-4.909550">
        <ele>1819.0</ele>
        <time>2013-07-02T11:26:09Z</time>
      </trkpt>
      <trkpt lat="40.263650" lon="-4.909450">
        <ele>1822.0</ele>
        <time>2013-07-02T11:26:10Z</time>
      </trkpt>
      <trkpt lat="40.263600" lon="-4.909383">
        <ele>1824.0</ele>
        <time>2013-07-02T11:26:11Z</time>
      </trkpt>
      <trkpt lat="40.263533" lon="-4.909333">
        <ele>1827.0</ele>
        <time>2013-07-02T11:26:12Z</time>
      </trkpt>
      <trkpt lat="40.263483" lon="-4.909300">
        <ele>1830.0</ele>
        <time>2013-07-02T11:26:13Z</time>
      </trkpt>
      <trkpt lat="40.263467" lon="-4.909300">
        <ele>1833.0</ele>
        <time>2013-07-02T11:26:14Z</time>
      </trkpt>
      <trkpt lat="40.263450" lon="-4.909317">
        <ele>1834.0</ele>
        <time>2013-07-02T11:26:15Z</time>
      </trkpt>
      <trkpt lat="40.263450" lon="-4.909350">
        <ele>1834.0</ele>
        <time>2013-07-02T11:26:16Z</time>
      </trkpt>
      <trkpt lat="40.263450" lon="-4.909417">
        <ele>1834.0</ele>
        <time>2013-07-02T11:26:17Z</time>
      </trkpt>
      <trkpt lat="40.263483" lon="-4.909450">
        <ele>1836.0</ele>
        <time>2013-07-02T11:26:18Z</time>
      </trkpt>
      <trkpt lat="40.263517" lon="-4.909483">
        <ele>1837.0</ele>
        <time>2013-07-02T11:26:19Z</time>
      </trkpt>
      <trkpt lat="40.263583" lon="-4.909483">
        <ele>1837.0</ele>
        <time>2013-07-02T11:26:20Z</time>
      </trkpt>
      <trkpt lat="40.263667" lon="-4.909467">
        <ele>1837.0</ele>
        <time>2013-07-02T11:26:21Z</time>
      </trkpt>
      <trkpt lat="40.263750" lon="-4.909417">
        <ele>1840.0</ele>
        <time>2013-07-02T11:26:22Z</time>
      </trkpt>
      <trkpt lat="40.263817" lon="-4.909367">
        <ele>1844.0</ele>
        <time>2013-07-02T11:26:23Z</time>
      </trkpt>
      <trkpt lat="40.263867" lon="-4.909317">
        <ele>1848.0</ele>
        <time>2013-07-02T11:26:24Z</time>
      </trkpt>
      <trkpt lat="40.263900" lon="-4.909250">
        <ele>1851.0</ele>
        <time>2013-07-02T11:26:25Z</time>
      </trkpt>
      <trkpt lat="40.263933" lon="-4.909183">
        <ele>1852.0</ele>
        <time>2013-07-02T11:26:26Z</time>
      </trkpt>
      <trkpt lat="40.263983" lon="-4.909117">
        <ele>1853.0</ele>
        <time>2013-07-02T11:26:27Z</time>
      </trkpt>
      <trkpt lat="40.264050" lon="-4.909017">
        <ele>1854.0</ele>
        <time>2013-07-02T11:26:28Z</time>
      </trkpt>
      <trkpt lat="40.264083" lon="-4.908867">
        <ele>1854.0</ele>
        <time>2013-07-02T11:26:29Z</time>
      </trkpt>
      <trkpt lat="40.264083" lon="-4.908700">
        <ele>1855.0</ele>
        <time>2013-07-02T11:26:30Z</time>
      </trkpt>
      <trkpt lat="40.264050" lon="-4.908550">
        <ele>1856.0</ele>
        <time>2013-07-02T11:26:31Z</time>
      </trkpt>
      <trkpt lat="40.264000" lon="-4.908450">
        <ele>1856.0</ele>
        <time>2013-07-02T11:26:32Z</time>
      </trkpt>
      <trkpt lat="40.263950" lon="-4.908383">
        <ele>1857.0</ele>
        <time>2013-07-02T11:26:33Z</time>
      </trkpt>
      <trkpt lat="40.263900" lon="-4.908333">
        <ele>1859.0</ele>
        <time>2013-07-02T11:26:34Z</time>
      </trkpt>
      <trkpt lat="40.263850" lon="-4.908300">
        <ele>1861.0</ele>
        <time>2013-07-02T11:26:35Z</time>
      </trkpt>
      <trkpt lat="40.263800" lon="-4.908283">
        <ele>1863.0</ele>
        <time>2013-07-02T11:26:36Z</time>
      </trkpt>
      <trkpt lat="40.263750" lon="-4.908283">
        <ele>1864.0</ele>
        <time>2013-07-02T11:26:37Z</time>
      </trkpt>
      <trkpt lat="40.263700" lon="-4.908317">
        <ele>1865.0</ele>
        <time>2013-07-02T11:26:38Z</time>
      </trkpt>
      <trkpt lat="40.263683" lon="-4.908367">
        <ele>1866.0</ele>
        <time>2013-07-02T11:26:39Z</time>
      </trkpt>
      <trkpt lat="40.263683" lon="-4.908450">
        <ele>1867.0</ele>
        <time>2013-07-02T11:26:40Z</time>
      </trkpt>
      <trkpt lat="40.263717" lon="-4.908500">
        <ele>1868.0</ele>
        <time>2013-07-02T11:26:41Z</time>
      </trkpt>
      <trkpt lat="40.263767" lon="-4.908550">
        <ele>1870.0</ele>
        <time>2013-07-02T11:26:42Z</time>
      </trkpt>
      <trkpt lat="40.263817" lon="-4.908567">
        <ele>1871.0</ele>
        <time>2013-07-02T11:26:43Z</time>
      </trkpt>
      <trkpt lat="40.263867" lon="-4.908600">
        <ele>1872.0</ele>
        <time>2013-07-02T11:26:44Z</time>
      </trkpt>
      <trkpt lat="40.263917" lon="-4.908617">
        <ele>1872.0</ele>
        <time>2013-07-02T11:26:45Z</time>
      </trkpt>
      <trkpt lat="40.263983" lon="-4.908650">
        <ele>1872.0</ele>
        <time>2013-07-02T11:26:46Z</time>
      </trkpt>
      <trkpt lat="40.264067" lon="-4.908650">
        <ele>1872.0</ele>
        <time>2013-07-02T11:26:47Z</time>
      </trkpt>
      <trkpt lat="40.264150" lon="-4.908633">
        <ele>1872.0</ele>
        <time>2013-07-02T11:26:48Z</time>
      </trkpt>
      <trkpt lat="40.264233" lon="-4.908583">
        <ele>1876.0</ele>
        <time>2013-07-02T11:26:49Z</time>
      </trkpt>
      <trkpt lat="40.264317" lon="-4.908500">
        <ele>1880.0</ele>
        <time>2013-07-02T11:26:50Z</time>
      </trkpt>
      <trkpt lat="40.264367" lon="-4.908400">
        <ele>1884.0</ele>
        <time>2013-07-02T11:26:51Z</time>
      </trkpt>
      <trkpt lat="40.264400" lon="-4.908300">
        <ele>1888.0</ele>
        <time>2013-07-02T11:26:52Z</time>
      </trkpt>
      <trkpt lat="40.264433" lon="-4.908183">
        <ele>1890.0</ele>
        <time>2013-07-02T11:26:53Z</time>
      </trkpt>
      <trkpt lat="40.264483" lon="-4.908067">
        <ele>1892.0</ele>
        <time>2013-07-02T11:26:54Z</time>
      </trkpt>
      <trkpt lat="40.264533" lon="-4.907933">
        <ele>1894.0</ele>
        <time>2013-07-02T11:26:55Z</time>
      </trkpt>
      <trkpt lat="40.264550" lon="-4.907767">
        <ele>1895.0</ele>
        <time>2013-07-02T11:26:56Z</time>
      </trkpt>
      <trkpt lat="40.264533" lon="-4.907617">
        <ele>1897.0</ele>
        <time>2013-07-02T11:26:57Z</time>
      </trkpt>
      <trkpt lat="40.264483" lon="-4.907483">
        <ele>1898.0</ele>
        <time>2013-07-02T11:26:58Z</time>
      </trkpt>
      <trkpt lat="40.264417" lon="-4.907383">
        <ele>1899.0</ele>
        <time>2013-07-02T11:26:59Z</time>
      </trkpt>
      <trkpt lat="40.264333" lon="-4.907317">
        <ele>1900.0</ele>
        <time>2013-07-02T11:27:00Z</time>
      </trkpt>
      <trkpt lat="40.264267" lon="-4.907267">
        <ele>1902.0</ele>
        <time>2013-07-02T11:27:01Z</time>
      </trkpt>
      <trkpt lat="40.264217" lon="-4.907233">
        <ele>1904.0</ele>
        <time>2013-07-02T11:27:02Z</time>
      </trkpt>
      <trkpt lat="40.264150" lon="-4.907233">
        <ele>1905.0</ele>
        <time>2013-07-02T11:27:03Z</time>
      </trkpt>
      <trkpt lat="40.264100" lon="-4.907250">
        <ele>1906.0</ele>
        <time>2013-07-02T11:27:04Z</time>
      </trkpt>
      <trkpt lat="40.264050" lon="-4.907267">
        <ele>1906.0</ele>
        <time>2013-07-02T11:27:05Z</time>
      </trkpt>
      <trkpt lat="40.264000" lon="-4.907333">
        <ele>1907.0</ele>
        <time>2013-07-02T11:27:06Z</time>
      </trkpt>
      <trkpt lat="40.264000" lon="-4.907400">
        <ele>1908.0</ele>
        <time>2013-07-02T11:27:07Z</time>
      </trkpt>
      <trkpt lat="40.264017" lon="-4.907467">
        <ele>1909.0</ele>
        <time>2013-07-02T11:27:08Z</time>
      </trkpt>
      <trkpt lat="40.264050" lon="-4.907517">
        <ele>1911.0</ele>
        <time>2013-07-02T11:27:09Z</time>
      </trkpt>
      <trkpt lat="40.264100" lon="-4.907550">
        <ele>1912.0</ele>
        <time>2013-07-02T11:27:10Z</time>
      </trkpt>
      <trkpt lat="40.264150" lon="-4.907567">
        <ele>1912.0</ele>
        <time>2013-07-02T11:27:11Z</time>
      </trkpt>
      <trkpt lat="40.264200" lon="-4.907600">
        <ele>1912.0</ele>
        <time>2013-07-02T11:27:12Z</time>
      </trkpt>
      <trkpt lat="40.264283" lon="-4.907617">
        <ele>1912.0</ele>
        <time>2013-07-02T11:27:13Z</time>
      </trkpt>
      <trkpt lat="40.264367" lon="-4.907567">
        <ele>1913.0</ele>
        <time>2013-07-02T11:27:14Z</time>
      </trkpt>
      <trkpt lat="40.264450" lon="-4.907467">
        <ele>1915.0</ele>
        <time>2013-07-02T11:27:15Z</time>
      </trkpt>
      <trkpt lat="40.264483" lon="-4.907333">
        <ele>1916.0</ele>
        <time>2013-07-02T11:27:16Z</time>
      </trkpt>
      <trkpt lat="40.264517" lon="-4.907217">
        <ele>1918.0</ele>
        <time>2013-07-02T11:27:17Z</time>
      </trkpt>
      <trkpt lat="40.264533" lon="-4.907083">
        <ele>1920.0</ele>
        <time>2013-07-02T11:27:18Z</time>
      </trkpt>
      <trkpt lat="40.264550" lon="-4.906950">
        <ele>1921.0</ele>
        <time>2013-07-02T11:27:19Z</time>
      </trkpt>
      <trkpt lat="40.264567" lon="-4.906817">
        <ele>1923.0</ele>
        <time>2013-07-02T11:27:20Z</time>
      </trkpt>
      <trkpt lat="40.264550" lon="-4.906650">
        <ele>1926.0</ele>
        <time>2013-07-02T11:27:21Z</time>
      </trkpt>
      <trkpt lat="40.264533" lon="-4.906500">
        <ele>1929.0</ele>
        <time>2013-07-02T11:27:22Z</time>
      </trkpt>
      <trkpt lat="40.264517" lon="-4.906350">
        <ele>1932.0</ele>
        <time>2013-07-02T11:27:23Z</time>
      </trkpt>
      <trkpt lat="40.264500" lon="-4.906233">
        <ele>1934.0</ele>
        <time>2013-07-02T11:27:24Z</time>
      </trkpt>
      <trkpt lat="40.264483" lon="-4.906117">
        <ele>1935.0</ele>
        <time>2013-07-02T11:27:25Z</time>
      </trkpt>
      <trkpt lat="40.264450" lon="-4.906017">
        <ele>1936.0</ele>
        <time>2013-07-02T11:27:26Z</time>
      </trkpt>
      <trkpt lat="40.264383" lon="-4.905917">
        <ele>1936.0</ele>
        <time>2013-07-02T11:27:27Z</time>
      </trkpt>
      <trkpt lat="40.264300" lon="-4.905833">
        <ele>1935.0</ele>
        <time>2013-07-02T11:27:28Z</time>
      </trkpt>
      <trkpt lat="40.264200" lon="-4.905767">
        <ele>1935.0</ele>
        <time>2013-07-02T11:27:29Z</time>
      </trkpt>
      <trkpt lat="40.264117" lon="-4.905750">
        <ele>1936.0</ele>
        <time>2013-07-02T11:27:30Z</time>
      </trkpt>
      <trkpt lat="40.264050" lon="-4.905733">
        <ele>1937.0</ele>
        <time>2013-07-02T11:27:31Z</time>
      </trkpt>
      <trkpt lat="40.264000" lon="-4.905733">
        <ele>1937.0</ele>
        <time>2013-07-02T11:27:32Z</time>
      </trkpt>
      <trkpt lat="40.263933" lon="-4.905750">
        <ele>1938.0</ele>
        <time>2013-07-02T11:27:33Z</time>
      </trkpt>
      <trkpt lat="40.263883" lon="-4.905783">
        <ele>1938.0</ele>
        <time>2013-07-02T11:27:34Z</time>
      </trkpt>
      <trkpt lat="40.263817" lon="-4.905800">
        <ele>1937.0</ele>
        <time>2013-07-02T11:27:35Z</time>
      </trkpt>
      <trkpt lat="40.263767" lon="-4.905817">
        <ele>1937.0</ele>
        <time>2013-07-02T11:27:36Z</time>
      </trkpt>
      <trkpt lat="40.263700" lon="-4.905850">
        <ele>1936.0</ele>
        <time>2013-07-02T11:27:37Z</time>
      </trkpt>
      <trkpt lat="40.263617" lon="-4.905867">
        <ele>1933.0</ele>
        <time>2013-07-02T11:27:38Z</time>
      </trkpt>
      <trkpt lat="40.263517" lon="-4.905900">
        <ele>1932.0</ele>
        <time>2013-07-02T11:27:39Z</time>
      </trkpt>
      <trkpt lat="40.263433" lon="-4.905933">
        <ele>1931.0</ele>
        <time>2013-07-02T11:27:40Z</time>
      </trkpt>
      <trkpt lat="40.263350" lon="-4.905967">
        <ele>1929.0</ele>
        <time>2013-07-02T11:27:41Z</time>
      </trkpt>
      <trkpt lat="40.263283" lon="-4.906017">
        <ele>1927.0</ele>
        <time>2013-07-02T11:27:42Z</time>
      </trkpt>
      <trkpt lat="40.263217" lon="-4.906083">
        <ele>1924.0</ele>
        <time>2013-07-02T11:27:43Z</time>
      </trkpt>
      <trkpt lat="40.263133" lon="-4.906150">
        <ele>1921.0</ele>
        <time>2013-07-02T11:27:44Z</time>
      </trkpt>
      <trkpt lat="40.263050" lon="-4.906233">
        <ele>1918.0</ele>
        <time>2013-07-02T11:27:45Z</time>
      </trkpt>
      <trkpt lat="40.262967" lon="-4.906283">
        <ele>1916.0</ele>
        <time>2013-07-02T11:27:46Z</time>
      </trkpt>
      <trkpt lat="40.262900" lon="-4.906333">
        <ele>1914.0</ele>
        <time>2013-07-02T11:27:47Z</time>
      </trkpt>
      <trkpt lat="40.262833" lon="-4.906367">
        <ele>1913.0</ele>
        <time>2013-07-02T11:27:48Z</time>
      </trkpt>
      <trkpt lat="40.262767" lon="-4.906383">
        <ele>1911.0</ele>
        <time>2013-07-02T11:27:49Z</time>
      </trkpt>
      <trkpt lat="40.262700" lon="-4.906400">
        <ele>1907.0</ele>
        <time>2013-07-02T11:27:50Z</time>
      </trkpt>
      <trkpt lat="40.262633" lon="-4.906433">
        <ele>1902.0</ele>
        <time>2013-07-02T11:27:51Z</time>
      </trkpt>
      <trkpt lat="40.262567" lon="-4.906483">
        <ele>1897.0</ele>
        <time>2013-07-02T11:27:52Z</time>
      </trkpt>
      <trkpt lat="40.262500" lon="-4.906567">
        <ele>1892.0</ele>
        <time>2013-07-02T11:27:53Z</time>
      </trkpt>
      <trkpt lat="40.262433" lon="-4.906633">
        <ele>1890.0</ele>
        <time>2013-07-02T11:27:54Z</time>
      </trkpt>
      <trkpt lat="40.262383" lon="-4.906700">
        <ele>1890.0</ele>
        <time>2013-07-02T11:27:55Z</time>
      </trkpt>
      <trkpt lat="40.262350" lon="-4.906717">
        <ele>1889.0</ele>
        <time>2013-07-02T11:27:56Z</time>
      </trkpt>
      <trkpt lat="40.262317" lon="-4.906717">
        <ele>1887.0</ele>
        <time>2013-07-02T11:27:57Z</time>
      </trkpt>
      <trkpt lat="40.262267" lon="-4.906700">
        <ele>1884.0</ele>
        <time>2013-07-02T11:27:58Z</time>
      </trkpt>
      <trkpt lat="40.262233" lon="-4.906717">
        <ele>1880.0</ele>
        <time>2013-07-02T11:27:59Z</time>
      </trkpt>
      <trkpt lat="40.262167" lon="-4.906750">
        <ele>1875.0</ele>
        <time>2013-07-02T11:28:00Z</time>
      </trkpt>
      <trkpt lat="40.262100" lon="-4.906800">
        <ele>1871.0</ele>
        <time>2013-07-02T11:28:01Z</time>
      </trkpt>
      <trkpt lat="40.262050" lon="-4.906833">
        <ele>1868.0</ele>
        <time>2013-07-02T11:28:02Z</time>
      </trkpt>
      <trkpt lat="40.261983" lon="-4.906867">
        <ele>1867.0</ele>
        <time>2013-07-02T11:28:03Z</time>
      </trkpt>
      <trkpt lat="40.261933" lon="-4.906883">
        <ele>1865.0</ele>
        <time>2013-07-02T11:28:04Z</time>
      </trkpt>
      <trkpt lat="40.261900" lon="-4.906900">
        <ele>1863.0</ele>
        <time>2013-07-02T11:28:05Z</time>
      </trkpt>
      <trkpt lat="40.261850" lon="-4.906933">
        <ele>1860.0</ele>
        <time>2013-07-02T11:28:06Z</time>
      </trkpt>
      <trkpt lat="40.261800" lon="-4.906983">
        <ele>1857.0</ele>
        <time>2013-07-02T11:28:07Z</time>
      </trkpt>
      <trkpt lat="40.261733" lon="-4.907033">
        <ele>1856.0</ele>
        <time>2013-07-02T11:28:08Z</time>
      </trkpt>
      <trkpt lat="40.261683" lon="-4.907083">
        <ele>1856.0</ele>
        <time>2013-07-02T11:28:09Z</time>
      </trkpt>
      <trkpt lat="40.261650" lon="-4.907117">
        <ele>1854.0</ele>
        <time>2013-07-02T11:28:10Z</time>
      </trkpt>
      <trkpt lat="40.261617" lon="-4.907150">
        <ele>1853.0</ele>
        <time>2013-07-02T11:28:11Z</time>
      </trkpt>
      <trkpt lat="40.261583" lon="-4.907183">
        <ele>1851.0</ele>
        <time>2013-07-02T11:28:12Z</time>
      </trkpt>
      <trkpt lat="40.261533" lon="-4.907250">
        <ele>1852.0</ele>
        <time>2013-07-02T11:28:13Z</time>
      </trkpt>
      <trkpt lat="40.261500" lon="-4.907317">
        <ele>1851.0</ele>
        <time>2013-07-02T11:28:14Z</time>
      </trkpt>
      <trkpt lat="40.261450" lon="-4.907367">
        <ele>1849.0</ele>
        <time>2013-07-02T11:28:15Z</time>
      </trkpt>
      <trkpt lat="40.261400" lon="-4.907417">
        <ele>1849.0</ele>
        <time>2013-07-02T11:28:16Z</time>
      </trkpt>
      <trkpt lat="40.261350" lon="-4.907467">
        <ele>1848.0</ele>
        <time>2013-07-02T11:28:17Z</time>
      </trkpt>
      <trkpt lat="40.261317" lon="-4.907517">
        <ele>1848.0</ele>
        <time>2013-07-02T11:28:18Z</time>
      </trkpt>
      <trkpt lat="40.261267" lon="-4.907567">
        <ele>1847.0</ele>
        <time>2013-07-02T11:28:19Z</time>
      </trkpt>
      <trkpt lat="40.261233" lon="-4.907617">
        <ele>1845.0</ele>
        <time>2013-07-02T11:28:20Z</time>
      </trkpt>
      <trkpt lat="40.261183" lon="-4.907700">
        <ele>1844.0</ele>
        <time>2013-07-02T11:28:21Z</time>
      </trkpt>
      <trkpt lat="40.261150" lon="-4.907783">
        <ele>1843.0</ele>
        <time>2013-07-02T11:28:22Z</time>
      </trkpt>
      <trkpt lat="40.261117" lon="-4.907850">
        <ele>1844.0</ele>
        <time>2013-07-02T11:28:23Z</time>
      </trkpt>
      <trkpt lat="40.261100" lon="-4.907917">
        <ele>1844.0</ele>
        <time>2013-07-02T11:28:24Z</time>
      </trkpt>
      <trkpt lat="40.261050" lon="-4.907967">
        <ele>1843.0</ele>
        <time>2013-07-02T11:28:25Z</time>
      </trkpt>
      <trkpt lat="40.261000" lon="-4.908017">
        <ele>1843.0</ele>
        <time>2013-07-02T11:28:26Z</time>
      </trkpt>
      <trkpt lat="40.260950" lon="-4.908067">
        <ele>1842.0</ele>
        <time>2013-07-02T11:28:27Z</time>
      </trkpt>
      <trkpt lat="40.260917" lon="-4.908133">
        <ele>1842.0</ele>
        <time>2013-07-02T11:28:28Z</time>
      </trkpt>
      <trkpt lat="40.260883" lon="-4.908183">
        <ele>1841.0</ele>
        <time>2013-07-02T11:28:29Z</time>
      </trkpt>
      <trkpt lat="40.260867" lon="-4.908250">
        <ele>1841.0</ele>
        <time>2013-07-02T11:28:30Z</time>
      </trkpt>
      <trkpt lat="40.260833" lon="-4.908317">
        <ele>1840.0</ele>
        <time>2013-07-02T11:28:31Z</time>
      </trkpt>
      <trkpt lat="40.260800" lon="-4.908367">
        <ele>1839.0</ele>
        <time>2013-07-02T11:28:32Z</time>
      </trkpt>
      <trkpt lat="40.260767" lon="-4.908417">
        <ele>1839.0</ele>
        <time>2013-07-02T11:28:33Z</time>
      </trkpt>
      <trkpt lat="40.260733" lon="-4.908483">
        <ele>1838.0</ele>
        <time>2013-07-02T11:28:34Z</time>
      </trkpt>
      <trkpt lat="40.260700" lon="-4.908533">
        <ele>1837.0</ele>
        <time>2013-07-02T11:28:35Z</time>
      </trkpt>
      <trkpt lat="40.260667" lon="-4.908600">
        <ele>1836.0</ele>
        <time>2013-07-02T11:28:36Z</time>
      </trkpt>
      <trkpt lat="40.260650" lon="-4.908650">
        <ele>1835.0</ele>
        <time>2013-07-02T11:28:37Z</time>
      </trkpt>
      <trkpt lat="40.260617" lon="-4.908717">
        <ele>1835.0</ele>
        <time>2013-07-02T11:28:38Z</time>
      </trkpt>
      <trkpt lat="40.260583" lon="-4.908767">
        <ele>1835.0</ele>
        <time>2013-07-02T11:28:39Z</time>
      </trkpt>
      <trkpt lat="40.260533" lon="-4.908817">
        <ele>1834.0</ele>
        <time>2013-07-02T11:28:40Z</time>
      </trkpt>
      <trkpt lat="40.260483" lon="-4.908867">
        <ele>1833.0</ele>
        <time>2013-07-02T11:28:41Z</time>
      </trkpt>
      <trkpt lat="40.260450" lon="-4.908917">
        <ele>1833.0</ele>
        <time>2013-07-02T11:28:42Z</time>
      </trkpt>
      <trkpt lat="40.260400" lon="-4.908950">
        <ele>1832.0</ele>
        <time>2013-07-02T11:28:43Z</time>
      </trkpt>
      <trkpt lat="40.260350" lon="-4.909000">
        <ele>1831.0</ele>
        <time>2013-07-02T11:28:44Z</time>
      </trkpt>
      <trkpt lat="40.260283" lon="-4.909067">
        <ele>1829.0</ele>
        <time>2013-07-02T11:28:45Z</time>
      </trkpt>
      <trkpt lat="40.260217" lon="-4.909133">
        <ele>1829.0</ele>
        <time>2013-07-02T11:28:46Z</time>
      </trkpt>
      <trkpt lat="40.260150" lon="-4.909200">
        <ele>1828.0</ele>
        <time>2013-07-02T11:28:47Z</time>
      </trkpt>
      <trkpt lat="40.260100" lon="-4.909250">
        <ele>1829.0</ele>
        <time>2013-07-02T11:28:48Z</time>
      </trkpt>
      <trkpt lat="40.260050" lon="-4.909283">
        <ele>1830.0</ele>
        <time>2013-07-02T11:28:49Z</time>
      </trkpt>
      <trkpt lat="40.260017" lon="-4.909350">
        <ele>1830.0</ele>
        <time>2013-07-02T11:28:50Z</time>
      </trkpt>
      <trkpt lat="40.259967" lon="-4.909400">
        <ele>1829.0</ele>
        <time>2013-07-02T11:28:51Z</time>
      </trkpt>
      <trkpt lat="40.259950" lon="-4.909467">
        <ele>1829.0</ele>
        <time>2013-07-02T11:28:52Z</time>
      </trkpt>
      <trkpt lat="40.259917" lon="-4.909517">
        <ele>1827.0</ele>
        <time>2013-07-02T11:28:53Z</time>
      </trkpt>
      <trkpt lat="40.259883" lon="-4.909583">
        <ele>1825.0</ele>
        <time>2013-07-02T11:28:54Z</time>
      </trkpt>
      <trkpt lat="40.259833" lon="-4.909650">
        <ele>1825.0</ele>
        <time>2013-07-02T11:28:55Z</time>
      </trkpt>
      <trkpt lat="40.259800" lon="-4.909700">
        <ele>1825.0</ele>
        <time>2013-07-02T11:28:56Z</time>
      </trkpt>
      <trkpt lat="40.259783" lon="-4.909733">
        <ele>1826.0</ele>
        <time>2013-07-02T11:28:57Z</time>
      </trkpt>
      <trkpt lat="40.259767" lon="-4.909767">
        <ele>1825.0</ele>
        <time>2013-07-02T11:28:58Z</time>
      </trkpt>
      <trkpt lat="40.259750" lon="-4.909817">
        <ele>1824.0</ele>
        <time>2013-07-02T11:28:59Z</time>
      </trkpt>
      <trkpt lat="40.259717" lon="-4.909900">
        <ele>1822.0</ele>
        <time>2013-07-02T11:29:00Z</time>
      </trkpt>
      <trkpt lat="40.259683" lon="-4.909967">
        <ele>1821.0</ele>
        <time>2013-07-02T11:29:01Z</time>
      </trkpt>
      <trkpt lat="40.259650" lon="-4.910033">
        <ele>1822.0</ele>
        <time>2013-07-02T11:29:02Z</time>
      </trkpt>
      <trkpt lat="40.259633" lon="-4.910067">
        <ele>1823.0</ele>
        <time>2013-07-02T11:29:03Z</time>
      </trkpt>
      <trkpt lat="40.259633" lon="-4.910100">
        <ele>1825.0</ele>
        <time>2013-07-02T11:29:04Z</time>
      </trkpt>
      <trkpt lat="40.259617" lon="-4.910133">
        <ele>1826.0</ele>
        <time>2013-07-02T11:29:05Z</time>
      </trkpt>
      <trkpt lat="40.259617" lon="-4.910167">
        <ele>1825.0</ele>
        <time>2013-07-02T11:29:06Z</time>
      </trkpt>
      <trkpt lat="40.259600" lon="-4.910200">
        <ele>1824.0</ele>
        <time>2013-07-02T11:29:07Z</time>
      </trkpt>
      <trkpt lat="40.259583" lon="-4.910250">
        <ele>1822.0</ele>
        <time>2013-07-02T11:29:08Z</time>
      </trkpt>
      <trkpt lat="40.259567" lon="-4.910300">
        <ele>1822.0</ele>
        <time>2013-07-02T11:29:09Z</time>
      </trkpt>
      <trkpt lat="40.259533" lon="-4.910350">
        <ele>1823.0</ele>
        <time>2013-07-02T11:29:10Z</time>
      </trkpt>
      <trkpt lat="40.259517" lon="-4.910400">
        <ele>1824.0</ele>
        <time>2013-07-02T11:29:11Z</time>
      </trkpt>
      <trkpt lat="40.259483" lon="-4.910450">
        <ele>1825.0</ele>
        <time>2013-07-02T11:29:12Z</time>
      </trkpt>
      <trkpt lat="40.259467" lon="-4.910500">
        <ele>1826.0</ele>
        <time>2013-07-02T11:29:13Z</time>
      </trkpt>
      <trkpt lat="40.259433" lon="-4.910533">
        <ele>1826.0</ele>
        <time>2013-07-02T11:29:14Z</time>
      </trkpt>
      <trkpt lat="40.259417" lon="-4.910583">
        <ele>1827.0</ele>
        <time>2013-07-02T11:29:15Z</time>
      </trkpt>
      <trkpt lat="40.259400" lon="-4.910617">
        <ele>1829.0</ele>
        <time>2013-07-02T11:29:16Z</time>
      </trkpt>
      <trkpt lat="40.259400" lon="-4.910667">
        <ele>1830.0</ele>
        <time>2013-07-02T11:29:17Z</time>
      </trkpt>
      <trkpt lat="40.259383" lon="-4.910700">
        <ele>1831.0</ele>
        <time>2013-07-02T11:29:18Z</time>
      </trkpt>
      <trkpt lat="40.259350" lon="-4.910733">
        <ele>1831.0</ele>
        <time>2013-07-02T11:29:19Z</time>
      </trkpt>
      <trkpt lat="40.259317" lon="-4.910767">
        <ele>1831.0</ele>
        <time>2013-07-02T11:29:20Z</time>
      </trkpt>
      <trkpt lat="40.259267" lon="-4.910800">
        <ele>1830.0</ele>
        <time>2013-07-02T11:29:21Z</time>
      </trkpt>
      <trkpt lat="40.259233" lon="-4.910850">
        <ele>1831.0</ele>
        <time>2013-07-02T11:29:22Z</time>
      </trkpt>
      <trkpt lat="40.259183" lon="-4.910900">
        <ele>1831.0</ele>
        <time>2013-07-02T11:29:23Z</time>
      </trkpt>
      <trkpt lat="40.259150" lon="-4.910950">
        <ele>1832.0</ele>
        <time>2013-07-02T11:29:24Z</time>
      </trkpt>
      <trkpt lat="40.259117" lon="-4.911000">
        <ele>1834.0</ele>
        <time>2013-07-02T11:29:25Z</time>
      </trkpt>
      <trkpt lat="40.259067" lon="-4.911017">
        <ele>1836.0</ele>
        <time>2013-07-02T11:29:26Z</time>
      </trkpt>
      <trkpt lat="40.259050" lon="-4.911033">
        <ele>1839.0</ele>
        <time>2013-07-02T11:29:27Z</time>
      </trkpt>
      <trkpt lat="40.259033" lon="-4.911050">
        <ele>1841.0</ele>
        <time>2013-07-02T11:29:28Z</time>
      </trkpt>
      <trkpt lat="40.259033" lon="-4.911083">
        <ele>1840.0</ele>
        <time>2013-07-02T11:29:29Z</time>
      </trkpt>
      <trkpt lat="40.259017" lon="-4.911133">
        <ele>1840.0</ele>
        <time>2013-07-02T11:29:30Z</time>
      </trkpt>
      <trkpt lat="40.259000" lon="-4.911200">
        <ele>1840.0</ele>
        <time>2013-07-02T11:29:31Z</time>
      </trkpt>
      <trkpt lat="40.258983" lon="-4.911283">
        <ele>1840.0</ele>
        <time>2013-07-02T11:29:32Z</time>
      </trkpt>
      <trkpt lat="40.258967" lon="-4.911367">
        <ele>1840.0</ele>
        <time>2013-07-02T11:29:33Z</time>
      </trkpt>
      <trkpt lat="40.258950" lon="-4.911450">
        <ele>1840.0</ele>
        <time>2013-07-02T11:29:34Z</time>
      </trkpt>
      <trkpt lat="40.258950" lon="-4.911517">
        <ele>1841.0</ele>
        <time>2013-07-02T11:29:35Z</time>
      </trkpt>
      <trkpt lat="40.258933" lon="-4.911600">
        <ele>1841.0</ele>
        <time>2013-07-02T11:29:36Z</time>
      </trkpt>
      <trkpt lat="40.258933" lon="-4.911667">
        <ele>1840.0</ele>
        <time>2013-07-02T11:29:37Z</time>
      </trkpt>
      <trkpt lat="40.258917" lon="-4.911767">
        <ele>1839.0</ele>
        <time>2013-07-02T11:29:38Z</time>
      </trkpt>
      <trkpt lat="40.258883" lon="-4.911867">
        <ele>1838.0</ele>
        <time>2013-07-02T11:29:39Z</time>
      </trkpt>
      <trkpt lat="40.258867" lon="-4.911967">
        <ele>1840.0</ele>
        <time>2013-07-02T11:29:40Z</time>
      </trkpt>
      <trkpt lat="40.258850" lon="-4.912067">
        <ele>1842.0</ele>
        <time>2013-07-02T11:29:41Z</time>
      </trkpt>
      <trkpt lat="40.258833" lon="-4.912150">
        <ele>1845.0</ele>
        <time>2013-07-02T11:29:42Z</time>
      </trkpt>
      <trkpt lat="40.258833" lon="-4.912217">
        <ele>1848.0</ele>
        <time>2013-07-02T11:29:43Z</time>
      </trkpt>
      <trkpt lat="40.258817" lon="-4.912267">
        <ele>1851.0</ele>
        <time>2013-07-02T11:29:44Z</time>
      </trkpt>
      <trkpt lat="40.258817" lon="-4.912317">
        <ele>1853.0</ele>
        <time>2013-07-02T11:29:45Z</time>
      </trkpt>
      <trkpt lat="40.258833" lon="-4.912383">
        <ele>1855.0</ele>
        <time>2013-07-02T11:29:46Z</time>
      </trkpt>
      <trkpt lat="40.258850" lon="-4.912450">
        <ele>1855.0</ele>
        <time>2013-07-02T11:29:47Z</time>
      </trkpt>
      <trkpt lat="40.258900" lon="-4.912533">
        <ele>1856.0</ele>
        <time>2013-07-02T11:29:48Z</time>
      </trkpt>
      <trkpt lat="40.258950" lon="-4.912633">
        <ele>1857.0</ele>
        <time>2013-07-02T11:29:49Z</time>
      </trkpt>
      <trkpt lat="40.259000" lon="-4.912717">
        <ele>1859.0</ele>
        <time>2013-07-02T11:29:50Z</time>
      </trkpt>
      <trkpt lat="40.259067" lon="-4.912783">
        <ele>1860.0</ele>
        <time>2013-07-02T11:29:51Z</time>
      </trkpt>
      <trkpt lat="40.259117" lon="-4.912867">
        <ele>1860.0</ele>
        <time>2013-07-02T11:29:52Z</time>
      </trkpt>
      <trkpt lat="40.259200" lon="-4.912917">
        <ele>1860.0</ele>
        <time>2013-07-02T11:29:53Z</time>
      </trkpt>
      <trkpt lat="40.259283" lon="-4.912967">
        <ele>1861.0</ele>
        <time>2013-07-02T11:29:54Z</time>
      </trkpt>
      <trkpt lat="40.259367" lon="-4.913017">
        <ele>1862.0</ele>
        <time>2013-07-02T11:29:55Z</time>
      </trkpt>
      <trkpt lat="40.259450" lon="-4.913067">
        <ele>1864.0</ele>
        <time>2013-07-02T11:29:56Z</time>
      </trkpt>
      <trkpt lat="40.259533" lon="-4.913100">
        <ele>1867.0</ele>
        <time>2013-07-02T11:29:57Z</time>
      </trkpt>
      <trkpt lat="40.259633" lon="-4.913100">
        <ele>1869.0</ele>
        <time>2013-07-02T11:29:58Z</time>
      </trkpt>
      <trkpt lat="40.259733" lon="-4.913100">
        <ele>1871.0</ele>
        <time>2013-07-02T11:29:59Z</time>
      </trkpt>
      <trkpt lat="40.259850" lon="-4.913100">
        <ele>1873.0</ele>
        <time>2013-07-02T11:30:00Z</time>
      </trkpt>
      <trkpt lat="40.259967" lon="-4.913083">
        <ele>1876.0</ele>
        <time>2013-07-02T11:30:01Z</time>
      </trkpt>
      <trkpt lat="40.260067" lon="-4.913033">
        <ele>1879.0</ele>
        <time>2013-07-02T11:30:02Z</time>
      </trkpt>
      <trkpt lat="40.260167" lon="-4.912983">
        <ele>1882.0</ele>
        <time>2013-07-02T11:30:03Z</time>
      </trkpt>
      <trkpt lat="40.260250" lon="-4.912900">
        <ele>1885.0</ele>
        <time>2013-07-02T11:30:04Z</time>
      </trkpt>
      <trkpt lat="40.260333" lon="-4.912783">
        <ele>1888.0</ele>
        <time>2013-07-02T11:30:05Z</time>
      </trkpt>
      <trkpt lat="40.260400" lon="-4.912683">
        <ele>1890.0</ele>
        <time>2013-07-02T11:30:06Z</time>
      </trkpt>
      <trkpt lat="40.260450" lon="-4.912567">
        <ele>1893.0</ele>
        <time>2013-07-02T11:30:07Z</time>
      </trkpt>
      <trkpt lat="40.260467" lon="-4.912467">
        <ele>1895.0</ele>
        <time>2013-07-02T11:30:08Z</time>
      </trkpt>
      <trkpt lat="40.260467" lon="-4.912367">
        <ele>1897.0</ele>
        <time>2013-07-02T11:30:09Z</time>
      </trkpt>
      <trkpt lat="40.260450" lon="-4.912267">
        <ele>1898.0</ele>
        <time>2013-07-02T11:30:10Z</time>
      </trkpt>
      <trkpt lat="40.260417" lon="-4.912217">
        <ele>1900.0</ele>
        <time>2013-07-02T11:30:11Z</time>
      </trkpt>
      <trkpt lat="40.260383" lon="-4.912167">
        <ele>1902.0</ele>
        <time>2013-07-02T11:30:12Z</time>
      </trkpt>
      <trkpt lat="40.260350" lon="-4.912150">
        <ele>1903.0</ele>
        <time>2013-07-02T11:30:13Z</time>
      </trkpt>
      <trkpt lat="40.260317" lon="-4.912133">
        <ele>1904.0</ele>
        <time>2013-07-02T11:30:14Z</time>
      </trkpt>
      <trkpt lat="40.260283" lon="-4.912117">
        <ele>1905.0</ele>
        <time>2013-07-02T11:30:15Z</time>
      </trkpt>
      <trkpt lat="40.260233" lon="-4.912117">
        <ele>1906.0</ele>
        <time>2013-07-02T11:30:16Z</time>
      </trkpt>
      <trkpt lat="40.260200" lon="-4.912150">
        <ele>1907.0</ele>
        <time>2013-07-02T11:30:17Z</time>
      </trkpt>
      <trkpt lat="40.260150" lon="-4.912183">
        <ele>1908.0</ele>
        <time>2013-07-02T11:30:18Z</time>
      </trkpt>
      <trkpt lat="40.260117" lon="-4.912217">
        <ele>1909.0</ele>
        <time>2013-07-02T11:30:19Z</time>
      </trkpt>
      <trkpt lat="40.260067" lon="-4.912250">
        <ele>1910.0</ele>
        <time>2013-07-02T11:30:20Z</time>
      </trkpt>
      <trkpt lat="40.260033" lon="-4.912267">
        <ele>1911.0</ele>
        <time>2013-07-02T11:30:21Z</time>
      </trkpt>
      <trkpt lat="40.260000" lon="-4.912300">
        <ele>1912.0</ele>
        <time>2013-07-02T11:30:22Z</time>
      </trkpt>
      <trkpt lat="40.259967" lon="-4.912333">
        <ele>1913.0</ele>
        <time>2013-07-02T11:30:23Z</time>
      </trkpt>
      <trkpt lat="40.259933" lon="-4.912367">
        <ele>1913.0</ele>
        <time>2013-07-02T11:30:24Z</time>
      </trkpt>
      <trkpt lat="40.259883" lon="-4.912400">
        <ele>1913.0</ele>
        <time>2013-07-02T11:30:25Z</time>
      </trkpt>
      <trkpt lat="40.259833" lon="-4.912433">
        <ele>1913.0</ele>
        <time>2013-07-02T11:30:26Z</time>
      </trkpt>
      <trkpt lat="40.259783" lon="-4.912483">
        <ele>1914.0</ele>
        <time>2013-07-02T11:30:27Z</time>
      </trkpt>
      <trkpt lat="40.259733" lon="-4.912533">
        <ele>1915.0</ele>
        <time>2013-07-02T11:30:28Z</time>
      </trkpt>
      <trkpt lat="40.259700" lon="-4.912567">
        <ele>1918.0</ele>
        <time>2013-07-02T11:30:29Z</time>
      </trkpt>
      <trkpt lat="40.259667" lon="-4.912617">
        <ele>1921.0</ele>
        <time>2013-07-02T11:30:30Z</time>
      </trkpt>
      <trkpt lat="40.259650" lon="-4.912650">
        <ele>1924.0</ele>
        <time>2013-07-02T11:30:31Z</time>
      </trkpt>
      <trkpt lat="40.259633" lon="-4.912667">
        <ele>1925.0</ele>
        <time>2013-07-02T11:30:32Z</time>
      </trkpt>
      <trkpt lat="40.259617" lon="-4.912700">
        <ele>1926.0</ele>
        <time>2013-07-02T11:30:33Z</time>
      </trkpt>
      <trkpt lat="40.259600" lon="-4.912733">
        <ele>1925.0</ele>
        <time>2013-07-02T11:30:34Z</time>
      </trkpt>
      <trkpt lat="40.259583" lon="-4.912800">
        <ele>1924.0</ele>
        <time>2013-07-02T11:30:35Z</time>
      </trkpt>
      <trkpt lat="40.259600" lon="-4.912900">
        <ele>1924.0</ele>
        <time>2013-07-02T11:30:36Z</time>
      </trkpt>
      <trkpt lat="40.259633" lon="-4.912983">
        <ele>1924.0</ele>
        <time>2013-07-02T11:30:37Z</time>
      </trkpt>
      <trkpt lat="40.259717" lon="-4.913050">
        <ele>1925.0</ele>
        <time>2013-07-02T11:30:38Z</time>
      </trkpt>
      <trkpt lat="40.259800" lon="-4.913100">
        <ele>1926.0</ele>
        <time>2013-07-02T11:30:39Z</time>
      </trkpt>
      <trkpt lat="40.259867" lon="-4.913133">
        <ele>1928.0</ele>
        <time>2013-07-02T11:30:40Z</time>
      </trkpt>
      <trkpt lat="40.259933" lon="-4.913183">
        <ele>1929.0</ele>
        <time>2013-07-02T11:30:41Z</time>
      </trkpt>
      <trkpt lat="40.260017" lon="-4.913217">
        <ele>1931.0</ele>
        <time>2013-07-02T11:30:42Z</time>
      </trkpt>
      <trkpt lat="40.260083" lon="-4.913250">
        <ele>1932.0</ele>
        <time>2013-07-02T11:30:43Z</time>
      </trkpt>
      <trkpt lat="40.260167" lon="-4.913250">
        <ele>1934.0</ele>
        <time>2013-07-02T11:30:44Z</time>
      </trkpt>
      <trkpt lat="40.260250" lon="-4.913267">
        <ele>1936.0</ele>
        <time>2013-07-02T11:30:45Z</time>
      </trkpt>
      <trkpt lat="40.260317" lon="-4.913267">
        <ele>1938.0</ele>
        <time>2013-07-02T11:30:46Z</time>
      </trkpt>
      <trkpt lat="40.260400" lon="-4.913250">
        <ele>1940.0</ele>
        <time>2013-07-02T11:30:47Z</time>
      </trkpt>
      <trkpt lat="40.260467" lon="-4.913233">
        <ele>1942.0</ele>
        <time>2013-07-02T11:30:48Z</time>
      </trkpt>
      <trkpt lat="40.260550" lon="-4.913200">
        <ele>1942.0</ele>
        <time>2013-07-02T11:30:49Z</time>
      </trkpt>
      <trkpt lat="40.260633" lon="-4.913150">
        <ele>1942.0</ele>
        <time>2013-07-02T11:30:50Z</time>
      </trkpt>
      <trkpt lat="40.260717" lon="-4.913083">
        <ele>1943.0</ele>
        <time>2013-07-02T11:30:51Z</time>
      </trkpt>
      <trkpt lat="40.260800" lon="-4.913017">
        <ele>1944.0</ele>
        <time>2013-07-02T11:30:52Z</time>
      </trkpt>
      <trkpt lat="40.260900" lon="-4.912933">
        <ele>1945.0</ele>
        <time>2013-07-02T11:30:53Z</time>
      </trkpt>
      <trkpt lat="40.260983" lon="-4.912883">
        <ele>1947.0</ele>
        <time>2013-07-02T11:30:54Z</time>
      </trkpt>
      <trkpt lat="40.261067" lon="-4.912833">
        <ele>1948.0</ele>
        <time>2013-07-02T11:30:55Z</time>
      </trkpt>
      <trkpt lat="40.261150" lon="-4.912767">
        <ele>1949.0</ele>
        <time>2013-07-02T11:30:56Z</time>
      </trkpt>
      <trkpt lat="40.261233" lon="-4.912667">
        <ele>1950.0</ele>
        <time>2013-07-02T11:30:57Z</time>
      </trkpt>
      <trkpt lat="40.261317" lon="-4.912567">
        <ele>1951.0</ele>
        <time>2013-07-02T11:30:58Z</time>
      </trkpt>
      <trkpt lat="40.261383" lon="-4.912450">
        <ele>1952.0</ele>
        <time>2013-07-02T11:30:59Z</time>
      </trkpt>
      <trkpt lat="40.261467" lon="-4.912350">
        <ele>1953.0</ele>
        <time>2013-07-02T11:31:00Z</time>
      </trkpt>
      <trkpt lat="40.261517" lon="-4.912250">
        <ele>1955.0</ele>
        <time>2013-07-02T11:31:01Z</time>
      </trkpt>
      <trkpt lat="40.261583" lon="-4.912133">
        <ele>1956.0</ele>
        <time>2013-07-02T11:31:02Z</time>
      </trkpt>
      <trkpt lat="40.261633" lon="-4.912017">
        <ele>1956.0</ele>
        <time>2013-07-02T11:31:03Z</time>
      </trkpt>
      <trkpt lat="40.261683" lon="-4.911900">
        <ele>1957.0</ele>
        <time>2013-07-02T11:31:04Z</time>
      </trkpt>
      <trkpt lat="40.261733" lon="-4.911750">
        <ele>1957.0</ele>
        <time>2013-07-02T11:31:05Z</time>
      </trkpt>
      <trkpt lat="40.261783" lon="-4.911617">
        <ele>1958.0</ele>
        <time>2013-07-02T11:31:06Z</time>
      </trkpt>
      <trkpt lat="40.261833" lon="-4.911500">
        <ele>1960.0</ele>
        <time>2013-07-02T11:31:07Z</time>
      </trkpt>
      <trkpt lat="40.261867" lon="-4.911383">
        <ele>1960.0</ele>
        <time>2013-07-02T11:31:08Z</time>
      </trkpt>
      <trkpt lat="40.261900" lon="-4.911250">
        <ele>1961.0</ele>
        <time>2013-07-02T11:31:09Z</time>
      </trkpt>
      <trkpt lat="40.261933" lon="-4.911133">
        <ele>1961.0</ele>
        <time>2013-07-02T11:31:10Z</time>
      </trkpt>
      <trkpt lat="40.261950" lon="-4.911017">
        <ele>1961.0</ele>
        <time>2013-07-02T11:31:11Z</time>
      </trkpt>
      <trkpt lat="40.261967" lon="-4.910917">
        <ele>1961.0</ele>
        <time>2013-07-02T11:31:12Z</time>
      </trkpt>
      <trkpt lat="40.261950" lon="-4.910800">
        <ele>1960.0</ele>
        <time>2013-07-02T11:31:13Z</time>
      </trkpt>
      <trkpt lat="40.261933" lon="-4.910667">
        <ele>1960.0</ele>
        <time>2013-07-02T11:31:14Z</time>
      </trkpt>
      <trkpt lat="40.261933" lon="-4.910550">
        <ele>1960.0</ele>
        <time>2013-07-02T11:31:15Z</time>
      </trkpt>
      <trkpt lat="40.261917" lon="-4.910417">
        <ele>1962.0</ele>
        <time>2013-07-02T11:31:16Z</time>
      </trkpt>
      <trkpt lat="40.261900" lon="-4.910300">
        <ele>1963.0</ele>
        <time>2013-07-02T11:31:17Z</time>
      </trkpt>
      <trkpt lat="40.261883" lon="-4.910200">
        <ele>1963.0</ele>
        <time>2013-07-02T11:31:18Z</time>
      </trkpt>
      <trkpt lat="40.261867" lon="-4.910117">
        <ele>1964.0</ele>
        <time>2013-07-02T11:31:19Z</time>
      </trkpt>
      <trkpt lat="40.261833" lon="-4.910033">
        <ele>1964.0</ele>
        <time>2013-07-02T11:31:20Z</time>
      </trkpt>
      <trkpt lat="40.261783" lon="-4.909967">
        <ele>1963.0</ele>
        <time>2013-07-02T11:31:21Z</time>
      </trkpt>
      <trkpt lat="40.261733" lon="-4.909917">
        <ele>1963.0</ele>
        <time>2013-07-02T11:31:22Z</time>
      </trkpt>
      <trkpt lat="40.261667" lon="-4.909917">
        <ele>1964.0</ele>
        <time>2013-07-02T11:31:23Z</time>
      </trkpt>
      <trkpt lat="40.261617" lon="-4.909950">
        <ele>1965.0</ele>
        <time>2013-07-02T11:31:24Z</time>
      </trkpt>
      <trkpt lat="40.261600" lon="-4.909983">
        <ele>1967.0</ele>
        <time>2013-07-02T11:31:25Z</time>
      </trkpt>
      <trkpt lat="40.261600" lon="-4.910000">
        <ele>1968.0</ele>
        <time>2013-07-02T11:31:26Z</time>
      </trkpt>
      <trkpt lat="40.261583" lon="-4.910033">
        <ele>1969.0</ele>
        <time>2013-07-02T11:31:27Z</time>
      </trkpt>
      <trkpt lat="40.261583" lon="-4.910067">
        <ele>1967.0</ele>
        <time>2013-07-02T11:31:28Z</time>
      </trkpt>
      <trkpt lat="40.261567" lon="-4.910133">
        <ele>1967.0</ele>
        <time>2013-07-02T11:31:29Z</time>
      </trkpt>
      <trkpt lat="40.261567" lon="-4.910217">
        <ele>1967.0</ele>
        <time>2013-07-02T11:31:30Z</time>
      </trkpt>
      <trkpt lat="40.261583" lon="-4.910317">
        <ele>1968.0</ele>
        <time>2013-07-02T11:31:31Z</time>
      </trkpt>
      <trkpt lat="40.261617" lon="-4.910400">
        <ele>1969.0</ele>
        <time>2013-07-02T11:31:32Z</time>
      </trkpt>
      <trkpt lat="40.261667" lon="-4.910450">
        <ele>1969.0</ele>
        <time>2013-07-02T11:31:33Z</time>
      </trkpt>
      <trkpt lat="40.261733" lon="-4.910500">
        <ele>1969.0</ele>
        <time>2013-07-02T11:31:34Z</time>
      </trkpt>
      <trkpt lat="40.261800" lon="-4.910567">
        <ele>1969.0</ele>
        <time>2013-07-02T11:31:35Z</time>
      </trkpt>
      <trkpt lat="40.261867" lon="-4.910617">
        <ele>1968.0</ele>
        <time>2013-07-02T11:31:36Z</time>
      </trkpt>
      <trkpt lat="40.261950" lon="-4.910683">
        <ele>1967.0</ele>
        <time>2013-07-02T11:31:37Z</time>
      </trkpt>
      <trkpt lat="40.262033" lon="-4.910733">
        <ele>1966.0</ele>
        <time>2013-07-02T11:31:38Z</time>
      </trkpt>
      <trkpt lat="40.262117" lon="-4.910767">
        <ele>1965.0</ele>
        <time>2013-07-02T11:31:39Z</time>
      </trkpt>
      <trkpt lat="40.262233" lon="-4.910817">
        <ele>1965.0</ele>
        <time>2013-07-02T11:31:40Z</time>
      </trkpt>
      <trkpt lat="40.262333" lon="-4.910867">
        <ele>1966.0</ele>
        <time>2013-07-02T11:31:41Z</time>
      </trkpt>
      <trkpt lat="40.262433" lon="-4.910900">
        <ele>1967.0</ele>
        <time>2013-07-02T11:31:42Z</time>
      </trkpt>
      <trkpt lat="40.262533" lon="-4.910933">
        <ele>1968.0</ele>
        <time>2013-07-02T11:31:43Z</time>
      </trkpt>
      <trkpt lat="40.262633" lon="-4.910983">
        <ele>1969.0</ele>
        <time>2013-07-02T11:31:44Z</time>
      </trkpt>
      <trkpt lat="40.262717" lon="-4.911000">
        <ele>1969.0</ele>
        <time>2013-07-02T11:31:45Z</time>
      </trkpt>
      <trkpt lat="40.262800" lon="-4.911017">
        <ele>1970.0</ele>
        <time>2013-07-02T11:31:46Z</time>
      </trkpt>
      <trkpt lat="40.262900" lon="-4.911033">
        <ele>1970.0</ele>
        <time>2013-07-02T11:31:47Z</time>
      </trkpt>
      <trkpt lat="40.262983" lon="-4.911050">
        <ele>1970.0</ele>
        <time>2013-07-02T11:31:48Z</time>
      </trkpt>
      <trkpt lat="40.263083" lon="-4.911067">
        <ele>1969.0</ele>
        <time>2013-07-02T11:31:49Z</time>
      </trkpt>
      <trkpt lat="40.263183" lon="-4.911100">
        <ele>1969.0</ele>
        <time>2013-07-02T11:31:50Z</time>
      </trkpt>
      <trkpt lat="40.263283" lon="-4.911133">
        <ele>1970.0</ele>
        <time>2013-07-02T11:31:51Z</time>
      </trkpt>
      <trkpt lat="40.263367" lon="-4.911167">
        <ele>1971.0</ele>
        <time>2013-07-02T11:31:52Z</time>
      </trkpt>
      <trkpt lat="40.263450" lon="-4.911217">
        <ele>1973.0</ele>
        <time>2013-07-02T11:31:53Z</time>
      </trkpt>
      <trkpt lat="40.263533" lon="-4.911283">
        <ele>1974.0</ele>
        <time>2013-07-02T11:31:54Z</time>
      </trkpt>
      <trkpt lat="40.263600" lon="-4.911350">
        <ele>1976.0</ele>
        <time>2013-07-02T11:31:55Z</time>
      </trkpt>
      <trkpt lat="40.263667" lon="-4.911400">
        <ele>1977.0</ele>
        <time>2013-07-02T11:31:56Z</time>
      </trkpt>
      <trkpt lat="40.263733" lon="-4.911467">
        <ele>1979.0</ele>
        <time>2013-07-02T11:31:57Z</time>
      </trkpt>
      <trkpt lat="40.263783" lon="-4.911533">
        <ele>1981.0</ele>
        <time>2013-07-02T11:31:58Z</time>
      </trkpt>
      <trkpt lat="40.263833" lon="-4.911600">
        <ele>1983.0</ele>
        <time>2013-07-02T11:31:59Z</time>
      </trkpt>
      <trkpt lat="40.263883" lon="-4.911683">
        <ele>1985.0</ele>
        <time>2013-07-02T11:32:00Z</time>
      </trkpt>
      <trkpt lat="40.263933" lon="-4.911750">
        <ele>1986.0</ele>
        <time>2013-07-02T11:32:01Z</time>
      </trkpt>
      <trkpt lat="40.263983" lon="-4.911833">
        <ele>1988.0</ele>
        <time>2013-07-02T11:32:02Z</time>
      </trkpt>
      <trkpt lat="40.264033" lon="-4.911900">
        <ele>1989.0</ele>
        <time>2013-07-02T11:32:03Z</time>
      </trkpt>
      <trkpt lat="40.264083" lon="-4.911983">
        <ele>1990.0</ele>
        <time>2013-07-02T11:32:04Z</time>
      </trkpt>
      <trkpt lat="40.264150" lon="-4.912050">
        <ele>1991.0</ele>
        <time>2013-07-02T11:32:05Z</time>
      </trkpt>
      <trkpt lat="40.264217" lon="-4.912133">
        <ele>1993.0</ele>
        <time>2013-07-02T11:32:06Z</time>
      </trkpt>
      <trkpt lat="40.264283" lon="-4.912200">
        <ele>1995.0</ele>
        <time>2013-07-02T11:32:07Z</time>
      </trkpt>
      <trkpt lat="40.264333" lon="-4.912267">
        <ele>1998.0</ele>
        <time>2013-07-02T11:32:08Z</time>
      </trkpt>
      <trkpt lat="40.264417" lon="-4.912300">
        <ele>2001.0</ele>
        <time>2013-07-02T11:32:09Z</time>
      </trkpt>
      <trkpt lat="40.264483" lon="-4.912317">
        <ele>2003.0</ele>
        <time>2013-07-02T11:32:10Z</time>
      </trkpt>
      <trkpt lat="40.264583" lon="-4.912317">
        <ele>2004.0</ele>
        <time>2013-07-02T11:32:11Z</time>
      </trkpt>
      <trkpt lat="40.264667" lon="-4.912283">
        <ele>2004.0</ele>
        <time>2013-07-02T11:32:12Z</time>
      </trkpt>
      <trkpt lat="40.264750" lon="-4.912217">
        <ele>2006.0</ele>
        <time>2013-07-02T11:32:13Z</time>
      </trkpt>
      <trkpt lat="40.264833" lon="-4.912133">
        <ele>2007.0</ele>
        <time>2013-07-02T11:32:14Z</time>
      </trkpt>
      <trkpt lat="40.264883" lon="-4.912033">
        <ele>2007.0</ele>
        <time>2013-07-02T11:32:15Z</time>
      </trkpt>
      <trkpt lat="40.264933" lon="-4.911917">
        <ele>2008.0</ele>
        <time>2013-07-02T11:32:16Z</time>
      </trkpt>
      <trkpt lat="40.264967" lon="-4.911800">
        <ele>2009.0</ele>
        <time>2013-07-02T11:32:17Z</time>
      </trkpt>
      <trkpt lat="40.264983" lon="-4.911683">
        <ele>2010.0</ele>
        <time>2013-07-02T11:32:18Z</time>
      </trkpt>
      <trkpt lat="40.265000" lon="-4.911567">
        <ele>2011.0</ele>
        <time>2013-07-02T11:32:19Z</time>
      </trkpt>
      <trkpt lat="40.265000" lon="-4.911450">
        <ele>2013.0</ele>
        <time>2013-07-02T11:32:20Z</time>
      </trkpt>
      <trkpt lat="40.265000" lon="-4.911333">
        <ele>2014.0</ele>
        <time>2013-07-02T11:32:21Z</time>
      </trkpt>
      <trkpt lat="40.265000" lon="-4.911233">
        <ele>2015.0</ele>
        <time>2013-07-02T11:32:22Z</time>
      </trkpt>
      <trkpt lat="40.264983" lon="-4.911117">
        <ele>2016.0</ele>
        <time>2013-07-02T11:32:23Z</time>
      </trkpt>
      <trkpt lat="40.264950" lon="-4.911033">
        <ele>2016.0</ele>
        <time>2013-07-02T11:32:24Z</time>
      </trkpt>
      <trkpt lat="40.264900" lon="-4.910933">
        <ele>2017.0</ele>
        <time>2013-07-02T11:32:25Z</time>
      </trkpt>
      <trkpt lat="40.264850" lon="-4.910883">
        <ele>2019.0</ele>
        <time>2013-07-02T11:32:26Z</time>
      </trkpt>
      <trkpt lat="40.264800" lon="-4.910833">
        <ele>2021.0</ele>
        <time>2013-07-02T11:32:27Z</time>
      </trkpt>
      <trkpt lat="40.264750" lon="-4.910817">
        <ele>2023.0</ele>
        <time>2013-07-02T11:32:28Z</time>
      </trkpt>
      <trkpt lat="40.264700" lon="-4.910800">
        <ele>2025.0</ele>
        <time>2013-07-02T11:32:29Z</time>
      </trkpt>
      <trkpt lat="40.264650" lon="-4.910800">
        <ele>2027.0</ele>
        <time>2013-07-02T11:32:30Z</time>
      </trkpt>
      <trkpt lat="40.264617" lon="-4.910833">
        <ele>2028.0</ele>
        <time>2013-07-02T11:32:31Z</time>
      </trkpt>
      <trkpt lat="40.264567" lon="-4.910883">
        <ele>2029.0</ele>
        <time>2013-07-02T11:32:32Z</time>
      </trkpt>
      <trkpt lat="40.264550" lon="-4.910933">
        <ele>2031.0</ele>
        <time>2013-07-02T11:32:33Z</time>
      </trkpt>
      <trkpt lat="40.264533" lon="-4.911017">
        <ele>2033.0</ele>
        <time>2013-07-02T11:32:34Z</time>
      </trkpt>
      <trkpt lat="40.264550" lon="-4.911100">
        <ele>2035.0</ele>
        <time>2013-07-02T11:32:35Z</time>
      </trkpt>
      <trkpt lat="40.264567" lon="-4.911167">
        <ele>2036.0</ele>
        <time>2013-07-02T11:32:36Z</time>
      </trkpt>
      <trkpt lat="40.264617" lon="-4.911250">
        <ele>2037.0</ele>
        <time>2013-07-02T11:32:37Z</time>
      </trkpt>
      <trkpt lat="40.264667" lon="-4.911317">
        <ele>2038.0</ele>
        <time>2013-07-02T11:32:38Z</time>
      </trkpt>
      <trkpt lat="40.264717" lon="-4.911383">
        <ele>2040.0</ele>
        <time>2013-07-02T11:32:39Z</time>
      </trkpt>
      <trkpt lat="40.264783" lon="-4.911450">
        <ele>2042.0</ele>
        <time>2013-07-02T11:32:40Z</time>
      </trkpt>
      <trkpt lat="40.264833" lon="-4.911517">
        <ele>2044.0</ele>
        <time>2013-07-02T11:32:41Z</time>
      </trkpt>
      <trkpt lat="40.264900" lon="-4.911583">
        <ele>2046.0</ele>
        <time>2013-07-02T11:32:42Z</time>
      </trkpt>
      <trkpt lat="40.264967" lon="-4.911650">
        <ele>2049.0</ele>
        <time>2013-07-02T11:32:43Z</time>
      </trkpt>
      <trkpt lat="40.265033" lon="-4.911717">
        <ele>2052.0</ele>
        <time>2013-07-02T11:32:44Z</time>
      </trkpt>
      <trkpt lat="40.265083" lon="-4.911783">
        <ele>2055.0</ele>
        <time>2013-07-02T11:32:45Z</time>
      </trkpt>
      <trkpt lat="40.265117" lon="-4.911850">
        <ele>2058.0</ele>
        <time>2013-07-02T11:32:46Z</time>
      </trkpt>
      <trkpt lat="40.265150" lon="-4.911917">
        <ele>2060.0</ele>
        <time>2013-07-02T11:32:47Z</time>
      </trkpt>
      <trkpt lat="40.265200" lon="-4.911983">
        <ele>2061.0</ele>
        <time>2013-07-02T11:32:48Z</time>
      </trkpt>
      <trkpt lat="40.265267" lon="-4.912033">
        <ele>2062.0</ele>
        <time>2013-07-02T11:32:49Z</time>
      </trkpt>
      <trkpt lat="40.265350" lon="-4.912067">
        <ele>2063.0</ele>
        <time>2013-07-02T11:32:50Z</time>
      </trkpt>
      <trkpt lat="40.265450" lon="-4.912067">
        <ele>2065.0</ele>
        <time>2013-07-02T11:32:51Z</time>
      </trkpt>
      <trkpt lat="40.265550" lon="-4.912050">
        <ele>2067.0</ele>
        <time>2013-07-02T11:32:52Z</time>
      </trkpt>
      <trkpt lat="40.265650" lon="-4.912017">
        <ele>2069.0</ele>
        <time>2013-07-02T11:32:53Z</time>
      </trkpt>
      <trkpt lat="40.265733" lon="-4.911950">
        <ele>2071.0</ele>
        <time>2013-07-02T11:32:54Z</time>
      </trkpt>
      <trkpt lat="40.265817" lon="-4.911883">
        <ele>2072.0</ele>
        <time>2013-07-02T11:32:55Z</time>
      </trkpt>
      <trkpt lat="40.265900" lon="-4.911800">
        <ele>2073.0</ele>
        <time>2013-07-02T11:32:56Z</time>
      </trkpt>
      <trkpt lat="40.265983" lon="-4.911717">
        <ele>2074.0</ele>
        <time>2013-07-02T11:32:57Z</time>
      </trkpt>
      <trkpt lat="40.266083" lon="-4.911650">
        <ele>2076.0</ele>
        <time>2013-07-02T11:32:58Z</time>
      </trkpt>
      <trkpt lat="40.266167" lon="-4.911550">
        <ele>2077.0</ele>
        <time>2013-07-02T11:32:59Z</time>
      </trkpt>
      <trkpt lat="40.266233" lon="-4.911450">
        <ele>2078.0</ele>
        <time>2013-07-02T11:33:00Z</time>
      </trkpt>
      <trkpt lat="40.266283" lon="-4.911317">
        <ele>2080.0</ele>
        <time>2013-07-02T11:33:01Z</time>
      </trkpt>
      <trkpt lat="40.266333" lon="-4.911200">
        <ele>2082.0</ele>
        <time>2013-07-02T11:33:02Z</time>
      </trkpt>
      <trkpt lat="40.266367" lon="-4.911100">
        <ele>2084.0</ele>
        <time>2013-07-02T11:33:03Z</time>
      </trkpt>
      <trkpt lat="40.266433" lon="-4.911000">
        <ele>2086.0</ele>
        <time>2013-07-02T11:33:04Z</time>
      </trkpt>
      <trkpt lat="40.266500" lon="-4.910900">
        <ele>2088.0</ele>
        <time>2013-07-02T11:33:05Z</time>
      </trkpt>
      <trkpt lat="40.266567" lon="-4.910800">
        <ele>2090.0</ele>
        <time>2013-07-02T11:33:06Z</time>
      </trkpt>
      <trkpt lat="40.266633" lon="-4.910683">
        <ele>2093.0</ele>
        <time>2013-07-02T11:33:07Z</time>
      </trkpt>
      <trkpt lat="40.266683" lon="-4.910583">
        <ele>2097.0</ele>
        <time>2013-07-02T11:33:08Z</time>
      </trkpt>
      <trkpt lat="40.266717" lon="-4.910483">
        <ele>2101.0</ele>
        <time>2013-07-02T11:33:09Z</time>
      </trkpt>
      <trkpt lat="40.266767" lon="-4.910383">
        <ele>2104.0</ele>
        <time>2013-07-02T11:33:10Z</time>
      </trkpt>
      <trkpt lat="40.266800" lon="-4.910283">
        <ele>2106.0</ele>
        <time>2013-07-02T11:33:11Z</time>
      </trkpt>
      <trkpt lat="40.266817" lon="-4.910167">
        <ele>2108.0</ele>
        <time>2013-07-02T11:33:12Z</time>
      </trkpt>
      <trkpt lat="40.266833" lon="-4.910050">
        <ele>2111.0</ele>
        <time>2013-07-02T11:33:13Z</time>
      </trkpt>
      <trkpt lat="40.266817" lon="-4.909933">
        <ele>2113.0</ele>
        <time>2013-07-02T11:33:14Z</time>
      </trkpt>
      <trkpt lat="40.266783" lon="-4.909817">
        <ele>2116.0</ele>
        <time>2013-07-02T11:33:15Z</time>
      </trkpt>
      <trkpt lat="40.266750" lon="-4.909700">
        <ele>2119.0</ele>
        <time>2013-07-02T11:33:16Z</time>
      </trkpt>
      <trkpt lat="40.266733" lon="-4.909583">
        <ele>2122.0</ele>
        <time>2013-07-02T11:33:17Z</time>
      </trkpt>
      <trkpt lat="40.266683" lon="-4.909500">
        <ele>2124.0</ele>
        <time>2013-07-02T11:33:18Z</time>
      </trkpt>
      <trkpt lat="40.266633" lon="-4.909450">
        <ele>2126.0</ele>
        <time>2013-07-02T11:33:19Z</time>
      </trkpt>
      <trkpt lat="40.266567" lon="-4.909400">
        <ele>2128.0</ele>
        <time>2013-07-02T11:33:20Z</time>
      </trkpt>
      <trkpt lat="40.266500" lon="-4.909383">
        <ele>2130.0</ele>
        <time>2013-07-02T11:33:21Z</time>
      </trkpt>
      <trkpt lat="40.266433" lon="-4.909350">
        <ele>2132.0</ele>
        <time>2013-07-02T11:33:22Z</time>
      </trkpt>
      <trkpt lat="40.266383" lon="-4.909333">
        <ele>2133.0</ele>
        <time>2013-07-02T11:33:23Z</time>
      </trkpt>
      <trkpt lat="40.266333" lon="-4.909317">
        <ele>2134.0</ele>
        <time>2013-07-02T11:33:24Z</time>
      </trkpt>
      <trkpt lat="40.266283" lon="-4.909317">
        <ele>2135.0</ele>
        <time>2013-07-02T11:33:25Z</time>
      </trkpt>
      <trkpt lat="40.266250" lon="-4.909333">
        <ele>2136.0</ele>
        <time>2013-07-02T11:33:26Z</time>
      </trkpt>
      <trkpt lat="40.266217" lon="-4.909367">
        <ele>2136.0</ele>
        <time>2013-07-02T11:33:27Z</time>
      </trkpt>
      <trkpt lat="40.266183" lon="-4.909417">
        <ele>2136.0</ele>
        <time>2013-07-02T11:33:28Z</time>
      </trkpt>
      <trkpt lat="40.266167" lon="-4.909467">
        <ele>2136.0</ele>
        <time>2013-07-02T11:33:29Z</time>
      </trkpt>
      <trkpt lat="40.266150" lon="-4.909550">
        <ele>2136.0</ele>
        <time>2013-07-02T11:33:30Z</time>
      </trkpt>
      <trkpt lat="40.266167" lon="-4.909633">
        <ele>2138.0</ele>
        <time>2013-07-02T11:33:31Z</time>
      </trkpt>
      <trkpt lat="40.266200" lon="-4.909700">
        <ele>2141.0</ele>
        <time>2013-07-02T11:33:32Z</time>
      </trkpt>
      <trkpt lat="40.266233" lon="-4.909750">
        <ele>2144.0</ele>
        <time>2013-07-02T11:33:33Z</time>
      </trkpt>
      <trkpt lat="40.266267" lon="-4.909783">
        <ele>2146.0</ele>
        <time>2013-07-02T11:33:34Z</time>
      </trkpt>
      <trkpt lat="40.266317" lon="-4.909817">
        <ele>2148.0</ele>
        <time>2013-07-02T11:33:35Z</time>
      </trkpt>
      <trkpt lat="40.266367" lon="-4.909850">
        <ele>2148.0</ele>
        <time>2013-07-02T11:33:36Z</time>
      </trkpt>
      <trkpt lat="40.266433" lon="-4.909867">
        <ele>2148.0</ele>
        <time>2013-07-02T11:33:37Z</time>
      </trkpt>
      <trkpt lat="40.266517" lon="-4.909883">
        <ele>2148.0</ele>
        <time>2013-07-02T11:33:38Z</time>
      </trkpt>
      <trkpt lat="40.266600" lon="-4.909883">
        <ele>2149.0</ele>
        <time>2013-07-02T11:33:39Z</time>
      </trkpt>
      <trkpt lat="40.266700" lon="-4.909833">
        <ele>2149.0</ele>
        <time>2013-07-02T11:33:40Z</time>
      </trkpt>
      <trkpt lat="40.266800" lon="-4.909750">
        <ele>2149.0</ele>
        <time>2013-07-02T11:33:41Z</time>
      </trkpt>
      <trkpt lat="40.266883" lon="-4.909633">
        <ele>2149.0</ele>
        <time>2013-07-02T11:33:42Z</time>
      </trkpt>
      <trkpt lat="40.266967" lon="-4.909500">
        <ele>2150.0</ele>
        <time>2013-07-02T11:33:43Z</time>
      </trkpt>
      <trkpt lat="40.267033" lon="-4.909367">
        <ele>2151.0</ele>
        <time>2013-07-02T11:33:44Z</time>
      </trkpt>
      <trkpt lat="40.267100" lon="-4.909233">
        <ele>2153.0</ele>
        <time>2013-07-02T11:33:45Z</time>
      </trkpt>
      <trkpt lat="40.267150" lon="-4.909100">
        <ele>2156.0</ele>
        <time>2013-07-02T11:33:46Z</time>
      </trkpt>
      <trkpt lat="40.267200" lon="-4.908983">
        <ele>2157.0</ele>
        <time>2013-07-02T11:33:47Z</time>
      </trkpt>
      <trkpt lat="40.267250" lon="-4.908867">
        <ele>2159.0</ele>
        <time>2013-07-02T11:33:48Z</time>
      </trkpt>
      <trkpt lat="40.267283" lon="-4.908750">
        <ele>2161.0</ele>
        <time>2013-07-02T11:33:49Z</time>
      </trkpt>
      <trkpt lat="40.267317" lon="-4.908617">
        <ele>2162.0</ele>
        <time>2013-07-02T11:33:50Z</time>
      </trkpt>
      <trkpt lat="40.267350" lon="-4.908500">
        <ele>2164.0</ele>
        <time>2013-07-02T11:33:51Z</time>
      </trkpt>
      <trkpt lat="40.267367" lon="-4.908367">
        <ele>2165.0</ele>
        <time>2013-07-02T11:33:52Z</time>
      </trkpt>
      <trkpt lat="40.267383" lon="-4.908250">
        <ele>2168.0</ele>
        <time>2013-07-02T11:33:53Z</time>
      </trkpt>
      <trkpt lat="40.267400" lon="-4.908133">
        <ele>2170.0</ele>
        <time>2013-07-02T11:33:54Z</time>
      </trkpt>
      <trkpt lat="40.267417" lon="-4.908017">
        <ele>2172.0</ele>
        <time>2013-07-02T11:33:55Z</time>
      </trkpt>
      <trkpt lat="40.267417" lon="-4.907917">
        <ele>2173.0</ele>
        <time>2013-07-02T11:33:56Z</time>
      </trkpt>
      <trkpt lat="40.267417" lon="-4.907800">
        <ele>2175.0</ele>
        <time>2013-07-02T11:33:57Z</time>
      </trkpt>
      <trkpt lat="40.267400" lon="-4.907683">
        <ele>2178.0</ele>
        <time>2013-07-02T11:33:58Z</time>
      </trkpt>
      <trkpt lat="40.267383" lon="-4.907567">
        <ele>2180.0</ele>
        <time>2013-07-02T11:33:59Z</time>
      </trkpt>
      <trkpt lat="40.267367" lon="-4.907450">
        <ele>2183.0</ele>
        <time>2013-07-02T11:34:00Z</time>
      </trkpt>
      <trkpt lat="40.267350" lon="-4.907333">
        <ele>2185.0</ele>
        <time>2013-07-02T11:34:01Z</time>
      </trkpt>
      <trkpt lat="40.267333" lon="-4.907250">
        <ele>2187.0</ele>
        <time>2013-07-02T11:34:02Z</time>
      </trkpt>
      <trkpt lat="40.267283" lon="-4.907183">
        <ele>2188.0</ele>
        <time>2013-07-02T11:34:03Z</time>
      </trkpt>
      <trkpt lat="40.267217" lon="-4.907133">
        <ele>2189.0</ele>
        <time>2013-07-02T11:34:04Z</time>
      </trkpt>
      <trkpt lat="40.267167" lon="-4.907100">
        <ele>2190.0</ele>
        <time>2013-07-02T11:34:05Z</time>
      </trkpt>
      <trkpt lat="40.267100" lon="-4.907083">
        <ele>2192.0</ele>
        <time>2013-07-02T11:34:06Z</time>
      </trkpt>
      <trkpt lat="40.267067" lon="-4.907067">
        <ele>2194.0</ele>
        <time>2013-07-02T11:34:07Z</time>
      </trkpt>
      <trkpt lat="40.267017" lon="-4.907067">
        <ele>2196.0</ele>
        <time>2013-07-02T11:34:08Z</time>
      </trkpt>
      <trkpt lat="40.266983" lon="-4.907050">
        <ele>2198.0</ele>
        <time>2013-07-02T11:34:09Z</time>
      </trkpt>
      <trkpt lat="40.266933" lon="-4.907033">
        <ele>2199.0</ele>
        <time>2013-07-02T11:34:10Z</time>
      </trkpt>
      <trkpt lat="40.266883" lon="-4.907033">
        <ele>2200.0</ele>
        <time>2013-07-02T11:34:11Z</time>
      </trkpt>
      <trkpt lat="40.266833" lon="-4.907000">
        <ele>2201.0</ele>
        <time>2013-07-02T11:34:12Z</time>
      </trkpt>
      <trkpt lat="40.266783" lon="-4.906983">
        <ele>2201.0</ele>
        <time>2013-07-02T11:34:13Z</time>
      </trkpt>
      <trkpt lat="40.266733" lon="-4.906967">
        <ele>2202.0</ele>
        <time>2013-07-02T11:34:14Z</time>
      </trkpt>
      <trkpt lat="40.266683" lon="-4.906967">
        <ele>2201.0</ele>
        <time>2013-07-02T11:34:15Z</time>
      </trkpt>
      <trkpt lat="40.266633" lon="-4.906983">
        <ele>2201.0</ele>
        <time>2013-07-02T11:34:16Z</time>
      </trkpt>
      <trkpt lat="40.266567" lon="-4.907000">
        <ele>2201.0</ele>
        <time>2013-07-02T11:34:17Z</time>
      </trkpt>
      <trkpt lat="40.266517" lon="-4.907017">
        <ele>2202.0</ele>
        <time>2013-07-02T11:34:18Z</time>
      </trkpt>
      <trkpt lat="40.266467" lon="-4.907067">
        <ele>2205.0</ele>
        <time>2013-07-02T11:34:19Z</time>
      </trkpt>
      <trkpt lat="40.266433" lon="-4.907100">
        <ele>2210.0</ele>
        <time>2013-07-02T11:34:20Z</time>
      </trkpt>
      <trkpt lat="40.266417" lon="-4.907133">
        <ele>2215.0</ele>
        <time>2013-07-02T11:34:21Z</time>
      </trkpt>
      <trkpt lat="40.266400" lon="-4.907167">
        <ele>2219.0</ele>
        <time>2013-07-02T11:34:22Z</time>
      </trkpt>
      <trkpt lat="40.266383" lon="-4.907183">
        <ele>2222.0</ele>
        <time>2013-07-02T11:34:23Z</time>
      </trkpt>
      <trkpt lat="40.266350" lon="-4.907217">
        <ele>2224.0</ele>
        <time>2013-07-02T11:34:24Z</time>
      </trkpt>
      <trkpt lat="40.266317" lon="-4.907267">
        <ele>2226.0</ele>
        <time>2013-07-02T11:34:25Z</time>
      </trkpt>
      <trkpt lat="40.266317" lon="-4.907333">
        <ele>2228.0</ele>
        <time>2013-07-02T11:34:26Z</time>
      </trkpt>
      <trkpt lat="40.266333" lon="-4.907417">
        <ele>2231.0</ele>
        <time>2013-07-02T11:34:27Z</time>
      </trkpt>
      <trkpt lat="40.266400" lon="-4.907483">
        <ele>2233.0</ele>
        <time>2013-07-02T11:34:28Z</time>
      </trkpt>
      <trkpt lat="40.266483" lon="-4.907517">
        <ele>2236.0</ele>
        <time>2013-07-02T11:34:29Z</time>
      </trkpt>
      <trkpt lat="40.266550" lon="-4.907533">
        <ele>2240.0</ele>
        <time>2013-07-02T11:34:30Z</time>
      </trkpt>
      <trkpt lat="40.266600" lon="-4.907550">
        <ele>2242.0</ele>
        <time>2013-07-02T11:34:31Z</time>
      </trkpt>
      <trkpt lat="40.266667" lon="-4.907567">
        <ele>2244.0</ele>
        <time>2013-07-02T11:34:32Z</time>
      </trkpt>
      <trkpt lat="40.266750" lon="-4.907550">
        <ele>2245.0</ele>
        <time>2013-07-02T11:34:33Z</time>
      </trkpt>
      <trkpt lat="40.266833" lon="-4.907533">
        <ele>2246.0</ele>
        <time>2013-07-02T11:34:34Z</time>
      </trkpt>
      <trkpt lat="40.266933" lon="-4.907533">
        <ele>2247.0</ele>
        <time>2013-07-02T11:34:35Z</time>
      </trkpt>
      <trkpt lat="40.267017" lon="-4.907567">
        <ele>2250.0</ele>
        <time>2013-07-02T11:34:36Z</time>
      </trkpt>
      <trkpt lat="40.267100" lon="-4.907583">
        <ele>2254.0</ele>
        <time>2013-07-02T11:34:37Z</time>
      </trkpt>
      <trkpt lat="40.267150" lon="-4.907600">
        <ele>2258.0</ele>
        <time>2013-07-02T11:34:38Z</time>
      </trkpt>
      <trkpt lat="40.267217" lon="-4.907583">
        <ele>2261.0</ele>
        <time>2013-07-02T11:34:39Z</time>
      </trkpt>
      <trkpt lat="40.267300" lon="-4.907550">
        <ele>2263.0</ele>
        <time>2013-07-02T11:34:40Z</time>
      </trkpt>
      <trkpt lat="40.267383" lon="-4.907483">
        <ele>2264.0</ele>
        <time>2013-07-02T11:34:41Z</time>
      </trkpt>
      <trkpt lat="40.267450" lon="-4.907400">
        <ele>2266.0</ele>
        <time>2013-07-02T11:34:42Z</time>
      </trkpt>
      <trkpt lat="40.267500" lon="-4.907267">
        <ele>2267.0</ele>
        <time>2013-07-02T11:34:43Z</time>
      </trkpt>
      <trkpt lat="40.267533" lon="-4.907150">
        <ele>2269.0</ele>
        <time>2013-07-02T11:34:44Z</time>
      </trkpt>
      <trkpt lat="40.267567" lon="-4.907033">
        <ele>2270.0</ele>
        <time>2013-07-02T11:34:45Z</time>
      </trkpt>
      <trkpt lat="40.267583" lon="-4.906917">
        <ele>2272.0</ele>
        <time>2013-07-02T11:34:46Z</time>
      </trkpt>
      <trkpt lat="40.267583" lon="-4.906800">
        <ele>2271.0</ele>
        <time>2013-07-02T11:34:47Z</time>
      </trkpt>
      <trkpt lat="40.267567" lon="-4.906683">
        <ele>2270.0</ele>
        <time>2013-07-02T11:34:48Z</time>
      </trkpt>
      <trkpt lat="40.267533" lon="-4.906567">
        <ele>2269.0</ele>
        <time>2013-07-02T11:34:49Z</time>
      </trkpt>
      <trkpt lat="40.267483" lon="-4.906433">
        <ele>2268.0</ele>
        <time>2013-07-02T11:34:50Z</time>
      </trkpt>
      <trkpt lat="40.267417" lon="-4.906317">
        <ele>2267.0</ele>
        <time>2013-07-02T11:34:51Z</time>
      </trkpt>
      <trkpt lat="40.267333" lon="-4.906217">
        <ele>2267.0</ele>
        <time>2013-07-02T11:34:52Z</time>
      </trkpt>
      <trkpt lat="40.267250" lon="-4.906133">
        <ele>2269.0</ele>
        <time>2013-07-02T11:34:53Z</time>
      </trkpt>
      <trkpt lat="40.267183" lon="-4.906067">
        <ele>2271.0</ele>
        <time>2013-07-02T11:34:54Z</time>
      </trkpt>
      <trkpt lat="40.267100" lon="-4.906033">
        <ele>2273.0</ele>
        <time>2013-07-02T11:34:55Z</time>
      </trkpt>
      <trkpt lat="40.267033" lon="-4.906033">
        <ele>2274.0</ele>
        <time>2013-07-02T11:34:56Z</time>
      </trkpt>
      <trkpt lat="40.266967" lon="-4.906017">
        <ele>2275.0</ele>
        <time>2013-07-02T11:34:57Z</time>
      </trkpt>
      <trkpt lat="40.266883" lon="-4.906000">
        <ele>2277.0</ele>
        <time>2013-07-02T11:34:58Z</time>
      </trkpt>
      <trkpt lat="40.266783" lon="-4.905967">
        <ele>2278.0</ele>
        <time>2013-07-02T11:34:59Z</time>
      </trkpt>
      <trkpt lat="40.266700" lon="-4.905950">
        <ele>2281.0</ele>
        <time>2013-07-02T11:35:00Z</time>
      </trkpt>
      <trkpt lat="40.266633" lon="-4.905933">
        <ele>2284.0</ele>
        <time>2013-07-02T11:35:01Z</time>
      </trkpt>
      <trkpt lat="40.266550" lon="-4.905933">
        <ele>2286.0</ele>
        <time>2013-07-02T11:35:02Z</time>
      </trkpt>
      <trkpt lat="40.266467" lon="-4.905933">
        <ele>2288.0</ele>
        <time>2013-07-02T11:35:03Z</time>
      </trkpt>
      <trkpt lat="40.266383" lon="-4.905917">
        <ele>2291.0</ele>
        <time>2013-07-02T11:35:04Z</time>
      </trkpt>
      <trkpt lat="40.266300" lon="-4.905917">
        <ele>2293.0</ele>
        <time>2013-07-02T11:35:05Z</time>
      </trkpt>
      <trkpt lat="40.266233" lon="-4.905950">
        <ele>2294.0</ele>
        <time>2013-07-02T11:35:06Z</time>
      </trkpt>
      <trkpt lat="40.266150" lon="-4.905967">
        <ele>2295.0</ele>
        <time>2013-07-02T11:35:07Z</time>
      </trkpt>
      <trkpt lat="40.266067" lon="-4.905950">
        <ele>2296.0</ele>
        <time>2013-07-02T11:35:08Z</time>
      </trkpt>
      <trkpt lat="40.265967" lon="-4.905950">
        <ele>2298.0</ele>
        <time>2013-07-02T11:35:09Z</time>
      </trkpt>
      <trkpt lat="40.265900" lon="-4.905967">
        <ele>2301.0</ele>
        <time>2013-07-02T11:35:10Z</time>
      </trkpt>
      <trkpt lat="40.265833" lon="-4.906017">
        <ele>2304.0</ele>
        <time>2013-07-02T11:35:11Z</time>
      </trkpt>
      <trkpt lat="40.265783" lon="-4.906083">
        <ele>2309.0</ele>
        <time>2013-07-02T11:35:12Z</time>
      </trkpt>
      <trkpt lat="40.265733" lon="-4.906133">
        <ele>2313.0</ele>
        <time>2013-07-02T11:35:13Z</time>
      </trkpt>
      <trkpt lat="40.265717" lon="-4.906183">
        <ele>2318.0</ele>
        <time>2013-07-02T11:35:14Z</time>
      </trkpt>
      <trkpt lat="40.265700" lon="-4.906250">
        <ele>2321.0</ele>
        <time>2013-07-02T11:35:15Z</time>
      </trkpt>
      <trkpt lat="40.265700" lon="-4.906300">
        <ele>2325.0</ele>
        <time>2013-07-02T11:35:16Z</time>
      </trkpt>
      <trkpt lat="40.265700" lon="-4.906333">
        <ele>2327.0</ele>
        <time>2013-07-02T11:35:17Z</time>
      </trkpt>
      <trkpt lat="40.265733" lon="-4.906350">
        <ele>2328.0</ele>
        <time>2013-07-02T11:35:18Z</time>
      </trkpt>
      <trkpt lat="40.265783" lon="-4.906367">
        <ele>2329.0</ele>
        <time>2013-07-02T11:35:19Z</time>
      </trkpt>
      <trkpt lat="40.265833" lon="-4.906350">
        <ele>2329.0</ele>
        <time>2013-07-02T11:35:20Z</time>
      </trkpt>
      <trkpt lat="40.265900" lon="-4.906300">
        <ele>2329.0</ele>
        <time>2013-07-02T11:35:21Z</time>
      </trkpt>
      <trkpt lat="40.265967" lon="-4.906217">
        <ele>2330.0</ele>
        <time>2013-07-02T11:35:22Z</time>
      </trkpt>
      <trkpt lat="40.266000" lon="-4.906117">
        <ele>2330.0</ele>
        <time>2013-07-02T11:35:23Z</time>
      </trkpt>
      <trkpt lat="40.266033" lon="-4.906000">
        <ele>2332.0</ele>
        <time>2013-07-02T11:35:24Z</time>
      </trkpt>
      <trkpt lat="40.266083" lon="-4.905900">
        <ele>2333.0</ele>
        <time>2013-07-02T11:35:25Z</time>
      </trkpt>
      <trkpt lat="40.266117" lon="-4.905800">
        <ele>2334.0</ele>
        <time>2013-07-02T11:35:26Z</time>
      </trkpt>
      <trkpt lat="40.266117" lon="-4.905683">
        <ele>2335.0</ele>
        <time>2013-07-02T11:35:27Z</time>
      </trkpt>
      <trkpt lat="40.266117" lon="-4.905567">
        <ele>2334.0</ele>
        <time>2013-07-02T11:35:28Z</time>
      </trkpt>
      <trkpt lat="40.266083" lon="-4.905417">
        <ele>2334.0</ele>
        <time>2013-07-02T11:35:29Z</time>
      </trkpt>
      <trkpt lat="40.266033" lon="-4.905250">
        <ele>2335.0</ele>
        <time>2013-07-02T11:35:30Z</time>
      </trkpt>
      <trkpt lat="40.265967" lon="-4.905117">
        <ele>2337.0</ele>
        <time>2013-07-02T11:35:31Z</time>
      </trkpt>
      <trkpt lat="40.265900" lon="-4.905017">
        <ele>2339.0</ele>
        <time>2013-07-02T11:35:32Z</time>
      </trkpt>
      <trkpt lat="40.265833" lon="-4.904900">
        <ele>2341.0</ele>
        <time>2013-07-02T11:35:33Z</time>
      </trkpt>
      <trkpt lat="40.265783" lon="-4.904800">
        <ele>2342.0</ele>
        <time>2013-07-02T11:35:34Z</time>
      </trkpt>
      <trkpt lat="40.265700" lon="-4.904700">
        <ele>2344.0</ele>
        <time>2013-07-02T11:35:35Z</time>
      </trkpt>
      <trkpt lat="40.265617" lon="-4.904600">
        <ele>2345.0</ele>
        <time>2013-07-02T11:35:36Z</time>
      </trkpt>
      <trkpt lat="40.265533" lon="-4.904533">
        <ele>2346.0</ele>
        <time>2013-07-02T11:35:37Z</time>
      </trkpt>
      <trkpt lat="40.265433" lon="-4.904483">
        <ele>2347.0</ele>
        <time>2013-07-02T11:35:38Z</time>
      </trkpt>
      <trkpt lat="40.265333" lon="-4.904467">
        <ele>2351.0</ele>
        <time>2013-07-02T11:35:39Z</time>
      </trkpt>
      <trkpt lat="40.265233" lon="-4.904433">
        <ele>2356.0</ele>
        <time>2013-07-02T11:35:40Z</time>
      </trkpt>
      <trkpt lat="40.265150" lon="-4.904400">
        <ele>2360.0</ele>
        <time>2013-07-02T11:35:41Z</time>
      </trkpt>
      <trkpt lat="40.265083" lon="-4.904367">
        <ele>2363.0</ele>
        <time>2013-07-02T11:35:42Z</time>
      </trkpt>
      <trkpt lat="40.265000" lon="-4.904333">
        <ele>2364.0</ele>
        <time>2013-07-02T11:35:43Z</time>
      </trkpt>
      <trkpt lat="40.264900" lon="-4.904333">
        <ele>2365.0</ele>
        <time>2013-07-02T11:35:44Z</time>
      </trkpt>
      <trkpt lat="40.264800" lon="-4.904367">
        <ele>2367.0</ele>
        <time>2013-07-02T11:35:45Z</time>
      </trkpt>
      <trkpt lat="40.264733" lon="-4.904417">
        <ele>2370.0</ele>
        <time>2013-07-02T11:35:46Z</time>
      </trkpt>
      <trkpt lat="40.264683" lon="-4.904467">
        <ele>2373.0</ele>
        <time>2013-07-02T11:35:47Z</time>
      </trkpt>
      <trkpt lat="40.264650" lon="-4.904517">
        <ele>2376.0</ele>
        <time>2013-07-02T11:35:48Z</time>
      </trkpt>
      <trkpt lat="40.264600" lon="-4.904533">
        <ele>2379.0</ele>
        <time>2013-07-02T11:35:49Z</time>
      </trkpt>
      <trkpt lat="40.264567" lon="-4.904550">
        <ele>2381.0</ele>
        <time>2013-07-02T11:35:50Z</time>
      </trkpt>
      <trkpt lat="40.264550" lon="-4.904567">
        <ele>2382.0</ele>
        <time>2013-07-02T11:35:51Z</time>
      </trkpt>
      <trkpt lat="40.264550" lon="-4.904600">
        <ele>2380.0</ele>
        <time>2013-07-02T11:35:52Z</time>
      </trkpt>
      <trkpt lat="40.264533" lon="-4.904683">
        <ele>2379.0</ele>
        <time>2013-07-02T11:35:53Z</time>
      </trkpt>
      <trkpt lat="40.264550" lon="-4.904750">
        <ele>2380.0</ele>
        <time>2013-07-02T11:35:54Z</time>
      </trkpt>
      <trkpt lat="40.264567" lon="-4.904800">
        <ele>2382.0</ele>
        <time>2013-07-02T11:35:55Z</time>
      </trkpt>
      <trkpt lat="40.264600" lon="-4.904817">
        <ele>2384.0</ele>
        <time>2013-07-02T11:35:56Z</time>
      </trkpt>
      <trkpt lat="40.264633" lon="-4.904817">
        <ele>2385.0</ele>
        <time>2013-07-02T11:35:57Z</time>
      </trkpt>
      <trkpt lat="40.264667" lon="-4.904800">
        <ele>2386.0</ele>
        <time>2013-07-02T11:35:58Z</time>
      </trkpt>
      <trkpt lat="40.264700" lon="-4.904783">
        <ele>2385.0</ele>
        <time>2013-07-02T11:35:59Z</time>
      </trkpt>
      <trkpt lat="40.264750" lon="-4.904767">
        <ele>2384.0</ele>
        <time>2013-07-02T11:36:00Z</time>
      </trkpt>
      <trkpt lat="40.264800" lon="-4.904767">
        <ele>2383.0</ele>
        <time>2013-07-02T11:36:01Z</time>
      </trkpt>
      <trkpt lat="40.264867" lon="-4.904733">
        <ele>2381.0</ele>
        <time>2013-07-02T11:36:02Z</time>
      </trkpt>
      <trkpt lat="40.264917" lon="-4.904717">
        <ele>2381.0</ele>
        <time>2013-07-02T11:36:03Z</time>
      </trkpt>
      <trkpt lat="40.264983" lon="-4.904683">
        <ele>2380.0</ele>
        <time>2013-07-02T11:36:04Z</time>
      </trkpt>
      <trkpt lat="40.265033" lon="-4.904633">
        <ele>2379.0</ele>
        <time>2013-07-02T11:36:05Z</time>
      </trkpt>
      <trkpt lat="40.265083" lon="-4.904583">
        <ele>2377.0</ele>
        <time>2013-07-02T11:36:06Z</time>
      </trkpt>
      <trkpt lat="40.265167" lon="-4.904533">
        <ele>2376.0</ele>
        <time>2013-07-02T11:36:07Z</time>
      </trkpt>
      <trkpt lat="40.265233" lon="-4.904467">
        <ele>2376.0</ele>
        <time>2013-07-02T11:36:08Z</time>
      </trkpt>
      <trkpt lat="40.265283" lon="-4.904383">
        <ele>2377.0</ele>
        <time>2013-07-02T11:36:09Z</time>
      </trkpt>
      <trkpt lat="40.265333" lon="-4.904283">
        <ele>2377.0</ele>
        <time>2013-07-02T11:36:10Z</time>
      </trkpt>
      <trkpt lat="40.265383" lon="-4.904183">
        <ele>2378.0</ele>
        <time>2013-07-02T11:36:11Z</time>
      </trkpt>
      <trkpt lat="40.265417" lon="-4.904067">
        <ele>2378.0</ele>
        <time>2013-07-02T11:36:12Z</time>
      </trkpt>
      <trkpt lat="40.265433" lon="-4.903967">
        <ele>2377.0</ele>
        <time>2013-07-02T11:36:13Z</time>
      </trkpt>
      <trkpt lat="40.265467" lon="-4.903867">
        <ele>2375.0</ele>
        <time>2013-07-02T11:36:14Z</time>
      </trkpt>
      <trkpt lat="40.265483" lon="-4.903733">
        <ele>2373.0</ele>
        <time>2013-07-02T11:36:15Z</time>
      </trkpt>
      <trkpt lat="40.265517" lon="-4.903600">
        <ele>2369.0</ele>
        <time>2013-07-02T11:36:16Z</time>
      </trkpt>
      <trkpt lat="40.265533" lon="-4.903450">
        <ele>2367.0</ele>
        <time>2013-07-02T11:36:17Z</time>
      </trkpt>
      <trkpt lat="40.265567" lon="-4.903283">
        <ele>2367.0</ele>
        <time>2013-07-02T11:36:18Z</time>
      </trkpt>
      <trkpt lat="40.265600" lon="-4.903133">
        <ele>2367.0</ele>
        <time>2013-07-02T11:36:19Z</time>
      </trkpt>
      <trkpt lat="40.265633" lon="-4.902983">
        <ele>2367.0</ele>
        <time>2013-07-02T11:36:20Z</time>
      </trkpt>
      <trkpt lat="40.265667" lon="-4.902833">
        <ele>2367.0</ele>
        <time>2013-07-02T11:36:21Z</time>
      </trkpt>
      <trkpt lat="40.265667" lon="-4.902667">
        <ele>2367.0</ele>
        <time>2013-07-02T11:36:22Z</time>
      </trkpt>
      <trkpt lat="40.265667" lon="-4.902517">
        <ele>2367.0</ele>
        <time>2013-07-02T11:36:23Z</time>
      </trkpt>
      <trkpt lat="40.265650" lon="-4.902383">
        <ele>2366.0</ele>
        <time>2013-07-02T11:36:24Z</time>
      </trkpt>
      <trkpt lat="40.265633" lon="-4.902233">
        <ele>2366.0</ele>
        <time>2013-07-02T11:36:25Z</time>
      </trkpt>
      <trkpt lat="40.265617" lon="-4.902083">
        <ele>2364.0</ele>
        <time>2013-07-02T11:36:26Z</time>
      </trkpt>
      <trkpt lat="40.265617" lon="-4.901917">
        <ele>2363.0</ele>
        <time>2013-07-02T11:36:27Z</time>
      </trkpt>
      <trkpt lat="40.265600" lon="-4.901750">
        <ele>2361.0</ele>
        <time>2013-07-02T11:36:28Z</time>
      </trkpt>
      <trkpt lat="40.265567" lon="-4.901583">
        <ele>2361.0</ele>
        <time>2013-07-02T11:36:29Z</time>
      </trkpt>
      <trkpt lat="40.265500" lon="-4.901467">
        <ele>2362.0</ele>
        <time>2013-07-02T11:36:30Z</time>
      </trkpt>
      <trkpt lat="40.265433" lon="-4.901350">
        <ele>2362.0</ele>
        <time>2013-07-02T11:36:31Z</time>
      </trkpt>
      <trkpt lat="40.265383" lon="-4.901250">
        <ele>2362.0</ele>
        <time>2013-07-02T11:36:32Z</time>
      </trkpt>
      <trkpt lat="40.265317" lon="-4.901150">
        <ele>2362.0</ele>
        <time>2013-07-02T11:36:33Z</time>
      </trkpt>
      <trkpt lat="40.265250" lon="-4.901033">
        <ele>2362.0</ele>
        <time>2013-07-02T11:36:34Z</time>
      </trkpt>
      <trkpt lat="40.265183" lon="-4.900933">
        <ele>2362.0</ele>
        <time>2013-07-02T11:36:35Z</time>
      </trkpt>
      <trkpt lat="40.265117" lon="-4.900850">
        <ele>2362.0</ele>
        <time>2013-07-02T11:36:36Z</time>
      </trkpt>
      <trkpt lat="40.265033" lon="-4.900783">
        <ele>2362.0</ele>
        <time>2013-07-02T11:36:37Z</time>
      </trkpt>
      <trkpt lat="40.264967" lon="-4.900717">
        <ele>2360.0</ele>
        <time>2013-07-02T11:36:38Z</time>
      </trkpt>
      <trkpt lat="40.264867" lon="-4.900633">
        <ele>2358.0</ele>
        <time>2013-07-02T11:36:39Z</time>
      </trkpt>
      <trkpt lat="40.264767" lon="-4.900550">
        <ele>2355.0</ele>
        <time>2013-07-02T11:36:40Z</time>
      </trkpt>
      <trkpt lat="40.264667" lon="-4.900483">
        <ele>2352.0</ele>
        <time>2013-07-02T11:36:41Z</time>
      </trkpt>
      <trkpt lat="40.264567" lon="-4.900433">
        <ele>2349.0</ele>
        <time>2013-07-02T11:36:42Z</time>
      </trkpt>
      <trkpt lat="40.264450" lon="-4.900417">
        <ele>2347.0</ele>
        <time>2013-07-02T11:36:43Z</time>
      </trkpt>
      <trkpt lat="40.264350" lon="-4.900417">
        <ele>2344.0</ele>
        <time>2013-07-02T11:36:44Z</time>
      </trkpt>
      <trkpt lat="40.264233" lon="-4.900417">
        <ele>2342.0</ele>
        <time>2013-07-02T11:36:45Z</time>
      </trkpt>
      <trkpt lat="40.264117" lon="-4.900417">
        <ele>2339.0</ele>
        <time>2013-07-02T11:36:46Z</time>
      </trkpt>
      <trkpt lat="40.264033" lon="-4.900417">
        <ele>2337.0</ele>
        <time>2013-07-02T11:36:47Z</time>
      </trkpt>
      <trkpt lat="40.263950" lon="-4.900433">
        <ele>2336.0</ele>
        <time>2013-07-02T11:36:48Z</time>
      </trkpt>
      <trkpt lat="40.263900" lon="-4.900450">
        <ele>2333.0</ele>
        <time>2013-07-02T11:36:49Z</time>
      </trkpt>
      <trkpt lat="40.263867" lon="-4.900483">
        <ele>2328.0</ele>
        <time>2013-07-02T11:36:50Z</time>
      </trkpt>
      <trkpt lat="40.263850" lon="-4.900533">
        <ele>2322.0</ele>
        <time>2013-07-02T11:36:51Z</time>
      </trkpt>
      <trkpt lat="40.263817" lon="-4.900583">
        <ele>2316.0</ele>
        <time>2013-07-02T11:36:52Z</time>
      </trkpt>
      <trkpt lat="40.263800" lon="-4.900667">
        <ele>2310.0</ele>
        <time>2013-07-02T11:36:53Z</time>
      </trkpt>
      <trkpt lat="40.263800" lon="-4.900750">
        <ele>2304.0</ele>
        <time>2013-07-02T11:36:54Z</time>
      </trkpt>
      <trkpt lat="40.263817" lon="-4.900833">
        <ele>2299.0</ele>
        <time>2013-07-02T11:36:55Z</time>
      </trkpt>
      <trkpt lat="40.263833" lon="-4.900900">
        <ele>2294.0</ele>
        <time>2013-07-02T11:36:56Z</time>
      </trkpt>
      <trkpt lat="40.263850" lon="-4.900983">
        <ele>2289.0</ele>
        <time>2013-07-02T11:36:57Z</time>
      </trkpt>
      <trkpt lat="40.263850" lon="-4.901067">
        <ele>2289.0</ele>
        <time>2013-07-02T11:36:58Z</time>
      </trkpt>
      <trkpt lat="40.263883" lon="-4.901117">
        <ele>2285.0</ele>
        <time>2013-07-02T11:36:59Z</time>
      </trkpt>
      <trkpt lat="40.263917" lon="-4.901150">
        <ele>2281.0</ele>
        <time>2013-07-02T11:37:00Z</time>
      </trkpt>
      <trkpt lat="40.263967" lon="-4.901183">
        <ele>2276.0</ele>
        <time>2013-07-02T11:37:01Z</time>
      </trkpt>
      <trkpt lat="40.264017" lon="-4.901200">
        <ele>2271.0</ele>
        <time>2013-07-02T11:37:02Z</time>
      </trkpt>
      <trkpt lat="40.264083" lon="-4.901233">
        <ele>2267.0</ele>
        <time>2013-07-02T11:37:03Z</time>
      </trkpt>
      <trkpt lat="40.264150" lon="-4.901233">
        <ele>2267.0</ele>
        <time>2013-07-02T11:37:04Z</time>
      </trkpt>
      <trkpt lat="40.264217" lon="-4.901233">
        <ele>2268.0</ele>
        <time>2013-07-02T11:37:05Z</time>
      </trkpt>
      <trkpt lat="40.264250" lon="-4.901217">
        <ele>2268.0</ele>
        <time>2013-07-02T11:37:06Z</time>
      </trkpt>
      <trkpt lat="40.264300" lon="-4.901200">
        <ele>2266.0</ele>
        <time>2013-07-02T11:37:07Z</time>
      </trkpt>
      <trkpt lat="40.264333" lon="-4.901167">
        <ele>2263.0</ele>
        <time>2013-07-02T11:37:08Z</time>
      </trkpt>
      <trkpt lat="40.264383" lon="-4.901167">
        <ele>2260.0</ele>
        <time>2013-07-02T11:37:09Z</time>
      </trkpt>
      <trkpt lat="40.264433" lon="-4.901133">
        <ele>2256.0</ele>
        <time>2013-07-02T11:37:10Z</time>
      </trkpt>
      <trkpt lat="40.264500" lon="-4.901117">
        <ele>2253.0</ele>
        <time>2013-07-02T11:37:11Z</time>
      </trkpt>
      <trkpt lat="40.264567" lon="-4.901100">
        <ele>2250.0</ele>
        <time>2013-07-02T11:37:12Z</time>
      </trkpt>
      <trkpt lat="40.264633" lon="-4.901083">
        <ele>2248.0</ele>
        <time>2013-07-02T11:37:13Z</time>
      </trkpt>
      <trkpt lat="40.264700" lon="-4.901050">
        <ele>2246.0</ele>
        <time>2013-07-02T11:37:14Z</time>
      </trkpt>
      <trkpt lat="40.264767" lon="-4.901000">
        <ele>2243.0</ele>
        <time>2013-07-02T11:37:15Z</time>
      </trkpt>
      <trkpt lat="40.264833" lon="-4.900933">
        <ele>2239.0</ele>
        <time>2013-07-02T11:37:16Z</time>
      </trkpt>
      <trkpt lat="40.264917" lon="-4.900850">
        <ele>2236.0</ele>
        <time>2013-07-02T11:37:17Z</time>
      </trkpt>
      <trkpt lat="40.265000" lon="-4.900783">
        <ele>2233.0</ele>
        <time>2013-07-02T11:37:18Z</time>
      </trkpt>
      <trkpt lat="40.265100" lon="-4.900717">
        <ele>2230.0</ele>
        <time>2013-07-02T11:37:19Z</time>
      </trkpt>
      <trkpt lat="40.265217" lon="-4.900633">
        <ele>2228.0</ele>
        <time>2013-07-02T11:37:20Z</time>
      </trkpt>
      <trkpt lat="40.265317" lon="-4.900517">
        <ele>2227.0</ele>
        <time>2013-07-02T11:37:21Z</time>
      </trkpt>
      <trkpt lat="40.265400" lon="-4.900400">
        <ele>2228.0</ele>
        <time>2013-07-02T11:37:22Z</time>
      </trkpt>
      <trkpt lat="40.265483" lon="-4.900300">
        <ele>2228.0</ele>
        <time>2013-07-02T11:37:23Z</time>
      </trkpt>
      <trkpt lat="40.265550" lon="-4.900200">
        <ele>2227.0</ele>
        <time>2013-07-02T11:37:24Z</time>
      </trkpt>
      <trkpt lat="40.265617" lon="-4.900117">
        <ele>2225.0</ele>
        <time>2013-07-02T11:37:25Z</time>
      </trkpt>
      <trkpt lat="40.265700" lon="-4.900017">
        <ele>2224.0</ele>
        <time>2013-07-02T11:37:26Z</time>
      </trkpt>
      <trkpt lat="40.265783" lon="-4.899917">
        <ele>2223.0</ele>
        <time>2013-07-02T11:37:27Z</time>
      </trkpt>
      <trkpt lat="40.265867" lon="-4.899817">
        <ele>2223.0</ele>
        <time>2013-07-02T11:37:28Z</time>
      </trkpt>
      <trkpt lat="40.265950" lon="-4.899700">
        <ele>2224.0</ele>
        <time>2013-07-02T11:37:29Z</time>
      </trkpt>
      <trkpt lat="40.266017" lon="-4.899583">
        <ele>2226.0</ele>
        <time>2013-07-02T11:37:30Z</time>
      </trkpt>
      <trkpt lat="40.266100" lon="-4.899483">
        <ele>2229.0</ele>
        <time>2013-07-02T11:37:31Z</time>
      </trkpt>
      <trkpt lat="40.266167" lon="-4.899383">
        <ele>2231.0</ele>
        <time>2013-07-02T11:37:32Z</time>
      </trkpt>
      <trkpt lat="40.266233" lon="-4.899317">
        <ele>2233.0</ele>
        <time>2013-07-02T11:37:33Z</time>
      </trkpt>
      <trkpt lat="40.266283" lon="-4.899233">
        <ele>2234.0</ele>
        <time>2013-07-02T11:37:34Z</time>
      </trkpt>
      <trkpt lat="40.266317" lon="-4.899150">
        <ele>2235.0</ele>
        <time>2013-07-02T11:37:35Z</time>
      </trkpt>
      <trkpt lat="40.266367" lon="-4.899067">
        <ele>2235.0</ele>
        <time>2013-07-02T11:37:36Z</time>
      </trkpt>
      <trkpt lat="40.266417" lon="-4.898967">
        <ele>2233.0</ele>
        <time>2013-07-02T11:37:37Z</time>
      </trkpt>
      <trkpt lat="40.266450" lon="-4.898833">
        <ele>2232.0</ele>
        <time>2013-07-02T11:37:38Z</time>
      </trkpt>
      <trkpt lat="40.266483" lon="-4.898683">
        <ele>2231.0</ele>
        <time>2013-07-02T11:37:39Z</time>
      </trkpt>
      <trkpt lat="40.266517" lon="-4.898517">
        <ele>2230.0</ele>
        <time>2013-07-02T11:37:40Z</time>
      </trkpt>
      <trkpt lat="40.266533" lon="-4.898350">
        <ele>2230.0</ele>
        <time>2013-07-02T11:37:41Z</time>
      </trkpt>
      <trkpt lat="40.266567" lon="-4.898183">
        <ele>2231.0</ele>
        <time>2013-07-02T11:37:42Z</time>
      </trkpt>
      <trkpt lat="40.266600" lon="-4.898033">
        <ele>2232.0</ele>
        <time>2013-07-02T11:37:43Z</time>
      </trkpt>
      <trkpt lat="40.266617" lon="-4.897883">
        <ele>2232.0</ele>
        <time>2013-07-02T11:37:44Z</time>
      </trkpt>
      <trkpt lat="40.266617" lon="-4.897717">
        <ele>2233.0</ele>
        <time>2013-07-02T11:37:45Z</time>
      </trkpt>
      <trkpt lat="40.266633" lon="-4.897567">
        <ele>2233.0</ele>
        <time>2013-07-02T11:37:46Z</time>
      </trkpt>
      <trkpt lat="40.266633" lon="-4.897400">
        <ele>2233.0</ele>
        <time>2013-07-02T11:37:47Z</time>
      </trkpt>
      <trkpt lat="40.266650" lon="-4.897233">
        <ele>2232.0</ele>
        <time>2013-07-02T11:37:48Z</time>
      </trkpt>
      <trkpt lat="40.266650" lon="-4.897050">
        <ele>2231.0</ele>
        <time>2013-07-02T11:37:49Z</time>
      </trkpt>
      <trkpt lat="40.266650" lon="-4.896867">
        <ele>2231.0</ele>
        <time>2013-07-02T11:37:50Z</time>
      </trkpt>
      <trkpt lat="40.266650" lon="-4.896667">
        <ele>2230.0</ele>
        <time>2013-07-02T11:37:51Z</time>
      </trkpt>
      <trkpt lat="40.266617" lon="-4.896500">
        <ele>2229.0</ele>
        <time>2013-07-02T11:37:52Z</time>
      </trkpt>
      <trkpt lat="40.266600" lon="-4.896317">
        <ele>2229.0</ele>
        <time>2013-07-02T11:37:53Z</time>
      </trkpt>
      <trkpt lat="40.266567" lon="-4.896117">
        <ele>2228.0</ele>
        <time>2013-07-02T11:37:54Z</time>
      </trkpt>
      <trkpt lat="40.266550" lon="-4.895933">
        <ele>2226.0</ele>
        <time>2013-07-02T11:37:55Z</time>
      </trkpt>
      <trkpt lat="40.266517" lon="-4.895750">
        <ele>2226.0</ele>
        <time>2013-07-02T11:37:56Z</time>
      </trkpt>
      <trkpt lat="40.266467" lon="-4.895567">
        <ele>2224.0</ele>
        <time>2013-07-02T11:37:57Z</time>
      </trkpt>
      <trkpt lat="40.266417" lon="-4.895383">
        <ele>2224.0</ele>
        <time>2013-07-02T11:37:58Z</time>
      </trkpt>
      <trkpt lat="40.266350" lon="-4.895200">
        <ele>2225.0</ele>
        <time>2013-07-02T11:37:59Z</time>
      </trkpt>
      <trkpt lat="40.266267" lon="-4.895050">
        <ele>2225.0</ele>
        <time>2013-07-02T11:38:00Z</time>
      </trkpt>
      <trkpt lat="40.266183" lon="-4.894917">
        <ele>2225.0</ele>
        <time>2013-07-02T11:38:01Z</time>
      </trkpt>
      <trkpt lat="40.266100" lon="-4.894817">
        <ele>2223.0</ele>
        <time>2013-07-02T11:38:02Z</time>
      </trkpt>
      <trkpt lat="40.266033" lon="-4.894717">
        <ele>2221.0</ele>
        <time>2013-07-02T11:38:03Z</time>
      </trkpt>
      <trkpt lat="40.265933" lon="-4.894633">
        <ele>2217.0</ele>
        <time>2013-07-02T11:38:04Z</time>
      </trkpt>
      <trkpt lat="40.265850" lon="-4.894567">
        <ele>2212.0</ele>
        <time>2013-07-02T11:38:05Z</time>
      </trkpt>
      <trkpt lat="40.265767" lon="-4.894533">
        <ele>2205.0</ele>
        <time>2013-07-02T11:38:06Z</time>
      </trkpt>
      <trkpt lat="40.265667" lon="-4.894533">
        <ele>2200.0</ele>
        <time>2013-07-02T11:38:07Z</time>
      </trkpt>
      <trkpt lat="40.265583" lon="-4.894533">
        <ele>2194.0</ele>
        <time>2013-07-02T11:38:08Z</time>
      </trkpt>
      <trkpt lat="40.265500" lon="-4.894533">
        <ele>2190.0</ele>
        <time>2013-07-02T11:38:09Z</time>
      </trkpt>
      <trkpt lat="40.265417" lon="-4.894500">
        <ele>2186.0</ele>
        <time>2013-07-02T11:38:10Z</time>
      </trkpt>
      <trkpt lat="40.265317" lon="-4.894483">
        <ele>2181.0</ele>
        <time>2013-07-02T11:38:11Z</time>
      </trkpt>
      <trkpt lat="40.265233" lon="-4.894483">
        <ele>2176.0</ele>
        <time>2013-07-02T11:38:12Z</time>
      </trkpt>
      <trkpt lat="40.265150" lon="-4.894517">
        <ele>2172.0</ele>
        <time>2013-07-02T11:38:13Z</time>
      </trkpt>
      <trkpt lat="40.265083" lon="-4.894567">
        <ele>2169.0</ele>
        <time>2013-07-02T11:38:14Z</time>
      </trkpt>
      <trkpt lat="40.265017" lon="-4.894583">
        <ele>2165.0</ele>
        <time>2013-07-02T11:38:15Z</time>
      </trkpt>
      <trkpt lat="40.264950" lon="-4.894583">
        <ele>2161.0</ele>
        <time>2013-07-02T11:38:16Z</time>
      </trkpt>
      <trkpt lat="40.264900" lon="-4.894583">
        <ele>2157.0</ele>
        <time>2013-07-02T11:38:17Z</time>
      </trkpt>
      <trkpt lat="40.264867" lon="-4.894600">
        <ele>2151.0</ele>
        <time>2013-07-02T11:38:18Z</time>
      </trkpt>
      <trkpt lat="40.264850" lon="-4.894650">
        <ele>2145.0</ele>
        <time>2013-07-02T11:38:19Z</time>
      </trkpt>
      <trkpt lat="40.264850" lon="-4.894683">
        <ele>2138.0</ele>
        <time>2013-07-02T11:38:20Z</time>
      </trkpt>
      <trkpt lat="40.264833" lon="-4.894733">
        <ele>2131.0</ele>
        <time>2013-07-02T11:38:21Z</time>
      </trkpt>
      <trkpt lat="40.264833" lon="-4.894800">
        <ele>2124.0</ele>
        <time>2013-07-02T11:38:22Z</time>
      </trkpt>
      <trkpt lat="40.264850" lon="-4.894867">
        <ele>2117.0</ele>
        <time>2013-07-02T11:38:23Z</time>
      </trkpt>
      <trkpt lat="40.264867" lon="-4.894933">
        <ele>2111.0</ele>
        <time>2013-07-02T11:38:24Z</time>
      </trkpt>
      <trkpt lat="40.264883" lon="-4.894983">
        <ele>2105.0</ele>
        <time>2013-07-02T11:38:25Z</time>
      </trkpt>
      <trkpt lat="40.264900" lon="-4.895050">
        <ele>2102.0</ele>
        <time>2013-07-02T11:38:26Z</time>
      </trkpt>
      <trkpt lat="40.264917" lon="-4.895100">
        <ele>2100.0</ele>
        <time>2013-07-02T11:38:27Z</time>
      </trkpt>
      <trkpt lat="40.264917" lon="-4.895133">
        <ele>2097.0</ele>
        <time>2013-07-02T11:38:28Z</time>
      </trkpt>
      <trkpt lat="40.264917" lon="-4.895150">
        <ele>2094.0</ele>
        <time>2013-07-02T11:38:29Z</time>
      </trkpt>
      <trkpt lat="40.264917" lon="-4.895167">
        <ele>2090.0</ele>
        <time>2013-07-02T11:38:30Z</time>
      </trkpt>
      <trkpt lat="40.264900" lon="-4.895200">
        <ele>2084.0</ele>
        <time>2013-07-02T11:38:31Z</time>
      </trkpt>
      <trkpt lat="40.264883" lon="-4.895267">
        <ele>2078.0</ele>
        <time>2013-07-02T11:38:32Z</time>
      </trkpt>
      <trkpt lat="40.264867" lon="-4.895333">
        <ele>2074.0</ele>
        <time>2013-07-02T11:38:33Z</time>
      </trkpt>
      <trkpt lat="40.264833" lon="-4.895383">
        <ele>2071.0</ele>
        <time>2013-07-02T11:38:34Z</time>
      </trkpt>
      <trkpt lat="40.264783" lon="-4.895433">
        <ele>2069.0</ele>
        <time>2013-07-02T11:38:35Z</time>
      </trkpt>
      <trkpt lat="40.264750" lon="-4.895450">
        <ele>2067.0</ele>
        <time>2013-07-02T11:38:36Z</time>
      </trkpt>
      <trkpt lat="40.264700" lon="-4.895467">
        <ele>2064.0</ele>
        <time>2013-07-02T11:38:37Z</time>
      </trkpt>
      <trkpt lat="40.264633" lon="-4.895500">
        <ele>2060.0</ele>
        <time>2013-07-02T11:38:38Z</time>
      </trkpt>
      <trkpt lat="40.264583" lon="-4.895533">
        <ele>2056.0</ele>
        <time>2013-07-02T11:38:39Z</time>
      </trkpt>
      <trkpt lat="40.264533" lon="-4.895600">
        <ele>2052.0</ele>
        <time>2013-07-02T11:38:40Z</time>
      </trkpt>
      <trkpt lat="40.264483" lon="-4.895650">
        <ele>2048.0</ele>
        <time>2013-07-02T11:38:41Z</time>
      </trkpt>
      <trkpt lat="40.264433" lon="-4.895683">
        <ele>2045.0</ele>
        <time>2013-07-02T11:38:42Z</time>
      </trkpt>
      <trkpt lat="40.264383" lon="-4.895700">
        <ele>2043.0</ele>
        <time>2013-07-02T11:38:43Z</time>
      </trkpt>
      <trkpt lat="40.264333" lon="-4.895733">
        <ele>2039.0</ele>
        <time>2013-07-02T11:38:44Z</time>
      </trkpt>
      <trkpt lat="40.264300" lon="-4.895750">
        <ele>2035.0</ele>
        <time>2013-07-02T11:38:45Z</time>
      </trkpt>
      <trkpt lat="40.264233" lon="-4.895800">
        <ele>2031.0</ele>
        <time>2013-07-02T11:38:46Z</time>
      </trkpt>
      <trkpt lat="40.264167" lon="-4.895850">
        <ele>2028.0</ele>
        <time>2013-07-02T11:38:47Z</time>
      </trkpt>
      <trkpt lat="40.264100" lon="-4.895900">
        <ele>2027.0</ele>
        <time>2013-07-02T11:38:48Z</time>
      </trkpt>
      <trkpt lat="40.264033" lon="-4.895933">
        <ele>2027.0</ele>
        <time>2013-07-02T11:38:49Z</time>
      </trkpt>
      <trkpt lat="40.263967" lon="-4.895950">
        <ele>2025.0</ele>
        <time>2013-07-02T11:38:50Z</time>
      </trkpt>
      <trkpt lat="40.263900" lon="-4.895983">
        <ele>2022.0</ele>
        <time>2013-07-02T11:38:51Z</time>
      </trkpt>
      <trkpt lat="40.263817" lon="-4.896000">
        <ele>2018.0</ele>
        <time>2013-07-02T11:38:52Z</time>
      </trkpt>
      <trkpt lat="40.263717" lon="-4.896050">
        <ele>2014.0</ele>
        <time>2013-07-02T11:38:53Z</time>
      </trkpt>
      <trkpt lat="40.263633" lon="-4.896083">
        <ele>2012.0</ele>
        <time>2013-07-02T11:38:54Z</time>
      </trkpt>
      <trkpt lat="40.263550" lon="-4.896100">
        <ele>2011.0</ele>
        <time>2013-07-02T11:38:55Z</time>
      </trkpt>
      <trkpt lat="40.263483" lon="-4.896117">
        <ele>2010.0</ele>
        <time>2013-07-02T11:38:56Z</time>
      </trkpt>
      <trkpt lat="40.263400" lon="-4.896133">
        <ele>2008.0</ele>
        <time>2013-07-02T11:38:57Z</time>
      </trkpt>
      <trkpt lat="40.263317" lon="-4.896150">
        <ele>2006.0</ele>
        <time>2013-07-02T11:38:58Z</time>
      </trkpt>
      <trkpt lat="40.263217" lon="-4.896183">
        <ele>2003.0</ele>
        <time>2013-07-02T11:38:59Z</time>
      </trkpt>
      <trkpt lat="40.263133" lon="-4.896200">
        <ele>2001.0</ele>
        <time>2013-07-02T11:39:00Z</time>
      </trkpt>
      <trkpt lat="40.263050" lon="-4.896233">
        <ele>2001.0</ele>
        <time>2013-07-02T11:39:01Z</time>
      </trkpt>
      <trkpt lat="40.262983" lon="-4.896233">
        <ele>2001.0</ele>
        <time>2013-07-02T11:39:02Z</time>
      </trkpt>
      <trkpt lat="40.262933" lon="-4.896267">
        <ele>2000.0</ele>
        <time>2013-07-02T11:39:03Z</time>
      </trkpt>
      <trkpt lat="40.262867" lon="-4.896300">
        <ele>1997.0</ele>
        <time>2013-07-02T11:39:04Z</time>
      </trkpt>
      <trkpt lat="40.262800" lon="-4.896333">
        <ele>1994.0</ele>
        <time>2013-07-02T11:39:05Z</time>
      </trkpt>
      <trkpt lat="40.262733" lon="-4.896383">
        <ele>1991.0</ele>
        <time>2013-07-02T11:39:06Z</time>
      </trkpt>
      <trkpt lat="40.262667" lon="-4.896450">
        <ele>1990.0</ele>
        <time>2013-07-02T11:39:07Z</time>
      </trkpt>
      <trkpt lat="40.262600" lon="-4.896483">
        <ele>1991.0</ele>
        <time>2013-07-02T11:39:08Z</time>
      </trkpt>
      <trkpt lat="40.262550" lon="-4.896483">
        <ele>1992.0</ele>
        <time>2013-07-02T11:39:09Z</time>
      </trkpt>
      <trkpt lat="40.262517" lon="-4.896467">
        <ele>1991.0</ele>
        <time>2013-07-02T11:39:10Z</time>
      </trkpt>
      <trkpt lat="40.262467" lon="-4.896450">
        <ele>1989.0</ele>
        <time>2013-07-02T11:39:11Z</time>
      </trkpt>
      <trkpt lat="40.262400" lon="-4.896450">
        <ele>1987.0</ele>
        <time>2013-07-02T11:39:12Z</time>
      </trkpt>
      <trkpt lat="40.262333" lon="-4.896433">
        <ele>1985.0</ele>
        <time>2013-07-02T11:39:13Z</time>
      </trkpt>
      <trkpt lat="40.262250" lon="-4.896450">
        <ele>1981.0</ele>
        <time>2013-07-02T11:39:14Z</time>
      </trkpt>
      <trkpt lat="40.262167" lon="-4.896450">
        <ele>1978.0</ele>
        <time>2013-07-02T11:39:15Z</time>
      </trkpt>
      <trkpt lat="40.262067" lon="-4.896467">
        <ele>1975.0</ele>
        <time>2013-07-02T11:39:16Z</time>
      </trkpt>
      <trkpt lat="40.261967" lon="-4.896483">
        <ele>1972.0</ele>
        <time>2013-07-02T11:39:17Z</time>
      </trkpt>
      <trkpt lat="40.261883" lon="-4.896483">
        <ele>1971.0</ele>
        <time>2013-07-02T11:39:18Z</time>
      </trkpt>
      <trkpt lat="40.261783" lon="-4.896483">
        <ele>1969.0</ele>
        <time>2013-07-02T11:39:19Z</time>
      </trkpt>
      <trkpt lat="40.261700" lon="-4.896483">
        <ele>1967.0</ele>
        <time>2013-07-02T11:39:20Z</time>
      </trkpt>
      <trkpt lat="40.261617" lon="-4.896483">
        <ele>1965.0</ele>
        <time>2013-07-02T11:39:21Z</time>
      </trkpt>
      <trkpt lat="40.261533" lon="-4.896483">
        <ele>1963.0</ele>
        <time>2013-07-02T11:39:22Z</time>
      </trkpt>
      <trkpt lat="40.261433" lon="-4.896483">
        <ele>1959.0</ele>
        <time>2013-07-02T11:39:23Z</time>
      </trkpt>
      <trkpt lat="40.261333" lon="-4.896500">
        <ele>1955.0</ele>
        <time>2013-07-02T11:39:24Z</time>
      </trkpt>
      <trkpt lat="40.261233" lon="-4.896517">
        <ele>1952.0</ele>
        <time>2013-07-02T11:39:25Z</time>
      </trkpt>
      <trkpt lat="40.261117" lon="-4.896533">
        <ele>1948.0</ele>
        <time>2013-07-02T11:39:26Z</time>
      </trkpt>
      <trkpt lat="40.261017" lon="-4.896533">
        <ele>1946.0</ele>
        <time>2013-07-02T11:39:27Z</time>
      </trkpt>
      <trkpt lat="40.260917" lon="-4.896533">
        <ele>1943.0</ele>
        <time>2013-07-02T11:39:28Z</time>
      </trkpt>
      <trkpt lat="40.260833" lon="-4.896517">
        <ele>1940.0</ele>
        <time>2013-07-02T11:39:29Z</time>
      </trkpt>
      <trkpt lat="40.260750" lon="-4.896517">
        <ele>1937.0</ele>
        <time>2013-07-02T11:39:30Z</time>
      </trkpt>
      <trkpt lat="40.260650" lon="-4.896517">
        <ele>1933.0</ele>
        <time>2013-07-02T11:39:31Z</time>
      </trkpt>
      <trkpt lat="40.260550" lon="-4.896500">
        <ele>1929.0</ele>
        <time>2013-07-02T11:39:32Z</time>
      </trkpt>
      <trkpt lat="40.260450" lon="-4.896500">
        <ele>1926.0</ele>
        <time>2013-07-02T11:39:33Z</time>
      </trkpt>
      <trkpt lat="40.260350" lon="-4.896500">
        <ele>1924.0</ele>
        <time>2013-07-02T11:39:34Z</time>
      </trkpt>
      <trkpt lat="40.260250" lon="-4.896500">
        <ele>1922.0</ele>
        <time>2013-07-02T11:39:35Z</time>
      </trkpt>
      <trkpt lat="40.260167" lon="-4.896500">
        <ele>1920.0</ele>
        <time>2013-07-02T11:39:36Z</time>
      </trkpt>
      <trkpt lat="40.260083" lon="-4.896483">
        <ele>1917.0</ele>
        <time>2013-07-02T11:39:37Z</time>
      </trkpt>
      <trkpt lat="40.259983" lon="-4.896500">
        <ele>1914.0</ele>
        <time>2013-07-02T11:39:38Z</time>
      </trkpt>
      <trkpt lat="40.259883" lon="-4.896500">
        <ele>1910.0</ele>
        <time>2013-07-02T11:39:39Z</time>
      </trkpt>
      <trkpt lat="40.259783" lon="-4.896517">
        <ele>1908.0</ele>
        <time>2013-07-02T11:39:40Z</time>
      </trkpt>
      <trkpt lat="40.259700" lon="-4.896533">
        <ele>1907.0</ele>
        <time>2013-07-02T11:39:41Z</time>
      </trkpt>
      <trkpt lat="40.259617" lon="-4.896533">
        <ele>1908.0</ele>
        <time>2013-07-02T11:39:42Z</time>
      </trkpt>
      <trkpt lat="40.259517" lon="-4.896550">
        <ele>1907.0</ele>
        <time>2013-07-02T11:39:43Z</time>
      </trkpt>
      <trkpt lat="40.259433" lon="-4.896567">
        <ele>1905.0</ele>
        <time>2013-07-02T11:39:44Z</time>
      </trkpt>
      <trkpt lat="40.259350" lon="-4.896583">
        <ele>1903.0</ele>
        <time>2013-07-02T11:39:45Z</time>
      </trkpt>
      <trkpt lat="40.259267" lon="-4.896617">
        <ele>1901.0</ele>
        <time>2013-07-02T11:39:46Z</time>
      </trkpt>
      <trkpt lat="40.259167" lon="-4.896633">
        <ele>1899.0</ele>
        <time>2013-07-02T11:39:47Z</time>
      </trkpt>
      <trkpt lat="40.259067" lon="-4.896633">
        <ele>1897.0</ele>
        <time>2013-07-02T11:39:48Z</time>
      </trkpt>
      <trkpt lat="40.258967" lon="-4.896633">
        <ele>1896.0</ele>
        <time>2013-07-02T11:39:49Z</time>
      </trkpt>
      <trkpt lat="40.258867" lon="-4.896633">
        <ele>1894.0</ele>
        <time>2013-07-02T11:39:50Z</time>
      </trkpt>
      <trkpt lat="40.258767" lon="-4.896650">
        <ele>1893.0</ele>
        <time>2013-07-02T11:39:51Z</time>
      </trkpt>
      <trkpt lat="40.258667" lon="-4.896633">
        <ele>1891.0</ele>
        <time>2013-07-02T11:39:52Z</time>
      </trkpt>
      <trkpt lat="40.258567" lon="-4.896617">
        <ele>1890.0</ele>
        <time>2013-07-02T11:39:53Z</time>
      </trkpt>
      <trkpt lat="40.258450" lon="-4.896567">
        <ele>1888.0</ele>
        <time>2013-07-02T11:39:54Z</time>
      </trkpt>
      <trkpt lat="40.258350" lon="-4.896533">
        <ele>1887.0</ele>
        <time>2013-07-02T11:39:55Z</time>
      </trkpt>
      <trkpt lat="40.258250" lon="-4.896517">
        <ele>1885.0</ele>
        <time>2013-07-02T11:39:56Z</time>
      </trkpt>
      <trkpt lat="40.258167" lon="-4.896500">
        <ele>1883.0</ele>
        <time>2013-07-02T11:39:57Z</time>
      </trkpt>
      <trkpt lat="40.258083" lon="-4.896500">
        <ele>1881.0</ele>
        <time>2013-07-02T11:39:58Z</time>
      </trkpt>
      <trkpt lat="40.258000" lon="-4.896483">
        <ele>1878.0</ele>
        <time>2013-07-02T11:39:59Z</time>
      </trkpt>
      <trkpt lat="40.257900" lon="-4.896467">
        <ele>1875.0</ele>
        <time>2013-07-02T11:40:00Z</time>
      </trkpt>
      <trkpt lat="40.257817" lon="-4.896450">
        <ele>1873.0</ele>
        <time>2013-07-02T11:40:01Z</time>
      </trkpt>
      <trkpt lat="40.257733" lon="-4.896450">
        <ele>1871.0</ele>
        <time>2013-07-02T11:40:02Z</time>
      </trkpt>
      <trkpt lat="40.257667" lon="-4.896450">
        <ele>1869.0</ele>
        <time>2013-07-02T11:40:03Z</time>
      </trkpt>
      <trkpt lat="40.257583" lon="-4.896450">
        <ele>1868.0</ele>
        <time>2013-07-02T11:40:04Z</time>
      </trkpt>
      <trkpt lat="40.257517" lon="-4.896450">
        <ele>1865.0</ele>
        <time>2013-07-02T11:40:05Z</time>
      </trkpt>
      <trkpt lat="40.257433" lon="-4.896450">
        <ele>1862.0</ele>
        <time>2013-07-02T11:40:06Z</time>
      </trkpt>
      <trkpt lat="40.257350" lon="-4.896450">
        <ele>1860.0</ele>
        <time>2013-07-02T11:40:07Z</time>
      </trkpt>
      <trkpt lat="40.257267" lon="-4.896467">
        <ele>1857.0</ele>
        <time>2013-07-02T11:40:08Z</time>
      </trkpt>
      <trkpt lat="40.257183" lon="-4.896467">
        <ele>1855.0</ele>
        <time>2013-07-02T11:40:09Z</time>
      </trkpt>
      <trkpt lat="40.257117" lon="-4.896467">
        <ele>1853.0</ele>
        <time>2013-07-02T11:40:10Z</time>
      </trkpt>
      <trkpt lat="40.257033" lon="-4.896467">
        <ele>1851.0</ele>
        <time>2013-07-02T11:40:11Z</time>
      </trkpt>
      <trkpt lat="40.256950" lon="-4.896467">
        <ele>1848.0</ele>
        <time>2013-07-02T11:40:12Z</time>
      </trkpt>
      <trkpt lat="40.256867" lon="-4.896467">
        <ele>1845.0</ele>
        <time>2013-07-02T11:40:13Z</time>
      </trkpt>
      <trkpt lat="40.256783" lon="-4.896467">
        <ele>1842.0</ele>
        <time>2013-07-02T11:40:14Z</time>
      </trkpt>
      <trkpt lat="40.256700" lon="-4.896450">
        <ele>1840.0</ele>
        <time>2013-07-02T11:40:15Z</time>
      </trkpt>
      <trkpt lat="40.256617" lon="-4.896450">
        <ele>1837.0</ele>
        <time>2013-07-02T11:40:16Z</time>
      </trkpt>
      <trkpt lat="40.256533" lon="-4.896450">
        <ele>1836.0</ele>
        <time>2013-07-02T11:40:17Z</time>
      </trkpt>
      <trkpt lat="40.256450" lon="-4.896433">
        <ele>1833.0</ele>
        <time>2013-07-02T11:40:18Z</time>
      </trkpt>
      <trkpt lat="40.256350" lon="-4.896433">
        <ele>1830.0</ele>
        <time>2013-07-02T11:40:19Z</time>
      </trkpt>
      <trkpt lat="40.256267" lon="-4.896433">
        <ele>1827.0</ele>
        <time>2013-07-02T11:40:20Z</time>
      </trkpt>
      <trkpt lat="40.256183" lon="-4.896433">
        <ele>1824.0</ele>
        <time>2013-07-02T11:40:21Z</time>
      </trkpt>
      <trkpt lat="40.256100" lon="-4.896433">
        <ele>1821.0</ele>
        <time>2013-07-02T11:40:22Z</time>
      </trkpt>
      <trkpt lat="40.256017" lon="-4.896433">
        <ele>1819.0</ele>
        <time>2013-07-02T11:40:23Z</time>
      </trkpt>
      <trkpt lat="40.255917" lon="-4.896433">
        <ele>1816.0</ele>
        <time>2013-07-02T11:40:24Z</time>
      </trkpt>
      <trkpt lat="40.255833" lon="-4.896433">
        <ele>1813.0</ele>
        <time>2013-07-02T11:40:25Z</time>
      </trkpt>
      <trkpt lat="40.255733" lon="-4.896433">
        <ele>1810.0</ele>
        <time>2013-07-02T11:40:26Z</time>
      </trkpt>
      <trkpt lat="40.255633" lon="-4.896433">
        <ele>1809.0</ele>
        <time>2013-07-02T11:40:27Z</time>
      </trkpt>
      <trkpt lat="40.255550" lon="-4.896450">
        <ele>1807.0</ele>
        <time>2013-07-02T11:40:28Z</time>
      </trkpt>
      <trkpt lat="40.255483" lon="-4.896450">
        <ele>1805.0</ele>
        <time>2013-07-02T11:40:29Z</time>
      </trkpt>
      <trkpt lat="40.255383" lon="-4.896450">
        <ele>1802.0</ele>
        <time>2013-07-02T11:40:30Z</time>
      </trkpt>
      <trkpt lat="40.255300" lon="-4.896483">
        <ele>1800.0</ele>
        <time>2013-07-02T11:40:31Z</time>
      </trkpt>
      <trkpt lat="40.255200" lon="-4.896483">
        <ele>1798.0</ele>
        <time>2013-07-02T11:40:32Z</time>
      </trkpt>
      <trkpt lat="40.255100" lon="-4.896483">
        <ele>1796.0</ele>
        <time>2013-07-02T11:40:33Z</time>
      </trkpt>
      <trkpt lat="40.255017" lon="-4.896467">
        <ele>1795.0</ele>
        <time>2013-07-02T11:40:34Z</time>
      </trkpt>
      <trkpt lat="40.254933" lon="-4.896467">
        <ele>1794.0</ele>
        <time>2013-07-02T11:40:35Z</time>
      </trkpt>
      <trkpt lat="40.254850" lon="-4.896467">
        <ele>1792.0</ele>
        <time>2013-07-02T11:40:36Z</time>
      </trkpt>
      <trkpt lat="40.254767" lon="-4.896467">
        <ele>1789.0</ele>
        <time>2013-07-02T11:40:37Z</time>
      </trkpt>
      <trkpt lat="40.254683" lon="-4.896483">
        <ele>1787.0</ele>
        <time>2013-07-02T11:40:38Z</time>
      </trkpt>
      <trkpt lat="40.254600" lon="-4.896483">
        <ele>1784.0</ele>
        <time>2013-07-02T11:40:39Z</time>
      </trkpt>
      <trkpt lat="40.254517" lon="-4.896483">
        <ele>1782.0</ele>
        <time>2013-07-02T11:40:40Z</time>
      </trkpt>
      <trkpt lat="40.254433" lon="-4.896483">
        <ele>1781.0</ele>
        <time>2013-07-02T11:40:41Z</time>
      </trkpt>
      <trkpt lat="40.254367" lon="-4.896483">
        <ele>1779.0</ele>
        <time>2013-07-02T11:40:42Z</time>
      </trkpt>
      <trkpt lat="40.254283" lon="-4.896467">
        <ele>1776.0</ele>
        <time>2013-07-02T11:40:43Z</time>
      </trkpt>
      <trkpt lat="40.254200" lon="-4.896467">
        <ele>1774.0</ele>
        <time>2013-07-02T11:40:44Z</time>
      </trkpt>
      <trkpt lat="40.254117" lon="-4.896467">
        <ele>1772.0</ele>
        <time>2013-07-02T11:40:45Z</time>
      </trkpt>
      <trkpt lat="40.254033" lon="-4.896467">
        <ele>1771.0</ele>
        <time>2013-07-02T11:40:46Z</time>
      </trkpt>
      <trkpt lat="40.253950" lon="-4.896483">
        <ele>1770.0</ele>
        <time>2013-07-02T11:40:47Z</time>
      </trkpt>
      <trkpt lat="40.253883" lon="-4.896483">
        <ele>1769.0</ele>
        <time>2013-07-02T11:40:48Z</time>
      </trkpt>
      <trkpt lat="40.253800" lon="-4.896467">
        <ele>1768.0</ele>
        <time>2013-07-02T11:40:49Z</time>
      </trkpt>
      <trkpt lat="40.253733" lon="-4.896450">
        <ele>1766.0</ele>
        <time>2013-07-02T11:40:50Z</time>
      </trkpt>
      <trkpt lat="40.253667" lon="-4.896450">
        <ele>1763.0</ele>
        <time>2013-07-02T11:40:51Z</time>
      </trkpt>
      <trkpt lat="40.253583" lon="-4.896450">
        <ele>1759.0</ele>
        <time>2013-07-02T11:40:52Z</time>
      </trkpt>
      <trkpt lat="40.253500" lon="-4.896483">
        <ele>1755.0</ele>
        <time>2013-07-02T11:40:53Z</time>
      </trkpt>
      <trkpt lat="40.253417" lon="-4.896500">
        <ele>1752.0</ele>
        <time>2013-07-02T11:40:54Z</time>
      </trkpt>
      <trkpt lat="40.253333" lon="-4.896517">
        <ele>1750.0</ele>
        <time>2013-07-02T11:40:55Z</time>
      </trkpt>
      <trkpt lat="40.253250" lon="-4.896500">
        <ele>1748.0</ele>
        <time>2013-07-02T11:40:56Z</time>
      </trkpt>
      <trkpt lat="40.253167" lon="-4.896500">
        <ele>1745.0</ele>
        <time>2013-07-02T11:40:57Z</time>
      </trkpt>
      <trkpt lat="40.253100" lon="-4.896500">
        <ele>1742.0</ele>
        <time>2013-07-02T11:40:58Z</time>
      </trkpt>
      <trkpt lat="40.253000" lon="-4.896500">
        <ele>1739.0</ele>
        <time>2013-07-02T11:40:59Z</time>
      </trkpt>
      <trkpt lat="40.252900" lon="-4.896483">
        <ele>1736.0</ele>
        <time>2013-07-02T11:41:00Z</time>
      </trkpt>
      <trkpt lat="40.252800" lon="-4.896467">
        <ele>1734.0</ele>
        <time>2013-07-02T11:41:01Z</time>
      </trkpt>
      <trkpt lat="40.252700" lon="-4.896450">
        <ele>1734.0</ele>
        <time>2013-07-02T11:41:02Z</time>
      </trkpt>
      <trkpt lat="40.252617" lon="-4.896450">
        <ele>1732.0</ele>
        <time>2013-07-02T11:41:03Z</time>
      </trkpt>
      <trkpt lat="40.252550" lon="-4.896467">
        <ele>1731.0</ele>
        <time>2013-07-02T11:41:04Z</time>
      </trkpt>
      <trkpt lat="40.252467" lon="-4.896483">
        <ele>1729.0</ele>
        <time>2013-07-02T11:41:05Z</time>
      </trkpt>
      <trkpt lat="40.252383" lon="-4.896500">
        <ele>1726.0</ele>
        <time>2013-07-02T11:41:06Z</time>
      </trkpt>
      <trkpt lat="40.252283" lon="-4.896500">
        <ele>1722.0</ele>
        <time>2013-07-02T11:41:07Z</time>
      </trkpt>
      <trkpt lat="40.252183" lon="-4.896500">
        <ele>1719.0</ele>
        <time>2013-07-02T11:41:08Z</time>
      </trkpt>
      <trkpt lat="40.252083" lon="-4.896517">
        <ele>1717.0</ele>
        <time>2013-07-02T11:41:09Z</time>
      </trkpt>
      <trkpt lat="40.252000" lon="-4.896533">
        <ele>1715.0</ele>
        <time>2013-07-02T11:41:10Z</time>
      </trkpt>
      <trkpt lat="40.251900" lon="-4.896533">
        <ele>1714.0</ele>
        <time>2013-07-02T11:41:11Z</time>
      </trkpt>
      <trkpt lat="40.251800" lon="-4.896517">
        <ele>1713.0</ele>
        <time>2013-07-02T11:41:12Z</time>
      </trkpt>
      <trkpt lat="40.251717" lon="-4.896517">
        <ele>1711.0</ele>
        <time>2013-07-02T11:41:13Z</time>
      </trkpt>
      <trkpt lat="40.251617" lon="-4.896517">
        <ele>1709.0</ele>
        <time>2013-07-02T11:41:14Z</time>
      </trkpt>
      <trkpt lat="40.251517" lon="-4.896517">
        <ele>1707.0</ele>
        <time>2013-07-02T11:41:15Z</time>
      </trkpt>
      <trkpt lat="40.251417" lon="-4.896500">
        <ele>1706.0</ele>
        <time>2013-07-02T11:41:16Z</time>
      </trkpt>
      <trkpt lat="40.251333" lon="-4.896483">
        <ele>1707.0</ele>
        <time>2013-07-02T11:41:17Z</time>
      </trkpt>
      <trkpt lat="40.251250" lon="-4.896450">
        <ele>1708.0</ele>
        <time>2013-07-02T11:41:18Z</time>
      </trkpt>
      <trkpt lat="40.251200" lon="-4.896433">
        <ele>1709.0</ele>
        <time>2013-07-02T11:41:19Z</time>
      </trkpt>
      <trkpt lat="40.251150" lon="-4.896400">
        <ele>1710.0</ele>
        <time>2013-07-02T11:41:20Z</time>
      </trkpt>
      <trkpt lat="40.251100" lon="-4.896383">
        <ele>1709.0</ele>
        <time>2013-07-02T11:41:21Z</time>
      </trkpt>
      <trkpt lat="40.251033" lon="-4.896350">
        <ele>1707.0</ele>
        <time>2013-07-02T11:41:22Z</time>
      </trkpt>
      <trkpt lat="40.250967" lon="-4.896333">
        <ele>1706.0</ele>
        <time>2013-07-02T11:41:23Z</time>
      </trkpt>
      <trkpt lat="40.250900" lon="-4.896300">
        <ele>1706.0</ele>
        <time>2013-07-02T11:41:24Z</time>
      </trkpt>
      <trkpt lat="40.250850" lon="-4.896267">
        <ele>1706.0</ele>
        <time>2013-07-02T11:41:25Z</time>
      </trkpt>
      <trkpt lat="40.250783" lon="-4.896250">
        <ele>1706.0</ele>
        <time>2013-07-02T11:41:26Z</time>
      </trkpt>
      <trkpt lat="40.250733" lon="-4.896217">
        <ele>1706.0</ele>
        <time>2013-07-02T11:41:27Z</time>
      </trkpt>
      <trkpt lat="40.250667" lon="-4.896200">
        <ele>1706.0</ele>
        <time>2013-07-02T11:41:28Z</time>
      </trkpt>
      <trkpt lat="40.250600" lon="-4.896167">
        <ele>1707.0</ele>
        <time>2013-07-02T11:41:29Z</time>
      </trkpt>
      <trkpt lat="40.250533" lon="-4.896133">
        <ele>1708.0</ele>
        <time>2013-07-02T11:41:30Z</time>
      </trkpt>
      <trkpt lat="40.250467" lon="-4.896100">
        <ele>1710.0</ele>
        <time>2013-07-02T11:41:31Z</time>
      </trkpt>
      <trkpt lat="40.250417" lon="-4.896100">
        <ele>1712.0</ele>
        <time>2013-07-02T11:41:32Z</time>
      </trkpt>
      <trkpt lat="40.250367" lon="-4.896100">
        <ele>1713.0</ele>
        <time>2013-07-02T11:41:33Z</time>
      </trkpt>
      <trkpt lat="40.250300" lon="-4.896067">
        <ele>1714.0</ele>
        <time>2013-07-02T11:41:34Z</time>
      </trkpt>
      <trkpt lat="40.250250" lon="-4.896000">
        <ele>1714.0</ele>
        <time>2013-07-02T11:41:35Z</time>
      </trkpt>
      <trkpt lat="40.250217" lon="-4.895917">
        <ele>1713.0</ele>
        <time>2013-07-02T11:41:36Z</time>
      </trkpt>
      <trkpt lat="40.250150" lon="-4.895850">
        <ele>1711.0</ele>
        <time>2013-07-02T11:41:37Z</time>
      </trkpt>
      <trkpt lat="40.250083" lon="-4.895800">
        <ele>1709.0</ele>
        <time>2013-07-02T11:41:38Z</time>
      </trkpt>
      <trkpt lat="40.250000" lon="-4.895750">
        <ele>1707.0</ele>
        <time>2013-07-02T11:41:39Z</time>
      </trkpt>
      <trkpt lat="40.249933" lon="-4.895683">
        <ele>1705.0</ele>
        <time>2013-07-02T11:41:40Z</time>
      </trkpt>
      <trkpt lat="40.249850" lon="-4.895617">
        <ele>1703.0</ele>
        <time>2013-07-02T11:41:41Z</time>
      </trkpt>
      <trkpt lat="40.249767" lon="-4.895567">
        <ele>1701.0</ele>
        <time>2013-07-02T11:41:42Z</time>
      </trkpt>
      <trkpt lat="40.249683" lon="-4.895517">
        <ele>1699.0</ele>
        <time>2013-07-02T11:41:43Z</time>
      </trkpt>
      <trkpt lat="40.249600" lon="-4.895483">
        <ele>1700.0</ele>
        <time>2013-07-02T11:41:44Z</time>
      </trkpt>
      <trkpt lat="40.249517" lon="-4.895417">
        <ele>1702.0</ele>
        <time>2013-07-02T11:41:45Z</time>
      </trkpt>
      <trkpt lat="40.249467" lon="-4.895367">
        <ele>1704.0</ele>
        <time>2013-07-02T11:41:46Z</time>
      </trkpt>
      <trkpt lat="40.249433" lon="-4.895317">
        <ele>1705.0</ele>
        <time>2013-07-02T11:41:47Z</time>
      </trkpt>
      <trkpt lat="40.249383" lon="-4.895267">
        <ele>1705.0</ele>
        <time>2013-07-02T11:41:48Z</time>
      </trkpt>
      <trkpt lat="40.249300" lon="-4.895233">
        <ele>1704.0</ele>
        <time>2013-07-02T11:41:49Z</time>
      </trkpt>
      <trkpt lat="40.249217" lon="-4.895183">
        <ele>1702.0</ele>
        <time>2013-07-02T11:41:50Z</time>
      </trkpt>
      <trkpt lat="40.249133" lon="-4.895133">
        <ele>1701.0</ele>
        <time>2013-07-02T11:41:51Z</time>
      </trkpt>
      <trkpt lat="40.249050" lon="-4.895050">
        <ele>1701.0</ele>
        <time>2013-07-02T11:41:52Z</time>
      </trkpt>
      <trkpt lat="40.248983" lon="-4.894983">
        <ele>1702.0</ele>
        <time>2013-07-02T11:41:53Z</time>
      </trkpt>
      <trkpt lat="40.248917" lon="-4.894900">
        <ele>1702.0</ele>
        <time>2013-07-02T11:41:54Z</time>
      </trkpt>
      <trkpt lat="40.248850" lon="-4.894833">
        <ele>1702.0</ele>
        <time>2013-07-02T11:41:55Z</time>
      </trkpt>
      <trkpt lat="40.248783" lon="-4.894750">
        <ele>1702.0</ele>
        <time>2013-07-02T11:41:56Z</time>
      </trkpt>
      <trkpt lat="40.248717" lon="-4.894683">
        <ele>1702.0</ele>
        <time>2013-07-02T11:41:57Z</time>
      </trkpt>
      <trkpt lat="40.248650" lon="-4.894600">
        <ele>1702.0</ele>
        <time>2013-07-02T11:41:58Z</time>
      </trkpt>
      <trkpt lat="40.248583" lon="-4.894533">
        <ele>1701.0</ele>
        <time>2013-07-02T11:41:59Z</time>
      </trkpt>
      <trkpt lat="40.248517" lon="-4.894483">
        <ele>1701.0</ele>
        <time>2013-07-02T11:42:00Z</time>
      </trkpt>
      <trkpt lat="40.248450" lon="-4.894417">
        <ele>1700.0</ele>
        <time>2013-07-02T11:42:01Z</time>
      </trkpt>
      <trkpt lat="40.248383" lon="-4.894367">
        <ele>1699.0</ele>
        <time>2013-07-02T11:42:02Z</time>
      </trkpt>
      <trkpt lat="40.248317" lon="-4.894317">
        <ele>1698.0</ele>
        <time>2013-07-02T11:42:03Z</time>
      </trkpt>
      <trkpt lat="40.248250" lon="-4.894267">
        <ele>1697.0</ele>
        <time>2013-07-02T11:42:04Z</time>
      </trkpt>
      <trkpt lat="40.248183" lon="-4.894217">
        <ele>1697.0</ele>
        <time>2013-07-02T11:42:05Z</time>
      </trkpt>
      <trkpt lat="40.248100" lon="-4.894167">
        <ele>1698.0</ele>
        <time>2013-07-02T11:42:06Z</time>
      </trkpt>
      <trkpt lat="40.248033" lon="-4.894117">
        <ele>1698.0</ele>
        <time>2013-07-02T11:42:07Z</time>
      </trkpt>
      <trkpt lat="40.247950" lon="-4.894050">
        <ele>1699.0</ele>
        <time>2013-07-02T11:42:08Z</time>
      </trkpt>
      <trkpt lat="40.247883" lon="-4.893983">
        <ele>1699.0</ele>
        <time>2013-07-02T11:42:09Z</time>
      </trkpt>
      <trkpt lat="40.247817" lon="-4.893933">
        <ele>1699.0</ele>
        <time>2013-07-02T11:42:10Z</time>
      </trkpt>
      <trkpt lat="40.247733" lon="-4.893883">
        <ele>1700.0</ele>
        <time>2013-07-02T11:42:11Z</time>
      </trkpt>
      <trkpt lat="40.247667" lon="-4.893833">
        <ele>1701.0</ele>
        <time>2013-07-02T11:42:12Z</time>
      </trkpt>
      <trkpt lat="40.247600" lon="-4.893817">
        <ele>1701.0</ele>
        <time>2013-07-02T11:42:13Z</time>
      </trkpt>
      <trkpt lat="40.247550" lon="-4.893783">
        <ele>1701.0</ele>
        <time>2013-07-02T11:42:14Z</time>
      </trkpt>
      <trkpt lat="40.247483" lon="-4.893750">
        <ele>1701.0</ele>
        <time>2013-07-02T11:42:15Z</time>
      </trkpt>
      <trkpt lat="40.247417" lon="-4.893733">
        <ele>1700.0</ele>
        <time>2013-07-02T11:42:16Z</time>
      </trkpt>
      <trkpt lat="40.247350" lon="-4.893700">
        <ele>1699.0</ele>
        <time>2013-07-02T11:42:17Z</time>
      </trkpt>
      <trkpt lat="40.247283" lon="-4.893683">
        <ele>1699.0</ele>
        <time>2013-07-02T11:42:18Z</time>
      </trkpt>
      <trkpt lat="40.247217" lon="-4.893667">
        <ele>1699.0</ele>
        <time>2013-07-02T11:42:19Z</time>
      </trkpt>
      <trkpt lat="40.247150" lon="-4.893633">
        <ele>1700.0</ele>
        <time>2013-07-02T11:42:20Z</time>
      </trkpt>
      <trkpt lat="40.247100" lon="-4.893600">
        <ele>1700.0</ele>
        <time>2013-07-02T11:42:21Z</time>
      </trkpt>
      <trkpt lat="40.247050" lon="-4.893567">
        <ele>1700.0</ele>
        <time>2013-07-02T11:42:22Z</time>
      </trkpt>
      <trkpt lat="40.247000" lon="-4.893550">
        <ele>1699.0</ele>
        <time>2013-07-02T11:42:23Z</time>
      </trkpt>
      <trkpt lat="40.246950" lon="-4.893533">
        <ele>1698.0</ele>
        <time>2013-07-02T11:42:24Z</time>
      </trkpt>
      <trkpt lat="40.246900" lon="-4.893517">
        <ele>1698.0</ele>
        <time>2013-07-02T11:42:25Z</time>
      </trkpt>
      <trkpt lat="40.246833" lon="-4.893483">
        <ele>1698.0</ele>
        <time>2013-07-02T11:42:26Z</time>
      </trkpt>
      <trkpt lat="40.246783" lon="-4.893467">
        <ele>1698.0</ele>
        <time>2013-07-02T11:42:27Z</time>
      </trkpt>
      <trkpt lat="40.246733" lon="-4.893467">
        <ele>1697.0</ele>
        <time>2013-07-02T11:42:28Z</time>
      </trkpt>
      <trkpt lat="40.246683" lon="-4.893483">
        <ele>1696.0</ele>
        <time>2013-07-02T11:42:29Z</time>
      </trkpt>
      <trkpt lat="40.246633" lon="-4.893483">
        <ele>1696.0</ele>
        <time>2013-07-02T11:42:30Z</time>
      </trkpt>
      <trkpt lat="40.246583" lon="-4.893483">
        <ele>1696.0</ele>
        <time>2013-07-02T11:42:31Z</time>
      </trkpt>
      <trkpt lat="40.246533" lon="-4.893483">
        <ele>1695.0</ele>
        <time>2013-07-02T11:42:32Z</time>
      </trkpt>
      <trkpt lat="40.246500" lon="-4.893483">
        <ele>1695.0</ele>
        <time>2013-07-02T11:42:33Z</time>
      </trkpt>
      <trkpt lat="40.246467" lon="-4.893483">
        <ele>1695.0</ele>
        <time>2013-07-02T11:42:34Z</time>
      </trkpt>
      <trkpt lat="40.246417" lon="-4.893500">
        <ele>1695.0</ele>
        <time>2013-07-02T11:42:35Z</time>
      </trkpt>
      <trkpt lat="40.246383" lon="-4.893500">
        <ele>1695.0</ele>
        <time>2013-07-02T11:42:36Z</time>
      </trkpt>
      <trkpt lat="40.246333" lon="-4.893500">
        <ele>1695.0</ele>
        <time>2013-07-02T11:42:37Z</time>
      </trkpt>
      <trkpt lat="40.246283" lon="-4.893483">
        <ele>1695.0</ele>
        <time>2013-07-02T11:42:38Z</time>
      </trkpt>
      <trkpt lat="40.246217" lon="-4.893450">
        <ele>1695.0</ele>
        <time>2013-07-02T11:42:39Z</time>
      </trkpt>
      <trkpt lat="40.246167" lon="-4.893417">
        <ele>1696.0</ele>
        <time>2013-07-02T11:42:40Z</time>
      </trkpt>
      <trkpt lat="40.246117" lon="-4.893400">
        <ele>1696.0</ele>
        <time>2013-07-02T11:42:41Z</time>
      </trkpt>
      <trkpt lat="40.246083" lon="-4.893367">
        <ele>1695.0</ele>
        <time>2013-07-02T11:42:42Z</time>
      </trkpt>
      <trkpt lat="40.246033" lon="-4.893350">
        <ele>1694.0</ele>
        <time>2013-07-02T11:42:43Z</time>
      </trkpt>
      <trkpt lat="40.245983" lon="-4.893317">
        <ele>1692.0</ele>
        <time>2013-07-02T11:42:44Z</time>
      </trkpt>
      <trkpt lat="40.245950" lon="-4.893300">
        <ele>1691.0</ele>
        <time>2013-07-02T11:42:45Z</time>
      </trkpt>
      <trkpt lat="40.245900" lon="-4.893300">
        <ele>1690.0</ele>
        <time>2013-07-02T11:42:46Z</time>
      </trkpt>
      <trkpt lat="40.245850" lon="-4.893283">
        <ele>1688.0</ele>
        <time>2013-07-02T11:42:47Z</time>
      </trkpt>
      <trkpt lat="40.245783" lon="-4.893267">
        <ele>1687.0</ele>
        <time>2013-07-02T11:42:48Z</time>
      </trkpt>
      <trkpt lat="40.245717" lon="-4.893250">
        <ele>1685.0</ele>
        <time>2013-07-02T11:42:49Z</time>
      </trkpt>
      <trkpt lat="40.245667" lon="-4.893233">
        <ele>1683.0</ele>
        <time>2013-07-02T11:42:50Z</time>
      </trkpt>
      <trkpt lat="40.245600" lon="-4.893217">
        <ele>1682.0</ele>
        <time>2013-07-02T11:42:51Z</time>
      </trkpt>
      <trkpt lat="40.245550" lon="-4.893200">
        <ele>1681.0</ele>
        <time>2013-07-02T11:42:52Z</time>
      </trkpt>
      <trkpt lat="40.245483" lon="-4.893183">
        <ele>1680.0</ele>
        <time>2013-07-02T11:42:53Z</time>
      </trkpt>
      <trkpt lat="40.245417" lon="-4.893167">
        <ele>1679.0</ele>
        <time>2013-07-02T11:42:54Z</time>
      </trkpt>
      <trkpt lat="40.245367" lon="-4.893150">
        <ele>1678.0</ele>
        <time>2013-07-02T11:42:55Z</time>
      </trkpt>
      <trkpt lat="40.245300" lon="-4.893133">
        <ele>1678.0</ele>
        <time>2013-07-02T11:42:56Z</time>
      </trkpt>
      <trkpt lat="40.245233" lon="-4.893100">
        <ele>1677.0</ele>
        <time>2013-07-02T11:42:57Z</time>
      </trkpt>
      <trkpt lat="40.245183" lon="-4.893083">
        <ele>1677.0</ele>
        <time>2013-07-02T11:42:58Z</time>
      </trkpt>
      <trkpt lat="40.245133" lon="-4.893050">
        <ele>1675.0</ele>
        <time>2013-07-02T11:42:59Z</time>
      </trkpt>
      <trkpt lat="40.245067" lon="-4.893033">
        <ele>1673.0</ele>
        <time>2013-07-02T11:43:00Z</time>
      </trkpt>
      <trkpt lat="40.245000" lon="-4.893033">
        <ele>1671.0</ele>
        <time>2013-07-02T11:43:01Z</time>
      </trkpt>
      <trkpt lat="40.244917" lon="-4.893017">
        <ele>1671.0</ele>
        <time>2013-07-02T11:43:02Z</time>
      </trkpt>
      <trkpt lat="40.244833" lon="-4.893000">
        <ele>1672.0</ele>
        <time>2013-07-02T11:43:03Z</time>
      </trkpt>
      <trkpt lat="40.244767" lon="-4.892983">
        <ele>1672.0</ele>
        <time>2013-07-02T11:43:04Z</time>
      </trkpt>
      <trkpt lat="40.244717" lon="-4.892983">
        <ele>1672.0</ele>
        <time>2013-07-02T11:43:05Z</time>
      </trkpt>
      <trkpt lat="40.244650" lon="-4.893000">
        <ele>1671.0</ele>
        <time>2013-07-02T11:43:06Z</time>
      </trkpt>
      <trkpt lat="40.244583" lon="-4.893017">
        <ele>1668.0</ele>
        <time>2013-07-02T11:43:07Z</time>
      </trkpt>
      <trkpt lat="40.244517" lon="-4.893033">
        <ele>1665.0</ele>
        <time>2013-07-02T11:43:08Z</time>
      </trkpt>
      <trkpt lat="40.244433" lon="-4.893033">
        <ele>1662.0</ele>
        <time>2013-07-02T11:43:09Z</time>
      </trkpt>
      <trkpt lat="40.244350" lon="-4.893000">
        <ele>1660.0</ele>
        <time>2013-07-02T11:43:10Z</time>
      </trkpt>
      <trkpt lat="40.244283" lon="-4.892967">
        <ele>1658.0</ele>
        <time>2013-07-02T11:43:11Z</time>
      </trkpt>
      <trkpt lat="40.244217" lon="-4.892917">
        <ele>1656.0</ele>
        <time>2013-07-02T11:43:12Z</time>
      </trkpt>
      <trkpt lat="40.244150" lon="-4.892867">
        <ele>1653.0</ele>
        <time>2013-07-02T11:43:13Z</time>
      </trkpt>
      <trkpt lat="40.244083" lon="-4.892817">
        <ele>1650.0</ele>
        <time>2013-07-02T11:43:14Z</time>
      </trkpt>
      <trkpt lat="40.244000" lon="-4.892750">
        <ele>1648.0</ele>
        <time>2013-07-02T11:43:15Z</time>
      </trkpt>
      <trkpt lat="40.243933" lon="-4.892683">
        <ele>1646.0</ele>
        <time>2013-07-02T11:43:16Z</time>
      </trkpt>
      <trkpt lat="40.243850" lon="-4.892617">
        <ele>1645.0</ele>
        <time>2013-07-02T11:43:17Z</time>
      </trkpt>
      <trkpt lat="40.243783" lon="-4.892567">
        <ele>1644.0</ele>
        <time>2013-07-02T11:43:18Z</time>
      </trkpt>
      <trkpt lat="40.243717" lon="-4.892500">
        <ele>1643.0</ele>
        <time>2013-07-02T11:43:19Z</time>
      </trkpt>
      <trkpt lat="40.243650" lon="-4.892433">
        <ele>1642.0</ele>
        <time>2013-07-02T11:43:20Z</time>
      </trkpt>
      <trkpt lat="40.243583" lon="-4.892350">
        <ele>1640.0</ele>
        <time>2013-07-02T11:43:21Z</time>
      </trkpt>
      <trkpt lat="40.243500" lon="-4.892283">
        <ele>1638.0</ele>
        <time>2013-07-02T11:43:22Z</time>
      </trkpt>
      <trkpt lat="40.243433" lon="-4.892217">
        <ele>1636.0</ele>
        <time>2013-07-02T11:43:23Z</time>
      </trkpt>
      <trkpt lat="40.243350" lon="-4.892133">
        <ele>1635.0</ele>
        <time>2013-07-02T11:43:24Z</time>
      </trkpt>
      <trkpt lat="40.243283" lon="-4.892050">
        <ele>1634.0</ele>
        <time>2013-07-02T11:43:25Z</time>
      </trkpt>
      <trkpt lat="40.243233" lon="-4.891950">
        <ele>1633.0</ele>
        <time>2013-07-02T11:43:26Z</time>
      </trkpt>
      <trkpt lat="40.243167" lon="-4.891867">
        <ele>1632.0</ele>
        <time>2013-07-02T11:43:27Z</time>
      </trkpt>
      <trkpt lat="40.243100" lon="-4.891800">
        <ele>1630.0</ele>
        <time>2013-07-02T11:43:28Z</time>
      </trkpt>
      <trkpt lat="40.243017" lon="-4.891717">
        <ele>1629.0</ele>
        <time>2013-07-02T11:43:29Z</time>
      </trkpt>
      <trkpt lat="40.242950" lon="-4.891633">
        <ele>1628.0</ele>
        <time>2013-07-02T11:43:30Z</time>
      </trkpt>
      <trkpt lat="40.242883" lon="-4.891567">
        <ele>1626.0</ele>
        <time>2013-07-02T11:43:31Z</time>
      </trkpt>
      <trkpt lat="40.242817" lon="-4.891500">
        <ele>1624.0</ele>
        <time>2013-07-02T11:43:32Z</time>
      </trkpt>
      <trkpt lat="40.242733" lon="-4.891433">
        <ele>1622.0</ele>
        <time>2013-07-02T11:43:33Z</time>
      </trkpt>
      <trkpt lat="40.242667" lon="-4.891350">
        <ele>1619.0</ele>
        <time>2013-07-02T11:43:34Z</time>
      </trkpt>
      <trkpt lat="40.242583" lon="-4.891250">
        <ele>1617.0</ele>
        <time>2013-07-02T11:43:35Z</time>
      </trkpt>
      <trkpt lat="40.242517" lon="-4.891183">
        <ele>1616.0</ele>
        <time>2013-07-02T11:43:36Z</time>
      </trkpt>
      <trkpt lat="40.242433" lon="-4.891117">
        <ele>1615.0</ele>
        <time>2013-07-02T11:43:37Z</time>
      </trkpt>
      <trkpt lat="40.242383" lon="-4.891050">
        <ele>1615.0</ele>
        <time>2013-07-02T11:43:38Z</time>
      </trkpt>
      <trkpt lat="40.242317" lon="-4.890967">
        <ele>1615.0</ele>
        <time>2013-07-02T11:43:39Z</time>
      </trkpt>
      <trkpt lat="40.242250" lon="-4.890900">
        <ele>1614.0</ele>
        <time>2013-07-02T11:43:40Z</time>
      </trkpt>
      <trkpt lat="40.242167" lon="-4.890817">
        <ele>1614.0</ele>
        <time>2013-07-02T11:43:41Z</time>
      </trkpt>
      <trkpt lat="40.242100" lon="-4.890750">
        <ele>1616.0</ele>
        <time>2013-07-02T11:43:42Z</time>
      </trkpt>
      <trkpt lat="40.242033" lon="-4.890700">
        <ele>1616.0</ele>
        <time>2013-07-02T11:43:43Z</time>
      </trkpt>
      <trkpt lat="40.241967" lon="-4.890633">
        <ele>1617.0</ele>
        <time>2013-07-02T11:43:44Z</time>
      </trkpt>
      <trkpt lat="40.241900" lon="-4.890583">
        <ele>1617.0</ele>
        <time>2013-07-02T11:43:45Z</time>
      </trkpt>
      <trkpt lat="40.241833" lon="-4.890533">
        <ele>1616.0</ele>
        <time>2013-07-02T11:43:46Z</time>
      </trkpt>
      <trkpt lat="40.241767" lon="-4.890483">
        <ele>1614.0</ele>
        <time>2013-07-02T11:43:47Z</time>
      </trkpt>
      <trkpt lat="40.241683" lon="-4.890433">
        <ele>1614.0</ele>
        <time>2013-07-02T11:43:48Z</time>
      </trkpt>
      <trkpt lat="40.241617" lon="-4.890367">
        <ele>1613.0</ele>
        <time>2013-07-02T11:43:49Z</time>
      </trkpt>
      <trkpt lat="40.241550" lon="-4.890283">
        <ele>1613.0</ele>
        <time>2013-07-02T11:43:50Z</time>
      </trkpt>
      <trkpt lat="40.241483" lon="-4.890183">
        <ele>1612.0</ele>
        <time>2013-07-02T11:43:51Z</time>
      </trkpt>
      <trkpt lat="40.241417" lon="-4.890083">
        <ele>1611.0</ele>
        <time>2013-07-02T11:43:52Z</time>
      </trkpt>
      <trkpt lat="40.241350" lon="-4.890000">
        <ele>1609.0</ele>
        <time>2013-07-02T11:43:53Z</time>
      </trkpt>
      <trkpt lat="40.241267" lon="-4.889917">
        <ele>1608.0</ele>
        <time>2013-07-02T11:43:54Z</time>
      </trkpt>
      <trkpt lat="40.241200" lon="-4.889833">
        <ele>1607.0</ele>
        <time>2013-07-02T11:43:55Z</time>
      </trkpt>
      <trkpt lat="40.241133" lon="-4.889733">
        <ele>1607.0</ele>
        <time>2013-07-02T11:43:56Z</time>
      </trkpt>
      <trkpt lat="40.241067" lon="-4.889633">
        <ele>1607.0</ele>
        <time>2013-07-02T11:43:57Z</time>
      </trkpt>
      <trkpt lat="40.241000" lon="-4.889533">
        <ele>1606.0</ele>
        <time>2013-07-02T11:43:58Z</time>
      </trkpt>
      <trkpt lat="40.240933" lon="-4.889467">
        <ele>1606.0</ele>
        <time>2013-07-02T11:43:59Z</time>
      </trkpt>
      <trkpt lat="40.240867" lon="-4.889400">
        <ele>1604.0</ele>
        <time>2013-07-02T11:44:00Z</time>
      </trkpt>
      <trkpt lat="40.240800" lon="-4.889350">
        <ele>1603.0</ele>
        <time>2013-07-02T11:44:01Z</time>
      </trkpt>
      <trkpt lat="40.240717" lon="-4.889283">
        <ele>1601.0</ele>
        <time>2013-07-02T11:44:02Z</time>
      </trkpt>
      <trkpt lat="40.240633" lon="-4.889233">
        <ele>1600.0</ele>
        <time>2013-07-02T11:44:03Z</time>
      </trkpt>
      <trkpt lat="40.240567" lon="-4.889183">
        <ele>1600.0</ele>
        <time>2013-07-02T11:44:04Z</time>
      </trkpt>
      <trkpt lat="40.240500" lon="-4.889133">
        <ele>1600.0</ele>
        <time>2013-07-02T11:44:05Z</time>
      </trkpt>
      <trkpt lat="40.240450" lon="-4.889067">
        <ele>1599.0</ele>
        <time>2013-07-02T11:44:06Z</time>
      </trkpt>
      <trkpt lat="40.240383" lon="-4.889000">
        <ele>1597.0</ele>
        <time>2013-07-02T11:44:07Z</time>
      </trkpt>
      <trkpt lat="40.240317" lon="-4.888933">
        <ele>1595.0</ele>
        <time>2013-07-02T11:44:08Z</time>
      </trkpt>
      <trkpt lat="40.240250" lon="-4.888867">
        <ele>1592.0</ele>
        <time>2013-07-02T11:44:09Z</time>
      </trkpt>
      <trkpt lat="40.240167" lon="-4.888800">
        <ele>1589.0</ele>
        <time>2013-07-02T11:44:10Z</time>
      </trkpt>
      <trkpt lat="40.240100" lon="-4.888733">
        <ele>1587.0</ele>
        <time>2013-07-02T11:44:11Z</time>
      </trkpt>
      <trkpt lat="40.240017" lon="-4.888650">
        <ele>1585.0</ele>
        <time>2013-07-02T11:44:12Z</time>
      </trkpt>
      <trkpt lat="40.239950" lon="-4.888583">
        <ele>1583.0</ele>
        <time>2013-07-02T11:44:13Z</time>
      </trkpt>
      <trkpt lat="40.239883" lon="-4.888517">
        <ele>1580.0</ele>
        <time>2013-07-02T11:44:14Z</time>
      </trkpt>
      <trkpt lat="40.239817" lon="-4.888450">
        <ele>1577.0</ele>
        <time>2013-07-02T11:44:15Z</time>
      </trkpt>
      <trkpt lat="40.239733" lon="-4.888383">
        <ele>1574.0</ele>
        <time>2013-07-02T11:44:16Z</time>
      </trkpt>
      <trkpt lat="40.239650" lon="-4.888333">
        <ele>1571.0</ele>
        <time>2013-07-02T11:44:17Z</time>
      </trkpt>
      <trkpt lat="40.239567" lon="-4.888267">
        <ele>1569.0</ele>
        <time>2013-07-02T11:44:18Z</time>
      </trkpt>
      <trkpt lat="40.239500" lon="-4.888217">
        <ele>1568.0</ele>
        <time>2013-07-02T11:44:19Z</time>
      </trkpt>
      <trkpt lat="40.239433" lon="-4.888133">
        <ele>1567.0</ele>
        <time>2013-07-02T11:44:20Z</time>
      </trkpt>
      <trkpt lat="40.239367" lon="-4.888067">
        <ele>1566.0</ele>
        <time>2013-07-02T11:44:21Z</time>
      </trkpt>
      <trkpt lat="40.239300" lon="-4.888000">
        <ele>1564.0</ele>
        <time>2013-07-02T11:44:22Z</time>
      </trkpt>
      <trkpt lat="40.239217" lon="-4.887933">
        <ele>1562.0</ele>
        <time>2013-07-02T11:44:23Z</time>
      </trkpt>
      <trkpt lat="40.239133" lon="-4.887883">
        <ele>1560.0</ele>
        <time>2013-07-02T11:44:24Z</time>
      </trkpt>
      <trkpt lat="40.239067" lon="-4.887817">
        <ele>1560.0</ele>
        <time>2013-07-02T11:44:25Z</time>
      </trkpt>
      <trkpt lat="40.238983" lon="-4.887750">
        <ele>1560.0</ele>
        <time>2013-07-02T11:44:26Z</time>
      </trkpt>
      <trkpt lat="40.238917" lon="-4.887683">
        <ele>1559.0</ele>
        <time>2013-07-02T11:44:27Z</time>
      </trkpt>
      <trkpt lat="40.238850" lon="-4.887617">
        <ele>1558.0</ele>
        <time>2013-07-02T11:44:28Z</time>
      </trkpt>
      <trkpt lat="40.238783" lon="-4.887550">
        <ele>1556.0</ele>
        <time>2013-07-02T11:44:29Z</time>
      </trkpt>
      <trkpt lat="40.238700" lon="-4.887467">
        <ele>1554.0</ele>
        <time>2013-07-02T11:44:30Z</time>
      </trkpt>
      <trkpt lat="40.238633" lon="-4.887383">
        <ele>1553.0</ele>
        <time>2013-07-02T11:44:31Z</time>
      </trkpt>
      <trkpt lat="40.238567" lon="-4.887300">
        <ele>1551.0</ele>
        <time>2013-07-02T11:44:32Z</time>
      </trkpt>
      <trkpt lat="40.238500" lon="-4.887217">
        <ele>1551.0</ele>
        <time>2013-07-02T11:44:33Z</time>
      </trkpt>
      <trkpt lat="40.238450" lon="-4.887133">
        <ele>1549.0</ele>
        <time>2013-07-02T11:44:34Z</time>
      </trkpt>
      <trkpt lat="40.238383" lon="-4.887050">
        <ele>1547.0</ele>
        <time>2013-07-02T11:44:35Z</time>
      </trkpt>
      <trkpt lat="40.238300" lon="-4.886967">
        <ele>1544.0</ele>
        <time>2013-07-02T11:44:36Z</time>
      </trkpt>
      <trkpt lat="40.238217" lon="-4.886900">
        <ele>1542.0</ele>
        <time>2013-07-02T11:44:37Z</time>
      </trkpt>
      <trkpt lat="40.238133" lon="-4.886817">
        <ele>1540.0</ele>
        <time>2013-07-02T11:44:38Z</time>
      </trkpt>
      <trkpt lat="40.238067" lon="-4.886733">
        <ele>1540.0</ele>
        <time>2013-07-02T11:44:39Z</time>
      </trkpt>
      <trkpt lat="40.238000" lon="-4.886650">
        <ele>1539.0</ele>
        <time>2013-07-02T11:44:40Z</time>
      </trkpt>
      <trkpt lat="40.237933" lon="-4.886567">
        <ele>1538.0</ele>
        <time>2013-07-02T11:44:41Z</time>
      </trkpt>
      <trkpt lat="40.237867" lon="-4.886500">
        <ele>1536.0</ele>
        <time>2013-07-02T11:44:42Z</time>
      </trkpt>
      <trkpt lat="40.237800" lon="-4.886417">
        <ele>1533.0</ele>
        <time>2013-07-02T11:44:43Z</time>
      </trkpt>
      <trkpt lat="40.237733" lon="-4.886317">
        <ele>1530.0</ele>
        <time>2013-07-02T11:44:44Z</time>
      </trkpt>
      <trkpt lat="40.237667" lon="-4.886217">
        <ele>1529.0</ele>
        <time>2013-07-02T11:44:45Z</time>
      </trkpt>
      <trkpt lat="40.237600" lon="-4.886133">
        <ele>1527.0</ele>
        <time>2013-07-02T11:44:46Z</time>
      </trkpt>
      <trkpt lat="40.237550" lon="-4.886033">
        <ele>1526.0</ele>
        <time>2013-07-02T11:44:47Z</time>
      </trkpt>
      <trkpt lat="40.237500" lon="-4.885950">
        <ele>1525.0</ele>
        <time>2013-07-02T11:44:48Z</time>
      </trkpt>
      <trkpt lat="40.237450" lon="-4.885850">
        <ele>1523.0</ele>
        <time>2013-07-02T11:44:49Z</time>
      </trkpt>
      <trkpt lat="40.237400" lon="-4.885767">
        <ele>1520.0</ele>
        <time>2013-07-02T11:44:50Z</time>
      </trkpt>
      <trkpt lat="40.237333" lon="-4.885667">
        <ele>1518.0</ele>
        <time>2013-07-02T11:44:51Z</time>
      </trkpt>
      <trkpt lat="40.237283" lon="-4.885567">
        <ele>1516.0</ele>
        <time>2013-07-02T11:44:52Z</time>
      </trkpt>
      <trkpt lat="40.237217" lon="-4.885450">
        <ele>1515.0</ele>
        <time>2013-07-02T11:44:53Z</time>
      </trkpt>
      <trkpt lat="40.237183" lon="-4.885367">
        <ele>1514.0</ele>
        <time>2013-07-02T11:44:54Z</time>
      </trkpt>
      <trkpt lat="40.237133" lon="-4.885267">
        <ele>1513.0</ele>
        <time>2013-07-02T11:44:55Z</time>
      </trkpt>
      <trkpt lat="40.237100" lon="-4.885167">
        <ele>1511.0</ele>
        <time>2013-07-02T11:44:56Z</time>
      </trkpt>
      <trkpt lat="40.237067" lon="-4.885067">
        <ele>1508.0</ele>
        <time>2013-07-02T11:44:57Z</time>
      </trkpt>
      <trkpt lat="40.237017" lon="-4.884950">
        <ele>1505.0</ele>
        <time>2013-07-02T11:44:58Z</time>
      </trkpt>
      <trkpt lat="40.236950" lon="-4.884850">
        <ele>1504.0</ele>
        <time>2013-07-02T11:44:59Z</time>
      </trkpt>
      <trkpt lat="40.236900" lon="-4.884750">
        <ele>1504.0</ele>
        <time>2013-07-02T11:45:00Z</time>
      </trkpt>
      <trkpt lat="40.236850" lon="-4.884683">
        <ele>1505.0</ele>
        <time>2013-07-02T11:45:01Z</time>
      </trkpt>
      <trkpt lat="40.236800" lon="-4.884600">
        <ele>1506.0</ele>
        <time>2013-07-02T11:45:02Z</time>
      </trkpt>
      <trkpt lat="40.236767" lon="-4.884550">
        <ele>1506.0</ele>
        <time>2013-07-02T11:45:03Z</time>
      </trkpt>
      <trkpt lat="40.236733" lon="-4.884483">
        <ele>1506.0</ele>
        <time>2013-07-02T11:45:04Z</time>
      </trkpt>
      <trkpt lat="40.236683" lon="-4.884417">
        <ele>1505.0</ele>
        <time>2013-07-02T11:45:05Z</time>
      </trkpt>
      <trkpt lat="40.236617" lon="-4.884350">
        <ele>1504.0</ele>
        <time>2013-07-02T11:45:06Z</time>
      </trkpt>
      <trkpt lat="40.236567" lon="-4.884283">
        <ele>1504.0</ele>
        <time>2013-07-02T11:45:07Z</time>
      </trkpt>
      <trkpt lat="40.236517" lon="-4.884183">
        <ele>1504.0</ele>
        <time>2013-07-02T11:45:08Z</time>
      </trkpt>
      <trkpt lat="40.236450" lon="-4.884117">
        <ele>1505.0</ele>
        <time>2013-07-02T11:45:09Z</time>
      </trkpt>
      <trkpt lat="40.236400" lon="-4.884033">
        <ele>1506.0</ele>
        <time>2013-07-02T11:45:10Z</time>
      </trkpt>
      <trkpt lat="40.236350" lon="-4.883950">
        <ele>1508.0</ele>
        <time>2013-07-02T11:45:11Z</time>
      </trkpt>
      <trkpt lat="40.236300" lon="-4.883850">
        <ele>1510.0</ele>
        <time>2013-07-02T11:45:12Z</time>
      </trkpt>
      <trkpt lat="40.236283" lon="-4.883767">
        <ele>1512.0</ele>
        <time>2013-07-02T11:45:13Z</time>
      </trkpt>
      <trkpt lat="40.236250" lon="-4.883700">
        <ele>1513.0</ele>
        <time>2013-07-02T11:45:14Z</time>
      </trkpt>
      <trkpt lat="40.236200" lon="-4.883617">
        <ele>1514.0</ele>
        <time>2013-07-02T11:45:15Z</time>
      </trkpt>
      <trkpt lat="40.236167" lon="-4.883550">
        <ele>1516.0</ele>
        <time>2013-07-02T11:45:16Z</time>
      </trkpt>
      <trkpt lat="40.236100" lon="-4.883467">
        <ele>1518.0</ele>
        <time>2013-07-02T11:45:17Z</time>
      </trkpt>
      <trkpt lat="40.236050" lon="-4.883417">
        <ele>1520.0</ele>
        <time>2013-07-02T11:45:18Z</time>
      </trkpt>
      <trkpt lat="40.236000" lon="-4.883350">
        <ele>1523.0</ele>
        <time>2013-07-02T11:45:19Z</time>
      </trkpt>
      <trkpt lat="40.235950" lon="-4.883300">
        <ele>1526.0</ele>
        <time>2013-07-02T11:45:20Z</time>
      </trkpt>
      <trkpt lat="40.235900" lon="-4.883250">
        <ele>1528.0</ele>
        <time>2013-07-02T11:45:21Z</time>
      </trkpt>
      <trkpt lat="40.235833" lon="-4.883200">
        <ele>1530.0</ele>
        <time>2013-07-02T11:45:22Z</time>
      </trkpt>
      <trkpt lat="40.235783" lon="-4.883150">
        <ele>1532.0</ele>
        <time>2013-07-02T11:45:23Z</time>
      </trkpt>
      <trkpt lat="40.235733" lon="-4.883117">
        <ele>1535.0</ele>
        <time>2013-07-02T11:45:24Z</time>
      </trkpt>
      <trkpt lat="40.235683" lon="-4.883083">
        <ele>1537.0</ele>
        <time>2013-07-02T11:45:25Z</time>
      </trkpt>
      <trkpt lat="40.235650" lon="-4.883050">
        <ele>1540.0</ele>
        <time>2013-07-02T11:45:26Z</time>
      </trkpt>
      <trkpt lat="40.235600" lon="-4.883000">
        <ele>1542.0</ele>
        <time>2013-07-02T11:45:27Z</time>
      </trkpt>
      <trkpt lat="40.235550" lon="-4.882950">
        <ele>1544.0</ele>
        <time>2013-07-02T11:45:28Z</time>
      </trkpt>
      <trkpt lat="40.235500" lon="-4.882900">
        <ele>1545.0</ele>
        <time>2013-07-02T11:45:29Z</time>
      </trkpt>
      <trkpt lat="40.235433" lon="-4.882867">
        <ele>1547.0</ele>
        <time>2013-07-02T11:45:30Z</time>
      </trkpt>
      <trkpt lat="40.235400" lon="-4.882833">
        <ele>1550.0</ele>
        <time>2013-07-02T11:45:31Z</time>
      </trkpt>
      <trkpt lat="40.235350" lon="-4.882783">
        <ele>1552.0</ele>
        <time>2013-07-02T11:45:32Z</time>
      </trkpt>
      <trkpt lat="40.235300" lon="-4.882733">
        <ele>1553.0</ele>
        <time>2013-07-02T11:45:33Z</time>
      </trkpt>
      <trkpt lat="40.235250" lon="-4.882683">
        <ele>1555.0</ele>
        <time>2013-07-02T11:45:34Z</time>
      </trkpt>
      <trkpt lat="40.235200" lon="-4.882617">
        <ele>1556.0</ele>
        <time>2013-07-02T11:45:35Z</time>
      </trkpt>
      <trkpt lat="40.235167" lon="-4.882550">
        <ele>1558.0</ele>
        <time>2013-07-02T11:45:36Z</time>
      </trkpt>
      <trkpt lat="40.235133" lon="-4.882467">
        <ele>1560.0</ele>
        <time>2013-07-02T11:45:37Z</time>
      </trkpt>
      <trkpt lat="40.235117" lon="-4.882367">
        <ele>1561.0</ele>
        <time>2013-07-02T11:45:38Z</time>
      </trkpt>
      <trkpt lat="40.235100" lon="-4.882250">
        <ele>1563.0</ele>
        <time>2013-07-02T11:45:39Z</time>
      </trkpt>
      <trkpt lat="40.235100" lon="-4.882117">
        <ele>1564.0</ele>
        <time>2013-07-02T11:45:40Z</time>
      </trkpt>
      <trkpt lat="40.235117" lon="-4.882000">
        <ele>1566.0</ele>
        <time>2013-07-02T11:45:41Z</time>
      </trkpt>
      <trkpt lat="40.235167" lon="-4.881883">
        <ele>1569.0</ele>
        <time>2013-07-02T11:45:42Z</time>
      </trkpt>
      <trkpt lat="40.235217" lon="-4.881767">
        <ele>1571.0</ele>
        <time>2013-07-02T11:45:43Z</time>
      </trkpt>
      <trkpt lat="40.235283" lon="-4.881683">
        <ele>1572.0</ele>
        <time>2013-07-02T11:45:44Z</time>
      </trkpt>
      <trkpt lat="40.235367" lon="-4.881617">
        <ele>1575.0</ele>
        <time>2013-07-02T11:45:45Z</time>
      </trkpt>
      <trkpt lat="40.235450" lon="-4.881567">
        <ele>1577.0</ele>
        <time>2013-07-02T11:45:46Z</time>
      </trkpt>
      <trkpt lat="40.235533" lon="-4.881567">
        <ele>1579.0</ele>
        <time>2013-07-02T11:45:47Z</time>
      </trkpt>
      <trkpt lat="40.235600" lon="-4.881600">
        <ele>1580.0</ele>
        <time>2013-07-02T11:45:48Z</time>
      </trkpt>
      <trkpt lat="40.235633" lon="-4.881667">
        <ele>1582.0</ele>
        <time>2013-07-02T11:45:49Z</time>
      </trkpt>
      <trkpt lat="40.235667" lon="-4.881733">
        <ele>1583.0</ele>
        <time>2013-07-02T11:45:50Z</time>
      </trkpt>
      <trkpt lat="40.235683" lon="-4.881783">
        <ele>1585.0</ele>
        <time>2013-07-02T11:45:51Z</time>
      </trkpt>
      <trkpt lat="40.235683" lon="-4.881833">
        <ele>1587.0</ele>
        <time>2013-07-02T11:45:52Z</time>
      </trkpt>
      <trkpt lat="40.235650" lon="-4.881883">
        <ele>1587.0</ele>
        <time>2013-07-02T11:45:53Z</time>
      </trkpt>
      <trkpt lat="40.235617" lon="-4.881917">
        <ele>1588.0</ele>
        <time>2013-07-02T11:45:54Z</time>
      </trkpt>
      <trkpt lat="40.235567" lon="-4.881950">
        <ele>1590.0</ele>
        <time>2013-07-02T11:45:55Z</time>
      </trkpt>
      <trkpt lat="40.235517" lon="-4.881983">
        <ele>1591.0</ele>
        <time>2013-07-02T11:45:56Z</time>
      </trkpt>
      <trkpt lat="40.235467" lon="-4.881983">
        <ele>1594.0</ele>
        <time>2013-07-02T11:45:57Z</time>
      </trkpt>
      <trkpt lat="40.235433" lon="-4.882000">
        <ele>1596.0</ele>
        <time>2013-07-02T11:45:58Z</time>
      </trkpt>
      <trkpt lat="40.235383" lon="-4.882017">
        <ele>1599.0</ele>
        <time>2013-07-02T11:45:59Z</time>
      </trkpt>
      <trkpt lat="40.235350" lon="-4.882017">
        <ele>1601.0</ele>
        <time>2013-07-02T11:46:00Z</time>
      </trkpt>
      <trkpt lat="40.235300" lon="-4.882000">
        <ele>1603.0</ele>
        <time>2013-07-02T11:46:01Z</time>
      </trkpt>
      <trkpt lat="40.235250" lon="-4.881967">
        <ele>1605.0</ele>
        <time>2013-07-02T11:46:02Z</time>
      </trkpt>
      <trkpt lat="40.235200" lon="-4.881917">
        <ele>1606.0</ele>
        <time>2013-07-02T11:46:03Z</time>
      </trkpt>
      <trkpt lat="40.235167" lon="-4.881833">
        <ele>1607.0</ele>
        <time>2013-07-02T11:46:04Z</time>
      </trkpt>
      <trkpt lat="40.235133" lon="-4.881733">
        <ele>1608.0</ele>
        <time>2013-07-02T11:46:05Z</time>
      </trkpt>
      <trkpt lat="40.235100" lon="-4.881633">
        <ele>1610.0</ele>
        <time>2013-07-02T11:46:06Z</time>
      </trkpt>
      <trkpt lat="40.235083" lon="-4.881517">
        <ele>1611.0</ele>
        <time>2013-07-02T11:46:07Z</time>
      </trkpt>
      <trkpt lat="40.235083" lon="-4.881400">
        <ele>1612.0</ele>
        <time>2013-07-02T11:46:08Z</time>
      </trkpt>
      <trkpt lat="40.235083" lon="-4.881267">
        <ele>1614.0</ele>
        <time>2013-07-02T11:46:09Z</time>
      </trkpt>
      <trkpt lat="40.235117" lon="-4.881133">
        <ele>1615.0</ele>
        <time>2013-07-02T11:46:10Z</time>
      </trkpt>
      <trkpt lat="40.235167" lon="-4.881000">
        <ele>1617.0</ele>
        <time>2013-07-02T11:46:11Z</time>
      </trkpt>
      <trkpt lat="40.235217" lon="-4.880867">
        <ele>1619.0</ele>
        <time>2013-07-02T11:46:12Z</time>
      </trkpt>
      <trkpt lat="40.235267" lon="-4.880733">
        <ele>1620.0</ele>
        <time>2013-07-02T11:46:13Z</time>
      </trkpt>
      <trkpt lat="40.235350" lon="-4.880633">
        <ele>1621.0</ele>
        <time>2013-07-02T11:46:14Z</time>
      </trkpt>
      <trkpt lat="40.235417" lon="-4.880550">
        <ele>1622.0</ele>
        <time>2013-07-02T11:46:15Z</time>
      </trkpt>
      <trkpt lat="40.235517" lon="-4.880483">
        <ele>1622.0</ele>
        <time>2013-07-02T11:46:16Z</time>
      </trkpt>
      <trkpt lat="40.235633" lon="-4.880450">
        <ele>1623.0</ele>
        <time>2013-07-02T11:46:17Z</time>
      </trkpt>
      <trkpt lat="40.235717" lon="-4.880450">
        <ele>1625.0</ele>
        <time>2013-07-02T11:46:18Z</time>
      </trkpt>
      <trkpt lat="40.235800" lon="-4.880467">
        <ele>1626.0</ele>
        <time>2013-07-02T11:46:19Z</time>
      </trkpt>
      <trkpt lat="40.235867" lon="-4.880500">
        <ele>1626.0</ele>
        <time>2013-07-02T11:46:20Z</time>
      </trkpt>
      <trkpt lat="40.235917" lon="-4.880533">
        <ele>1626.0</ele>
        <time>2013-07-02T11:46:21Z</time>
      </trkpt>
      <trkpt lat="40.236000" lon="-4.880567">
        <ele>1627.0</ele>
        <time>2013-07-02T11:46:22Z</time>
      </trkpt>
      <trkpt lat="40.236067" lon="-4.880583">
        <ele>1628.0</ele>
        <time>2013-07-02T11:46:23Z</time>
      </trkpt>
      <trkpt lat="40.236150" lon="-4.880600">
        <ele>1631.0</ele>
        <time>2013-07-02T11:46:24Z</time>
      </trkpt>
      <trkpt lat="40.236233" lon="-4.880600">
        <ele>1634.0</ele>
        <time>2013-07-02T11:46:25Z</time>
      </trkpt>
      <trkpt lat="40.236317" lon="-4.880550">
        <ele>1635.0</ele>
        <time>2013-07-02T11:46:26Z</time>
      </trkpt>
      <trkpt lat="40.236383" lon="-4.880467">
        <ele>1636.0</ele>
        <time>2013-07-02T11:46:27Z</time>
      </trkpt>
      <trkpt lat="40.236467" lon="-4.880350">
        <ele>1637.0</ele>
        <time>2013-07-02T11:46:28Z</time>
      </trkpt>
      <trkpt lat="40.236517" lon="-4.880217">
        <ele>1638.0</ele>
        <time>2013-07-02T11:46:29Z</time>
      </trkpt>
      <trkpt lat="40.236533" lon="-4.880083">
        <ele>1640.0</ele>
        <time>2013-07-02T11:46:30Z</time>
      </trkpt>
      <trkpt lat="40.236550" lon="-4.879967">
        <ele>1641.0</ele>
        <time>2013-07-02T11:46:31Z</time>
      </trkpt>
      <trkpt lat="40.236533" lon="-4.879850">
        <ele>1643.0</ele>
        <time>2013-07-02T11:46:32Z</time>
      </trkpt>
      <trkpt lat="40.236517" lon="-4.879767">
        <ele>1644.0</ele>
        <time>2013-07-02T11:46:33Z</time>
      </trkpt>
      <trkpt lat="40.236500" lon="-4.879667">
        <ele>1646.0</ele>
        <time>2013-07-02T11:46:34Z</time>
      </trkpt>
      <trkpt lat="40.236467" lon="-4.879583">
        <ele>1647.0</ele>
        <time>2013-07-02T11:46:35Z</time>
      </trkpt>
      <trkpt lat="40.236417" lon="-4.879517">
        <ele>1649.0</ele>
        <time>2013-07-02T11:46:36Z</time>
      </trkpt>
      <trkpt lat="40.236367" lon="-4.879467">
        <ele>1650.0</ele>
        <time>2013-07-02T11:46:37Z</time>
      </trkpt>
      <trkpt lat="40.236317" lon="-4.879433">
        <ele>1652.0</ele>
        <time>2013-07-02T11:46:38Z</time>
      </trkpt>
      <trkpt lat="40.236267" lon="-4.879417">
        <ele>1653.0</ele>
        <time>2013-07-02T11:46:39Z</time>
      </trkpt>
      <trkpt lat="40.236217" lon="-4.879383">
        <ele>1655.0</ele>
        <time>2013-07-02T11:46:40Z</time>
      </trkpt>
      <trkpt lat="40.236167" lon="-4.879367">
        <ele>1656.0</ele>
        <time>2013-07-02T11:46:41Z</time>
      </trkpt>
      <trkpt lat="40.236133" lon="-4.879333">
        <ele>1657.0</ele>
        <time>2013-07-02T11:46:42Z</time>
      </trkpt>
      <trkpt lat="40.236100" lon="-4.879317">
        <ele>1658.0</ele>
        <time>2013-07-02T11:46:43Z</time>
      </trkpt>
      <trkpt lat="40.236050" lon="-4.879283">
        <ele>1658.0</ele>
        <time>2013-07-02T11:46:44Z</time>
      </trkpt>
      <trkpt lat="40.236000" lon="-4.879233">
        <ele>1658.0</ele>
        <time>2013-07-02T11:46:45Z</time>
      </trkpt>
      <trkpt lat="40.235950" lon="-4.879167">
        <ele>1658.0</ele>
        <time>2013-07-02T11:46:46Z</time>
      </trkpt>
      <trkpt lat="40.235917" lon="-4.879067">
        <ele>1658.0</ele>
        <time>2013-07-02T11:46:47Z</time>
      </trkpt>
      <trkpt lat="40.235883" lon="-4.878950">
        <ele>1658.0</ele>
        <time>2013-07-02T11:46:48Z</time>
      </trkpt>
      <trkpt lat="40.235867" lon="-4.878817">
        <ele>1658.0</ele>
        <time>2013-07-02T11:46:49Z</time>
      </trkpt>
      <trkpt lat="40.235850" lon="-4.878700">
        <ele>1658.0</ele>
        <time>2013-07-02T11:46:50Z</time>
      </trkpt>
      <trkpt lat="40.235850" lon="-4.878550">
        <ele>1658.0</ele>
        <time>2013-07-02T11:46:51Z</time>
      </trkpt>
      <trkpt lat="40.235850" lon="-4.878417">
        <ele>1658.0</ele>
        <time>2013-07-02T11:46:52Z</time>
      </trkpt>
      <trkpt lat="40.235867" lon="-4.878267">
        <ele>1659.0</ele>
        <time>2013-07-02T11:46:53Z</time>
      </trkpt>
      <trkpt lat="40.235883" lon="-4.878117">
        <ele>1659.0</ele>
        <time>2013-07-02T11:46:54Z</time>
      </trkpt>
      <trkpt lat="40.235900" lon="-4.877983">
        <ele>1660.0</ele>
        <time>2013-07-02T11:46:55Z</time>
      </trkpt>
      <trkpt lat="40.235933" lon="-4.877850">
        <ele>1662.0</ele>
        <time>2013-07-02T11:46:56Z</time>
      </trkpt>
      <trkpt lat="40.235967" lon="-4.877700">
        <ele>1663.0</ele>
        <time>2013-07-02T11:46:57Z</time>
      </trkpt>
      <trkpt lat="40.236000" lon="-4.877583">
        <ele>1663.0</ele>
        <time>2013-07-02T11:46:58Z</time>
      </trkpt>
      <trkpt lat="40.236050" lon="-4.877467">
        <ele>1662.0</ele>
        <time>2013-07-02T11:46:59Z</time>
      </trkpt>
      <trkpt lat="40.236117" lon="-4.877333">
        <ele>1662.0</ele>
        <time>2013-07-02T11:47:00Z</time>
      </trkpt>
      <trkpt lat="40.236183" lon="-4.877200">
        <ele>1661.0</ele>
        <time>2013-07-02T11:47:01Z</time>
      </trkpt>
      <trkpt lat="40.236250" lon="-4.877067">
        <ele>1661.0</ele>
        <time>2013-07-02T11:47:02Z</time>
      </trkpt>
      <trkpt lat="40.236317" lon="-4.876950">
        <ele>1662.0</ele>
        <time>2013-07-02T11:47:03Z</time>
      </trkpt>
      <trkpt lat="40.236400" lon="-4.876850">
        <ele>1662.0</ele>
        <time>2013-07-02T11:47:04Z</time>
      </trkpt>
      <trkpt lat="40.236500" lon="-4.876750">
        <ele>1663.0</ele>
        <time>2013-07-02T11:47:05Z</time>
      </trkpt>
      <trkpt lat="40.236583" lon="-4.876683">
        <ele>1664.0</ele>
        <time>2013-07-02T11:47:06Z</time>
      </trkpt>
      <trkpt lat="40.236667" lon="-4.876600">
        <ele>1665.0</ele>
        <time>2013-07-02T11:47:07Z</time>
      </trkpt>
      <trkpt lat="40.236750" lon="-4.876517">
        <ele>1664.0</ele>
        <time>2013-07-02T11:47:08Z</time>
      </trkpt>
      <trkpt lat="40.236850" lon="-4.876450">
        <ele>1664.0</ele>
        <time>2013-07-02T11:47:09Z</time>
      </trkpt>
      <trkpt lat="40.236950" lon="-4.876400">
        <ele>1663.0</ele>
        <time>2013-07-02T11:47:10Z</time>
      </trkpt>
      <trkpt lat="40.237050" lon="-4.876350">
        <ele>1662.0</ele>
        <time>2013-07-02T11:47:11Z</time>
      </trkpt>
      <trkpt lat="40.237167" lon="-4.876317">
        <ele>1662.0</ele>
        <time>2013-07-02T11:47:12Z</time>
      </trkpt>
      <trkpt lat="40.237267" lon="-4.876317">
        <ele>1663.0</ele>
        <time>2013-07-02T11:47:13Z</time>
      </trkpt>
      <trkpt lat="40.237367" lon="-4.876350">
        <ele>1664.0</ele>
        <time>2013-07-02T11:47:14Z</time>
      </trkpt>
      <trkpt lat="40.237450" lon="-4.876383">
        <ele>1666.0</ele>
        <time>2013-07-02T11:47:15Z</time>
      </trkpt>
      <trkpt lat="40.237517" lon="-4.876433">
        <ele>1667.0</ele>
        <time>2013-07-02T11:47:16Z</time>
      </trkpt>
      <trkpt lat="40.237550" lon="-4.876500">
        <ele>1669.0</ele>
        <time>2013-07-02T11:47:17Z</time>
      </trkpt>
      <trkpt lat="40.237583" lon="-4.876550">
        <ele>1670.0</ele>
        <time>2013-07-02T11:47:18Z</time>
      </trkpt>
      <trkpt lat="40.237617" lon="-4.876600">
        <ele>1671.0</ele>
        <time>2013-07-02T11:47:19Z</time>
      </trkpt>
      <trkpt lat="40.237633" lon="-4.876667">
        <ele>1673.0</ele>
        <time>2013-07-02T11:47:20Z</time>
      </trkpt>
      <trkpt lat="40.237633" lon="-4.876717">
        <ele>1674.0</ele>
        <time>2013-07-02T11:47:21Z</time>
      </trkpt>
      <trkpt lat="40.237633" lon="-4.876767">
        <ele>1675.0</ele>
        <time>2013-07-02T11:47:22Z</time>
      </trkpt>
      <trkpt lat="40.237617" lon="-4.876817">
        <ele>1675.0</ele>
        <time>2013-07-02T11:47:23Z</time>
      </trkpt>
      <trkpt lat="40.237567" lon="-4.876850">
        <ele>1676.0</ele>
        <time>2013-07-02T11:47:24Z</time>
      </trkpt>
      <trkpt lat="40.237517" lon="-4.876850">
        <ele>1677.0</ele>
        <time>2013-07-02T11:47:25Z</time>
      </trkpt>
      <trkpt lat="40.237467" lon="-4.876833">
        <ele>1678.0</ele>
        <time>2013-07-02T11:47:26Z</time>
      </trkpt>
      <trkpt lat="40.237417" lon="-4.876783">
        <ele>1679.0</ele>
        <time>2013-07-02T11:47:27Z</time>
      </trkpt>
      <trkpt lat="40.237383" lon="-4.876733">
        <ele>1680.0</ele>
        <time>2013-07-02T11:47:28Z</time>
      </trkpt>
      <trkpt lat="40.237333" lon="-4.876650">
        <ele>1680.0</ele>
        <time>2013-07-02T11:47:29Z</time>
      </trkpt>
      <trkpt lat="40.237300" lon="-4.876567">
        <ele>1679.0</ele>
        <time>2013-07-02T11:47:30Z</time>
      </trkpt>
      <trkpt lat="40.237267" lon="-4.876450">
        <ele>1679.0</ele>
        <time>2013-07-02T11:47:31Z</time>
      </trkpt>
      <trkpt lat="40.237250" lon="-4.876333">
        <ele>1679.0</ele>
        <time>2013-07-02T11:47:32Z</time>
      </trkpt>
      <trkpt lat="40.237250" lon="-4.876217">
        <ele>1679.0</ele>
        <time>2013-07-02T11:47:33Z</time>
      </trkpt>
      <trkpt lat="40.237250" lon="-4.876100">
        <ele>1680.0</ele>
        <time>2013-07-02T11:47:34Z</time>
      </trkpt>
      <trkpt lat="40.237250" lon="-4.875967">
        <ele>1681.0</ele>
        <time>2013-07-02T11:47:35Z</time>
      </trkpt>
      <trkpt lat="40.237283" lon="-4.875850">
        <ele>1682.0</ele>
        <time>2013-07-02T11:47:36Z</time>
      </trkpt>
      <trkpt lat="40.237317" lon="-4.875750">
        <ele>1682.0</ele>
        <time>2013-07-02T11:47:37Z</time>
      </trkpt>
      <trkpt lat="40.237333" lon="-4.875650">
        <ele>1682.0</ele>
        <time>2013-07-02T11:47:38Z</time>
      </trkpt>
      <trkpt lat="40.237367" lon="-4.875533">
        <ele>1680.0</ele>
        <time>2013-07-02T11:47:39Z</time>
      </trkpt>
      <trkpt lat="40.237400" lon="-4.875400">
        <ele>1679.0</ele>
        <time>2013-07-02T11:47:40Z</time>
      </trkpt>
      <trkpt lat="40.237433" lon="-4.875267">
        <ele>1679.0</ele>
        <time>2013-07-02T11:47:41Z</time>
      </trkpt>
      <trkpt lat="40.237483" lon="-4.875117">
        <ele>1680.0</ele>
        <time>2013-07-02T11:47:42Z</time>
      </trkpt>
      <trkpt lat="40.237533" lon="-4.875000">
        <ele>1681.0</ele>
        <time>2013-07-02T11:47:43Z</time>
      </trkpt>
      <trkpt lat="40.237567" lon="-4.874850">
        <ele>1683.0</ele>
        <time>2013-07-02T11:47:44Z</time>
      </trkpt>
      <trkpt lat="40.237617" lon="-4.874733">
        <ele>1685.0</ele>
        <time>2013-07-02T11:47:45Z</time>
      </trkpt>
      <trkpt lat="40.237650" lon="-4.874633">
        <ele>1687.0</ele>
        <time>2013-07-02T11:47:46Z</time>
      </trkpt>
      <trkpt lat="40.237683" lon="-4.874517">
        <ele>1688.0</ele>
        <time>2013-07-02T11:47:47Z</time>
      </trkpt>
      <trkpt lat="40.237683" lon="-4.874417">
        <ele>1689.0</ele>
        <time>2013-07-02T11:47:48Z</time>
      </trkpt>
      <trkpt lat="40.237700" lon="-4.874300">
        <ele>1688.0</ele>
        <time>2013-07-02T11:47:49Z</time>
      </trkpt>
      <trkpt lat="40.237683" lon="-4.874167">
        <ele>1688.0</ele>
        <time>2013-07-02T11:47:50Z</time>
      </trkpt>
      <trkpt lat="40.237667" lon="-4.874033">
        <ele>1688.0</ele>
        <time>2013-07-02T11:47:51Z</time>
      </trkpt>
      <trkpt lat="40.237633" lon="-4.873917">
        <ele>1689.0</ele>
        <time>2013-07-02T11:47:52Z</time>
      </trkpt>
      <trkpt lat="40.237600" lon="-4.873800">
        <ele>1690.0</ele>
        <time>2013-07-02T11:47:53Z</time>
      </trkpt>
      <trkpt lat="40.237567" lon="-4.873717">
        <ele>1691.0</ele>
        <time>2013-07-02T11:47:54Z</time>
      </trkpt>
      <trkpt lat="40.237550" lon="-4.873633">
        <ele>1692.0</ele>
        <time>2013-07-02T11:47:55Z</time>
      </trkpt>
      <trkpt lat="40.237550" lon="-4.873567">
        <ele>1692.0</ele>
        <time>2013-07-02T11:47:56Z</time>
      </trkpt>
      <trkpt lat="40.237517" lon="-4.873500">
        <ele>1691.0</ele>
        <time>2013-07-02T11:47:57Z</time>
      </trkpt>
      <trkpt lat="40.237483" lon="-4.873417">
        <ele>1689.0</ele>
        <time>2013-07-02T11:47:58Z</time>
      </trkpt>
      <trkpt lat="40.237433" lon="-4.873367">
        <ele>1687.0</ele>
        <time>2013-07-02T11:47:59Z</time>
      </trkpt>
      <trkpt lat="40.237367" lon="-4.873350">
        <ele>1687.0</ele>
        <time>2013-07-02T11:48:00Z</time>
      </trkpt>
      <trkpt lat="40.237317" lon="-4.873350">
        <ele>1688.0</ele>
        <time>2013-07-02T11:48:01Z</time>
      </trkpt>
      <trkpt lat="40.237283" lon="-4.873350">
        <ele>1688.0</ele>
        <time>2013-07-02T11:48:02Z</time>
      </trkpt>
      <trkpt lat="40.237233" lon="-4.873350">
        <ele>1689.0</ele>
        <time>2013-07-02T11:48:03Z</time>
      </trkpt>
      <trkpt lat="40.237200" lon="-4.873333">
        <ele>1690.0</ele>
        <time>2013-07-02T11:48:04Z</time>
      </trkpt>
      <trkpt lat="40.237183" lon="-4.873300">
        <ele>1690.0</ele>
        <time>2013-07-02T11:48:05Z</time>
      </trkpt>
      <trkpt lat="40.237150" lon="-4.873283">
        <ele>1690.0</ele>
        <time>2013-07-02T11:48:06Z</time>
      </trkpt>
      <trkpt lat="40.237117" lon="-4.873283">
        <ele>1689.0</ele>
        <time>2013-07-02T11:48:07Z</time>
      </trkpt>
      <trkpt lat="40.237083" lon="-4.873317">
        <ele>1687.0</ele>
        <time>2013-07-02T11:48:08Z</time>
      </trkpt>
      <trkpt lat="40.237067" lon="-4.873350">
        <ele>1686.0</ele>
        <time>2013-07-02T11:48:09Z</time>
      </trkpt>
      <trkpt lat="40.237050" lon="-4.873400">
        <ele>1686.0</ele>
        <time>2013-07-02T11:48:10Z</time>
      </trkpt>
      <trkpt lat="40.237050" lon="-4.873433">
        <ele>1686.0</ele>
        <time>2013-07-02T11:48:11Z</time>
      </trkpt>
      <trkpt lat="40.237067" lon="-4.873467">
        <ele>1686.0</ele>
        <time>2013-07-02T11:48:12Z</time>
      </trkpt>
      <trkpt lat="40.237067" lon="-4.873500">
        <ele>1687.0</ele>
        <time>2013-07-02T11:48:13Z</time>
      </trkpt>
      <trkpt lat="40.237050" lon="-4.873517">
        <ele>1687.0</ele>
        <time>2013-07-02T11:48:14Z</time>
      </trkpt>
      <trkpt lat="40.237067" lon="-4.873567">
        <ele>1686.0</ele>
        <time>2013-07-02T11:48:15Z</time>
      </trkpt>
      <trkpt lat="40.237067" lon="-4.873600">
        <ele>1686.0</ele>
        <time>2013-07-02T11:48:16Z</time>
      </trkpt>
      <trkpt lat="40.237083" lon="-4.873650">
        <ele>1686.0</ele>
        <time>2013-07-02T11:48:17Z</time>
      </trkpt>
      <trkpt lat="40.237083" lon="-4.873683">
        <ele>1686.0</ele>
        <time>2013-07-02T11:48:18Z</time>
      </trkpt>
      <trkpt lat="40.237083" lon="-4.873717">
        <ele>1685.0</ele>
        <time>2013-07-02T11:48:19Z</time>
      </trkpt>
      <trkpt lat="40.237067" lon="-4.873767">
        <ele>1684.0</ele>
        <time>2013-07-02T11:48:20Z</time>
      </trkpt>
      <trkpt lat="40.237067" lon="-4.873817">
        <ele>1683.0</ele>
        <time>2013-07-02T11:48:21Z</time>
      </trkpt>
      <trkpt lat="40.237083" lon="-4.873867">
        <ele>1682.0</ele>
        <time>2013-07-02T11:48:22Z</time>
      </trkpt>
      <trkpt lat="40.237083" lon="-4.873900">
        <ele>1682.0</ele>
        <time>2013-07-02T11:48:23Z</time>
      </trkpt>
      <trkpt lat="40.237100" lon="-4.873950">
        <ele>1682.0</ele>
        <time>2013-07-02T11:48:24Z</time>
      </trkpt>
      <trkpt lat="40.237100" lon="-4.873983">
        <ele>1681.0</ele>
        <time>2013-07-02T11:48:25Z</time>
      </trkpt>
      <trkpt lat="40.237117" lon="-4.874017">
        <ele>1680.0</ele>
        <time>2013-07-02T11:48:26Z</time>
      </trkpt>
      <trkpt lat="40.237150" lon="-4.874067">
        <ele>1679.0</ele>
        <time>2013-07-02T11:48:27Z</time>
      </trkpt>
      <trkpt lat="40.237183" lon="-4.874117">
        <ele>1678.0</ele>
        <time>2013-07-02T11:48:28Z</time>
      </trkpt>
      <trkpt lat="40.237217" lon="-4.874150">
        <ele>1677.0</ele>
        <time>2013-07-02T11:48:29Z</time>
      </trkpt>
      <trkpt lat="40.237250" lon="-4.874183">
        <ele>1677.0</ele>
        <time>2013-07-02T11:48:30Z</time>
      </trkpt>
      <trkpt lat="40.237283" lon="-4.874200">
        <ele>1676.0</ele>
        <time>2013-07-02T11:48:31Z</time>
      </trkpt>
      <trkpt lat="40.237333" lon="-4.874233">
        <ele>1675.0</ele>
        <time>2013-07-02T11:48:32Z</time>
      </trkpt>
      <trkpt lat="40.237383" lon="-4.874267">
        <ele>1674.0</ele>
        <time>2013-07-02T11:48:33Z</time>
      </trkpt>
      <trkpt lat="40.237450" lon="-4.874300">
        <ele>1673.0</ele>
        <time>2013-07-02T11:48:34Z</time>
      </trkpt>
      <trkpt lat="40.237500" lon="-4.874317">
        <ele>1673.0</ele>
        <time>2013-07-02T11:48:35Z</time>
      </trkpt>
      <trkpt lat="40.237567" lon="-4.874333">
        <ele>1672.0</ele>
        <time>2013-07-02T11:48:36Z</time>
      </trkpt>
      <trkpt lat="40.237633" lon="-4.874317">
        <ele>1671.0</ele>
        <time>2013-07-02T11:48:37Z</time>
      </trkpt>
      <trkpt lat="40.237717" lon="-4.874317">
        <ele>1669.0</ele>
        <time>2013-07-02T11:48:38Z</time>
      </trkpt>
      <trkpt lat="40.237800" lon="-4.874317">
        <ele>1668.0</ele>
        <time>2013-07-02T11:48:39Z</time>
      </trkpt>
      <trkpt lat="40.237900" lon="-4.874317">
        <ele>1668.0</ele>
        <time>2013-07-02T11:48:40Z</time>
      </trkpt>
      <trkpt lat="40.237983" lon="-4.874300">
        <ele>1668.0</ele>
        <time>2013-07-02T11:48:41Z</time>
      </trkpt>
      <trkpt lat="40.238067" lon="-4.874283">
        <ele>1669.0</ele>
        <time>2013-07-02T11:48:42Z</time>
      </trkpt>
      <trkpt lat="40.238150" lon="-4.874267">
        <ele>1669.0</ele>
        <time>2013-07-02T11:48:43Z</time>
      </trkpt>
      <trkpt lat="40.238217" lon="-4.874267">
        <ele>1668.0</ele>
        <time>2013-07-02T11:48:44Z</time>
      </trkpt>
      <trkpt lat="40.238283" lon="-4.874283">
        <ele>1667.0</ele>
        <time>2013-07-02T11:48:45Z</time>
      </trkpt>
      <trkpt lat="40.238350" lon="-4.874317">
        <ele>1666.0</ele>
        <time>2013-07-02T11:48:46Z</time>
      </trkpt>
      <trkpt lat="40.238417" lon="-4.874350">
        <ele>1665.0</ele>
        <time>2013-07-02T11:48:47Z</time>
      </trkpt>
      <trkpt lat="40.238467" lon="-4.874400">
        <ele>1664.0</ele>
        <time>2013-07-02T11:48:48Z</time>
      </trkpt>
      <trkpt lat="40.238517" lon="-4.874467">
        <ele>1663.0</ele>
        <time>2013-07-02T11:48:49Z</time>
      </trkpt>
      <trkpt lat="40.238533" lon="-4.874533">
        <ele>1663.0</ele>
        <time>2013-07-02T11:48:50Z</time>
      </trkpt>
      <trkpt lat="40.238550" lon="-4.874583">
        <ele>1663.0</ele>
        <time>2013-07-02T11:48:51Z</time>
      </trkpt>
      <trkpt lat="40.238550" lon="-4.874633">
        <ele>1663.0</ele>
        <time>2013-07-02T11:48:52Z</time>
      </trkpt>
      <trkpt lat="40.238550" lon="-4.874667">
        <ele>1663.0</ele>
        <time>2013-07-02T11:48:53Z</time>
      </trkpt>
      <trkpt lat="40.238550" lon="-4.874717">
        <ele>1663.0</ele>
        <time>2013-07-02T11:48:54Z</time>
      </trkpt>
      <trkpt lat="40.238517" lon="-4.874750">
        <ele>1663.0</ele>
        <time>2013-07-02T11:48:55Z</time>
      </trkpt>
      <trkpt lat="40.238483" lon="-4.874800">
        <ele>1663.0</ele>
        <time>2013-07-02T11:48:56Z</time>
      </trkpt>
      <trkpt lat="40.238450" lon="-4.874833">
        <ele>1664.0</ele>
        <time>2013-07-02T11:48:57Z</time>
      </trkpt>
      <trkpt lat="40.238400" lon="-4.874850">
        <ele>1664.0</ele>
        <time>2013-07-02T11:48:58Z</time>
      </trkpt>
      <trkpt lat="40.238350" lon="-4.874850">
        <ele>1664.0</ele>
        <time>2013-07-02T11:48:59Z</time>
      </trkpt>
      <trkpt lat="40.238300" lon="-4.874850">
        <ele>1664.0</ele>
        <time>2013-07-02T11:49:00Z</time>
      </trkpt>
      <trkpt lat="40.238250" lon="-4.874850">
        <ele>1664.0</ele>
        <time>2013-07-02T11:49:01Z</time>
      </trkpt>
      <trkpt lat="40.238200" lon="-4.874833">
        <ele>1664.0</ele>
        <time>2013-07-02T11:49:02Z</time>
      </trkpt>
      <trkpt lat="40.238150" lon="-4.874817">
        <ele>1663.0</ele>
        <time>2013-07-02T11:49:03Z</time>
      </trkpt>
      <trkpt lat="40.238100" lon="-4.874800">
        <ele>1661.0</ele>
        <time>2013-07-02T11:49:04Z</time>
      </trkpt>
      <trkpt lat="40.238017" lon="-4.874783">
        <ele>1660.0</ele>
        <time>2013-07-02T11:49:05Z</time>
      </trkpt>
      <trkpt lat="40.237950" lon="-4.874750">
        <ele>1660.0</ele>
        <time>2013-07-02T11:49:06Z</time>
      </trkpt>
      <trkpt lat="40.237883" lon="-4.874717">
        <ele>1660.0</ele>
        <time>2013-07-02T11:49:07Z</time>
      </trkpt>
      <trkpt lat="40.237817" lon="-4.874683">
        <ele>1660.0</ele>
        <time>2013-07-02T11:49:08Z</time>
      </trkpt>
      <trkpt lat="40.237750" lon="-4.874667">
        <ele>1659.0</ele>
        <time>2013-07-02T11:49:09Z</time>
      </trkpt>
      <trkpt lat="40.237683" lon="-4.874650">
        <ele>1658.0</ele>
        <time>2013-07-02T11:49:10Z</time>
      </trkpt>
      <trkpt lat="40.237617" lon="-4.874650">
        <ele>1657.0</ele>
        <time>2013-07-02T11:49:11Z</time>
      </trkpt>
      <trkpt lat="40.237533" lon="-4.874650">
        <ele>1657.0</ele>
        <time>2013-07-02T11:49:12Z</time>
      </trkpt>
      <trkpt lat="40.237450" lon="-4.874633">
        <ele>1657.0</ele>
        <time>2013-07-02T11:49:13Z</time>
      </trkpt>
      <trkpt lat="40.237383" lon="-4.874600">
        <ele>1658.0</ele>
        <time>2013-07-02T11:49:14Z</time>
      </trkpt>
      <trkpt lat="40.237317" lon="-4.874583">
        <ele>1658.0</ele>
        <time>2013-07-02T11:49:15Z</time>
      </trkpt>
      <trkpt lat="40.237267" lon="-4.874567">
        <ele>1659.0</ele>
        <time>2013-07-02T11:49:16Z</time>
      </trkpt>
      <trkpt lat="40.237217" lon="-4.874533">
        <ele>1659.0</ele>
        <time>2013-07-02T11:49:17Z</time>
      </trkpt>
      <trkpt lat="40.237167" lon="-4.874500">
        <ele>1658.0</ele>
        <time>2013-07-02T11:49:18Z</time>
      </trkpt>
      <trkpt lat="40.237117" lon="-4.874433">
        <ele>1657.0</ele>
        <time>2013-07-02T11:49:19Z</time>
      </trkpt>
      <trkpt lat="40.237050" lon="-4.874367">
        <ele>1655.0</ele>
        <time>2013-07-02T11:49:20Z</time>
      </trkpt>
      <trkpt lat="40.236967" lon="-4.874300">
        <ele>1653.0</ele>
        <time>2013-07-02T11:49:21Z</time>
      </trkpt>
      <trkpt lat="40.236900" lon="-4.874217">
        <ele>1651.0</ele>
        <time>2013-07-02T11:49:22Z</time>
      </trkpt>
      <trkpt lat="40.236817" lon="-4.874150">
        <ele>1650.0</ele>
        <time>2013-07-02T11:49:23Z</time>
      </trkpt>
      <trkpt lat="40.236733" lon="-4.874083">
        <ele>1649.0</ele>
        <time>2013-07-02T11:49:24Z</time>
      </trkpt>
      <trkpt lat="40.236650" lon="-4.874000">
        <ele>1648.0</ele>
        <time>2013-07-02T11:49:25Z</time>
      </trkpt>
      <trkpt lat="40.236583" lon="-4.873933">
        <ele>1647.0</ele>
        <time>2013-07-02T11:49:26Z</time>
      </trkpt>
      <trkpt lat="40.236517" lon="-4.873850">
        <ele>1644.0</ele>
        <time>2013-07-02T11:49:27Z</time>
      </trkpt>
      <trkpt lat="40.236433" lon="-4.873783">
        <ele>1642.0</ele>
        <time>2013-07-02T11:49:28Z</time>
      </trkpt>
      <trkpt lat="40.236350" lon="-4.873717">
        <ele>1639.0</ele>
        <time>2013-07-02T11:49:29Z</time>
      </trkpt>
      <trkpt lat="40.236250" lon="-4.873667">
        <ele>1638.0</ele>
        <time>2013-07-02T11:49:30Z</time>
      </trkpt>
      <trkpt lat="40.236167" lon="-4.873617">
        <ele>1637.0</ele>
        <time>2013-07-02T11:49:31Z</time>
      </trkpt>
      <trkpt lat="40.236083" lon="-4.873550">
        <ele>1636.0</ele>
        <time>2013-07-02T11:49:32Z</time>
      </trkpt>
      <trkpt lat="40.235983" lon="-4.873500">
        <ele>1636.0</ele>
        <time>2013-07-02T11:49:33Z</time>
      </trkpt>
      <trkpt lat="40.235917" lon="-4.873433">
        <ele>1636.0</ele>
        <time>2013-07-02T11:49:34Z</time>
      </trkpt>
      <trkpt lat="40.235833" lon="-4.873350">
        <ele>1636.0</ele>
        <time>2013-07-02T11:49:35Z</time>
      </trkpt>
      <trkpt lat="40.235767" lon="-4.873283">
        <ele>1636.0</ele>
        <time>2013-07-02T11:49:36Z</time>
      </trkpt>
      <trkpt lat="40.235700" lon="-4.873217">
        <ele>1636.0</ele>
        <time>2013-07-02T11:49:37Z</time>
      </trkpt>
      <trkpt lat="40.235650" lon="-4.873167">
        <ele>1636.0</ele>
        <time>2013-07-02T11:49:38Z</time>
      </trkpt>
      <trkpt lat="40.235600" lon="-4.873117">
        <ele>1636.0</ele>
        <time>2013-07-02T11:49:39Z</time>
      </trkpt>
      <trkpt lat="40.235550" lon="-4.873067">
        <ele>1635.0</ele>
        <time>2013-07-02T11:49:40Z</time>
      </trkpt>
      <trkpt lat="40.235500" lon="-4.873000">
        <ele>1633.0</ele>
        <time>2013-07-02T11:49:41Z</time>
      </trkpt>
      <trkpt lat="40.235433" lon="-4.872917">
        <ele>1631.0</ele>
        <time>2013-07-02T11:49:42Z</time>
      </trkpt>
      <trkpt lat="40.235367" lon="-4.872850">
        <ele>1628.0</ele>
        <time>2013-07-02T11:49:43Z</time>
      </trkpt>
      <trkpt lat="40.235283" lon="-4.872767">
        <ele>1626.0</ele>
        <time>2013-07-02T11:49:44Z</time>
      </trkpt>
      <trkpt lat="40.235200" lon="-4.872700">
        <ele>1624.0</ele>
        <time>2013-07-02T11:49:45Z</time>
      </trkpt>
      <trkpt lat="40.235117" lon="-4.872633">
        <ele>1622.0</ele>
        <time>2013-07-02T11:49:46Z</time>
      </trkpt>
      <trkpt lat="40.235033" lon="-4.872583">
        <ele>1621.0</ele>
        <time>2013-07-02T11:49:47Z</time>
      </trkpt>
      <trkpt lat="40.234967" lon="-4.872533">
        <ele>1619.0</ele>
        <time>2013-07-02T11:49:48Z</time>
      </trkpt>
      <trkpt lat="40.234883" lon="-4.872483">
        <ele>1617.0</ele>
        <time>2013-07-02T11:49:49Z</time>
      </trkpt>
      <trkpt lat="40.234800" lon="-4.872417">
        <ele>1615.0</ele>
        <time>2013-07-02T11:49:50Z</time>
      </trkpt>
      <trkpt lat="40.234717" lon="-4.872367">
        <ele>1614.0</ele>
        <time>2013-07-02T11:49:51Z</time>
      </trkpt>
      <trkpt lat="40.234650" lon="-4.872317">
        <ele>1613.0</ele>
        <time>2013-07-02T11:49:52Z</time>
      </trkpt>
      <trkpt lat="40.234567" lon="-4.872250">
        <ele>1611.0</ele>
        <time>2013-07-02T11:49:53Z</time>
      </trkpt>
      <trkpt lat="40.234500" lon="-4.872200">
        <ele>1610.0</ele>
        <time>2013-07-02T11:49:54Z</time>
      </trkpt>
      <trkpt lat="40.234433" lon="-4.872150">
        <ele>1608.0</ele>
        <time>2013-07-02T11:49:55Z</time>
      </trkpt>
      <trkpt lat="40.234350" lon="-4.872100">
        <ele>1605.0</ele>
        <time>2013-07-02T11:49:56Z</time>
      </trkpt>
      <trkpt lat="40.234267" lon="-4.872067">
        <ele>1603.0</ele>
        <time>2013-07-02T11:49:57Z</time>
      </trkpt>
      <trkpt lat="40.234200" lon="-4.872017">
        <ele>1601.0</ele>
        <time>2013-07-02T11:49:58Z</time>
      </trkpt>
      <trkpt lat="40.234133" lon="-4.871983">
        <ele>1599.0</ele>
        <time>2013-07-02T11:49:59Z</time>
      </trkpt>
      <trkpt lat="40.234067" lon="-4.871933">
        <ele>1597.0</ele>
        <time>2013-07-02T11:50:00Z</time>
      </trkpt>
      <trkpt lat="40.234000" lon="-4.871900">
        <ele>1595.0</ele>
        <time>2013-07-02T11:50:01Z</time>
      </trkpt>
      <trkpt lat="40.233917" lon="-4.871850">
        <ele>1591.0</ele>
        <time>2013-07-02T11:50:02Z</time>
      </trkpt>
      <trkpt lat="40.233850" lon="-4.871817">
        <ele>1587.0</ele>
        <time>2013-07-02T11:50:03Z</time>
      </trkpt>
      <trkpt lat="40.233767" lon="-4.871783">
        <ele>1584.0</ele>
        <time>2013-07-02T11:50:04Z</time>
      </trkpt>
      <trkpt lat="40.233683" lon="-4.871750">
        <ele>1582.0</ele>
        <time>2013-07-02T11:50:05Z</time>
      </trkpt>
      <trkpt lat="40.233600" lon="-4.871717">
        <ele>1580.0</ele>
        <time>2013-07-02T11:50:06Z</time>
      </trkpt>
      <trkpt lat="40.233533" lon="-4.871683">
        <ele>1578.0</ele>
        <time>2013-07-02T11:50:07Z</time>
      </trkpt>
      <trkpt lat="40.233467" lon="-4.871650">
        <ele>1575.0</ele>
        <time>2013-07-02T11:50:08Z</time>
      </trkpt>
      <trkpt lat="40.233400" lon="-4.871617">
        <ele>1573.0</ele>
        <time>2013-07-02T11:50:09Z</time>
      </trkpt>
      <trkpt lat="40.233317" lon="-4.871600">
        <ele>1570.0</ele>
        <time>2013-07-02T11:50:10Z</time>
      </trkpt>
      <trkpt lat="40.233250" lon="-4.871583">
        <ele>1567.0</ele>
        <time>2013-07-02T11:50:11Z</time>
      </trkpt>
      <trkpt lat="40.233183" lon="-4.871583">
        <ele>1564.0</ele>
        <time>2013-07-02T11:50:12Z</time>
      </trkpt>
      <trkpt lat="40.233117" lon="-4.871567">
        <ele>1562.0</ele>
        <time>2013-07-02T11:50:13Z</time>
      </trkpt>
      <trkpt lat="40.233067" lon="-4.871567">
        <ele>1559.0</ele>
        <time>2013-07-02T11:50:14Z</time>
      </trkpt>
      <trkpt lat="40.233000" lon="-4.871550">
        <ele>1557.0</ele>
        <time>2013-07-02T11:50:15Z</time>
      </trkpt>
      <trkpt lat="40.232933" lon="-4.871533">
        <ele>1555.0</ele>
        <time>2013-07-02T11:50:16Z</time>
      </trkpt>
      <trkpt lat="40.232867" lon="-4.871533">
        <ele>1552.0</ele>
        <time>2013-07-02T11:50:17Z</time>
      </trkpt>
      <trkpt lat="40.232800" lon="-4.871517">
        <ele>1549.0</ele>
        <time>2013-07-02T11:50:18Z</time>
      </trkpt>
      <trkpt lat="40.232750" lon="-4.871533">
        <ele>1546.0</ele>
        <time>2013-07-02T11:50:19Z</time>
      </trkpt>
      <trkpt lat="40.232683" lon="-4.871533">
        <ele>1544.0</ele>
        <time>2013-07-02T11:50:20Z</time>
      </trkpt>
      <trkpt lat="40.232617" lon="-4.871533">
        <ele>1541.0</ele>
        <time>2013-07-02T11:50:21Z</time>
      </trkpt>
      <trkpt lat="40.232550" lon="-4.871533">
        <ele>1538.0</ele>
        <time>2013-07-02T11:50:22Z</time>
      </trkpt>
      <trkpt lat="40.232500" lon="-4.871533">
        <ele>1535.0</ele>
        <time>2013-07-02T11:50:23Z</time>
      </trkpt>
      <trkpt lat="40.232450" lon="-4.871550">
        <ele>1531.0</ele>
        <time>2013-07-02T11:50:24Z</time>
      </trkpt>
      <trkpt lat="40.232400" lon="-4.871567">
        <ele>1528.0</ele>
        <time>2013-07-02T11:50:25Z</time>
      </trkpt>
      <trkpt lat="40.232350" lon="-4.871583">
        <ele>1524.0</ele>
        <time>2013-07-02T11:50:26Z</time>
      </trkpt>
      <trkpt lat="40.232283" lon="-4.871583">
        <ele>1520.0</ele>
        <time>2013-07-02T11:50:27Z</time>
      </trkpt>
      <trkpt lat="40.232217" lon="-4.871567">
        <ele>1516.0</ele>
        <time>2013-07-02T11:50:28Z</time>
      </trkpt>
      <trkpt lat="40.232150" lon="-4.871550">
        <ele>1513.0</ele>
        <time>2013-07-02T11:50:29Z</time>
      </trkpt>
      <trkpt lat="40.232083" lon="-4.871500">
        <ele>1509.0</ele>
        <time>2013-07-02T11:50:30Z</time>
      </trkpt>
      <trkpt lat="40.232017" lon="-4.871450">
        <ele>1505.0</ele>
        <time>2013-07-02T11:50:31Z</time>
      </trkpt>
      <trkpt lat="40.231917" lon="-4.871433">
        <ele>1501.0</ele>
        <time>2013-07-02T11:50:32Z</time>
      </trkpt>
      <trkpt lat="40.231833" lon="-4.871417">
        <ele>1497.0</ele>
        <time>2013-07-02T11:50:33Z</time>
      </trkpt>
      <trkpt lat="40.231733" lon="-4.871383">
        <ele>1495.0</ele>
        <time>2013-07-02T11:50:34Z</time>
      </trkpt>
      <trkpt lat="40.231650" lon="-4.871350">
        <ele>1493.0</ele>
        <time>2013-07-02T11:50:35Z</time>
      </trkpt>
      <trkpt lat="40.231583" lon="-4.871317">
        <ele>1492.0</ele>
        <time>2013-07-02T11:50:36Z</time>
      </trkpt>
      <trkpt lat="40.231517" lon="-4.871283">
        <ele>1489.0</ele>
        <time>2013-07-02T11:50:37Z</time>
      </trkpt>
      <trkpt lat="40.231433" lon="-4.871250">
        <ele>1487.0</ele>
        <time>2013-07-02T11:50:38Z</time>
      </trkpt>
      <trkpt lat="40.231350" lon="-4.871233">
        <ele>1484.0</ele>
        <time>2013-07-02T11:50:39Z</time>
      </trkpt>
      <trkpt lat="40.231267" lon="-4.871200">
        <ele>1482.0</ele>
        <time>2013-07-02T11:50:40Z</time>
      </trkpt>
      <trkpt lat="40.231183" lon="-4.871150">
        <ele>1480.0</ele>
        <time>2013-07-02T11:50:41Z</time>
      </trkpt>
      <trkpt lat="40.231100" lon="-4.871100">
        <ele>1477.0</ele>
        <time>2013-07-02T11:50:42Z</time>
      </trkpt>
      <trkpt lat="40.231017" lon="-4.871067">
        <ele>1475.0</ele>
        <time>2013-07-02T11:50:43Z</time>
      </trkpt>
      <trkpt lat="40.230933" lon="-4.871033">
        <ele>1474.0</ele>
        <time>2013-07-02T11:50:44Z</time>
      </trkpt>
      <trkpt lat="40.230867" lon="-4.871000">
        <ele>1471.0</ele>
        <time>2013-07-02T11:50:45Z</time>
      </trkpt>
      <trkpt lat="40.230800" lon="-4.870983">
        <ele>1469.0</ele>
        <time>2013-07-02T11:50:46Z</time>
      </trkpt>
      <trkpt lat="40.230733" lon="-4.870950">
        <ele>1465.0</ele>
        <time>2013-07-02T11:50:47Z</time>
      </trkpt>
      <trkpt lat="40.230650" lon="-4.870933">
        <ele>1461.0</ele>
        <time>2013-07-02T11:50:48Z</time>
      </trkpt>
      <trkpt lat="40.230567" lon="-4.870917">
        <ele>1458.0</ele>
        <time>2013-07-02T11:50:49Z</time>
      </trkpt>
      <trkpt lat="40.230483" lon="-4.870883">
        <ele>1456.0</ele>
        <time>2013-07-02T11:50:50Z</time>
      </trkpt>
      <trkpt lat="40.230400" lon="-4.870867">
        <ele>1454.0</ele>
        <time>2013-07-02T11:50:51Z</time>
      </trkpt>
      <trkpt lat="40.230317" lon="-4.870833">
        <ele>1452.0</ele>
        <time>2013-07-02T11:50:52Z</time>
      </trkpt>
      <trkpt lat="40.230250" lon="-4.870800">
        <ele>1450.0</ele>
        <time>2013-07-02T11:50:53Z</time>
      </trkpt>
      <trkpt lat="40.230200" lon="-4.870767">
        <ele>1446.0</ele>
        <time>2013-07-02T11:50:54Z</time>
      </trkpt>
      <trkpt lat="40.230117" lon="-4.870717">
        <ele>1442.0</ele>
        <time>2013-07-02T11:50:55Z</time>
      </trkpt>
      <trkpt lat="40.230050" lon="-4.870700">
        <ele>1437.0</ele>
        <time>2013-07-02T11:50:56Z</time>
      </trkpt>
      <trkpt lat="40.229967" lon="-4.870683">
        <ele>1432.0</ele>
        <time>2013-07-02T11:50:57Z</time>
      </trkpt>
      <trkpt lat="40.229883" lon="-4.870667">
        <ele>1429.0</ele>
        <time>2013-07-02T11:50:58Z</time>
      </trkpt>
      <trkpt lat="40.229800" lon="-4.870650">
        <ele>1426.0</ele>
        <time>2013-07-02T11:50:59Z</time>
      </trkpt>
      <trkpt lat="40.229717" lon="-4.870633">
        <ele>1423.0</ele>
        <time>2013-07-02T11:51:00Z</time>
      </trkpt>
      <trkpt lat="40.229650" lon="-4.870617">
        <ele>1419.0</ele>
        <time>2013-07-02T11:51:01Z</time>
      </trkpt>
      <trkpt lat="40.229567" lon="-4.870617">
        <ele>1415.0</ele>
        <time>2013-07-02T11:51:02Z</time>
      </trkpt>
      <trkpt lat="40.229483" lon="-4.870600">
        <ele>1411.0</ele>
        <time>2013-07-02T11:51:03Z</time>
      </trkpt>
      <trkpt lat="40.229400" lon="-4.870600">
        <ele>1408.0</ele>
        <time>2013-07-02T11:51:04Z</time>
      </trkpt>
      <trkpt lat="40.229317" lon="-4.870583">
        <ele>1406.0</ele>
        <time>2013-07-02T11:51:05Z</time>
      </trkpt>
      <trkpt lat="40.229233" lon="-4.870567">
        <ele>1406.0</ele>
        <time>2013-07-02T11:51:06Z</time>
      </trkpt>
      <trkpt lat="40.229167" lon="-4.870567">
        <ele>1406.0</ele>
        <time>2013-07-02T11:51:07Z</time>
      </trkpt>
      <trkpt lat="40.229117" lon="-4.870550">
        <ele>1407.0</ele>
        <time>2013-07-02T11:51:08Z</time>
      </trkpt>
      <trkpt lat="40.229083" lon="-4.870550">
        <ele>1406.0</ele>
        <time>2013-07-02T11:51:09Z</time>
      </trkpt>
      <trkpt lat="40.229050" lon="-4.870550">
        <ele>1404.0</ele>
        <time>2013-07-02T11:51:10Z</time>
      </trkpt>
      <trkpt lat="40.229000" lon="-4.870550">
        <ele>1401.0</ele>
        <time>2013-07-02T11:51:11Z</time>
      </trkpt>
      <trkpt lat="40.228933" lon="-4.870550">
        <ele>1397.0</ele>
        <time>2013-07-02T11:51:12Z</time>
      </trkpt>
      <trkpt lat="40.228867" lon="-4.870550">
        <ele>1394.0</ele>
        <time>2013-07-02T11:51:13Z</time>
      </trkpt>
      <trkpt lat="40.228800" lon="-4.870550">
        <ele>1393.0</ele>
        <time>2013-07-02T11:51:14Z</time>
      </trkpt>
      <trkpt lat="40.228750" lon="-4.870550">
        <ele>1392.0</ele>
        <time>2013-07-02T11:51:15Z</time>
      </trkpt>
      <trkpt lat="40.228717" lon="-4.870550">
        <ele>1391.0</ele>
        <time>2013-07-02T11:51:16Z</time>
      </trkpt>
      <trkpt lat="40.228667" lon="-4.870533">
        <ele>1390.0</ele>
        <time>2013-07-02T11:51:17Z</time>
      </trkpt>
      <trkpt lat="40.228633" lon="-4.870517">
        <ele>1387.0</ele>
        <time>2013-07-02T11:51:18Z</time>
      </trkpt>
      <trkpt lat="40.228583" lon="-4.870517">
        <ele>1386.0</ele>
        <time>2013-07-02T11:51:19Z</time>
      </trkpt>
      <trkpt lat="40.228533" lon="-4.870533">
        <ele>1383.0</ele>
        <time>2013-07-02T11:51:20Z</time>
      </trkpt>
      <trkpt lat="40.228500" lon="-4.870550">
        <ele>1380.0</ele>
        <time>2013-07-02T11:51:21Z</time>
      </trkpt>
      <trkpt lat="40.228467" lon="-4.870567">
        <ele>1378.0</ele>
        <time>2013-07-02T11:51:22Z</time>
      </trkpt>
      <trkpt lat="40.228433" lon="-4.870550">
        <ele>1376.0</ele>
        <time>2013-07-02T11:51:23Z</time>
      </trkpt>
      <trkpt lat="40.228417" lon="-4.870533">
        <ele>1371.0</ele>
        <time>2013-07-02T11:51:24Z</time>
      </trkpt>
      <trkpt lat="40.228383" lon="-4.870517">
        <ele>1366.0</ele>
        <time>2013-07-02T11:51:25Z</time>
      </trkpt>
      <trkpt lat="40.228350" lon="-4.870517">
        <ele>1360.0</ele>
        <time>2013-07-02T11:51:26Z</time>
      </trkpt>
      <trkpt lat="40.228300" lon="-4.870533">
        <ele>1353.0</ele>
        <time>2013-07-02T11:51:27Z</time>
      </trkpt>
      <trkpt lat="40.228233" lon="-4.870533">
        <ele>1347.0</ele>
        <time>2013-07-02T11:51:28Z</time>
      </trkpt>
      <trkpt lat="40.228167" lon="-4.870533">
        <ele>1343.0</ele>
        <time>2013-07-02T11:51:29Z</time>
      </trkpt>
      <trkpt lat="40.228117" lon="-4.870567">
        <ele>1340.0</ele>
        <time>2013-07-02T11:51:30Z</time>
      </trkpt>
      <trkpt lat="40.228067" lon="-4.870583">
        <ele>1339.0</ele>
        <time>2013-07-02T11:51:31Z</time>
      </trkpt>
      <trkpt lat="40.228033" lon="-4.870600">
        <ele>1337.0</ele>
        <time>2013-07-02T11:51:32Z</time>
      </trkpt>
      <trkpt lat="40.228017" lon="-4.870617">
        <ele>1336.0</ele>
        <time>2013-07-02T11:51:33Z</time>
      </trkpt>
      <trkpt lat="40.228000" lon="-4.870617">
        <ele>1332.0</ele>
        <time>2013-07-02T11:51:34Z</time>
      </trkpt>
      <trkpt lat="40.227950" lon="-4.870633">
        <ele>1327.0</ele>
        <time>2013-07-02T11:51:35Z</time>
      </trkpt>
      <trkpt lat="40.227900" lon="-4.870650">
        <ele>1323.0</ele>
        <time>2013-07-02T11:51:36Z</time>
      </trkpt>
      <trkpt lat="40.227850" lon="-4.870667">
        <ele>1320.0</ele>
        <time>2013-07-02T11:51:37Z</time>
      </trkpt>
      <trkpt lat="40.227783" lon="-4.870683">
        <ele>1318.0</ele>
        <time>2013-07-02T11:51:38Z</time>
      </trkpt>
      <trkpt lat="40.227733" lon="-4.870683">
        <ele>1317.0</ele>
        <time>2013-07-02T11:51:39Z</time>
      </trkpt>
      <trkpt lat="40.227700" lon="-4.870683">
        <ele>1316.0</ele>
        <time>2013-07-02T11:51:40Z</time>
      </trkpt>
      <trkpt lat="40.227650" lon="-4.870667">
        <ele>1314.0</ele>
        <time>2013-07-02T11:51:41Z</time>
      </trkpt>
      <trkpt lat="40.227600" lon="-4.870667">
        <ele>1312.0</ele>
        <time>2013-07-02T11:51:42Z</time>
      </trkpt>
      <trkpt lat="40.227533" lon="-4.870667">
        <ele>1309.0</ele>
        <time>2013-07-02T11:51:43Z</time>
      </trkpt>
      <trkpt lat="40.227467" lon="-4.870667">
        <ele>1306.0</ele>
        <time>2013-07-02T11:51:44Z</time>
      </trkpt>
      <trkpt lat="40.227383" lon="-4.870667">
        <ele>1305.0</ele>
        <time>2013-07-02T11:51:45Z</time>
      </trkpt>
      <trkpt lat="40.227317" lon="-4.870667">
        <ele>1306.0</ele>
        <time>2013-07-02T11:51:46Z</time>
      </trkpt>
      <trkpt lat="40.227267" lon="-4.870667">
        <ele>1306.0</ele>
        <time>2013-07-02T11:51:47Z</time>
      </trkpt>
      <trkpt lat="40.227217" lon="-4.870667">
        <ele>1306.0</ele>
        <time>2013-07-02T11:51:48Z</time>
      </trkpt>
      <trkpt lat="40.227167" lon="-4.870667">
        <ele>1304.0</ele>
        <time>2013-07-02T11:51:49Z</time>
      </trkpt>
      <trkpt lat="40.227100" lon="-4.870667">
        <ele>1302.0</ele>
        <time>2013-07-02T11:51:50Z</time>
      </trkpt>
      <trkpt lat="40.227033" lon="-4.870667">
        <ele>1300.0</ele>
        <time>2013-07-02T11:51:51Z</time>
      </trkpt>
      <trkpt lat="40.226967" lon="-4.870667">
        <ele>1298.0</ele>
        <time>2013-07-02T11:51:52Z</time>
      </trkpt>
      <trkpt lat="40.226917" lon="-4.870667">
        <ele>1297.0</ele>
        <time>2013-07-02T11:51:53Z</time>
      </trkpt>
      <trkpt lat="40.226867" lon="-4.870650">
        <ele>1296.0</ele>
        <time>2013-07-02T11:51:54Z</time>
      </trkpt>
      <trkpt lat="40.226817" lon="-4.870667">
        <ele>1295.0</ele>
        <time>2013-07-02T11:51:55Z</time>
      </trkpt>
      <trkpt lat="40.226750" lon="-4.870667">
        <ele>1292.0</ele>
        <time>2013-07-02T11:51:56Z</time>
      </trkpt>
      <trkpt lat="40.226700" lon="-4.870683">
        <ele>1290.0</ele>
        <time>2013-07-02T11:51:57Z</time>
      </trkpt>
      <trkpt lat="40.226633" lon="-4.870683">
        <ele>1287.0</ele>
        <time>2013-07-02T11:51:58Z</time>
      </trkpt>
      <trkpt lat="40.226567" lon="-4.870667">
        <ele>1285.0</ele>
        <time>2013-07-02T11:51:59Z</time>
      </trkpt>
      <trkpt lat="40.226500" lon="-4.870650">
        <ele>1283.0</ele>
        <time>2013-07-02T11:52:00Z</time>
      </trkpt>
      <trkpt lat="40.226433" lon="-4.870633">
        <ele>1281.0</ele>
        <time>2013-07-02T11:52:01Z</time>
      </trkpt>
      <trkpt lat="40.226383" lon="-4.870617">
        <ele>1278.0</ele>
        <time>2013-07-02T11:52:02Z</time>
      </trkpt>
      <trkpt lat="40.226317" lon="-4.870617">
        <ele>1275.0</ele>
        <time>2013-07-02T11:52:03Z</time>
      </trkpt>
      <trkpt lat="40.226233" lon="-4.870600">
        <ele>1271.0</ele>
        <time>2013-07-02T11:52:04Z</time>
      </trkpt>
      <trkpt lat="40.226150" lon="-4.870600">
        <ele>1267.0</ele>
        <time>2013-07-02T11:52:05Z</time>
      </trkpt>
      <trkpt lat="40.226083" lon="-4.870583">
        <ele>1264.0</ele>
        <time>2013-07-02T11:52:06Z</time>
      </trkpt>
      <trkpt lat="40.226000" lon="-4.870583">
        <ele>1261.0</ele>
        <time>2013-07-02T11:52:07Z</time>
      </trkpt>
      <trkpt lat="40.225933" lon="-4.870567">
        <ele>1258.0</ele>
        <time>2013-07-02T11:52:08Z</time>
      </trkpt>
      <trkpt lat="40.225883" lon="-4.870550">
        <ele>1255.0</ele>
        <time>2013-07-02T11:52:09Z</time>
      </trkpt>
      <trkpt lat="40.225817" lon="-4.870533">
        <ele>1252.0</ele>
        <time>2013-07-02T11:52:10Z</time>
      </trkpt>
      <trkpt lat="40.225750" lon="-4.870517">
        <ele>1248.0</ele>
        <time>2013-07-02T11:52:11Z</time>
      </trkpt>
      <trkpt lat="40.225683" lon="-4.870517">
        <ele>1244.0</ele>
        <time>2013-07-02T11:52:12Z</time>
      </trkpt>
      <trkpt lat="40.225617" lon="-4.870517">
        <ele>1241.0</ele>
        <time>2013-07-02T11:52:13Z</time>
      </trkpt>
      <trkpt lat="40.225550" lon="-4.870517">
        <ele>1240.0</ele>
        <time>2013-07-02T11:52:14Z</time>
      </trkpt>
      <trkpt lat="40.225500" lon="-4.870517">
        <ele>1238.0</ele>
        <time>2013-07-02T11:52:15Z</time>
      </trkpt>
      <trkpt lat="40.225433" lon="-4.870517">
        <ele>1236.0</ele>
        <time>2013-07-02T11:52:16Z</time>
      </trkpt>
      <trkpt lat="40.225367" lon="-4.870517">
        <ele>1234.0</ele>
        <time>2013-07-02T11:52:17Z</time>
      </trkpt>
      <trkpt lat="40.225317" lon="-4.870533">
        <ele>1231.0</ele>
        <time>2013-07-02T11:52:18Z</time>
      </trkpt>
      <trkpt lat="40.225267" lon="-4.870533">
        <ele>1229.0</ele>
        <time>2013-07-02T11:52:19Z</time>
      </trkpt>
      <trkpt lat="40.225200" lon="-4.870533">
        <ele>1226.0</ele>
        <time>2013-07-02T11:52:20Z</time>
      </trkpt>
      <trkpt lat="40.225133" lon="-4.870533">
        <ele>1223.0</ele>
        <time>2013-07-02T11:52:21Z</time>
      </trkpt>
      <trkpt lat="40.225067" lon="-4.870533">
        <ele>1221.0</ele>
        <time>2013-07-02T11:52:22Z</time>
      </trkpt>
      <trkpt lat="40.225000" lon="-4.870550">
        <ele>1219.0</ele>
        <time>2013-07-02T11:52:23Z</time>
      </trkpt>
      <trkpt lat="40.224933" lon="-4.870550">
        <ele>1218.0</ele>
        <time>2013-07-02T11:52:24Z</time>
      </trkpt>
      <trkpt lat="40.224867" lon="-4.870567">
        <ele>1217.0</ele>
        <time>2013-07-02T11:52:25Z</time>
      </trkpt>
      <trkpt lat="40.224817" lon="-4.870567">
        <ele>1216.0</ele>
        <time>2013-07-02T11:52:26Z</time>
      </trkpt>
      <trkpt lat="40.224767" lon="-4.870583">
        <ele>1215.0</ele>
        <time>2013-07-02T11:52:27Z</time>
      </trkpt>
      <trkpt lat="40.224700" lon="-4.870583">
        <ele>1213.0</ele>
        <time>2013-07-02T11:52:28Z</time>
      </trkpt>
      <trkpt lat="40.224633" lon="-4.870600">
        <ele>1210.0</ele>
        <time>2013-07-02T11:52:29Z</time>
      </trkpt>
      <trkpt lat="40.224567" lon="-4.870617">
        <ele>1208.0</ele>
        <time>2013-07-02T11:52:30Z</time>
      </trkpt>
      <trkpt lat="40.224500" lon="-4.870617">
        <ele>1207.0</ele>
        <time>2013-07-02T11:52:31Z</time>
      </trkpt>
      <trkpt lat="40.224417" lon="-4.870617">
        <ele>1206.0</ele>
        <time>2013-07-02T11:52:32Z</time>
      </trkpt>
      <trkpt lat="40.224367" lon="-4.870617">
        <ele>1206.0</ele>
        <time>2013-07-02T11:52:33Z</time>
      </trkpt>
      <trkpt lat="40.224300" lon="-4.870600">
        <ele>1206.0</ele>
        <time>2013-07-02T11:52:34Z</time>
      </trkpt>
      <trkpt lat="40.224250" lon="-4.870600">
        <ele>1205.0</ele>
        <time>2013-07-02T11:52:35Z</time>
      </trkpt>
      <trkpt lat="40.224183" lon="-4.870600">
        <ele>1205.0</ele>
        <time>2013-07-02T11:52:36Z</time>
      </trkpt>
      <trkpt lat="40.224133" lon="-4.870583">
        <ele>1203.0</ele>
        <time>2013-07-02T11:52:37Z</time>
      </trkpt>
      <trkpt lat="40.224067" lon="-4.870583">
        <ele>1202.0</ele>
        <time>2013-07-02T11:52:38Z</time>
      </trkpt>
      <trkpt lat="40.224000" lon="-4.870583">
        <ele>1199.0</ele>
        <time>2013-07-02T11:52:39Z</time>
      </trkpt>
      <trkpt lat="40.223933" lon="-4.870583">
        <ele>1197.0</ele>
        <time>2013-07-02T11:52:40Z</time>
      </trkpt>
      <trkpt lat="40.223867" lon="-4.870567">
        <ele>1195.0</ele>
        <time>2013-07-02T11:52:41Z</time>
      </trkpt>
      <trkpt lat="40.223783" lon="-4.870567">
        <ele>1193.0</ele>
        <time>2013-07-02T11:52:42Z</time>
      </trkpt>
      <trkpt lat="40.223717" lon="-4.870550">
        <ele>1192.0</ele>
        <time>2013-07-02T11:52:43Z</time>
      </trkpt>
      <trkpt lat="40.223650" lon="-4.870533">
        <ele>1192.0</ele>
        <time>2013-07-02T11:52:44Z</time>
      </trkpt>
      <trkpt lat="40.223583" lon="-4.870517">
        <ele>1191.0</ele>
        <time>2013-07-02T11:52:45Z</time>
      </trkpt>
      <trkpt lat="40.223500" lon="-4.870500">
        <ele>1190.0</ele>
        <time>2013-07-02T11:52:46Z</time>
      </trkpt>
      <trkpt lat="40.223417" lon="-4.870483">
        <ele>1189.0</ele>
        <time>2013-07-02T11:52:47Z</time>
      </trkpt>
      <trkpt lat="40.223333" lon="-4.870467">
        <ele>1189.0</ele>
        <time>2013-07-02T11:52:48Z</time>
      </trkpt>
      <trkpt lat="40.223267" lon="-4.870450">
        <ele>1190.0</ele>
        <time>2013-07-02T11:52:49Z</time>
      </trkpt>
      <trkpt lat="40.223200" lon="-4.870400">
        <ele>1191.0</ele>
        <time>2013-07-02T11:52:50Z</time>
      </trkpt>
      <trkpt lat="40.223150" lon="-4.870350">
        <ele>1192.0</ele>
        <time>2013-07-02T11:52:51Z</time>
      </trkpt>
      <trkpt lat="40.223117" lon="-4.870333">
        <ele>1192.0</ele>
        <time>2013-07-02T11:52:52Z</time>
      </trkpt>
      <trkpt lat="40.223067" lon="-4.870317">
        <ele>1190.0</ele>
        <time>2013-07-02T11:52:53Z</time>
      </trkpt>
      <trkpt lat="40.223000" lon="-4.870300">
        <ele>1189.0</ele>
        <time>2013-07-02T11:52:54Z</time>
      </trkpt>
      <trkpt lat="40.222933" lon="-4.870283">
        <ele>1189.0</ele>
        <time>2013-07-02T11:52:55Z</time>
      </trkpt>
      <trkpt lat="40.222883" lon="-4.870283">
        <ele>1190.0</ele>
        <time>2013-07-02T11:52:56Z</time>
      </trkpt>
      <trkpt lat="40.222817" lon="-4.870267">
        <ele>1191.0</ele>
        <time>2013-07-02T11:52:57Z</time>
      </trkpt>
      <trkpt lat="40.222767" lon="-4.870250">
        <ele>1192.0</ele>
        <time>2013-07-02T11:52:58Z</time>
      </trkpt>
      <trkpt lat="40.222717" lon="-4.870250">
        <ele>1194.0</ele>
        <time>2013-07-02T11:52:59Z</time>
      </trkpt>
      <trkpt lat="40.222667" lon="-4.870233">
        <ele>1195.0</ele>
        <time>2013-07-02T11:53:00Z</time>
      </trkpt>
      <trkpt lat="40.222633" lon="-4.870217">
        <ele>1197.0</ele>
        <time>2013-07-02T11:53:01Z</time>
      </trkpt>
      <trkpt lat="40.222600" lon="-4.870200">
        <ele>1200.0</ele>
        <time>2013-07-02T11:53:02Z</time>
      </trkpt>
      <trkpt lat="40.222567" lon="-4.870183">
        <ele>1202.0</ele>
        <time>2013-07-02T11:53:03Z</time>
      </trkpt>
      <trkpt lat="40.222550" lon="-4.870167">
        <ele>1204.0</ele>
        <time>2013-07-02T11:53:04Z</time>
      </trkpt>
      <trkpt lat="40.222533" lon="-4.870133">
        <ele>1204.0</ele>
        <time>2013-07-02T11:53:05Z</time>
      </trkpt>
      <trkpt lat="40.222500" lon="-4.870117">
        <ele>1204.0</ele>
        <time>2013-07-02T11:53:06Z</time>
      </trkpt>
      <trkpt lat="40.222467" lon="-4.870083">
        <ele>1203.0</ele>
        <time>2013-07-02T11:53:07Z</time>
      </trkpt>
      <trkpt lat="40.222433" lon="-4.870083">
        <ele>1202.0</ele>
        <time>2013-07-02T11:53:08Z</time>
      </trkpt>
      <trkpt lat="40.222417" lon="-4.870117">
        <ele>1202.0</ele>
        <time>2013-07-02T11:53:09Z</time>
      </trkpt>
      <trkpt lat="40.222417" lon="-4.870167">
        <ele>1201.0</ele>
        <time>2013-07-02T11:53:10Z</time>
      </trkpt>
      <trkpt lat="40.222450" lon="-4.870217">
        <ele>1202.0</ele>
        <time>2013-07-02T11:53:11Z</time>
      </trkpt>
      <trkpt lat="40.222517" lon="-4.870267">
        <ele>1202.0</ele>
        <time>2013-07-02T11:53:12Z</time>
      </trkpt>
      <trkpt lat="40.222600" lon="-4.870283">
        <ele>1201.0</ele>
        <time>2013-07-02T11:53:13Z</time>
      </trkpt>
      <trkpt lat="40.222700" lon="-4.870283">
        <ele>1201.0</ele>
        <time>2013-07-02T11:53:14Z</time>
      </trkpt>
      <trkpt lat="40.222783" lon="-4.870267">
        <ele>1200.0</ele>
        <time>2013-07-02T11:53:15Z</time>
      </trkpt>
      <trkpt lat="40.222867" lon="-4.870250">
        <ele>1200.0</ele>
        <time>2013-07-02T11:53:16Z</time>
      </trkpt>
      <trkpt lat="40.222950" lon="-4.870233">
        <ele>1199.0</ele>
        <time>2013-07-02T11:53:17Z</time>
      </trkpt>
      <trkpt lat="40.223050" lon="-4.870183">
        <ele>1197.0</ele>
        <time>2013-07-02T11:53:18Z</time>
      </trkpt>
      <trkpt lat="40.223150" lon="-4.870133">
        <ele>1196.0</ele>
        <time>2013-07-02T11:53:19Z</time>
      </trkpt>
      <trkpt lat="40.223250" lon="-4.870050">
        <ele>1194.0</ele>
        <time>2013-07-02T11:53:20Z</time>
      </trkpt>
      <trkpt lat="40.223333" lon="-4.869933">
        <ele>1194.0</ele>
        <time>2013-07-02T11:53:21Z</time>
      </trkpt>
      <trkpt lat="40.223400" lon="-4.869800">
        <ele>1194.0</ele>
        <time>2013-07-02T11:53:22Z</time>
      </trkpt>
      <trkpt lat="40.223433" lon="-4.869650">
        <ele>1194.0</ele>
        <time>2013-07-02T11:53:23Z</time>
      </trkpt>
      <trkpt lat="40.223400" lon="-4.869533">
        <ele>1193.0</ele>
        <time>2013-07-02T11:53:24Z</time>
      </trkpt>
      <trkpt lat="40.223350" lon="-4.869417">
        <ele>1192.0</ele>
        <time>2013-07-02T11:53:25Z</time>
      </trkpt>
      <trkpt lat="40.223283" lon="-4.869333">
        <ele>1193.0</ele>
        <time>2013-07-02T11:53:26Z</time>
      </trkpt>
      <trkpt lat="40.223233" lon="-4.869267">
        <ele>1196.0</ele>
        <time>2013-07-02T11:53:27Z</time>
      </trkpt>
      <trkpt lat="40.223200" lon="-4.869183">
        <ele>1198.0</ele>
        <time>2013-07-02T11:53:28Z</time>
      </trkpt>
      <trkpt lat="40.223150" lon="-4.869133">
        <ele>1199.0</ele>
        <time>2013-07-02T11:53:29Z</time>
      </trkpt>
      <trkpt lat="40.223100" lon="-4.869067">
        <ele>1199.0</ele>
        <time>2013-07-02T11:53:30Z</time>
      </trkpt>
      <trkpt lat="40.223050" lon="-4.869017">
        <ele>1199.0</ele>
        <time>2013-07-02T11:53:31Z</time>
      </trkpt>
      <trkpt lat="40.222983" lon="-4.868983">
        <ele>1199.0</ele>
        <time>2013-07-02T11:53:32Z</time>
      </trkpt>
      <trkpt lat="40.222917" lon="-4.868933">
        <ele>1200.0</ele>
        <time>2013-07-02T11:53:33Z</time>
      </trkpt>
      <trkpt lat="40.222850" lon="-4.868900">
        <ele>1201.0</ele>
        <time>2013-07-02T11:53:34Z</time>
      </trkpt>
      <trkpt lat="40.222800" lon="-4.868883">
        <ele>1201.0</ele>
        <time>2013-07-02T11:53:35Z</time>
      </trkpt>
      <trkpt lat="40.222750" lon="-4.868867">
        <ele>1201.0</ele>
        <time>2013-07-02T11:53:36Z</time>
      </trkpt>
      <trkpt lat="40.222700" lon="-4.868833">
        <ele>1201.0</ele>
        <time>2013-07-02T11:53:37Z</time>
      </trkpt>
      <trkpt lat="40.222633" lon="-4.868800">
        <ele>1200.0</ele>
        <time>2013-07-02T11:53:38Z</time>
      </trkpt>
      <trkpt lat="40.222550" lon="-4.868783">
        <ele>1199.0</ele>
        <time>2013-07-02T11:53:39Z</time>
      </trkpt>
      <trkpt lat="40.222467" lon="-4.868767">
        <ele>1200.0</ele>
        <time>2013-07-02T11:53:40Z</time>
      </trkpt>
      <trkpt lat="40.222400" lon="-4.868767">
        <ele>1202.0</ele>
        <time>2013-07-02T11:53:41Z</time>
      </trkpt>
      <trkpt lat="40.222333" lon="-4.868750">
        <ele>1204.0</ele>
        <time>2013-07-02T11:53:42Z</time>
      </trkpt>
      <trkpt lat="40.222283" lon="-4.868733">
        <ele>1204.0</ele>
        <time>2013-07-02T11:53:43Z</time>
      </trkpt>
      <trkpt lat="40.222233" lon="-4.868733">
        <ele>1204.0</ele>
        <time>2013-07-02T11:53:44Z</time>
      </trkpt>
      <trkpt lat="40.222167" lon="-4.868733">
        <ele>1202.0</ele>
        <time>2013-07-02T11:53:45Z</time>
      </trkpt>
      <trkpt lat="40.222083" lon="-4.868750">
        <ele>1202.0</ele>
        <time>2013-07-02T11:53:46Z</time>
      </trkpt>
      <trkpt lat="40.222017" lon="-4.868767">
        <ele>1203.0</ele>
        <time>2013-07-02T11:53:47Z</time>
      </trkpt>
      <trkpt lat="40.221967" lon="-4.868767">
        <ele>1205.0</ele>
        <time>2013-07-02T11:53:48Z</time>
      </trkpt>
      <trkpt lat="40.221917" lon="-4.868767">
        <ele>1207.0</ele>
        <time>2013-07-02T11:53:49Z</time>
      </trkpt>
      <trkpt lat="40.221867" lon="-4.868783">
        <ele>1206.0</ele>
        <time>2013-07-02T11:53:50Z</time>
      </trkpt>
      <trkpt lat="40.221800" lon="-4.868800">
        <ele>1206.0</ele>
        <time>2013-07-02T11:53:51Z</time>
      </trkpt>
      <trkpt lat="40.221733" lon="-4.868833">
        <ele>1206.0</ele>
        <time>2013-07-02T11:53:52Z</time>
      </trkpt>
      <trkpt lat="40.221650" lon="-4.868833">
        <ele>1207.0</ele>
        <time>2013-07-02T11:53:53Z</time>
      </trkpt>
      <trkpt lat="40.221567" lon="-4.868850">
        <ele>1209.0</ele>
        <time>2013-07-02T11:53:54Z</time>
      </trkpt>
      <trkpt lat="40.221483" lon="-4.868850">
        <ele>1212.0</ele>
        <time>2013-07-02T11:53:55Z</time>
      </trkpt>
      <trkpt lat="40.221417" lon="-4.868833">
        <ele>1214.0</ele>
        <time>2013-07-02T11:53:56Z</time>
      </trkpt>
      <trkpt lat="40.221350" lon="-4.868833">
        <ele>1213.0</ele>
        <time>2013-07-02T11:53:57Z</time>
      </trkpt>
      <trkpt lat="40.221250" lon="-4.868833">
        <ele>1210.0</ele>
        <time>2013-07-02T11:53:58Z</time>
      </trkpt>
      <trkpt lat="40.221167" lon="-4.868800">
        <ele>1208.0</ele>
        <time>2013-07-02T11:53:59Z</time>
      </trkpt>
      <trkpt lat="40.221067" lon="-4.868783">
        <ele>1206.0</ele>
        <time>2013-07-02T11:54:00Z</time>
      </trkpt>
      <trkpt lat="40.220967" lon="-4.868750">
        <ele>1205.0</ele>
        <time>2013-07-02T11:54:01Z</time>
      </trkpt>
      <trkpt lat="40.220900" lon="-4.868733">
        <ele>1204.0</ele>
        <time>2013-07-02T11:54:02Z</time>
      </trkpt>
      <trkpt lat="40.220800" lon="-4.868717">
        <ele>1202.0</ele>
        <time>2013-07-02T11:54:03Z</time>
      </trkpt>
      <trkpt lat="40.220717" lon="-4.868700">
        <ele>1199.0</ele>
        <time>2013-07-02T11:54:04Z</time>
      </trkpt>
      <trkpt lat="40.220617" lon="-4.868700">
        <ele>1197.0</ele>
        <time>2013-07-02T11:54:05Z</time>
      </trkpt>
      <trkpt lat="40.220517" lon="-4.868700">
        <ele>1197.0</ele>
        <time>2013-07-02T11:54:06Z</time>
      </trkpt>
      <trkpt lat="40.220433" lon="-4.868700">
        <ele>1197.0</ele>
        <time>2013-07-02T11:54:07Z</time>
      </trkpt>
      <trkpt lat="40.220350" lon="-4.868683">
        <ele>1198.0</ele>
        <time>2013-07-02T11:54:08Z</time>
      </trkpt>
      <trkpt lat="40.220267" lon="-4.868683">
        <ele>1197.0</ele>
        <time>2013-07-02T11:54:09Z</time>
      </trkpt>
      <trkpt lat="40.220183" lon="-4.868700">
        <ele>1195.0</ele>
        <time>2013-07-02T11:54:10Z</time>
      </trkpt>
      <trkpt lat="40.220100" lon="-4.868700">
        <ele>1192.0</ele>
        <time>2013-07-02T11:54:11Z</time>
      </trkpt>
      <trkpt lat="40.220000" lon="-4.868717">
        <ele>1189.0</ele>
        <time>2013-07-02T11:54:12Z</time>
      </trkpt>
      <trkpt lat="40.219917" lon="-4.868700">
        <ele>1187.0</ele>
        <time>2013-07-02T11:54:13Z</time>
      </trkpt>
      <trkpt lat="40.219833" lon="-4.868667">
        <ele>1184.0</ele>
        <time>2013-07-02T11:54:14Z</time>
      </trkpt>
      <trkpt lat="40.219733" lon="-4.868650">
        <ele>1182.0</ele>
        <time>2013-07-02T11:54:15Z</time>
      </trkpt>
      <trkpt lat="40.219650" lon="-4.868650">
        <ele>1179.0</ele>
        <time>2013-07-02T11:54:16Z</time>
      </trkpt>
      <trkpt lat="40.219567" lon="-4.868667">
        <ele>1176.0</ele>
        <time>2013-07-02T11:54:17Z</time>
      </trkpt>
      <trkpt lat="40.219467" lon="-4.868700">
        <ele>1173.0</ele>
        <time>2013-07-02T11:54:18Z</time>
      </trkpt>
      <trkpt lat="40.219383" lon="-4.868700">
        <ele>1171.0</ele>
        <time>2013-07-02T11:54:19Z</time>
      </trkpt>
      <trkpt lat="40.219300" lon="-4.868717">
        <ele>1169.0</ele>
        <time>2013-07-02T11:54:20Z</time>
      </trkpt>
      <trkpt lat="40.219217" lon="-4.868750">
        <ele>1167.0</ele>
        <time>2013-07-02T11:54:21Z</time>
      </trkpt>
      <trkpt lat="40.219150" lon="-4.868767">
        <ele>1165.0</ele>
        <time>2013-07-02T11:54:22Z</time>
      </trkpt>
      <trkpt lat="40.219067" lon="-4.868783">
        <ele>1164.0</ele>
        <time>2013-07-02T11:54:23Z</time>
      </trkpt>
      <trkpt lat="40.219000" lon="-4.868783">
        <ele>1163.0</ele>
        <time>2013-07-02T11:54:24Z</time>
      </trkpt>
      <trkpt lat="40.218933" lon="-4.868783">
        <ele>1161.0</ele>
        <time>2013-07-02T11:54:25Z</time>
      </trkpt>
      <trkpt lat="40.218883" lon="-4.868800">
        <ele>1159.0</ele>
        <time>2013-07-02T11:54:26Z</time>
      </trkpt>
      <trkpt lat="40.218817" lon="-4.868817">
        <ele>1156.0</ele>
        <time>2013-07-02T11:54:27Z</time>
      </trkpt>
      <trkpt lat="40.218733" lon="-4.868817">
        <ele>1152.0</ele>
        <time>2013-07-02T11:54:28Z</time>
      </trkpt>
      <trkpt lat="40.218650" lon="-4.868833">
        <ele>1149.0</ele>
        <time>2013-07-02T11:54:29Z</time>
      </trkpt>
      <trkpt lat="40.218567" lon="-4.868850">
        <ele>1147.0</ele>
        <time>2013-07-02T11:54:30Z</time>
      </trkpt>
      <trkpt lat="40.218483" lon="-4.868883">
        <ele>1146.0</ele>
        <time>2013-07-02T11:54:31Z</time>
      </trkpt>
      <trkpt lat="40.218417" lon="-4.868917">
        <ele>1146.0</ele>
        <time>2013-07-02T11:54:32Z</time>
      </trkpt>
      <trkpt lat="40.218350" lon="-4.868933">
        <ele>1146.0</ele>
        <time>2013-07-02T11:54:33Z</time>
      </trkpt>
      <trkpt lat="40.218300" lon="-4.868967">
        <ele>1145.0</ele>
        <time>2013-07-02T11:54:34Z</time>
      </trkpt>
      <trkpt lat="40.218233" lon="-4.868967">
        <ele>1143.0</ele>
        <time>2013-07-02T11:54:35Z</time>
      </trkpt>
      <trkpt lat="40.218183" lon="-4.868983">
        <ele>1141.0</ele>
        <time>2013-07-02T11:54:36Z</time>
      </trkpt>
      <trkpt lat="40.218117" lon="-4.869000">
        <ele>1139.0</ele>
        <time>2013-07-02T11:54:37Z</time>
      </trkpt>
      <trkpt lat="40.218050" lon="-4.869017">
        <ele>1138.0</ele>
        <time>2013-07-02T11:54:38Z</time>
      </trkpt>
      <trkpt lat="40.217983" lon="-4.869017">
        <ele>1138.0</ele>
        <time>2013-07-02T11:54:39Z</time>
      </trkpt>
      <trkpt lat="40.217917" lon="-4.869017">
        <ele>1138.0</ele>
        <time>2013-07-02T11:54:40Z</time>
      </trkpt>
      <trkpt lat="40.217850" lon="-4.869000">
        <ele>1138.0</ele>
        <time>2013-07-02T11:54:41Z</time>
      </trkpt>
      <trkpt lat="40.217783" lon="-4.868983">
        <ele>1137.0</ele>
        <time>2013-07-02T11:54:42Z</time>
      </trkpt>
      <trkpt lat="40.217717" lon="-4.868983">
        <ele>1137.0</ele>
        <time>2013-07-02T11:54:43Z</time>
      </trkpt>
      <trkpt lat="40.217650" lon="-4.868983">
        <ele>1135.0</ele>
        <time>2013-07-02T11:54:44Z</time>
      </trkpt>
      <trkpt lat="40.217567" lon="-4.868967">
        <ele>1133.0</ele>
        <time>2013-07-02T11:54:45Z</time>
      </trkpt>
      <trkpt lat="40.217483" lon="-4.868950">
        <ele>1132.0</ele>
        <time>2013-07-02T11:54:46Z</time>
      </trkpt>
      <trkpt lat="40.217417" lon="-4.868933">
        <ele>1131.0</ele>
        <time>2013-07-02T11:54:47Z</time>
      </trkpt>
      <trkpt lat="40.217350" lon="-4.868917">
        <ele>1129.0</ele>
        <time>2013-07-02T11:54:48Z</time>
      </trkpt>
      <trkpt lat="40.217283" lon="-4.868900">
        <ele>1129.0</ele>
        <time>2013-07-02T11:54:49Z</time>
      </trkpt>
      <trkpt lat="40.217217" lon="-4.868883">
        <ele>1128.0</ele>
        <time>2013-07-02T11:54:50Z</time>
      </trkpt>
      <trkpt lat="40.217133" lon="-4.868867">
        <ele>1127.0</ele>
        <time>2013-07-02T11:54:51Z</time>
      </trkpt>
      <trkpt lat="40.217083" lon="-4.868850">
        <ele>1126.0</ele>
        <time>2013-07-02T11:54:52Z</time>
      </trkpt>
      <trkpt lat="40.217017" lon="-4.868850">
        <ele>1124.0</ele>
        <time>2013-07-02T11:54:53Z</time>
      </trkpt>
      <trkpt lat="40.216967" lon="-4.868833">
        <ele>1122.0</ele>
        <time>2013-07-02T11:54:54Z</time>
      </trkpt>
      <trkpt lat="40.216900" lon="-4.868833">
        <ele>1120.0</ele>
        <time>2013-07-02T11:54:55Z</time>
      </trkpt>
      <trkpt lat="40.216833" lon="-4.868817">
        <ele>1118.0</ele>
        <time>2013-07-02T11:54:56Z</time>
      </trkpt>
      <trkpt lat="40.216767" lon="-4.868817">
        <ele>1117.0</ele>
        <time>2013-07-02T11:54:57Z</time>
      </trkpt>
      <trkpt lat="40.216700" lon="-4.868817">
        <ele>1116.0</ele>
        <time>2013-07-02T11:54:58Z</time>
      </trkpt>
      <trkpt lat="40.216650" lon="-4.868800">
        <ele>1115.0</ele>
        <time>2013-07-02T11:54:59Z</time>
      </trkpt>
      <trkpt lat="40.216583" lon="-4.868767">
        <ele>1115.0</ele>
        <time>2013-07-02T11:55:00Z</time>
      </trkpt>
      <trkpt lat="40.216533" lon="-4.868733">
        <ele>1115.0</ele>
        <time>2013-07-02T11:55:01Z</time>
      </trkpt>
      <trkpt lat="40.216467" lon="-4.868717">
        <ele>1114.0</ele>
        <time>2013-07-02T11:55:02Z</time>
      </trkpt>
      <trkpt lat="40.216417" lon="-4.868700">
        <ele>1113.0</ele>
        <time>2013-07-02T11:55:03Z</time>
      </trkpt>
      <trkpt lat="40.216350" lon="-4.868683">
        <ele>1111.0</ele>
        <time>2013-07-02T11:55:04Z</time>
      </trkpt>
      <trkpt lat="40.216283" lon="-4.868667">
        <ele>1109.0</ele>
        <time>2013-07-02T11:55:05Z</time>
      </trkpt>
      <trkpt lat="40.216217" lon="-4.868650">
        <ele>1108.0</ele>
        <time>2013-07-02T11:55:06Z</time>
      </trkpt>
      <trkpt lat="40.216150" lon="-4.868633">
        <ele>1107.0</ele>
        <time>2013-07-02T11:55:07Z</time>
      </trkpt>
      <trkpt lat="40.216083" lon="-4.868617">
        <ele>1107.0</ele>
        <time>2013-07-02T11:55:08Z</time>
      </trkpt>
      <trkpt lat="40.216017" lon="-4.868617">
        <ele>1105.0</ele>
        <time>2013-07-02T11:55:09Z</time>
      </trkpt>
      <trkpt lat="40.215967" lon="-4.868633">
        <ele>1103.0</ele>
        <time>2013-07-02T11:55:10Z</time>
      </trkpt>
      <trkpt lat="40.215900" lon="-4.868667">
        <ele>1101.0</ele>
        <time>2013-07-02T11:55:11Z</time>
      </trkpt>
      <trkpt lat="40.215833" lon="-4.868700">
        <ele>1100.0</ele>
        <time>2013-07-02T11:55:12Z</time>
      </trkpt>
      <trkpt lat="40.215767" lon="-4.868717">
        <ele>1099.0</ele>
        <time>2013-07-02T11:55:13Z</time>
      </trkpt>
      <trkpt lat="40.215683" lon="-4.868733">
        <ele>1099.0</ele>
        <time>2013-07-02T11:55:14Z</time>
      </trkpt>
      <trkpt lat="40.215600" lon="-4.868733">
        <ele>1099.0</ele>
        <time>2013-07-02T11:55:15Z</time>
      </trkpt>
      <trkpt lat="40.215533" lon="-4.868750">
        <ele>1098.0</ele>
        <time>2013-07-02T11:55:16Z</time>
      </trkpt>
      <trkpt lat="40.215450" lon="-4.868767">
        <ele>1098.0</ele>
        <time>2013-07-02T11:55:17Z</time>
      </trkpt>
      <trkpt lat="40.215383" lon="-4.868767">
        <ele>1098.0</ele>
        <time>2013-07-02T11:55:18Z</time>
      </trkpt>
      <trkpt lat="40.215300" lon="-4.868767">
        <ele>1097.0</ele>
        <time>2013-07-02T11:55:19Z</time>
      </trkpt>
      <trkpt lat="40.215233" lon="-4.868783">
        <ele>1096.0</ele>
        <time>2013-07-02T11:55:20Z</time>
      </trkpt>
      <trkpt lat="40.215167" lon="-4.868783">
        <ele>1095.0</ele>
        <time>2013-07-02T11:55:21Z</time>
      </trkpt>
      <trkpt lat="40.215100" lon="-4.868800">
        <ele>1093.0</ele>
        <time>2013-07-02T11:55:22Z</time>
      </trkpt>
      <trkpt lat="40.215017" lon="-4.868817">
        <ele>1090.0</ele>
        <time>2013-07-02T11:55:23Z</time>
      </trkpt>
      <trkpt lat="40.214917" lon="-4.868817">
        <ele>1089.0</ele>
        <time>2013-07-02T11:55:24Z</time>
      </trkpt>
      <trkpt lat="40.214833" lon="-4.868833">
        <ele>1088.0</ele>
        <time>2013-07-02T11:55:25Z</time>
      </trkpt>
      <trkpt lat="40.214750" lon="-4.868833">
        <ele>1090.0</ele>
        <time>2013-07-02T11:55:26Z</time>
      </trkpt>
      <trkpt lat="40.214700" lon="-4.868833">
        <ele>1091.0</ele>
        <time>2013-07-02T11:55:27Z</time>
      </trkpt>
      <trkpt lat="40.214633" lon="-4.868833">
        <ele>1093.0</ele>
        <time>2013-07-02T11:55:28Z</time>
      </trkpt>
      <trkpt lat="40.214583" lon="-4.868850">
        <ele>1093.0</ele>
        <time>2013-07-02T11:55:29Z</time>
      </trkpt>
      <trkpt lat="40.214517" lon="-4.868867">
        <ele>1094.0</ele>
        <time>2013-07-02T11:55:30Z</time>
      </trkpt>
      <trkpt lat="40.214450" lon="-4.868883">
        <ele>1094.0</ele>
        <time>2013-07-02T11:55:31Z</time>
      </trkpt>
      <trkpt lat="40.214400" lon="-4.868900">
        <ele>1096.0</ele>
        <time>2013-07-02T11:55:32Z</time>
      </trkpt>
      <trkpt lat="40.214333" lon="-4.868900">
        <ele>1099.0</ele>
        <time>2013-07-02T11:55:33Z</time>
      </trkpt>
      <trkpt lat="40.214283" lon="-4.868883">
        <ele>1101.0</ele>
        <time>2013-07-02T11:55:34Z</time>
      </trkpt>
      <trkpt lat="40.214250" lon="-4.868867">
        <ele>1103.0</ele>
        <time>2013-07-02T11:55:35Z</time>
      </trkpt>
      <trkpt lat="40.214200" lon="-4.868817">
        <ele>1106.0</ele>
        <time>2013-07-02T11:55:36Z</time>
      </trkpt>
      <trkpt lat="40.214167" lon="-4.868783">
        <ele>1107.0</ele>
        <time>2013-07-02T11:55:37Z</time>
      </trkpt>
      <trkpt lat="40.214133" lon="-4.868733">
        <ele>1109.0</ele>
        <time>2013-07-02T11:55:38Z</time>
      </trkpt>
      <trkpt lat="40.214083" lon="-4.868717">
        <ele>1111.0</ele>
        <time>2013-07-02T11:55:39Z</time>
      </trkpt>
      <trkpt lat="40.214050" lon="-4.868683">
        <ele>1112.0</ele>
        <time>2013-07-02T11:55:40Z</time>
      </trkpt>
      <trkpt lat="40.214017" lon="-4.868667">
        <ele>1114.0</ele>
        <time>2013-07-02T11:55:41Z</time>
      </trkpt>
      <trkpt lat="40.213983" lon="-4.868650">
        <ele>1116.0</ele>
        <time>2013-07-02T11:55:42Z</time>
      </trkpt>
      <trkpt lat="40.213950" lon="-4.868650">
        <ele>1118.0</ele>
        <time>2013-07-02T11:55:43Z</time>
      </trkpt>
      <trkpt lat="40.213917" lon="-4.868683">
        <ele>1119.0</ele>
        <time>2013-07-02T11:55:44Z</time>
      </trkpt>
      <trkpt lat="40.213917" lon="-4.868717">
        <ele>1120.0</ele>
        <time>2013-07-02T11:55:45Z</time>
      </trkpt>
      <trkpt lat="40.213917" lon="-4.868783">
        <ele>1122.0</ele>
        <time>2013-07-02T11:55:46Z</time>
      </trkpt>
      <trkpt lat="40.213933" lon="-4.868817">
        <ele>1123.0</ele>
        <time>2013-07-02T11:55:47Z</time>
      </trkpt>
      <trkpt lat="40.213950" lon="-4.868867">
        <ele>1125.0</ele>
        <time>2013-07-02T11:55:48Z</time>
      </trkpt>
      <trkpt lat="40.213967" lon="-4.868900">
        <ele>1127.0</ele>
        <time>2013-07-02T11:55:49Z</time>
      </trkpt>
      <trkpt lat="40.213983" lon="-4.868933">
        <ele>1129.0</ele>
        <time>2013-07-02T11:55:50Z</time>
      </trkpt>
      <trkpt lat="40.214017" lon="-4.868983">
        <ele>1131.0</ele>
        <time>2013-07-02T11:55:51Z</time>
      </trkpt>
      <trkpt lat="40.214050" lon="-4.869033">
        <ele>1133.0</ele>
        <time>2013-07-02T11:55:52Z</time>
      </trkpt>
      <trkpt lat="40.214117" lon="-4.869067">
        <ele>1135.0</ele>
        <time>2013-07-02T11:55:53Z</time>
      </trkpt>
      <trkpt lat="40.214200" lon="-4.869067">
        <ele>1138.0</ele>
        <time>2013-07-02T11:55:54Z</time>
      </trkpt>
      <trkpt lat="40.214283" lon="-4.869067">
        <ele>1141.0</ele>
        <time>2013-07-02T11:55:55Z</time>
      </trkpt>
      <trkpt lat="40.214383" lon="-4.869033">
        <ele>1144.0</ele>
        <time>2013-07-02T11:55:56Z</time>
      </trkpt>
      <trkpt lat="40.214483" lon="-4.868983">
        <ele>1146.0</ele>
        <time>2013-07-02T11:55:57Z</time>
      </trkpt>
      <trkpt lat="40.214567" lon="-4.868883">
        <ele>1148.0</ele>
        <time>2013-07-02T11:55:58Z</time>
      </trkpt>
      <trkpt lat="40.214633" lon="-4.868783">
        <ele>1150.0</ele>
        <time>2013-07-02T11:55:59Z</time>
      </trkpt>
      <trkpt lat="40.214700" lon="-4.868667">
        <ele>1152.0</ele>
        <time>2013-07-02T11:56:00Z</time>
      </trkpt>
      <trkpt lat="40.214733" lon="-4.868533">
        <ele>1155.0</ele>
        <time>2013-07-02T11:56:01Z</time>
      </trkpt>
      <trkpt lat="40.214783" lon="-4.868400">
        <ele>1157.0</ele>
        <time>2013-07-02T11:56:02Z</time>
      </trkpt>
      <trkpt lat="40.214817" lon="-4.868250">
        <ele>1158.0</ele>
        <time>2013-07-02T11:56:03Z</time>
      </trkpt>
      <trkpt lat="40.214833" lon="-4.868117">
        <ele>1160.0</ele>
        <time>2013-07-02T11:56:04Z</time>
      </trkpt>
      <trkpt lat="40.214833" lon="-4.867983">
        <ele>1161.0</ele>
        <time>2013-07-02T11:56:05Z</time>
      </trkpt>
      <trkpt lat="40.214800" lon="-4.867850">
        <ele>1162.0</ele>
        <time>2013-07-02T11:56:06Z</time>
      </trkpt>
      <trkpt lat="40.214767" lon="-4.867733">
        <ele>1163.0</ele>
        <time>2013-07-02T11:56:07Z</time>
      </trkpt>
      <trkpt lat="40.214717" lon="-4.867617">
        <ele>1165.0</ele>
        <time>2013-07-02T11:56:08Z</time>
      </trkpt>
      <trkpt lat="40.214683" lon="-4.867533">
        <ele>1167.0</ele>
        <time>2013-07-02T11:56:09Z</time>
      </trkpt>
      <trkpt lat="40.214650" lon="-4.867467">
        <ele>1169.0</ele>
        <time>2013-07-02T11:56:10Z</time>
      </trkpt>
      <trkpt lat="40.214617" lon="-4.867400">
        <ele>1170.0</ele>
        <time>2013-07-02T11:56:11Z</time>
      </trkpt>
      <trkpt lat="40.214583" lon="-4.867333">
        <ele>1170.0</ele>
        <time>2013-07-02T11:56:12Z</time>
      </trkpt>
      <trkpt lat="40.214533" lon="-4.867267">
        <ele>1170.0</ele>
        <time>2013-07-02T11:56:13Z</time>
      </trkpt>
      <trkpt lat="40.214467" lon="-4.867217">
        <ele>1170.0</ele>
        <time>2013-07-02T11:56:14Z</time>
      </trkpt>
      <trkpt lat="40.214417" lon="-4.867167">
        <ele>1172.0</ele>
        <time>2013-07-02T11:56:15Z</time>
      </trkpt>
      <trkpt lat="40.214367" lon="-4.867100">
        <ele>1173.0</ele>
        <time>2013-07-02T11:56:16Z</time>
      </trkpt>
      <trkpt lat="40.214317" lon="-4.867050">
        <ele>1173.0</ele>
        <time>2013-07-02T11:56:17Z</time>
      </trkpt>
      <trkpt lat="40.214283" lon="-4.867000">
        <ele>1174.0</ele>
        <time>2013-07-02T11:56:18Z</time>
      </trkpt>
      <trkpt lat="40.214233" lon="-4.866983">
        <ele>1173.0</ele>
        <time>2013-07-02T11:56:19Z</time>
      </trkpt>
      <trkpt lat="40.214167" lon="-4.866967">
        <ele>1173.0</ele>
        <time>2013-07-02T11:56:20Z</time>
      </trkpt>
      <trkpt lat="40.214117" lon="-4.866967">
        <ele>1172.0</ele>
        <time>2013-07-02T11:56:21Z</time>
      </trkpt>
      <trkpt lat="40.214050" lon="-4.866967">
        <ele>1171.0</ele>
        <time>2013-07-02T11:56:22Z</time>
      </trkpt>
      <trkpt lat="40.213983" lon="-4.866967">
        <ele>1170.0</ele>
        <time>2013-07-02T11:56:23Z</time>
      </trkpt>
      <trkpt lat="40.213917" lon="-4.866967">
        <ele>1170.0</ele>
        <time>2013-07-02T11:56:24Z</time>
      </trkpt>
      <trkpt lat="40.213850" lon="-4.867000">
        <ele>1170.0</ele>
        <time>2013-07-02T11:56:25Z</time>
      </trkpt>
      <trkpt lat="40.213800" lon="-4.867050">
        <ele>1171.0</ele>
        <time>2013-07-02T11:56:26Z</time>
      </trkpt>
      <trkpt lat="40.213750" lon="-4.867100">
        <ele>1173.0</ele>
        <time>2013-07-02T11:56:27Z</time>
      </trkpt>
      <trkpt lat="40.213717" lon="-4.867133">
        <ele>1175.0</ele>
        <time>2013-07-02T11:56:28Z</time>
      </trkpt>
      <trkpt lat="40.213700" lon="-4.867133">
        <ele>1177.0</ele>
        <time>2013-07-02T11:56:29Z</time>
      </trkpt>
      <trkpt lat="40.213667" lon="-4.867133">
        <ele>1177.0</ele>
        <time>2013-07-02T11:56:30Z</time>
      </trkpt>
      <trkpt lat="40.213633" lon="-4.867133">
        <ele>1177.0</ele>
        <time>2013-07-02T11:56:31Z</time>
      </trkpt>
      <trkpt lat="40.213600" lon="-4.867150">
        <ele>1176.0</ele>
        <time>2013-07-02T11:56:32Z</time>
      </trkpt>
      <trkpt lat="40.213567" lon="-4.867200">
        <ele>1175.0</ele>
        <time>2013-07-02T11:56:33Z</time>
      </trkpt>
      <trkpt lat="40.213533" lon="-4.867250">
        <ele>1176.0</ele>
        <time>2013-07-02T11:56:34Z</time>
      </trkpt>
      <trkpt lat="40.213517" lon="-4.867333">
        <ele>1179.0</ele>
        <time>2013-07-02T11:56:35Z</time>
      </trkpt>
      <trkpt lat="40.213550" lon="-4.867400">
        <ele>1182.0</ele>
        <time>2013-07-02T11:56:36Z</time>
      </trkpt>
      <trkpt lat="40.213600" lon="-4.867450">
        <ele>1185.0</ele>
        <time>2013-07-02T11:56:37Z</time>
      </trkpt>
      <trkpt lat="40.213650" lon="-4.867500">
        <ele>1188.0</ele>
        <time>2013-07-02T11:56:38Z</time>
      </trkpt>
      <trkpt lat="40.213683" lon="-4.867533">
        <ele>1190.0</ele>
        <time>2013-07-02T11:56:39Z</time>
      </trkpt>
      <trkpt lat="40.213717" lon="-4.867583">
        <ele>1192.0</ele>
        <time>2013-07-02T11:56:40Z</time>
      </trkpt>
      <trkpt lat="40.213767" lon="-4.867650">
        <ele>1194.0</ele>
        <time>2013-07-02T11:56:41Z</time>
      </trkpt>
      <trkpt lat="40.213817" lon="-4.867700">
        <ele>1196.0</ele>
        <time>2013-07-02T11:56:42Z</time>
      </trkpt>
      <trkpt lat="40.213833" lon="-4.867767">
        <ele>1199.0</ele>
        <time>2013-07-02T11:56:43Z</time>
      </trkpt>
      <trkpt lat="40.213833" lon="-4.867800">
        <ele>1201.0</ele>
        <time>2013-07-02T11:56:44Z</time>
      </trkpt>
      <trkpt lat="40.213817" lon="-4.867833">
        <ele>1204.0</ele>
        <time>2013-07-02T11:56:45Z</time>
      </trkpt>
      <trkpt lat="40.213767" lon="-4.867833">
        <ele>1207.0</ele>
        <time>2013-07-02T11:56:46Z</time>
      </trkpt>
      <trkpt lat="40.213733" lon="-4.867833">
        <ele>1210.0</ele>
        <time>2013-07-02T11:56:47Z</time>
      </trkpt>
      <trkpt lat="40.213683" lon="-4.867817">
        <ele>1214.0</ele>
        <time>2013-07-02T11:56:48Z</time>
      </trkpt>
      <trkpt lat="40.213633" lon="-4.867783">
        <ele>1216.0</ele>
        <time>2013-07-02T11:56:49Z</time>
      </trkpt>
      <trkpt lat="40.213583" lon="-4.867733">
        <ele>1219.0</ele>
        <time>2013-07-02T11:56:50Z</time>
      </trkpt>
      <trkpt lat="40.213533" lon="-4.867667">
        <ele>1221.0</ele>
        <time>2013-07-02T11:56:51Z</time>
      </trkpt>
      <trkpt lat="40.213483" lon="-4.867583">
        <ele>1222.0</ele>
        <time>2013-07-02T11:56:52Z</time>
      </trkpt>
      <trkpt lat="40.213450" lon="-4.867467">
        <ele>1224.0</ele>
        <time>2013-07-02T11:56:53Z</time>
      </trkpt>
      <trkpt lat="40.213417" lon="-4.867333">
        <ele>1226.0</ele>
        <time>2013-07-02T11:56:54Z</time>
      </trkpt>
      <trkpt lat="40.213433" lon="-4.867183">
        <ele>1228.0</ele>
        <time>2013-07-02T11:56:55Z</time>
      </trkpt>
      <trkpt lat="40.213500" lon="-4.867050">
        <ele>1229.0</ele>
        <time>2013-07-02T11:56:56Z</time>
      </trkpt>
      <trkpt lat="40.213583" lon="-4.866933">
        <ele>1231.0</ele>
        <time>2013-07-02T11:56:57Z</time>
      </trkpt>
      <trkpt lat="40.213683" lon="-4.866883">
        <ele>1235.0</ele>
        <time>2013-07-02T11:56:58Z</time>
      </trkpt>
      <trkpt lat="40.213783" lon="-4.866850">
        <ele>1238.0</ele>
        <time>2013-07-02T11:56:59Z</time>
      </trkpt>
      <trkpt lat="40.213867" lon="-4.866850">
        <ele>1241.0</ele>
        <time>2013-07-02T11:57:00Z</time>
      </trkpt>
      <trkpt lat="40.213950" lon="-4.866833">
        <ele>1244.0</ele>
        <time>2013-07-02T11:57:01Z</time>
      </trkpt>
      <trkpt lat="40.214050" lon="-4.866833">
        <ele>1247.0</ele>
        <time>2013-07-02T11:57:02Z</time>
      </trkpt>
      <trkpt lat="40.214150" lon="-4.866833">
        <ele>1249.0</ele>
        <time>2013-07-02T11:57:03Z</time>
      </trkpt>
      <trkpt lat="40.214233" lon="-4.866867">
        <ele>1252.0</ele>
        <time>2013-07-02T11:57:04Z</time>
      </trkpt>
      <trkpt lat="40.214300" lon="-4.866917">
        <ele>1254.0</ele>
        <time>2013-07-02T11:57:05Z</time>
      </trkpt>
      <trkpt lat="40.214350" lon="-4.866983">
        <ele>1256.0</ele>
        <time>2013-07-02T11:57:06Z</time>
      </trkpt>
      <trkpt lat="40.214367" lon="-4.867033">
        <ele>1258.0</ele>
        <time>2013-07-02T11:57:07Z</time>
      </trkpt>
      <trkpt lat="40.214383" lon="-4.867083">
        <ele>1261.0</ele>
        <time>2013-07-02T11:57:08Z</time>
      </trkpt>
      <trkpt lat="40.214383" lon="-4.867100">
        <ele>1264.0</ele>
        <time>2013-07-02T11:57:09Z</time>
      </trkpt>
      <trkpt lat="40.214350" lon="-4.867100">
        <ele>1266.0</ele>
        <time>2013-07-02T11:57:10Z</time>
      </trkpt>
      <trkpt lat="40.214317" lon="-4.867100">
        <ele>1266.0</ele>
        <time>2013-07-02T11:57:11Z</time>
      </trkpt>
      <trkpt lat="40.214283" lon="-4.867100">
        <ele>1267.0</ele>
        <time>2013-07-02T11:57:12Z</time>
      </trkpt>
      <trkpt lat="40.214233" lon="-4.867083">
        <ele>1268.0</ele>
        <time>2013-07-02T11:57:13Z</time>
      </trkpt>
      <trkpt lat="40.214200" lon="-4.867050">
        <ele>1269.0</ele>
        <time>2013-07-02T11:57:14Z</time>
      </trkpt>
      <trkpt lat="40.214150" lon="-4.867017">
        <ele>1268.0</ele>
        <time>2013-07-02T11:57:15Z</time>
      </trkpt>
      <trkpt lat="40.214083" lon="-4.866950">
        <ele>1267.0</ele>
        <time>2013-07-02T11:57:16Z</time>
      </trkpt>
      <trkpt lat="40.214017" lon="-4.866867">
        <ele>1267.0</ele>
        <time>2013-07-02T11:57:17Z</time>
      </trkpt>
      <trkpt lat="40.213967" lon="-4.866767">
        <ele>1267.0</ele>
        <time>2013-07-02T11:57:18Z</time>
      </trkpt>
      <trkpt lat="40.213933" lon="-4.866650">
        <ele>1268.0</ele>
        <time>2013-07-02T11:57:19Z</time>
      </trkpt>
      <trkpt lat="40.213883" lon="-4.866550">
        <ele>1269.0</ele>
        <time>2013-07-02T11:57:20Z</time>
      </trkpt>
      <trkpt lat="40.213817" lon="-4.866450">
        <ele>1273.0</ele>
        <time>2013-07-02T11:57:21Z</time>
      </trkpt>
      <trkpt lat="40.213767" lon="-4.866383">
        <ele>1276.0</ele>
        <time>2013-07-02T11:57:22Z</time>
      </trkpt>
      <trkpt lat="40.213733" lon="-4.866283">
        <ele>1278.0</ele>
        <time>2013-07-02T11:57:23Z</time>
      </trkpt>
      <trkpt lat="40.213700" lon="-4.866167">
        <ele>1279.0</ele>
        <time>2013-07-02T11:57:24Z</time>
      </trkpt>
      <trkpt lat="40.213683" lon="-4.866033">
        <ele>1279.0</ele>
        <time>2013-07-02T11:57:25Z</time>
      </trkpt>
      <trkpt lat="40.213650" lon="-4.865900">
        <ele>1280.0</ele>
        <time>2013-07-02T11:57:26Z</time>
      </trkpt>
      <trkpt lat="40.213633" lon="-4.865750">
        <ele>1281.0</ele>
        <time>2013-07-02T11:57:27Z</time>
      </trkpt>
      <trkpt lat="40.213667" lon="-4.865617">
        <ele>1282.0</ele>
        <time>2013-07-02T11:57:28Z</time>
      </trkpt>
      <trkpt lat="40.213717" lon="-4.865483">
        <ele>1283.0</ele>
        <time>2013-07-02T11:57:29Z</time>
      </trkpt>
      <trkpt lat="40.213817" lon="-4.865383">
        <ele>1286.0</ele>
        <time>2013-07-02T11:57:30Z</time>
      </trkpt>
      <trkpt lat="40.213900" lon="-4.865333">
        <ele>1290.0</ele>
        <time>2013-07-02T11:57:31Z</time>
      </trkpt>
      <trkpt lat="40.213967" lon="-4.865333">
        <ele>1292.0</ele>
        <time>2013-07-02T11:57:32Z</time>
      </trkpt>
      <trkpt lat="40.214017" lon="-4.865367">
        <ele>1294.0</ele>
        <time>2013-07-02T11:57:33Z</time>
      </trkpt>
      <trkpt lat="40.214067" lon="-4.865433">
        <ele>1295.0</ele>
        <time>2013-07-02T11:57:34Z</time>
      </trkpt>
      <trkpt lat="40.214100" lon="-4.865500">
        <ele>1298.0</ele>
        <time>2013-07-02T11:57:35Z</time>
      </trkpt>
      <trkpt lat="40.214117" lon="-4.865567">
        <ele>1300.0</ele>
        <time>2013-07-02T11:57:36Z</time>
      </trkpt>
      <trkpt lat="40.214083" lon="-4.865633">
        <ele>1302.0</ele>
        <time>2013-07-02T11:57:37Z</time>
      </trkpt>
      <trkpt lat="40.214033" lon="-4.865667">
        <ele>1304.0</ele>
        <time>2013-07-02T11:57:38Z</time>
      </trkpt>
      <trkpt lat="40.213950" lon="-4.865650">
        <ele>1305.0</ele>
        <time>2013-07-02T11:57:39Z</time>
      </trkpt>
      <trkpt lat="40.213883" lon="-4.865583">
        <ele>1308.0</ele>
        <time>2013-07-02T11:57:40Z</time>
      </trkpt>
      <trkpt lat="40.213833" lon="-4.865483">
        <ele>1310.0</ele>
        <time>2013-07-02T11:57:41Z</time>
      </trkpt>
      <trkpt lat="40.213817" lon="-4.865367">
        <ele>1311.0</ele>
        <time>2013-07-02T11:57:42Z</time>
      </trkpt>
      <trkpt lat="40.213833" lon="-4.865233">
        <ele>1312.0</ele>
        <time>2013-07-02T11:57:43Z</time>
      </trkpt>
      <trkpt lat="40.213867" lon="-4.865083">
        <ele>1312.0</ele>
        <time>2013-07-02T11:57:44Z</time>
      </trkpt>
      <trkpt lat="40.213917" lon="-4.864933">
        <ele>1315.0</ele>
        <time>2013-07-02T11:57:45Z</time>
      </trkpt>
      <trkpt lat="40.213967" lon="-4.864817">
        <ele>1319.0</ele>
        <time>2013-07-02T11:57:46Z</time>
      </trkpt>
      <trkpt lat="40.214017" lon="-4.864733">
        <ele>1323.0</ele>
        <time>2013-07-02T11:57:47Z</time>
      </trkpt>
      <trkpt lat="40.214100" lon="-4.864683">
        <ele>1325.0</ele>
        <time>2013-07-02T11:57:48Z</time>
      </trkpt>
      <trkpt lat="40.214150" lon="-4.864667">
        <ele>1326.0</ele>
        <time>2013-07-02T11:57:49Z</time>
      </trkpt>
      <trkpt lat="40.214217" lon="-4.864700">
        <ele>1325.0</ele>
        <time>2013-07-02T11:57:50Z</time>
      </trkpt>
      <trkpt lat="40.214300" lon="-4.864767">
        <ele>1326.0</ele>
        <time>2013-07-02T11:57:51Z</time>
      </trkpt>
      <trkpt lat="40.214383" lon="-4.864833">
        <ele>1327.0</ele>
        <time>2013-07-02T11:57:52Z</time>
      </trkpt>
      <trkpt lat="40.214433" lon="-4.864900">
        <ele>1328.0</ele>
        <time>2013-07-02T11:57:53Z</time>
      </trkpt>
      <trkpt lat="40.214467" lon="-4.864983">
        <ele>1330.0</ele>
        <time>2013-07-02T11:57:54Z</time>
      </trkpt>
      <trkpt lat="40.214450" lon="-4.865067">
        <ele>1331.0</ele>
        <time>2013-07-02T11:57:55Z</time>
      </trkpt>
      <trkpt lat="40.214400" lon="-4.865133">
        <ele>1333.0</ele>
        <time>2013-07-02T11:57:56Z</time>
      </trkpt>
      <trkpt lat="40.214333" lon="-4.865150">
        <ele>1335.0</ele>
        <time>2013-07-02T11:57:57Z</time>
      </trkpt>
      <trkpt lat="40.214283" lon="-4.865167">
        <ele>1337.0</ele>
        <time>2013-07-02T11:57:58Z</time>
      </trkpt>
      <trkpt lat="40.214217" lon="-4.865150">
        <ele>1340.0</ele>
        <time>2013-07-02T11:57:59Z</time>
      </trkpt>
      <trkpt lat="40.214167" lon="-4.865150">
        <ele>1342.0</ele>
        <time>2013-07-02T11:58:00Z</time>
      </trkpt>
      <trkpt lat="40.214117" lon="-4.865117">
        <ele>1342.0</ele>
        <time>2013-07-02T11:58:01Z</time>
      </trkpt>
      <trkpt lat="40.214050" lon="-4.865067">
        <ele>1342.0</ele>
        <time>2013-07-02T11:58:02Z</time>
      </trkpt>
      <trkpt lat="40.213983" lon="-4.864983">
        <ele>1341.0</ele>
        <time>2013-07-02T11:58:03Z</time>
      </trkpt>
      <trkpt lat="40.213917" lon="-4.864867">
        <ele>1340.0</ele>
        <time>2013-07-02T11:58:04Z</time>
      </trkpt>
      <trkpt lat="40.213883" lon="-4.864717">
        <ele>1339.0</ele>
        <time>2013-07-02T11:58:05Z</time>
      </trkpt>
      <trkpt lat="40.213883" lon="-4.864550">
        <ele>1340.0</ele>
        <time>2013-07-02T11:58:06Z</time>
      </trkpt>
      <trkpt lat="40.213900" lon="-4.864417">
        <ele>1343.0</ele>
        <time>2013-07-02T11:58:07Z</time>
      </trkpt>
      <trkpt lat="40.213933" lon="-4.864300">
        <ele>1346.0</ele>
        <time>2013-07-02T11:58:08Z</time>
      </trkpt>
      <trkpt lat="40.213950" lon="-4.864183">
        <ele>1347.0</ele>
        <time>2013-07-02T11:58:09Z</time>
      </trkpt>
      <trkpt lat="40.214000" lon="-4.864050">
        <ele>1347.0</ele>
        <time>2013-07-02T11:58:10Z</time>
      </trkpt>
      <trkpt lat="40.214083" lon="-4.863933">
        <ele>1349.0</ele>
        <time>2013-07-02T11:58:11Z</time>
      </trkpt>
      <trkpt lat="40.214183" lon="-4.863833">
        <ele>1351.0</ele>
        <time>2013-07-02T11:58:12Z</time>
      </trkpt>
      <trkpt lat="40.214267" lon="-4.863800">
        <ele>1354.0</ele>
        <time>2013-07-02T11:58:13Z</time>
      </trkpt>
      <trkpt lat="40.214333" lon="-4.863800">
        <ele>1357.0</ele>
        <time>2013-07-02T11:58:14Z</time>
      </trkpt>
      <trkpt lat="40.214417" lon="-4.863800">
        <ele>1359.0</ele>
        <time>2013-07-02T11:58:15Z</time>
      </trkpt>
      <trkpt lat="40.214483" lon="-4.863800">
        <ele>1360.0</ele>
        <time>2013-07-02T11:58:16Z</time>
      </trkpt>
      <trkpt lat="40.214567" lon="-4.863817">
        <ele>1361.0</ele>
        <time>2013-07-02T11:58:17Z</time>
      </trkpt>
      <trkpt lat="40.214650" lon="-4.863850">
        <ele>1362.0</ele>
        <time>2013-07-02T11:58:18Z</time>
      </trkpt>
      <trkpt lat="40.214717" lon="-4.863900">
        <ele>1363.0</ele>
        <time>2013-07-02T11:58:19Z</time>
      </trkpt>
      <trkpt lat="40.214750" lon="-4.863983">
        <ele>1364.0</ele>
        <time>2013-07-02T11:58:20Z</time>
      </trkpt>
      <trkpt lat="40.214767" lon="-4.864067">
        <ele>1365.0</ele>
        <time>2013-07-02T11:58:21Z</time>
      </trkpt>
      <trkpt lat="40.214733" lon="-4.864167">
        <ele>1366.0</ele>
        <time>2013-07-02T11:58:22Z</time>
      </trkpt>
      <trkpt lat="40.214700" lon="-4.864250">
        <ele>1369.0</ele>
        <time>2013-07-02T11:58:23Z</time>
      </trkpt>
      <trkpt lat="40.214650" lon="-4.864267">
        <ele>1372.0</ele>
        <time>2013-07-02T11:58:24Z</time>
      </trkpt>
      <trkpt lat="40.214583" lon="-4.864250">
        <ele>1373.0</ele>
        <time>2013-07-02T11:58:25Z</time>
      </trkpt>
      <trkpt lat="40.214533" lon="-4.864217">
        <ele>1373.0</ele>
        <time>2013-07-02T11:58:26Z</time>
      </trkpt>
      <trkpt lat="40.214450" lon="-4.864167">
        <ele>1373.0</ele>
        <time>2013-07-02T11:58:27Z</time>
      </trkpt>
      <trkpt lat="40.214383" lon="-4.864117">
        <ele>1373.0</ele>
        <time>2013-07-02T11:58:28Z</time>
      </trkpt>
      <trkpt lat="40.214300" lon="-4.864033">
        <ele>1374.0</ele>
        <time>2013-07-02T11:58:29Z</time>
      </trkpt>
      <trkpt lat="40.214267" lon="-4.863933">
        <ele>1375.0</ele>
        <time>2013-07-02T11:58:30Z</time>
      </trkpt>
      <trkpt lat="40.214233" lon="-4.863800">
        <ele>1375.0</ele>
        <time>2013-07-02T11:58:31Z</time>
      </trkpt>
      <trkpt lat="40.214217" lon="-4.863650">
        <ele>1375.0</ele>
        <time>2013-07-02T11:58:32Z</time>
      </trkpt>
      <trkpt lat="40.214200" lon="-4.863517">
        <ele>1376.0</ele>
        <time>2013-07-02T11:58:33Z</time>
      </trkpt>
      <trkpt lat="40.214200" lon="-4.863400">
        <ele>1377.0</ele>
        <time>2013-07-02T11:58:34Z</time>
      </trkpt>
      <trkpt lat="40.214200" lon="-4.863300">
        <ele>1379.0</ele>
        <time>2013-07-02T11:58:35Z</time>
      </trkpt>
      <trkpt lat="40.214183" lon="-4.863200">
        <ele>1382.0</ele>
        <time>2013-07-02T11:58:36Z</time>
      </trkpt>
      <trkpt lat="40.214183" lon="-4.863100">
        <ele>1383.0</ele>
        <time>2013-07-02T11:58:37Z</time>
      </trkpt>
      <trkpt lat="40.214200" lon="-4.862967">
        <ele>1383.0</ele>
        <time>2013-07-02T11:58:38Z</time>
      </trkpt>
      <trkpt lat="40.214233" lon="-4.862833">
        <ele>1384.0</ele>
        <time>2013-07-02T11:58:39Z</time>
      </trkpt>
      <trkpt lat="40.214300" lon="-4.862717">
        <ele>1386.0</ele>
        <time>2013-07-02T11:58:40Z</time>
      </trkpt>
      <trkpt lat="40.214383" lon="-4.862650">
        <ele>1389.0</ele>
        <time>2013-07-02T11:58:41Z</time>
      </trkpt>
      <trkpt lat="40.214467" lon="-4.862617">
        <ele>1390.0</ele>
        <time>2013-07-02T11:58:42Z</time>
      </trkpt>
      <trkpt lat="40.214550" lon="-4.862617">
        <ele>1392.0</ele>
        <time>2013-07-02T11:58:43Z</time>
      </trkpt>
      <trkpt lat="40.214617" lon="-4.862633">
        <ele>1393.0</ele>
        <time>2013-07-02T11:58:44Z</time>
      </trkpt>
      <trkpt lat="40.214700" lon="-4.862667">
        <ele>1394.0</ele>
        <time>2013-07-02T11:58:45Z</time>
      </trkpt>
      <trkpt lat="40.214767" lon="-4.862700">
        <ele>1395.0</ele>
        <time>2013-07-02T11:58:46Z</time>
      </trkpt>
      <trkpt lat="40.214833" lon="-4.862733">
        <ele>1397.0</ele>
        <time>2013-07-02T11:58:47Z</time>
      </trkpt>
      <trkpt lat="40.214900" lon="-4.862767">
        <ele>1398.0</ele>
        <time>2013-07-02T11:58:48Z</time>
      </trkpt>
      <trkpt lat="40.214950" lon="-4.862817">
        <ele>1400.0</ele>
        <time>2013-07-02T11:58:49Z</time>
      </trkpt>
      <trkpt lat="40.215000" lon="-4.862867">
        <ele>1401.0</ele>
        <time>2013-07-02T11:58:50Z</time>
      </trkpt>
      <trkpt lat="40.215050" lon="-4.862917">
        <ele>1402.0</ele>
        <time>2013-07-02T11:58:51Z</time>
      </trkpt>
      <trkpt lat="40.215117" lon="-4.862967">
        <ele>1403.0</ele>
        <time>2013-07-02T11:58:52Z</time>
      </trkpt>
      <trkpt lat="40.215183" lon="-4.863017">
        <ele>1405.0</ele>
        <time>2013-07-02T11:58:53Z</time>
      </trkpt>
      <trkpt lat="40.215250" lon="-4.863033">
        <ele>1407.0</ele>
        <time>2013-07-02T11:58:54Z</time>
      </trkpt>
      <trkpt lat="40.215317" lon="-4.863050">
        <ele>1408.0</ele>
        <time>2013-07-02T11:58:55Z</time>
      </trkpt>
      <trkpt lat="40.215400" lon="-4.863033">
        <ele>1408.0</ele>
        <time>2013-07-02T11:58:56Z</time>
      </trkpt>
      <trkpt lat="40.215483" lon="-4.863000">
        <ele>1408.0</ele>
        <time>2013-07-02T11:58:57Z</time>
      </trkpt>
      <trkpt lat="40.215583" lon="-4.862950">
        <ele>1409.0</ele>
        <time>2013-07-02T11:58:58Z</time>
      </trkpt>
      <trkpt lat="40.215667" lon="-4.862900">
        <ele>1410.0</ele>
        <time>2013-07-02T11:58:59Z</time>
      </trkpt>
      <trkpt lat="40.215733" lon="-4.862817">
        <ele>1411.0</ele>
        <time>2013-07-02T11:59:00Z</time>
      </trkpt>
      <trkpt lat="40.215817" lon="-4.862717">
        <ele>1412.0</ele>
        <time>2013-07-02T11:59:01Z</time>
      </trkpt>
      <trkpt lat="40.215867" lon="-4.862633">
        <ele>1414.0</ele>
        <time>2013-07-02T11:59:02Z</time>
      </trkpt>
      <trkpt lat="40.215917" lon="-4.862533">
        <ele>1416.0</ele>
        <time>2013-07-02T11:59:03Z</time>
      </trkpt>
      <trkpt lat="40.215967" lon="-4.862450">
        <ele>1416.0</ele>
        <time>2013-07-02T11:59:04Z</time>
      </trkpt>
      <trkpt lat="40.216000" lon="-4.862350">
        <ele>1417.0</ele>
        <time>2013-07-02T11:59:05Z</time>
      </trkpt>
      <trkpt lat="40.216033" lon="-4.862233">
        <ele>1416.0</ele>
        <time>2013-07-02T11:59:06Z</time>
      </trkpt>
      <trkpt lat="40.216067" lon="-4.862117">
        <ele>1416.0</ele>
        <time>2013-07-02T11:59:07Z</time>
      </trkpt>
      <trkpt lat="40.216083" lon="-4.862000">
        <ele>1417.0</ele>
        <time>2013-07-02T11:59:08Z</time>
      </trkpt>
      <trkpt lat="40.216100" lon="-4.861883">
        <ele>1417.0</ele>
        <time>2013-07-02T11:59:09Z</time>
      </trkpt>
      <trkpt lat="40.216117" lon="-4.861767">
        <ele>1418.0</ele>
        <time>2013-07-02T11:59:10Z</time>
      </trkpt>
      <trkpt lat="40.216150" lon="-4.861650">
        <ele>1417.0</ele>
        <time>2013-07-02T11:59:11Z</time>
      </trkpt>
      <trkpt lat="40.216183" lon="-4.861550">
        <ele>1417.0</ele>
        <time>2013-07-02T11:59:12Z</time>
      </trkpt>
      <trkpt lat="40.216233" lon="-4.861433">
        <ele>1416.0</ele>
        <time>2013-07-02T11:59:13Z</time>
      </trkpt>
      <trkpt lat="40.216300" lon="-4.861333">
        <ele>1415.0</ele>
        <time>2013-07-02T11:59:14Z</time>
      </trkpt>
      <trkpt lat="40.216383" lon="-4.861267">
        <ele>1416.0</ele>
        <time>2013-07-02T11:59:15Z</time>
      </trkpt>
      <trkpt lat="40.216483" lon="-4.861217">
        <ele>1416.0</ele>
        <time>2013-07-02T11:59:16Z</time>
      </trkpt>
      <trkpt lat="40.216567" lon="-4.861200">
        <ele>1418.0</ele>
        <time>2013-07-02T11:59:17Z</time>
      </trkpt>
      <trkpt lat="40.216650" lon="-4.861167">
        <ele>1421.0</ele>
        <time>2013-07-02T11:59:18Z</time>
      </trkpt>
      <trkpt lat="40.216717" lon="-4.861150">
        <ele>1423.0</ele>
        <time>2013-07-02T11:59:19Z</time>
      </trkpt>
      <trkpt lat="40.216783" lon="-4.861167">
        <ele>1424.0</ele>
        <time>2013-07-02T11:59:20Z</time>
      </trkpt>
      <trkpt lat="40.216833" lon="-4.861183">
        <ele>1426.0</ele>
        <time>2013-07-02T11:59:21Z</time>
      </trkpt>
      <trkpt lat="40.216900" lon="-4.861217">
        <ele>1427.0</ele>
        <time>2013-07-02T11:59:22Z</time>
      </trkpt>
      <trkpt lat="40.216983" lon="-4.861233">
        <ele>1428.0</ele>
        <time>2013-07-02T11:59:23Z</time>
      </trkpt>
      <trkpt lat="40.217050" lon="-4.861250">
        <ele>1430.0</ele>
        <time>2013-07-02T11:59:24Z</time>
      </trkpt>
      <trkpt lat="40.217117" lon="-4.861267">
        <ele>1431.0</ele>
        <time>2013-07-02T11:59:25Z</time>
      </trkpt>
      <trkpt lat="40.217200" lon="-4.861267">
        <ele>1433.0</ele>
        <time>2013-07-02T11:59:26Z</time>
      </trkpt>
      <trkpt lat="40.217283" lon="-4.861267">
        <ele>1434.0</ele>
        <time>2013-07-02T11:59:27Z</time>
      </trkpt>
      <trkpt lat="40.217350" lon="-4.861267">
        <ele>1436.0</ele>
        <time>2013-07-02T11:59:28Z</time>
      </trkpt>
      <trkpt lat="40.217433" lon="-4.861250">
        <ele>1437.0</ele>
        <time>2013-07-02T11:59:29Z</time>
      </trkpt>
      <trkpt lat="40.217500" lon="-4.861217">
        <ele>1438.0</ele>
        <time>2013-07-02T11:59:30Z</time>
      </trkpt>
      <trkpt lat="40.217583" lon="-4.861183">
        <ele>1439.0</ele>
        <time>2013-07-02T11:59:31Z</time>
      </trkpt>
      <trkpt lat="40.217683" lon="-4.861150">
        <ele>1440.0</ele>
        <time>2013-07-02T11:59:32Z</time>
      </trkpt>
      <trkpt lat="40.217767" lon="-4.861117">
        <ele>1441.0</ele>
        <time>2013-07-02T11:59:33Z</time>
      </trkpt>
      <trkpt lat="40.217867" lon="-4.861083">
        <ele>1443.0</ele>
        <time>2013-07-02T11:59:34Z</time>
      </trkpt>
      <trkpt lat="40.217950" lon="-4.861050">
        <ele>1444.0</ele>
        <time>2013-07-02T11:59:35Z</time>
      </trkpt>
      <trkpt lat="40.218017" lon="-4.861033">
        <ele>1445.0</ele>
        <time>2013-07-02T11:59:36Z</time>
      </trkpt>
      <trkpt lat="40.218100" lon="-4.860983">
        <ele>1445.0</ele>
        <time>2013-07-02T11:59:37Z</time>
      </trkpt>
      <trkpt lat="40.218183" lon="-4.860933">
        <ele>1445.0</ele>
        <time>2013-07-02T11:59:38Z</time>
      </trkpt>
      <trkpt lat="40.218267" lon="-4.860850">
        <ele>1446.0</ele>
        <time>2013-07-02T11:59:39Z</time>
      </trkpt>
      <trkpt lat="40.218350" lon="-4.860767">
        <ele>1446.0</ele>
        <time>2013-07-02T11:59:40Z</time>
      </trkpt>
      <trkpt lat="40.218417" lon="-4.860667">
        <ele>1446.0</ele>
        <time>2013-07-02T11:59:41Z</time>
      </trkpt>
      <trkpt lat="40.218483" lon="-4.860550">
        <ele>1446.0</ele>
        <time>2013-07-02T11:59:42Z</time>
      </trkpt>
      <trkpt lat="40.218550" lon="-4.860433">
        <ele>1446.0</ele>
        <time>2013-07-02T11:59:43Z</time>
      </trkpt>
      <trkpt lat="40.218600" lon="-4.860300">
        <ele>1446.0</ele>
        <time>2013-07-02T11:59:44Z</time>
      </trkpt>
      <trkpt lat="40.218633" lon="-4.860167">
        <ele>1446.0</ele>
        <time>2013-07-02T11:59:45Z</time>
      </trkpt>
      <trkpt lat="40.218650" lon="-4.860000">
        <ele>1447.0</ele>
        <time>2013-07-02T11:59:46Z</time>
      </trkpt>
      <trkpt lat="40.218650" lon="-4.859867">
        <ele>1447.0</ele>
        <time>2013-07-02T11:59:47Z</time>
      </trkpt>
      <trkpt lat="40.218633" lon="-4.859733">
        <ele>1449.0</ele>
        <time>2013-07-02T11:59:48Z</time>
      </trkpt>
      <trkpt lat="40.218600" lon="-4.859633">
        <ele>1451.0</ele>
        <time>2013-07-02T11:59:49Z</time>
      </trkpt>
      <trkpt lat="40.218583" lon="-4.859533">
        <ele>1451.0</ele>
        <time>2013-07-02T11:59:50Z</time>
      </trkpt>
      <trkpt lat="40.218567" lon="-4.859450">
        <ele>1450.0</ele>
        <time>2013-07-02T11:59:51Z</time>
      </trkpt>
      <trkpt lat="40.218533" lon="-4.859367">
        <ele>1448.0</ele>
        <time>2013-07-02T11:59:52Z</time>
      </trkpt>
      <trkpt lat="40.218467" lon="-4.859283">
        <ele>1446.0</ele>
        <time>2013-07-02T11:59:53Z</time>
      </trkpt>
      <trkpt lat="40.218400" lon="-4.859217">
        <ele>1444.0</ele>
        <time>2013-07-02T11:59:54Z</time>
      </trkpt>
      <trkpt lat="40.218317" lon="-4.859167">
        <ele>1443.0</ele>
        <time>2013-07-02T11:59:55Z</time>
      </trkpt>
      <trkpt lat="40.218233" lon="-4.859117">
        <ele>1443.0</ele>
        <time>2013-07-02T11:59:56Z</time>
      </trkpt>
      <trkpt lat="40.218167" lon="-4.859067">
        <ele>1442.0</ele>
        <time>2013-07-02T11:59:57Z</time>
      </trkpt>
      <trkpt lat="40.218100" lon="-4.859033">
        <ele>1442.0</ele>
        <time>2013-07-02T11:59:58Z</time>
      </trkpt>
      <trkpt lat="40.218050" lon="-4.858983">
        <ele>1442.0</ele>
        <time>2013-07-02T11:59:59Z</time>
      </trkpt>
      <trkpt lat="40.217983" lon="-4.858950">
        <ele>1441.0</ele>
        <time>2013-07-02T12:00:00Z</time>
      </trkpt>
      <trkpt lat="40.217917" lon="-4.858933">
        <ele>1440.0</ele>
        <time>2013-07-02T12:00:01Z</time>
      </trkpt>
      <trkpt lat="40.217850" lon="-4.858917">
        <ele>1439.0</ele>
        <time>2013-07-02T12:00:02Z</time>
      </trkpt>
      <trkpt lat="40.217767" lon="-4.858917">
        <ele>1439.0</ele>
        <time>2013-07-02T12:00:03Z</time>
      </trkpt>
      <trkpt lat="40.217683" lon="-4.858933">
        <ele>1441.0</ele>
        <time>2013-07-02T12:00:04Z</time>
      </trkpt>
      <trkpt lat="40.217617" lon="-4.858950">
        <ele>1442.0</ele>
        <time>2013-07-02T12:00:05Z</time>
      </trkpt>
      <trkpt lat="40.217550" lon="-4.858967">
        <ele>1443.0</ele>
        <time>2013-07-02T12:00:06Z</time>
      </trkpt>
      <trkpt lat="40.217500" lon="-4.858967">
        <ele>1444.0</ele>
        <time>2013-07-02T12:00:07Z</time>
      </trkpt>
      <trkpt lat="40.217450" lon="-4.858983">
        <ele>1444.0</ele>
        <time>2013-07-02T12:00:08Z</time>
      </trkpt>
      <trkpt lat="40.217383" lon="-4.859000">
        <ele>1444.0</ele>
        <time>2013-07-02T12:00:09Z</time>
      </trkpt>
      <trkpt lat="40.217333" lon="-4.859017">
        <ele>1443.0</ele>
        <time>2013-07-02T12:00:10Z</time>
      </trkpt>
      <trkpt lat="40.217267" lon="-4.859050">
        <ele>1443.0</ele>
        <time>2013-07-02T12:00:11Z</time>
      </trkpt>
      <trkpt lat="40.217200" lon="-4.859083">
        <ele>1442.0</ele>
        <time>2013-07-02T12:00:12Z</time>
      </trkpt>
      <trkpt lat="40.217133" lon="-4.859150">
        <ele>1441.0</ele>
        <time>2013-07-02T12:00:13Z</time>
      </trkpt>
      <trkpt lat="40.217083" lon="-4.859200">
        <ele>1440.0</ele>
        <time>2013-07-02T12:00:14Z</time>
      </trkpt>
      <trkpt lat="40.217017" lon="-4.859267">
        <ele>1440.0</ele>
        <time>2013-07-02T12:00:15Z</time>
      </trkpt>
      <trkpt lat="40.216967" lon="-4.859317">
        <ele>1441.0</ele>
        <time>2013-07-02T12:00:16Z</time>
      </trkpt>
      <trkpt lat="40.216917" lon="-4.859367">
        <ele>1441.0</ele>
        <time>2013-07-02T12:00:17Z</time>
      </trkpt>
      <trkpt lat="40.216867" lon="-4.859400">
        <ele>1442.0</ele>
        <time>2013-07-02T12:00:18Z</time>
      </trkpt>
      <trkpt lat="40.216817" lon="-4.859450">
        <ele>1443.0</ele>
        <time>2013-07-02T12:00:19Z</time>
      </trkpt>
      <trkpt lat="40.216767" lon="-4.859483">
        <ele>1444.0</ele>
        <time>2013-07-02T12:00:20Z</time>
      </trkpt>
      <trkpt lat="40.216717" lon="-4.859533">
        <ele>1444.0</ele>
        <time>2013-07-02T12:00:21Z</time>
      </trkpt>
      <trkpt lat="40.216683" lon="-4.859567">
        <ele>1444.0</ele>
        <time>2013-07-02T12:00:22Z</time>
      </trkpt>
      <trkpt lat="40.216633" lon="-4.859600">
        <ele>1444.0</ele>
        <time>2013-07-02T12:00:23Z</time>
      </trkpt>
      <trkpt lat="40.216583" lon="-4.859650">
        <ele>1444.0</ele>
        <time>2013-07-02T12:00:24Z</time>
      </trkpt>
      <trkpt lat="40.216533" lon="-4.859683">
        <ele>1443.0</ele>
        <time>2013-07-02T12:00:25Z</time>
      </trkpt>
      <trkpt lat="40.216483" lon="-4.859733">
        <ele>1443.0</ele>
        <time>2013-07-02T12:00:26Z</time>
      </trkpt>
      <trkpt lat="40.216433" lon="-4.859783">
        <ele>1443.0</ele>
        <time>2013-07-02T12:00:27Z</time>
      </trkpt>
      <trkpt lat="40.216367" lon="-4.859817">
        <ele>1443.0</ele>
        <time>2013-07-02T12:00:28Z</time>
      </trkpt>
      <trkpt lat="40.216317" lon="-4.859867">
        <ele>1444.0</ele>
        <time>2013-07-02T12:00:29Z</time>
      </trkpt>
      <trkpt lat="40.216267" lon="-4.859883">
        <ele>1445.0</ele>
        <time>2013-07-02T12:00:30Z</time>
      </trkpt>
      <trkpt lat="40.216217" lon="-4.859917">
        <ele>1445.0</ele>
        <time>2013-07-02T12:00:31Z</time>
      </trkpt>
      <trkpt lat="40.216167" lon="-4.859950">
        <ele>1444.0</ele>
        <time>2013-07-02T12:00:32Z</time>
      </trkpt>
      <trkpt lat="40.216117" lon="-4.860000">
        <ele>1444.0</ele>
        <time>2013-07-02T12:00:33Z</time>
      </trkpt>
      <trkpt lat="40.216050" lon="-4.860050">
        <ele>1444.0</ele>
        <time>2013-07-02T12:00:34Z</time>
      </trkpt>
      <trkpt lat="40.216017" lon="-4.860083">
        <ele>1445.0</ele>
        <time>2013-07-02T12:00:35Z</time>
      </trkpt>
      <trkpt lat="40.215967" lon="-4.860117">
        <ele>1447.0</ele>
        <time>2013-07-02T12:00:36Z</time>
      </trkpt>
      <trkpt lat="40.215933" lon="-4.860150">
        <ele>1448.0</ele>
        <time>2013-07-02T12:00:37Z</time>
      </trkpt>
      <trkpt lat="40.215900" lon="-4.860167">
        <ele>1449.0</ele>
        <time>2013-07-02T12:00:38Z</time>
      </trkpt>
      <trkpt lat="40.215867" lon="-4.860200">
        <ele>1449.0</ele>
        <time>2013-07-02T12:00:39Z</time>
      </trkpt>
      <trkpt lat="40.215833" lon="-4.860233">
        <ele>1449.0</ele>
        <time>2013-07-02T12:00:40Z</time>
      </trkpt>
      <trkpt lat="40.215800" lon="-4.860250">
        <ele>1448.0</ele>
        <time>2013-07-02T12:00:41Z</time>
      </trkpt>
      <trkpt lat="40.215783" lon="-4.860267">
        <ele>1447.0</ele>
        <time>2013-07-02T12:00:42Z</time>
      </trkpt>
      <trkpt lat="40.215733" lon="-4.860300">
        <ele>1444.0</ele>
        <time>2013-07-02T12:00:43Z</time>
      </trkpt>
      <trkpt lat="40.215683" lon="-4.860333">
        <ele>1442.0</ele>
        <time>2013-07-02T12:00:44Z</time>
      </trkpt>
      <trkpt lat="40.215617" lon="-4.860367">
        <ele>1441.0</ele>
        <time>2013-07-02T12:00:45Z</time>
      </trkpt>
      <trkpt lat="40.215550" lon="-4.860417">
        <ele>1440.0</ele>
        <time>2013-07-02T12:00:46Z</time>
      </trkpt>
      <trkpt lat="40.215483" lon="-4.860467">
        <ele>1442.0</ele>
        <time>2013-07-02T12:00:47Z</time>
      </trkpt>
      <trkpt lat="40.215433" lon="-4.860500">
        <ele>1444.0</ele>
        <time>2013-07-02T12:00:48Z</time>
      </trkpt>
      <trkpt lat="40.215383" lon="-4.860533">
        <ele>1446.0</ele>
        <time>2013-07-02T12:00:49Z</time>
      </trkpt>
      <trkpt lat="40.215350" lon="-4.860567">
        <ele>1446.0</ele>
        <time>2013-07-02T12:00:50Z</time>
      </trkpt>
      <trkpt lat="40.215300" lon="-4.860583">
        <ele>1448.0</ele>
        <time>2013-07-02T12:00:51Z</time>
      </trkpt>
      <trkpt lat="40.215267" lon="-4.860583">
        <ele>1448.0</ele>
        <time>2013-07-02T12:00:52Z</time>
      </trkpt>
      <trkpt lat="40.215233" lon="-4.860583">
        <ele>1447.0</ele>
        <time>2013-07-02T12:00:53Z</time>
      </trkpt>
      <trkpt lat="40.215183" lon="-4.860567">
        <ele>1445.0</ele>
        <time>2013-07-02T12:00:54Z</time>
      </trkpt>
      <trkpt lat="40.215117" lon="-4.860567">
        <ele>1443.0</ele>
        <time>2013-07-02T12:00:55Z</time>
      </trkpt>
      <trkpt lat="40.215050" lon="-4.860567">
        <ele>1441.0</ele>
        <time>2013-07-02T12:00:56Z</time>
      </trkpt>
      <trkpt lat="40.214950" lon="-4.860583">
        <ele>1439.0</ele>
        <time>2013-07-02T12:00:57Z</time>
      </trkpt>
      <trkpt lat="40.214867" lon="-4.860600">
        <ele>1439.0</ele>
        <time>2013-07-02T12:00:58Z</time>
      </trkpt>
      <trkpt lat="40.214800" lon="-4.860617">
        <ele>1440.0</ele>
        <time>2013-07-02T12:00:59Z</time>
      </trkpt>
      <trkpt lat="40.214733" lon="-4.860633">
        <ele>1441.0</ele>
        <time>2013-07-02T12:01:00Z</time>
      </trkpt>
      <trkpt lat="40.214667" lon="-4.860633">
        <ele>1443.0</ele>
        <time>2013-07-02T12:01:01Z</time>
      </trkpt>
      <trkpt lat="40.214600" lon="-4.860650">
        <ele>1443.0</ele>
        <time>2013-07-02T12:01:02Z</time>
      </trkpt>
      <trkpt lat="40.214533" lon="-4.860650">
        <ele>1442.0</ele>
        <time>2013-07-02T12:01:03Z</time>
      </trkpt>
      <trkpt lat="40.214450" lon="-4.860667">
        <ele>1441.0</ele>
        <time>2013-07-02T12:01:04Z</time>
      </trkpt>
      <trkpt lat="40.214383" lon="-4.860683">
        <ele>1442.0</ele>
        <time>2013-07-02T12:01:05Z</time>
      </trkpt>
      <trkpt lat="40.214317" lon="-4.860700">
        <ele>1442.0</ele>
        <time>2013-07-02T12:01:06Z</time>
      </trkpt>
      <trkpt lat="40.214250" lon="-4.860717">
        <ele>1443.0</ele>
        <time>2013-07-02T12:01:07Z</time>
      </trkpt>
      <trkpt lat="40.214200" lon="-4.860717">
        <ele>1444.0</ele>
        <time>2013-07-02T12:01:08Z</time>
      </trkpt>
      <trkpt lat="40.214133" lon="-4.860717">
        <ele>1444.0</ele>
        <time>2013-07-02T12:01:09Z</time>
      </trkpt>
      <trkpt lat="40.214067" lon="-4.860700">
        <ele>1444.0</ele>
        <time>2013-07-02T12:01:10Z</time>
      </trkpt>
      <trkpt lat="40.213983" lon="-4.860683">
        <ele>1443.0</ele>
        <time>2013-07-02T12:01:11Z</time>
      </trkpt>
      <trkpt lat="40.213917" lon="-4.860667">
        <ele>1443.0</ele>
        <time>2013-07-02T12:01:12Z</time>
      </trkpt>
      <trkpt lat="40.213850" lon="-4.860633">
        <ele>1442.0</ele>
        <time>2013-07-02T12:01:13Z</time>
      </trkpt>
      <trkpt lat="40.213783" lon="-4.860617">
        <ele>1442.0</ele>
        <time>2013-07-02T12:01:14Z</time>
      </trkpt>
      <trkpt lat="40.213717" lon="-4.860600">
        <ele>1441.0</ele>
        <time>2013-07-02T12:01:15Z</time>
      </trkpt>
      <trkpt lat="40.213650" lon="-4.860600">
        <ele>1440.0</ele>
        <time>2013-07-02T12:01:16Z</time>
      </trkpt>
      <trkpt lat="40.213600" lon="-4.860600">
        <ele>1438.0</ele>
        <time>2013-07-02T12:01:17Z</time>
      </trkpt>
      <trkpt lat="40.213533" lon="-4.860583">
        <ele>1436.0</ele>
        <time>2013-07-02T12:01:18Z</time>
      </trkpt>
      <trkpt lat="40.213467" lon="-4.860583">
        <ele>1433.0</ele>
        <time>2013-07-02T12:01:19Z</time>
      </trkpt>
      <trkpt lat="40.213383" lon="-4.860567">
        <ele>1430.0</ele>
        <time>2013-07-02T12:01:20Z</time>
      </trkpt>
      <trkpt lat="40.213283" lon="-4.860550">
        <ele>1428.0</ele>
        <time>2013-07-02T12:01:21Z</time>
      </trkpt>
      <trkpt lat="40.213167" lon="-4.860533">
        <ele>1428.0</ele>
        <time>2013-07-02T12:01:22Z</time>
      </trkpt>
      <trkpt lat="40.213083" lon="-4.860500">
        <ele>1429.0</ele>
        <time>2013-07-02T12:01:23Z</time>
      </trkpt>
      <trkpt lat="40.213017" lon="-4.860467">
        <ele>1430.0</ele>
        <time>2013-07-02T12:01:24Z</time>
      </trkpt>
      <trkpt lat="40.212950" lon="-4.860433">
        <ele>1432.0</ele>
        <time>2013-07-02T12:01:25Z</time>
      </trkpt>
      <trkpt lat="40.212883" lon="-4.860417">
        <ele>1435.0</ele>
        <time>2013-07-02T12:01:26Z</time>
      </trkpt>
      <trkpt lat="40.212850" lon="-4.860400">
        <ele>1439.0</ele>
        <time>2013-07-02T12:01:27Z</time>
      </trkpt>
      <trkpt lat="40.212800" lon="-4.860383">
        <ele>1441.0</ele>
        <time>2013-07-02T12:01:28Z</time>
      </trkpt>
      <trkpt lat="40.212767" lon="-4.860350">
        <ele>1443.0</ele>
        <time>2013-07-02T12:01:29Z</time>
      </trkpt>
      <trkpt lat="40.212717" lon="-4.860317">
        <ele>1445.0</ele>
        <time>2013-07-02T12:01:30Z</time>
      </trkpt>
      <trkpt lat="40.212667" lon="-4.860300">
        <ele>1446.0</ele>
        <time>2013-07-02T12:01:31Z</time>
      </trkpt>
      <trkpt lat="40.212617" lon="-4.860300">
        <ele>1449.0</ele>
        <time>2013-07-02T12:01:32Z</time>
      </trkpt>
      <trkpt lat="40.212567" lon="-4.860317">
        <ele>1451.0</ele>
        <time>2013-07-02T12:01:33Z</time>
      </trkpt>
      <trkpt lat="40.212533" lon="-4.860367">
        <ele>1453.0</ele>
        <time>2013-07-02T12:01:34Z</time>
      </trkpt>
      <trkpt lat="40.212550" lon="-4.860433">
        <ele>1456.0</ele>
        <time>2013-07-02T12:01:35Z</time>
      </trkpt>
      <trkpt lat="40.212600" lon="-4.860517">
        <ele>1458.0</ele>
        <time>2013-07-02T12:01:36Z</time>
      </trkpt>
      <trkpt lat="40.212683" lon="-4.860550">
        <ele>1460.0</ele>
        <time>2013-07-02T12:01:37Z</time>
      </trkpt>
      <trkpt lat="40.212783" lon="-4.860550">
        <ele>1463.0</ele>
        <time>2013-07-02T12:01:38Z</time>
      </trkpt>
      <trkpt lat="40.212867" lon="-4.860517">
        <ele>1466.0</ele>
        <time>2013-07-02T12:01:39Z</time>
      </trkpt>
      <trkpt lat="40.212933" lon="-4.860450">
        <ele>1469.0</ele>
        <time>2013-07-02T12:01:40Z</time>
      </trkpt>
      <trkpt lat="40.213000" lon="-4.860367">
        <ele>1471.0</ele>
        <time>2013-07-02T12:01:41Z</time>
      </trkpt>
      <trkpt lat="40.213067" lon="-4.860283">
        <ele>1473.0</ele>
        <time>2013-07-02T12:01:42Z</time>
      </trkpt>
      <trkpt lat="40.213133" lon="-4.860183">
        <ele>1475.0</ele>
        <time>2013-07-02T12:01:43Z</time>
      </trkpt>
      <trkpt lat="40.213200" lon="-4.860067">
        <ele>1478.0</ele>
        <time>2013-07-02T12:01:44Z</time>
      </trkpt>
      <trkpt lat="40.213217" lon="-4.859933">
        <ele>1481.0</ele>
        <time>2013-07-02T12:01:45Z</time>
      </trkpt>
      <trkpt lat="40.213217" lon="-4.859817">
        <ele>1483.0</ele>
        <time>2013-07-02T12:01:46Z</time>
      </trkpt>
      <trkpt lat="40.213200" lon="-4.859700">
        <ele>1486.0</ele>
        <time>2013-07-02T12:01:47Z</time>
      </trkpt>
      <trkpt lat="40.213183" lon="-4.859600">
        <ele>1489.0</ele>
        <time>2013-07-02T12:01:48Z</time>
      </trkpt>
      <trkpt lat="40.213150" lon="-4.859517">
        <ele>1492.0</ele>
        <time>2013-07-02T12:01:49Z</time>
      </trkpt>
      <trkpt lat="40.213117" lon="-4.859417">
        <ele>1495.0</ele>
        <time>2013-07-02T12:01:50Z</time>
      </trkpt>
      <trkpt lat="40.213067" lon="-4.859350">
        <ele>1497.0</ele>
        <time>2013-07-02T12:01:51Z</time>
      </trkpt>
      <trkpt lat="40.213017" lon="-4.859267">
        <ele>1499.0</ele>
        <time>2013-07-02T12:01:52Z</time>
      </trkpt>
      <trkpt lat="40.212983" lon="-4.859167">
        <ele>1501.0</ele>
        <time>2013-07-02T12:01:53Z</time>
      </trkpt>
      <trkpt lat="40.212950" lon="-4.859083">
        <ele>1504.0</ele>
        <time>2013-07-02T12:01:54Z</time>
      </trkpt>
      <trkpt lat="40.212900" lon="-4.859017">
        <ele>1507.0</ele>
        <time>2013-07-02T12:01:55Z</time>
      </trkpt>
      <trkpt lat="40.212833" lon="-4.859000">
        <ele>1509.0</ele>
        <time>2013-07-02T12:01:56Z</time>
      </trkpt>
      <trkpt lat="40.212767" lon="-4.859000">
        <ele>1511.0</ele>
        <time>2013-07-02T12:01:57Z</time>
      </trkpt>
      <trkpt lat="40.212733" lon="-4.859017">
        <ele>1514.0</ele>
        <time>2013-07-02T12:01:58Z</time>
      </trkpt>
      <trkpt lat="40.212700" lon="-4.859067">
        <ele>1518.0</ele>
        <time>2013-07-02T12:01:59Z</time>
      </trkpt>
      <trkpt lat="40.212683" lon="-4.859100">
        <ele>1522.0</ele>
        <time>2013-07-02T12:02:00Z</time>
      </trkpt>
      <trkpt lat="40.212700" lon="-4.859133">
        <ele>1525.0</ele>
        <time>2013-07-02T12:02:01Z</time>
      </trkpt>
      <trkpt lat="40.212717" lon="-4.859167">
        <ele>1529.0</ele>
        <time>2013-07-02T12:02:02Z</time>
      </trkpt>
      <trkpt lat="40.212733" lon="-4.859200">
        <ele>1532.0</ele>
        <time>2013-07-02T12:02:03Z</time>
      </trkpt>
      <trkpt lat="40.212767" lon="-4.859233">
        <ele>1535.0</ele>
        <time>2013-07-02T12:02:04Z</time>
      </trkpt>
      <trkpt lat="40.212817" lon="-4.859267">
        <ele>1538.0</ele>
        <time>2013-07-02T12:02:05Z</time>
      </trkpt>
      <trkpt lat="40.212883" lon="-4.859283">
        <ele>1542.0</ele>
        <time>2013-07-02T12:02:06Z</time>
      </trkpt>
      <trkpt lat="40.212967" lon="-4.859283">
        <ele>1545.0</ele>
        <time>2013-07-02T12:02:07Z</time>
      </trkpt>
      <trkpt lat="40.213050" lon="-4.859250">
        <ele>1549.0</ele>
        <time>2013-07-02T12:02:08Z</time>
      </trkpt>
      <trkpt lat="40.213133" lon="-4.859200">
        <ele>1553.0</ele>
        <time>2013-07-02T12:02:09Z</time>
      </trkpt>
      <trkpt lat="40.213200" lon="-4.859150">
        <ele>1557.0</ele>
        <time>2013-07-02T12:02:10Z</time>
      </trkpt>
      <trkpt lat="40.213267" lon="-4.859083">
        <ele>1560.0</ele>
        <time>2013-07-02T12:02:11Z</time>
      </trkpt>
      <trkpt lat="40.213317" lon="-4.859000">
        <ele>1563.0</ele>
        <time>2013-07-02T12:02:12Z</time>
      </trkpt>
      <trkpt lat="40.213383" lon="-4.858900">
        <ele>1564.0</ele>
        <time>2013-07-02T12:02:13Z</time>
      </trkpt>
      <trkpt lat="40.213450" lon="-4.858783">
        <ele>1566.0</ele>
        <time>2013-07-02T12:02:14Z</time>
      </trkpt>
      <trkpt lat="40.213467" lon="-4.858650">
        <ele>1569.0</ele>
        <time>2013-07-02T12:02:15Z</time>
      </trkpt>
      <trkpt lat="40.213467" lon="-4.858533">
        <ele>1572.0</ele>
        <time>2013-07-02T12:02:16Z</time>
      </trkpt>
      <trkpt lat="40.213417" lon="-4.858433">
        <ele>1574.0</ele>
        <time>2013-07-02T12:02:17Z</time>
      </trkpt>
      <trkpt lat="40.213367" lon="-4.858367">
        <ele>1578.0</ele>
        <time>2013-07-02T12:02:18Z</time>
      </trkpt>
      <trkpt lat="40.213317" lon="-4.858300">
        <ele>1581.0</ele>
        <time>2013-07-02T12:02:19Z</time>
      </trkpt>
      <trkpt lat="40.213267" lon="-4.858267">
        <ele>1585.0</ele>
        <time>2013-07-02T12:02:20Z</time>
      </trkpt>
      <trkpt lat="40.213217" lon="-4.858233">
        <ele>1588.0</ele>
        <time>2013-07-02T12:02:21Z</time>
      </trkpt>
      <trkpt lat="40.213150" lon="-4.858217">
        <ele>1591.0</ele>
        <time>2013-07-02T12:02:22Z</time>
      </trkpt>
      <trkpt lat="40.213100" lon="-4.858217">
        <ele>1595.0</ele>
        <time>2013-07-02T12:02:23Z</time>
      </trkpt>
      <trkpt lat="40.213050" lon="-4.858233">
        <ele>1598.0</ele>
        <time>2013-07-02T12:02:24Z</time>
      </trkpt>
      <trkpt lat="40.213033" lon="-4.858250">
        <ele>1602.0</ele>
        <time>2013-07-02T12:02:25Z</time>
      </trkpt>
      <trkpt lat="40.213000" lon="-4.858267">
        <ele>1605.0</ele>
        <time>2013-07-02T12:02:26Z</time>
      </trkpt>
      <trkpt lat="40.212967" lon="-4.858283">
        <ele>1608.0</ele>
        <time>2013-07-02T12:02:27Z</time>
      </trkpt>
      <trkpt lat="40.212950" lon="-4.858317">
        <ele>1611.0</ele>
        <time>2013-07-02T12:02:28Z</time>
      </trkpt>
      <trkpt lat="40.212933" lon="-4.858367">
        <ele>1614.0</ele>
        <time>2013-07-02T12:02:29Z</time>
      </trkpt>
      <trkpt lat="40.212950" lon="-4.858400">
        <ele>1617.0</ele>
        <time>2013-07-02T12:02:30Z</time>
      </trkpt>
      <trkpt lat="40.212983" lon="-4.858450">
        <ele>1621.0</ele>
        <time>2013-07-02T12:02:31Z</time>
      </trkpt>
      <trkpt lat="40.213050" lon="-4.858483">
        <ele>1624.0</ele>
        <time>2013-07-02T12:02:32Z</time>
      </trkpt>
      <trkpt lat="40.213117" lon="-4.858500">
        <ele>1628.0</ele>
        <time>2013-07-02T12:02:33Z</time>
      </trkpt>
      <trkpt lat="40.213183" lon="-4.858500">
        <ele>1632.0</ele>
        <time>2013-07-02T12:02:34Z</time>
      </trkpt>
      <trkpt lat="40.213250" lon="-4.858500">
        <ele>1635.0</ele>
        <time>2013-07-02T12:02:35Z</time>
      </trkpt>
      <trkpt lat="40.213317" lon="-4.858483">
        <ele>1637.0</ele>
        <time>2013-07-02T12:02:36Z</time>
      </trkpt>
      <trkpt lat="40.213417" lon="-4.858450">
        <ele>1639.0</ele>
        <time>2013-07-02T12:02:37Z</time>
      </trkpt>
      <trkpt lat="40.213517" lon="-4.858417">
        <ele>1641.0</ele>
        <time>2013-07-02T12:02:38Z</time>
      </trkpt>
      <trkpt lat="40.213583" lon="-4.858350">
        <ele>1643.0</ele>
        <time>2013-07-02T12:02:39Z</time>
      </trkpt>
      <trkpt lat="40.213633" lon="-4.858250">
        <ele>1645.0</ele>
        <time>2013-07-02T12:02:40Z</time>
      </trkpt>
      <trkpt lat="40.213667" lon="-4.858117">
        <ele>1646.0</ele>
        <time>2013-07-02T12:02:41Z</time>
      </trkpt>
      <trkpt lat="40.213700" lon="-4.857983">
        <ele>1647.0</ele>
        <time>2013-07-02T12:02:42Z</time>
      </trkpt>
      <trkpt lat="40.213717" lon="-4.857850">
        <ele>1650.0</ele>
        <time>2013-07-02T12:02:43Z</time>
      </trkpt>
      <trkpt lat="40.213733" lon="-4.857717">
        <ele>1654.0</ele>
        <time>2013-07-02T12:02:44Z</time>
      </trkpt>
      <trkpt lat="40.213733" lon="-4.857583">
        <ele>1657.0</ele>
        <time>2013-07-02T12:02:45Z</time>
      </trkpt>
      <trkpt lat="40.213733" lon="-4.857467">
        <ele>1660.0</ele>
        <time>2013-07-02T12:02:46Z</time>
      </trkpt>
      <trkpt lat="40.213717" lon="-4.857367">
        <ele>1664.0</ele>
        <time>2013-07-02T12:02:47Z</time>
      </trkpt>
      <trkpt lat="40.213683" lon="-4.857283">
        <ele>1666.0</ele>
        <time>2013-07-02T12:02:48Z</time>
      </trkpt>
      <trkpt lat="40.213633" lon="-4.857217">
        <ele>1668.0</ele>
        <time>2013-07-02T12:02:49Z</time>
      </trkpt>
      <trkpt lat="40.213567" lon="-4.857167">
        <ele>1669.0</ele>
        <time>2013-07-02T12:02:50Z</time>
      </trkpt>
      <trkpt lat="40.213483" lon="-4.857167">
        <ele>1671.0</ele>
        <time>2013-07-02T12:02:51Z</time>
      </trkpt>
      <trkpt lat="40.213433" lon="-4.857167">
        <ele>1674.0</ele>
        <time>2013-07-02T12:02:52Z</time>
      </trkpt>
      <trkpt lat="40.213383" lon="-4.857167">
        <ele>1677.0</ele>
        <time>2013-07-02T12:02:53Z</time>
      </trkpt>
      <trkpt lat="40.213333" lon="-4.857150">
        <ele>1681.0</ele>
        <time>2013-07-02T12:02:54Z</time>
      </trkpt>
      <trkpt lat="40.213283" lon="-4.857133">
        <ele>1683.0</ele>
        <time>2013-07-02T12:02:55Z</time>
      </trkpt>
      <trkpt lat="40.213233" lon="-4.857150">
        <ele>1686.0</ele>
        <time>2013-07-02T12:02:56Z</time>
      </trkpt>
      <trkpt lat="40.213183" lon="-4.857183">
        <ele>1689.0</ele>
        <time>2013-07-02T12:02:57Z</time>
      </trkpt>
      <trkpt lat="40.213167" lon="-4.857233">
        <ele>1692.0</ele>
        <time>2013-07-02T12:02:58Z</time>
      </trkpt>
      <trkpt lat="40.213150" lon="-4.857283">
        <ele>1696.0</ele>
        <time>2013-07-02T12:02:59Z</time>
      </trkpt>
      <trkpt lat="40.213133" lon="-4.857317">
        <ele>1699.0</ele>
        <time>2013-07-02T12:03:00Z</time>
      </trkpt>
      <trkpt lat="40.213117" lon="-4.857367">
        <ele>1702.0</ele>
        <time>2013-07-02T12:03:01Z</time>
      </trkpt>
      <trkpt lat="40.213117" lon="-4.857417">
        <ele>1704.0</ele>
        <time>2013-07-02T12:03:02Z</time>
      </trkpt>
      <trkpt lat="40.213133" lon="-4.857483">
        <ele>1707.0</ele>
        <time>2013-07-02T12:03:03Z</time>
      </trkpt>
      <trkpt lat="40.213133" lon="-4.857533">
        <ele>1710.0</ele>
        <time>2013-07-02T12:03:04Z</time>
      </trkpt>
      <trkpt lat="40.213167" lon="-4.857550">
        <ele>1714.0</ele>
        <time>2013-07-02T12:03:05Z</time>
      </trkpt>
      <trkpt lat="40.213200" lon="-4.857567">
        <ele>1717.0</ele>
        <time>2013-07-02T12:03:06Z</time>
      </trkpt>
      <trkpt lat="40.213250" lon="-4.857583">
        <ele>1720.0</ele>
        <time>2013-07-02T12:03:07Z</time>
      </trkpt>
      <trkpt lat="40.213317" lon="-4.857600">
        <ele>1723.0</ele>
        <time>2013-07-02T12:03:08Z</time>
      </trkpt>
      <trkpt lat="40.213383" lon="-4.857633">
        <ele>1726.0</ele>
        <time>2013-07-02T12:03:09Z</time>
      </trkpt>
      <trkpt lat="40.213450" lon="-4.857633">
        <ele>1731.0</ele>
        <time>2013-07-02T12:03:10Z</time>
      </trkpt>
      <trkpt lat="40.213500" lon="-4.857617">
        <ele>1735.0</ele>
        <time>2013-07-02T12:03:11Z</time>
      </trkpt>
      <trkpt lat="40.213583" lon="-4.857567">
        <ele>1738.0</ele>
        <time>2013-07-02T12:03:12Z</time>
      </trkpt>
      <trkpt lat="40.213667" lon="-4.857500">
        <ele>1740.0</ele>
        <time>2013-07-02T12:03:13Z</time>
      </trkpt>
      <trkpt lat="40.213733" lon="-4.857433">
        <ele>1742.0</ele>
        <time>2013-07-02T12:03:14Z</time>
      </trkpt>
      <trkpt lat="40.213817" lon="-4.857350">
        <ele>1745.0</ele>
        <time>2013-07-02T12:03:15Z</time>
      </trkpt>
      <trkpt lat="40.213867" lon="-4.857233">
        <ele>1746.0</ele>
        <time>2013-07-02T12:03:16Z</time>
      </trkpt>
      <trkpt lat="40.213900" lon="-4.857100">
        <ele>1747.0</ele>
        <time>2013-07-02T12:03:17Z</time>
      </trkpt>
      <trkpt lat="40.213917" lon="-4.856967">
        <ele>1748.0</ele>
        <time>2013-07-02T12:03:18Z</time>
      </trkpt>
      <trkpt lat="40.213933" lon="-4.856833">
        <ele>1749.0</ele>
        <time>2013-07-02T12:03:19Z</time>
      </trkpt>
      <trkpt lat="40.213933" lon="-4.856700">
        <ele>1751.0</ele>
        <time>2013-07-02T12:03:20Z</time>
      </trkpt>
      <trkpt lat="40.213917" lon="-4.856567">
        <ele>1754.0</ele>
        <time>2013-07-02T12:03:21Z</time>
      </trkpt>
      <trkpt lat="40.213883" lon="-4.856450">
        <ele>1756.0</ele>
        <time>2013-07-02T12:03:22Z</time>
      </trkpt>
      <trkpt lat="40.213850" lon="-4.856367">
        <ele>1758.0</ele>
        <time>2013-07-02T12:03:23Z</time>
      </trkpt>
      <trkpt lat="40.213800" lon="-4.856283">
        <ele>1760.0</ele>
        <time>2013-07-02T12:03:24Z</time>
      </trkpt>
      <trkpt lat="40.213750" lon="-4.856200">
        <ele>1761.0</ele>
        <time>2013-07-02T12:03:25Z</time>
      </trkpt>
      <trkpt lat="40.213683" lon="-4.856133">
        <ele>1763.0</ele>
        <time>2013-07-02T12:03:26Z</time>
      </trkpt>
      <trkpt lat="40.213633" lon="-4.856083">
        <ele>1766.0</ele>
        <time>2013-07-02T12:03:27Z</time>
      </trkpt>
      <trkpt lat="40.213583" lon="-4.856050">
        <ele>1769.0</ele>
        <time>2013-07-02T12:03:28Z</time>
      </trkpt>
      <trkpt lat="40.213533" lon="-4.855983">
        <ele>1773.0</ele>
        <time>2013-07-02T12:03:29Z</time>
      </trkpt>
      <trkpt lat="40.213500" lon="-4.855917">
        <ele>1776.0</ele>
        <time>2013-07-02T12:03:30Z</time>
      </trkpt>
      <trkpt lat="40.213450" lon="-4.855850">
        <ele>1778.0</ele>
        <time>2013-07-02T12:03:31Z</time>
      </trkpt>
      <trkpt lat="40.213400" lon="-4.855800">
        <ele>1781.0</ele>
        <time>2013-07-02T12:03:32Z</time>
      </trkpt>
      <trkpt lat="40.213333" lon="-4.855767">
        <ele>1783.0</ele>
        <time>2013-07-02T12:03:33Z</time>
      </trkpt>
      <trkpt lat="40.213267" lon="-4.855733">
        <ele>1786.0</ele>
        <time>2013-07-02T12:03:34Z</time>
      </trkpt>
      <trkpt lat="40.213217" lon="-4.855667">
        <ele>1789.0</ele>
        <time>2013-07-02T12:03:35Z</time>
      </trkpt>
      <trkpt lat="40.213150" lon="-4.855600">
        <ele>1792.0</ele>
        <time>2013-07-02T12:03:36Z</time>
      </trkpt>
      <trkpt lat="40.213100" lon="-4.855550">
        <ele>1794.0</ele>
        <time>2013-07-02T12:03:37Z</time>
      </trkpt>
      <trkpt lat="40.213017" lon="-4.855550">
        <ele>1796.0</ele>
        <time>2013-07-02T12:03:38Z</time>
      </trkpt>
      <trkpt lat="40.212967" lon="-4.855550">
        <ele>1799.0</ele>
        <time>2013-07-02T12:03:39Z</time>
      </trkpt>
      <trkpt lat="40.212900" lon="-4.855550">
        <ele>1802.0</ele>
        <time>2013-07-02T12:03:40Z</time>
      </trkpt>
      <trkpt lat="40.212867" lon="-4.855550">
        <ele>1805.0</ele>
        <time>2013-07-02T12:03:41Z</time>
      </trkpt>
      <trkpt lat="40.212850" lon="-4.855567">
        <ele>1807.0</ele>
        <time>2013-07-02T12:03:42Z</time>
      </trkpt>
      <trkpt lat="40.212833" lon="-4.855600">
        <ele>1808.0</ele>
        <time>2013-07-02T12:03:43Z</time>
      </trkpt>
      <trkpt lat="40.212817" lon="-4.855667">
        <ele>1810.0</ele>
        <time>2013-07-02T12:03:44Z</time>
      </trkpt>
      <trkpt lat="40.212817" lon="-4.855733">
        <ele>1812.0</ele>
        <time>2013-07-02T12:03:45Z</time>
      </trkpt>
      <trkpt lat="40.212833" lon="-4.855767">
        <ele>1815.0</ele>
        <time>2013-07-02T12:03:46Z</time>
      </trkpt>
      <trkpt lat="40.212850" lon="-4.855817">
        <ele>1818.0</ele>
        <time>2013-07-02T12:03:47Z</time>
      </trkpt>
      <trkpt lat="40.212883" lon="-4.855850">
        <ele>1820.0</ele>
        <time>2013-07-02T12:03:48Z</time>
      </trkpt>
      <trkpt lat="40.212917" lon="-4.855883">
        <ele>1822.0</ele>
        <time>2013-07-02T12:03:49Z</time>
      </trkpt>
      <trkpt lat="40.212967" lon="-4.855900">
        <ele>1823.0</ele>
        <time>2013-07-02T12:03:50Z</time>
      </trkpt>
      <trkpt lat="40.213033" lon="-4.855950">
        <ele>1823.0</ele>
        <time>2013-07-02T12:03:51Z</time>
      </trkpt>
      <trkpt lat="40.213117" lon="-4.856000">
        <ele>1824.0</ele>
        <time>2013-07-02T12:03:52Z</time>
      </trkpt>
      <trkpt lat="40.213183" lon="-4.856033">
        <ele>1826.0</ele>
        <time>2013-07-02T12:03:53Z</time>
      </trkpt>
      <trkpt lat="40.213267" lon="-4.856033">
        <ele>1828.0</ele>
        <time>2013-07-02T12:03:54Z</time>
      </trkpt>
      <trkpt lat="40.213350" lon="-4.856033">
        <ele>1832.0</ele>
        <time>2013-07-02T12:03:55Z</time>
      </trkpt>
      <trkpt lat="40.213433" lon="-4.856017">
        <ele>1837.0</ele>
        <time>2013-07-02T12:03:56Z</time>
      </trkpt>
      <trkpt lat="40.213483" lon="-4.856000">
        <ele>1841.0</ele>
        <time>2013-07-02T12:03:57Z</time>
      </trkpt>
      <trkpt lat="40.213550" lon="-4.855967">
        <ele>1844.0</ele>
        <time>2013-07-02T12:03:58Z</time>
      </trkpt>
      <trkpt lat="40.213617" lon="-4.855900">
        <ele>1846.0</ele>
        <time>2013-07-02T12:03:59Z</time>
      </trkpt>
      <trkpt lat="40.213700" lon="-4.855783">
        <ele>1847.0</ele>
        <time>2013-07-02T12:04:00Z</time>
      </trkpt>
      <trkpt lat="40.213750" lon="-4.855650">
        <ele>1850.0</ele>
        <time>2013-07-02T12:04:01Z</time>
      </trkpt>
      <trkpt lat="40.213783" lon="-4.855517">
        <ele>1854.0</ele>
        <time>2013-07-02T12:04:02Z</time>
      </trkpt>
      <trkpt lat="40.213800" lon="-4.855417">
        <ele>1857.0</ele>
        <time>2013-07-02T12:04:03Z</time>
      </trkpt>
      <trkpt lat="40.213783" lon="-4.855300">
        <ele>1859.0</ele>
        <time>2013-07-02T12:04:04Z</time>
      </trkpt>
      <trkpt lat="40.213783" lon="-4.855200">
        <ele>1860.0</ele>
        <time>2013-07-02T12:04:05Z</time>
      </trkpt>
      <trkpt lat="40.213767" lon="-4.855100">
        <ele>1859.0</ele>
        <time>2013-07-02T12:04:06Z</time>
      </trkpt>
      <trkpt lat="40.213750" lon="-4.854967">
        <ele>1859.0</ele>
        <time>2013-07-02T12:04:07Z</time>
      </trkpt>
      <trkpt lat="40.213717" lon="-4.854867">
        <ele>1859.0</ele>
        <time>2013-07-02T12:04:08Z</time>
      </trkpt>
      <trkpt lat="40.213667" lon="-4.854783">
        <ele>1859.0</ele>
        <time>2013-07-02T12:04:09Z</time>
      </trkpt>
      <trkpt lat="40.213600" lon="-4.854700">
        <ele>1859.0</ele>
        <time>2013-07-02T12:04:10Z</time>
      </trkpt>
      <trkpt lat="40.213550" lon="-4.854633">
        <ele>1860.0</ele>
        <time>2013-07-02T12:04:11Z</time>
      </trkpt>
      <trkpt lat="40.213483" lon="-4.854567">
        <ele>1860.0</ele>
        <time>2013-07-02T12:04:12Z</time>
      </trkpt>
      <trkpt lat="40.213417" lon="-4.854517">
        <ele>1860.0</ele>
        <time>2013-07-02T12:04:13Z</time>
      </trkpt>
      <trkpt lat="40.213333" lon="-4.854450">
        <ele>1860.0</ele>
        <time>2013-07-02T12:04:14Z</time>
      </trkpt>
      <trkpt lat="40.213250" lon="-4.854383">
        <ele>1861.0</ele>
        <time>2013-07-02T12:04:15Z</time>
      </trkpt>
      <trkpt lat="40.213183" lon="-4.854367">
        <ele>1863.0</ele>
        <time>2013-07-02T12:04:16Z</time>
      </trkpt>
      <trkpt lat="40.213100" lon="-4.854350">
        <ele>1864.0</ele>
        <time>2013-07-02T12:04:17Z</time>
      </trkpt>
      <trkpt lat="40.213033" lon="-4.854350">
        <ele>1866.0</ele>
        <time>2013-07-02T12:04:18Z</time>
      </trkpt>
      <trkpt lat="40.212983" lon="-4.854367">
        <ele>1868.0</ele>
        <time>2013-07-02T12:04:19Z</time>
      </trkpt>
      <trkpt lat="40.212950" lon="-4.854383">
        <ele>1869.0</ele>
        <time>2013-07-02T12:04:20Z</time>
      </trkpt>
      <trkpt lat="40.212900" lon="-4.854417">
        <ele>1870.0</ele>
        <time>2013-07-02T12:04:21Z</time>
      </trkpt>
      <trkpt lat="40.212883" lon="-4.854450">
        <ele>1870.0</ele>
        <time>2013-07-02T12:04:22Z</time>
      </trkpt>
      <trkpt lat="40.212867" lon="-4.854533">
        <ele>1871.0</ele>
        <time>2013-07-02T12:04:23Z</time>
      </trkpt>
      <trkpt lat="40.212883" lon="-4.854600">
        <ele>1871.0</ele>
        <time>2013-07-02T12:04:24Z</time>
      </trkpt>
      <trkpt lat="40.212900" lon="-4.854650">
        <ele>1873.0</ele>
        <time>2013-07-02T12:04:25Z</time>
      </trkpt>
      <trkpt lat="40.212917" lon="-4.854700">
        <ele>1875.0</ele>
        <time>2013-07-02T12:04:26Z</time>
      </trkpt>
      <trkpt lat="40.212933" lon="-4.854750">
        <ele>1876.0</ele>
        <time>2013-07-02T12:04:27Z</time>
      </trkpt>
      <trkpt lat="40.212950" lon="-4.854800">
        <ele>1876.0</ele>
        <time>2013-07-02T12:04:28Z</time>
      </trkpt>
      <trkpt lat="40.213000" lon="-4.854850">
        <ele>1875.0</ele>
        <time>2013-07-02T12:04:29Z</time>
      </trkpt>
      <trkpt lat="40.213083" lon="-4.854883">
        <ele>1874.0</ele>
        <time>2013-07-02T12:04:30Z</time>
      </trkpt>
      <trkpt lat="40.213150" lon="-4.854917">
        <ele>1874.0</ele>
        <time>2013-07-02T12:04:31Z</time>
      </trkpt>
      <trkpt lat="40.213233" lon="-4.854967">
        <ele>1875.0</ele>
        <time>2013-07-02T12:04:32Z</time>
      </trkpt>
      <trkpt lat="40.213317" lon="-4.855017">
        <ele>1875.0</ele>
        <time>2013-07-02T12:04:33Z</time>
      </trkpt>
      <trkpt lat="40.213400" lon="-4.855050">
        <ele>1876.0</ele>
        <time>2013-07-02T12:04:34Z</time>
      </trkpt>
      <trkpt lat="40.213483" lon="-4.855083">
        <ele>1876.0</ele>
        <time>2013-07-02T12:04:35Z</time>
      </trkpt>
      <trkpt lat="40.213567" lon="-4.855083">
        <ele>1876.0</ele>
        <time>2013-07-02T12:04:36Z</time>
      </trkpt>
      <trkpt lat="40.213667" lon="-4.855083">
        <ele>1877.0</ele>
        <time>2013-07-02T12:04:37Z</time>
      </trkpt>
      <trkpt lat="40.213767" lon="-4.855100">
        <ele>1878.0</ele>
        <time>2013-07-02T12:04:38Z</time>
      </trkpt>
      <trkpt lat="40.213867" lon="-4.855100">
        <ele>1880.0</ele>
        <time>2013-07-02T12:04:39Z</time>
      </trkpt>
      <trkpt lat="40.213967" lon="-4.855100">
        <ele>1881.0</ele>
        <time>2013-07-02T12:04:40Z</time>
      </trkpt>
      <trkpt lat="40.214067" lon="-4.855100">
        <ele>1882.0</ele>
        <time>2013-07-02T12:04:41Z</time>
      </trkpt>
      <trkpt lat="40.214150" lon="-4.855067">
        <ele>1883.0</ele>
        <time>2013-07-02T12:04:42Z</time>
      </trkpt>
      <trkpt lat="40.214233" lon="-4.855000">
        <ele>1883.0</ele>
        <time>2013-07-02T12:04:43Z</time>
      </trkpt>
      <trkpt lat="40.214300" lon="-4.854867">
        <ele>1883.0</ele>
        <time>2013-07-02T12:04:44Z</time>
      </trkpt>
      <trkpt lat="40.214333" lon="-4.854733">
        <ele>1884.0</ele>
        <time>2013-07-02T12:04:45Z</time>
      </trkpt>
      <trkpt lat="40.214350" lon="-4.854617">
        <ele>1886.0</ele>
        <time>2013-07-02T12:04:46Z</time>
      </trkpt>
      <trkpt lat="40.214350" lon="-4.854500">
        <ele>1888.0</ele>
        <time>2013-07-02T12:04:47Z</time>
      </trkpt>
      <trkpt lat="40.214333" lon="-4.854383">
        <ele>1891.0</ele>
        <time>2013-07-02T12:04:48Z</time>
      </trkpt>
      <trkpt lat="40.214333" lon="-4.854283">
        <ele>1893.0</ele>
        <time>2013-07-02T12:04:49Z</time>
      </trkpt>
      <trkpt lat="40.214317" lon="-4.854183">
        <ele>1895.0</ele>
        <time>2013-07-02T12:04:50Z</time>
      </trkpt>
      <trkpt lat="40.214300" lon="-4.854083">
        <ele>1896.0</ele>
        <time>2013-07-02T12:04:51Z</time>
      </trkpt>
      <trkpt lat="40.214250" lon="-4.854000">
        <ele>1896.0</ele>
        <time>2013-07-02T12:04:52Z</time>
      </trkpt>
      <trkpt lat="40.214183" lon="-4.853917">
        <ele>1897.0</ele>
        <time>2013-07-02T12:04:53Z</time>
      </trkpt>
      <trkpt lat="40.214117" lon="-4.853867">
        <ele>1898.0</ele>
        <time>2013-07-02T12:04:54Z</time>
      </trkpt>
      <trkpt lat="40.214033" lon="-4.853833">
        <ele>1899.0</ele>
        <time>2013-07-02T12:04:55Z</time>
      </trkpt>
      <trkpt lat="40.213967" lon="-4.853833">
        <ele>1899.0</ele>
        <time>2013-07-02T12:04:56Z</time>
      </trkpt>
      <trkpt lat="40.213883" lon="-4.853850">
        <ele>1899.0</ele>
        <time>2013-07-02T12:04:57Z</time>
      </trkpt>
      <trkpt lat="40.213817" lon="-4.853867">
        <ele>1899.0</ele>
        <time>2013-07-02T12:04:58Z</time>
      </trkpt>
      <trkpt lat="40.213750" lon="-4.853917">
        <ele>1900.0</ele>
        <time>2013-07-02T12:04:59Z</time>
      </trkpt>
      <trkpt lat="40.213717" lon="-4.853967">
        <ele>1901.0</ele>
        <time>2013-07-02T12:05:00Z</time>
      </trkpt>
      <trkpt lat="40.213683" lon="-4.854017">
        <ele>1903.0</ele>
        <time>2013-07-02T12:05:01Z</time>
      </trkpt>
      <trkpt lat="40.213683" lon="-4.854083">
        <ele>1904.0</ele>
        <time>2013-07-02T12:05:02Z</time>
      </trkpt>
      <trkpt lat="40.213667" lon="-4.854150">
        <ele>1905.0</ele>
        <time>2013-07-02T12:05:03Z</time>
      </trkpt>
      <trkpt lat="40.213667" lon="-4.854217">
        <ele>1906.0</ele>
        <time>2013-07-02T12:05:04Z</time>
      </trkpt>
      <trkpt lat="40.213667" lon="-4.854267">
        <ele>1905.0</ele>
        <time>2013-07-02T12:05:05Z</time>
      </trkpt>
      <trkpt lat="40.213683" lon="-4.854333">
        <ele>1905.0</ele>
        <time>2013-07-02T12:05:06Z</time>
      </trkpt>
      <trkpt lat="40.213717" lon="-4.854400">
        <ele>1904.0</ele>
        <time>2013-07-02T12:05:07Z</time>
      </trkpt>
      <trkpt lat="40.213767" lon="-4.854450">
        <ele>1903.0</ele>
        <time>2013-07-02T12:05:08Z</time>
      </trkpt>
      <trkpt lat="40.213833" lon="-4.854500">
        <ele>1902.0</ele>
        <time>2013-07-02T12:05:09Z</time>
      </trkpt>
      <trkpt lat="40.213900" lon="-4.854533">
        <ele>1901.0</ele>
        <time>2013-07-02T12:05:10Z</time>
      </trkpt>
      <trkpt lat="40.213983" lon="-4.854567">
        <ele>1899.0</ele>
        <time>2013-07-02T12:05:11Z</time>
      </trkpt>
      <trkpt lat="40.214067" lon="-4.854567">
        <ele>1898.0</ele>
        <time>2013-07-02T12:05:12Z</time>
      </trkpt>
      <trkpt lat="40.214150" lon="-4.854533">
        <ele>1898.0</ele>
        <time>2013-07-02T12:05:13Z</time>
      </trkpt>
      <trkpt lat="40.214233" lon="-4.854467">
        <ele>1898.0</ele>
        <time>2013-07-02T12:05:14Z</time>
      </trkpt>
      <trkpt lat="40.214317" lon="-4.854400">
        <ele>1898.0</ele>
        <time>2013-07-02T12:05:15Z</time>
      </trkpt>
      <trkpt lat="40.214400" lon="-4.854317">
        <ele>1899.0</ele>
        <time>2013-07-02T12:05:16Z</time>
      </trkpt>
      <trkpt lat="40.214483" lon="-4.854250">
        <ele>1898.0</ele>
        <time>2013-07-02T12:05:17Z</time>
      </trkpt>
      <trkpt lat="40.214567" lon="-4.854183">
        <ele>1897.0</ele>
        <time>2013-07-02T12:05:18Z</time>
      </trkpt>
      <trkpt lat="40.214650" lon="-4.854083">
        <ele>1897.0</ele>
        <time>2013-07-02T12:05:19Z</time>
      </trkpt>
      <trkpt lat="40.214717" lon="-4.853967">
        <ele>1897.0</ele>
        <time>2013-07-02T12:05:20Z</time>
      </trkpt>
      <trkpt lat="40.214767" lon="-4.853850">
        <ele>1897.0</ele>
        <time>2013-07-02T12:05:21Z</time>
      </trkpt>
      <trkpt lat="40.214800" lon="-4.853717">
        <ele>1897.0</ele>
        <time>2013-07-02T12:05:22Z</time>
      </trkpt>
      <trkpt lat="40.214817" lon="-4.853600">
        <ele>1898.0</ele>
        <time>2013-07-02T12:05:23Z</time>
      </trkpt>
      <trkpt lat="40.214817" lon="-4.853483">
        <ele>1898.0</ele>
        <time>2013-07-02T12:05:24Z</time>
      </trkpt>
      <trkpt lat="40.214817" lon="-4.853367">
        <ele>1898.0</ele>
        <time>2013-07-02T12:05:25Z</time>
      </trkpt>
      <trkpt lat="40.214800" lon="-4.853233">
        <ele>1898.0</ele>
        <time>2013-07-02T12:05:26Z</time>
      </trkpt>
      <trkpt lat="40.214750" lon="-4.853100">
        <ele>1899.0</ele>
        <time>2013-07-02T12:05:27Z</time>
      </trkpt>
      <trkpt lat="40.214700" lon="-4.852983">
        <ele>1901.0</ele>
        <time>2013-07-02T12:05:28Z</time>
      </trkpt>
      <trkpt lat="40.214650" lon="-4.852883">
        <ele>1903.0</ele>
        <time>2013-07-02T12:05:29Z</time>
      </trkpt>
      <trkpt lat="40.214600" lon="-4.852800">
        <ele>1904.0</ele>
        <time>2013-07-02T12:05:30Z</time>
      </trkpt>
      <trkpt lat="40.214567" lon="-4.852717">
        <ele>1905.0</ele>
        <time>2013-07-02T12:05:31Z</time>
      </trkpt>
      <trkpt lat="40.214517" lon="-4.852650">
        <ele>1905.0</ele>
        <time>2013-07-02T12:05:32Z</time>
      </trkpt>
      <trkpt lat="40.214450" lon="-4.852583">
        <ele>1905.0</ele>
        <time>2013-07-02T12:05:33Z</time>
      </trkpt>
      <trkpt lat="40.214367" lon="-4.852517">
        <ele>1905.0</ele>
        <time>2013-07-02T12:05:34Z</time>
      </trkpt>
      <trkpt lat="40.214300" lon="-4.852467">
        <ele>1906.0</ele>
        <time>2013-07-02T12:05:35Z</time>
      </trkpt>
      <trkpt lat="40.214217" lon="-4.852433">
        <ele>1908.0</ele>
        <time>2013-07-02T12:05:36Z</time>
      </trkpt>
      <trkpt lat="40.214167" lon="-4.852400">
        <ele>1909.0</ele>
        <time>2013-07-02T12:05:37Z</time>
      </trkpt>
      <trkpt lat="40.214117" lon="-4.852367">
        <ele>1910.0</ele>
        <time>2013-07-02T12:05:38Z</time>
      </trkpt>
      <trkpt lat="40.214067" lon="-4.852333">
        <ele>1911.0</ele>
        <time>2013-07-02T12:05:39Z</time>
      </trkpt>
      <trkpt lat="40.214000" lon="-4.852283">
        <ele>1911.0</ele>
        <time>2013-07-02T12:05:40Z</time>
      </trkpt>
      <trkpt lat="40.213933" lon="-4.852267">
        <ele>1911.0</ele>
        <time>2013-07-02T12:05:41Z</time>
      </trkpt>
      <trkpt lat="40.213867" lon="-4.852267">
        <ele>1911.0</ele>
        <time>2013-07-02T12:05:42Z</time>
      </trkpt>
      <trkpt lat="40.213800" lon="-4.852300">
        <ele>1911.0</ele>
        <time>2013-07-02T12:05:43Z</time>
      </trkpt>
      <trkpt lat="40.213750" lon="-4.852333">
        <ele>1911.0</ele>
        <time>2013-07-02T12:05:44Z</time>
      </trkpt>
      <trkpt lat="40.213700" lon="-4.852350">
        <ele>1911.0</ele>
        <time>2013-07-02T12:05:45Z</time>
      </trkpt>
      <trkpt lat="40.213650" lon="-4.852383">
        <ele>1910.0</ele>
        <time>2013-07-02T12:05:46Z</time>
      </trkpt>
      <trkpt lat="40.213600" lon="-4.852383">
        <ele>1909.0</ele>
        <time>2013-07-02T12:05:47Z</time>
      </trkpt>
      <trkpt lat="40.213567" lon="-4.852417">
        <ele>1908.0</ele>
        <time>2013-07-02T12:05:48Z</time>
      </trkpt>
      <trkpt lat="40.213533" lon="-4.852450">
        <ele>1906.0</ele>
        <time>2013-07-02T12:05:49Z</time>
      </trkpt>
      <trkpt lat="40.213500" lon="-4.852500">
        <ele>1904.0</ele>
        <time>2013-07-02T12:05:50Z</time>
      </trkpt>
      <trkpt lat="40.213500" lon="-4.852567">
        <ele>1903.0</ele>
        <time>2013-07-02T12:05:51Z</time>
      </trkpt>
      <trkpt lat="40.213500" lon="-4.852633">
        <ele>1902.0</ele>
        <time>2013-07-02T12:05:52Z</time>
      </trkpt>
      <trkpt lat="40.213517" lon="-4.852700">
        <ele>1900.0</ele>
        <time>2013-07-02T12:05:53Z</time>
      </trkpt>
      <trkpt lat="40.213550" lon="-4.852767">
        <ele>1897.0</ele>
        <time>2013-07-02T12:05:54Z</time>
      </trkpt>
      <trkpt lat="40.213617" lon="-4.852833">
        <ele>1894.0</ele>
        <time>2013-07-02T12:05:55Z</time>
      </trkpt>
      <trkpt lat="40.213700" lon="-4.852883">
        <ele>1891.0</ele>
        <time>2013-07-02T12:05:56Z</time>
      </trkpt>
      <trkpt lat="40.213783" lon="-4.852917">
        <ele>1888.0</ele>
        <time>2013-07-02T12:05:57Z</time>
      </trkpt>
      <trkpt lat="40.213900" lon="-4.852950">
        <ele>1885.0</ele>
        <time>2013-07-02T12:05:58Z</time>
      </trkpt>
      <trkpt lat="40.214000" lon="-4.852967">
        <ele>1882.0</ele>
        <time>2013-07-02T12:05:59Z</time>
      </trkpt>
      <trkpt lat="40.214100" lon="-4.853000">
        <ele>1879.0</ele>
        <time>2013-07-02T12:06:00Z</time>
      </trkpt>
      <trkpt lat="40.214200" lon="-4.853033">
        <ele>1876.0</ele>
        <time>2013-07-02T12:06:01Z</time>
      </trkpt>
      <trkpt lat="40.214317" lon="-4.853050">
        <ele>1873.0</ele>
        <time>2013-07-02T12:06:02Z</time>
      </trkpt>
      <trkpt lat="40.214417" lon="-4.853067">
        <ele>1870.0</ele>
        <time>2013-07-02T12:06:03Z</time>
      </trkpt>
      <trkpt lat="40.214533" lon="-4.853067">
        <ele>1868.0</ele>
        <time>2013-07-02T12:06:04Z</time>
      </trkpt>
      <trkpt lat="40.214633" lon="-4.853050">
        <ele>1867.0</ele>
        <time>2013-07-02T12:06:05Z</time>
      </trkpt>
      <trkpt lat="40.214733" lon="-4.853033">
        <ele>1864.0</ele>
        <time>2013-07-02T12:06:06Z</time>
      </trkpt>
      <trkpt lat="40.214833" lon="-4.853017">
        <ele>1861.0</ele>
        <time>2013-07-02T12:06:07Z</time>
      </trkpt>
      <trkpt lat="40.214950" lon="-4.853017">
        <ele>1858.0</ele>
        <time>2013-07-02T12:06:08Z</time>
      </trkpt>
      <trkpt lat="40.215067" lon="-4.853000">
        <ele>1856.0</ele>
        <time>2013-07-02T12:06:09Z</time>
      </trkpt>
      <trkpt lat="40.215167" lon="-4.852967">
        <ele>1854.0</ele>
        <time>2013-07-02T12:06:10Z</time>
      </trkpt>
      <trkpt lat="40.215267" lon="-4.852917">
        <ele>1852.0</ele>
        <time>2013-07-02T12:06:11Z</time>
      </trkpt>
      <trkpt lat="40.215367" lon="-4.852867">
        <ele>1850.0</ele>
        <time>2013-07-02T12:06:12Z</time>
      </trkpt>
      <trkpt lat="40.215467" lon="-4.852783">
        <ele>1849.0</ele>
        <time>2013-07-02T12:06:13Z</time>
      </trkpt>
      <trkpt lat="40.215567" lon="-4.852667">
        <ele>1846.0</ele>
        <time>2013-07-02T12:06:14Z</time>
      </trkpt>
      <trkpt lat="40.215633" lon="-4.852533">
        <ele>1844.0</ele>
        <time>2013-07-02T12:06:15Z</time>
      </trkpt>
      <trkpt lat="40.215700" lon="-4.852383">
        <ele>1843.0</ele>
        <time>2013-07-02T12:06:16Z</time>
      </trkpt>
      <trkpt lat="40.215750" lon="-4.852217">
        <ele>1842.0</ele>
        <time>2013-07-02T12:06:17Z</time>
      </trkpt>
      <trkpt lat="40.215800" lon="-4.852067">
        <ele>1842.0</ele>
        <time>2013-07-02T12:06:18Z</time>
      </trkpt>
      <trkpt lat="40.215833" lon="-4.851917">
        <ele>1842.0</ele>
        <time>2013-07-02T12:06:19Z</time>
      </trkpt>
      <trkpt lat="40.215867" lon="-4.851767">
        <ele>1842.0</ele>
        <time>2013-07-02T12:06:20Z</time>
      </trkpt>
      <trkpt lat="40.215867" lon="-4.851617">
        <ele>1841.0</ele>
        <time>2013-07-02T12:06:21Z</time>
      </trkpt>
      <trkpt lat="40.215867" lon="-4.851483">
        <ele>1841.0</ele>
        <time>2013-07-02T12:06:22Z</time>
      </trkpt>
      <trkpt lat="40.215833" lon="-4.851350">
        <ele>1841.0</ele>
        <time>2013-07-02T12:06:23Z</time>
      </trkpt>
      <trkpt lat="40.215800" lon="-4.851250">
        <ele>1840.0</ele>
        <time>2013-07-02T12:06:24Z</time>
      </trkpt>
      <trkpt lat="40.215750" lon="-4.851133">
        <ele>1840.0</ele>
        <time>2013-07-02T12:06:25Z</time>
      </trkpt>
      <trkpt lat="40.215700" lon="-4.851033">
        <ele>1840.0</ele>
        <time>2013-07-02T12:06:26Z</time>
      </trkpt>
      <trkpt lat="40.215633" lon="-4.850950">
        <ele>1839.0</ele>
        <time>2013-07-02T12:06:27Z</time>
      </trkpt>
      <trkpt lat="40.215550" lon="-4.850850">
        <ele>1839.0</ele>
        <time>2013-07-02T12:06:28Z</time>
      </trkpt>
      <trkpt lat="40.215483" lon="-4.850750">
        <ele>1839.0</ele>
        <time>2013-07-02T12:06:29Z</time>
      </trkpt>
      <trkpt lat="40.215417" lon="-4.850667">
        <ele>1839.0</ele>
        <time>2013-07-02T12:06:30Z</time>
      </trkpt>
      <trkpt lat="40.215333" lon="-4.850600">
        <ele>1839.0</ele>
        <time>2013-07-02T12:06:31Z</time>
      </trkpt>
      <trkpt lat="40.215267" lon="-4.850533">
        <ele>1839.0</ele>
        <time>2013-07-02T12:06:32Z</time>
      </trkpt>
      <trkpt lat="40.215183" lon="-4.850467">
        <ele>1839.0</ele>
        <time>2013-07-02T12:06:33Z</time>
      </trkpt>
      <trkpt lat="40.215117" lon="-4.850417">
        <ele>1839.0</ele>
        <time>2013-07-02T12:06:34Z</time>
      </trkpt>
      <trkpt lat="40.215050" lon="-4.850367">
        <ele>1839.0</ele>
        <time>2013-07-02T12:06:35Z</time>
      </trkpt>
      <trkpt lat="40.214983" lon="-4.850317">
        <ele>1838.0</ele>
        <time>2013-07-02T12:06:36Z</time>
      </trkpt>
      <trkpt lat="40.214917" lon="-4.850267">
        <ele>1837.0</ele>
        <time>2013-07-02T12:06:37Z</time>
      </trkpt>
      <trkpt lat="40.214850" lon="-4.850217">
        <ele>1836.0</ele>
        <time>2013-07-02T12:06:38Z</time>
      </trkpt>
      <trkpt lat="40.214783" lon="-4.850167">
        <ele>1834.0</ele>
        <time>2013-07-02T12:06:39Z</time>
      </trkpt>
      <trkpt lat="40.214717" lon="-4.850133">
        <ele>1834.0</ele>
        <time>2013-07-02T12:06:40Z</time>
      </trkpt>
      <trkpt lat="40.214650" lon="-4.850083">
        <ele>1834.0</ele>
        <time>2013-07-02T12:06:41Z</time>
      </trkpt>
      <trkpt lat="40.214583" lon="-4.850050">
        <ele>1833.0</ele>
        <time>2013-07-02T12:06:42Z</time>
      </trkpt>
      <trkpt lat="40.214517" lon="-4.850000">
        <ele>1832.0</ele>
        <time>2013-07-02T12:06:43Z</time>
      </trkpt>
      <trkpt lat="40.214467" lon="-4.849967">
        <ele>1831.0</ele>
        <time>2013-07-02T12:06:44Z</time>
      </trkpt>
      <trkpt lat="40.214383" lon="-4.849950">
        <ele>1830.0</ele>
        <time>2013-07-02T12:06:45Z</time>
      </trkpt>
      <trkpt lat="40.214317" lon="-4.849967">
        <ele>1828.0</ele>
        <time>2013-07-02T12:06:46Z</time>
      </trkpt>
      <trkpt lat="40.214233" lon="-4.849983">
        <ele>1826.0</ele>
        <time>2013-07-02T12:06:47Z</time>
      </trkpt>
      <trkpt lat="40.214167" lon="-4.850000">
        <ele>1825.0</ele>
        <time>2013-07-02T12:06:48Z</time>
      </trkpt>
      <trkpt lat="40.214100" lon="-4.850017">
        <ele>1823.0</ele>
        <time>2013-07-02T12:06:49Z</time>
      </trkpt>
      <trkpt lat="40.214017" lon="-4.850033">
        <ele>1822.0</ele>
        <time>2013-07-02T12:06:50Z</time>
      </trkpt>
      <trkpt lat="40.213950" lon="-4.850067">
        <ele>1820.0</ele>
        <time>2013-07-02T12:06:51Z</time>
      </trkpt>
      <trkpt lat="40.213883" lon="-4.850083">
        <ele>1818.0</ele>
        <time>2013-07-02T12:06:52Z</time>
      </trkpt>
      <trkpt lat="40.213817" lon="-4.850100">
        <ele>1816.0</ele>
        <time>2013-07-02T12:06:53Z</time>
      </trkpt>
      <trkpt lat="40.213750" lon="-4.850083">
        <ele>1812.0</ele>
        <time>2013-07-02T12:06:54Z</time>
      </trkpt>
      <trkpt lat="40.213667" lon="-4.850083">
        <ele>1809.0</ele>
        <time>2013-07-02T12:06:55Z</time>
      </trkpt>
      <trkpt lat="40.213583" lon="-4.850083">
        <ele>1806.0</ele>
        <time>2013-07-02T12:06:56Z</time>
      </trkpt>
      <trkpt lat="40.213500" lon="-4.850100">
        <ele>1804.0</ele>
        <time>2013-07-02T12:06:57Z</time>
      </trkpt>
      <trkpt lat="40.213417" lon="-4.850100">
        <ele>1803.0</ele>
        <time>2013-07-02T12:06:58Z</time>
      </trkpt>
      <trkpt lat="40.213350" lon="-4.850083">
        <ele>1802.0</ele>
        <time>2013-07-02T12:06:59Z</time>
      </trkpt>
      <trkpt lat="40.213283" lon="-4.850050">
        <ele>1801.0</ele>
        <time>2013-07-02T12:07:00Z</time>
      </trkpt>
      <trkpt lat="40.213217" lon="-4.850033">
        <ele>1800.0</ele>
        <time>2013-07-02T12:07:01Z</time>
      </trkpt>
      <trkpt lat="40.213150" lon="-4.850000">
        <ele>1798.0</ele>
        <time>2013-07-02T12:07:02Z</time>
      </trkpt>
      <trkpt lat="40.213067" lon="-4.850000">
        <ele>1796.0</ele>
        <time>2013-07-02T12:07:03Z</time>
      </trkpt>
      <trkpt lat="40.213000" lon="-4.850000">
        <ele>1794.0</ele>
        <time>2013-07-02T12:07:04Z</time>
      </trkpt>
      <trkpt lat="40.212933" lon="-4.849983">
        <ele>1793.0</ele>
        <time>2013-07-02T12:07:05Z</time>
      </trkpt>
      <trkpt lat="40.212867" lon="-4.849967">
        <ele>1791.0</ele>
        <time>2013-07-02T12:07:06Z</time>
      </trkpt>
      <trkpt lat="40.212783" lon="-4.849950">
        <ele>1788.0</ele>
        <time>2013-07-02T12:07:07Z</time>
      </trkpt>
      <trkpt lat="40.212700" lon="-4.849950">
        <ele>1784.0</ele>
        <time>2013-07-02T12:07:08Z</time>
      </trkpt>
      <trkpt lat="40.212617" lon="-4.849933">
        <ele>1780.0</ele>
        <time>2013-07-02T12:07:09Z</time>
      </trkpt>
      <trkpt lat="40.212533" lon="-4.849933">
        <ele>1777.0</ele>
        <time>2013-07-02T12:07:10Z</time>
      </trkpt>
      <trkpt lat="40.212450" lon="-4.849950">
        <ele>1774.0</ele>
        <time>2013-07-02T12:07:11Z</time>
      </trkpt>
      <trkpt lat="40.212383" lon="-4.849967">
        <ele>1770.0</ele>
        <time>2013-07-02T12:07:12Z</time>
      </trkpt>
      <trkpt lat="40.212317" lon="-4.849983">
        <ele>1766.0</ele>
        <time>2013-07-02T12:07:13Z</time>
      </trkpt>
      <trkpt lat="40.212233" lon="-4.849983">
        <ele>1760.0</ele>
        <time>2013-07-02T12:07:14Z</time>
      </trkpt>
      <trkpt lat="40.212133" lon="-4.849983">
        <ele>1755.0</ele>
        <time>2013-07-02T12:07:15Z</time>
      </trkpt>
      <trkpt lat="40.212033" lon="-4.850000">
        <ele>1750.0</ele>
        <time>2013-07-02T12:07:16Z</time>
      </trkpt>
      <trkpt lat="40.211950" lon="-4.850000">
        <ele>1748.0</ele>
        <time>2013-07-02T12:07:17Z</time>
      </trkpt>
      <trkpt lat="40.211883" lon="-4.850000">
        <ele>1745.0</ele>
        <time>2013-07-02T12:07:18Z</time>
      </trkpt>
      <trkpt lat="40.211817" lon="-4.850000">
        <ele>1742.0</ele>
        <time>2013-07-02T12:07:19Z</time>
      </trkpt>
      <trkpt lat="40.211750" lon="-4.850000">
        <ele>1737.0</ele>
        <time>2013-07-02T12:07:20Z</time>
      </trkpt>
      <trkpt lat="40.211667" lon="-4.850000">
        <ele>1732.0</ele>
        <time>2013-07-02T12:07:21Z</time>
      </trkpt>
      <trkpt lat="40.211583" lon="-4.850017">
        <ele>1727.0</ele>
        <time>2013-07-02T12:07:22Z</time>
      </trkpt>
      <trkpt lat="40.211500" lon="-4.850033">
        <ele>1723.0</ele>
        <time>2013-07-02T12:07:23Z</time>
      </trkpt>
      <trkpt lat="40.211433" lon="-4.850050">
        <ele>1720.0</ele>
        <time>2013-07-02T12:07:24Z</time>
      </trkpt>
      <trkpt lat="40.211367" lon="-4.850050">
        <ele>1717.0</ele>
        <time>2013-07-02T12:07:25Z</time>
      </trkpt>
      <trkpt lat="40.211283" lon="-4.850033">
        <ele>1713.0</ele>
        <time>2013-07-02T12:07:26Z</time>
      </trkpt>
      <trkpt lat="40.211217" lon="-4.850017">
        <ele>1709.0</ele>
        <time>2013-07-02T12:07:27Z</time>
      </trkpt>
      <trkpt lat="40.211150" lon="-4.850017">
        <ele>1704.0</ele>
        <time>2013-07-02T12:07:28Z</time>
      </trkpt>
      <trkpt lat="40.211067" lon="-4.850017">
        <ele>1700.0</ele>
        <time>2013-07-02T12:07:29Z</time>
      </trkpt>
      <trkpt lat="40.210983" lon="-4.850033">
        <ele>1696.0</ele>
        <time>2013-07-02T12:07:30Z</time>
      </trkpt>
      <trkpt lat="40.210917" lon="-4.850033">
        <ele>1693.0</ele>
        <time>2013-07-02T12:07:31Z</time>
      </trkpt>
      <trkpt lat="40.210833" lon="-4.850033">
        <ele>1690.0</ele>
        <time>2013-07-02T12:07:32Z</time>
      </trkpt>
      <trkpt lat="40.210750" lon="-4.850033">
        <ele>1688.0</ele>
        <time>2013-07-02T12:07:33Z</time>
      </trkpt>
      <trkpt lat="40.210683" lon="-4.850033">
        <ele>1685.0</ele>
        <time>2013-07-02T12:07:34Z</time>
      </trkpt>
      <trkpt lat="40.210617" lon="-4.850017">
        <ele>1682.0</ele>
        <time>2013-07-02T12:07:35Z</time>
      </trkpt>
      <trkpt lat="40.210533" lon="-4.850000">
        <ele>1679.0</ele>
        <time>2013-07-02T12:07:36Z</time>
      </trkpt>
      <trkpt lat="40.210467" lon="-4.850017">
        <ele>1676.0</ele>
        <time>2013-07-02T12:07:37Z</time>
      </trkpt>
      <trkpt lat="40.210400" lon="-4.850050">
        <ele>1673.0</ele>
        <time>2013-07-02T12:07:38Z</time>
      </trkpt>
      <trkpt lat="40.210333" lon="-4.850083">
        <ele>1671.0</ele>
        <time>2013-07-02T12:07:39Z</time>
      </trkpt>
      <trkpt lat="40.210283" lon="-4.850100">
        <ele>1670.0</ele>
        <time>2013-07-02T12:07:40Z</time>
      </trkpt>
      <trkpt lat="40.210233" lon="-4.850117">
        <ele>1668.0</ele>
        <time>2013-07-02T12:07:41Z</time>
      </trkpt>
      <trkpt lat="40.210183" lon="-4.850133">
        <ele>1665.0</ele>
        <time>2013-07-02T12:07:42Z</time>
      </trkpt>
      <trkpt lat="40.210133" lon="-4.850167">
        <ele>1661.0</ele>
        <time>2013-07-02T12:07:43Z</time>
      </trkpt>
      <trkpt lat="40.210083" lon="-4.850200">
        <ele>1657.0</ele>
        <time>2013-07-02T12:07:44Z</time>
      </trkpt>
      <trkpt lat="40.210033" lon="-4.850250">
        <ele>1654.0</ele>
        <time>2013-07-02T12:07:45Z</time>
      </trkpt>
      <trkpt lat="40.209983" lon="-4.850283">
        <ele>1652.0</ele>
        <time>2013-07-02T12:07:46Z</time>
      </trkpt>
      <trkpt lat="40.209917" lon="-4.850317">
        <ele>1650.0</ele>
        <time>2013-07-02T12:07:47Z</time>
      </trkpt>
      <trkpt lat="40.209883" lon="-4.850350">
        <ele>1649.0</ele>
        <time>2013-07-02T12:07:48Z</time>
      </trkpt>
      <trkpt lat="40.209833" lon="-4.850383">
        <ele>1647.0</ele>
        <time>2013-07-02T12:07:49Z</time>
      </trkpt>
      <trkpt lat="40.209783" lon="-4.850417">
        <ele>1645.0</ele>
        <time>2013-07-02T12:07:50Z</time>
      </trkpt>
      <trkpt lat="40.209750" lon="-4.850450">
        <ele>1642.0</ele>
        <time>2013-07-02T12:07:51Z</time>
      </trkpt>
      <trkpt lat="40.209700" lon="-4.850483">
        <ele>1640.0</ele>
        <time>2013-07-02T12:07:52Z</time>
      </trkpt>
      <trkpt lat="40.209633" lon="-4.850533">
        <ele>1637.0</ele>
        <time>2013-07-02T12:07:53Z</time>
      </trkpt>
      <trkpt lat="40.209583" lon="-4.850567">
        <ele>1636.0</ele>
        <time>2013-07-02T12:07:54Z</time>
      </trkpt>
      <trkpt lat="40.209533" lon="-4.850583">
        <ele>1634.0</ele>
        <time>2013-07-02T12:07:55Z</time>
      </trkpt>
      <trkpt lat="40.209467" lon="-4.850617">
        <ele>1632.0</ele>
        <time>2013-07-02T12:07:56Z</time>
      </trkpt>
      <trkpt lat="40.209417" lon="-4.850633">
        <ele>1630.0</ele>
        <time>2013-07-02T12:07:57Z</time>
      </trkpt>
      <trkpt lat="40.209367" lon="-4.850650">
        <ele>1629.0</ele>
        <time>2013-07-02T12:07:58Z</time>
      </trkpt>
      <trkpt lat="40.209317" lon="-4.850683">
        <ele>1627.0</ele>
        <time>2013-07-02T12:07:59Z</time>
      </trkpt>
      <trkpt lat="40.209250" lon="-4.850700">
        <ele>1625.0</ele>
        <time>2013-07-02T12:08:00Z</time>
      </trkpt>
      <trkpt lat="40.209200" lon="-4.850700">
        <ele>1622.0</ele>
        <time>2013-07-02T12:08:01Z</time>
      </trkpt>
      <trkpt lat="40.209133" lon="-4.850717">
        <ele>1619.0</ele>
        <time>2013-07-02T12:08:02Z</time>
      </trkpt>
      <trkpt lat="40.209067" lon="-4.850750">
        <ele>1616.0</ele>
        <time>2013-07-02T12:08:03Z</time>
      </trkpt>
      <trkpt lat="40.209017" lon="-4.850800">
        <ele>1614.0</ele>
        <time>2013-07-02T12:08:04Z</time>
      </trkpt>
      <trkpt lat="40.208950" lon="-4.850833">
        <ele>1613.0</ele>
        <time>2013-07-02T12:08:05Z</time>
      </trkpt>
      <trkpt lat="40.208900" lon="-4.850833">
        <ele>1612.0</ele>
        <time>2013-07-02T12:08:06Z</time>
      </trkpt>
      <trkpt lat="40.208850" lon="-4.850833">
        <ele>1610.0</ele>
        <time>2013-07-02T12:08:07Z</time>
      </trkpt>
      <trkpt lat="40.208783" lon="-4.850833">
        <ele>1607.0</ele>
        <time>2013-07-02T12:08:08Z</time>
      </trkpt>
      <trkpt lat="40.208717" lon="-4.850850">
        <ele>1603.0</ele>
        <time>2013-07-02T12:08:09Z</time>
      </trkpt>
      <trkpt lat="40.208650" lon="-4.850867">
        <ele>1600.0</ele>
        <time>2013-07-02T12:08:10Z</time>
      </trkpt>
      <trkpt lat="40.208583" lon="-4.850900">
        <ele>1598.0</ele>
        <time>2013-07-02T12:08:11Z</time>
      </trkpt>
      <trkpt lat="40.208517" lon="-4.850900">
        <ele>1597.0</ele>
        <time>2013-07-02T12:08:12Z</time>
      </trkpt>
      <trkpt lat="40.208467" lon="-4.850900">
        <ele>1596.0</ele>
        <time>2013-07-02T12:08:13Z</time>
      </trkpt>
      <trkpt lat="40.208400" lon="-4.850900">
        <ele>1594.0</ele>
        <time>2013-07-02T12:08:14Z</time>
      </trkpt>
      <trkpt lat="40.208350" lon="-4.850900">
        <ele>1591.0</ele>
        <time>2013-07-02T12:08:15Z</time>
      </trkpt>
      <trkpt lat="40.208283" lon="-4.850917">
        <ele>1587.0</ele>
        <time>2013-07-02T12:08:16Z</time>
      </trkpt>
      <trkpt lat="40.208200" lon="-4.850950">
        <ele>1584.0</ele>
        <time>2013-07-02T12:08:17Z</time>
      </trkpt>
      <trkpt lat="40.208150" lon="-4.850983">
        <ele>1582.0</ele>
        <time>2013-07-02T12:08:18Z</time>
      </trkpt>
      <trkpt lat="40.208083" lon="-4.851033">
        <ele>1580.0</ele>
        <time>2013-07-02T12:08:19Z</time>
      </trkpt>
      <trkpt lat="40.208033" lon="-4.851067">
        <ele>1578.0</ele>
        <time>2013-07-02T12:08:20Z</time>
      </trkpt>
      <trkpt lat="40.207967" lon="-4.851083">
        <ele>1576.0</ele>
        <time>2013-07-02T12:08:21Z</time>
      </trkpt>
      <trkpt lat="40.207917" lon="-4.851100">
        <ele>1574.0</ele>
        <time>2013-07-02T12:08:22Z</time>
      </trkpt>
      <trkpt lat="40.207850" lon="-4.851133">
        <ele>1570.0</ele>
        <time>2013-07-02T12:08:23Z</time>
      </trkpt>
      <trkpt lat="40.207783" lon="-4.851167">
        <ele>1567.0</ele>
        <time>2013-07-02T12:08:24Z</time>
      </trkpt>
      <trkpt lat="40.207700" lon="-4.851183">
        <ele>1565.0</ele>
        <time>2013-07-02T12:08:25Z</time>
      </trkpt>
      <trkpt lat="40.207633" lon="-4.851200">
        <ele>1563.0</ele>
        <time>2013-07-02T12:08:26Z</time>
      </trkpt>
      <trkpt lat="40.207550" lon="-4.851200">
        <ele>1560.0</ele>
        <time>2013-07-02T12:08:27Z</time>
      </trkpt>
      <trkpt lat="40.207483" lon="-4.851200">
        <ele>1558.0</ele>
        <time>2013-07-02T12:08:28Z</time>
      </trkpt>
      <trkpt lat="40.207417" lon="-4.851200">
        <ele>1555.0</ele>
        <time>2013-07-02T12:08:29Z</time>
      </trkpt>
      <trkpt lat="40.207350" lon="-4.851200">
        <ele>1552.0</ele>
        <time>2013-07-02T12:08:30Z</time>
      </trkpt>
      <trkpt lat="40.207267" lon="-4.851200">
        <ele>1549.0</ele>
        <time>2013-07-02T12:08:31Z</time>
      </trkpt>
      <trkpt lat="40.207183" lon="-4.851200">
        <ele>1546.0</ele>
        <time>2013-07-02T12:08:32Z</time>
      </trkpt>
      <trkpt lat="40.207100" lon="-4.851183">
        <ele>1545.0</ele>
        <time>2013-07-02T12:08:33Z</time>
      </trkpt>
      <trkpt lat="40.207033" lon="-4.851167">
        <ele>1544.0</ele>
        <time>2013-07-02T12:08:34Z</time>
      </trkpt>
      <trkpt lat="40.206983" lon="-4.851150">
        <ele>1543.0</ele>
        <time>2013-07-02T12:08:35Z</time>
      </trkpt>
      <trkpt lat="40.206933" lon="-4.851150">
        <ele>1541.0</ele>
        <time>2013-07-02T12:08:36Z</time>
      </trkpt>
      <trkpt lat="40.206867" lon="-4.851133">
        <ele>1536.0</ele>
        <time>2013-07-02T12:08:37Z</time>
      </trkpt>
      <trkpt lat="40.206800" lon="-4.851117">
        <ele>1532.0</ele>
        <time>2013-07-02T12:08:38Z</time>
      </trkpt>
      <trkpt lat="40.206717" lon="-4.851117">
        <ele>1530.0</ele>
        <time>2013-07-02T12:08:39Z</time>
      </trkpt>
      <trkpt lat="40.206650" lon="-4.851100">
        <ele>1529.0</ele>
        <time>2013-07-02T12:08:40Z</time>
      </trkpt>
      <trkpt lat="40.206583" lon="-4.851083">
        <ele>1528.0</ele>
        <time>2013-07-02T12:08:41Z</time>
      </trkpt>
      <trkpt lat="40.206533" lon="-4.851067">
        <ele>1527.0</ele>
        <time>2013-07-02T12:08:42Z</time>
      </trkpt>
      <trkpt lat="40.206483" lon="-4.851050">
        <ele>1524.0</ele>
        <time>2013-07-02T12:08:43Z</time>
      </trkpt>
      <trkpt lat="40.206417" lon="-4.851050">
        <ele>1520.0</ele>
        <time>2013-07-02T12:08:44Z</time>
      </trkpt>
      <trkpt lat="40.206333" lon="-4.851067">
        <ele>1517.0</ele>
        <time>2013-07-02T12:08:45Z</time>
      </trkpt>
      <trkpt lat="40.206267" lon="-4.851083">
        <ele>1515.0</ele>
        <time>2013-07-02T12:08:46Z</time>
      </trkpt>
      <trkpt lat="40.206200" lon="-4.851100">
        <ele>1514.0</ele>
        <time>2013-07-02T12:08:47Z</time>
      </trkpt>
      <trkpt lat="40.206133" lon="-4.851100">
        <ele>1513.0</ele>
        <time>2013-07-02T12:08:48Z</time>
      </trkpt>
      <trkpt lat="40.206083" lon="-4.851100">
        <ele>1512.0</ele>
        <time>2013-07-02T12:08:49Z</time>
      </trkpt>
      <trkpt lat="40.206017" lon="-4.851100">
        <ele>1509.0</ele>
        <time>2013-07-02T12:08:50Z</time>
      </trkpt>
      <trkpt lat="40.205967" lon="-4.851117">
        <ele>1507.0</ele>
        <time>2013-07-02T12:08:51Z</time>
      </trkpt>
      <trkpt lat="40.205900" lon="-4.851133">
        <ele>1505.0</ele>
        <time>2013-07-02T12:08:52Z</time>
      </trkpt>
      <trkpt lat="40.205833" lon="-4.851150">
        <ele>1503.0</ele>
        <time>2013-07-02T12:08:53Z</time>
      </trkpt>
      <trkpt lat="40.205783" lon="-4.851167">
        <ele>1503.0</ele>
        <time>2013-07-02T12:08:54Z</time>
      </trkpt>
      <trkpt lat="40.205717" lon="-4.851167">
        <ele>1502.0</ele>
        <time>2013-07-02T12:08:55Z</time>
      </trkpt>
      <trkpt lat="40.205667" lon="-4.851183">
        <ele>1501.0</ele>
        <time>2013-07-02T12:08:56Z</time>
      </trkpt>
      <trkpt lat="40.205600" lon="-4.851183">
        <ele>1500.0</ele>
        <time>2013-07-02T12:08:57Z</time>
      </trkpt>
      <trkpt lat="40.205533" lon="-4.851183">
        <ele>1498.0</ele>
        <time>2013-07-02T12:08:58Z</time>
      </trkpt>
      <trkpt lat="40.205467" lon="-4.851200">
        <ele>1496.0</ele>
        <time>2013-07-02T12:08:59Z</time>
      </trkpt>
      <trkpt lat="40.205400" lon="-4.851217">
        <ele>1495.0</ele>
        <time>2013-07-02T12:09:00Z</time>
      </trkpt>
      <trkpt lat="40.205350" lon="-4.851233">
        <ele>1494.0</ele>
        <time>2013-07-02T12:09:01Z</time>
      </trkpt>
      <trkpt lat="40.205283" lon="-4.851250">
        <ele>1493.0</ele>
        <time>2013-07-02T12:09:02Z</time>
      </trkpt>
      <trkpt lat="40.205217" lon="-4.851250">
        <ele>1492.0</ele>
        <time>2013-07-02T12:09:03Z</time>
      </trkpt>
      <trkpt lat="40.205150" lon="-4.851267">
        <ele>1492.0</ele>
        <time>2013-07-02T12:09:04Z</time>
      </trkpt>
      <trkpt lat="40.205100" lon="-4.851283">
        <ele>1491.0</ele>
        <time>2013-07-02T12:09:05Z</time>
      </trkpt>
      <trkpt lat="40.205050" lon="-4.851283">
        <ele>1489.0</ele>
        <time>2013-07-02T12:09:06Z</time>
      </trkpt>
      <trkpt lat="40.205000" lon="-4.851300">
        <ele>1488.0</ele>
        <time>2013-07-02T12:09:07Z</time>
      </trkpt>
      <trkpt lat="40.204933" lon="-4.851317">
        <ele>1486.0</ele>
        <time>2013-07-02T12:09:08Z</time>
      </trkpt>
      <trkpt lat="40.204867" lon="-4.851317">
        <ele>1484.0</ele>
        <time>2013-07-02T12:09:09Z</time>
      </trkpt>
      <trkpt lat="40.204800" lon="-4.851317">
        <ele>1483.0</ele>
        <time>2013-07-02T12:09:10Z</time>
      </trkpt>
      <trkpt lat="40.204750" lon="-4.851317">
        <ele>1482.0</ele>
        <time>2013-07-02T12:09:11Z</time>
      </trkpt>
      <trkpt lat="40.204683" lon="-4.851300">
        <ele>1481.0</ele>
        <time>2013-07-02T12:09:12Z</time>
      </trkpt>
      <trkpt lat="40.204617" lon="-4.851283">
        <ele>1479.0</ele>
        <time>2013-07-02T12:09:13Z</time>
      </trkpt>
      <trkpt lat="40.204550" lon="-4.851283">
        <ele>1476.0</ele>
        <time>2013-07-02T12:09:14Z</time>
      </trkpt>
      <trkpt lat="40.204483" lon="-4.851283">
        <ele>1474.0</ele>
        <time>2013-07-02T12:09:15Z</time>
      </trkpt>
      <trkpt lat="40.204417" lon="-4.851283">
        <ele>1472.0</ele>
        <time>2013-07-02T12:09:16Z</time>
      </trkpt>
      <trkpt lat="40.204350" lon="-4.851300">
        <ele>1471.0</ele>
        <time>2013-07-02T12:09:17Z</time>
      </trkpt>
      <trkpt lat="40.204300" lon="-4.851300">
        <ele>1470.0</ele>
        <time>2013-07-02T12:09:18Z</time>
      </trkpt>
      <trkpt lat="40.204250" lon="-4.851317">
        <ele>1467.0</ele>
        <time>2013-07-02T12:09:19Z</time>
      </trkpt>
      <trkpt lat="40.204183" lon="-4.851317">
        <ele>1464.0</ele>
        <time>2013-07-02T12:09:20Z</time>
      </trkpt>
      <trkpt lat="40.204133" lon="-4.851300">
        <ele>1461.0</ele>
        <time>2013-07-02T12:09:21Z</time>
      </trkpt>
      <trkpt lat="40.204067" lon="-4.851300">
        <ele>1458.0</ele>
        <time>2013-07-02T12:09:22Z</time>
      </trkpt>
      <trkpt lat="40.204000" lon="-4.851317">
        <ele>1455.0</ele>
        <time>2013-07-02T12:09:23Z</time>
      </trkpt>
      <trkpt lat="40.203950" lon="-4.851317">
        <ele>1454.0</ele>
        <time>2013-07-02T12:09:24Z</time>
      </trkpt>
      <trkpt lat="40.203900" lon="-4.851317">
        <ele>1452.0</ele>
        <time>2013-07-02T12:09:25Z</time>
      </trkpt>
      <trkpt lat="40.203850" lon="-4.851300">
        <ele>1450.0</ele>
        <time>2013-07-02T12:09:26Z</time>
      </trkpt>
      <trkpt lat="40.203783" lon="-4.851283">
        <ele>1447.0</ele>
        <time>2013-07-02T12:09:27Z</time>
      </trkpt>
      <trkpt lat="40.203717" lon="-4.851267">
        <ele>1444.0</ele>
        <time>2013-07-02T12:09:28Z</time>
      </trkpt>
      <trkpt lat="40.203650" lon="-4.851250">
        <ele>1441.0</ele>
        <time>2013-07-02T12:09:29Z</time>
      </trkpt>
      <trkpt lat="40.203567" lon="-4.851233">
        <ele>1438.0</ele>
        <time>2013-07-02T12:09:30Z</time>
      </trkpt>
      <trkpt lat="40.203500" lon="-4.851217">
        <ele>1436.0</ele>
        <time>2013-07-02T12:09:31Z</time>
      </trkpt>
      <trkpt lat="40.203433" lon="-4.851200">
        <ele>1434.0</ele>
        <time>2013-07-02T12:09:32Z</time>
      </trkpt>
      <trkpt lat="40.203367" lon="-4.851167">
        <ele>1431.0</ele>
        <time>2013-07-02T12:09:33Z</time>
      </trkpt>
      <trkpt lat="40.203283" lon="-4.851117">
        <ele>1428.0</ele>
        <time>2013-07-02T12:09:34Z</time>
      </trkpt>
      <trkpt lat="40.203217" lon="-4.851083">
        <ele>1424.0</ele>
        <time>2013-07-02T12:09:35Z</time>
      </trkpt>
      <trkpt lat="40.203133" lon="-4.851067">
        <ele>1422.0</ele>
        <time>2013-07-02T12:09:36Z</time>
      </trkpt>
      <trkpt lat="40.203067" lon="-4.851050">
        <ele>1420.0</ele>
        <time>2013-07-02T12:09:37Z</time>
      </trkpt>
      <trkpt lat="40.202983" lon="-4.851017">
        <ele>1418.0</ele>
        <time>2013-07-02T12:09:38Z</time>
      </trkpt>
      <trkpt lat="40.202933" lon="-4.851000">
        <ele>1415.0</ele>
        <time>2013-07-02T12:09:39Z</time>
      </trkpt>
      <trkpt lat="40.202867" lon="-4.850983">
        <ele>1413.0</ele>
        <time>2013-07-02T12:09:40Z</time>
      </trkpt>
      <trkpt lat="40.202783" lon="-4.850967">
        <ele>1409.0</ele>
        <time>2013-07-02T12:09:41Z</time>
      </trkpt>
      <trkpt lat="40.202717" lon="-4.850933">
        <ele>1406.0</ele>
        <time>2013-07-02T12:09:42Z</time>
      </trkpt>
      <trkpt lat="40.202633" lon="-4.850917">
        <ele>1404.0</ele>
        <time>2013-07-02T12:09:43Z</time>
      </trkpt>
      <trkpt lat="40.202550" lon="-4.850900">
        <ele>1402.0</ele>
        <time>2013-07-02T12:09:44Z</time>
      </trkpt>
      <trkpt lat="40.202483" lon="-4.850900">
        <ele>1400.0</ele>
        <time>2013-07-02T12:09:45Z</time>
      </trkpt>
      <trkpt lat="40.202417" lon="-4.850883">
        <ele>1398.0</ele>
        <time>2013-07-02T12:09:46Z</time>
      </trkpt>
      <trkpt lat="40.202333" lon="-4.850850">
        <ele>1395.0</ele>
        <time>2013-07-02T12:09:47Z</time>
      </trkpt>
      <trkpt lat="40.202267" lon="-4.850833">
        <ele>1392.0</ele>
        <time>2013-07-02T12:09:48Z</time>
      </trkpt>
      <trkpt lat="40.202183" lon="-4.850817">
        <ele>1389.0</ele>
        <time>2013-07-02T12:09:49Z</time>
      </trkpt>
      <trkpt lat="40.202100" lon="-4.850817">
        <ele>1387.0</ele>
        <time>2013-07-02T12:09:50Z</time>
      </trkpt>
      <trkpt lat="40.202017" lon="-4.850800">
        <ele>1385.0</ele>
        <time>2013-07-02T12:09:51Z</time>
      </trkpt>
      <trkpt lat="40.201933" lon="-4.850783">
        <ele>1383.0</ele>
        <time>2013-07-02T12:09:52Z</time>
      </trkpt>
      <trkpt lat="40.201867" lon="-4.850767">
        <ele>1381.0</ele>
        <time>2013-07-02T12:09:53Z</time>
      </trkpt>
      <trkpt lat="40.201783" lon="-4.850767">
        <ele>1378.0</ele>
        <time>2013-07-02T12:09:54Z</time>
      </trkpt>
      <trkpt lat="40.201717" lon="-4.850783">
        <ele>1376.0</ele>
        <time>2013-07-02T12:09:55Z</time>
      </trkpt>
      <trkpt lat="40.201633" lon="-4.850783">
        <ele>1373.0</ele>
        <time>2013-07-02T12:09:56Z</time>
      </trkpt>
      <trkpt lat="40.201567" lon="-4.850800">
        <ele>1371.0</ele>
        <time>2013-07-02T12:09:57Z</time>
      </trkpt>
      <trkpt lat="40.201483" lon="-4.850800">
        <ele>1369.0</ele>
        <time>2013-07-02T12:09:58Z</time>
      </trkpt>
      <trkpt lat="40.201417" lon="-4.850800">
        <ele>1366.0</ele>
        <time>2013-07-02T12:09:59Z</time>
      </trkpt>
      <trkpt lat="40.201333" lon="-4.850800">
        <ele>1363.0</ele>
        <time>2013-07-02T12:10:00Z</time>
      </trkpt>
      <trkpt lat="40.201250" lon="-4.850800">
        <ele>1360.0</ele>
        <time>2013-07-02T12:10:01Z</time>
      </trkpt>
      <trkpt lat="40.201183" lon="-4.850817">
        <ele>1358.0</ele>
        <time>2013-07-02T12:10:02Z</time>
      </trkpt>
      <trkpt lat="40.201117" lon="-4.850817">
        <ele>1356.0</ele>
        <time>2013-07-02T12:10:03Z</time>
      </trkpt>
      <trkpt lat="40.201033" lon="-4.850833">
        <ele>1353.0</ele>
        <time>2013-07-02T12:10:04Z</time>
      </trkpt>
      <trkpt lat="40.200967" lon="-4.850833">
        <ele>1350.0</ele>
        <time>2013-07-02T12:10:05Z</time>
      </trkpt>
      <trkpt lat="40.200883" lon="-4.850850">
        <ele>1347.0</ele>
        <time>2013-07-02T12:10:06Z</time>
      </trkpt>
      <trkpt lat="40.200783" lon="-4.850867">
        <ele>1344.0</ele>
        <time>2013-07-02T12:10:07Z</time>
      </trkpt>
      <trkpt lat="40.200700" lon="-4.850867">
        <ele>1340.0</ele>
        <time>2013-07-02T12:10:08Z</time>
      </trkpt>
      <trkpt lat="40.200617" lon="-4.850883">
        <ele>1338.0</ele>
        <time>2013-07-02T12:10:09Z</time>
      </trkpt>
      <trkpt lat="40.200533" lon="-4.850900">
        <ele>1335.0</ele>
        <time>2013-07-02T12:10:10Z</time>
      </trkpt>
      <trkpt lat="40.200450" lon="-4.850933">
        <ele>1333.0</ele>
        <time>2013-07-02T12:10:11Z</time>
      </trkpt>
      <trkpt lat="40.200367" lon="-4.850950">
        <ele>1330.0</ele>
        <time>2013-07-02T12:10:12Z</time>
      </trkpt>
      <trkpt lat="40.200300" lon="-4.850967">
        <ele>1328.0</ele>
        <time>2013-07-02T12:10:13Z</time>
      </trkpt>
      <trkpt lat="40.200233" lon="-4.850983">
        <ele>1326.0</ele>
        <time>2013-07-02T12:10:14Z</time>
      </trkpt>
      <trkpt lat="40.200183" lon="-4.851017">
        <ele>1322.0</ele>
        <time>2013-07-02T12:10:15Z</time>
      </trkpt>
      <trkpt lat="40.200117" lon="-4.851050">
        <ele>1318.0</ele>
        <time>2013-07-02T12:10:16Z</time>
      </trkpt>
      <trkpt lat="40.200050" lon="-4.851100">
        <ele>1313.0</ele>
        <time>2013-07-02T12:10:17Z</time>
      </trkpt>
      <trkpt lat="40.199983" lon="-4.851150">
        <ele>1309.0</ele>
        <time>2013-07-02T12:10:18Z</time>
      </trkpt>
      <trkpt lat="40.199917" lon="-4.851200">
        <ele>1306.0</ele>
        <time>2013-07-02T12:10:19Z</time>
      </trkpt>
      <trkpt lat="40.199850" lon="-4.851250">
        <ele>1304.0</ele>
        <time>2013-07-02T12:10:20Z</time>
      </trkpt>
      <trkpt lat="40.199783" lon="-4.851283">
        <ele>1300.0</ele>
        <time>2013-07-02T12:10:21Z</time>
      </trkpt>
      <trkpt lat="40.199733" lon="-4.851317">
        <ele>1296.0</ele>
        <time>2013-07-02T12:10:22Z</time>
      </trkpt>
      <trkpt lat="40.199667" lon="-4.851350">
        <ele>1291.0</ele>
        <time>2013-07-02T12:10:23Z</time>
      </trkpt>
      <trkpt lat="40.199600" lon="-4.851383">
        <ele>1286.0</ele>
        <time>2013-07-02T12:10:24Z</time>
      </trkpt>
      <trkpt lat="40.199550" lon="-4.851450">
        <ele>1281.0</ele>
        <time>2013-07-02T12:10:25Z</time>
      </trkpt>
      <trkpt lat="40.199483" lon="-4.851500">
        <ele>1277.0</ele>
        <time>2013-07-02T12:10:26Z</time>
      </trkpt>
      <trkpt lat="40.199433" lon="-4.851550">
        <ele>1274.0</ele>
        <time>2013-07-02T12:10:27Z</time>
      </trkpt>
      <trkpt lat="40.199367" lon="-4.851583">
        <ele>1270.0</ele>
        <time>2013-07-02T12:10:28Z</time>
      </trkpt>
      <trkpt lat="40.199317" lon="-4.851600">
        <ele>1266.0</ele>
        <time>2013-07-02T12:10:29Z</time>
      </trkpt>
      <trkpt lat="40.199250" lon="-4.851617">
        <ele>1261.0</ele>
        <time>2013-07-02T12:10:30Z</time>
      </trkpt>
      <trkpt lat="40.199183" lon="-4.851650">
        <ele>1257.0</ele>
        <time>2013-07-02T12:10:31Z</time>
      </trkpt>
      <trkpt lat="40.199117" lon="-4.851667">
        <ele>1252.0</ele>
        <time>2013-07-02T12:10:32Z</time>
      </trkpt>
      <trkpt lat="40.199033" lon="-4.851683">
        <ele>1248.0</ele>
        <time>2013-07-02T12:10:33Z</time>
      </trkpt>
      <trkpt lat="40.198967" lon="-4.851683">
        <ele>1244.0</ele>
        <time>2013-07-02T12:10:34Z</time>
      </trkpt>
      <trkpt lat="40.198883" lon="-4.851683">
        <ele>1241.0</ele>
        <time>2013-07-02T12:10:35Z</time>
      </trkpt>
      <trkpt lat="40.198833" lon="-4.851700">
        <ele>1237.0</ele>
        <time>2013-07-02T12:10:36Z</time>
      </trkpt>
      <trkpt lat="40.198767" lon="-4.851717">
        <ele>1233.0</ele>
        <time>2013-07-02T12:10:37Z</time>
      </trkpt>
      <trkpt lat="40.198717" lon="-4.851733">
        <ele>1229.0</ele>
        <time>2013-07-02T12:10:38Z</time>
      </trkpt>
      <trkpt lat="40.198650" lon="-4.851750">
        <ele>1224.0</ele>
        <time>2013-07-02T12:10:39Z</time>
      </trkpt>
      <trkpt lat="40.198567" lon="-4.851750">
        <ele>1220.0</ele>
        <time>2013-07-02T12:10:40Z</time>
      </trkpt>
      <trkpt lat="40.198483" lon="-4.851767">
        <ele>1216.0</ele>
        <time>2013-07-02T12:10:41Z</time>
      </trkpt>
      <trkpt lat="40.198417" lon="-4.851767">
        <ele>1212.0</ele>
        <time>2013-07-02T12:10:42Z</time>
      </trkpt>
      <trkpt lat="40.198350" lon="-4.851767">
        <ele>1209.0</ele>
        <time>2013-07-02T12:10:43Z</time>
      </trkpt>
      <trkpt lat="40.198283" lon="-4.851767">
        <ele>1206.0</ele>
        <time>2013-07-02T12:10:44Z</time>
      </trkpt>
      <trkpt lat="40.198217" lon="-4.851750">
        <ele>1203.0</ele>
        <time>2013-07-02T12:10:45Z</time>
      </trkpt>
      <trkpt lat="40.198150" lon="-4.851733">
        <ele>1199.0</ele>
        <time>2013-07-02T12:10:46Z</time>
      </trkpt>
      <trkpt lat="40.198067" lon="-4.851700">
        <ele>1196.0</ele>
        <time>2013-07-02T12:10:47Z</time>
      </trkpt>
      <trkpt lat="40.198000" lon="-4.851683">
        <ele>1193.0</ele>
        <time>2013-07-02T12:10:48Z</time>
      </trkpt>
      <trkpt lat="40.197950" lon="-4.851667">
        <ele>1190.0</ele>
        <time>2013-07-02T12:10:49Z</time>
      </trkpt>
      <trkpt lat="40.197883" lon="-4.851633">
        <ele>1186.0</ele>
        <time>2013-07-02T12:10:50Z</time>
      </trkpt>
      <trkpt lat="40.197817" lon="-4.851617">
        <ele>1183.0</ele>
        <time>2013-07-02T12:10:51Z</time>
      </trkpt>
      <trkpt lat="40.197750" lon="-4.851583">
        <ele>1178.0</ele>
        <time>2013-07-02T12:10:52Z</time>
      </trkpt>
      <trkpt lat="40.197683" lon="-4.851583">
        <ele>1174.0</ele>
        <time>2013-07-02T12:10:53Z</time>
      </trkpt>
      <trkpt lat="40.197600" lon="-4.851583">
        <ele>1170.0</ele>
        <time>2013-07-02T12:10:54Z</time>
      </trkpt>
      <trkpt lat="40.197533" lon="-4.851583">
        <ele>1166.0</ele>
        <time>2013-07-02T12:10:55Z</time>
      </trkpt>
      <trkpt lat="40.197450" lon="-4.851583">
        <ele>1162.0</ele>
        <time>2013-07-02T12:10:56Z</time>
      </trkpt>
      <trkpt lat="40.197383" lon="-4.851583">
        <ele>1158.0</ele>
        <time>2013-07-02T12:10:57Z</time>
      </trkpt>
      <trkpt lat="40.197300" lon="-4.851583">
        <ele>1155.0</ele>
        <time>2013-07-02T12:10:58Z</time>
      </trkpt>
      <trkpt lat="40.197233" lon="-4.851567">
        <ele>1151.0</ele>
        <time>2013-07-02T12:10:59Z</time>
      </trkpt>
      <trkpt lat="40.197150" lon="-4.851550">
        <ele>1147.0</ele>
        <time>2013-07-02T12:11:00Z</time>
      </trkpt>
      <trkpt lat="40.197067" lon="-4.851517">
        <ele>1143.0</ele>
        <time>2013-07-02T12:11:01Z</time>
      </trkpt>
      <trkpt lat="40.196983" lon="-4.851483">
        <ele>1139.0</ele>
        <time>2013-07-02T12:11:02Z</time>
      </trkpt>
      <trkpt lat="40.196917" lon="-4.851450">
        <ele>1136.0</ele>
        <time>2013-07-02T12:11:03Z</time>
      </trkpt>
      <trkpt lat="40.196833" lon="-4.851433">
        <ele>1132.0</ele>
        <time>2013-07-02T12:11:04Z</time>
      </trkpt>
      <trkpt lat="40.196750" lon="-4.851400">
        <ele>1129.0</ele>
        <time>2013-07-02T12:11:05Z</time>
      </trkpt>
      <trkpt lat="40.196683" lon="-4.851383">
        <ele>1125.0</ele>
        <time>2013-07-02T12:11:06Z</time>
      </trkpt>
      <trkpt lat="40.196600" lon="-4.851350">
        <ele>1121.0</ele>
        <time>2013-07-02T12:11:07Z</time>
      </trkpt>
      <trkpt lat="40.196517" lon="-4.851317">
        <ele>1117.0</ele>
        <time>2013-07-02T12:11:08Z</time>
      </trkpt>
      <trkpt lat="40.196433" lon="-4.851283">
        <ele>1114.0</ele>
        <time>2013-07-02T12:11:09Z</time>
      </trkpt>
      <trkpt lat="40.196350" lon="-4.851250">
        <ele>1111.0</ele>
        <time>2013-07-02T12:11:10Z</time>
      </trkpt>
      <trkpt lat="40.196267" lon="-4.851217">
        <ele>1108.0</ele>
        <time>2013-07-02T12:11:11Z</time>
      </trkpt>
      <trkpt lat="40.196183" lon="-4.851200">
        <ele>1105.0</ele>
        <time>2013-07-02T12:11:12Z</time>
      </trkpt>
      <trkpt lat="40.196117" lon="-4.851167">
        <ele>1102.0</ele>
        <time>2013-07-02T12:11:13Z</time>
      </trkpt>
      <trkpt lat="40.196033" lon="-4.851133">
        <ele>1099.0</ele>
        <time>2013-07-02T12:11:14Z</time>
      </trkpt>
      <trkpt lat="40.195950" lon="-4.851100">
        <ele>1095.0</ele>
        <time>2013-07-02T12:11:15Z</time>
      </trkpt>
      <trkpt lat="40.195867" lon="-4.851067">
        <ele>1091.0</ele>
        <time>2013-07-02T12:11:16Z</time>
      </trkpt>
      <trkpt lat="40.195783" lon="-4.851033">
        <ele>1088.0</ele>
        <time>2013-07-02T12:11:17Z</time>
      </trkpt>
      <trkpt lat="40.195700" lon="-4.851017">
        <ele>1085.0</ele>
        <time>2013-07-02T12:11:18Z</time>
      </trkpt>
      <trkpt lat="40.195617" lon="-4.850983">
        <ele>1083.0</ele>
        <time>2013-07-02T12:11:19Z</time>
      </trkpt>
      <trkpt lat="40.195550" lon="-4.850967">
        <ele>1081.0</ele>
        <time>2013-07-02T12:11:20Z</time>
      </trkpt>
      <trkpt lat="40.195467" lon="-4.850950">
        <ele>1078.0</ele>
        <time>2013-07-02T12:11:21Z</time>
      </trkpt>
      <trkpt lat="40.195400" lon="-4.850933">
        <ele>1076.0</ele>
        <time>2013-07-02T12:11:22Z</time>
      </trkpt>
      <trkpt lat="40.195333" lon="-4.850900">
        <ele>1073.0</ele>
        <time>2013-07-02T12:11:23Z</time>
      </trkpt>
      <trkpt lat="40.195250" lon="-4.850883">
        <ele>1069.0</ele>
        <time>2013-07-02T12:11:24Z</time>
      </trkpt>
      <trkpt lat="40.195183" lon="-4.850850">
        <ele>1066.0</ele>
        <time>2013-07-02T12:11:25Z</time>
      </trkpt>
      <trkpt lat="40.195100" lon="-4.850833">
        <ele>1063.0</ele>
        <time>2013-07-02T12:11:26Z</time>
      </trkpt>
      <trkpt lat="40.195017" lon="-4.850817">
        <ele>1060.0</ele>
        <time>2013-07-02T12:11:27Z</time>
      </trkpt>
      <trkpt lat="40.194933" lon="-4.850783">
        <ele>1057.0</ele>
        <time>2013-07-02T12:11:28Z</time>
      </trkpt>
      <trkpt lat="40.194867" lon="-4.850767">
        <ele>1055.0</ele>
        <time>2013-07-02T12:11:29Z</time>
      </trkpt>
      <trkpt lat="40.194783" lon="-4.850733">
        <ele>1052.0</ele>
        <time>2013-07-02T12:11:30Z</time>
      </trkpt>
      <trkpt lat="40.194700" lon="-4.850717">
        <ele>1049.0</ele>
        <time>2013-07-02T12:11:31Z</time>
      </trkpt>
      <trkpt lat="40.194633" lon="-4.850717">
        <ele>1046.0</ele>
        <time>2013-07-02T12:11:32Z</time>
      </trkpt>
      <trkpt lat="40.194550" lon="-4.850700">
        <ele>1043.0</ele>
        <time>2013-07-02T12:11:33Z</time>
      </trkpt>
      <trkpt lat="40.194467" lon="-4.850683">
        <ele>1041.0</ele>
        <time>2013-07-02T12:11:34Z</time>
      </trkpt>
      <trkpt lat="40.194400" lon="-4.850667">
        <ele>1038.0</ele>
        <time>2013-07-02T12:11:35Z</time>
      </trkpt>
      <trkpt lat="40.194317" lon="-4.850650">
        <ele>1034.0</ele>
        <time>2013-07-02T12:11:36Z</time>
      </trkpt>
      <trkpt lat="40.194233" lon="-4.850633">
        <ele>1031.0</ele>
        <time>2013-07-02T12:11:37Z</time>
      </trkpt>
      <trkpt lat="40.194150" lon="-4.850617">
        <ele>1028.0</ele>
        <time>2013-07-02T12:11:38Z</time>
      </trkpt>
      <trkpt lat="40.194067" lon="-4.850617">
        <ele>1026.0</ele>
        <time>2013-07-02T12:11:39Z</time>
      </trkpt>
      <trkpt lat="40.194000" lon="-4.850617">
        <ele>1023.0</ele>
        <time>2013-07-02T12:11:40Z</time>
      </trkpt>
      <trkpt lat="40.193917" lon="-4.850600">
        <ele>1021.0</ele>
        <time>2013-07-02T12:11:41Z</time>
      </trkpt>
      <trkpt lat="40.193850" lon="-4.850600">
        <ele>1019.0</ele>
        <time>2013-07-02T12:11:42Z</time>
      </trkpt>
      <trkpt lat="40.193767" lon="-4.850583">
        <ele>1017.0</ele>
        <time>2013-07-02T12:11:43Z</time>
      </trkpt>
      <trkpt lat="40.193700" lon="-4.850583">
        <ele>1015.0</ele>
        <time>2013-07-02T12:11:44Z</time>
      </trkpt>
      <trkpt lat="40.193633" lon="-4.850583">
        <ele>1012.0</ele>
        <time>2013-07-02T12:11:45Z</time>
      </trkpt>
      <trkpt lat="40.193567" lon="-4.850583">
        <ele>1009.0</ele>
        <time>2013-07-02T12:11:46Z</time>
      </trkpt>
      <trkpt lat="40.193483" lon="-4.850583">
        <ele>1006.0</ele>
        <time>2013-07-02T12:11:47Z</time>
      </trkpt>
      <trkpt lat="40.193400" lon="-4.850583">
        <ele>1002.0</ele>
        <time>2013-07-02T12:11:48Z</time>
      </trkpt>
      <trkpt lat="40.193317" lon="-4.850567">
        <ele>998.0</ele>
        <time>2013-07-02T12:11:49Z</time>
      </trkpt>
      <trkpt lat="40.193233" lon="-4.850550">
        <ele>996.0</ele>
        <time>2013-07-02T12:11:50Z</time>
      </trkpt>
      <trkpt lat="40.193150" lon="-4.850550">
        <ele>995.0</ele>
        <time>2013-07-02T12:11:51Z</time>
      </trkpt>
      <trkpt lat="40.193067" lon="-4.850533">
        <ele>993.0</ele>
        <time>2013-07-02T12:11:52Z</time>
      </trkpt>
      <trkpt lat="40.193000" lon="-4.850517">
        <ele>991.0</ele>
        <time>2013-07-02T12:11:53Z</time>
      </trkpt>
      <trkpt lat="40.192933" lon="-4.850500">
        <ele>988.0</ele>
        <time>2013-07-02T12:11:54Z</time>
      </trkpt>
      <trkpt lat="40.192867" lon="-4.850467">
        <ele>985.0</ele>
        <time>2013-07-02T12:11:55Z</time>
      </trkpt>
      <trkpt lat="40.192783" lon="-4.850450">
        <ele>983.0</ele>
        <time>2013-07-02T12:11:56Z</time>
      </trkpt>
      <trkpt lat="40.192700" lon="-4.850417">
        <ele>982.0</ele>
        <time>2013-07-02T12:11:57Z</time>
      </trkpt>
      <trkpt lat="40.192600" lon="-4.850417">
        <ele>981.0</ele>
        <time>2013-07-02T12:11:58Z</time>
      </trkpt>
      <trkpt lat="40.192533" lon="-4.850417">
        <ele>981.0</ele>
        <time>2013-07-02T12:11:59Z</time>
      </trkpt>
      <trkpt lat="40.192467" lon="-4.850450">
        <ele>981.0</ele>
        <time>2013-07-02T12:12:00Z</time>
      </trkpt>
      <trkpt lat="40.192417" lon="-4.850450">
        <ele>980.0</ele>
        <time>2013-07-02T12:12:01Z</time>
      </trkpt>
      <trkpt lat="40.192350" lon="-4.850467">
        <ele>977.0</ele>
        <time>2013-07-02T12:12:02Z</time>
      </trkpt>
      <trkpt lat="40.192267" lon="-4.850467">
        <ele>974.0</ele>
        <time>2013-07-02T12:12:03Z</time>
      </trkpt>
      <trkpt lat="40.192200" lon="-4.850483">
        <ele>972.0</ele>
        <time>2013-07-02T12:12:04Z</time>
      </trkpt>
      <trkpt lat="40.192117" lon="-4.850500">
        <ele>970.0</ele>
        <time>2013-07-02T12:12:05Z</time>
      </trkpt>
      <trkpt lat="40.192050" lon="-4.850500">
        <ele>968.0</ele>
        <time>2013-07-02T12:12:06Z</time>
      </trkpt>
      <trkpt lat="40.191983" lon="-4.850500">
        <ele>965.0</ele>
        <time>2013-07-02T12:12:07Z</time>
      </trkpt>
      <trkpt lat="40.191917" lon="-4.850483">
        <ele>962.0</ele>
        <time>2013-07-02T12:12:08Z</time>
      </trkpt>
      <trkpt lat="40.191833" lon="-4.850467">
        <ele>959.0</ele>
        <time>2013-07-02T12:12:09Z</time>
      </trkpt>
      <trkpt lat="40.191767" lon="-4.850450">
        <ele>956.0</ele>
        <time>2013-07-02T12:12:10Z</time>
      </trkpt>
      <trkpt lat="40.191683" lon="-4.850433">
        <ele>953.0</ele>
        <time>2013-07-02T12:12:11Z</time>
      </trkpt>
      <trkpt lat="40.191600" lon="-4.850417">
        <ele>951.0</ele>
        <time>2013-07-02T12:12:12Z</time>
      </trkpt>
      <trkpt lat="40.191517" lon="-4.850400">
        <ele>949.0</ele>
        <time>2013-07-02T12:12:13Z</time>
      </trkpt>
      <trkpt lat="40.191467" lon="-4.850383">
        <ele>946.0</ele>
        <time>2013-07-02T12:12:14Z</time>
      </trkpt>
      <trkpt lat="40.191400" lon="-4.850367">
        <ele>944.0</ele>
        <time>2013-07-02T12:12:15Z</time>
      </trkpt>
      <trkpt lat="40.191317" lon="-4.850350">
        <ele>941.0</ele>
        <time>2013-07-02T12:12:16Z</time>
      </trkpt>
      <trkpt lat="40.191250" lon="-4.850350">
        <ele>939.0</ele>
        <time>2013-07-02T12:12:17Z</time>
      </trkpt>
      <trkpt lat="40.191183" lon="-4.850333">
        <ele>936.0</ele>
        <time>2013-07-02T12:12:18Z</time>
      </trkpt>
      <trkpt lat="40.191100" lon="-4.850333">
        <ele>933.0</ele>
        <time>2013-07-02T12:12:19Z</time>
      </trkpt>
      <trkpt lat="40.191017" lon="-4.850333">
        <ele>931.0</ele>
        <time>2013-07-02T12:12:20Z</time>
      </trkpt>
      <trkpt lat="40.190933" lon="-4.850317">
        <ele>928.0</ele>
        <time>2013-07-02T12:12:21Z</time>
      </trkpt>
      <trkpt lat="40.190850" lon="-4.850267">
        <ele>926.0</ele>
        <time>2013-07-02T12:12:22Z</time>
      </trkpt>
      <trkpt lat="40.190767" lon="-4.850217">
        <ele>923.0</ele>
        <time>2013-07-02T12:12:23Z</time>
      </trkpt>
      <trkpt lat="40.190667" lon="-4.850167">
        <ele>921.0</ele>
        <time>2013-07-02T12:12:24Z</time>
      </trkpt>
      <trkpt lat="40.190583" lon="-4.850117">
        <ele>919.0</ele>
        <time>2013-07-02T12:12:25Z</time>
      </trkpt>
      <trkpt lat="40.190500" lon="-4.850067">
        <ele>918.0</ele>
        <time>2013-07-02T12:12:26Z</time>
      </trkpt>
      <trkpt lat="40.190417" lon="-4.850017">
        <ele>915.0</ele>
        <time>2013-07-02T12:12:27Z</time>
      </trkpt>
      <trkpt lat="40.190333" lon="-4.849983">
        <ele>912.0</ele>
        <time>2013-07-02T12:12:28Z</time>
      </trkpt>
      <trkpt lat="40.190233" lon="-4.849933">
        <ele>909.0</ele>
        <time>2013-07-02T12:12:29Z</time>
      </trkpt>
      <trkpt lat="40.190133" lon="-4.849900">
        <ele>907.0</ele>
        <time>2013-07-02T12:12:30Z</time>
      </trkpt>
      <trkpt lat="40.190050" lon="-4.849867">
        <ele>904.0</ele>
        <time>2013-07-02T12:12:31Z</time>
      </trkpt>
      <trkpt lat="40.189950" lon="-4.849850">
        <ele>903.0</ele>
        <time>2013-07-02T12:12:32Z</time>
      </trkpt>
      <trkpt lat="40.189867" lon="-4.849833">
        <ele>901.0</ele>
        <time>2013-07-02T12:12:33Z</time>
      </trkpt>
      <trkpt lat="40.189800" lon="-4.849817">
        <ele>900.0</ele>
        <time>2013-07-02T12:12:34Z</time>
      </trkpt>
      <trkpt lat="40.189717" lon="-4.849783">
        <ele>898.0</ele>
        <time>2013-07-02T12:12:35Z</time>
      </trkpt>
      <trkpt lat="40.189650" lon="-4.849750">
        <ele>895.0</ele>
        <time>2013-07-02T12:12:36Z</time>
      </trkpt>
      <trkpt lat="40.189550" lon="-4.849717">
        <ele>892.0</ele>
        <time>2013-07-02T12:12:37Z</time>
      </trkpt>
      <trkpt lat="40.189467" lon="-4.849667">
        <ele>890.0</ele>
        <time>2013-07-02T12:12:38Z</time>
      </trkpt>
      <trkpt lat="40.189400" lon="-4.849633">
        <ele>888.0</ele>
        <time>2013-07-02T12:12:39Z</time>
      </trkpt>
      <trkpt lat="40.189317" lon="-4.849600">
        <ele>886.0</ele>
        <time>2013-07-02T12:12:40Z</time>
      </trkpt>
      <trkpt lat="40.189233" lon="-4.849550">
        <ele>883.0</ele>
        <time>2013-07-02T12:12:41Z</time>
      </trkpt>
      <trkpt lat="40.189150" lon="-4.849500">
        <ele>880.0</ele>
        <time>2013-07-02T12:12:42Z</time>
      </trkpt>
      <trkpt lat="40.189050" lon="-4.849450">
        <ele>877.0</ele>
        <time>2013-07-02T12:12:43Z</time>
      </trkpt>
      <trkpt lat="40.188950" lon="-4.849400">
        <ele>875.0</ele>
        <time>2013-07-02T12:12:44Z</time>
      </trkpt>
      <trkpt lat="40.188867" lon="-4.849367">
        <ele>874.0</ele>
        <time>2013-07-02T12:12:45Z</time>
      </trkpt>
      <trkpt lat="40.188783" lon="-4.849333">
        <ele>872.0</ele>
        <time>2013-07-02T12:12:46Z</time>
      </trkpt>
      <trkpt lat="40.188700" lon="-4.849300">
        <ele>871.0</ele>
        <time>2013-07-02T12:12:47Z</time>
      </trkpt>
      <trkpt lat="40.188617" lon="-4.849267">
        <ele>869.0</ele>
        <time>2013-07-02T12:12:48Z</time>
      </trkpt>
      <trkpt lat="40.188533" lon="-4.849233">
        <ele>866.0</ele>
        <time>2013-07-02T12:12:49Z</time>
      </trkpt>
      <trkpt lat="40.188450" lon="-4.849200">
        <ele>863.0</ele>
        <time>2013-07-02T12:12:50Z</time>
      </trkpt>
      <trkpt lat="40.188350" lon="-4.849167">
        <ele>861.0</ele>
        <time>2013-07-02T12:12:51Z</time>
      </trkpt>
      <trkpt lat="40.188250" lon="-4.849133">
        <ele>858.0</ele>
        <time>2013-07-02T12:12:52Z</time>
      </trkpt>
      <trkpt lat="40.188150" lon="-4.849117">
        <ele>857.0</ele>
        <time>2013-07-02T12:12:53Z</time>
      </trkpt>
      <trkpt lat="40.188067" lon="-4.849117">
        <ele>856.0</ele>
        <time>2013-07-02T12:12:54Z</time>
      </trkpt>
      <trkpt lat="40.188000" lon="-4.849117">
        <ele>856.0</ele>
        <time>2013-07-02T12:12:55Z</time>
      </trkpt>
      <trkpt lat="40.187917" lon="-4.849100">
        <ele>854.0</ele>
        <time>2013-07-02T12:12:56Z</time>
      </trkpt>
      <trkpt lat="40.187850" lon="-4.849083">
        <ele>852.0</ele>
        <time>2013-07-02T12:12:57Z</time>
      </trkpt>
      <trkpt lat="40.187750" lon="-4.849050">
        <ele>849.0</ele>
        <time>2013-07-02T12:12:58Z</time>
      </trkpt>
      <trkpt lat="40.187650" lon="-4.849050">
        <ele>846.0</ele>
        <time>2013-07-02T12:12:59Z</time>
      </trkpt>
      <trkpt lat="40.187567" lon="-4.849067">
        <ele>844.0</ele>
        <time>2013-07-02T12:13:00Z</time>
      </trkpt>
      <trkpt lat="40.187467" lon="-4.849083">
        <ele>843.0</ele>
        <time>2013-07-02T12:13:01Z</time>
      </trkpt>
      <trkpt lat="40.187383" lon="-4.849067">
        <ele>842.0</ele>
        <time>2013-07-02T12:13:02Z</time>
      </trkpt>
      <trkpt lat="40.187300" lon="-4.849050">
        <ele>841.0</ele>
        <time>2013-07-02T12:13:03Z</time>
      </trkpt>
      <trkpt lat="40.187200" lon="-4.849017">
        <ele>840.0</ele>
        <time>2013-07-02T12:13:04Z</time>
      </trkpt>
      <trkpt lat="40.187117" lon="-4.849000">
        <ele>839.0</ele>
        <time>2013-07-02T12:13:05Z</time>
      </trkpt>
      <trkpt lat="40.187033" lon="-4.848983">
        <ele>838.0</ele>
        <time>2013-07-02T12:13:06Z</time>
      </trkpt>
      <trkpt lat="40.186933" lon="-4.848967">
        <ele>837.0</ele>
        <time>2013-07-02T12:13:07Z</time>
      </trkpt>
      <trkpt lat="40.186833" lon="-4.848950">
        <ele>837.0</ele>
        <time>2013-07-02T12:13:08Z</time>
      </trkpt>
      <trkpt lat="40.186750" lon="-4.848933">
        <ele>836.0</ele>
        <time>2013-07-02T12:13:09Z</time>
      </trkpt>
      <trkpt lat="40.186650" lon="-4.848917">
        <ele>836.0</ele>
        <time>2013-07-02T12:13:10Z</time>
      </trkpt>
      <trkpt lat="40.186533" lon="-4.848900">
        <ele>836.0</ele>
        <time>2013-07-02T12:13:11Z</time>
      </trkpt>
      <trkpt lat="40.186417" lon="-4.848867">
        <ele>837.0</ele>
        <time>2013-07-02T12:13:12Z</time>
      </trkpt>
      <trkpt lat="40.186317" lon="-4.848850">
        <ele>841.0</ele>
        <time>2013-07-02T12:13:13Z</time>
      </trkpt>
      <trkpt lat="40.186233" lon="-4.848817">
        <ele>845.0</ele>
        <time>2013-07-02T12:13:14Z</time>
      </trkpt>
      <trkpt lat="40.186150" lon="-4.848783">
        <ele>849.0</ele>
        <time>2013-07-02T12:13:15Z</time>
      </trkpt>
      <trkpt lat="40.186083" lon="-4.848750">
        <ele>851.0</ele>
        <time>2013-07-02T12:13:16Z</time>
      </trkpt>
      <trkpt lat="40.186000" lon="-4.848717">
        <ele>852.0</ele>
        <time>2013-07-02T12:13:17Z</time>
      </trkpt>
      <trkpt lat="40.185917" lon="-4.848700">
        <ele>853.0</ele>
        <time>2013-07-02T12:13:18Z</time>
      </trkpt>
      <trkpt lat="40.185817" lon="-4.848667">
        <ele>857.0</ele>
        <time>2013-07-02T12:13:19Z</time>
      </trkpt>
      <trkpt lat="40.185767" lon="-4.848617">
        <ele>860.0</ele>
        <time>2013-07-02T12:13:20Z</time>
      </trkpt>
      <trkpt lat="40.185717" lon="-4.848550">
        <ele>862.0</ele>
        <time>2013-07-02T12:13:21Z</time>
      </trkpt>
      <trkpt lat="40.185650" lon="-4.848467">
        <ele>863.0</ele>
        <time>2013-07-02T12:13:22Z</time>
      </trkpt>
      <trkpt lat="40.185583" lon="-4.848367">
        <ele>863.0</ele>
        <time>2013-07-02T12:13:23Z</time>
      </trkpt>
      <trkpt lat="40.185533" lon="-4.848267">
        <ele>863.0</ele>
        <time>2013-07-02T12:13:24Z</time>
      </trkpt>
      <trkpt lat="40.185517" lon="-4.848133">
        <ele>863.0</ele>
        <time>2013-07-02T12:13:25Z</time>
      </trkpt>
      <trkpt lat="40.185533" lon="-4.847967">
        <ele>861.0</ele>
        <time>2013-07-02T12:13:26Z</time>
      </trkpt>
      <trkpt lat="40.185583" lon="-4.847800">
        <ele>858.0</ele>
        <time>2013-07-02T12:13:27Z</time>
      </trkpt>
      <trkpt lat="40.185683" lon="-4.847667">
        <ele>857.0</ele>
        <time>2013-07-02T12:13:28Z</time>
      </trkpt>
      <trkpt lat="40.185783" lon="-4.847600">
        <ele>856.0</ele>
        <time>2013-07-02T12:13:29Z</time>
      </trkpt>
      <trkpt lat="40.185867" lon="-4.847600">
        <ele>855.0</ele>
        <time>2013-07-02T12:13:30Z</time>
      </trkpt>
      <trkpt lat="40.185950" lon="-4.847633">
        <ele>854.0</ele>
        <time>2013-07-02T12:13:31Z</time>
      </trkpt>
      <trkpt lat="40.186000" lon="-4.847683">
        <ele>854.0</ele>
        <time>2013-07-02T12:13:32Z</time>
      </trkpt>
      <trkpt lat="40.186050" lon="-4.847733">
        <ele>855.0</ele>
        <time>2013-07-02T12:13:33Z</time>
      </trkpt>
      <trkpt lat="40.186100" lon="-4.847783">
        <ele>858.0</ele>
        <time>2013-07-02T12:13:34Z</time>
      </trkpt>
      <trkpt lat="40.186150" lon="-4.847800">
        <ele>861.0</ele>
        <time>2013-07-02T12:13:35Z</time>
      </trkpt>
      <trkpt lat="40.186200" lon="-4.847800">
        <ele>863.0</ele>
        <time>2013-07-02T12:13:36Z</time>
      </trkpt>
      <trkpt lat="40.186217" lon="-4.847833">
        <ele>865.0</ele>
        <time>2013-07-02T12:13:37Z</time>
      </trkpt>
      <trkpt lat="40.186233" lon="-4.847883">
        <ele>867.0</ele>
        <time>2013-07-02T12:13:38Z</time>
      </trkpt>
      <trkpt lat="40.186233" lon="-4.847950">
        <ele>870.0</ele>
        <time>2013-07-02T12:13:39Z</time>
      </trkpt>
      <trkpt lat="40.186233" lon="-4.848000">
        <ele>873.0</ele>
        <time>2013-07-02T12:13:40Z</time>
      </trkpt>
      <trkpt lat="40.186233" lon="-4.848050">
        <ele>877.0</ele>
        <time>2013-07-02T12:13:41Z</time>
      </trkpt>
      <trkpt lat="40.186233" lon="-4.848067">
        <ele>880.0</ele>
        <time>2013-07-02T12:13:42Z</time>
      </trkpt>
      <trkpt lat="40.186233" lon="-4.848100">
        <ele>882.0</ele>
        <time>2013-07-02T12:13:43Z</time>
      </trkpt>
      <trkpt lat="40.186217" lon="-4.848167">
        <ele>884.0</ele>
        <time>2013-07-02T12:13:44Z</time>
      </trkpt>
      <trkpt lat="40.186183" lon="-4.848233">
        <ele>885.0</ele>
        <time>2013-07-02T12:13:45Z</time>
      </trkpt>
      <trkpt lat="40.186150" lon="-4.848283">
        <ele>888.0</ele>
        <time>2013-07-02T12:13:46Z</time>
      </trkpt>
      <trkpt lat="40.186100" lon="-4.848317">
        <ele>891.0</ele>
        <time>2013-07-02T12:13:47Z</time>
      </trkpt>
      <trkpt lat="40.186050" lon="-4.848317">
        <ele>893.0</ele>
        <time>2013-07-02T12:13:48Z</time>
      </trkpt>
      <trkpt lat="40.186000" lon="-4.848333">
        <ele>895.0</ele>
        <time>2013-07-02T12:13:49Z</time>
      </trkpt>
      <trkpt lat="40.185950" lon="-4.848317">
        <ele>897.0</ele>
        <time>2013-07-02T12:13:50Z</time>
      </trkpt>
      <trkpt lat="40.185900" lon="-4.848300">
        <ele>897.0</ele>
        <time>2013-07-02T12:13:51Z</time>
      </trkpt>
      <trkpt lat="40.185833" lon="-4.848267">
        <ele>897.0</ele>
        <time>2013-07-02T12:13:52Z</time>
      </trkpt>
      <trkpt lat="40.185767" lon="-4.848217">
        <ele>897.0</ele>
        <time>2013-07-02T12:13:53Z</time>
      </trkpt>
      <trkpt lat="40.185733" lon="-4.848133">
        <ele>896.0</ele>
        <time>2013-07-02T12:13:54Z</time>
      </trkpt>
      <trkpt lat="40.185717" lon="-4.848017">
        <ele>896.0</ele>
        <time>2013-07-02T12:13:55Z</time>
      </trkpt>
      <trkpt lat="40.185717" lon="-4.847900">
        <ele>897.0</ele>
        <time>2013-07-02T12:13:56Z</time>
      </trkpt>
      <trkpt lat="40.185767" lon="-4.847817">
        <ele>898.0</ele>
        <time>2013-07-02T12:13:57Z</time>
      </trkpt>
      <trkpt lat="40.185817" lon="-4.847750">
        <ele>899.0</ele>
        <time>2013-07-02T12:13:58Z</time>
      </trkpt>
      <trkpt lat="40.185883" lon="-4.847683">
        <ele>899.0</ele>
        <time>2013-07-02T12:13:59Z</time>
      </trkpt>
      <trkpt lat="40.185950" lon="-4.847583">
        <ele>900.0</ele>
        <time>2013-07-02T12:14:00Z</time>
      </trkpt>
      <trkpt lat="40.186033" lon="-4.847517">
        <ele>901.0</ele>
        <time>2013-07-02T12:14:01Z</time>
      </trkpt>
      <trkpt lat="40.186117" lon="-4.847467">
        <ele>904.0</ele>
        <time>2013-07-02T12:14:02Z</time>
      </trkpt>
      <trkpt lat="40.186200" lon="-4.847467">
        <ele>906.0</ele>
        <time>2013-07-02T12:14:03Z</time>
      </trkpt>
      <trkpt lat="40.186250" lon="-4.847500">
        <ele>907.0</ele>
        <time>2013-07-02T12:14:04Z</time>
      </trkpt>
      <trkpt lat="40.186300" lon="-4.847533">
        <ele>910.0</ele>
        <time>2013-07-02T12:14:05Z</time>
      </trkpt>
      <trkpt lat="40.186350" lon="-4.847567">
        <ele>912.0</ele>
        <time>2013-07-02T12:14:06Z</time>
      </trkpt>
      <trkpt lat="40.186367" lon="-4.847617">
        <ele>915.0</ele>
        <time>2013-07-02T12:14:07Z</time>
      </trkpt>
      <trkpt lat="40.186367" lon="-4.847683">
        <ele>917.0</ele>
        <time>2013-07-02T12:14:08Z</time>
      </trkpt>
      <trkpt lat="40.186350" lon="-4.847733">
        <ele>918.0</ele>
        <time>2013-07-02T12:14:09Z</time>
      </trkpt>
      <trkpt lat="40.186300" lon="-4.847767">
        <ele>919.0</ele>
        <time>2013-07-02T12:14:10Z</time>
      </trkpt>
      <trkpt lat="40.186267" lon="-4.847783">
        <ele>920.0</ele>
        <time>2013-07-02T12:14:11Z</time>
      </trkpt>
      <trkpt lat="40.186217" lon="-4.847800">
        <ele>921.0</ele>
        <time>2013-07-02T12:14:12Z</time>
      </trkpt>
      <trkpt lat="40.186167" lon="-4.847800">
        <ele>921.0</ele>
        <time>2013-07-02T12:14:13Z</time>
      </trkpt>
      <trkpt lat="40.186100" lon="-4.847767">
        <ele>922.0</ele>
        <time>2013-07-02T12:14:14Z</time>
      </trkpt>
      <trkpt lat="40.186033" lon="-4.847683">
        <ele>923.0</ele>
        <time>2013-07-02T12:14:15Z</time>
      </trkpt>
      <trkpt lat="40.185967" lon="-4.847583">
        <ele>927.0</ele>
        <time>2013-07-02T12:14:16Z</time>
      </trkpt>
      <trkpt lat="40.185917" lon="-4.847483">
        <ele>931.0</ele>
        <time>2013-07-02T12:14:17Z</time>
      </trkpt>
      <trkpt lat="40.185883" lon="-4.847400">
        <ele>935.0</ele>
        <time>2013-07-02T12:14:18Z</time>
      </trkpt>
      <trkpt lat="40.185867" lon="-4.847317">
        <ele>937.0</ele>
        <time>2013-07-02T12:14:19Z</time>
      </trkpt>
      <trkpt lat="40.185850" lon="-4.847200">
        <ele>939.0</ele>
        <time>2013-07-02T12:14:20Z</time>
      </trkpt>
      <trkpt lat="40.185833" lon="-4.847083">
        <ele>940.0</ele>
        <time>2013-07-02T12:14:21Z</time>
      </trkpt>
      <trkpt lat="40.185817" lon="-4.846950">
        <ele>942.0</ele>
        <time>2013-07-02T12:14:22Z</time>
      </trkpt>
      <trkpt lat="40.185833" lon="-4.846833">
        <ele>943.0</ele>
        <time>2013-07-02T12:14:23Z</time>
      </trkpt>
      <trkpt lat="40.185883" lon="-4.846750">
        <ele>943.0</ele>
        <time>2013-07-02T12:14:24Z</time>
      </trkpt>
      <trkpt lat="40.185967" lon="-4.846700">
        <ele>943.0</ele>
        <time>2013-07-02T12:14:25Z</time>
      </trkpt>
      <trkpt lat="40.186050" lon="-4.846667">
        <ele>943.0</ele>
        <time>2013-07-02T12:14:26Z</time>
      </trkpt>
      <trkpt lat="40.186133" lon="-4.846667">
        <ele>946.0</ele>
        <time>2013-07-02T12:14:27Z</time>
      </trkpt>
      <trkpt lat="40.186200" lon="-4.846700">
        <ele>949.0</ele>
        <time>2013-07-02T12:14:28Z</time>
      </trkpt>
      <trkpt lat="40.186233" lon="-4.846750">
        <ele>952.0</ele>
        <time>2013-07-02T12:14:29Z</time>
      </trkpt>
      <trkpt lat="40.186250" lon="-4.846817">
        <ele>955.0</ele>
        <time>2013-07-02T12:14:30Z</time>
      </trkpt>
      <trkpt lat="40.186250" lon="-4.846883">
        <ele>958.0</ele>
        <time>2013-07-02T12:14:31Z</time>
      </trkpt>
      <trkpt lat="40.186233" lon="-4.846917">
        <ele>961.0</ele>
        <time>2013-07-02T12:14:32Z</time>
      </trkpt>
      <trkpt lat="40.186200" lon="-4.846950">
        <ele>963.0</ele>
        <time>2013-07-02T12:14:33Z</time>
      </trkpt>
      <trkpt lat="40.186167" lon="-4.846983">
        <ele>965.0</ele>
        <time>2013-07-02T12:14:34Z</time>
      </trkpt>
      <trkpt lat="40.186133" lon="-4.847017">
        <ele>967.0</ele>
        <time>2013-07-02T12:14:35Z</time>
      </trkpt>
      <trkpt lat="40.186083" lon="-4.847017">
        <ele>970.0</ele>
        <time>2013-07-02T12:14:36Z</time>
      </trkpt>
      <trkpt lat="40.186033" lon="-4.847017">
        <ele>974.0</ele>
        <time>2013-07-02T12:14:37Z</time>
      </trkpt>
      <trkpt lat="40.185983" lon="-4.846983">
        <ele>977.0</ele>
        <time>2013-07-02T12:14:38Z</time>
      </trkpt>
      <trkpt lat="40.185967" lon="-4.846950">
        <ele>980.0</ele>
        <time>2013-07-02T12:14:39Z</time>
      </trkpt>
      <trkpt lat="40.185933" lon="-4.846900">
        <ele>981.0</ele>
        <time>2013-07-02T12:14:40Z</time>
      </trkpt>
      <trkpt lat="40.185900" lon="-4.846817">
        <ele>981.0</ele>
        <time>2013-07-02T12:14:41Z</time>
      </trkpt>
      <trkpt lat="40.185883" lon="-4.846683">
        <ele>980.0</ele>
        <time>2013-07-02T12:14:42Z</time>
      </trkpt>
      <trkpt lat="40.185900" lon="-4.846533">
        <ele>979.0</ele>
        <time>2013-07-02T12:14:43Z</time>
      </trkpt>
      <trkpt lat="40.185967" lon="-4.846417">
        <ele>980.0</ele>
        <time>2013-07-02T12:14:44Z</time>
      </trkpt>
      <trkpt lat="40.186083" lon="-4.846367">
        <ele>981.0</ele>
        <time>2013-07-02T12:14:45Z</time>
      </trkpt>
      <trkpt lat="40.186167" lon="-4.846350">
        <ele>985.0</ele>
        <time>2013-07-02T12:14:46Z</time>
      </trkpt>
      <trkpt lat="40.186250" lon="-4.846367">
        <ele>988.0</ele>
        <time>2013-07-02T12:14:47Z</time>
      </trkpt>
      <trkpt lat="40.186300" lon="-4.846383">
        <ele>991.0</ele>
        <time>2013-07-02T12:14:48Z</time>
      </trkpt>
      <trkpt lat="40.186350" lon="-4.846383">
        <ele>993.0</ele>
        <time>2013-07-02T12:14:49Z</time>
      </trkpt>
      <trkpt lat="40.186433" lon="-4.846383">
        <ele>994.0</ele>
        <time>2013-07-02T12:14:50Z</time>
      </trkpt>
      <trkpt lat="40.186517" lon="-4.846400">
        <ele>995.0</ele>
        <time>2013-07-02T12:14:51Z</time>
      </trkpt>
      <trkpt lat="40.186583" lon="-4.846450">
        <ele>996.0</ele>
        <time>2013-07-02T12:14:52Z</time>
      </trkpt>
      <trkpt lat="40.186617" lon="-4.846533">
        <ele>999.0</ele>
        <time>2013-07-02T12:14:53Z</time>
      </trkpt>
      <trkpt lat="40.186617" lon="-4.846617">
        <ele>1002.0</ele>
        <time>2013-07-02T12:14:54Z</time>
      </trkpt>
      <trkpt lat="40.186583" lon="-4.846667">
        <ele>1004.0</ele>
        <time>2013-07-02T12:14:55Z</time>
      </trkpt>
      <trkpt lat="40.186517" lon="-4.846667">
        <ele>1006.0</ele>
        <time>2013-07-02T12:14:56Z</time>
      </trkpt>
      <trkpt lat="40.186467" lon="-4.846600">
        <ele>1010.0</ele>
        <time>2013-07-02T12:14:57Z</time>
      </trkpt>
      <trkpt lat="40.186433" lon="-4.846533">
        <ele>1013.0</ele>
        <time>2013-07-02T12:14:58Z</time>
      </trkpt>
      <trkpt lat="40.186417" lon="-4.846467">
        <ele>1016.0</ele>
        <time>2013-07-02T12:14:59Z</time>
      </trkpt>
      <trkpt lat="40.186383" lon="-4.846400">
        <ele>1018.0</ele>
        <time>2013-07-02T12:15:00Z</time>
      </trkpt>
      <trkpt lat="40.186367" lon="-4.846333">
        <ele>1019.0</ele>
        <time>2013-07-02T12:15:01Z</time>
      </trkpt>
      <trkpt lat="40.186317" lon="-4.846283">
        <ele>1019.0</ele>
        <time>2013-07-02T12:15:02Z</time>
      </trkpt>
      <trkpt lat="40.186250" lon="-4.846250">
        <ele>1019.0</ele>
        <time>2013-07-02T12:15:03Z</time>
      </trkpt>
      <trkpt lat="40.186200" lon="-4.846233">
        <ele>1020.0</ele>
        <time>2013-07-02T12:15:04Z</time>
      </trkpt>
      <trkpt lat="40.186133" lon="-4.846233">
        <ele>1020.0</ele>
        <time>2013-07-02T12:15:05Z</time>
      </trkpt>
      <trkpt lat="40.186067" lon="-4.846233">
        <ele>1020.0</ele>
        <time>2013-07-02T12:15:06Z</time>
      </trkpt>
      <trkpt lat="40.186000" lon="-4.846233">
        <ele>1021.0</ele>
        <time>2013-07-02T12:15:07Z</time>
      </trkpt>
      <trkpt lat="40.185933" lon="-4.846217">
        <ele>1020.0</ele>
        <time>2013-07-02T12:15:08Z</time>
      </trkpt>
      <trkpt lat="40.185867" lon="-4.846217">
        <ele>1020.0</ele>
        <time>2013-07-02T12:15:09Z</time>
      </trkpt>
      <trkpt lat="40.185800" lon="-4.846217">
        <ele>1020.0</ele>
        <time>2013-07-02T12:15:10Z</time>
      </trkpt>
      <trkpt lat="40.185717" lon="-4.846233">
        <ele>1020.0</ele>
        <time>2013-07-02T12:15:11Z</time>
      </trkpt>
      <trkpt lat="40.185633" lon="-4.846233">
        <ele>1019.0</ele>
        <time>2013-07-02T12:15:12Z</time>
      </trkpt>
      <trkpt lat="40.185567" lon="-4.846250">
        <ele>1020.0</ele>
        <time>2013-07-02T12:15:13Z</time>
      </trkpt>
      <trkpt lat="40.185483" lon="-4.846267">
        <ele>1020.0</ele>
        <time>2013-07-02T12:15:14Z</time>
      </trkpt>
      <trkpt lat="40.185417" lon="-4.846283">
        <ele>1022.0</ele>
        <time>2013-07-02T12:15:15Z</time>
      </trkpt>
      <trkpt lat="40.185350" lon="-4.846317">
        <ele>1023.0</ele>
        <time>2013-07-02T12:15:16Z</time>
      </trkpt>
      <trkpt lat="40.185283" lon="-4.846350">
        <ele>1025.0</ele>
        <time>2013-07-02T12:15:17Z</time>
      </trkpt>
      <trkpt lat="40.185217" lon="-4.846383">
        <ele>1028.0</ele>
        <time>2013-07-02T12:15:18Z</time>
      </trkpt>
      <trkpt lat="40.185167" lon="-4.846417">
        <ele>1029.0</ele>
        <time>2013-07-02T12:15:19Z</time>
      </trkpt>
      <trkpt lat="40.185117" lon="-4.846450">
        <ele>1031.0</ele>
        <time>2013-07-02T12:15:20Z</time>
      </trkpt>
      <trkpt lat="40.185083" lon="-4.846483">
        <ele>1032.0</ele>
        <time>2013-07-02T12:15:21Z</time>
      </trkpt>
      <trkpt lat="40.185033" lon="-4.846517">
        <ele>1033.0</ele>
        <time>2013-07-02T12:15:22Z</time>
      </trkpt>
      <trkpt lat="40.184983" lon="-4.846550">
        <ele>1034.0</ele>
        <time>2013-07-02T12:15:23Z</time>
      </trkpt>
      <trkpt lat="40.184933" lon="-4.846567">
        <ele>1035.0</ele>
        <time>2013-07-02T12:15:24Z</time>
      </trkpt>
      <trkpt lat="40.184883" lon="-4.846583">
        <ele>1036.0</ele>
        <time>2013-07-02T12:15:25Z</time>
      </trkpt>
      <trkpt lat="40.184817" lon="-4.846583">
        <ele>1038.0</ele>
        <time>2013-07-02T12:15:26Z</time>
      </trkpt>
      <trkpt lat="40.184767" lon="-4.846600">
        <ele>1039.0</ele>
        <time>2013-07-02T12:15:27Z</time>
      </trkpt>
      <trkpt lat="40.184717" lon="-4.846617">
        <ele>1042.0</ele>
        <time>2013-07-02T12:15:28Z</time>
      </trkpt>
      <trkpt lat="40.184683" lon="-4.846633">
        <ele>1044.0</ele>
        <time>2013-07-02T12:15:29Z</time>
      </trkpt>
      <trkpt lat="40.184633" lon="-4.846633">
        <ele>1046.0</ele>
        <time>2013-07-02T12:15:30Z</time>
      </trkpt>
      <trkpt lat="40.184600" lon="-4.846633">
        <ele>1046.0</ele>
        <time>2013-07-02T12:15:31Z</time>
      </trkpt>
      <trkpt lat="40.184550" lon="-4.846633">
        <ele>1047.0</ele>
        <time>2013-07-02T12:15:32Z</time>
      </trkpt>
      <trkpt lat="40.184500" lon="-4.846633">
        <ele>1048.0</ele>
        <time>2013-07-02T12:15:33Z</time>
      </trkpt>
      <trkpt lat="40.184450" lon="-4.846617">
        <ele>1050.0</ele>
        <time>2013-07-02T12:15:34Z</time>
      </trkpt>
      <trkpt lat="40.184400" lon="-4.846567">
        <ele>1051.0</ele>
        <time>2013-07-02T12:15:35Z</time>
      </trkpt>
      <trkpt lat="40.184367" lon="-4.846467">
        <ele>1052.0</ele>
        <time>2013-07-02T12:15:36Z</time>
      </trkpt>
      <trkpt lat="40.184367" lon="-4.846350">
        <ele>1052.0</ele>
        <time>2013-07-02T12:15:37Z</time>
      </trkpt>
      <trkpt lat="40.184383" lon="-4.846233">
        <ele>1053.0</ele>
        <time>2013-07-02T12:15:38Z</time>
      </trkpt>
      <trkpt lat="40.184400" lon="-4.846117">
        <ele>1054.0</ele>
        <time>2013-07-02T12:15:39Z</time>
      </trkpt>
      <trkpt lat="40.184450" lon="-4.846000">
        <ele>1056.0</ele>
        <time>2013-07-02T12:15:40Z</time>
      </trkpt>
      <trkpt lat="40.184500" lon="-4.845900">
        <ele>1057.0</ele>
        <time>2013-07-02T12:15:41Z</time>
      </trkpt>
      <trkpt lat="40.184600" lon="-4.845850">
        <ele>1058.0</ele>
        <time>2013-07-02T12:15:42Z</time>
      </trkpt>
      <trkpt lat="40.184683" lon="-4.845867">
        <ele>1059.0</ele>
        <time>2013-07-02T12:15:43Z</time>
      </trkpt>
      <trkpt lat="40.184767" lon="-4.845900">
        <ele>1060.0</ele>
        <time>2013-07-02T12:15:44Z</time>
      </trkpt>
      <trkpt lat="40.184817" lon="-4.845967">
        <ele>1061.0</ele>
        <time>2013-07-02T12:15:45Z</time>
      </trkpt>
      <trkpt lat="40.184833" lon="-4.846033">
        <ele>1063.0</ele>
        <time>2013-07-02T12:15:46Z</time>
      </trkpt>
      <trkpt lat="40.184817" lon="-4.846100">
        <ele>1063.0</ele>
        <time>2013-07-02T12:15:47Z</time>
      </trkpt>
      <trkpt lat="40.184800" lon="-4.846167">
        <ele>1064.0</ele>
        <time>2013-07-02T12:15:48Z</time>
      </trkpt>
      <trkpt lat="40.184767" lon="-4.846233">
        <ele>1065.0</ele>
        <time>2013-07-02T12:15:49Z</time>
      </trkpt>
      <trkpt lat="40.184717" lon="-4.846283">
        <ele>1066.0</ele>
        <time>2013-07-02T12:15:50Z</time>
      </trkpt>
      <trkpt lat="40.184633" lon="-4.846333">
        <ele>1067.0</ele>
        <time>2013-07-02T12:15:51Z</time>
      </trkpt>
      <trkpt lat="40.184567" lon="-4.846367">
        <ele>1068.0</ele>
        <time>2013-07-02T12:15:52Z</time>
      </trkpt>
      <trkpt lat="40.184483" lon="-4.846400">
        <ele>1070.0</ele>
        <time>2013-07-02T12:15:53Z</time>
      </trkpt>
      <trkpt lat="40.184417" lon="-4.846417">
        <ele>1072.0</ele>
        <time>2013-07-02T12:15:54Z</time>
      </trkpt>
      <trkpt lat="40.184333" lon="-4.846433">
        <ele>1074.0</ele>
        <time>2013-07-02T12:15:55Z</time>
      </trkpt>
      <trkpt lat="40.184283" lon="-4.846450">
        <ele>1075.0</ele>
        <time>2013-07-02T12:15:56Z</time>
      </trkpt>
      <trkpt lat="40.184233" lon="-4.846467">
        <ele>1075.0</ele>
        <time>2013-07-02T12:15:57Z</time>
      </trkpt>
      <trkpt lat="40.184200" lon="-4.846500">
        <ele>1075.0</ele>
        <time>2013-07-02T12:15:58Z</time>
      </trkpt>
      <trkpt lat="40.184150" lon="-4.846517">
        <ele>1074.0</ele>
        <time>2013-07-02T12:15:59Z</time>
      </trkpt>
      <trkpt lat="40.184083" lon="-4.846533">
        <ele>1071.0</ele>
        <time>2013-07-02T12:16:00Z</time>
      </trkpt>
      <trkpt lat="40.184017" lon="-4.846533">
        <ele>1069.0</ele>
        <time>2013-07-02T12:16:01Z</time>
      </trkpt>
      <trkpt lat="40.183933" lon="-4.846533">
        <ele>1066.0</ele>
        <time>2013-07-02T12:16:02Z</time>
      </trkpt>
      <trkpt lat="40.183833" lon="-4.846533">
        <ele>1064.0</ele>
        <time>2013-07-02T12:16:03Z</time>
      </trkpt>
      <trkpt lat="40.183750" lon="-4.846533">
        <ele>1063.0</ele>
        <time>2013-07-02T12:16:04Z</time>
      </trkpt>
      <trkpt lat="40.183683" lon="-4.846533">
        <ele>1061.0</ele>
        <time>2013-07-02T12:16:05Z</time>
      </trkpt>
      <trkpt lat="40.183617" lon="-4.846533">
        <ele>1060.0</ele>
        <time>2013-07-02T12:16:06Z</time>
      </trkpt>
      <trkpt lat="40.183533" lon="-4.846517">
        <ele>1059.0</ele>
        <time>2013-07-02T12:16:07Z</time>
      </trkpt>
      <trkpt lat="40.183450" lon="-4.846500">
        <ele>1057.0</ele>
        <time>2013-07-02T12:16:08Z</time>
      </trkpt>
      <trkpt lat="40.183367" lon="-4.846500">
        <ele>1056.0</ele>
        <time>2013-07-02T12:16:09Z</time>
      </trkpt>
      <trkpt lat="40.183300" lon="-4.846517">
        <ele>1057.0</ele>
        <time>2013-07-02T12:16:10Z</time>
      </trkpt>
      <trkpt lat="40.183233" lon="-4.846517">
        <ele>1058.0</ele>
        <time>2013-07-02T12:16:11Z</time>
      </trkpt>
      <trkpt lat="40.183167" lon="-4.846517">
        <ele>1059.0</ele>
        <time>2013-07-02T12:16:12Z</time>
      </trkpt>
      <trkpt lat="40.183100" lon="-4.846517">
        <ele>1060.0</ele>
        <time>2013-07-02T12:16:13Z</time>
      </trkpt>
      <trkpt lat="40.183050" lon="-4.846500">
        <ele>1062.0</ele>
        <time>2013-07-02T12:16:14Z</time>
      </trkpt>
      <trkpt lat="40.183017" lon="-4.846500">
        <ele>1063.0</ele>
        <time>2013-07-02T12:16:15Z</time>
      </trkpt>
      <trkpt lat="40.183000" lon="-4.846500">
        <ele>1064.0</ele>
        <time>2013-07-02T12:16:16Z</time>
      </trkpt>
      <trkpt lat="40.182983" lon="-4.846517">
        <ele>1064.0</ele>
        <time>2013-07-02T12:16:17Z</time>
      </trkpt>
      <trkpt lat="40.182950" lon="-4.846517">
        <ele>1063.0</ele>
        <time>2013-07-02T12:16:18Z</time>
      </trkpt>
      <trkpt lat="40.182917" lon="-4.846517">
        <ele>1062.0</ele>
        <time>2013-07-02T12:16:19Z</time>
      </trkpt>
      <trkpt lat="40.182867" lon="-4.846517">
        <ele>1061.0</ele>
        <time>2013-07-02T12:16:20Z</time>
      </trkpt>
      <trkpt lat="40.182817" lon="-4.846533">
        <ele>1059.0</ele>
        <time>2013-07-02T12:16:21Z</time>
      </trkpt>
      <trkpt lat="40.182750" lon="-4.846550">
        <ele>1058.0</ele>
        <time>2013-07-02T12:16:22Z</time>
      </trkpt>
      <trkpt lat="40.182683" lon="-4.846567">
        <ele>1057.0</ele>
        <time>2013-07-02T12:16:23Z</time>
      </trkpt>
      <trkpt lat="40.182600" lon="-4.846600">
        <ele>1057.0</ele>
        <time>2013-07-02T12:16:24Z</time>
      </trkpt>
      <trkpt lat="40.182550" lon="-4.846600">
        <ele>1059.0</ele>
        <time>2013-07-02T12:16:25Z</time>
      </trkpt>
      <trkpt lat="40.182483" lon="-4.846600">
        <ele>1060.0</ele>
        <time>2013-07-02T12:16:26Z</time>
      </trkpt>
      <trkpt lat="40.182433" lon="-4.846617">
        <ele>1062.0</ele>
        <time>2013-07-02T12:16:27Z</time>
      </trkpt>
      <trkpt lat="40.182400" lon="-4.846633">
        <ele>1063.0</ele>
        <time>2013-07-02T12:16:28Z</time>
      </trkpt>
      <trkpt lat="40.182350" lon="-4.846667">
        <ele>1065.0</ele>
        <time>2013-07-02T12:16:29Z</time>
      </trkpt>
      <trkpt lat="40.182317" lon="-4.846667">
        <ele>1067.0</ele>
        <time>2013-07-02T12:16:30Z</time>
      </trkpt>
      <trkpt lat="40.182283" lon="-4.846667">
        <ele>1069.0</ele>
        <time>2013-07-02T12:16:31Z</time>
      </trkpt>
      <trkpt lat="40.182267" lon="-4.846667">
        <ele>1070.0</ele>
        <time>2013-07-02T12:16:32Z</time>
      </trkpt>
      <trkpt lat="40.182250" lon="-4.846683">
        <ele>1070.0</ele>
        <time>2013-07-02T12:16:33Z</time>
      </trkpt>
      <trkpt lat="40.182217" lon="-4.846700">
        <ele>1070.0</ele>
        <time>2013-07-02T12:16:34Z</time>
      </trkpt>
      <trkpt lat="40.182183" lon="-4.846717">
        <ele>1069.0</ele>
        <time>2013-07-02T12:16:35Z</time>
      </trkpt>
      <trkpt lat="40.182133" lon="-4.846717">
        <ele>1069.0</ele>
        <time>2013-07-02T12:16:36Z</time>
      </trkpt>
      <trkpt lat="40.182067" lon="-4.846750">
        <ele>1068.0</ele>
        <time>2013-07-02T12:16:37Z</time>
      </trkpt>
      <trkpt lat="40.181983" lon="-4.846767">
        <ele>1068.0</ele>
        <time>2013-07-02T12:16:38Z</time>
      </trkpt>
      <trkpt lat="40.181917" lon="-4.846783">
        <ele>1069.0</ele>
        <time>2013-07-02T12:16:39Z</time>
      </trkpt>
      <trkpt lat="40.181850" lon="-4.846800">
        <ele>1070.0</ele>
        <time>2013-07-02T12:16:40Z</time>
      </trkpt>
      <trkpt lat="40.181800" lon="-4.846833">
        <ele>1070.0</ele>
        <time>2013-07-02T12:16:41Z</time>
      </trkpt>
      <trkpt lat="40.181733" lon="-4.846850">
        <ele>1068.0</ele>
        <time>2013-07-02T12:16:42Z</time>
      </trkpt>
      <trkpt lat="40.181683" lon="-4.846900">
        <ele>1067.0</ele>
        <time>2013-07-02T12:16:43Z</time>
      </trkpt>
      <trkpt lat="40.181600" lon="-4.846967">
        <ele>1066.0</ele>
        <time>2013-07-02T12:16:44Z</time>
      </trkpt>
      <trkpt lat="40.181533" lon="-4.847017">
        <ele>1067.0</ele>
        <time>2013-07-02T12:16:45Z</time>
      </trkpt>
      <trkpt lat="40.181467" lon="-4.847083">
        <ele>1069.0</ele>
        <time>2013-07-02T12:16:46Z</time>
      </trkpt>
      <trkpt lat="40.181417" lon="-4.847150">
        <ele>1072.0</ele>
        <time>2013-07-02T12:16:47Z</time>
      </trkpt>
      <trkpt lat="40.181367" lon="-4.847217">
        <ele>1074.0</ele>
        <time>2013-07-02T12:16:48Z</time>
      </trkpt>
      <trkpt lat="40.181333" lon="-4.847283">
        <ele>1075.0</ele>
        <time>2013-07-02T12:16:49Z</time>
      </trkpt>
      <trkpt lat="40.181283" lon="-4.847367">
        <ele>1076.0</ele>
        <time>2013-07-02T12:16:50Z</time>
      </trkpt>
      <trkpt lat="40.181233" lon="-4.847433">
        <ele>1077.0</ele>
        <time>2013-07-02T12:16:51Z</time>
      </trkpt>
      <trkpt lat="40.181167" lon="-4.847500">
        <ele>1078.0</ele>
        <time>2013-07-02T12:16:52Z</time>
      </trkpt>
      <trkpt lat="40.181117" lon="-4.847550">
        <ele>1079.0</ele>
        <time>2013-07-02T12:16:53Z</time>
      </trkpt>
      <trkpt lat="40.181050" lon="-4.847600">
        <ele>1079.0</ele>
        <time>2013-07-02T12:16:54Z</time>
      </trkpt>
      <trkpt lat="40.181000" lon="-4.847650">
        <ele>1078.0</ele>
        <time>2013-07-02T12:16:55Z</time>
      </trkpt>
      <trkpt lat="40.180950" lon="-4.847717">
        <ele>1078.0</ele>
        <time>2013-07-02T12:16:56Z</time>
      </trkpt>
      <trkpt lat="40.180900" lon="-4.847783">
        <ele>1077.0</ele>
        <time>2013-07-02T12:16:57Z</time>
      </trkpt>
      <trkpt lat="40.180850" lon="-4.847850">
        <ele>1076.0</ele>
        <time>2013-07-02T12:16:58Z</time>
      </trkpt>
      <trkpt lat="40.180817" lon="-4.847917">
        <ele>1075.0</ele>
        <time>2013-07-02T12:16:59Z</time>
      </trkpt>
      <trkpt lat="40.180767" lon="-4.848000">
        <ele>1074.0</ele>
        <time>2013-07-02T12:17:00Z</time>
      </trkpt>
      <trkpt lat="40.180717" lon="-4.848050">
        <ele>1073.0</ele>
        <time>2013-07-02T12:17:01Z</time>
      </trkpt>
      <trkpt lat="40.180683" lon="-4.848100">
        <ele>1072.0</ele>
        <time>2013-07-02T12:17:02Z</time>
      </trkpt>
      <trkpt lat="40.180633" lon="-4.848150">
        <ele>1070.0</ele>
        <time>2013-07-02T12:17:03Z</time>
      </trkpt>
      <trkpt lat="40.180600" lon="-4.848217">
        <ele>1066.0</ele>
        <time>2013-07-02T12:17:04Z</time>
      </trkpt>
      <trkpt lat="40.180583" lon="-4.848317">
        <ele>1063.0</ele>
        <time>2013-07-02T12:17:05Z</time>
      </trkpt>
      <trkpt lat="40.180550" lon="-4.848400">
        <ele>1061.0</ele>
        <time>2013-07-02T12:17:06Z</time>
      </trkpt>
      <trkpt lat="40.180500" lon="-4.848500">
        <ele>1059.0</ele>
        <time>2013-07-02T12:17:07Z</time>
      </trkpt>
      <trkpt lat="40.180483" lon="-4.848583">
        <ele>1058.0</ele>
        <time>2013-07-02T12:17:08Z</time>
      </trkpt>
      <trkpt lat="40.180450" lon="-4.848683">
        <ele>1056.0</ele>
        <time>2013-07-02T12:17:09Z</time>
      </trkpt>
      <trkpt lat="40.180417" lon="-4.848767">
        <ele>1055.0</ele>
        <time>2013-07-02T12:17:10Z</time>
      </trkpt>
      <trkpt lat="40.180400" lon="-4.848867">
        <ele>1053.0</ele>
        <time>2013-07-02T12:17:11Z</time>
      </trkpt>
      <trkpt lat="40.180383" lon="-4.848950">
        <ele>1051.0</ele>
        <time>2013-07-02T12:17:12Z</time>
      </trkpt>
      <trkpt lat="40.180367" lon="-4.849033">
        <ele>1050.0</ele>
        <time>2013-07-02T12:17:13Z</time>
      </trkpt>
      <trkpt lat="40.180350" lon="-4.849117">
        <ele>1048.0</ele>
        <time>2013-07-02T12:17:14Z</time>
      </trkpt>
      <trkpt lat="40.180333" lon="-4.849200">
        <ele>1046.0</ele>
        <time>2013-07-02T12:17:15Z</time>
      </trkpt>
      <trkpt lat="40.180317" lon="-4.849283">
        <ele>1044.0</ele>
        <time>2013-07-02T12:17:16Z</time>
      </trkpt>
      <trkpt lat="40.180317" lon="-4.849383">
        <ele>1041.0</ele>
        <time>2013-07-02T12:17:17Z</time>
      </trkpt>
      <trkpt lat="40.180317" lon="-4.849467">
        <ele>1038.0</ele>
        <time>2013-07-02T12:17:18Z</time>
      </trkpt>
      <trkpt lat="40.180300" lon="-4.849567">
        <ele>1037.0</ele>
        <time>2013-07-02T12:17:19Z</time>
      </trkpt>
      <trkpt lat="40.180300" lon="-4.849617">
        <ele>1035.0</ele>
        <time>2013-07-02T12:17:20Z</time>
      </trkpt>
      <trkpt lat="40.180283" lon="-4.849633">
        <ele>1033.0</ele>
        <time>2013-07-02T12:17:21Z</time>
      </trkpt>
      <trkpt lat="40.180267" lon="-4.849633">
        <ele>1030.0</ele>
        <time>2013-07-02T12:17:22Z</time>
      </trkpt>
      <trkpt lat="40.180233" lon="-4.849617">
        <ele>1026.0</ele>
        <time>2013-07-02T12:17:23Z</time>
      </trkpt>
      <trkpt lat="40.180183" lon="-4.849583">
        <ele>1021.0</ele>
        <time>2013-07-02T12:17:24Z</time>
      </trkpt>
      <trkpt lat="40.180150" lon="-4.849500">
        <ele>1017.0</ele>
        <time>2013-07-02T12:17:25Z</time>
      </trkpt>
      <trkpt lat="40.180117" lon="-4.849400">
        <ele>1014.0</ele>
        <time>2013-07-02T12:17:26Z</time>
      </trkpt>
      <trkpt lat="40.180100" lon="-4.849283">
        <ele>1012.0</ele>
        <time>2013-07-02T12:17:27Z</time>
      </trkpt>
      <trkpt lat="40.180117" lon="-4.849183">
        <ele>1011.0</ele>
        <time>2013-07-02T12:17:28Z</time>
      </trkpt>
      <trkpt lat="40.180133" lon="-4.849083">
        <ele>1011.0</ele>
        <time>2013-07-02T12:17:29Z</time>
      </trkpt>
      <trkpt lat="40.180167" lon="-4.848983">
        <ele>1012.0</ele>
        <time>2013-07-02T12:17:30Z</time>
      </trkpt>
      <trkpt lat="40.180167" lon="-4.848883">
        <ele>1011.0</ele>
        <time>2013-07-02T12:17:31Z</time>
      </trkpt>
      <trkpt lat="40.180150" lon="-4.848800">
        <ele>1010.0</ele>
        <time>2013-07-02T12:17:32Z</time>
      </trkpt>
      <trkpt lat="40.180150" lon="-4.848717">
        <ele>1009.0</ele>
        <time>2013-07-02T12:17:33Z</time>
      </trkpt>
      <trkpt lat="40.180133" lon="-4.848633">
        <ele>1009.0</ele>
        <time>2013-07-02T12:17:34Z</time>
      </trkpt>
      <trkpt lat="40.180150" lon="-4.848550">
        <ele>1010.0</ele>
        <time>2013-07-02T12:17:35Z</time>
      </trkpt>
      <trkpt lat="40.180167" lon="-4.848483">
        <ele>1010.0</ele>
        <time>2013-07-02T12:17:36Z</time>
      </trkpt>
      <trkpt lat="40.180200" lon="-4.848400">
        <ele>1011.0</ele>
        <time>2013-07-02T12:17:37Z</time>
      </trkpt>
      <trkpt lat="40.180233" lon="-4.848333">
        <ele>1011.0</ele>
        <time>2013-07-02T12:17:38Z</time>
      </trkpt>
      <trkpt lat="40.180267" lon="-4.848233">
        <ele>1010.0</ele>
        <time>2013-07-02T12:17:39Z</time>
      </trkpt>
      <trkpt lat="40.180300" lon="-4.848150">
        <ele>1010.0</ele>
        <time>2013-07-02T12:17:40Z</time>
      </trkpt>
      <trkpt lat="40.180333" lon="-4.848050">
        <ele>1009.0</ele>
        <time>2013-07-02T12:17:41Z</time>
      </trkpt>
      <trkpt lat="40.180367" lon="-4.847950">
        <ele>1007.0</ele>
        <time>2013-07-02T12:17:42Z</time>
      </trkpt>
      <trkpt lat="40.180383" lon="-4.847833">
        <ele>1005.0</ele>
        <time>2013-07-02T12:17:43Z</time>
      </trkpt>
      <trkpt lat="40.180417" lon="-4.847733">
        <ele>1003.0</ele>
        <time>2013-07-02T12:17:44Z</time>
      </trkpt>
      <trkpt lat="40.180450" lon="-4.847633">
        <ele>1001.0</ele>
        <time>2013-07-02T12:17:45Z</time>
      </trkpt>
      <trkpt lat="40.180483" lon="-4.847533">
        <ele>999.0</ele>
        <time>2013-07-02T12:17:46Z</time>
      </trkpt>
      <trkpt lat="40.180517" lon="-4.847433">
        <ele>998.0</ele>
        <time>2013-07-02T12:17:47Z</time>
      </trkpt>
      <trkpt lat="40.180550" lon="-4.847317">
        <ele>997.0</ele>
        <time>2013-07-02T12:17:48Z</time>
      </trkpt>
      <trkpt lat="40.180583" lon="-4.847217">
        <ele>995.0</ele>
        <time>2013-07-02T12:17:49Z</time>
      </trkpt>
      <trkpt lat="40.180617" lon="-4.847100">
        <ele>993.0</ele>
        <time>2013-07-02T12:17:50Z</time>
      </trkpt>
      <trkpt lat="40.180667" lon="-4.846983">
        <ele>991.0</ele>
        <time>2013-07-02T12:17:51Z</time>
      </trkpt>
      <trkpt lat="40.180717" lon="-4.846867">
        <ele>990.0</ele>
        <time>2013-07-02T12:17:52Z</time>
      </trkpt>
      <trkpt lat="40.180733" lon="-4.846733">
        <ele>990.0</ele>
        <time>2013-07-02T12:17:53Z</time>
      </trkpt>
      <trkpt lat="40.180767" lon="-4.846633">
        <ele>990.0</ele>
        <time>2013-07-02T12:17:54Z</time>
      </trkpt>
      <trkpt lat="40.180783" lon="-4.846533">
        <ele>990.0</ele>
        <time>2013-07-02T12:17:55Z</time>
      </trkpt>
      <trkpt lat="40.180817" lon="-4.846433">
        <ele>989.0</ele>
        <time>2013-07-02T12:17:56Z</time>
      </trkpt>
      <trkpt lat="40.180867" lon="-4.846333">
        <ele>987.0</ele>
        <time>2013-07-02T12:17:57Z</time>
      </trkpt>
      <trkpt lat="40.180900" lon="-4.846217">
        <ele>985.0</ele>
        <time>2013-07-02T12:17:58Z</time>
      </trkpt>
      <trkpt lat="40.180950" lon="-4.846083">
        <ele>983.0</ele>
        <time>2013-07-02T12:17:59Z</time>
      </trkpt>
      <trkpt lat="40.180967" lon="-4.845950">
        <ele>981.0</ele>
        <time>2013-07-02T12:18:00Z</time>
      </trkpt>
      <trkpt lat="40.181000" lon="-4.845817">
        <ele>979.0</ele>
        <time>2013-07-02T12:18:01Z</time>
      </trkpt>
      <trkpt lat="40.181033" lon="-4.845683">
        <ele>978.0</ele>
        <time>2013-07-02T12:18:02Z</time>
      </trkpt>
      <trkpt lat="40.181050" lon="-4.845567">
        <ele>976.0</ele>
        <time>2013-07-02T12:18:03Z</time>
      </trkpt>
      <trkpt lat="40.181100" lon="-4.845433">
        <ele>974.0</ele>
        <time>2013-07-02T12:18:04Z</time>
      </trkpt>
      <trkpt lat="40.181133" lon="-4.845283">
        <ele>973.0</ele>
        <time>2013-07-02T12:18:05Z</time>
      </trkpt>
      <trkpt lat="40.181167" lon="-4.845150">
        <ele>972.0</ele>
        <time>2013-07-02T12:18:06Z</time>
      </trkpt>
      <trkpt lat="40.181200" lon="-4.845033">
        <ele>972.0</ele>
        <time>2013-07-02T12:18:07Z</time>
      </trkpt>
      <trkpt lat="40.181217" lon="-4.844917">
        <ele>972.0</ele>
        <time>2013-07-02T12:18:08Z</time>
      </trkpt>
      <trkpt lat="40.181233" lon="-4.844800">
        <ele>971.0</ele>
        <time>2013-07-02T12:18:09Z</time>
      </trkpt>
      <trkpt lat="40.181267" lon="-4.844667">
        <ele>969.0</ele>
        <time>2013-07-02T12:18:10Z</time>
      </trkpt>
      <trkpt lat="40.181300" lon="-4.844550">
        <ele>967.0</ele>
        <time>2013-07-02T12:18:11Z</time>
      </trkpt>
      <trkpt lat="40.181333" lon="-4.844400">
        <ele>964.0</ele>
        <time>2013-07-02T12:18:12Z</time>
      </trkpt>
      <trkpt lat="40.181367" lon="-4.844250">
        <ele>962.0</ele>
        <time>2013-07-02T12:18:13Z</time>
      </trkpt>
      <trkpt lat="40.181400" lon="-4.844100">
        <ele>962.0</ele>
        <time>2013-07-02T12:18:14Z</time>
      </trkpt>
      <trkpt lat="40.181433" lon="-4.843967">
        <ele>962.0</ele>
        <time>2013-07-02T12:18:15Z</time>
      </trkpt>
      <trkpt lat="40.181467" lon="-4.843833">
        <ele>961.0</ele>
        <time>2013-07-02T12:18:16Z</time>
      </trkpt>
      <trkpt lat="40.181500" lon="-4.843717">
        <ele>960.0</ele>
        <time>2013-07-02T12:18:17Z</time>
      </trkpt>
      <trkpt lat="40.181533" lon="-4.843583">
        <ele>958.0</ele>
        <time>2013-07-02T12:18:18Z</time>
      </trkpt>
      <trkpt lat="40.181550" lon="-4.843433">
        <ele>956.0</ele>
        <time>2013-07-02T12:18:19Z</time>
      </trkpt>
      <trkpt lat="40.181583" lon="-4.843283">
        <ele>953.0</ele>
        <time>2013-07-02T12:18:20Z</time>
      </trkpt>
      <trkpt lat="40.181600" lon="-4.843117">
        <ele>952.0</ele>
        <time>2013-07-02T12:18:21Z</time>
      </trkpt>
      <trkpt lat="40.181617" lon="-4.842950">
        <ele>951.0</ele>
        <time>2013-07-02T12:18:22Z</time>
      </trkpt>
      <trkpt lat="40.181633" lon="-4.842800">
        <ele>952.0</ele>
        <time>2013-07-02T12:18:23Z</time>
      </trkpt>
      <trkpt lat="40.181633" lon="-4.842667">
        <ele>955.0</ele>
        <time>2013-07-02T12:18:24Z</time>
      </trkpt>
      <trkpt lat="40.181650" lon="-4.842600">
        <ele>957.0</ele>
        <time>2013-07-02T12:18:25Z</time>
      </trkpt>
      <trkpt lat="40.181650" lon="-4.842517">
        <ele>958.0</ele>
        <time>2013-07-02T12:18:26Z</time>
      </trkpt>
      <trkpt lat="40.181667" lon="-4.842433">
        <ele>956.0</ele>
        <time>2013-07-02T12:18:27Z</time>
      </trkpt>
      <trkpt lat="40.181683" lon="-4.842317">
        <ele>954.0</ele>
        <time>2013-07-02T12:18:28Z</time>
      </trkpt>
      <trkpt lat="40.181717" lon="-4.842183">
        <ele>952.0</ele>
        <time>2013-07-02T12:18:29Z</time>
      </trkpt>
      <trkpt lat="40.181750" lon="-4.842050">
        <ele>950.0</ele>
        <time>2013-07-02T12:18:30Z</time>
      </trkpt>
      <trkpt lat="40.181783" lon="-4.841900">
        <ele>950.0</ele>
        <time>2013-07-02T12:18:31Z</time>
      </trkpt>
      <trkpt lat="40.181817" lon="-4.841767">
        <ele>951.0</ele>
        <time>2013-07-02T12:18:32Z</time>
      </trkpt>
      <trkpt lat="40.181833" lon="-4.841650">
        <ele>951.0</ele>
        <time>2013-07-02T12:18:33Z</time>
      </trkpt>
      <trkpt lat="40.181833" lon="-4.841533">
        <ele>950.0</ele>
        <time>2013-07-02T12:18:34Z</time>
      </trkpt>
      <trkpt lat="40.181833" lon="-4.841433">
        <ele>948.0</ele>
        <time>2013-07-02T12:18:35Z</time>
      </trkpt>
      <trkpt lat="40.181833" lon="-4.841300">
        <ele>944.0</ele>
        <time>2013-07-02T12:18:36Z</time>
      </trkpt>
      <trkpt lat="40.181850" lon="-4.841150">
        <ele>940.0</ele>
        <time>2013-07-02T12:18:37Z</time>
      </trkpt>
      <trkpt lat="40.181867" lon="-4.840983">
        <ele>938.0</ele>
        <time>2013-07-02T12:18:38Z</time>
      </trkpt>
      <trkpt lat="40.181883" lon="-4.840817">
        <ele>936.0</ele>
        <time>2013-07-02T12:18:39Z</time>
      </trkpt>
      <trkpt lat="40.181883" lon="-4.840650">
        <ele>937.0</ele>
        <time>2013-07-02T12:18:40Z</time>
      </trkpt>
      <trkpt lat="40.181900" lon="-4.840500">
        <ele>937.0</ele>
        <time>2013-07-02T12:18:41Z</time>
      </trkpt>
      <trkpt lat="40.181933" lon="-4.840367">
        <ele>935.0</ele>
        <time>2013-07-02T12:18:42Z</time>
      </trkpt>
      <trkpt lat="40.181967" lon="-4.840217">
        <ele>933.0</ele>
        <time>2013-07-02T12:18:43Z</time>
      </trkpt>
      <trkpt lat="40.182000" lon="-4.840050">
        <ele>931.0</ele>
        <time>2013-07-02T12:18:44Z</time>
      </trkpt>
      <trkpt lat="40.182050" lon="-4.839883">
        <ele>930.0</ele>
        <time>2013-07-02T12:18:45Z</time>
      </trkpt>
      <trkpt lat="40.182100" lon="-4.839717">
        <ele>930.0</ele>
        <time>2013-07-02T12:18:46Z</time>
      </trkpt>
      <trkpt lat="40.182150" lon="-4.839567">
        <ele>931.0</ele>
        <time>2013-07-02T12:18:47Z</time>
      </trkpt>
      <trkpt lat="40.182183" lon="-4.839433">
        <ele>932.0</ele>
        <time>2013-07-02T12:18:48Z</time>
      </trkpt>
      <trkpt lat="40.182200" lon="-4.839300">
        <ele>935.0</ele>
        <time>2013-07-02T12:18:49Z</time>
      </trkpt>
      <trkpt lat="40.182200" lon="-4.839183">
        <ele>937.0</ele>
        <time>2013-07-02T12:18:50Z</time>
      </trkpt>
      <trkpt lat="40.182183" lon="-4.839083">
        <ele>939.0</ele>
        <time>2013-07-02T12:18:51Z</time>
      </trkpt>
      <trkpt lat="40.182200" lon="-4.838950">
        <ele>941.0</ele>
        <time>2013-07-02T12:18:52Z</time>
      </trkpt>
      <trkpt lat="40.182217" lon="-4.838817">
        <ele>943.0</ele>
        <time>2013-07-02T12:18:53Z</time>
      </trkpt>
      <trkpt lat="40.182217" lon="-4.838683">
        <ele>946.0</ele>
        <time>2013-07-02T12:18:54Z</time>
      </trkpt>
      <trkpt lat="40.182200" lon="-4.838550">
        <ele>949.0</ele>
        <time>2013-07-02T12:18:55Z</time>
      </trkpt>
      <trkpt lat="40.182150" lon="-4.838433">
        <ele>951.0</ele>
        <time>2013-07-02T12:18:56Z</time>
      </trkpt>
      <trkpt lat="40.182133" lon="-4.838333">
        <ele>954.0</ele>
        <time>2013-07-02T12:18:57Z</time>
      </trkpt>
      <trkpt lat="40.182133" lon="-4.838217">
        <ele>956.0</ele>
        <time>2013-07-02T12:18:58Z</time>
      </trkpt>
      <trkpt lat="40.182167" lon="-4.838133">
        <ele>957.0</ele>
        <time>2013-07-02T12:18:59Z</time>
      </trkpt>
      <trkpt lat="40.182217" lon="-4.838067">
        <ele>960.0</ele>
        <time>2013-07-02T12:19:00Z</time>
      </trkpt>
      <trkpt lat="40.182250" lon="-4.838017">
        <ele>964.0</ele>
        <time>2013-07-02T12:19:01Z</time>
      </trkpt>
      <trkpt lat="40.182283" lon="-4.837983">
        <ele>968.0</ele>
        <time>2013-07-02T12:19:02Z</time>
      </trkpt>
      <trkpt lat="40.182300" lon="-4.837950">
        <ele>972.0</ele>
        <time>2013-07-02T12:19:03Z</time>
      </trkpt>
      <trkpt lat="40.182317" lon="-4.837900">
        <ele>974.0</ele>
        <time>2013-07-02T12:19:04Z</time>
      </trkpt>
      <trkpt lat="40.182333" lon="-4.837867">
        <ele>976.0</ele>
        <time>2013-07-02T12:19:05Z</time>
      </trkpt>
      <trkpt lat="40.182367" lon="-4.837867">
        <ele>977.0</ele>
        <time>2013-07-02T12:19:06Z</time>
      </trkpt>
      <trkpt lat="40.182383" lon="-4.837900">
        <ele>979.0</ele>
        <time>2013-07-02T12:19:07Z</time>
      </trkpt>
      <trkpt lat="40.182367" lon="-4.837950">
        <ele>981.0</ele>
        <time>2013-07-02T12:19:08Z</time>
      </trkpt>
      <trkpt lat="40.182350" lon="-4.838000">
        <ele>984.0</ele>
        <time>2013-07-02T12:19:09Z</time>
      </trkpt>
      <trkpt lat="40.182317" lon="-4.838017">
        <ele>987.0</ele>
        <time>2013-07-02T12:19:10Z</time>
      </trkpt>
      <trkpt lat="40.182267" lon="-4.838033">
        <ele>990.0</ele>
        <time>2013-07-02T12:19:11Z</time>
      </trkpt>
      <trkpt lat="40.182200" lon="-4.838017">
        <ele>992.0</ele>
        <time>2013-07-02T12:19:12Z</time>
      </trkpt>
      <trkpt lat="40.182133" lon="-4.838017">
        <ele>994.0</ele>
        <time>2013-07-02T12:19:13Z</time>
      </trkpt>
      <trkpt lat="40.182050" lon="-4.837983">
        <ele>997.0</ele>
        <time>2013-07-02T12:19:14Z</time>
      </trkpt>
      <trkpt lat="40.181983" lon="-4.837933">
        <ele>1000.0</ele>
        <time>2013-07-02T12:19:15Z</time>
      </trkpt>
      <trkpt lat="40.181900" lon="-4.837850">
        <ele>1003.0</ele>
        <time>2013-07-02T12:19:16Z</time>
      </trkpt>
      <trkpt lat="40.181850" lon="-4.837733">
        <ele>1006.0</ele>
        <time>2013-07-02T12:19:17Z</time>
      </trkpt>
      <trkpt lat="40.181817" lon="-4.837567">
        <ele>1008.0</ele>
        <time>2013-07-02T12:19:18Z</time>
      </trkpt>
      <trkpt lat="40.181800" lon="-4.837433">
        <ele>1012.0</ele>
        <time>2013-07-02T12:19:19Z</time>
      </trkpt>
      <trkpt lat="40.181800" lon="-4.837300">
        <ele>1016.0</ele>
        <time>2013-07-02T12:19:20Z</time>
      </trkpt>
      <trkpt lat="40.181817" lon="-4.837183">
        <ele>1020.0</ele>
        <time>2013-07-02T12:19:21Z</time>
      </trkpt>
      <trkpt lat="40.181850" lon="-4.837067">
        <ele>1022.0</ele>
        <time>2013-07-02T12:19:22Z</time>
      </trkpt>
      <trkpt lat="40.181883" lon="-4.836950">
        <ele>1025.0</ele>
        <time>2013-07-02T12:19:23Z</time>
      </trkpt>
      <trkpt lat="40.181933" lon="-4.836833">
        <ele>1029.0</ele>
        <time>2013-07-02T12:19:24Z</time>
      </trkpt>
      <trkpt lat="40.182000" lon="-4.836733">
        <ele>1034.0</ele>
        <time>2013-07-02T12:19:25Z</time>
      </trkpt>
      <trkpt lat="40.182067" lon="-4.836683">
        <ele>1037.0</ele>
        <time>2013-07-02T12:19:26Z</time>
      </trkpt>
      <trkpt lat="40.182133" lon="-4.836683">
        <ele>1040.0</ele>
        <time>2013-07-02T12:19:27Z</time>
      </trkpt>
      <trkpt lat="40.182183" lon="-4.836717">
        <ele>1044.0</ele>
        <time>2013-07-02T12:19:28Z</time>
      </trkpt>
      <trkpt lat="40.182200" lon="-4.836750">
        <ele>1048.0</ele>
        <time>2013-07-02T12:19:29Z</time>
      </trkpt>
      <trkpt lat="40.182200" lon="-4.836767">
        <ele>1053.0</ele>
        <time>2013-07-02T12:19:30Z</time>
      </trkpt>
      <trkpt lat="40.182167" lon="-4.836800">
        <ele>1057.0</ele>
        <time>2013-07-02T12:19:31Z</time>
      </trkpt>
      <trkpt lat="40.182133" lon="-4.836817">
        <ele>1060.0</ele>
        <time>2013-07-02T12:19:32Z</time>
      </trkpt>
      <trkpt lat="40.182083" lon="-4.836833">
        <ele>1063.0</ele>
        <time>2013-07-02T12:19:33Z</time>
      </trkpt>
      <trkpt lat="40.182000" lon="-4.836833">
        <ele>1066.0</ele>
        <time>2013-07-02T12:19:34Z</time>
      </trkpt>
      <trkpt lat="40.181933" lon="-4.836800">
        <ele>1069.0</ele>
        <time>2013-07-02T12:19:35Z</time>
      </trkpt>
      <trkpt lat="40.181850" lon="-4.836717">
        <ele>1072.0</ele>
        <time>2013-07-02T12:19:36Z</time>
      </trkpt>
      <trkpt lat="40.181783" lon="-4.836583">
        <ele>1075.0</ele>
        <time>2013-07-02T12:19:37Z</time>
      </trkpt>
      <trkpt lat="40.181750" lon="-4.836433">
        <ele>1079.0</ele>
        <time>2013-07-02T12:19:38Z</time>
      </trkpt>
      <trkpt lat="40.181767" lon="-4.836283">
        <ele>1083.0</ele>
        <time>2013-07-02T12:19:39Z</time>
      </trkpt>
      <trkpt lat="40.181783" lon="-4.836150">
        <ele>1087.0</ele>
        <time>2013-07-02T12:19:40Z</time>
      </trkpt>
      <trkpt lat="40.181833" lon="-4.836033">
        <ele>1092.0</ele>
        <time>2013-07-02T12:19:41Z</time>
      </trkpt>
      <trkpt lat="40.181883" lon="-4.835933">
        <ele>1097.0</ele>
        <time>2013-07-02T12:19:42Z</time>
      </trkpt>
      <trkpt lat="40.181933" lon="-4.835867">
        <ele>1101.0</ele>
        <time>2013-07-02T12:19:43Z</time>
      </trkpt>
      <trkpt lat="40.182000" lon="-4.835800">
        <ele>1106.0</ele>
        <time>2013-07-02T12:19:44Z</time>
      </trkpt>
      <trkpt lat="40.182050" lon="-4.835767">
        <ele>1110.0</ele>
        <time>2013-07-02T12:19:45Z</time>
      </trkpt>
      <trkpt lat="40.182100" lon="-4.835767">
        <ele>1114.0</ele>
        <time>2013-07-02T12:19:46Z</time>
      </trkpt>
      <trkpt lat="40.182133" lon="-4.835783">
        <ele>1118.0</ele>
        <time>2013-07-02T12:19:47Z</time>
      </trkpt>
      <trkpt lat="40.182150" lon="-4.835817">
        <ele>1122.0</ele>
        <time>2013-07-02T12:19:48Z</time>
      </trkpt>
      <trkpt lat="40.182133" lon="-4.835850">
        <ele>1126.0</ele>
        <time>2013-07-02T12:19:49Z</time>
      </trkpt>
      <trkpt lat="40.182100" lon="-4.835883">
        <ele>1130.0</ele>
        <time>2013-07-02T12:19:50Z</time>
      </trkpt>
      <trkpt lat="40.182033" lon="-4.835900">
        <ele>1134.0</ele>
        <time>2013-07-02T12:19:51Z</time>
      </trkpt>
      <trkpt lat="40.181967" lon="-4.835900">
        <ele>1137.0</ele>
        <time>2013-07-02T12:19:52Z</time>
      </trkpt>
      <trkpt lat="40.181883" lon="-4.835883">
        <ele>1141.0</ele>
        <time>2013-07-02T12:19:53Z</time>
      </trkpt>
      <trkpt lat="40.181800" lon="-4.835817">
        <ele>1144.0</ele>
        <time>2013-07-02T12:19:54Z</time>
      </trkpt>
      <trkpt lat="40.181717" lon="-4.835717">
        <ele>1148.0</ele>
        <time>2013-07-02T12:19:55Z</time>
      </trkpt>
      <trkpt lat="40.181650" lon="-4.835600">
        <ele>1154.0</ele>
        <time>2013-07-02T12:19:56Z</time>
      </trkpt>
      <trkpt lat="40.181600" lon="-4.835483">
        <ele>1159.0</ele>
        <time>2013-07-02T12:19:57Z</time>
      </trkpt>
      <trkpt lat="40.181550" lon="-4.835383">
        <ele>1164.0</ele>
        <time>2013-07-02T12:19:58Z</time>
      </trkpt>
      <trkpt lat="40.181533" lon="-4.835250">
        <ele>1167.0</ele>
        <time>2013-07-02T12:19:59Z</time>
      </trkpt>
      <trkpt lat="40.181533" lon="-4.835100">
        <ele>1170.0</ele>
        <time>2013-07-02T12:20:00Z</time>
      </trkpt>
      <trkpt lat="40.181550" lon="-4.834950">
        <ele>1173.0</ele>
        <time>2013-07-02T12:20:01Z</time>
      </trkpt>
      <trkpt lat="40.181600" lon="-4.834833">
        <ele>1177.0</ele>
        <time>2013-07-02T12:20:02Z</time>
      </trkpt>
      <trkpt lat="40.181650" lon="-4.834750">
        <ele>1181.0</ele>
        <time>2013-07-02T12:20:03Z</time>
      </trkpt>
      <trkpt lat="40.181700" lon="-4.834700">
        <ele>1184.0</ele>
        <time>2013-07-02T12:20:04Z</time>
      </trkpt>
      <trkpt lat="40.181750" lon="-4.834633">
        <ele>1186.0</ele>
        <time>2013-07-02T12:20:05Z</time>
      </trkpt>
      <trkpt lat="40.181817" lon="-4.834567">
        <ele>1188.0</ele>
        <time>2013-07-02T12:20:06Z</time>
      </trkpt>
      <trkpt lat="40.181900" lon="-4.834517">
        <ele>1190.0</ele>
        <time>2013-07-02T12:20:07Z</time>
      </trkpt>
      <trkpt lat="40.182000" lon="-4.834500">
        <ele>1193.0</ele>
        <time>2013-07-02T12:20:08Z</time>
      </trkpt>
      <trkpt lat="40.182067" lon="-4.834500">
        <ele>1197.0</ele>
        <time>2013-07-02T12:20:09Z</time>
      </trkpt>
      <trkpt lat="40.182133" lon="-4.834533">
        <ele>1202.0</ele>
        <time>2013-07-02T12:20:10Z</time>
      </trkpt>
      <trkpt lat="40.182150" lon="-4.834600">
        <ele>1207.0</ele>
        <time>2013-07-02T12:20:11Z</time>
      </trkpt>
      <trkpt lat="40.182150" lon="-4.834650">
        <ele>1212.0</ele>
        <time>2013-07-02T12:20:12Z</time>
      </trkpt>
      <trkpt lat="40.182117" lon="-4.834700">
        <ele>1217.0</ele>
        <time>2013-07-02T12:20:13Z</time>
      </trkpt>
      <trkpt lat="40.182083" lon="-4.834733">
        <ele>1223.0</ele>
        <time>2013-07-02T12:20:14Z</time>
      </trkpt>
      <trkpt lat="40.182033" lon="-4.834733">
        <ele>1228.0</ele>
        <time>2013-07-02T12:20:15Z</time>
      </trkpt>
      <trkpt lat="40.181983" lon="-4.834733">
        <ele>1233.0</ele>
        <time>2013-07-02T12:20:16Z</time>
      </trkpt>
      <trkpt lat="40.181917" lon="-4.834717">
        <ele>1237.0</ele>
        <time>2013-07-02T12:20:17Z</time>
      </trkpt>
      <trkpt lat="40.181833" lon="-4.834683">
        <ele>1241.0</ele>
        <time>2013-07-02T12:20:18Z</time>
      </trkpt>
      <trkpt lat="40.181750" lon="-4.834600">
        <ele>1245.0</ele>
        <time>2013-07-02T12:20:19Z</time>
      </trkpt>
      <trkpt lat="40.181700" lon="-4.834483">
        <ele>1250.0</ele>
        <time>2013-07-02T12:20:20Z</time>
      </trkpt>
      <trkpt lat="40.181683" lon="-4.834317">
        <ele>1256.0</ele>
        <time>2013-07-02T12:20:21Z</time>
      </trkpt>
      <trkpt lat="40.181700" lon="-4.834183">
        <ele>1261.0</ele>
        <time>2013-07-02T12:20:22Z</time>
      </trkpt>
      <trkpt lat="40.181750" lon="-4.834050">
        <ele>1266.0</ele>
        <time>2013-07-02T12:20:23Z</time>
      </trkpt>
      <trkpt lat="40.181800" lon="-4.833950">
        <ele>1271.0</ele>
        <time>2013-07-02T12:20:24Z</time>
      </trkpt>
      <trkpt lat="40.181867" lon="-4.833867">
        <ele>1275.0</ele>
        <time>2013-07-02T12:20:25Z</time>
      </trkpt>
      <trkpt lat="40.181933" lon="-4.833800">
        <ele>1280.0</ele>
        <time>2013-07-02T12:20:26Z</time>
      </trkpt>
      <trkpt lat="40.182000" lon="-4.833750">
        <ele>1285.0</ele>
        <time>2013-07-02T12:20:27Z</time>
      </trkpt>
      <trkpt lat="40.182050" lon="-4.833717">
        <ele>1289.0</ele>
        <time>2013-07-02T12:20:28Z</time>
      </trkpt>
      <trkpt lat="40.182133" lon="-4.833700">
        <ele>1293.0</ele>
        <time>2013-07-02T12:20:29Z</time>
      </trkpt>
      <trkpt lat="40.182183" lon="-4.833717">
        <ele>1297.0</ele>
        <time>2013-07-02T12:20:30Z</time>
      </trkpt>
      <trkpt lat="40.182217" lon="-4.833767">
        <ele>1302.0</ele>
        <time>2013-07-02T12:20:31Z</time>
      </trkpt>
      <trkpt lat="40.182217" lon="-4.833800">
        <ele>1308.0</ele>
        <time>2013-07-02T12:20:32Z</time>
      </trkpt>
      <trkpt lat="40.182183" lon="-4.833817">
        <ele>1315.0</ele>
        <time>2013-07-02T12:20:33Z</time>
      </trkpt>
      <trkpt lat="40.182150" lon="-4.833817">
        <ele>1320.0</ele>
        <time>2013-07-02T12:20:34Z</time>
      </trkpt>
      <trkpt lat="40.182117" lon="-4.833833">
        <ele>1324.0</ele>
        <time>2013-07-02T12:20:35Z</time>
      </trkpt>
      <trkpt lat="40.182067" lon="-4.833883">
        <ele>1328.0</ele>
        <time>2013-07-02T12:20:36Z</time>
      </trkpt>
      <trkpt lat="40.181983" lon="-4.833900">
        <ele>1332.0</ele>
        <time>2013-07-02T12:20:37Z</time>
      </trkpt>
      <trkpt lat="40.181900" lon="-4.833867">
        <ele>1337.0</ele>
        <time>2013-07-02T12:20:38Z</time>
      </trkpt>
      <trkpt lat="40.181833" lon="-4.833750">
        <ele>1342.0</ele>
        <time>2013-07-02T12:20:39Z</time>
      </trkpt>
      <trkpt lat="40.181783" lon="-4.833600">
        <ele>1345.0</ele>
        <time>2013-07-02T12:20:40Z</time>
      </trkpt>
      <trkpt lat="40.181783" lon="-4.833433">
        <ele>1350.0</ele>
        <time>2013-07-02T12:20:41Z</time>
      </trkpt>
      <trkpt lat="40.181800" lon="-4.833283">
        <ele>1356.0</ele>
        <time>2013-07-02T12:20:42Z</time>
      </trkpt>
      <trkpt lat="40.181833" lon="-4.833150">
        <ele>1362.0</ele>
        <time>2013-07-02T12:20:43Z</time>
      </trkpt>
      <trkpt lat="40.181900" lon="-4.833033">
        <ele>1367.0</ele>
        <time>2013-07-02T12:20:44Z</time>
      </trkpt>
      <trkpt lat="40.181983" lon="-4.832950">
        <ele>1372.0</ele>
        <time>2013-07-02T12:20:45Z</time>
      </trkpt>
      <trkpt lat="40.182067" lon="-4.832883">
        <ele>1377.0</ele>
        <time>2013-07-02T12:20:46Z</time>
      </trkpt>
      <trkpt lat="40.182133" lon="-4.832833">
        <ele>1381.0</ele>
        <time>2013-07-02T12:20:47Z</time>
      </trkpt>
      <trkpt lat="40.182217" lon="-4.832800">
        <ele>1388.0</ele>
        <time>2013-07-02T12:20:48Z</time>
      </trkpt>
      <trkpt lat="40.182283" lon="-4.832783">
        <ele>1394.0</ele>
        <time>2013-07-02T12:20:49Z</time>
      </trkpt>
      <trkpt lat="40.182350" lon="-4.832800">
        <ele>1400.0</ele>
        <time>2013-07-02T12:20:50Z</time>
      </trkpt>
      <trkpt lat="40.182400" lon="-4.832833">
        <ele>1405.0</ele>
        <time>2013-07-02T12:20:51Z</time>
      </trkpt>
      <trkpt lat="40.182433" lon="-4.832883">
        <ele>1411.0</ele>
        <time>2013-07-02T12:20:52Z</time>
      </trkpt>
      <trkpt lat="40.182433" lon="-4.832933">
        <ele>1418.0</ele>
        <time>2013-07-02T12:20:53Z</time>
      </trkpt>
      <trkpt lat="40.182417" lon="-4.832983">
        <ele>1425.0</ele>
        <time>2013-07-02T12:20:54Z</time>
      </trkpt>
      <trkpt lat="40.182400" lon="-4.833000">
        <ele>1431.0</ele>
        <time>2013-07-02T12:20:55Z</time>
      </trkpt>
      <trkpt lat="40.182367" lon="-4.833017">
        <ele>1436.0</ele>
        <time>2013-07-02T12:20:56Z</time>
      </trkpt>
      <trkpt lat="40.182333" lon="-4.833050">
        <ele>1440.0</ele>
        <time>2013-07-02T12:20:57Z</time>
      </trkpt>
      <trkpt lat="40.182300" lon="-4.833100">
        <ele>1444.0</ele>
        <time>2013-07-02T12:20:58Z</time>
      </trkpt>
      <trkpt lat="40.182233" lon="-4.833117">
        <ele>1449.0</ele>
        <time>2013-07-02T12:20:59Z</time>
      </trkpt>
      <trkpt lat="40.182167" lon="-4.833100">
        <ele>1452.0</ele>
        <time>2013-07-02T12:21:00Z</time>
      </trkpt>
      <trkpt lat="40.182083" lon="-4.833067">
        <ele>1456.0</ele>
        <time>2013-07-02T12:21:01Z</time>
      </trkpt>
      <trkpt lat="40.181983" lon="-4.833017">
        <ele>1460.0</ele>
        <time>2013-07-02T12:21:02Z</time>
      </trkpt>
      <trkpt lat="40.181917" lon="-4.832933">
        <ele>1464.0</ele>
        <time>2013-07-02T12:21:03Z</time>
      </trkpt>
      <trkpt lat="40.181850" lon="-4.832833">
        <ele>1469.0</ele>
        <time>2013-07-02T12:21:04Z</time>
      </trkpt>
      <trkpt lat="40.181800" lon="-4.832700">
        <ele>1474.0</ele>
        <time>2013-07-02T12:21:05Z</time>
      </trkpt>
      <trkpt lat="40.181767" lon="-4.832550">
        <ele>1479.0</ele>
        <time>2013-07-02T12:21:06Z</time>
      </trkpt>
      <trkpt lat="40.181767" lon="-4.832383">
        <ele>1483.0</ele>
        <time>2013-07-02T12:21:07Z</time>
      </trkpt>
      <trkpt lat="40.181767" lon="-4.832250">
        <ele>1488.0</ele>
        <time>2013-07-02T12:21:08Z</time>
      </trkpt>
      <trkpt lat="40.181783" lon="-4.832117">
        <ele>1492.0</ele>
        <time>2013-07-02T12:21:09Z</time>
      </trkpt>
      <trkpt lat="40.181817" lon="-4.831967">
        <ele>1496.0</ele>
        <time>2013-07-02T12:21:10Z</time>
      </trkpt>
      <trkpt lat="40.181850" lon="-4.831850">
        <ele>1500.0</ele>
        <time>2013-07-02T12:21:11Z</time>
      </trkpt>
      <trkpt lat="40.181917" lon="-4.831733">
        <ele>1504.0</ele>
        <time>2013-07-02T12:21:12Z</time>
      </trkpt>
      <trkpt lat="40.182000" lon="-4.831650">
        <ele>1508.0</ele>
        <time>2013-07-02T12:21:13Z</time>
      </trkpt>
      <trkpt lat="40.182067" lon="-4.831567">
        <ele>1513.0</ele>
        <time>2013-07-02T12:21:14Z</time>
      </trkpt>
      <trkpt lat="40.182133" lon="-4.831500">
        <ele>1517.0</ele>
        <time>2013-07-02T12:21:15Z</time>
      </trkpt>
      <trkpt lat="40.182217" lon="-4.831450">
        <ele>1522.0</ele>
        <time>2013-07-02T12:21:16Z</time>
      </trkpt>
      <trkpt lat="40.182300" lon="-4.831400">
        <ele>1527.0</ele>
        <time>2013-07-02T12:21:17Z</time>
      </trkpt>
      <trkpt lat="40.182367" lon="-4.831367">
        <ele>1532.0</ele>
        <time>2013-07-02T12:21:18Z</time>
      </trkpt>
      <trkpt lat="40.182450" lon="-4.831333">
        <ele>1539.0</ele>
        <time>2013-07-02T12:21:19Z</time>
      </trkpt>
      <trkpt lat="40.182517" lon="-4.831333">
        <ele>1545.0</ele>
        <time>2013-07-02T12:21:20Z</time>
      </trkpt>
      <trkpt lat="40.182567" lon="-4.831333">
        <ele>1551.0</ele>
        <time>2013-07-02T12:21:21Z</time>
      </trkpt>
      <trkpt lat="40.182617" lon="-4.831367">
        <ele>1557.0</ele>
        <time>2013-07-02T12:21:22Z</time>
      </trkpt>
      <trkpt lat="40.182667" lon="-4.831400">
        <ele>1563.0</ele>
        <time>2013-07-02T12:21:23Z</time>
      </trkpt>
      <trkpt lat="40.182700" lon="-4.831450">
        <ele>1569.0</ele>
        <time>2013-07-02T12:21:24Z</time>
      </trkpt>
      <trkpt lat="40.182700" lon="-4.831517">
        <ele>1575.0</ele>
        <time>2013-07-02T12:21:25Z</time>
      </trkpt>
      <trkpt lat="40.182700" lon="-4.831567">
        <ele>1581.0</ele>
        <time>2013-07-02T12:21:26Z</time>
      </trkpt>
      <trkpt lat="40.182683" lon="-4.831617">
        <ele>1587.0</ele>
        <time>2013-07-02T12:21:27Z</time>
      </trkpt>
      <trkpt lat="40.182683" lon="-4.831667">
        <ele>1593.0</ele>
        <time>2013-07-02T12:21:28Z</time>
      </trkpt>
      <trkpt lat="40.182683" lon="-4.831700">
        <ele>1598.0</ele>
        <time>2013-07-02T12:21:29Z</time>
      </trkpt>
      <trkpt lat="40.182667" lon="-4.831750">
        <ele>1603.0</ele>
        <time>2013-07-02T12:21:30Z</time>
      </trkpt>
      <trkpt lat="40.182650" lon="-4.831783">
        <ele>1608.0</ele>
        <time>2013-07-02T12:21:31Z</time>
      </trkpt>
      <trkpt lat="40.182600" lon="-4.831817">
        <ele>1611.0</ele>
        <time>2013-07-02T12:21:32Z</time>
      </trkpt>
      <trkpt lat="40.182550" lon="-4.831817">
        <ele>1615.0</ele>
        <time>2013-07-02T12:21:33Z</time>
      </trkpt>
      <trkpt lat="40.182467" lon="-4.831783">
        <ele>1619.0</ele>
        <time>2013-07-02T12:21:34Z</time>
      </trkpt>
      <trkpt lat="40.182400" lon="-4.831717">
        <ele>1623.0</ele>
        <time>2013-07-02T12:21:35Z</time>
      </trkpt>
      <trkpt lat="40.182333" lon="-4.831650">
        <ele>1627.0</ele>
        <time>2013-07-02T12:21:36Z</time>
      </trkpt>
      <trkpt lat="40.182267" lon="-4.831567">
        <ele>1631.0</ele>
        <time>2013-07-02T12:21:37Z</time>
      </trkpt>
      <trkpt lat="40.182200" lon="-4.831500">
        <ele>1635.0</ele>
        <time>2013-07-02T12:21:38Z</time>
      </trkpt>
      <trkpt lat="40.182133" lon="-4.831417">
        <ele>1639.0</ele>
        <time>2013-07-02T12:21:39Z</time>
      </trkpt>
      <trkpt lat="40.182083" lon="-4.831300">
        <ele>1642.0</ele>
        <time>2013-07-02T12:21:40Z</time>
      </trkpt>
      <trkpt lat="40.182033" lon="-4.831183">
        <ele>1646.0</ele>
        <time>2013-07-02T12:21:41Z</time>
      </trkpt>
      <trkpt lat="40.181983" lon="-4.831050">
        <ele>1650.0</ele>
        <time>2013-07-02T12:21:42Z</time>
      </trkpt>
      <trkpt lat="40.181967" lon="-4.830917">
        <ele>1654.0</ele>
        <time>2013-07-02T12:21:43Z</time>
      </trkpt>
      <trkpt lat="40.181950" lon="-4.830783">
        <ele>1659.0</ele>
        <time>2013-07-02T12:21:44Z</time>
      </trkpt>
      <trkpt lat="40.181950" lon="-4.830633">
        <ele>1665.0</ele>
        <time>2013-07-02T12:21:45Z</time>
      </trkpt>
      <trkpt lat="40.181967" lon="-4.830500">
        <ele>1670.0</ele>
        <time>2013-07-02T12:21:46Z</time>
      </trkpt>
      <trkpt lat="40.182033" lon="-4.830400">
        <ele>1675.0</ele>
        <time>2013-07-02T12:21:47Z</time>
      </trkpt>
      <trkpt lat="40.182083" lon="-4.830300">
        <ele>1680.0</ele>
        <time>2013-07-02T12:21:48Z</time>
      </trkpt>
      <trkpt lat="40.182150" lon="-4.830233">
        <ele>1685.0</ele>
        <time>2013-07-02T12:21:49Z</time>
      </trkpt>
      <trkpt lat="40.182217" lon="-4.830183">
        <ele>1690.0</ele>
        <time>2013-07-02T12:21:50Z</time>
      </trkpt>
      <trkpt lat="40.182283" lon="-4.830133">
        <ele>1694.0</ele>
        <time>2013-07-02T12:21:51Z</time>
      </trkpt>
      <trkpt lat="40.182350" lon="-4.830100">
        <ele>1700.0</ele>
        <time>2013-07-02T12:21:52Z</time>
      </trkpt>
      <trkpt lat="40.182417" lon="-4.830100">
        <ele>1705.0</ele>
        <time>2013-07-02T12:21:53Z</time>
      </trkpt>
      <trkpt lat="40.182467" lon="-4.830083">
        <ele>1711.0</ele>
        <time>2013-07-02T12:21:54Z</time>
      </trkpt>
      <trkpt lat="40.182517" lon="-4.830100">
        <ele>1717.0</ele>
        <time>2013-07-02T12:21:55Z</time>
      </trkpt>
      <trkpt lat="40.182567" lon="-4.830117">
        <ele>1722.0</ele>
        <time>2013-07-02T12:21:56Z</time>
      </trkpt>
      <trkpt lat="40.182600" lon="-4.830133">
        <ele>1725.0</ele>
        <time>2013-07-02T12:21:57Z</time>
      </trkpt>
      <trkpt lat="40.182633" lon="-4.830183">
        <ele>1729.0</ele>
        <time>2013-07-02T12:21:58Z</time>
      </trkpt>
      <trkpt lat="40.182650" lon="-4.830267">
        <ele>1733.0</ele>
        <time>2013-07-02T12:21:59Z</time>
      </trkpt>
      <trkpt lat="40.182633" lon="-4.830333">
        <ele>1736.0</ele>
        <time>2013-07-02T12:22:00Z</time>
      </trkpt>
      <trkpt lat="40.182600" lon="-4.830400">
        <ele>1741.0</ele>
        <time>2013-07-02T12:22:01Z</time>
      </trkpt>
      <trkpt lat="40.182550" lon="-4.830450">
        <ele>1747.0</ele>
        <time>2013-07-02T12:22:02Z</time>
      </trkpt>
      <trkpt lat="40.182500" lon="-4.830467">
        <ele>1753.0</ele>
        <time>2013-07-02T12:22:03Z</time>
      </trkpt>
      <trkpt lat="40.182450" lon="-4.830483">
        <ele>1758.0</ele>
        <time>2013-07-02T12:22:04Z</time>
      </trkpt>
      <trkpt lat="40.182417" lon="-4.830483">
        <ele>1763.0</ele>
        <time>2013-07-02T12:22:05Z</time>
      </trkpt>
      <trkpt lat="40.182350" lon="-4.830483">
        <ele>1767.0</ele>
        <time>2013-07-02T12:22:06Z</time>
      </trkpt>
      <trkpt lat="40.182283" lon="-4.830500">
        <ele>1770.0</ele>
        <time>2013-07-02T12:22:07Z</time>
      </trkpt>
      <trkpt lat="40.182200" lon="-4.830517">
        <ele>1773.0</ele>
        <time>2013-07-02T12:22:08Z</time>
      </trkpt>
      <trkpt lat="40.182117" lon="-4.830500">
        <ele>1778.0</ele>
        <time>2013-07-02T12:22:09Z</time>
      </trkpt>
      <trkpt lat="40.182050" lon="-4.830467">
        <ele>1782.0</ele>
        <time>2013-07-02T12:22:10Z</time>
      </trkpt>
      <trkpt lat="40.181967" lon="-4.830400">
        <ele>1787.0</ele>
        <time>2013-07-02T12:22:11Z</time>
      </trkpt>
      <trkpt lat="40.181900" lon="-4.830300">
        <ele>1792.0</ele>
        <time>2013-07-02T12:22:12Z</time>
      </trkpt>
      <trkpt lat="40.181850" lon="-4.830200">
        <ele>1797.0</ele>
        <time>2013-07-02T12:22:13Z</time>
      </trkpt>
      <trkpt lat="40.181800" lon="-4.830083">
        <ele>1801.0</ele>
        <time>2013-07-02T12:22:14Z</time>
      </trkpt>
      <trkpt lat="40.181750" lon="-4.829967">
        <ele>1806.0</ele>
        <time>2013-07-02T12:22:15Z</time>
      </trkpt>
      <trkpt lat="40.181700" lon="-4.829833">
        <ele>1810.0</ele>
        <time>2013-07-02T12:22:16Z</time>
      </trkpt>
      <trkpt lat="40.181683" lon="-4.829700">
        <ele>1815.0</ele>
        <time>2013-07-02T12:22:17Z</time>
      </trkpt>
      <trkpt lat="40.181700" lon="-4.829550">
        <ele>1820.0</ele>
        <time>2013-07-02T12:22:18Z</time>
      </trkpt>
      <trkpt lat="40.181733" lon="-4.829433">
        <ele>1824.0</ele>
        <time>2013-07-02T12:22:19Z</time>
      </trkpt>
      <trkpt lat="40.181800" lon="-4.829317">
        <ele>1829.0</ele>
        <time>2013-07-02T12:22:20Z</time>
      </trkpt>
      <trkpt lat="40.181850" lon="-4.829217">
        <ele>1834.0</ele>
        <time>2013-07-02T12:22:21Z</time>
      </trkpt>
      <trkpt lat="40.181917" lon="-4.829133">
        <ele>1839.0</ele>
        <time>2013-07-02T12:22:22Z</time>
      </trkpt>
      <trkpt lat="40.181983" lon="-4.829033">
        <ele>1844.0</ele>
        <time>2013-07-02T12:22:23Z</time>
      </trkpt>
      <trkpt lat="40.182067" lon="-4.828967">
        <ele>1850.0</ele>
        <time>2013-07-02T12:22:24Z</time>
      </trkpt>
      <trkpt lat="40.182150" lon="-4.828917">
        <ele>1856.0</ele>
        <time>2013-07-02T12:22:25Z</time>
      </trkpt>
      <trkpt lat="40.182217" lon="-4.828917">
        <ele>1862.0</ele>
        <time>2013-07-02T12:22:26Z</time>
      </trkpt>
      <trkpt lat="40.182267" lon="-4.828917">
        <ele>1866.0</ele>
        <time>2013-07-02T12:22:27Z</time>
      </trkpt>
      <trkpt lat="40.182317" lon="-4.828917">
        <ele>1870.0</ele>
        <time>2013-07-02T12:22:28Z</time>
      </trkpt>
      <trkpt lat="40.182367" lon="-4.828950">
        <ele>1874.0</ele>
        <time>2013-07-02T12:22:29Z</time>
      </trkpt>
      <trkpt lat="40.182400" lon="-4.829000">
        <ele>1877.0</ele>
        <time>2013-07-02T12:22:30Z</time>
      </trkpt>
      <trkpt lat="40.182400" lon="-4.829050">
        <ele>1881.0</ele>
        <time>2013-07-02T12:22:31Z</time>
      </trkpt>
      <trkpt lat="40.182383" lon="-4.829117">
        <ele>1885.0</ele>
        <time>2013-07-02T12:22:32Z</time>
      </trkpt>
      <trkpt lat="40.182333" lon="-4.829167">
        <ele>1889.0</ele>
        <time>2013-07-02T12:22:33Z</time>
      </trkpt>
      <trkpt lat="40.182283" lon="-4.829200">
        <ele>1894.0</ele>
        <time>2013-07-02T12:22:34Z</time>
      </trkpt>
      <trkpt lat="40.182233" lon="-4.829217">
        <ele>1900.0</ele>
        <time>2013-07-02T12:22:35Z</time>
      </trkpt>
      <trkpt lat="40.182167" lon="-4.829217">
        <ele>1906.0</ele>
        <time>2013-07-02T12:22:36Z</time>
      </trkpt>
      <trkpt lat="40.182100" lon="-4.829200">
        <ele>1912.0</ele>
        <time>2013-07-02T12:22:37Z</time>
      </trkpt>
      <trkpt lat="40.182033" lon="-4.829167">
        <ele>1917.0</ele>
        <time>2013-07-02T12:22:38Z</time>
      </trkpt>
      <trkpt lat="40.181950" lon="-4.829100">
        <ele>1922.0</ele>
        <time>2013-07-02T12:22:39Z</time>
      </trkpt>
      <trkpt lat="40.181867" lon="-4.829000">
        <ele>1928.0</ele>
        <time>2013-07-02T12:22:40Z</time>
      </trkpt>
      <trkpt lat="40.181817" lon="-4.828883">
        <ele>1934.0</ele>
        <time>2013-07-02T12:22:41Z</time>
      </trkpt>
      <trkpt lat="40.181800" lon="-4.828750">
        <ele>1939.0</ele>
        <time>2013-07-02T12:22:42Z</time>
      </trkpt>
      <trkpt lat="40.181817" lon="-4.828617">
        <ele>1944.0</ele>
        <time>2013-07-02T12:22:43Z</time>
      </trkpt>
      <trkpt lat="40.181850" lon="-4.828500">
        <ele>1949.0</ele>
        <time>2013-07-02T12:22:44Z</time>
      </trkpt>
      <trkpt lat="40.181883" lon="-4.828383">
        <ele>1955.0</ele>
        <time>2013-07-02T12:22:45Z</time>
      </trkpt>
      <trkpt lat="40.181917" lon="-4.828283">
        <ele>1962.0</ele>
        <time>2013-07-02T12:22:46Z</time>
      </trkpt>
      <trkpt lat="40.181983" lon="-4.828167">
        <ele>1968.0</ele>
        <time>2013-07-02T12:22:47Z</time>
      </trkpt>
      <trkpt lat="40.182050" lon="-4.828083">
        <ele>1974.0</ele>
        <time>2013-07-02T12:22:48Z</time>
      </trkpt>
      <trkpt lat="40.182117" lon="-4.828033">
        <ele>1979.0</ele>
        <time>2013-07-02T12:22:49Z</time>
      </trkpt>
      <trkpt lat="40.182183" lon="-4.828033">
        <ele>1984.0</ele>
        <time>2013-07-02T12:22:50Z</time>
      </trkpt>
      <trkpt lat="40.182250" lon="-4.828033">
        <ele>1988.0</ele>
        <time>2013-07-02T12:22:51Z</time>
      </trkpt>
      <trkpt lat="40.182300" lon="-4.828050">
        <ele>1992.0</ele>
        <time>2013-07-02T12:22:52Z</time>
      </trkpt>
      <trkpt lat="40.182350" lon="-4.828067">
        <ele>1995.0</ele>
        <time>2013-07-02T12:22:53Z</time>
      </trkpt>
      <trkpt lat="40.182383" lon="-4.828117">
        <ele>1998.0</ele>
        <time>2013-07-02T12:22:54Z</time>
      </trkpt>
      <trkpt lat="40.182383" lon="-4.828183">
        <ele>2001.0</ele>
        <time>2013-07-02T12:22:55Z</time>
      </trkpt>
      <trkpt lat="40.182367" lon="-4.828267">
        <ele>2005.0</ele>
        <time>2013-07-02T12:22:56Z</time>
      </trkpt>
      <trkpt lat="40.182350" lon="-4.828333">
        <ele>2010.0</ele>
        <time>2013-07-02T12:22:57Z</time>
      </trkpt>
      <trkpt lat="40.182333" lon="-4.828367">
        <ele>2015.0</ele>
        <time>2013-07-02T12:22:58Z</time>
      </trkpt>
      <trkpt lat="40.182300" lon="-4.828417">
        <ele>2020.0</ele>
        <time>2013-07-02T12:22:59Z</time>
      </trkpt>
      <trkpt lat="40.182267" lon="-4.828450">
        <ele>2025.0</ele>
        <time>2013-07-02T12:23:00Z</time>
      </trkpt>
      <trkpt lat="40.182217" lon="-4.828500">
        <ele>2031.0</ele>
        <time>2013-07-02T12:23:01Z</time>
      </trkpt>
      <trkpt lat="40.182150" lon="-4.828517">
        <ele>2038.0</ele>
        <time>2013-07-02T12:23:02Z</time>
      </trkpt>
      <trkpt lat="40.182083" lon="-4.828500">
        <ele>2045.0</ele>
        <time>2013-07-02T12:23:03Z</time>
      </trkpt>
      <trkpt lat="40.182017" lon="-4.828467">
        <ele>2052.0</ele>
        <time>2013-07-02T12:23:04Z</time>
      </trkpt>
      <trkpt lat="40.181967" lon="-4.828400">
        <ele>2058.0</ele>
        <time>2013-07-02T12:23:05Z</time>
      </trkpt>
      <trkpt lat="40.181917" lon="-4.828317">
        <ele>2062.0</ele>
        <time>2013-07-02T12:23:06Z</time>
      </trkpt>
      <trkpt lat="40.181850" lon="-4.828200">
        <ele>2065.0</ele>
        <time>2013-07-02T12:23:07Z</time>
      </trkpt>
      <trkpt lat="40.181817" lon="-4.828067">
        <ele>2069.0</ele>
        <time>2013-07-02T12:23:08Z</time>
      </trkpt>
      <trkpt lat="40.181800" lon="-4.827917">
        <ele>2073.0</ele>
        <time>2013-07-02T12:23:09Z</time>
      </trkpt>
      <trkpt lat="40.181817" lon="-4.827783">
        <ele>2078.0</ele>
        <time>2013-07-02T12:23:10Z</time>
      </trkpt>
      <trkpt lat="40.181833" lon="-4.827667">
        <ele>2083.0</ele>
        <time>2013-07-02T12:23:11Z</time>
      </trkpt>
      <trkpt lat="40.181850" lon="-4.827550">
        <ele>2088.0</ele>
        <time>2013-07-02T12:23:12Z</time>
      </trkpt>
      <trkpt lat="40.181867" lon="-4.827433">
        <ele>2093.0</ele>
        <time>2013-07-02T12:23:13Z</time>
      </trkpt>
      <trkpt lat="40.181883" lon="-4.827333">
        <ele>2099.0</ele>
        <time>2013-07-02T12:23:14Z</time>
      </trkpt>
      <trkpt lat="40.181917" lon="-4.827250">
        <ele>2105.0</ele>
        <time>2013-07-02T12:23:15Z</time>
      </trkpt>
      <trkpt lat="40.181983" lon="-4.827183">
        <ele>2110.0</ele>
        <time>2013-07-02T12:23:16Z</time>
      </trkpt>
      <trkpt lat="40.182050" lon="-4.827133">
        <ele>2114.0</ele>
        <time>2013-07-02T12:23:17Z</time>
      </trkpt>
      <trkpt lat="40.182117" lon="-4.827117">
        <ele>2118.0</ele>
        <time>2013-07-02T12:23:18Z</time>
      </trkpt>
      <trkpt lat="40.182200" lon="-4.827133">
        <ele>2123.0</ele>
        <time>2013-07-02T12:23:19Z</time>
      </trkpt>
      <trkpt lat="40.182250" lon="-4.827150">
        <ele>2128.0</ele>
        <time>2013-07-02T12:23:20Z</time>
      </trkpt>
      <trkpt lat="40.182300" lon="-4.827200">
        <ele>2132.0</ele>
        <time>2013-07-02T12:23:21Z</time>
      </trkpt>
      <trkpt lat="40.182317" lon="-4.827250">
        <ele>2135.0</ele>
        <time>2013-07-02T12:23:22Z</time>
      </trkpt>
      <trkpt lat="40.182333" lon="-4.827333">
        <ele>2139.0</ele>
        <time>2013-07-02T12:23:23Z</time>
      </trkpt>
      <trkpt lat="40.182317" lon="-4.827417">
        <ele>2143.0</ele>
        <time>2013-07-02T12:23:24Z</time>
      </trkpt>
      <trkpt lat="40.182267" lon="-4.827483">
        <ele>2150.0</ele>
        <time>2013-07-02T12:23:25Z</time>
      </trkpt>
      <trkpt lat="40.182217" lon="-4.827517">
        <ele>2157.0</ele>
        <time>2013-07-02T12:23:26Z</time>
      </trkpt>
      <trkpt lat="40.182150" lon="-4.827500">
        <ele>2163.0</ele>
        <time>2013-07-02T12:23:27Z</time>
      </trkpt>
      <trkpt lat="40.182100" lon="-4.827483">
        <ele>2167.0</ele>
        <time>2013-07-02T12:23:28Z</time>
      </trkpt>
      <trkpt lat="40.182050" lon="-4.827450">
        <ele>2171.0</ele>
        <time>2013-07-02T12:23:29Z</time>
      </trkpt>
      <trkpt lat="40.182000" lon="-4.827400">
        <ele>2174.0</ele>
        <time>2013-07-02T12:23:30Z</time>
      </trkpt>
      <trkpt lat="40.181933" lon="-4.827333">
        <ele>2176.0</ele>
        <time>2013-07-02T12:23:31Z</time>
      </trkpt>
      <trkpt lat="40.181883" lon="-4.827233">
        <ele>2177.0</ele>
        <time>2013-07-02T12:23:32Z</time>
      </trkpt>
      <trkpt lat="40.181850" lon="-4.827083">
        <ele>2179.0</ele>
        <time>2013-07-02T12:23:33Z</time>
      </trkpt>
      <trkpt lat="40.181867" lon="-4.826917">
        <ele>2182.0</ele>
        <time>2013-07-02T12:23:34Z</time>
      </trkpt>
      <trkpt lat="40.181900" lon="-4.826783">
        <ele>2186.0</ele>
        <time>2013-07-02T12:23:35Z</time>
      </trkpt>
      <trkpt lat="40.181950" lon="-4.826683">
        <ele>2193.0</ele>
        <time>2013-07-02T12:23:36Z</time>
      </trkpt>
      <trkpt lat="40.182017" lon="-4.826617">
        <ele>2198.0</ele>
        <time>2013-07-02T12:23:37Z</time>
      </trkpt>
      <trkpt lat="40.182067" lon="-4.826583">
        <ele>2202.0</ele>
        <time>2013-07-02T12:23:38Z</time>
      </trkpt>
      <trkpt lat="40.182150" lon="-4.826533">
        <ele>2204.0</ele>
        <time>2013-07-02T12:23:39Z</time>
      </trkpt>
      <trkpt lat="40.182217" lon="-4.826500">
        <ele>2207.0</ele>
        <time>2013-07-02T12:23:40Z</time>
      </trkpt>
      <trkpt lat="40.182300" lon="-4.826467">
        <ele>2211.0</ele>
        <time>2013-07-02T12:23:41Z</time>
      </trkpt>
      <trkpt lat="40.182350" lon="-4.826450">
        <ele>2215.0</ele>
        <time>2013-07-02T12:23:42Z</time>
      </trkpt>
      <trkpt lat="40.182400" lon="-4.826467">
        <ele>2219.0</ele>
        <time>2013-07-02T12:23:43Z</time>
      </trkpt>
      <trkpt lat="40.182433" lon="-4.826517">
        <ele>2221.0</ele>
        <time>2013-07-02T12:23:44Z</time>
      </trkpt>
      <trkpt lat="40.182450" lon="-4.826583">
        <ele>2224.0</ele>
        <time>2013-07-02T12:23:45Z</time>
      </trkpt>
      <trkpt lat="40.182450" lon="-4.826650">
        <ele>2229.0</ele>
        <time>2013-07-02T12:23:46Z</time>
      </trkpt>
      <trkpt lat="40.182433" lon="-4.826700">
        <ele>2234.0</ele>
        <time>2013-07-02T12:23:47Z</time>
      </trkpt>
      <trkpt lat="40.182400" lon="-4.826717">
        <ele>2238.0</ele>
        <time>2013-07-02T12:23:48Z</time>
      </trkpt>
      <trkpt lat="40.182367" lon="-4.826717">
        <ele>2242.0</ele>
        <time>2013-07-02T12:23:49Z</time>
      </trkpt>
      <trkpt lat="40.182317" lon="-4.826717">
        <ele>2245.0</ele>
        <time>2013-07-02T12:23:50Z</time>
      </trkpt>
      <trkpt lat="40.182250" lon="-4.826700">
        <ele>2248.0</ele>
        <time>2013-07-02T12:23:51Z</time>
      </trkpt>
      <trkpt lat="40.182183" lon="-4.826667">
        <ele>2251.0</ele>
        <time>2013-07-02T12:23:52Z</time>
      </trkpt>
      <trkpt lat="40.182117" lon="-4.826600">
        <ele>2254.0</ele>
        <time>2013-07-02T12:23:53Z</time>
      </trkpt>
      <trkpt lat="40.182083" lon="-4.826517">
        <ele>2256.0</ele>
        <time>2013-07-02T12:23:54Z</time>
      </trkpt>
      <trkpt lat="40.182050" lon="-4.826400">
        <ele>2258.0</ele>
        <time>2013-07-02T12:23:55Z</time>
      </trkpt>
      <trkpt lat="40.182033" lon="-4.826300">
        <ele>2260.0</ele>
        <time>2013-07-02T12:23:56Z</time>
      </trkpt>
      <trkpt lat="40.182033" lon="-4.826183">
        <ele>2263.0</ele>
        <time>2013-07-02T12:23:57Z</time>
      </trkpt>
      <trkpt lat="40.182050" lon="-4.826067">
        <ele>2265.0</ele>
        <time>2013-07-02T12:23:58Z</time>
      </trkpt>
      <trkpt lat="40.182100" lon="-4.825967">
        <ele>2267.0</ele>
        <time>2013-07-02T12:23:59Z</time>
      </trkpt>
      <trkpt lat="40.182183" lon="-4.825867">
        <ele>2270.0</ele>
        <time>2013-07-02T12:24:00Z</time>
      </trkpt>
      <trkpt lat="40.182250" lon="-4.825783">
        <ele>2272.0</ele>
        <time>2013-07-02T12:24:01Z</time>
      </trkpt>
      <trkpt lat="40.182333" lon="-4.825717">
        <ele>2275.0</ele>
        <time>2013-07-02T12:24:02Z</time>
      </trkpt>
      <trkpt lat="40.182400" lon="-4.825650">
        <ele>2278.0</ele>
        <time>2013-07-02T12:24:03Z</time>
      </trkpt>
      <trkpt lat="40.182467" lon="-4.825583">
        <ele>2281.0</ele>
        <time>2013-07-02T12:24:04Z</time>
      </trkpt>
      <trkpt lat="40.182550" lon="-4.825533">
        <ele>2283.0</ele>
        <time>2013-07-02T12:24:05Z</time>
      </trkpt>
      <trkpt lat="40.182617" lon="-4.825500">
        <ele>2284.0</ele>
        <time>2013-07-02T12:24:06Z</time>
      </trkpt>
      <trkpt lat="40.182717" lon="-4.825500">
        <ele>2286.0</ele>
        <time>2013-07-02T12:24:07Z</time>
      </trkpt>
      <trkpt lat="40.182833" lon="-4.825500">
        <ele>2289.0</ele>
        <time>2013-07-02T12:24:08Z</time>
      </trkpt>
      <trkpt lat="40.182917" lon="-4.825500">
        <ele>2296.0</ele>
        <time>2013-07-02T12:24:09Z</time>
      </trkpt>
      <trkpt lat="40.182983" lon="-4.825517">
        <ele>2302.0</ele>
        <time>2013-07-02T12:24:10Z</time>
      </trkpt>
      <trkpt lat="40.183033" lon="-4.825550">
        <ele>2308.0</ele>
        <time>2013-07-02T12:24:11Z</time>
      </trkpt>
      <trkpt lat="40.183050" lon="-4.825617">
        <ele>2311.0</ele>
        <time>2013-07-02T12:24:12Z</time>
      </trkpt>
      <trkpt lat="40.183033" lon="-4.825700">
        <ele>2314.0</ele>
        <time>2013-07-02T12:24:13Z</time>
      </trkpt>
      <trkpt lat="40.183000" lon="-4.825783">
        <ele>2318.0</ele>
        <time>2013-07-02T12:24:14Z</time>
      </trkpt>
      <trkpt lat="40.182967" lon="-4.825833">
        <ele>2324.0</ele>
        <time>2013-07-02T12:24:15Z</time>
      </trkpt>
      <trkpt lat="40.182900" lon="-4.825833">
        <ele>2330.0</ele>
        <time>2013-07-02T12:24:16Z</time>
      </trkpt>
      <trkpt lat="40.182850" lon="-4.825817">
        <ele>2335.0</ele>
        <time>2013-07-02T12:24:17Z</time>
      </trkpt>
      <trkpt lat="40.182800" lon="-4.825800">
        <ele>2340.0</ele>
        <time>2013-07-02T12:24:18Z</time>
      </trkpt>
      <trkpt lat="40.182767" lon="-4.825767">
        <ele>2344.0</ele>
        <time>2013-07-02T12:24:19Z</time>
      </trkpt>
      <trkpt lat="40.182717" lon="-4.825733">
        <ele>2349.0</ele>
        <time>2013-07-02T12:24:20Z</time>
      </trkpt>
      <trkpt lat="40.182683" lon="-4.825683">
        <ele>2351.0</ele>
        <time>2013-07-02T12:24:21Z</time>
      </trkpt>
      <trkpt lat="40.182650" lon="-4.825600">
        <ele>2354.0</ele>
        <time>2013-07-02T12:24:22Z</time>
      </trkpt>
      <trkpt lat="40.182617" lon="-4.825500">
        <ele>2356.0</ele>
        <time>2013-07-02T12:24:23Z</time>
      </trkpt>
      <trkpt lat="40.182600" lon="-4.825383">
        <ele>2359.0</ele>
        <time>2013-07-02T12:24:24Z</time>
      </trkpt>
      <trkpt lat="40.182583" lon="-4.825267">
        <ele>2362.0</ele>
        <time>2013-07-02T12:24:25Z</time>
      </trkpt>
      <trkpt lat="40.182583" lon="-4.825150">
        <ele>2366.0</ele>
        <time>2013-07-02T12:24:26Z</time>
      </trkpt>
      <trkpt lat="40.182617" lon="-4.825033">
        <ele>2368.0</ele>
        <time>2013-07-02T12:24:27Z</time>
      </trkpt>
      <trkpt lat="40.182667" lon="-4.824917">
        <ele>2370.0</ele>
        <time>2013-07-02T12:24:28Z</time>
      </trkpt>
      <trkpt lat="40.182733" lon="-4.824800">
        <ele>2372.0</ele>
        <time>2013-07-02T12:24:29Z</time>
      </trkpt>
      <trkpt lat="40.182817" lon="-4.824700">
        <ele>2373.0</ele>
        <time>2013-07-02T12:24:30Z</time>
      </trkpt>
      <trkpt lat="40.182900" lon="-4.824617">
        <ele>2374.0</ele>
        <time>2013-07-02T12:24:31Z</time>
      </trkpt>
      <trkpt lat="40.182983" lon="-4.824550">
        <ele>2374.0</ele>
        <time>2013-07-02T12:24:32Z</time>
      </trkpt>
      <trkpt lat="40.183100" lon="-4.824500">
        <ele>2375.0</ele>
        <time>2013-07-02T12:24:33Z</time>
      </trkpt>
      <trkpt lat="40.183217" lon="-4.824483">
        <ele>2378.0</ele>
        <time>2013-07-02T12:24:34Z</time>
      </trkpt>
      <trkpt lat="40.183333" lon="-4.824483">
        <ele>2383.0</ele>
        <time>2013-07-02T12:24:35Z</time>
      </trkpt>
      <trkpt lat="40.183417" lon="-4.824517">
        <ele>2389.0</ele>
        <time>2013-07-02T12:24:36Z</time>
      </trkpt>
      <trkpt lat="40.183483" lon="-4.824533">
        <ele>2394.0</ele>
        <time>2013-07-02T12:24:37Z</time>
      </trkpt>
      <trkpt lat="40.183550" lon="-4.824550">
        <ele>2399.0</ele>
        <time>2013-07-02T12:24:38Z</time>
      </trkpt>
      <trkpt lat="40.183617" lon="-4.824567">
        <ele>2402.0</ele>
        <time>2013-07-02T12:24:39Z</time>
      </trkpt>
      <trkpt lat="40.183683" lon="-4.824600">
        <ele>2405.0</ele>
        <time>2013-07-02T12:24:40Z</time>
      </trkpt>
      <trkpt lat="40.183733" lon="-4.824667">
        <ele>2406.0</ele>
        <time>2013-07-02T12:24:41Z</time>
      </trkpt>
      <trkpt lat="40.183750" lon="-4.824750">
        <ele>2409.0</ele>
        <time>2013-07-02T12:24:42Z</time>
      </trkpt>
      <trkpt lat="40.183717" lon="-4.824817">
        <ele>2411.0</ele>
        <time>2013-07-02T12:24:43Z</time>
      </trkpt>
      <trkpt lat="40.183683" lon="-4.824867">
        <ele>2417.0</ele>
        <time>2013-07-02T12:24:44Z</time>
      </trkpt>
      <trkpt lat="40.183667" lon="-4.824917">
        <ele>2423.0</ele>
        <time>2013-07-02T12:24:45Z</time>
      </trkpt>
      <trkpt lat="40.183650" lon="-4.824917">
        <ele>2428.0</ele>
        <time>2013-07-02T12:24:46Z</time>
      </trkpt>
      <trkpt lat="40.183617" lon="-4.824900">
        <ele>2431.0</ele>
        <time>2013-07-02T12:24:47Z</time>
      </trkpt>
      <trkpt lat="40.183583" lon="-4.824850">
        <ele>2434.0</ele>
        <time>2013-07-02T12:24:48Z</time>
      </trkpt>
      <trkpt lat="40.183533" lon="-4.824767">
        <ele>2436.0</ele>
        <time>2013-07-02T12:24:49Z</time>
      </trkpt>
      <trkpt lat="40.183500" lon="-4.824683">
        <ele>2439.0</ele>
        <time>2013-07-02T12:24:50Z</time>
      </trkpt>
      <trkpt lat="40.183483" lon="-4.824567">
        <ele>2442.0</ele>
        <time>2013-07-02T12:24:51Z</time>
      </trkpt>
      <trkpt lat="40.183500" lon="-4.824433">
        <ele>2445.0</ele>
        <time>2013-07-02T12:24:52Z</time>
      </trkpt>
      <trkpt lat="40.183533" lon="-4.824283">
        <ele>2447.0</ele>
        <time>2013-07-02T12:24:53Z</time>
      </trkpt>
      <trkpt lat="40.183600" lon="-4.824150">
        <ele>2452.0</ele>
        <time>2013-07-02T12:24:54Z</time>
      </trkpt>
      <trkpt lat="40.183667" lon="-4.824017">
        <ele>2457.0</ele>
        <time>2013-07-02T12:24:55Z</time>
      </trkpt>
      <trkpt lat="40.183750" lon="-4.823917">
        <ele>2463.0</ele>
        <time>2013-07-02T12:24:56Z</time>
      </trkpt>
      <trkpt lat="40.183833" lon="-4.823850">
        <ele>2467.0</ele>
        <time>2013-07-02T12:24:57Z</time>
      </trkpt>
      <trkpt lat="40.183933" lon="-4.823800">
        <ele>2470.0</ele>
        <time>2013-07-02T12:24:58Z</time>
      </trkpt>
      <trkpt lat="40.184050" lon="-4.823783">
        <ele>2472.0</ele>
        <time>2013-07-02T12:24:59Z</time>
      </trkpt>
      <trkpt lat="40.184150" lon="-4.823783">
        <ele>2475.0</ele>
        <time>2013-07-02T12:25:00Z</time>
      </trkpt>
      <trkpt lat="40.184250" lon="-4.823800">
        <ele>2477.0</ele>
        <time>2013-07-02T12:25:01Z</time>
      </trkpt>
      <trkpt lat="40.184317" lon="-4.823833">
        <ele>2479.0</ele>
        <time>2013-07-02T12:25:02Z</time>
      </trkpt>
      <trkpt lat="40.184383" lon="-4.823883">
        <ele>2480.0</ele>
        <time>2013-07-02T12:25:03Z</time>
      </trkpt>
      <trkpt lat="40.184433" lon="-4.823950">
        <ele>2480.0</ele>
        <time>2013-07-02T12:25:04Z</time>
      </trkpt>
      <trkpt lat="40.184483" lon="-4.824033">
        <ele>2481.0</ele>
        <time>2013-07-02T12:25:05Z</time>
      </trkpt>
      <trkpt lat="40.184500" lon="-4.824100">
        <ele>2483.0</ele>
        <time>2013-07-02T12:25:06Z</time>
      </trkpt>
      <trkpt lat="40.184467" lon="-4.824150">
        <ele>2485.0</ele>
        <time>2013-07-02T12:25:07Z</time>
      </trkpt>
      <trkpt lat="40.184417" lon="-4.824150">
        <ele>2487.0</ele>
        <time>2013-07-02T12:25:08Z</time>
      </trkpt>
      <trkpt lat="40.184383" lon="-4.824133">
        <ele>2490.0</ele>
        <time>2013-07-02T12:25:09Z</time>
      </trkpt>
      <trkpt lat="40.184350" lon="-4.824100">
        <ele>2494.0</ele>
        <time>2013-07-02T12:25:10Z</time>
      </trkpt>
      <trkpt lat="40.184317" lon="-4.824067">
        <ele>2497.0</ele>
        <time>2013-07-02T12:25:11Z</time>
      </trkpt>
      <trkpt lat="40.184300" lon="-4.824017">
        <ele>2500.0</ele>
        <time>2013-07-02T12:25:12Z</time>
      </trkpt>
      <trkpt lat="40.184267" lon="-4.823967">
        <ele>2503.0</ele>
        <time>2013-07-02T12:25:13Z</time>
      </trkpt>
      <trkpt lat="40.184233" lon="-4.823900">
        <ele>2506.0</ele>
        <time>2013-07-02T12:25:14Z</time>
      </trkpt>
      <trkpt lat="40.184183" lon="-4.823817">
        <ele>2509.0</ele>
        <time>2013-07-02T12:25:15Z</time>
      </trkpt>
      <trkpt lat="40.184167" lon="-4.823717">
        <ele>2514.0</ele>
        <time>2013-07-02T12:25:16Z</time>
      </trkpt>
      <trkpt lat="40.184167" lon="-4.823617">
        <ele>2517.0</ele>
        <time>2013-07-02T12:25:17Z</time>
      </trkpt>
      <trkpt lat="40.184167" lon="-4.823500">
        <ele>2520.0</ele>
        <time>2013-07-02T12:25:18Z</time>
      </trkpt>
      <trkpt lat="40.184167" lon="-4.823367">
        <ele>2523.0</ele>
        <time>2013-07-02T12:25:19Z</time>
      </trkpt>
      <trkpt lat="40.184183" lon="-4.823233">
        <ele>2526.0</ele>
        <time>2013-07-02T12:25:20Z</time>
      </trkpt>
      <trkpt lat="40.184233" lon="-4.823100">
        <ele>2529.0</ele>
        <time>2013-07-02T12:25:21Z</time>
      </trkpt>
      <trkpt lat="40.184300" lon="-4.822983">
        <ele>2532.0</ele>
        <time>2013-07-02T12:25:22Z</time>
      </trkpt>
      <trkpt lat="40.184417" lon="-4.822867">
        <ele>2535.0</ele>
        <time>2013-07-02T12:25:23Z</time>
      </trkpt>
      <trkpt lat="40.184517" lon="-4.822783">
        <ele>2539.0</ele>
        <time>2013-07-02T12:25:24Z</time>
      </trkpt>
      <trkpt lat="40.184633" lon="-4.822733">
        <ele>2543.0</ele>
        <time>2013-07-02T12:25:25Z</time>
      </trkpt>
      <trkpt lat="40.184750" lon="-4.822700">
        <ele>2546.0</ele>
        <time>2013-07-02T12:25:26Z</time>
      </trkpt>
      <trkpt lat="40.184850" lon="-4.822700">
        <ele>2548.0</ele>
        <time>2013-07-02T12:25:27Z</time>
      </trkpt>
      <trkpt lat="40.184950" lon="-4.822733">
        <ele>2549.0</ele>
        <time>2013-07-02T12:25:28Z</time>
      </trkpt>
      <trkpt lat="40.185017" lon="-4.822817">
        <ele>2549.0</ele>
        <time>2013-07-02T12:25:29Z</time>
      </trkpt>
      <trkpt lat="40.185067" lon="-4.822900">
        <ele>2549.0</ele>
        <time>2013-07-02T12:25:30Z</time>
      </trkpt>
      <trkpt lat="40.185067" lon="-4.822967">
        <ele>2550.0</ele>
        <time>2013-07-02T12:25:31Z</time>
      </trkpt>
      <trkpt lat="40.185050" lon="-4.823033">
        <ele>2552.0</ele>
        <time>2013-07-02T12:25:32Z</time>
      </trkpt>
      <trkpt lat="40.185017" lon="-4.823067">
        <ele>2554.0</ele>
        <time>2013-07-02T12:25:33Z</time>
      </trkpt>
      <trkpt lat="40.185000" lon="-4.823100">
        <ele>2557.0</ele>
        <time>2013-07-02T12:25:34Z</time>
      </trkpt>
      <trkpt lat="40.184950" lon="-4.823133">
        <ele>2560.0</ele>
        <time>2013-07-02T12:25:35Z</time>
      </trkpt>
      <trkpt lat="40.184917" lon="-4.823133">
        <ele>2563.0</ele>
        <time>2013-07-02T12:25:36Z</time>
      </trkpt>
      <trkpt lat="40.184867" lon="-4.823133">
        <ele>2566.0</ele>
        <time>2013-07-02T12:25:37Z</time>
      </trkpt>
      <trkpt lat="40.184817" lon="-4.823133">
        <ele>2570.0</ele>
        <time>2013-07-02T12:25:38Z</time>
      </trkpt>
      <trkpt lat="40.184767" lon="-4.823133">
        <ele>2573.0</ele>
        <time>2013-07-02T12:25:39Z</time>
      </trkpt>
      <trkpt lat="40.184733" lon="-4.823100">
        <ele>2577.0</ele>
        <time>2013-07-02T12:25:40Z</time>
      </trkpt>
      <trkpt lat="40.184700" lon="-4.823050">
        <ele>2580.0</ele>
        <time>2013-07-02T12:25:41Z</time>
      </trkpt>
      <trkpt lat="40.184650" lon="-4.822967">
        <ele>2584.0</ele>
        <time>2013-07-02T12:25:42Z</time>
      </trkpt>
      <trkpt lat="40.184633" lon="-4.822850">
        <ele>2586.0</ele>
        <time>2013-07-02T12:25:43Z</time>
      </trkpt>
      <trkpt lat="40.184617" lon="-4.822717">
        <ele>2589.0</ele>
        <time>2013-07-02T12:25:44Z</time>
      </trkpt>
      <trkpt lat="40.184617" lon="-4.822583">
        <ele>2592.0</ele>
        <time>2013-07-02T12:25:45Z</time>
      </trkpt>
      <trkpt lat="40.184650" lon="-4.822433">
        <ele>2595.0</ele>
        <time>2013-07-02T12:25:46Z</time>
      </trkpt>
      <trkpt lat="40.184700" lon="-4.822300">
        <ele>2598.0</ele>
        <time>2013-07-02T12:25:47Z</time>
      </trkpt>
      <trkpt lat="40.184767" lon="-4.822167">
        <ele>2600.0</ele>
        <time>2013-07-02T12:25:48Z</time>
      </trkpt>
      <trkpt lat="40.184833" lon="-4.822050">
        <ele>2602.0</ele>
        <time>2013-07-02T12:25:49Z</time>
      </trkpt>
      <trkpt lat="40.184933" lon="-4.821933">
        <ele>2604.0</ele>
        <time>2013-07-02T12:25:50Z</time>
      </trkpt>
      <trkpt lat="40.185017" lon="-4.821833">
        <ele>2607.0</ele>
        <time>2013-07-02T12:25:51Z</time>
      </trkpt>
      <trkpt lat="40.185117" lon="-4.821750">
        <ele>2610.0</ele>
        <time>2013-07-02T12:25:52Z</time>
      </trkpt>
      <trkpt lat="40.185233" lon="-4.821683">
        <ele>2613.0</ele>
        <time>2013-07-02T12:25:53Z</time>
      </trkpt>
      <trkpt lat="40.185333" lon="-4.821633">
        <ele>2615.0</ele>
        <time>2013-07-02T12:25:54Z</time>
      </trkpt>
      <trkpt lat="40.185450" lon="-4.821600">
        <ele>2617.0</ele>
        <time>2013-07-02T12:25:55Z</time>
      </trkpt>
      <trkpt lat="40.185550" lon="-4.821583">
        <ele>2619.0</ele>
        <time>2013-07-02T12:25:56Z</time>
      </trkpt>
      <trkpt lat="40.185650" lon="-4.821583">
        <ele>2620.0</ele>
        <time>2013-07-02T12:25:57Z</time>
      </trkpt>
      <trkpt lat="40.185750" lon="-4.821617">
        <ele>2621.0</ele>
        <time>2013-07-02T12:25:58Z</time>
      </trkpt>
      <trkpt lat="40.185850" lon="-4.821650">
        <ele>2622.0</ele>
        <time>2013-07-02T12:25:59Z</time>
      </trkpt>
      <trkpt lat="40.185917" lon="-4.821733">
        <ele>2623.0</ele>
        <time>2013-07-02T12:26:00Z</time>
      </trkpt>
      <trkpt lat="40.185967" lon="-4.821817">
        <ele>2624.0</ele>
        <time>2013-07-02T12:26:01Z</time>
      </trkpt>
      <trkpt lat="40.185983" lon="-4.821917">
        <ele>2624.0</ele>
        <time>2013-07-02T12:26:02Z</time>
      </trkpt>
      <trkpt lat="40.185983" lon="-4.821983">
        <ele>2625.0</ele>
        <time>2013-07-02T12:26:03Z</time>
      </trkpt>
      <trkpt lat="40.185967" lon="-4.822050">
        <ele>2627.0</ele>
        <time>2013-07-02T12:26:04Z</time>
      </trkpt>
      <trkpt lat="40.185950" lon="-4.822100">
        <ele>2629.0</ele>
        <time>2013-07-02T12:26:05Z</time>
      </trkpt>
      <trkpt lat="40.185950" lon="-4.822150">
        <ele>2630.0</ele>
        <time>2013-07-02T12:26:06Z</time>
      </trkpt>
      <trkpt lat="40.185950" lon="-4.822217">
        <ele>2631.0</ele>
        <time>2013-07-02T12:26:07Z</time>
      </trkpt>
      <trkpt lat="40.185917" lon="-4.822267">
        <ele>2632.0</ele>
        <time>2013-07-02T12:26:08Z</time>
      </trkpt>
      <trkpt lat="40.185900" lon="-4.822317">
        <ele>2633.0</ele>
        <time>2013-07-02T12:26:09Z</time>
      </trkpt>
      <trkpt lat="40.185867" lon="-4.822333">
        <ele>2634.0</ele>
        <time>2013-07-02T12:26:10Z</time>
      </trkpt>
      <trkpt lat="40.185833" lon="-4.822350">
        <ele>2636.0</ele>
        <time>2013-07-02T12:26:11Z</time>
      </trkpt>
      <trkpt lat="40.185783" lon="-4.822367">
        <ele>2638.0</ele>
        <time>2013-07-02T12:26:12Z</time>
      </trkpt>
      <trkpt lat="40.185767" lon="-4.822383">
        <ele>2641.0</ele>
        <time>2013-07-02T12:26:13Z</time>
      </trkpt>
      <trkpt lat="40.185733" lon="-4.822367">
        <ele>2645.0</ele>
        <time>2013-07-02T12:26:14Z</time>
      </trkpt>
      <trkpt lat="40.185717" lon="-4.822333">
        <ele>2648.0</ele>
        <time>2013-07-02T12:26:15Z</time>
      </trkpt>
      <trkpt lat="40.185700" lon="-4.822317">
        <ele>2650.0</ele>
        <time>2013-07-02T12:26:16Z</time>
      </trkpt>
      <trkpt lat="40.185650" lon="-4.822317">
        <ele>2651.0</ele>
        <time>2013-07-02T12:26:17Z</time>
      </trkpt>
      <trkpt lat="40.185600" lon="-4.822333">
        <ele>2653.0</ele>
        <time>2013-07-02T12:26:18Z</time>
      </trkpt>
      <trkpt lat="40.185550" lon="-4.822333">
        <ele>2657.0</ele>
        <time>2013-07-02T12:26:19Z</time>
      </trkpt>
      <trkpt lat="40.185500" lon="-4.822350">
        <ele>2662.0</ele>
        <time>2013-07-02T12:26:20Z</time>
      </trkpt>
      <trkpt lat="40.185483" lon="-4.822367">
        <ele>2666.0</ele>
        <time>2013-07-02T12:26:21Z</time>
      </trkpt>
      <trkpt lat="40.185467" lon="-4.822417">
        <ele>2669.0</ele>
        <time>2013-07-02T12:26:22Z</time>
      </trkpt>
      <trkpt lat="40.185467" lon="-4.822467">
        <ele>2672.0</ele>
        <time>2013-07-02T12:26:23Z</time>
      </trkpt>
      <trkpt lat="40.185450" lon="-4.822517">
        <ele>2675.0</ele>
        <time>2013-07-02T12:26:24Z</time>
      </trkpt>
      <trkpt lat="40.185450" lon="-4.822583">
        <ele>2678.0</ele>
        <time>2013-07-02T12:26:25Z</time>
      </trkpt>
      <trkpt lat="40.185433" lon="-4.822633">
        <ele>2682.0</ele>
        <time>2013-07-02T12:26:26Z</time>
      </trkpt>
      <trkpt lat="40.185433" lon="-4.822683">
        <ele>2686.0</ele>
        <time>2013-07-02T12:26:27Z</time>
      </trkpt>
      <trkpt lat="40.185400" lon="-4.822717">
        <ele>2688.0</ele>
        <time>2013-07-02T12:26:28Z</time>
      </trkpt>
      <trkpt lat="40.185367" lon="-4.822750">
        <ele>2690.0</ele>
        <time>2013-07-02T12:26:29Z</time>
      </trkpt>
      <trkpt lat="40.185300" lon="-4.822783">
        <ele>2693.0</ele>
        <time>2013-07-02T12:26:30Z</time>
      </trkpt>
      <trkpt lat="40.185250" lon="-4.822800">
        <ele>2696.0</ele>
        <time>2013-07-02T12:26:31Z</time>
      </trkpt>
      <trkpt lat="40.185183" lon="-4.822800">
        <ele>2700.0</ele>
        <time>2013-07-02T12:26:32Z</time>
      </trkpt>
      <trkpt lat="40.185133" lon="-4.822783">
        <ele>2703.0</ele>
        <time>2013-07-02T12:26:33Z</time>
      </trkpt>
      <trkpt lat="40.185083" lon="-4.822733">
        <ele>2705.0</ele>
        <time>2013-07-02T12:26:34Z</time>
      </trkpt>
      <trkpt lat="40.185017" lon="-4.822683">
        <ele>2707.0</ele>
        <time>2013-07-02T12:26:35Z</time>
      </trkpt>
      <trkpt lat="40.184933" lon="-4.822600">
        <ele>2709.0</ele>
        <time>2013-07-02T12:26:36Z</time>
      </trkpt>
      <trkpt lat="40.184867" lon="-4.822533">
        <ele>2712.0</ele>
        <time>2013-07-02T12:26:37Z</time>
      </trkpt>
      <trkpt lat="40.184817" lon="-4.822433">
        <ele>2715.0</ele>
        <time>2013-07-02T12:26:38Z</time>
      </trkpt>
      <trkpt lat="40.184800" lon="-4.822333">
        <ele>2718.0</ele>
        <time>2013-07-02T12:26:39Z</time>
      </trkpt>
      <trkpt lat="40.184783" lon="-4.822217">
        <ele>2720.0</ele>
        <time>2013-07-02T12:26:40Z</time>
      </trkpt>
      <trkpt lat="40.184783" lon="-4.822100">
        <ele>2721.0</ele>
        <time>2013-07-02T12:26:41Z</time>
      </trkpt>
      <trkpt lat="40.184783" lon="-4.822000">
        <ele>2722.0</ele>
        <time>2013-07-02T12:26:42Z</time>
      </trkpt>
      <trkpt lat="40.184783" lon="-4.821883">
        <ele>2722.0</ele>
        <time>2013-07-02T12:26:43Z</time>
      </trkpt>
      <trkpt lat="40.184800" lon="-4.821767">
        <ele>2722.0</ele>
        <time>2013-07-02T12:26:44Z</time>
      </trkpt>
      <trkpt lat="40.184850" lon="-4.821633">
        <ele>2721.0</ele>
        <time>2013-07-02T12:26:45Z</time>
      </trkpt>
      <trkpt lat="40.184917" lon="-4.821517">
        <ele>2721.0</ele>
        <time>2013-07-02T12:26:46Z</time>
      </trkpt>
      <trkpt lat="40.185000" lon="-4.821417">
        <ele>2721.0</ele>
        <time>2013-07-02T12:26:47Z</time>
      </trkpt>
      <trkpt lat="40.185067" lon="-4.821333">
        <ele>2723.0</ele>
        <time>2013-07-02T12:26:48Z</time>
      </trkpt>
      <trkpt lat="40.185150" lon="-4.821250">
        <ele>2724.0</ele>
        <time>2013-07-02T12:26:49Z</time>
      </trkpt>
      <trkpt lat="40.185217" lon="-4.821183">
        <ele>2726.0</ele>
        <time>2013-07-02T12:26:50Z</time>
      </trkpt>
      <trkpt lat="40.185300" lon="-4.821117">
        <ele>2727.0</ele>
        <time>2013-07-02T12:26:51Z</time>
      </trkpt>
      <trkpt lat="40.185400" lon="-4.821083">
        <ele>2727.0</ele>
        <time>2013-07-02T12:26:52Z</time>
      </trkpt>
      <trkpt lat="40.185500" lon="-4.821067">
        <ele>2727.0</ele>
        <time>2013-07-02T12:26:53Z</time>
      </trkpt>
      <trkpt lat="40.185600" lon="-4.821083">
        <ele>2729.0</ele>
        <time>2013-07-02T12:26:54Z</time>
      </trkpt>
      <trkpt lat="40.185683" lon="-4.821117">
        <ele>2731.0</ele>
        <time>2013-07-02T12:26:55Z</time>
      </trkpt>
      <trkpt lat="40.185733" lon="-4.821167">
        <ele>2732.0</ele>
        <time>2013-07-02T12:26:56Z</time>
      </trkpt>
      <trkpt lat="40.185783" lon="-4.821200">
        <ele>2733.0</ele>
        <time>2013-07-02T12:26:57Z</time>
      </trkpt>
      <trkpt lat="40.185817" lon="-4.821267">
        <ele>2733.0</ele>
        <time>2013-07-02T12:26:58Z</time>
      </trkpt>
      <trkpt lat="40.185850" lon="-4.821350">
        <ele>2733.0</ele>
        <time>2013-07-02T12:26:59Z</time>
      </trkpt>
      <trkpt lat="40.185850" lon="-4.821450">
        <ele>2734.0</ele>
        <time>2013-07-02T12:27:00Z</time>
      </trkpt>
      <trkpt lat="40.185833" lon="-4.821550">
        <ele>2736.0</ele>
        <time>2013-07-02T12:27:01Z</time>
      </trkpt>
      <trkpt lat="40.185800" lon="-4.821617">
        <ele>2740.0</ele>
        <time>2013-07-02T12:27:02Z</time>
      </trkpt>
      <trkpt lat="40.185767" lon="-4.821650">
        <ele>2742.0</ele>
        <time>2013-07-02T12:27:03Z</time>
      </trkpt>
      <trkpt lat="40.185717" lon="-4.821683">
        <ele>2744.0</ele>
        <time>2013-07-02T12:27:04Z</time>
      </trkpt>
      <trkpt lat="40.185667" lon="-4.821717">
        <ele>2745.0</ele>
        <time>2013-07-02T12:27:05Z</time>
      </trkpt>
      <trkpt lat="40.185617" lon="-4.821733">
        <ele>2747.0</ele>
        <time>2013-07-02T12:27:06Z</time>
      </trkpt>
      <trkpt lat="40.185533" lon="-4.821733">
        <ele>2748.0</ele>
        <time>2013-07-02T12:27:07Z</time>
      </trkpt>
      <trkpt lat="40.185467" lon="-4.821700">
        <ele>2749.0</ele>
        <time>2013-07-02T12:27:08Z</time>
      </trkpt>
      <trkpt lat="40.185400" lon="-4.821633">
        <ele>2750.0</ele>
        <time>2013-07-02T12:27:09Z</time>
      </trkpt>
      <trkpt lat="40.185367" lon="-4.821550">
        <ele>2751.0</ele>
        <time>2013-07-02T12:27:10Z</time>
      </trkpt>
      <trkpt lat="40.185333" lon="-4.821450">
        <ele>2752.0</ele>
        <time>2013-07-02T12:27:11Z</time>
      </trkpt>
      <trkpt lat="40.185300" lon="-4.821333">
        <ele>2752.0</ele>
        <time>2013-07-02T12:27:12Z</time>
      </trkpt>
      <trkpt lat="40.185283" lon="-4.821217">
        <ele>2752.0</ele>
        <time>2013-07-02T12:27:13Z</time>
      </trkpt>
      <trkpt lat="40.185300" lon="-4.821100">
        <ele>2752.0</ele>
        <time>2013-07-02T12:27:14Z</time>
      </trkpt>
      <trkpt lat="40.185333" lon="-4.821000">
        <ele>2751.0</ele>
        <time>2013-07-02T12:27:15Z</time>
      </trkpt>
      <trkpt lat="40.185400" lon="-4.820900">
        <ele>2750.0</ele>
        <time>2013-07-02T12:27:16Z</time>
      </trkpt>
      <trkpt lat="40.185483" lon="-4.820800">
        <ele>2749.0</ele>
        <time>2013-07-02T12:27:17Z</time>
      </trkpt>
      <trkpt lat="40.185583" lon="-4.820750">
        <ele>2749.0</ele>
        <time>2013-07-02T12:27:18Z</time>
      </trkpt>
      <trkpt lat="40.185667" lon="-4.820717">
        <ele>2749.0</ele>
        <time>2013-07-02T12:27:19Z</time>
      </trkpt>
      <trkpt lat="40.185767" lon="-4.820700">
        <ele>2749.0</ele>
        <time>2013-07-02T12:27:20Z</time>
      </trkpt>
      <trkpt lat="40.185850" lon="-4.820717">
        <ele>2748.0</ele>
        <time>2013-07-02T12:27:21Z</time>
      </trkpt>
      <trkpt lat="40.185933" lon="-4.820733">
        <ele>2747.0</ele>
        <time>2013-07-02T12:27:22Z</time>
      </trkpt>
      <trkpt lat="40.186017" lon="-4.820783">
        <ele>2746.0</ele>
        <time>2013-07-02T12:27:23Z</time>
      </trkpt>
      <trkpt lat="40.186100" lon="-4.820833">
        <ele>2745.0</ele>
        <time>2013-07-02T12:27:24Z</time>
      </trkpt>
      <trkpt lat="40.186150" lon="-4.820917">
        <ele>2744.0</ele>
        <time>2013-07-02T12:27:25Z</time>
      </trkpt>
      <trkpt lat="40.186200" lon="-4.820983">
        <ele>2744.0</ele>
        <time>2013-07-02T12:27:26Z</time>
      </trkpt>
      <trkpt lat="40.186233" lon="-4.821050">
        <ele>2744.0</ele>
        <time>2013-07-02T12:27:27Z</time>
      </trkpt>
      <trkpt lat="40.186267" lon="-4.821100">
        <ele>2743.0</ele>
        <time>2013-07-02T12:27:28Z</time>
      </trkpt>
      <trkpt lat="40.186300" lon="-4.821183">
        <ele>2741.0</ele>
        <time>2013-07-02T12:27:29Z</time>
      </trkpt>
      <trkpt lat="40.186317" lon="-4.821267">
        <ele>2740.0</ele>
        <time>2013-07-02T12:27:30Z</time>
      </trkpt>
      <trkpt lat="40.186333" lon="-4.821367">
        <ele>2740.0</ele>
        <time>2013-07-02T12:27:31Z</time>
      </trkpt>
      <trkpt lat="40.186317" lon="-4.821450">
        <ele>2740.0</ele>
        <time>2013-07-02T12:27:32Z</time>
      </trkpt>
      <trkpt lat="40.186283" lon="-4.821517">
        <ele>2741.0</ele>
        <time>2013-07-02T12:27:33Z</time>
      </trkpt>
      <trkpt lat="40.186267" lon="-4.821567">
        <ele>2741.0</ele>
        <time>2013-07-02T12:27:34Z</time>
      </trkpt>
      <trkpt lat="40.186250" lon="-4.821617">
        <ele>2739.0</ele>
        <time>2013-07-02T12:27:35Z</time>
      </trkpt>
      <trkpt lat="40.186217" lon="-4.821667">
        <ele>2737.0</ele>
        <time>2013-07-02T12:27:36Z</time>
      </trkpt>
      <trkpt lat="40.186183" lon="-4.821750">
        <ele>2735.0</ele>
        <time>2013-07-02T12:27:37Z</time>
      </trkpt>
      <trkpt lat="40.186133" lon="-4.821817">
        <ele>2733.0</ele>
        <time>2013-07-02T12:27:38Z</time>
      </trkpt>
      <trkpt lat="40.186067" lon="-4.821867">
        <ele>2732.0</ele>
        <time>2013-07-02T12:27:39Z</time>
      </trkpt>
      <trkpt lat="40.186000" lon="-4.821883">
        <ele>2731.0</ele>
        <time>2013-07-02T12:27:40Z</time>
      </trkpt>
      <trkpt lat="40.185917" lon="-4.821850">
        <ele>2730.0</ele>
        <time>2013-07-02T12:27:41Z</time>
      </trkpt>
      <trkpt lat="40.185850" lon="-4.821783">
        <ele>2729.0</ele>
        <time>2013-07-02T12:27:42Z</time>
      </trkpt>
      <trkpt lat="40.185783" lon="-4.821700">
        <ele>2728.0</ele>
        <time>2013-07-02T12:27:43Z</time>
      </trkpt>
      <trkpt lat="40.185750" lon="-4.821583">
        <ele>2727.0</ele>
        <time>2013-07-02T12:27:44Z</time>
      </trkpt>
      <trkpt lat="40.185750" lon="-4.821467">
        <ele>2725.0</ele>
        <time>2013-07-02T12:27:45Z</time>
      </trkpt>
      <trkpt lat="40.185767" lon="-4.821333">
        <ele>2723.0</ele>
        <time>2013-07-02T12:27:46Z</time>
      </trkpt>
      <trkpt lat="40.185817" lon="-4.821217">
        <ele>2721.0</ele>
        <time>2013-07-02T12:27:47Z</time>
      </trkpt>
      <trkpt lat="40.185883" lon="-4.821100">
        <ele>2719.0</ele>
        <time>2013-07-02T12:27:48Z</time>
      </trkpt>
      <trkpt lat="40.185967" lon="-4.821000">
        <ele>2717.0</ele>
        <time>2013-07-02T12:27:49Z</time>
      </trkpt>
      <trkpt lat="40.186033" lon="-4.820883">
        <ele>2715.0</ele>
        <time>2013-07-02T12:27:50Z</time>
      </trkpt>
      <trkpt lat="40.186100" lon="-4.820783">
        <ele>2715.0</ele>
        <time>2013-07-02T12:27:51Z</time>
      </trkpt>
      <trkpt lat="40.186167" lon="-4.820667">
        <ele>2714.0</ele>
        <time>2013-07-02T12:27:52Z</time>
      </trkpt>
      <trkpt lat="40.186233" lon="-4.820567">
        <ele>2713.0</ele>
        <time>2013-07-02T12:27:53Z</time>
      </trkpt>
      <trkpt lat="40.186317" lon="-4.820483">
        <ele>2712.0</ele>
        <time>2013-07-02T12:27:54Z</time>
      </trkpt>
      <trkpt lat="40.186383" lon="-4.820383">
        <ele>2710.0</ele>
        <time>2013-07-02T12:27:55Z</time>
      </trkpt>
      <trkpt lat="40.186483" lon="-4.820300">
        <ele>2709.0</ele>
        <time>2013-07-02T12:27:56Z</time>
      </trkpt>
      <trkpt lat="40.186583" lon="-4.820217">
        <ele>2707.0</ele>
        <time>2013-07-02T12:27:57Z</time>
      </trkpt>
      <trkpt lat="40.186683" lon="-4.820133">
        <ele>2706.0</ele>
        <time>2013-07-02T12:27:58Z</time>
      </trkpt>
      <trkpt lat="40.186800" lon="-4.820050">
        <ele>2705.0</ele>
        <time>2013-07-02T12:27:59Z</time>
      </trkpt>
      <trkpt lat="40.186917" lon="-4.820000">
        <ele>2704.0</ele>
        <time>2013-07-02T12:28:00Z</time>
      </trkpt>
      <trkpt lat="40.187050" lon="-4.819933">
        <ele>2703.0</ele>
        <time>2013-07-02T12:28:01Z</time>
      </trkpt>
      <trkpt lat="40.187167" lon="-4.819900">
        <ele>2701.0</ele>
        <time>2013-07-02T12:28:02Z</time>
      </trkpt>
      <trkpt lat="40.187317" lon="-4.819850">
        <ele>2699.0</ele>
        <time>2013-07-02T12:28:03Z</time>
      </trkpt>
      <trkpt lat="40.187433" lon="-4.819817">
        <ele>2699.0</ele>
        <time>2013-07-02T12:28:04Z</time>
      </trkpt>
      <trkpt lat="40.187567" lon="-4.819767">
        <ele>2701.0</ele>
        <time>2013-07-02T12:28:05Z</time>
      </trkpt>
      <trkpt lat="40.187667" lon="-4.819733">
        <ele>2702.0</ele>
        <time>2013-07-02T12:28:06Z</time>
      </trkpt>
      <trkpt lat="40.187783" lon="-4.819700">
        <ele>2702.0</ele>
        <time>2013-07-02T12:28:07Z</time>
      </trkpt>
      <trkpt lat="40.187867" lon="-4.819683">
        <ele>2704.0</ele>
        <time>2013-07-02T12:28:08Z</time>
      </trkpt>
      <trkpt lat="40.187967" lon="-4.819683">
        <ele>2706.0</ele>
        <time>2013-07-02T12:28:09Z</time>
      </trkpt>
      <trkpt lat="40.188050" lon="-4.819700">
        <ele>2709.0</ele>
        <time>2013-07-02T12:28:10Z</time>
      </trkpt>
      <trkpt lat="40.188133" lon="-4.819700">
        <ele>2712.0</ele>
        <time>2013-07-02T12:28:11Z</time>
      </trkpt>
      <trkpt lat="40.188217" lon="-4.819700">
        <ele>2716.0</ele>
        <time>2013-07-02T12:28:12Z</time>
      </trkpt>
      <trkpt lat="40.188283" lon="-4.819700">
        <ele>2720.0</ele>
        <time>2013-07-02T12:28:13Z</time>
      </trkpt>
      <trkpt lat="40.188350" lon="-4.819733">
        <ele>2723.0</ele>
        <time>2013-07-02T12:28:14Z</time>
      </trkpt>
      <trkpt lat="40.188400" lon="-4.819767">
        <ele>2726.0</ele>
        <time>2013-07-02T12:28:15Z</time>
      </trkpt>
      <trkpt lat="40.188450" lon="-4.819800">
        <ele>2730.0</ele>
        <time>2013-07-02T12:28:16Z</time>
      </trkpt>
      <trkpt lat="40.188500" lon="-4.819833">
        <ele>2734.0</ele>
        <time>2013-07-02T12:28:17Z</time>
      </trkpt>
      <trkpt lat="40.188550" lon="-4.819850">
        <ele>2738.0</ele>
        <time>2013-07-02T12:28:18Z</time>
      </trkpt>
      <trkpt lat="40.188583" lon="-4.819883">
        <ele>2741.0</ele>
        <time>2013-07-02T12:28:19Z</time>
      </trkpt>
      <trkpt lat="40.188600" lon="-4.819900">
        <ele>2744.0</ele>
        <time>2013-07-02T12:28:20Z</time>
      </trkpt>
      <trkpt lat="40.188583" lon="-4.819950">
        <ele>2746.0</ele>
        <time>2013-07-02T12:28:21Z</time>
      </trkpt>
      <trkpt lat="40.188567" lon="-4.820000">
        <ele>2749.0</ele>
        <time>2013-07-02T12:28:22Z</time>
      </trkpt>
      <trkpt lat="40.188533" lon="-4.820033">
        <ele>2753.0</ele>
        <time>2013-07-02T12:28:23Z</time>
      </trkpt>
      <trkpt lat="40.188500" lon="-4.820033">
        <ele>2757.0</ele>
        <time>2013-07-02T12:28:24Z</time>
      </trkpt>
      <trkpt lat="40.188450" lon="-4.819967">
        <ele>2761.0</ele>
        <time>2013-07-02T12:28:25Z</time>
      </trkpt>
      <trkpt lat="40.188417" lon="-4.819867">
        <ele>2762.0</ele>
        <time>2013-07-02T12:28:26Z</time>
      </trkpt>
      <trkpt lat="40.188383" lon="-4.819717">
        <ele>2761.0</ele>
        <time>2013-07-02T12:28:27Z</time>
      </trkpt>
      <trkpt lat="40.188383" lon="-4.819567">
        <ele>2763.0</ele>
        <time>2013-07-02T12:28:28Z</time>
      </trkpt>
      <trkpt lat="40.188400" lon="-4.819400">
        <ele>2765.0</ele>
        <time>2013-07-02T12:28:29Z</time>
      </trkpt>
      <trkpt lat="40.188467" lon="-4.819250">
        <ele>2767.0</ele>
        <time>2013-07-02T12:28:30Z</time>
      </trkpt>
      <trkpt lat="40.188550" lon="-4.819133">
        <ele>2769.0</ele>
        <time>2013-07-02T12:28:31Z</time>
      </trkpt>
      <trkpt lat="40.188650" lon="-4.819033">
        <ele>2772.0</ele>
        <time>2013-07-02T12:28:32Z</time>
      </trkpt>
      <trkpt lat="40.188767" lon="-4.818950">
        <ele>2775.0</ele>
        <time>2013-07-02T12:28:33Z</time>
      </trkpt>
      <trkpt lat="40.188867" lon="-4.818883">
        <ele>2778.0</ele>
        <time>2013-07-02T12:28:34Z</time>
      </trkpt>
      <trkpt lat="40.188950" lon="-4.818817">
        <ele>2782.0</ele>
        <time>2013-07-02T12:28:35Z</time>
      </trkpt>
      <trkpt lat="40.189050" lon="-4.818783">
        <ele>2784.0</ele>
        <time>2013-07-02T12:28:36Z</time>
      </trkpt>
      <trkpt lat="40.189167" lon="-4.818783">
        <ele>2786.0</ele>
        <time>2013-07-02T12:28:37Z</time>
      </trkpt>
      <trkpt lat="40.189267" lon="-4.818817">
        <ele>2788.0</ele>
        <time>2013-07-02T12:28:38Z</time>
      </trkpt>
      <trkpt lat="40.189317" lon="-4.818883">
        <ele>2790.0</ele>
        <time>2013-07-02T12:28:39Z</time>
      </trkpt>
      <trkpt lat="40.189350" lon="-4.818950">
        <ele>2792.0</ele>
        <time>2013-07-02T12:28:40Z</time>
      </trkpt>
      <trkpt lat="40.189333" lon="-4.819000">
        <ele>2794.0</ele>
        <time>2013-07-02T12:28:41Z</time>
      </trkpt>
      <trkpt lat="40.189300" lon="-4.819017">
        <ele>2798.0</ele>
        <time>2013-07-02T12:28:42Z</time>
      </trkpt>
      <trkpt lat="40.189267" lon="-4.819000">
        <ele>2801.0</ele>
        <time>2013-07-02T12:28:43Z</time>
      </trkpt>
      <trkpt lat="40.189217" lon="-4.818983">
        <ele>2804.0</ele>
        <time>2013-07-02T12:28:44Z</time>
      </trkpt>
      <trkpt lat="40.189183" lon="-4.818950">
        <ele>2808.0</ele>
        <time>2013-07-02T12:28:45Z</time>
      </trkpt>
      <trkpt lat="40.189150" lon="-4.818883">
        <ele>2810.0</ele>
        <time>2013-07-02T12:28:46Z</time>
      </trkpt>
      <trkpt lat="40.189100" lon="-4.818800">
        <ele>2813.0</ele>
        <time>2013-07-02T12:28:47Z</time>
      </trkpt>
      <trkpt lat="40.189067" lon="-4.818683">
        <ele>2815.0</ele>
        <time>2013-07-02T12:28:48Z</time>
      </trkpt>
      <trkpt lat="40.189050" lon="-4.818550">
        <ele>2817.0</ele>
        <time>2013-07-02T12:28:49Z</time>
      </trkpt>
      <trkpt lat="40.189033" lon="-4.818400">
        <ele>2818.0</ele>
        <time>2013-07-02T12:28:50Z</time>
      </trkpt>
      <trkpt lat="40.189050" lon="-4.818250">
        <ele>2818.0</ele>
        <time>2013-07-02T12:28:51Z</time>
      </trkpt>
      <trkpt lat="40.189100" lon="-4.818100">
        <ele>2819.0</ele>
        <time>2013-07-02T12:28:52Z</time>
      </trkpt>
      <trkpt lat="40.189167" lon="-4.817950">
        <ele>2820.0</ele>
        <time>2013-07-02T12:28:53Z</time>
      </trkpt>
      <trkpt lat="40.189233" lon="-4.817833">
        <ele>2821.0</ele>
        <time>2013-07-02T12:28:54Z</time>
      </trkpt>
      <trkpt lat="40.189333" lon="-4.817733">
        <ele>2822.0</ele>
        <time>2013-07-02T12:28:55Z</time>
      </trkpt>
      <trkpt lat="40.189433" lon="-4.817650">
        <ele>2823.0</ele>
        <time>2013-07-02T12:28:56Z</time>
      </trkpt>
      <trkpt lat="40.189550" lon="-4.817583">
        <ele>2823.0</ele>
        <time>2013-07-02T12:28:57Z</time>
      </trkpt>
      <trkpt lat="40.189667" lon="-4.817517">
        <ele>2824.0</ele>
        <time>2013-07-02T12:28:58Z</time>
      </trkpt>
      <trkpt lat="40.189783" lon="-4.817467">
        <ele>2826.0</ele>
        <time>2013-07-02T12:28:59Z</time>
      </trkpt>
      <trkpt lat="40.189900" lon="-4.817433">
        <ele>2827.0</ele>
        <time>2013-07-02T12:29:00Z</time>
      </trkpt>
      <trkpt lat="40.190017" lon="-4.817400">
        <ele>2829.0</ele>
        <time>2013-07-02T12:29:01Z</time>
      </trkpt>
      <trkpt lat="40.190117" lon="-4.817367">
        <ele>2832.0</ele>
        <time>2013-07-02T12:29:02Z</time>
      </trkpt>
      <trkpt lat="40.190233" lon="-4.817350">
        <ele>2834.0</ele>
        <time>2013-07-02T12:29:03Z</time>
      </trkpt>
      <trkpt lat="40.190333" lon="-4.817317">
        <ele>2835.0</ele>
        <time>2013-07-02T12:29:04Z</time>
      </trkpt>
      <trkpt lat="40.190417" lon="-4.817300">
        <ele>2836.0</ele>
        <time>2013-07-02T12:29:05Z</time>
      </trkpt>
      <trkpt lat="40.190517" lon="-4.817267">
        <ele>2837.0</ele>
        <time>2013-07-02T12:29:06Z</time>
      </trkpt>
      <trkpt lat="40.190617" lon="-4.817250">
        <ele>2837.0</ele>
        <time>2013-07-02T12:29:07Z</time>
      </trkpt>
      <trkpt lat="40.190717" lon="-4.817233">
        <ele>2838.0</ele>
        <time>2013-07-02T12:29:08Z</time>
      </trkpt>
      <trkpt lat="40.190817" lon="-4.817217">
        <ele>2838.0</ele>
        <time>2013-07-02T12:29:09Z</time>
      </trkpt>
      <trkpt lat="40.190933" lon="-4.817233">
        <ele>2839.0</ele>
        <time>2013-07-02T12:29:10Z</time>
      </trkpt>
      <trkpt lat="40.191033" lon="-4.817250">
        <ele>2840.0</ele>
        <time>2013-07-02T12:29:11Z</time>
      </trkpt>
      <trkpt lat="40.191117" lon="-4.817283">
        <ele>2843.0</ele>
        <time>2013-07-02T12:29:12Z</time>
      </trkpt>
      <trkpt lat="40.191183" lon="-4.817317">
        <ele>2846.0</ele>
        <time>2013-07-02T12:29:13Z</time>
      </trkpt>
      <trkpt lat="40.191250" lon="-4.817333">
        <ele>2848.0</ele>
        <time>2013-07-02T12:29:14Z</time>
      </trkpt>
      <trkpt lat="40.191333" lon="-4.817350">
        <ele>2850.0</ele>
        <time>2013-07-02T12:29:15Z</time>
      </trkpt>
      <trkpt lat="40.191400" lon="-4.817383">
        <ele>2851.0</ele>
        <time>2013-07-02T12:29:16Z</time>
      </trkpt>
      <trkpt lat="40.191450" lon="-4.817433">
        <ele>2852.0</ele>
        <time>2013-07-02T12:29:17Z</time>
      </trkpt>
      <trkpt lat="40.191500" lon="-4.817483">
        <ele>2854.0</ele>
        <time>2013-07-02T12:29:18Z</time>
      </trkpt>
      <trkpt lat="40.191517" lon="-4.817517">
        <ele>2855.0</ele>
        <time>2013-07-02T12:29:19Z</time>
      </trkpt>
      <trkpt lat="40.191533" lon="-4.817550">
        <ele>2856.0</ele>
        <time>2013-07-02T12:29:20Z</time>
      </trkpt>
      <trkpt lat="40.191533" lon="-4.817567">
        <ele>2856.0</ele>
        <time>2013-07-02T12:29:21Z</time>
      </trkpt>
      <trkpt lat="40.191517" lon="-4.817567">
        <ele>2854.0</ele>
        <time>2013-07-02T12:29:22Z</time>
      </trkpt>
      <trkpt lat="40.191500" lon="-4.817567">
        <ele>2852.0</ele>
        <time>2013-07-02T12:29:23Z</time>
      </trkpt>
      <trkpt lat="40.191467" lon="-4.817583">
        <ele>2850.0</ele>
        <time>2013-07-02T12:29:24Z</time>
      </trkpt>
      <trkpt lat="40.191450" lon="-4.817600">
        <ele>2849.0</ele>
        <time>2013-07-02T12:29:25Z</time>
      </trkpt>
      <trkpt lat="40.191450" lon="-4.817633">
        <ele>2847.0</ele>
        <time>2013-07-02T12:29:26Z</time>
      </trkpt>
      <trkpt lat="40.191500" lon="-4.817683">
        <ele>2844.0</ele>
        <time>2013-07-02T12:29:27Z</time>
      </trkpt>
      <trkpt lat="40.191567" lon="-4.817717">
        <ele>2841.0</ele>
        <time>2013-07-02T12:29:28Z</time>
      </trkpt>
      <trkpt lat="40.191667" lon="-4.817750">
        <ele>2839.0</ele>
        <time>2013-07-02T12:29:29Z</time>
      </trkpt>
      <trkpt lat="40.191767" lon="-4.817767">
        <ele>2838.0</ele>
        <time>2013-07-02T12:29:30Z</time>
      </trkpt>
      <trkpt lat="40.191883" lon="-4.817767">
        <ele>2836.0</ele>
        <time>2013-07-02T12:29:31Z</time>
      </trkpt>
      <trkpt lat="40.192017" lon="-4.817783">
        <ele>2835.0</ele>
        <time>2013-07-02T12:29:32Z</time>
      </trkpt>
      <trkpt lat="40.192133" lon="-4.817783">
        <ele>2835.0</ele>
        <time>2013-07-02T12:29:33Z</time>
      </trkpt>
      <trkpt lat="40.192250" lon="-4.817783">
        <ele>2833.0</ele>
        <time>2013-07-02T12:29:34Z</time>
      </trkpt>
      <trkpt lat="40.192383" lon="-4.817767">
        <ele>2832.0</ele>
        <time>2013-07-02T12:29:35Z</time>
      </trkpt>
      <trkpt lat="40.192517" lon="-4.817733">
        <ele>2829.0</ele>
        <time>2013-07-02T12:29:36Z</time>
      </trkpt>
      <trkpt lat="40.192650" lon="-4.817700">
        <ele>2826.0</ele>
        <time>2013-07-02T12:29:37Z</time>
      </trkpt>
      <trkpt lat="40.192783" lon="-4.817667">
        <ele>2823.0</ele>
        <time>2013-07-02T12:29:38Z</time>
      </trkpt>
      <trkpt lat="40.192933" lon="-4.817633">
        <ele>2820.0</ele>
        <time>2013-07-02T12:29:39Z</time>
      </trkpt>
      <trkpt lat="40.193067" lon="-4.817600">
        <ele>2818.0</ele>
        <time>2013-07-02T12:29:40Z</time>
      </trkpt>
      <trkpt lat="40.193200" lon="-4.817567">
        <ele>2816.0</ele>
        <time>2013-07-02T12:29:41Z</time>
      </trkpt>
      <trkpt lat="40.193333" lon="-4.817533">
        <ele>2814.0</ele>
        <time>2013-07-02T12:29:42Z</time>
      </trkpt>
      <trkpt lat="40.193450" lon="-4.817500">
        <ele>2812.0</ele>
        <time>2013-07-02T12:29:43Z</time>
      </trkpt>
      <trkpt lat="40.193550" lon="-4.817483">
        <ele>2810.0</ele>
        <time>2013-07-02T12:29:44Z</time>
      </trkpt>
      <trkpt lat="40.193667" lon="-4.817467">
        <ele>2808.0</ele>
        <time>2013-07-02T12:29:45Z</time>
      </trkpt>
      <trkpt lat="40.193767" lon="-4.817450">
        <ele>2805.0</ele>
        <time>2013-07-02T12:29:46Z</time>
      </trkpt>
      <trkpt lat="40.193900" lon="-4.817417">
        <ele>2801.0</ele>
        <time>2013-07-02T12:29:47Z</time>
      </trkpt>
      <trkpt lat="40.194033" lon="-4.817383">
        <ele>2797.0</ele>
        <time>2013-07-02T12:29:48Z</time>
      </trkpt>
      <trkpt lat="40.194167" lon="-4.817333">
        <ele>2793.0</ele>
        <time>2013-07-02T12:29:49Z</time>
      </trkpt>
      <trkpt lat="40.194300" lon="-4.817300">
        <ele>2790.0</ele>
        <time>2013-07-02T12:29:50Z</time>
      </trkpt>
      <trkpt lat="40.194450" lon="-4.817250">
        <ele>2787.0</ele>
        <time>2013-07-02T12:29:51Z</time>
      </trkpt>
      <trkpt lat="40.194617" lon="-4.817200">
        <ele>2783.0</ele>
        <time>2013-07-02T12:29:52Z</time>
      </trkpt>
      <trkpt lat="40.194783" lon="-4.817167">
        <ele>2781.0</ele>
        <time>2013-07-02T12:29:53Z</time>
      </trkpt>
      <trkpt lat="40.194933" lon="-4.817133">
        <ele>2781.0</ele>
        <time>2013-07-02T12:29:54Z</time>
      </trkpt>
      <trkpt lat="40.195083" lon="-4.817117">
        <ele>2782.0</ele>
        <time>2013-07-02T12:29:55Z</time>
      </trkpt>
      <trkpt lat="40.195217" lon="-4.817083">
        <ele>2783.0</ele>
        <time>2013-07-02T12:29:56Z</time>
      </trkpt>
      <trkpt lat="40.195333" lon="-4.817067">
        <ele>2782.0</ele>
        <time>2013-07-02T12:29:57Z</time>
      </trkpt>
      <trkpt lat="40.195483" lon="-4.817033">
        <ele>2779.0</ele>
        <time>2013-07-02T12:29:58Z</time>
      </trkpt>
      <trkpt lat="40.195633" lon="-4.817017">
        <ele>2777.0</ele>
        <time>2013-07-02T12:29:59Z</time>
      </trkpt>
      <trkpt lat="40.195767" lon="-4.817000">
        <ele>2775.0</ele>
        <time>2013-07-02T12:30:00Z</time>
      </trkpt>
      <trkpt lat="40.195900" lon="-4.817000">
        <ele>2773.0</ele>
        <time>2013-07-02T12:30:01Z</time>
      </trkpt>
      <trkpt lat="40.196033" lon="-4.817000">
        <ele>2772.0</ele>
        <time>2013-07-02T12:30:02Z</time>
      </trkpt>
      <trkpt lat="40.196150" lon="-4.816983">
        <ele>2771.0</ele>
        <time>2013-07-02T12:30:03Z</time>
      </trkpt>
      <trkpt lat="40.196283" lon="-4.816967">
        <ele>2768.0</ele>
        <time>2013-07-02T12:30:04Z</time>
      </trkpt>
      <trkpt lat="40.196433" lon="-4.816967">
        <ele>2765.0</ele>
        <time>2013-07-02T12:30:05Z</time>
      </trkpt>
      <trkpt lat="40.196567" lon="-4.816967">
        <ele>2763.0</ele>
        <time>2013-07-02T12:30:06Z</time>
      </trkpt>
      <trkpt lat="40.196700" lon="-4.816967">
        <ele>2761.0</ele>
        <time>2013-07-02T12:30:07Z</time>
      </trkpt>
      <trkpt lat="40.196833" lon="-4.816950">
        <ele>2760.0</ele>
        <time>2013-07-02T12:30:08Z</time>
      </trkpt>
      <trkpt lat="40.196950" lon="-4.816933">
        <ele>2758.0</ele>
        <time>2013-07-02T12:30:09Z</time>
      </trkpt>
      <trkpt lat="40.197083" lon="-4.816917">
        <ele>2755.0</ele>
        <time>2013-07-02T12:30:10Z</time>
      </trkpt>
      <trkpt lat="40.197217" lon="-4.816900">
        <ele>2752.0</ele>
        <time>2013-07-02T12:30:11Z</time>
      </trkpt>
      <trkpt lat="40.197367" lon="-4.816900">
        <ele>2749.0</ele>
        <time>2013-07-02T12:30:12Z</time>
      </trkpt>
      <trkpt lat="40.197517" lon="-4.816900">
        <ele>2746.0</ele>
        <time>2013-07-02T12:30:13Z</time>
      </trkpt>
      <trkpt lat="40.197650" lon="-4.816883">
        <ele>2744.0</ele>
        <time>2013-07-02T12:30:14Z</time>
      </trkpt>
      <trkpt lat="40.197783" lon="-4.816883">
        <ele>2743.0</ele>
        <time>2013-07-02T12:30:15Z</time>
      </trkpt>
      <trkpt lat="40.197917" lon="-4.816900">
        <ele>2741.0</ele>
        <time>2013-07-02T12:30:16Z</time>
      </trkpt>
      <trkpt lat="40.198050" lon="-4.816917">
        <ele>2740.0</ele>
        <time>2013-07-02T12:30:17Z</time>
      </trkpt>
      <trkpt lat="40.198167" lon="-4.816917">
        <ele>2738.0</ele>
        <time>2013-07-02T12:30:18Z</time>
      </trkpt>
      <trkpt lat="40.198300" lon="-4.816900">
        <ele>2737.0</ele>
        <time>2013-07-02T12:30:19Z</time>
      </trkpt>
      <trkpt lat="40.198433" lon="-4.816883">
        <ele>2735.0</ele>
        <time>2013-07-02T12:30:20Z</time>
      </trkpt>
      <trkpt lat="40.198550" lon="-4.816867">
        <ele>2733.0</ele>
        <time>2013-07-02T12:30:21Z</time>
      </trkpt>
      <trkpt lat="40.198683" lon="-4.816867">
        <ele>2732.0</ele>
        <time>2013-07-02T12:30:22Z</time>
      </trkpt>
      <trkpt lat="40.198800" lon="-4.816867">
        <ele>2730.0</ele>
        <time>2013-07-02T12:30:23Z</time>
      </trkpt>
      <trkpt lat="40.198917" lon="-4.816883">
        <ele>2728.0</ele>
        <time>2013-07-02T12:30:24Z</time>
      </trkpt>
      <trkpt lat="40.199017" lon="-4.816883">
        <ele>2726.0</ele>
        <time>2013-07-02T12:30:25Z</time>
      </trkpt>
      <trkpt lat="40.199133" lon="-4.816883">
        <ele>2724.0</ele>
        <time>2013-07-02T12:30:26Z</time>
      </trkpt>
      <trkpt lat="40.199233" lon="-4.816883">
        <ele>2722.0</ele>
        <time>2013-07-02T12:30:27Z</time>
      </trkpt>
      <trkpt lat="40.199350" lon="-4.816900">
        <ele>2719.0</ele>
        <time>2013-07-02T12:30:28Z</time>
      </trkpt>
      <trkpt lat="40.199467" lon="-4.816900">
        <ele>2716.0</ele>
        <time>2013-07-02T12:30:29Z</time>
      </trkpt>
      <trkpt lat="40.199583" lon="-4.816900">
        <ele>2713.0</ele>
        <time>2013-07-02T12:30:30Z</time>
      </trkpt>
      <trkpt lat="40.199700" lon="-4.816900">
        <ele>2710.0</ele>
        <time>2013-07-02T12:30:31Z</time>
      </trkpt>
      <trkpt lat="40.199817" lon="-4.816900">
        <ele>2707.0</ele>
        <time>2013-07-02T12:30:32Z</time>
      </trkpt>
      <trkpt lat="40.199933" lon="-4.816883">
        <ele>2704.0</ele>
        <time>2013-07-02T12:30:33Z</time>
      </trkpt>
      <trkpt lat="40.200067" lon="-4.816900">
        <ele>2701.0</ele>
        <time>2013-07-02T12:30:34Z</time>
      </trkpt>
      <trkpt lat="40.200183" lon="-4.816900">
        <ele>2698.0</ele>
        <time>2013-07-02T12:30:35Z</time>
      </trkpt>
      <trkpt lat="40.200317" lon="-4.816900">
        <ele>2695.0</ele>
        <time>2013-07-02T12:30:36Z</time>
      </trkpt>
      <trkpt lat="40.200450" lon="-4.816900">
        <ele>2692.0</ele>
        <time>2013-07-02T12:30:37Z</time>
      </trkpt>
      <trkpt lat="40.200583" lon="-4.816900">
        <ele>2689.0</ele>
        <time>2013-07-02T12:30:38Z</time>
      </trkpt>
      <trkpt lat="40.200717" lon="-4.816900">
        <ele>2686.0</ele>
        <time>2013-07-02T12:30:39Z</time>
      </trkpt>
      <trkpt lat="40.200833" lon="-4.816900">
        <ele>2684.0</ele>
        <time>2013-07-02T12:30:40Z</time>
      </trkpt>
      <trkpt lat="40.200967" lon="-4.816883">
        <ele>2682.0</ele>
        <time>2013-07-02T12:30:41Z</time>
      </trkpt>
      <trkpt lat="40.201100" lon="-4.816883">
        <ele>2679.0</ele>
        <time>2013-07-02T12:30:42Z</time>
      </trkpt>
      <trkpt lat="40.201233" lon="-4.816867">
        <ele>2676.0</ele>
        <time>2013-07-02T12:30:43Z</time>
      </trkpt>
      <trkpt lat="40.201383" lon="-4.816850">
        <ele>2673.0</ele>
        <time>2013-07-02T12:30:44Z</time>
      </trkpt>
      <trkpt lat="40.201517" lon="-4.816850">
        <ele>2670.0</ele>
        <time>2013-07-02T12:30:45Z</time>
      </trkpt>
      <trkpt lat="40.201667" lon="-4.816867">
        <ele>2668.0</ele>
        <time>2013-07-02T12:30:46Z</time>
      </trkpt>
      <trkpt lat="40.201800" lon="-4.816867">
        <ele>2666.0</ele>
        <time>2013-07-02T12:30:47Z</time>
      </trkpt>
      <trkpt lat="40.201933" lon="-4.816883">
        <ele>2664.0</ele>
        <time>2013-07-02T12:30:48Z</time>
      </trkpt>
      <trkpt lat="40.202067" lon="-4.816867">
        <ele>2663.0</ele>
        <time>2013-07-02T12:30:49Z</time>
      </trkpt>
      <trkpt lat="40.202200" lon="-4.816867">
        <ele>2661.0</ele>
        <time>2013-07-02T12:30:50Z</time>
      </trkpt>
      <trkpt lat="40.202333" lon="-4.816867">
        <ele>2660.0</ele>
        <time>2013-07-02T12:30:51Z</time>
      </trkpt>
      <trkpt lat="40.202467" lon="-4.816883">
        <ele>2659.0</ele>
        <time>2013-07-02T12:30:52Z</time>
      </trkpt>
      <trkpt lat="40.202600" lon="-4.816917">
        <ele>2657.0</ele>
        <time>2013-07-02T12:30:53Z</time>
      </trkpt>
      <trkpt lat="40.202733" lon="-4.816950">
        <ele>2655.0</ele>
        <time>2013-07-02T12:30:54Z</time>
      </trkpt>
      <trkpt lat="40.202867" lon="-4.816983">
        <ele>2653.0</ele>
        <time>2013-07-02T12:30:55Z</time>
      </trkpt>
      <trkpt lat="40.203017" lon="-4.817017">
        <ele>2652.0</ele>
        <time>2013-07-02T12:30:56Z</time>
      </trkpt>
      <trkpt lat="40.203150" lon="-4.817050">
        <ele>2651.0</ele>
        <time>2013-07-02T12:30:57Z</time>
      </trkpt>
      <trkpt lat="40.203267" lon="-4.817083">
        <ele>2650.0</ele>
        <time>2013-07-02T12:30:58Z</time>
      </trkpt>
      <trkpt lat="40.203400" lon="-4.817117">
        <ele>2649.0</ele>
        <time>2013-07-02T12:30:59Z</time>
      </trkpt>
      <trkpt lat="40.203533" lon="-4.817133">
        <ele>2648.0</ele>
        <time>2013-07-02T12:31:00Z</time>
      </trkpt>
      <trkpt lat="40.203667" lon="-4.817167">
        <ele>2646.0</ele>
        <time>2013-07-02T12:31:01Z</time>
      </trkpt>
      <trkpt lat="40.203800" lon="-4.817200">
        <ele>2644.0</ele>
        <time>2013-07-02T12:31:02Z</time>
      </trkpt>
      <trkpt lat="40.203933" lon="-4.817233">
        <ele>2642.0</ele>
        <time>2013-07-02T12:31:03Z</time>
      </trkpt>
      <trkpt lat="40.204050" lon="-4.817283">
        <ele>2641.0</ele>
        <time>2013-07-02T12:31:04Z</time>
      </trkpt>
      <trkpt lat="40.204183" lon="-4.817317">
        <ele>2639.0</ele>
        <time>2013-07-02T12:31:05Z</time>
      </trkpt>
      <trkpt lat="40.204300" lon="-4.817367">
        <ele>2637.0</ele>
        <time>2013-07-02T12:31:06Z</time>
      </trkpt>
      <trkpt lat="40.204433" lon="-4.817400">
        <ele>2635.0</ele>
        <time>2013-07-02T12:31:07Z</time>
      </trkpt>
      <trkpt lat="40.204567" lon="-4.817450">
        <ele>2632.0</ele>
        <time>2013-07-02T12:31:08Z</time>
      </trkpt>
      <trkpt lat="40.204700" lon="-4.817483">
        <ele>2629.0</ele>
        <time>2013-07-02T12:31:09Z</time>
      </trkpt>
      <trkpt lat="40.204833" lon="-4.817517">
        <ele>2627.0</ele>
        <time>2013-07-02T12:31:10Z</time>
      </trkpt>
      <trkpt lat="40.204967" lon="-4.817550">
        <ele>2624.0</ele>
        <time>2013-07-02T12:31:11Z</time>
      </trkpt>
      <trkpt lat="40.205117" lon="-4.817583">
        <ele>2622.0</ele>
        <time>2013-07-02T12:31:12Z</time>
      </trkpt>
      <trkpt lat="40.205250" lon="-4.817600">
        <ele>2620.0</ele>
        <time>2013-07-02T12:31:13Z</time>
      </trkpt>
      <trkpt lat="40.205383" lon="-4.817617">
        <ele>2618.0</ele>
        <time>2013-07-02T12:31:14Z</time>
      </trkpt>
      <trkpt lat="40.205500" lon="-4.817633">
        <ele>2616.0</ele>
        <time>2013-07-02T12:31:15Z</time>
      </trkpt>
      <trkpt lat="40.205633" lon="-4.817650">
        <ele>2612.0</ele>
        <time>2013-07-02T12:31:16Z</time>
      </trkpt>
      <trkpt lat="40.205767" lon="-4.817650">
        <ele>2609.0</ele>
        <time>2013-07-02T12:31:17Z</time>
      </trkpt>
      <trkpt lat="40.205917" lon="-4.817650">
        <ele>2606.0</ele>
        <time>2013-07-02T12:31:18Z</time>
      </trkpt>
      <trkpt lat="40.206050" lon="-4.817617">
        <ele>2603.0</ele>
        <time>2013-07-02T12:31:19Z</time>
      </trkpt>
      <trkpt lat="40.206217" lon="-4.817567">
        <ele>2600.0</ele>
        <time>2013-07-02T12:31:20Z</time>
      </trkpt>
      <trkpt lat="40.206367" lon="-4.817533">
        <ele>2597.0</ele>
        <time>2013-07-02T12:31:21Z</time>
      </trkpt>
      <trkpt lat="40.206517" lon="-4.817500">
        <ele>2594.0</ele>
        <time>2013-07-02T12:31:22Z</time>
      </trkpt>
      <trkpt lat="40.206683" lon="-4.817467">
        <ele>2592.0</ele>
        <time>2013-07-02T12:31:23Z</time>
      </trkpt>
      <trkpt lat="40.206817" lon="-4.817433">
        <ele>2589.0</ele>
        <time>2013-07-02T12:31:24Z</time>
      </trkpt>
      <trkpt lat="40.206950" lon="-4.817367">
        <ele>2585.0</ele>
        <time>2013-07-02T12:31:25Z</time>
      </trkpt>
      <trkpt lat="40.207100" lon="-4.817317">
        <ele>2580.0</ele>
        <time>2013-07-02T12:31:26Z</time>
      </trkpt>
      <trkpt lat="40.207250" lon="-4.817267">
        <ele>2574.0</ele>
        <time>2013-07-02T12:31:27Z</time>
      </trkpt>
      <trkpt lat="40.207417" lon="-4.817250">
        <ele>2568.0</ele>
        <time>2013-07-02T12:31:28Z</time>
      </trkpt>
      <trkpt lat="40.207567" lon="-4.817250">
        <ele>2564.0</ele>
        <time>2013-07-02T12:31:29Z</time>
      </trkpt>
      <trkpt lat="40.207733" lon="-4.817267">
        <ele>2560.0</ele>
        <time>2013-07-02T12:31:30Z</time>
      </trkpt>
      <trkpt lat="40.207867" lon="-4.817250">
        <ele>2557.0</ele>
        <time>2013-07-02T12:31:31Z</time>
      </trkpt>
      <trkpt lat="40.208000" lon="-4.817250">
        <ele>2555.0</ele>
        <time>2013-07-02T12:31:32Z</time>
      </trkpt>
      <trkpt lat="40.208150" lon="-4.817250">
        <ele>2551.0</ele>
        <time>2013-07-02T12:31:33Z</time>
      </trkpt>
      <trkpt lat="40.208300" lon="-4.817250">
        <ele>2546.0</ele>
        <time>2013-07-02T12:31:34Z</time>
      </trkpt>
      <trkpt lat="40.208467" lon="-4.817267">
        <ele>2542.0</ele>
        <time>2013-07-02T12:31:35Z</time>
      </trkpt>
      <trkpt lat="40.208633" lon="-4.817300">
        <ele>2541.0</ele>
        <time>2013-07-02T12:31:36Z</time>
      </trkpt>
      <trkpt lat="40.208783" lon="-4.817333">
        <ele>2540.0</ele>
        <time>2013-07-02T12:31:37Z</time>
      </trkpt>
      <trkpt lat="40.208917" lon="-4.817333">
        <ele>2540.0</ele>
        <time>2013-07-02T12:31:38Z</time>
      </trkpt>
      <trkpt lat="40.209033" lon="-4.817333">
        <ele>2539.0</ele>
        <time>2013-07-02T12:31:39Z</time>
      </trkpt>
      <trkpt lat="40.209167" lon="-4.817333">
        <ele>2536.0</ele>
        <time>2013-07-02T12:31:40Z</time>
      </trkpt>
      <trkpt lat="40.209317" lon="-4.817350">
        <ele>2532.0</ele>
        <time>2013-07-02T12:31:41Z</time>
      </trkpt>
      <trkpt lat="40.209467" lon="-4.817367">
        <ele>2528.0</ele>
        <time>2013-07-02T12:31:42Z</time>
      </trkpt>
      <trkpt lat="40.209617" lon="-4.817400">
        <ele>2525.0</ele>
        <time>2013-07-02T12:31:43Z</time>
      </trkpt>
      <trkpt lat="40.209750" lon="-4.817433">
        <ele>2523.0</ele>
        <time>2013-07-02T12:31:44Z</time>
      </trkpt>
      <trkpt lat="40.209867" lon="-4.817483">
        <ele>2521.0</ele>
        <time>2013-07-02T12:31:45Z</time>
      </trkpt>
      <trkpt lat="40.209983" lon="-4.817517">
        <ele>2518.0</ele>
        <time>2013-07-02T12:31:46Z</time>
      </trkpt>
      <trkpt lat="40.210100" lon="-4.817550">
        <ele>2514.0</ele>
        <time>2013-07-02T12:31:47Z</time>
      </trkpt>
      <trkpt lat="40.210233" lon="-4.817583">
        <ele>2510.0</ele>
        <time>2013-07-02T12:31:48Z</time>
      </trkpt>
      <trkpt lat="40.210367" lon="-4.817617">
        <ele>2508.0</ele>
        <time>2013-07-02T12:31:49Z</time>
      </trkpt>
      <trkpt lat="40.210500" lon="-4.817650">
        <ele>2506.0</ele>
        <time>2013-07-02T12:31:50Z</time>
      </trkpt>
      <trkpt lat="40.210617" lon="-4.817683">
        <ele>2504.0</ele>
        <time>2013-07-02T12:31:51Z</time>
      </trkpt>
      <trkpt lat="40.210733" lon="-4.817717">
        <ele>2503.0</ele>
        <time>2013-07-02T12:31:52Z</time>
      </trkpt>
      <trkpt lat="40.210850" lon="-4.817717">
        <ele>2500.0</ele>
        <time>2013-07-02T12:31:53Z</time>
      </trkpt>
      <trkpt lat="40.210967" lon="-4.817733">
        <ele>2497.0</ele>
        <time>2013-07-02T12:31:54Z</time>
      </trkpt>
      <trkpt lat="40.211117" lon="-4.817750">
        <ele>2494.0</ele>
        <time>2013-07-02T12:31:55Z</time>
      </trkpt>
      <trkpt lat="40.211250" lon="-4.817783">
        <ele>2490.0</ele>
        <time>2013-07-02T12:31:56Z</time>
      </trkpt>
      <trkpt lat="40.211383" lon="-4.817817">
        <ele>2488.0</ele>
        <time>2013-07-02T12:31:57Z</time>
      </trkpt>
      <trkpt lat="40.211500" lon="-4.817833">
        <ele>2486.0</ele>
        <time>2013-07-02T12:31:58Z</time>
      </trkpt>
      <trkpt lat="40.211600" lon="-4.817867">
        <ele>2485.0</ele>
        <time>2013-07-02T12:31:59Z</time>
      </trkpt>
      <trkpt lat="40.211717" lon="-4.817900">
        <ele>2483.0</ele>
        <time>2013-07-02T12:32:00Z</time>
      </trkpt>
      <trkpt lat="40.211817" lon="-4.817933">
        <ele>2481.0</ele>
        <time>2013-07-02T12:32:01Z</time>
      </trkpt>
      <trkpt lat="40.211933" lon="-4.817983">
        <ele>2479.0</ele>
        <time>2013-07-02T12:32:02Z</time>
      </trkpt>
      <trkpt lat="40.212050" lon="-4.818017">
        <ele>2477.0</ele>
        <time>2013-07-02T12:32:03Z</time>
      </trkpt>
      <trkpt lat="40.212167" lon="-4.818067">
        <ele>2476.0</ele>
        <time>2013-07-02T12:32:04Z</time>
      </trkpt>
      <trkpt lat="40.212267" lon="-4.818117">
        <ele>2475.0</ele>
        <time>2013-07-02T12:32:05Z</time>
      </trkpt>
      <trkpt lat="40.212383" lon="-4.818150">
        <ele>2474.0</ele>
        <time>2013-07-02T12:32:06Z</time>
      </trkpt>
      <trkpt lat="40.212483" lon="-4.818183">
        <ele>2473.0</ele>
        <time>2013-07-02T12:32:07Z</time>
      </trkpt>
      <trkpt lat="40.212600" lon="-4.818217">
        <ele>2472.0</ele>
        <time>2013-07-02T12:32:08Z</time>
      </trkpt>
      <trkpt lat="40.212717" lon="-4.818233">
        <ele>2471.0</ele>
        <time>2013-07-02T12:32:09Z</time>
      </trkpt>
      <trkpt lat="40.212817" lon="-4.818267">
        <ele>2470.0</ele>
        <time>2013-07-02T12:32:10Z</time>
      </trkpt>
      <trkpt lat="40.212933" lon="-4.818300">
        <ele>2469.0</ele>
        <time>2013-07-02T12:32:11Z</time>
      </trkpt>
      <trkpt lat="40.213033" lon="-4.818333">
        <ele>2468.0</ele>
        <time>2013-07-02T12:32:12Z</time>
      </trkpt>
      <trkpt lat="40.213150" lon="-4.818367">
        <ele>2467.0</ele>
        <time>2013-07-02T12:32:13Z</time>
      </trkpt>
      <trkpt lat="40.213283" lon="-4.818400">
        <ele>2466.0</ele>
        <time>2013-07-02T12:32:14Z</time>
      </trkpt>
      <trkpt lat="40.213417" lon="-4.818450">
        <ele>2465.0</ele>
        <time>2013-07-02T12:32:15Z</time>
      </trkpt>
      <trkpt lat="40.213550" lon="-4.818483">
        <ele>2465.0</ele>
        <time>2013-07-02T12:32:16Z</time>
      </trkpt>
      <trkpt lat="40.213683" lon="-4.818533">
        <ele>2466.0</ele>
        <time>2013-07-02T12:32:17Z</time>
      </trkpt>
      <trkpt lat="40.213800" lon="-4.818550">
        <ele>2466.0</ele>
        <time>2013-07-02T12:32:18Z</time>
      </trkpt>
      <trkpt lat="40.213933" lon="-4.818583">
        <ele>2466.0</ele>
        <time>2013-07-02T12:32:19Z</time>
      </trkpt>
      <trkpt lat="40.214067" lon="-4.818600">
        <ele>2465.0</ele>
        <time>2013-07-02T12:32:20Z</time>
      </trkpt>
      <trkpt lat="40.214200" lon="-4.818617">
        <ele>2464.0</ele>
        <time>2013-07-02T12:32:21Z</time>
      </trkpt>
      <trkpt lat="40.214317" lon="-4.818650">
        <ele>2463.0</ele>
        <time>2013-07-02T12:32:22Z</time>
      </trkpt>
      <trkpt lat="40.214450" lon="-4.818683">
        <ele>2462.0</ele>
        <time>2013-07-02T12:32:23Z</time>
      </trkpt>
      <trkpt lat="40.214567" lon="-4.818717">
        <ele>2461.0</ele>
        <time>2013-07-02T12:32:24Z</time>
      </trkpt>
      <trkpt lat="40.214667" lon="-4.818767">
        <ele>2461.0</ele>
        <time>2013-07-02T12:32:25Z</time>
      </trkpt>
      <trkpt lat="40.214750" lon="-4.818800">
        <ele>2461.0</ele>
        <time>2013-07-02T12:32:26Z</time>
      </trkpt>
      <trkpt lat="40.214867" lon="-4.818833">
        <ele>2460.0</ele>
        <time>2013-07-02T12:32:27Z</time>
      </trkpt>
      <trkpt lat="40.214983" lon="-4.818850">
        <ele>2458.0</ele>
        <time>2013-07-02T12:32:28Z</time>
      </trkpt>
      <trkpt lat="40.215083" lon="-4.818900">
        <ele>2457.0</ele>
        <time>2013-07-02T12:32:29Z</time>
      </trkpt>
      <trkpt lat="40.215183" lon="-4.818950">
        <ele>2455.0</ele>
        <time>2013-07-02T12:32:30Z</time>
      </trkpt>
      <trkpt lat="40.215283" lon="-4.819017">
        <ele>2454.0</ele>
        <time>2013-07-02T12:32:31Z</time>
      </trkpt>
      <trkpt lat="40.215383" lon="-4.819050">
        <ele>2453.0</ele>
        <time>2013-07-02T12:32:32Z</time>
      </trkpt>
      <trkpt lat="40.215500" lon="-4.819100">
        <ele>2453.0</ele>
        <time>2013-07-02T12:32:33Z</time>
      </trkpt>
      <trkpt lat="40.215583" lon="-4.819150">
        <ele>2452.0</ele>
        <time>2013-07-02T12:32:34Z</time>
      </trkpt>
      <trkpt lat="40.215667" lon="-4.819200">
        <ele>2451.0</ele>
        <time>2013-07-02T12:32:35Z</time>
      </trkpt>
      <trkpt lat="40.215767" lon="-4.819250">
        <ele>2451.0</ele>
        <time>2013-07-02T12:32:36Z</time>
      </trkpt>
      <trkpt lat="40.215867" lon="-4.819283">
        <ele>2449.0</ele>
        <time>2013-07-02T12:32:37Z</time>
      </trkpt>
      <trkpt lat="40.215983" lon="-4.819333">
        <ele>2448.0</ele>
        <time>2013-07-02T12:32:38Z</time>
      </trkpt>
      <trkpt lat="40.216100" lon="-4.819367">
        <ele>2448.0</ele>
        <time>2013-07-02T12:32:39Z</time>
      </trkpt>
      <trkpt lat="40.216200" lon="-4.819417">
        <ele>2448.0</ele>
        <time>2013-07-02T12:32:40Z</time>
      </trkpt>
      <trkpt lat="40.216317" lon="-4.819467">
        <ele>2448.0</ele>
        <time>2013-07-02T12:32:41Z</time>
      </trkpt>
      <trkpt lat="40.216417" lon="-4.819500">
        <ele>2448.0</ele>
        <time>2013-07-02T12:32:42Z</time>
      </trkpt>
      <trkpt lat="40.216517" lon="-4.819517">
        <ele>2448.0</ele>
        <time>2013-07-02T12:32:43Z</time>
      </trkpt>
      <trkpt lat="40.216617" lon="-4.819550">
        <ele>2447.0</ele>
        <time>2013-07-02T12:32:44Z</time>
      </trkpt>
      <trkpt lat="40.216717" lon="-4.819583">
        <ele>2446.0</ele>
        <time>2013-07-02T12:32:45Z</time>
      </trkpt>
      <trkpt lat="40.216833" lon="-4.819617">
        <ele>2444.0</ele>
        <time>2013-07-02T12:32:46Z</time>
      </trkpt>
      <trkpt lat="40.216933" lon="-4.819667">
        <ele>2443.0</ele>
        <time>2013-07-02T12:32:47Z</time>
      </trkpt>
      <trkpt lat="40.217050" lon="-4.819700">
        <ele>2442.0</ele>
        <time>2013-07-02T12:32:48Z</time>
      </trkpt>
      <trkpt lat="40.217167" lon="-4.819733">
        <ele>2441.0</ele>
        <time>2013-07-02T12:32:49Z</time>
      </trkpt>
      <trkpt lat="40.217267" lon="-4.819767">
        <ele>2440.0</ele>
        <time>2013-07-02T12:32:50Z</time>
      </trkpt>
      <trkpt lat="40.217383" lon="-4.819817">
        <ele>2439.0</ele>
        <time>2013-07-02T12:32:51Z</time>
      </trkpt>
      <trkpt lat="40.217483" lon="-4.819850">
        <ele>2438.0</ele>
        <time>2013-07-02T12:32:52Z</time>
      </trkpt>
      <trkpt lat="40.217583" lon="-4.819900">
        <ele>2436.0</ele>
        <time>2013-07-02T12:32:53Z</time>
      </trkpt>
      <trkpt lat="40.217700" lon="-4.819933">
        <ele>2435.0</ele>
        <time>2013-07-02T12:32:54Z</time>
      </trkpt>
      <trkpt lat="40.217817" lon="-4.819983">
        <ele>2434.0</ele>
        <time>2013-07-02T12:32:55Z</time>
      </trkpt>
      <trkpt lat="40.217917" lon="-4.820017">
        <ele>2433.0</ele>
        <time>2013-07-02T12:32:56Z</time>
      </trkpt>
      <trkpt lat="40.218033" lon="-4.820050">
        <ele>2432.0</ele>
        <time>2013-07-02T12:32:57Z</time>
      </trkpt>
      <trkpt lat="40.218150" lon="-4.820067">
        <ele>2431.0</ele>
        <time>2013-07-02T12:32:58Z</time>
      </trkpt>
      <trkpt lat="40.218267" lon="-4.820083">
        <ele>2430.0</ele>
        <time>2013-07-02T12:32:59Z</time>
      </trkpt>
      <trkpt lat="40.218383" lon="-4.820100">
        <ele>2428.0</ele>
        <time>2013-07-02T12:33:00Z</time>
      </trkpt>
      <trkpt lat="40.218500" lon="-4.820133">
        <ele>2426.0</ele>
        <time>2013-07-02T12:33:01Z</time>
      </trkpt>
      <trkpt lat="40.218617" lon="-4.820167">
        <ele>2424.0</ele>
        <time>2013-07-02T12:33:02Z</time>
      </trkpt>
      <trkpt lat="40.218733" lon="-4.820200">
        <ele>2422.0</ele>
        <time>2013-07-02T12:33:03Z</time>
      </trkpt>
      <trkpt lat="40.218867" lon="-4.820217">
        <ele>2421.0</ele>
        <time>2013-07-02T12:33:04Z</time>
      </trkpt>
      <trkpt lat="40.218967" lon="-4.820233">
        <ele>2420.0</ele>
        <time>2013-07-02T12:33:05Z</time>
      </trkpt>
      <trkpt lat="40.219083" lon="-4.820267">
        <ele>2418.0</ele>
        <time>2013-07-02T12:33:06Z</time>
      </trkpt>
      <trkpt lat="40.219200" lon="-4.820283">
        <ele>2416.0</ele>
        <time>2013-07-02T12:33:07Z</time>
      </trkpt>
      <trkpt lat="40.219333" lon="-4.820300">
        <ele>2413.0</ele>
        <time>2013-07-02T12:33:08Z</time>
      </trkpt>
      <trkpt lat="40.219450" lon="-4.820333">
        <ele>2412.0</ele>
        <time>2013-07-02T12:33:09Z</time>
      </trkpt>
      <trkpt lat="40.219583" lon="-4.820367">
        <ele>2410.0</ele>
        <time>2013-07-02T12:33:10Z</time>
      </trkpt>
      <trkpt lat="40.219700" lon="-4.820383">
        <ele>2409.0</ele>
        <time>2013-07-02T12:33:11Z</time>
      </trkpt>
      <trkpt lat="40.219833" lon="-4.820400">
        <ele>2407.0</ele>
        <time>2013-07-02T12:33:12Z</time>
      </trkpt>
      <trkpt lat="40.219950" lon="-4.820417">
        <ele>2406.0</ele>
        <time>2013-07-02T12:33:13Z</time>
      </trkpt>
      <trkpt lat="40.220067" lon="-4.820433">
        <ele>2405.0</ele>
        <time>2013-07-02T12:33:14Z</time>
      </trkpt>
      <trkpt lat="40.220183" lon="-4.820450">
        <ele>2403.0</ele>
        <time>2013-07-02T12:33:15Z</time>
      </trkpt>
      <trkpt lat="40.220300" lon="-4.820467">
        <ele>2402.0</ele>
        <time>2013-07-02T12:33:16Z</time>
      </trkpt>
      <trkpt lat="40.220433" lon="-4.820450">
        <ele>2401.0</ele>
        <time>2013-07-02T12:33:17Z</time>
      </trkpt>
      <trkpt lat="40.220550" lon="-4.820433">
        <ele>2399.0</ele>
        <time>2013-07-02T12:33:18Z</time>
      </trkpt>
      <trkpt lat="40.220667" lon="-4.820433">
        <ele>2396.0</ele>
        <time>2013-07-02T12:33:19Z</time>
      </trkpt>
      <trkpt lat="40.220800" lon="-4.820450">
        <ele>2393.0</ele>
        <time>2013-07-02T12:33:20Z</time>
      </trkpt>
      <trkpt lat="40.220933" lon="-4.820483">
        <ele>2390.0</ele>
        <time>2013-07-02T12:33:21Z</time>
      </trkpt>
      <trkpt lat="40.221067" lon="-4.820500">
        <ele>2389.0</ele>
        <time>2013-07-02T12:33:22Z</time>
      </trkpt>
      <trkpt lat="40.221183" lon="-4.820533">
        <ele>2389.0</ele>
        <time>2013-07-02T12:33:23Z</time>
      </trkpt>
      <trkpt lat="40.221300" lon="-4.820550">
        <ele>2389.0</ele>
        <time>2013-07-02T12:33:24Z</time>
      </trkpt>
      <trkpt lat="40.221400" lon="-4.820583">
        <ele>2387.0</ele>
        <time>2013-07-02T12:33:25Z</time>
      </trkpt>
      <trkpt lat="40.221500" lon="-4.820617">
        <ele>2384.0</ele>
        <time>2013-07-02T12:33:26Z</time>
      </trkpt>
      <trkpt lat="40.221617" lon="-4.820650">
        <ele>2381.0</ele>
        <time>2013-07-02T12:33:27Z</time>
      </trkpt>
      <trkpt lat="40.221750" lon="-4.820700">
        <ele>2378.0</ele>
        <time>2013-07-02T12:33:28Z</time>
      </trkpt>
      <trkpt lat="40.221867" lon="-4.820733">
        <ele>2377.0</ele>
        <time>2013-07-02T12:33:29Z</time>
      </trkpt>
      <trkpt lat="40.221983" lon="-4.820767">
        <ele>2376.0</ele>
        <time>2013-07-02T12:33:30Z</time>
      </trkpt>
      <trkpt lat="40.222083" lon="-4.820800">
        <ele>2375.0</ele>
        <time>2013-07-02T12:33:31Z</time>
      </trkpt>
      <trkpt lat="40.222200" lon="-4.820833">
        <ele>2374.0</ele>
        <time>2013-07-02T12:33:32Z</time>
      </trkpt>
      <trkpt lat="40.222300" lon="-4.820850">
        <ele>2371.0</ele>
        <time>2013-07-02T12:33:33Z</time>
      </trkpt>
      <trkpt lat="40.222417" lon="-4.820883">
        <ele>2368.0</ele>
        <time>2013-07-02T12:33:34Z</time>
      </trkpt>
      <trkpt lat="40.222550" lon="-4.820917">
        <ele>2366.0</ele>
        <time>2013-07-02T12:33:35Z</time>
      </trkpt>
      <trkpt lat="40.222667" lon="-4.820950">
        <ele>2364.0</ele>
        <time>2013-07-02T12:33:36Z</time>
      </trkpt>
      <trkpt lat="40.222783" lon="-4.821000">
        <ele>2363.0</ele>
        <time>2013-07-02T12:33:37Z</time>
      </trkpt>
      <trkpt lat="40.222883" lon="-4.821033">
        <ele>2362.0</ele>
        <time>2013-07-02T12:33:38Z</time>
      </trkpt>
      <trkpt lat="40.222983" lon="-4.821067">
        <ele>2360.0</ele>
        <time>2013-07-02T12:33:39Z</time>
      </trkpt>
      <trkpt lat="40.223100" lon="-4.821100">
        <ele>2358.0</ele>
        <time>2013-07-02T12:33:40Z</time>
      </trkpt>
      <trkpt lat="40.223200" lon="-4.821150">
        <ele>2356.0</ele>
        <time>2013-07-02T12:33:41Z</time>
      </trkpt>
      <trkpt lat="40.223317" lon="-4.821200">
        <ele>2354.0</ele>
        <time>2013-07-02T12:33:42Z</time>
      </trkpt>
      <trkpt lat="40.223433" lon="-4.821233">
        <ele>2353.0</ele>
        <time>2013-07-02T12:33:43Z</time>
      </trkpt>
      <trkpt lat="40.223533" lon="-4.821283">
        <ele>2351.0</ele>
        <time>2013-07-02T12:33:44Z</time>
      </trkpt>
      <trkpt lat="40.223633" lon="-4.821333">
        <ele>2349.0</ele>
        <time>2013-07-02T12:33:45Z</time>
      </trkpt>
      <trkpt lat="40.223733" lon="-4.821383">
        <ele>2348.0</ele>
        <time>2013-07-02T12:33:46Z</time>
      </trkpt>
      <trkpt lat="40.223833" lon="-4.821433">
        <ele>2346.0</ele>
        <time>2013-07-02T12:33:47Z</time>
      </trkpt>
      <trkpt lat="40.223933" lon="-4.821483">
        <ele>2344.0</ele>
        <time>2013-07-02T12:33:48Z</time>
      </trkpt>
      <trkpt lat="40.224050" lon="-4.821533">
        <ele>2342.0</ele>
        <time>2013-07-02T12:33:49Z</time>
      </trkpt>
      <trkpt lat="40.224150" lon="-4.821583">
        <ele>2340.0</ele>
        <time>2013-07-02T12:33:50Z</time>
      </trkpt>
      <trkpt lat="40.224267" lon="-4.821633">
        <ele>2338.0</ele>
        <time>2013-07-02T12:33:51Z</time>
      </trkpt>
      <trkpt lat="40.224367" lon="-4.821667">
        <ele>2337.0</ele>
        <time>2013-07-02T12:33:52Z</time>
      </trkpt>
      <trkpt lat="40.224483" lon="-4.821700">
        <ele>2335.0</ele>
        <time>2013-07-02T12:33:53Z</time>
      </trkpt>
      <trkpt lat="40.224583" lon="-4.821750">
        <ele>2334.0</ele>
        <time>2013-07-02T12:33:54Z</time>
      </trkpt>
      <trkpt lat="40.224683" lon="-4.821783">
        <ele>2332.0</ele>
        <time>2013-07-02T12:33:55Z</time>
      </trkpt>
      <trkpt lat="40.224800" lon="-4.821833">
        <ele>2331.0</ele>
        <time>2013-07-02T12:33:56Z</time>
      </trkpt>
      <trkpt lat="40.224900" lon="-4.821867">
        <ele>2329.0</ele>
        <time>2013-07-02T12:33:57Z</time>
      </trkpt>
      <trkpt lat="40.225017" lon="-4.821900">
        <ele>2328.0</ele>
        <time>2013-07-02T12:33:58Z</time>
      </trkpt>
      <trkpt lat="40.225133" lon="-4.821933">
        <ele>2326.0</ele>
        <time>2013-07-02T12:33:59Z</time>
      </trkpt>
      <trkpt lat="40.225250" lon="-4.821967">
        <ele>2325.0</ele>
        <time>2013-07-02T12:34:00Z</time>
      </trkpt>
      <trkpt lat="40.225350" lon="-4.822017">
        <ele>2323.0</ele>
        <time>2013-07-02T12:34:01Z</time>
      </trkpt>
      <trkpt lat="40.225467" lon="-4.822050">
        <ele>2321.0</ele>
        <time>2013-07-02T12:34:02Z</time>
      </trkpt>
      <trkpt lat="40.225583" lon="-4.822083">
        <ele>2320.0</ele>
        <time>2013-07-02T12:34:03Z</time>
      </trkpt>
      <trkpt lat="40.225717" lon="-4.822100">
        <ele>2318.0</ele>
        <time>2013-07-02T12:34:04Z</time>
      </trkpt>
      <trkpt lat="40.225850" lon="-4.822100">
        <ele>2316.0</ele>
        <time>2013-07-02T12:34:05Z</time>
      </trkpt>
      <trkpt lat="40.225983" lon="-4.822117">
        <ele>2315.0</ele>
        <time>2013-07-02T12:34:06Z</time>
      </trkpt>
      <trkpt lat="40.226100" lon="-4.822133">
        <ele>2313.0</ele>
        <time>2013-07-02T12:34:07Z</time>
      </trkpt>
      <trkpt lat="40.226233" lon="-4.822133">
        <ele>2312.0</ele>
        <time>2013-07-02T12:34:08Z</time>
      </trkpt>
      <trkpt lat="40.226367" lon="-4.822117">
        <ele>2310.0</ele>
        <time>2013-07-02T12:34:09Z</time>
      </trkpt>
      <trkpt lat="40.226500" lon="-4.822117">
        <ele>2309.0</ele>
        <time>2013-07-02T12:34:10Z</time>
      </trkpt>
      <trkpt lat="40.226633" lon="-4.822133">
        <ele>2307.0</ele>
        <time>2013-07-02T12:34:11Z</time>
      </trkpt>
      <trkpt lat="40.226767" lon="-4.822133">
        <ele>2305.0</ele>
        <time>2013-07-02T12:34:12Z</time>
      </trkpt>
      <trkpt lat="40.226883" lon="-4.822150">
        <ele>2304.0</ele>
        <time>2013-07-02T12:34:13Z</time>
      </trkpt>
      <trkpt lat="40.227017" lon="-4.822167">
        <ele>2302.0</ele>
        <time>2013-07-02T12:34:14Z</time>
      </trkpt>
      <trkpt lat="40.227133" lon="-4.822183">
        <ele>2301.0</ele>
        <time>2013-07-02T12:34:15Z</time>
      </trkpt>
      <trkpt lat="40.227250" lon="-4.822217">
        <ele>2299.0</ele>
        <time>2013-07-02T12:34:16Z</time>
      </trkpt>
      <trkpt lat="40.227367" lon="-4.822250">
        <ele>2297.0</ele>
        <time>2013-07-02T12:34:17Z</time>
      </trkpt>
      <trkpt lat="40.227483" lon="-4.822283">
        <ele>2295.0</ele>
        <time>2013-07-02T12:34:18Z</time>
      </trkpt>
      <trkpt lat="40.227600" lon="-4.822317">
        <ele>2293.0</ele>
        <time>2013-07-02T12:34:19Z</time>
      </trkpt>
      <trkpt lat="40.227717" lon="-4.822350">
        <ele>2291.0</ele>
        <time>2013-07-02T12:34:20Z</time>
      </trkpt>
      <trkpt lat="40.227817" lon="-4.822383">
        <ele>2290.0</ele>
        <time>2013-07-02T12:34:21Z</time>
      </trkpt>
      <trkpt lat="40.227933" lon="-4.822433">
        <ele>2288.0</ele>
        <time>2013-07-02T12:34:22Z</time>
      </trkpt>
      <trkpt lat="40.228050" lon="-4.822467">
        <ele>2286.0</ele>
        <time>2013-07-02T12:34:23Z</time>
      </trkpt>
      <trkpt lat="40.228150" lon="-4.822517">
        <ele>2284.0</ele>
        <time>2013-07-02T12:34:24Z</time>
      </trkpt>
      <trkpt lat="40.228267" lon="-4.822550">
        <ele>2282.0</ele>
        <time>2013-07-02T12:34:25Z</time>
      </trkpt>
      <trkpt lat="40.228367" lon="-4.822600">
        <ele>2281.0</ele>
        <time>2013-07-02T12:34:26Z</time>
      </trkpt>
      <trkpt lat="40.228467" lon="-4.822633">
        <ele>2279.0</ele>
        <time>2013-07-02T12:34:27Z</time>
      </trkpt>
      <trkpt lat="40.228567" lon="-4.822683">
        <ele>2277.0</ele>
        <time>2013-07-02T12:34:28Z</time>
      </trkpt>
      <trkpt lat="40.228667" lon="-4.822733">
        <ele>2275.0</ele>
        <time>2013-07-02T12:34:29Z</time>
      </trkpt>
      <trkpt lat="40.228767" lon="-4.822783">
        <ele>2273.0</ele>
        <time>2013-07-02T12:34:30Z</time>
      </trkpt>
      <trkpt lat="40.228867" lon="-4.822817">
        <ele>2272.0</ele>
        <time>2013-07-02T12:34:31Z</time>
      </trkpt>
      <trkpt lat="40.228967" lon="-4.822867">
        <ele>2270.0</ele>
        <time>2013-07-02T12:34:32Z</time>
      </trkpt>
      <trkpt lat="40.229067" lon="-4.822917">
        <ele>2269.0</ele>
        <time>2013-07-02T12:34:33Z</time>
      </trkpt>
      <trkpt lat="40.229167" lon="-4.822967">
        <ele>2267.0</ele>
        <time>2013-07-02T12:34:34Z</time>
      </trkpt>
      <trkpt lat="40.229250" lon="-4.823017">
        <ele>2265.0</ele>
        <time>2013-07-02T12:34:35Z</time>
      </trkpt>
      <trkpt lat="40.229350" lon="-4.823083">
        <ele>2264.0</ele>
        <time>2013-07-02T12:34:36Z</time>
      </trkpt>
      <trkpt lat="40.229450" lon="-4.823133">
        <ele>2262.0</ele>
        <time>2013-07-02T12:34:37Z</time>
      </trkpt>
      <trkpt lat="40.229550" lon="-4.823183">
        <ele>2260.0</ele>
        <time>2013-07-02T12:34:38Z</time>
      </trkpt>
      <trkpt lat="40.229633" lon="-4.823250">
        <ele>2259.0</ele>
        <time>2013-07-02T12:34:39Z</time>
      </trkpt>
      <trkpt lat="40.229717" lon="-4.823300">
        <ele>2258.0</ele>
        <time>2013-07-02T12:34:40Z</time>
      </trkpt>
      <trkpt lat="40.229817" lon="-4.823367">
        <ele>2256.0</ele>
        <time>2013-07-02T12:34:41Z</time>
      </trkpt>
      <trkpt lat="40.229900" lon="-4.823433">
        <ele>2254.0</ele>
        <time>2013-07-02T12:34:42Z</time>
      </trkpt>
      <trkpt lat="40.230000" lon="-4.823483">
        <ele>2253.0</ele>
        <time>2013-07-02T12:34:43Z</time>
      </trkpt>
      <trkpt lat="40.230083" lon="-4.823550">
        <ele>2251.0</ele>
        <time>2013-07-02T12:34:44Z</time>
      </trkpt>
      <trkpt lat="40.230183" lon="-4.823600">
        <ele>2250.0</ele>
        <time>2013-07-02T12:34:45Z</time>
      </trkpt>
      <trkpt lat="40.230267" lon="-4.823667">
        <ele>2249.0</ele>
        <time>2013-07-02T12:34:46Z</time>
      </trkpt>
      <trkpt lat="40.230367" lon="-4.823717">
        <ele>2247.0</ele>
        <time>2013-07-02T12:34:47Z</time>
      </trkpt>
      <trkpt lat="40.230450" lon="-4.823783">
        <ele>2246.0</ele>
        <time>2013-07-02T12:34:48Z</time>
      </trkpt>
      <trkpt lat="40.230533" lon="-4.823833">
        <ele>2245.0</ele>
        <time>2013-07-02T12:34:49Z</time>
      </trkpt>
      <trkpt lat="40.230633" lon="-4.823900">
        <ele>2244.0</ele>
        <time>2013-07-02T12:34:50Z</time>
      </trkpt>
      <trkpt lat="40.230717" lon="-4.823950">
        <ele>2242.0</ele>
        <time>2013-07-02T12:34:51Z</time>
      </trkpt>
      <trkpt lat="40.230817" lon="-4.824017">
        <ele>2241.0</ele>
        <time>2013-07-02T12:34:52Z</time>
      </trkpt>
      <trkpt lat="40.230900" lon="-4.824083">
        <ele>2239.0</ele>
        <time>2013-07-02T12:34:53Z</time>
      </trkpt>
      <trkpt lat="40.231017" lon="-4.824133">
        <ele>2238.0</ele>
        <time>2013-07-02T12:34:54Z</time>
      </trkpt>
      <trkpt lat="40.231117" lon="-4.824183">
        <ele>2237.0</ele>
        <time>2013-07-02T12:34:55Z</time>
      </trkpt>
      <trkpt lat="40.231233" lon="-4.824217">
        <ele>2236.0</ele>
        <time>2013-07-02T12:34:56Z</time>
      </trkpt>
      <trkpt lat="40.231333" lon="-4.824267">
        <ele>2235.0</ele>
        <time>2013-07-02T12:34:57Z</time>
      </trkpt>
      <trkpt lat="40.231450" lon="-4.824317">
        <ele>2234.0</ele>
        <time>2013-07-02T12:34:58Z</time>
      </trkpt>
      <trkpt lat="40.231550" lon="-4.824350">
        <ele>2233.0</ele>
        <time>2013-07-02T12:34:59Z</time>
      </trkpt>
      <trkpt lat="40.231667" lon="-4.824383">
        <ele>2232.0</ele>
        <time>2013-07-02T12:35:00Z</time>
      </trkpt>
      <trkpt lat="40.231783" lon="-4.824417">
        <ele>2231.0</ele>
        <time>2013-07-02T12:35:01Z</time>
      </trkpt>
      <trkpt lat="40.231883" lon="-4.824450">
        <ele>2230.0</ele>
        <time>2013-07-02T12:35:02Z</time>
      </trkpt>
      <trkpt lat="40.232000" lon="-4.824483">
        <ele>2229.0</ele>
        <time>2013-07-02T12:35:03Z</time>
      </trkpt>
      <trkpt lat="40.232100" lon="-4.824517">
        <ele>2228.0</ele>
        <time>2013-07-02T12:35:04Z</time>
      </trkpt>
      <trkpt lat="40.232217" lon="-4.824550">
        <ele>2226.0</ele>
        <time>2013-07-02T12:35:05Z</time>
      </trkpt>
      <trkpt lat="40.232333" lon="-4.824583">
        <ele>2225.0</ele>
        <time>2013-07-02T12:35:06Z</time>
      </trkpt>
      <trkpt lat="40.232433" lon="-4.824617">
        <ele>2224.0</ele>
        <time>2013-07-02T12:35:07Z</time>
      </trkpt>
      <trkpt lat="40.232550" lon="-4.824667">
        <ele>2223.0</ele>
        <time>2013-07-02T12:35:08Z</time>
      </trkpt>
      <trkpt lat="40.232650" lon="-4.824700">
        <ele>2222.0</ele>
        <time>2013-07-02T12:35:09Z</time>
      </trkpt>
      <trkpt lat="40.232767" lon="-4.824733">
        <ele>2221.0</ele>
        <time>2013-07-02T12:35:10Z</time>
      </trkpt>
      <trkpt lat="40.232883" lon="-4.824767">
        <ele>2220.0</ele>
        <time>2013-07-02T12:35:11Z</time>
      </trkpt>
      <trkpt lat="40.232983" lon="-4.824783">
        <ele>2219.0</ele>
        <time>2013-07-02T12:35:12Z</time>
      </trkpt>
      <trkpt lat="40.233100" lon="-4.824817">
        <ele>2218.0</ele>
        <time>2013-07-02T12:35:13Z</time>
      </trkpt>
      <trkpt lat="40.233217" lon="-4.824850">
        <ele>2217.0</ele>
        <time>2013-07-02T12:35:14Z</time>
      </trkpt>
      <trkpt lat="40.233317" lon="-4.824883">
        <ele>2216.0</ele>
        <time>2013-07-02T12:35:15Z</time>
      </trkpt>
      <trkpt lat="40.233433" lon="-4.824917">
        <ele>2215.0</ele>
        <time>2013-07-02T12:35:16Z</time>
      </trkpt>
      <trkpt lat="40.233550" lon="-4.824950">
        <ele>2214.0</ele>
        <time>2013-07-02T12:35:17Z</time>
      </trkpt>
      <trkpt lat="40.233650" lon="-4.824983">
        <ele>2213.0</ele>
        <time>2013-07-02T12:35:18Z</time>
      </trkpt>
      <trkpt lat="40.233767" lon="-4.825017">
        <ele>2212.0</ele>
        <time>2013-07-02T12:35:19Z</time>
      </trkpt>
      <trkpt lat="40.233867" lon="-4.825050">
        <ele>2211.0</ele>
        <time>2013-07-02T12:35:20Z</time>
      </trkpt>
      <trkpt lat="40.233967" lon="-4.825100">
        <ele>2210.0</ele>
        <time>2013-07-02T12:35:21Z</time>
      </trkpt>
      <trkpt lat="40.234067" lon="-4.825133">
        <ele>2209.0</ele>
        <time>2013-07-02T12:35:22Z</time>
      </trkpt>
      <trkpt lat="40.234167" lon="-4.825183">
        <ele>2208.0</ele>
        <time>2013-07-02T12:35:23Z</time>
      </trkpt>
      <trkpt lat="40.234283" lon="-4.825217">
        <ele>2206.0</ele>
        <time>2013-07-02T12:35:24Z</time>
      </trkpt>
      <trkpt lat="40.234383" lon="-4.825267">
        <ele>2205.0</ele>
        <time>2013-07-02T12:35:25Z</time>
      </trkpt>
      <trkpt lat="40.234483" lon="-4.825317">
        <ele>2204.0</ele>
        <time>2013-07-02T12:35:26Z</time>
      </trkpt>
      <trkpt lat="40.234583" lon="-4.825350">
        <ele>2203.0</ele>
        <time>2013-07-02T12:35:27Z</time>
      </trkpt>
      <trkpt lat="40.234683" lon="-4.825383">
        <ele>2202.0</ele>
        <time>2013-07-02T12:35:28Z</time>
      </trkpt>
      <trkpt lat="40.234783" lon="-4.825417">
        <ele>2200.0</ele>
        <time>2013-07-02T12:35:29Z</time>
      </trkpt>
      <trkpt lat="40.234883" lon="-4.825450">
        <ele>2199.0</ele>
        <time>2013-07-02T12:35:30Z</time>
      </trkpt>
      <trkpt lat="40.235000" lon="-4.825483">
        <ele>2197.0</ele>
        <time>2013-07-02T12:35:31Z</time>
      </trkpt>
      <trkpt lat="40.235117" lon="-4.825500">
        <ele>2195.0</ele>
        <time>2013-07-02T12:35:32Z</time>
      </trkpt>
      <trkpt lat="40.235233" lon="-4.825517">
        <ele>2194.0</ele>
        <time>2013-07-02T12:35:33Z</time>
      </trkpt>
      <trkpt lat="40.235350" lon="-4.825517">
        <ele>2193.0</ele>
        <time>2013-07-02T12:35:34Z</time>
      </trkpt>
      <trkpt lat="40.235483" lon="-4.825517">
        <ele>2192.0</ele>
        <time>2013-07-02T12:35:35Z</time>
      </trkpt>
      <trkpt lat="40.235600" lon="-4.825517">
        <ele>2191.0</ele>
        <time>2013-07-02T12:35:36Z</time>
      </trkpt>
      <trkpt lat="40.235717" lon="-4.825517">
        <ele>2190.0</ele>
        <time>2013-07-02T12:35:37Z</time>
      </trkpt>
      <trkpt lat="40.235833" lon="-4.825517">
        <ele>2188.0</ele>
        <time>2013-07-02T12:35:38Z</time>
      </trkpt>
      <trkpt lat="40.235950" lon="-4.825517">
        <ele>2186.0</ele>
        <time>2013-07-02T12:35:39Z</time>
      </trkpt>
      <trkpt lat="40.236083" lon="-4.825500">
        <ele>2185.0</ele>
        <time>2013-07-02T12:35:40Z</time>
      </trkpt>
      <trkpt lat="40.236200" lon="-4.825500">
        <ele>2184.0</ele>
        <time>2013-07-02T12:35:41Z</time>
      </trkpt>
      <trkpt lat="40.236317" lon="-4.825517">
        <ele>2184.0</ele>
        <time>2013-07-02T12:35:42Z</time>
      </trkpt>
      <trkpt lat="40.236433" lon="-4.825517">
        <ele>2183.0</ele>
        <time>2013-07-02T12:35:43Z</time>
      </trkpt>
      <trkpt lat="40.236550" lon="-4.825517">
        <ele>2182.0</ele>
        <time>2013-07-02T12:35:44Z</time>
      </trkpt>
      <trkpt lat="40.236667" lon="-4.825550">
        <ele>2181.0</ele>
        <time>2013-07-02T12:35:45Z</time>
      </trkpt>
      <trkpt lat="40.236783" lon="-4.825567">
        <ele>2180.0</ele>
        <time>2013-07-02T12:35:46Z</time>
      </trkpt>
      <trkpt lat="40.236900" lon="-4.825600">
        <ele>2179.0</ele>
        <time>2013-07-02T12:35:47Z</time>
      </trkpt>
      <trkpt lat="40.237017" lon="-4.825617">
        <ele>2179.0</ele>
        <time>2013-07-02T12:35:48Z</time>
      </trkpt>
      <trkpt lat="40.237133" lon="-4.825633">
        <ele>2179.0</ele>
        <time>2013-07-02T12:35:49Z</time>
      </trkpt>
      <trkpt lat="40.237250" lon="-4.825650">
        <ele>2178.0</ele>
        <time>2013-07-02T12:35:50Z</time>
      </trkpt>
      <trkpt lat="40.237350" lon="-4.825667">
        <ele>2177.0</ele>
        <time>2013-07-02T12:35:51Z</time>
      </trkpt>
      <trkpt lat="40.237467" lon="-4.825683">
        <ele>2176.0</ele>
        <time>2013-07-02T12:35:52Z</time>
      </trkpt>
      <trkpt lat="40.237567" lon="-4.825733">
        <ele>2175.0</ele>
        <time>2013-07-02T12:35:53Z</time>
      </trkpt>
      <trkpt lat="40.237683" lon="-4.825783">
        <ele>2174.0</ele>
        <time>2013-07-02T12:35:54Z</time>
      </trkpt>
      <trkpt lat="40.237783" lon="-4.825833">
        <ele>2173.0</ele>
        <time>2013-07-02T12:35:55Z</time>
      </trkpt>
      <trkpt lat="40.237883" lon="-4.825867">
        <ele>2173.0</ele>
        <time>2013-07-02T12:35:56Z</time>
      </trkpt>
      <trkpt lat="40.237983" lon="-4.825917">
        <ele>2174.0</ele>
        <time>2013-07-02T12:35:57Z</time>
      </trkpt>
      <trkpt lat="40.238083" lon="-4.825950">
        <ele>2174.0</ele>
        <time>2013-07-02T12:35:58Z</time>
      </trkpt>
      <trkpt lat="40.238167" lon="-4.825983">
        <ele>2173.0</ele>
        <time>2013-07-02T12:35:59Z</time>
      </trkpt>
      <trkpt lat="40.238267" lon="-4.826017">
        <ele>2173.0</ele>
        <time>2013-07-02T12:36:00Z</time>
      </trkpt>
      <trkpt lat="40.238350" lon="-4.826050">
        <ele>2172.0</ele>
        <time>2013-07-02T12:36:01Z</time>
      </trkpt>
      <trkpt lat="40.238450" lon="-4.826083">
        <ele>2172.0</ele>
        <time>2013-07-02T12:36:02Z</time>
      </trkpt>
      <trkpt lat="40.238517" lon="-4.826133">
        <ele>2173.0</ele>
        <time>2013-07-02T12:36:03Z</time>
      </trkpt>
      <trkpt lat="40.238600" lon="-4.826167">
        <ele>2172.0</ele>
        <time>2013-07-02T12:36:04Z</time>
      </trkpt>
      <trkpt lat="40.238667" lon="-4.826217">
        <ele>2172.0</ele>
        <time>2013-07-02T12:36:05Z</time>
      </trkpt>
      <trkpt lat="40.238750" lon="-4.826250">
        <ele>2172.0</ele>
        <time>2013-07-02T12:36:06Z</time>
      </trkpt>
      <trkpt lat="40.238817" lon="-4.826283">
        <ele>2171.0</ele>
        <time>2013-07-02T12:36:07Z</time>
      </trkpt>
      <trkpt lat="40.238883" lon="-4.826300">
        <ele>2170.0</ele>
        <time>2013-07-02T12:36:08Z</time>
      </trkpt>
      <trkpt lat="40.238967" lon="-4.826350">
        <ele>2169.0</ele>
        <time>2013-07-02T12:36:09Z</time>
      </trkpt>
      <trkpt lat="40.239083" lon="-4.826383">
        <ele>2167.0</ele>
        <time>2013-07-02T12:36:10Z</time>
      </trkpt>
      <trkpt lat="40.239183" lon="-4.826450">
        <ele>2167.0</ele>
        <time>2013-07-02T12:36:11Z</time>
      </trkpt>
      <trkpt lat="40.239283" lon="-4.826483">
        <ele>2167.0</ele>
        <time>2013-07-02T12:36:12Z</time>
      </trkpt>
      <trkpt lat="40.239383" lon="-4.826500">
        <ele>2168.0</ele>
        <time>2013-07-02T12:36:13Z</time>
      </trkpt>
      <trkpt lat="40.239450" lon="-4.826533">
        <ele>2169.0</ele>
        <time>2013-07-02T12:36:14Z</time>
      </trkpt>
      <trkpt lat="40.239517" lon="-4.826550">
        <ele>2167.0</ele>
        <time>2013-07-02T12:36:15Z</time>
      </trkpt>
      <trkpt lat="40.239583" lon="-4.826583">
        <ele>2165.0</ele>
        <time>2013-07-02T12:36:16Z</time>
      </trkpt>
      <trkpt lat="40.239650" lon="-4.826633">
        <ele>2162.0</ele>
        <time>2013-07-02T12:36:17Z</time>
      </trkpt>
      <trkpt lat="40.239750" lon="-4.826667">
        <ele>2160.0</ele>
        <time>2013-07-02T12:36:18Z</time>
      </trkpt>
      <trkpt lat="40.239833" lon="-4.826700">
        <ele>2159.0</ele>
        <time>2013-07-02T12:36:19Z</time>
      </trkpt>
      <trkpt lat="40.239917" lon="-4.826750">
        <ele>2157.0</ele>
        <time>2013-07-02T12:36:20Z</time>
      </trkpt>
      <trkpt lat="40.240000" lon="-4.826783">
        <ele>2156.0</ele>
        <time>2013-07-02T12:36:21Z</time>
      </trkpt>
      <trkpt lat="40.240083" lon="-4.826800">
        <ele>2154.0</ele>
        <time>2013-07-02T12:36:22Z</time>
      </trkpt>
      <trkpt lat="40.240167" lon="-4.826833">
        <ele>2152.0</ele>
        <time>2013-07-02T12:36:23Z</time>
      </trkpt>
      <trkpt lat="40.240267" lon="-4.826850">
        <ele>2150.0</ele>
        <time>2013-07-02T12:36:24Z</time>
      </trkpt>
      <trkpt lat="40.240367" lon="-4.826900">
        <ele>2149.0</ele>
        <time>2013-07-02T12:36:25Z</time>
      </trkpt>
      <trkpt lat="40.240450" lon="-4.826917">
        <ele>2148.0</ele>
        <time>2013-07-02T12:36:26Z</time>
      </trkpt>
      <trkpt lat="40.240533" lon="-4.826950">
        <ele>2147.0</ele>
        <time>2013-07-02T12:36:27Z</time>
      </trkpt>
      <trkpt lat="40.240617" lon="-4.826967">
        <ele>2145.0</ele>
        <time>2013-07-02T12:36:28Z</time>
      </trkpt>
      <trkpt lat="40.240700" lon="-4.826983">
        <ele>2144.0</ele>
        <time>2013-07-02T12:36:29Z</time>
      </trkpt>
      <trkpt lat="40.240800" lon="-4.827017">
        <ele>2142.0</ele>
        <time>2013-07-02T12:36:30Z</time>
      </trkpt>
      <trkpt lat="40.240900" lon="-4.827050">
        <ele>2140.0</ele>
        <time>2013-07-02T12:36:31Z</time>
      </trkpt>
      <trkpt lat="40.240983" lon="-4.827083">
        <ele>2139.0</ele>
        <time>2013-07-02T12:36:32Z</time>
      </trkpt>
      <trkpt lat="40.241083" lon="-4.827100">
        <ele>2138.0</ele>
        <time>2013-07-02T12:36:33Z</time>
      </trkpt>
      <trkpt lat="40.241167" lon="-4.827133">
        <ele>2137.0</ele>
        <time>2013-07-02T12:36:34Z</time>
      </trkpt>
      <trkpt lat="40.241250" lon="-4.827167">
        <ele>2136.0</ele>
        <time>2013-07-02T12:36:35Z</time>
      </trkpt>
      <trkpt lat="40.241317" lon="-4.827200">
        <ele>2134.0</ele>
        <time>2013-07-02T12:36:36Z</time>
      </trkpt>
      <trkpt lat="40.241400" lon="-4.827233">
        <ele>2132.0</ele>
        <time>2013-07-02T12:36:37Z</time>
      </trkpt>
      <trkpt lat="40.241483" lon="-4.827283">
        <ele>2130.0</ele>
        <time>2013-07-02T12:36:38Z</time>
      </trkpt>
      <trkpt lat="40.241567" lon="-4.827317">
        <ele>2129.0</ele>
        <time>2013-07-02T12:36:39Z</time>
      </trkpt>
      <trkpt lat="40.241650" lon="-4.827350">
        <ele>2127.0</ele>
        <time>2013-07-02T12:36:40Z</time>
      </trkpt>
      <trkpt lat="40.241733" lon="-4.827383">
        <ele>2126.0</ele>
        <time>2013-07-02T12:36:41Z</time>
      </trkpt>
      <trkpt lat="40.241833" lon="-4.827417">
        <ele>2124.0</ele>
        <time>2013-07-02T12:36:42Z</time>
      </trkpt>
      <trkpt lat="40.241917" lon="-4.827450">
        <ele>2122.0</ele>
        <time>2013-07-02T12:36:43Z</time>
      </trkpt>
      <trkpt lat="40.242000" lon="-4.827483">
        <ele>2120.0</ele>
        <time>2013-07-02T12:36:44Z</time>
      </trkpt>
      <trkpt lat="40.242083" lon="-4.827500">
        <ele>2119.0</ele>
        <time>2013-07-02T12:36:45Z</time>
      </trkpt>
      <trkpt lat="40.242167" lon="-4.827533">
        <ele>2117.0</ele>
        <time>2013-07-02T12:36:46Z</time>
      </trkpt>
      <trkpt lat="40.242250" lon="-4.827583">
        <ele>2116.0</ele>
        <time>2013-07-02T12:36:47Z</time>
      </trkpt>
      <trkpt lat="40.242333" lon="-4.827617">
        <ele>2115.0</ele>
        <time>2013-07-02T12:36:48Z</time>
      </trkpt>
      <trkpt lat="40.242417" lon="-4.827650">
        <ele>2113.0</ele>
        <time>2013-07-02T12:36:49Z</time>
      </trkpt>
      <trkpt lat="40.242500" lon="-4.827667">
        <ele>2111.0</ele>
        <time>2013-07-02T12:36:50Z</time>
      </trkpt>
      <trkpt lat="40.242600" lon="-4.827700">
        <ele>2109.0</ele>
        <time>2013-07-02T12:36:51Z</time>
      </trkpt>
      <trkpt lat="40.242683" lon="-4.827733">
        <ele>2107.0</ele>
        <time>2013-07-02T12:36:52Z</time>
      </trkpt>
      <trkpt lat="40.242767" lon="-4.827750">
        <ele>2105.0</ele>
        <time>2013-07-02T12:36:53Z</time>
      </trkpt>
      <trkpt lat="40.242850" lon="-4.827783">
        <ele>2102.0</ele>
        <time>2013-07-02T12:36:54Z</time>
      </trkpt>
      <trkpt lat="40.242950" lon="-4.827817">
        <ele>2100.0</ele>
        <time>2013-07-02T12:36:55Z</time>
      </trkpt>
      <trkpt lat="40.243033" lon="-4.827850">
        <ele>2098.0</ele>
        <time>2013-07-02T12:36:56Z</time>
      </trkpt>
      <trkpt lat="40.243117" lon="-4.827900">
        <ele>2096.0</ele>
        <time>2013-07-02T12:36:57Z</time>
      </trkpt>
      <trkpt lat="40.243217" lon="-4.827933">
        <ele>2094.0</ele>
        <time>2013-07-02T12:36:58Z</time>
      </trkpt>
      <trkpt lat="40.243283" lon="-4.827967">
        <ele>2092.0</ele>
        <time>2013-07-02T12:36:59Z</time>
      </trkpt>
      <trkpt lat="40.243367" lon="-4.828017">
        <ele>2090.0</ele>
        <time>2013-07-02T12:37:00Z</time>
      </trkpt>
      <trkpt lat="40.243433" lon="-4.828050">
        <ele>2088.0</ele>
        <time>2013-07-02T12:37:01Z</time>
      </trkpt>
      <trkpt lat="40.243533" lon="-4.828083">
        <ele>2085.0</ele>
        <time>2013-07-02T12:37:02Z</time>
      </trkpt>
      <trkpt lat="40.243617" lon="-4.828117">
        <ele>2082.0</ele>
        <time>2013-07-02T12:37:03Z</time>
      </trkpt>
      <trkpt lat="40.243733" lon="-4.828150">
        <ele>2079.0</ele>
        <time>2013-07-02T12:37:04Z</time>
      </trkpt>
      <trkpt lat="40.243850" lon="-4.828183">
        <ele>2077.0</ele>
        <time>2013-07-02T12:37:05Z</time>
      </trkpt>
      <trkpt lat="40.243967" lon="-4.828200">
        <ele>2075.0</ele>
        <time>2013-07-02T12:37:06Z</time>
      </trkpt>
      <trkpt lat="40.244067" lon="-4.828217">
        <ele>2074.0</ele>
        <time>2013-07-02T12:37:07Z</time>
      </trkpt>
      <trkpt lat="40.244167" lon="-4.828217">
        <ele>2074.0</ele>
        <time>2013-07-02T12:37:08Z</time>
      </trkpt>
      <trkpt lat="40.244283" lon="-4.828233">
        <ele>2073.0</ele>
        <time>2013-07-02T12:37:09Z</time>
      </trkpt>
      <trkpt lat="40.244383" lon="-4.828267">
        <ele>2072.0</ele>
        <time>2013-07-02T12:37:10Z</time>
      </trkpt>
      <trkpt lat="40.244483" lon="-4.828300">
        <ele>2071.0</ele>
        <time>2013-07-02T12:37:11Z</time>
      </trkpt>
      <trkpt lat="40.244600" lon="-4.828317">
        <ele>2069.0</ele>
        <time>2013-07-02T12:37:12Z</time>
      </trkpt>
      <trkpt lat="40.244717" lon="-4.828333">
        <ele>2068.0</ele>
        <time>2013-07-02T12:37:13Z</time>
      </trkpt>
      <trkpt lat="40.244817" lon="-4.828350">
        <ele>2067.0</ele>
        <time>2013-07-02T12:37:14Z</time>
      </trkpt>
      <trkpt lat="40.244917" lon="-4.828383">
        <ele>2065.0</ele>
        <time>2013-07-02T12:37:15Z</time>
      </trkpt>
      <trkpt lat="40.245033" lon="-4.828417">
        <ele>2064.0</ele>
        <time>2013-07-02T12:37:16Z</time>
      </trkpt>
      <trkpt lat="40.245133" lon="-4.828450">
        <ele>2061.0</ele>
        <time>2013-07-02T12:37:17Z</time>
      </trkpt>
      <trkpt lat="40.245250" lon="-4.828467">
        <ele>2059.0</ele>
        <time>2013-07-02T12:37:18Z</time>
      </trkpt>
      <trkpt lat="40.245350" lon="-4.828483">
        <ele>2057.0</ele>
        <time>2013-07-02T12:37:19Z</time>
      </trkpt>
      <trkpt lat="40.245467" lon="-4.828517">
        <ele>2055.0</ele>
        <time>2013-07-02T12:37:20Z</time>
      </trkpt>
      <trkpt lat="40.245567" lon="-4.828550">
        <ele>2053.0</ele>
        <time>2013-07-02T12:37:21Z</time>
      </trkpt>
      <trkpt lat="40.245667" lon="-4.828583">
        <ele>2051.0</ele>
        <time>2013-07-02T12:37:22Z</time>
      </trkpt>
      <trkpt lat="40.245783" lon="-4.828600">
        <ele>2049.0</ele>
        <time>2013-07-02T12:37:23Z</time>
      </trkpt>
      <trkpt lat="40.245883" lon="-4.828633">
        <ele>2048.0</ele>
        <time>2013-07-02T12:37:24Z</time>
      </trkpt>
      <trkpt lat="40.245983" lon="-4.828667">
        <ele>2047.0</ele>
        <time>2013-07-02T12:37:25Z</time>
      </trkpt>
      <trkpt lat="40.246067" lon="-4.828700">
        <ele>2045.0</ele>
        <time>2013-07-02T12:37:26Z</time>
      </trkpt>
      <trkpt lat="40.246167" lon="-4.828733">
        <ele>2043.0</ele>
        <time>2013-07-02T12:37:27Z</time>
      </trkpt>
      <trkpt lat="40.246267" lon="-4.828767">
        <ele>2041.0</ele>
        <time>2013-07-02T12:37:28Z</time>
      </trkpt>
      <trkpt lat="40.246350" lon="-4.828817">
        <ele>2039.0</ele>
        <time>2013-07-02T12:37:29Z</time>
      </trkpt>
      <trkpt lat="40.246433" lon="-4.828867">
        <ele>2037.0</ele>
        <time>2013-07-02T12:37:30Z</time>
      </trkpt>
      <trkpt lat="40.246533" lon="-4.828917">
        <ele>2035.0</ele>
        <time>2013-07-02T12:37:31Z</time>
      </trkpt>
      <trkpt lat="40.246617" lon="-4.828967">
        <ele>2033.0</ele>
        <time>2013-07-02T12:37:32Z</time>
      </trkpt>
      <trkpt lat="40.246700" lon="-4.829017">
        <ele>2031.0</ele>
        <time>2013-07-02T12:37:33Z</time>
      </trkpt>
      <trkpt lat="40.246783" lon="-4.829067">
        <ele>2029.0</ele>
        <time>2013-07-02T12:37:34Z</time>
      </trkpt>
      <trkpt lat="40.246883" lon="-4.829117">
        <ele>2027.0</ele>
        <time>2013-07-02T12:37:35Z</time>
      </trkpt>
      <trkpt lat="40.246950" lon="-4.829150">
        <ele>2025.0</ele>
        <time>2013-07-02T12:37:36Z</time>
      </trkpt>
      <trkpt lat="40.247033" lon="-4.829200">
        <ele>2022.0</ele>
        <time>2013-07-02T12:37:37Z</time>
      </trkpt>
      <trkpt lat="40.247117" lon="-4.829250">
        <ele>2020.0</ele>
        <time>2013-07-02T12:37:38Z</time>
      </trkpt>
      <trkpt lat="40.247200" lon="-4.829300">
        <ele>2017.0</ele>
        <time>2013-07-02T12:37:39Z</time>
      </trkpt>
      <trkpt lat="40.247300" lon="-4.829350">
        <ele>2014.0</ele>
        <time>2013-07-02T12:37:40Z</time>
      </trkpt>
      <trkpt lat="40.247383" lon="-4.829383">
        <ele>2011.0</ele>
        <time>2013-07-02T12:37:41Z</time>
      </trkpt>
      <trkpt lat="40.247483" lon="-4.829433">
        <ele>2009.0</ele>
        <time>2013-07-02T12:37:42Z</time>
      </trkpt>
      <trkpt lat="40.247583" lon="-4.829467">
        <ele>2006.0</ele>
        <time>2013-07-02T12:37:43Z</time>
      </trkpt>
      <trkpt lat="40.247667" lon="-4.829517">
        <ele>2003.0</ele>
        <time>2013-07-02T12:37:44Z</time>
      </trkpt>
      <trkpt lat="40.247750" lon="-4.829567">
        <ele>2000.0</ele>
        <time>2013-07-02T12:37:45Z</time>
      </trkpt>
      <trkpt lat="40.247850" lon="-4.829617">
        <ele>1997.0</ele>
        <time>2013-07-02T12:37:46Z</time>
      </trkpt>
      <trkpt lat="40.247950" lon="-4.829650">
        <ele>1994.0</ele>
        <time>2013-07-02T12:37:47Z</time>
      </trkpt>
      <trkpt lat="40.248033" lon="-4.829700">
        <ele>1991.0</ele>
        <time>2013-07-02T12:37:48Z</time>
      </trkpt>
      <trkpt lat="40.248133" lon="-4.829733">
        <ele>1989.0</ele>
        <time>2013-07-02T12:37:49Z</time>
      </trkpt>
      <trkpt lat="40.248233" lon="-4.829767">
        <ele>1986.0</ele>
        <time>2013-07-02T12:37:50Z</time>
      </trkpt>
      <trkpt lat="40.248333" lon="-4.829817">
        <ele>1983.0</ele>
        <time>2013-07-02T12:37:51Z</time>
      </trkpt>
      <trkpt lat="40.248417" lon="-4.829850">
        <ele>1981.0</ele>
        <time>2013-07-02T12:37:52Z</time>
      </trkpt>
      <trkpt lat="40.248500" lon="-4.829883">
        <ele>1979.0</ele>
        <time>2013-07-02T12:37:53Z</time>
      </trkpt>
      <trkpt lat="40.248583" lon="-4.829917">
        <ele>1977.0</ele>
        <time>2013-07-02T12:37:54Z</time>
      </trkpt>
      <trkpt lat="40.248650" lon="-4.829950">
        <ele>1974.0</ele>
        <time>2013-07-02T12:37:55Z</time>
      </trkpt>
      <trkpt lat="40.248717" lon="-4.829983">
        <ele>1971.0</ele>
        <time>2013-07-02T12:37:56Z</time>
      </trkpt>
      <trkpt lat="40.248800" lon="-4.830033">
        <ele>1967.0</ele>
        <time>2013-07-02T12:37:57Z</time>
      </trkpt>
      <trkpt lat="40.248867" lon="-4.830100">
        <ele>1963.0</ele>
        <time>2013-07-02T12:37:58Z</time>
      </trkpt>
      <trkpt lat="40.248950" lon="-4.830150">
        <ele>1959.0</ele>
        <time>2013-07-02T12:37:59Z</time>
      </trkpt>
      <trkpt lat="40.249033" lon="-4.830217">
        <ele>1957.0</ele>
        <time>2013-07-02T12:38:00Z</time>
      </trkpt>
      <trkpt lat="40.249117" lon="-4.830267">
        <ele>1955.0</ele>
        <time>2013-07-02T12:38:01Z</time>
      </trkpt>
      <trkpt lat="40.249200" lon="-4.830300">
        <ele>1954.0</ele>
        <time>2013-07-02T12:38:02Z</time>
      </trkpt>
      <trkpt lat="40.249267" lon="-4.830350">
        <ele>1952.0</ele>
        <time>2013-07-02T12:38:03Z</time>
      </trkpt>
      <trkpt lat="40.249350" lon="-4.830383">
        <ele>1950.0</ele>
        <time>2013-07-02T12:38:04Z</time>
      </trkpt>
      <trkpt lat="40.249433" lon="-4.830400">
        <ele>1947.0</ele>
        <time>2013-07-02T12:38:05Z</time>
      </trkpt>
      <trkpt lat="40.249517" lon="-4.830417">
        <ele>1944.0</ele>
        <time>2013-07-02T12:38:06Z</time>
      </trkpt>
      <trkpt lat="40.249617" lon="-4.830433">
        <ele>1941.0</ele>
        <time>2013-07-02T12:38:07Z</time>
      </trkpt>
      <trkpt lat="40.249717" lon="-4.830433">
        <ele>1939.0</ele>
        <time>2013-07-02T12:38:08Z</time>
      </trkpt>
      <trkpt lat="40.249817" lon="-4.830433">
        <ele>1939.0</ele>
        <time>2013-07-02T12:38:09Z</time>
      </trkpt>
      <trkpt lat="40.249900" lon="-4.830417">
        <ele>1939.0</ele>
        <time>2013-07-02T12:38:10Z</time>
      </trkpt>
      <trkpt lat="40.249983" lon="-4.830400">
        <ele>1938.0</ele>
        <time>2013-07-02T12:38:11Z</time>
      </trkpt>
      <trkpt lat="40.250067" lon="-4.830367">
        <ele>1936.0</ele>
        <time>2013-07-02T12:38:12Z</time>
      </trkpt>
      <trkpt lat="40.250167" lon="-4.830350">
        <ele>1933.0</ele>
        <time>2013-07-02T12:38:13Z</time>
      </trkpt>
      <trkpt lat="40.250250" lon="-4.830333">
        <ele>1931.0</ele>
        <time>2013-07-02T12:38:14Z</time>
      </trkpt>
      <trkpt lat="40.250350" lon="-4.830300">
        <ele>1929.0</ele>
        <time>2013-07-02T12:38:15Z</time>
      </trkpt>
      <trkpt lat="40.250433" lon="-4.830283">
        <ele>1928.0</ele>
        <time>2013-07-02T12:38:16Z</time>
      </trkpt>
      <trkpt lat="40.250517" lon="-4.830267">
        <ele>1927.0</ele>
        <time>2013-07-02T12:38:17Z</time>
      </trkpt>
      <trkpt lat="40.250600" lon="-4.830250">
        <ele>1925.0</ele>
        <time>2013-07-02T12:38:18Z</time>
      </trkpt>
      <trkpt lat="40.250700" lon="-4.830250">
        <ele>1921.0</ele>
        <time>2013-07-02T12:38:19Z</time>
      </trkpt>
      <trkpt lat="40.250800" lon="-4.830267">
        <ele>1918.0</ele>
        <time>2013-07-02T12:38:20Z</time>
      </trkpt>
      <trkpt lat="40.250883" lon="-4.830283">
        <ele>1916.0</ele>
        <time>2013-07-02T12:38:21Z</time>
      </trkpt>
      <trkpt lat="40.250983" lon="-4.830317">
        <ele>1913.0</ele>
        <time>2013-07-02T12:38:22Z</time>
      </trkpt>
      <trkpt lat="40.251067" lon="-4.830350">
        <ele>1911.0</ele>
        <time>2013-07-02T12:38:23Z</time>
      </trkpt>
      <trkpt lat="40.251150" lon="-4.830400">
        <ele>1909.0</ele>
        <time>2013-07-02T12:38:24Z</time>
      </trkpt>
      <trkpt lat="40.251233" lon="-4.830433">
        <ele>1907.0</ele>
        <time>2013-07-02T12:38:25Z</time>
      </trkpt>
      <trkpt lat="40.251317" lon="-4.830467">
        <ele>1905.0</ele>
        <time>2013-07-02T12:38:26Z</time>
      </trkpt>
      <trkpt lat="40.251383" lon="-4.830500">
        <ele>1903.0</ele>
        <time>2013-07-02T12:38:27Z</time>
      </trkpt>
      <trkpt lat="40.251467" lon="-4.830533">
        <ele>1900.0</ele>
        <time>2013-07-02T12:38:28Z</time>
      </trkpt>
      <trkpt lat="40.251550" lon="-4.830583">
        <ele>1898.0</ele>
        <time>2013-07-02T12:38:29Z</time>
      </trkpt>
      <trkpt lat="40.251617" lon="-4.830650">
        <ele>1895.0</ele>
        <time>2013-07-02T12:38:30Z</time>
      </trkpt>
      <trkpt lat="40.251700" lon="-4.830700">
        <ele>1892.0</ele>
        <time>2013-07-02T12:38:31Z</time>
      </trkpt>
      <trkpt lat="40.251783" lon="-4.830750">
        <ele>1890.0</ele>
        <time>2013-07-02T12:38:32Z</time>
      </trkpt>
      <trkpt lat="40.251867" lon="-4.830783">
        <ele>1889.0</ele>
        <time>2013-07-02T12:38:33Z</time>
      </trkpt>
      <trkpt lat="40.251933" lon="-4.830817">
        <ele>1887.0</ele>
        <time>2013-07-02T12:38:34Z</time>
      </trkpt>
      <trkpt lat="40.252017" lon="-4.830850">
        <ele>1886.0</ele>
        <time>2013-07-02T12:38:35Z</time>
      </trkpt>
      <trkpt lat="40.252100" lon="-4.830883">
        <ele>1884.0</ele>
        <time>2013-07-02T12:38:36Z</time>
      </trkpt>
      <trkpt lat="40.252200" lon="-4.830933">
        <ele>1881.0</ele>
        <time>2013-07-02T12:38:37Z</time>
      </trkpt>
      <trkpt lat="40.252283" lon="-4.830950">
        <ele>1880.0</ele>
        <time>2013-07-02T12:38:38Z</time>
      </trkpt>
      <trkpt lat="40.252367" lon="-4.830983">
        <ele>1878.0</ele>
        <time>2013-07-02T12:38:39Z</time>
      </trkpt>
      <trkpt lat="40.252467" lon="-4.831017">
        <ele>1876.0</ele>
        <time>2013-07-02T12:38:40Z</time>
      </trkpt>
      <trkpt lat="40.252550" lon="-4.831050">
        <ele>1874.0</ele>
        <time>2013-07-02T12:38:41Z</time>
      </trkpt>
      <trkpt lat="40.252650" lon="-4.831083">
        <ele>1871.0</ele>
        <time>2013-07-02T12:38:42Z</time>
      </trkpt>
      <trkpt lat="40.252733" lon="-4.831117">
        <ele>1869.0</ele>
        <time>2013-07-02T12:38:43Z</time>
      </trkpt>
      <trkpt lat="40.252833" lon="-4.831150">
        <ele>1867.0</ele>
        <time>2013-07-02T12:38:44Z</time>
      </trkpt>
      <trkpt lat="40.252917" lon="-4.831200">
        <ele>1866.0</ele>
        <time>2013-07-02T12:38:45Z</time>
      </trkpt>
      <trkpt lat="40.253000" lon="-4.831233">
        <ele>1863.0</ele>
        <time>2013-07-02T12:38:46Z</time>
      </trkpt>
      <trkpt lat="40.253100" lon="-4.831283">
        <ele>1861.0</ele>
        <time>2013-07-02T12:38:47Z</time>
      </trkpt>
      <trkpt lat="40.253200" lon="-4.831333">
        <ele>1858.0</ele>
        <time>2013-07-02T12:38:48Z</time>
      </trkpt>
      <trkpt lat="40.253300" lon="-4.831367">
        <ele>1856.0</ele>
        <time>2013-07-02T12:38:49Z</time>
      </trkpt>
      <trkpt lat="40.253400" lon="-4.831417">
        <ele>1854.0</ele>
        <time>2013-07-02T12:38:50Z</time>
      </trkpt>
      <trkpt lat="40.253500" lon="-4.831450">
        <ele>1853.0</ele>
        <time>2013-07-02T12:38:51Z</time>
      </trkpt>
      <trkpt lat="40.253600" lon="-4.831483">
        <ele>1853.0</ele>
        <time>2013-07-02T12:38:52Z</time>
      </trkpt>
      <trkpt lat="40.253700" lon="-4.831533">
        <ele>1852.0</ele>
        <time>2013-07-02T12:38:53Z</time>
      </trkpt>
      <trkpt lat="40.253783" lon="-4.831567">
        <ele>1851.0</ele>
        <time>2013-07-02T12:38:54Z</time>
      </trkpt>
      <trkpt lat="40.253883" lon="-4.831617">
        <ele>1850.0</ele>
        <time>2013-07-02T12:38:55Z</time>
      </trkpt>
      <trkpt lat="40.253983" lon="-4.831667">
        <ele>1849.0</ele>
        <time>2013-07-02T12:38:56Z</time>
      </trkpt>
      <trkpt lat="40.254083" lon="-4.831717">
        <ele>1848.0</ele>
        <time>2013-07-02T12:38:57Z</time>
      </trkpt>
      <trkpt lat="40.254183" lon="-4.831767">
        <ele>1848.0</ele>
        <time>2013-07-02T12:38:58Z</time>
      </trkpt>
      <trkpt lat="40.254283" lon="-4.831817">
        <ele>1847.0</ele>
        <time>2013-07-02T12:38:59Z</time>
      </trkpt>
      <trkpt lat="40.254400" lon="-4.831867">
        <ele>1845.0</ele>
        <time>2013-07-02T12:39:00Z</time>
      </trkpt>
      <trkpt lat="40.254500" lon="-4.831933">
        <ele>1843.0</ele>
        <time>2013-07-02T12:39:01Z</time>
      </trkpt>
      <trkpt lat="40.254600" lon="-4.832000">
        <ele>1840.0</ele>
        <time>2013-07-02T12:39:02Z</time>
      </trkpt>
      <trkpt lat="40.254717" lon="-4.832067">
        <ele>1839.0</ele>
        <time>2013-07-02T12:39:03Z</time>
      </trkpt>
      <trkpt lat="40.254833" lon="-4.832117">
        <ele>1838.0</ele>
        <time>2013-07-02T12:39:04Z</time>
      </trkpt>
      <trkpt lat="40.254950" lon="-4.832150">
        <ele>1840.0</ele>
        <time>2013-07-02T12:39:05Z</time>
      </trkpt>
      <trkpt lat="40.255067" lon="-4.832183">
        <ele>1842.0</ele>
        <time>2013-07-02T12:39:06Z</time>
      </trkpt>
      <trkpt lat="40.255167" lon="-4.832200">
        <ele>1845.0</ele>
        <time>2013-07-02T12:39:07Z</time>
      </trkpt>
      <trkpt lat="40.255250" lon="-4.832217">
        <ele>1847.0</ele>
        <time>2013-07-02T12:39:08Z</time>
      </trkpt>
      <trkpt lat="40.255350" lon="-4.832217">
        <ele>1848.0</ele>
        <time>2013-07-02T12:39:09Z</time>
      </trkpt>
      <trkpt lat="40.255450" lon="-4.832233">
        <ele>1849.0</ele>
        <time>2013-07-02T12:39:10Z</time>
      </trkpt>
      <trkpt lat="40.255550" lon="-4.832233">
        <ele>1851.0</ele>
        <time>2013-07-02T12:39:11Z</time>
      </trkpt>
      <trkpt lat="40.255633" lon="-4.832250">
        <ele>1853.0</ele>
        <time>2013-07-02T12:39:12Z</time>
      </trkpt>
      <trkpt lat="40.255717" lon="-4.832267">
        <ele>1854.0</ele>
        <time>2013-07-02T12:39:13Z</time>
      </trkpt>
      <trkpt lat="40.255817" lon="-4.832267">
        <ele>1855.0</ele>
        <time>2013-07-02T12:39:14Z</time>
      </trkpt>
      <trkpt lat="40.255900" lon="-4.832283">
        <ele>1855.0</ele>
        <time>2013-07-02T12:39:15Z</time>
      </trkpt>
      <trkpt lat="40.256000" lon="-4.832283">
        <ele>1856.0</ele>
        <time>2013-07-02T12:39:16Z</time>
      </trkpt>
      <trkpt lat="40.256083" lon="-4.832317">
        <ele>1857.0</ele>
        <time>2013-07-02T12:39:17Z</time>
      </trkpt>
      <trkpt lat="40.256167" lon="-4.832333">
        <ele>1857.0</ele>
        <time>2013-07-02T12:39:18Z</time>
      </trkpt>
      <trkpt lat="40.256233" lon="-4.832350">
        <ele>1857.0</ele>
        <time>2013-07-02T12:39:19Z</time>
      </trkpt>
      <trkpt lat="40.256317" lon="-4.832367">
        <ele>1857.0</ele>
        <time>2013-07-02T12:39:20Z</time>
      </trkpt>
      <trkpt lat="40.256400" lon="-4.832383">
        <ele>1856.0</ele>
        <time>2013-07-02T12:39:21Z</time>
      </trkpt>
      <trkpt lat="40.256483" lon="-4.832417">
        <ele>1855.0</ele>
        <time>2013-07-02T12:39:22Z</time>
      </trkpt>
      <trkpt lat="40.256583" lon="-4.832450">
        <ele>1854.0</ele>
        <time>2013-07-02T12:39:23Z</time>
      </trkpt>
      <trkpt lat="40.256683" lon="-4.832483">
        <ele>1852.0</ele>
        <time>2013-07-02T12:39:24Z</time>
      </trkpt>
      <trkpt lat="40.256800" lon="-4.832517">
        <ele>1851.0</ele>
        <time>2013-07-02T12:39:25Z</time>
      </trkpt>
      <trkpt lat="40.256900" lon="-4.832533">
        <ele>1849.0</ele>
        <time>2013-07-02T12:39:26Z</time>
      </trkpt>
      <trkpt lat="40.257017" lon="-4.832567">
        <ele>1847.0</ele>
        <time>2013-07-02T12:39:27Z</time>
      </trkpt>
      <trkpt lat="40.257150" lon="-4.832583">
        <ele>1846.0</ele>
        <time>2013-07-02T12:39:28Z</time>
      </trkpt>
      <trkpt lat="40.257267" lon="-4.832583">
        <ele>1846.0</ele>
        <time>2013-07-02T12:39:29Z</time>
      </trkpt>
      <trkpt lat="40.257367" lon="-4.832600">
        <ele>1846.0</ele>
        <time>2013-07-02T12:39:30Z</time>
      </trkpt>
      <trkpt lat="40.257467" lon="-4.832600">
        <ele>1844.0</ele>
        <time>2013-07-02T12:39:31Z</time>
      </trkpt>
      <trkpt lat="40.257583" lon="-4.832617">
        <ele>1841.0</ele>
        <time>2013-07-02T12:39:32Z</time>
      </trkpt>
      <trkpt lat="40.257700" lon="-4.832617">
        <ele>1837.0</ele>
        <time>2013-07-02T12:39:33Z</time>
      </trkpt>
      <trkpt lat="40.257850" lon="-4.832633">
        <ele>1834.0</ele>
        <time>2013-07-02T12:39:34Z</time>
      </trkpt>
      <trkpt lat="40.257967" lon="-4.832667">
        <ele>1833.0</ele>
        <time>2013-07-02T12:39:35Z</time>
      </trkpt>
      <trkpt lat="40.258083" lon="-4.832700">
        <ele>1833.0</ele>
        <time>2013-07-02T12:39:36Z</time>
      </trkpt>
      <trkpt lat="40.258167" lon="-4.832717">
        <ele>1833.0</ele>
        <time>2013-07-02T12:39:37Z</time>
      </trkpt>
      <trkpt lat="40.258250" lon="-4.832733">
        <ele>1832.0</ele>
        <time>2013-07-02T12:39:38Z</time>
      </trkpt>
      <trkpt lat="40.258350" lon="-4.832750">
        <ele>1829.0</ele>
        <time>2013-07-02T12:39:39Z</time>
      </trkpt>
      <trkpt lat="40.258467" lon="-4.832800">
        <ele>1826.0</ele>
        <time>2013-07-02T12:39:40Z</time>
      </trkpt>
      <trkpt lat="40.258567" lon="-4.832850">
        <ele>1823.0</ele>
        <time>2013-07-02T12:39:41Z</time>
      </trkpt>
      <trkpt lat="40.258667" lon="-4.832917">
        <ele>1821.0</ele>
        <time>2013-07-02T12:39:42Z</time>
      </trkpt>
      <trkpt lat="40.258750" lon="-4.832967">
        <ele>1820.0</ele>
        <time>2013-07-02T12:39:43Z</time>
      </trkpt>
      <trkpt lat="40.258833" lon="-4.833017">
        <ele>1819.0</ele>
        <time>2013-07-02T12:39:44Z</time>
      </trkpt>
      <trkpt lat="40.258900" lon="-4.833067">
        <ele>1817.0</ele>
        <time>2013-07-02T12:39:45Z</time>
      </trkpt>
      <trkpt lat="40.258967" lon="-4.833117">
        <ele>1815.0</ele>
        <time>2013-07-02T12:39:46Z</time>
      </trkpt>
      <trkpt lat="40.259050" lon="-4.833167">
        <ele>1812.0</ele>
        <time>2013-07-02T12:39:47Z</time>
      </trkpt>
      <trkpt lat="40.259133" lon="-4.833217">
        <ele>1810.0</ele>
        <time>2013-07-02T12:39:48Z</time>
      </trkpt>
      <trkpt lat="40.259233" lon="-4.833283">
        <ele>1809.0</ele>
        <time>2013-07-02T12:39:49Z</time>
      </trkpt>
      <trkpt lat="40.259333" lon="-4.833333">
        <ele>1808.0</ele>
        <time>2013-07-02T12:39:50Z</time>
      </trkpt>
      <trkpt lat="40.259417" lon="-4.833367">
        <ele>1808.0</ele>
        <time>2013-07-02T12:39:51Z</time>
      </trkpt>
      <trkpt lat="40.259500" lon="-4.833400">
        <ele>1807.0</ele>
        <time>2013-07-02T12:39:52Z</time>
      </trkpt>
      <trkpt lat="40.259583" lon="-4.833417">
        <ele>1805.0</ele>
        <time>2013-07-02T12:39:53Z</time>
      </trkpt>
      <trkpt lat="40.259683" lon="-4.833450">
        <ele>1802.0</ele>
        <time>2013-07-02T12:39:54Z</time>
      </trkpt>
      <trkpt lat="40.259783" lon="-4.833483">
        <ele>1800.0</ele>
        <time>2013-07-02T12:39:55Z</time>
      </trkpt>
      <trkpt lat="40.259900" lon="-4.833517">
        <ele>1799.0</ele>
        <time>2013-07-02T12:39:56Z</time>
      </trkpt>
      <trkpt lat="40.260000" lon="-4.833567">
        <ele>1798.0</ele>
        <time>2013-07-02T12:39:57Z</time>
      </trkpt>
      <trkpt lat="40.260100" lon="-4.833617">
        <ele>1797.0</ele>
        <time>2013-07-02T12:39:58Z</time>
      </trkpt>
      <trkpt lat="40.260183" lon="-4.833650">
        <ele>1797.0</ele>
        <time>2013-07-02T12:39:59Z</time>
      </trkpt>
      <trkpt lat="40.260250" lon="-4.833683">
        <ele>1795.0</ele>
        <time>2013-07-02T12:40:00Z</time>
      </trkpt>
      <trkpt lat="40.260350" lon="-4.833717">
        <ele>1794.0</ele>
        <time>2013-07-02T12:40:01Z</time>
      </trkpt>
      <trkpt lat="40.260450" lon="-4.833767">
        <ele>1791.0</ele>
        <time>2013-07-02T12:40:02Z</time>
      </trkpt>
      <trkpt lat="40.260533" lon="-4.833817">
        <ele>1788.0</ele>
        <time>2013-07-02T12:40:03Z</time>
      </trkpt>
      <trkpt lat="40.260633" lon="-4.833883">
        <ele>1786.0</ele>
        <time>2013-07-02T12:40:04Z</time>
      </trkpt>
      <trkpt lat="40.260717" lon="-4.833933">
        <ele>1784.0</ele>
        <time>2013-07-02T12:40:05Z</time>
      </trkpt>
      <trkpt lat="40.260800" lon="-4.834000">
        <ele>1782.0</ele>
        <time>2013-07-02T12:40:06Z</time>
      </trkpt>
      <trkpt lat="40.260883" lon="-4.834050">
        <ele>1780.0</ele>
        <time>2013-07-02T12:40:07Z</time>
      </trkpt>
      <trkpt lat="40.260967" lon="-4.834117">
        <ele>1777.0</ele>
        <time>2013-07-02T12:40:08Z</time>
      </trkpt>
      <trkpt lat="40.261050" lon="-4.834183">
        <ele>1774.0</ele>
        <time>2013-07-02T12:40:09Z</time>
      </trkpt>
      <trkpt lat="40.261133" lon="-4.834233">
        <ele>1772.0</ele>
        <time>2013-07-02T12:40:10Z</time>
      </trkpt>
      <trkpt lat="40.261200" lon="-4.834300">
        <ele>1769.0</ele>
        <time>2013-07-02T12:40:11Z</time>
      </trkpt>
      <trkpt lat="40.261267" lon="-4.834350">
        <ele>1766.0</ele>
        <time>2013-07-02T12:40:12Z</time>
      </trkpt>
      <trkpt lat="40.261317" lon="-4.834400">
        <ele>1763.0</ele>
        <time>2013-07-02T12:40:13Z</time>
      </trkpt>
      <trkpt lat="40.261367" lon="-4.834467">
        <ele>1759.0</ele>
        <time>2013-07-02T12:40:14Z</time>
      </trkpt>
      <trkpt lat="40.261433" lon="-4.834533">
        <ele>1755.0</ele>
        <time>2013-07-02T12:40:15Z</time>
      </trkpt>
      <trkpt lat="40.261500" lon="-4.834583">
        <ele>1751.0</ele>
        <time>2013-07-02T12:40:16Z</time>
      </trkpt>
      <trkpt lat="40.261583" lon="-4.834650">
        <ele>1748.0</ele>
        <time>2013-07-02T12:40:17Z</time>
      </trkpt>
      <trkpt lat="40.261667" lon="-4.834700">
        <ele>1746.0</ele>
        <time>2013-07-02T12:40:18Z</time>
      </trkpt>
      <trkpt lat="40.261750" lon="-4.834733">
        <ele>1744.0</ele>
        <time>2013-07-02T12:40:19Z</time>
      </trkpt>
      <trkpt lat="40.261817" lon="-4.834767">
        <ele>1741.0</ele>
        <time>2013-07-02T12:40:20Z</time>
      </trkpt>
      <trkpt lat="40.261900" lon="-4.834800">
        <ele>1739.0</ele>
        <time>2013-07-02T12:40:21Z</time>
      </trkpt>
      <trkpt lat="40.261967" lon="-4.834833">
        <ele>1735.0</ele>
        <time>2013-07-02T12:40:22Z</time>
      </trkpt>
      <trkpt lat="40.262067" lon="-4.834883">
        <ele>1731.0</ele>
        <time>2013-07-02T12:40:23Z</time>
      </trkpt>
      <trkpt lat="40.262150" lon="-4.834933">
        <ele>1728.0</ele>
        <time>2013-07-02T12:40:24Z</time>
      </trkpt>
      <trkpt lat="40.262250" lon="-4.834983">
        <ele>1725.0</ele>
        <time>2013-07-02T12:40:25Z</time>
      </trkpt>
      <trkpt lat="40.262350" lon="-4.835017">
        <ele>1723.0</ele>
        <time>2013-07-02T12:40:26Z</time>
      </trkpt>
      <trkpt lat="40.262450" lon="-4.835050">
        <ele>1721.0</ele>
        <time>2013-07-02T12:40:27Z</time>
      </trkpt>
      <trkpt lat="40.262550" lon="-4.835067">
        <ele>1719.0</ele>
        <time>2013-07-02T12:40:28Z</time>
      </trkpt>
      <trkpt lat="40.262650" lon="-4.835083">
        <ele>1716.0</ele>
        <time>2013-07-02T12:40:29Z</time>
      </trkpt>
      <trkpt lat="40.262750" lon="-4.835100">
        <ele>1713.0</ele>
        <time>2013-07-02T12:40:30Z</time>
      </trkpt>
      <trkpt lat="40.262867" lon="-4.835150">
        <ele>1709.0</ele>
        <time>2013-07-02T12:40:31Z</time>
      </trkpt>
      <trkpt lat="40.262950" lon="-4.835200">
        <ele>1707.0</ele>
        <time>2013-07-02T12:40:32Z</time>
      </trkpt>
      <trkpt lat="40.263050" lon="-4.835233">
        <ele>1705.0</ele>
        <time>2013-07-02T12:40:33Z</time>
      </trkpt>
      <trkpt lat="40.263150" lon="-4.835283">
        <ele>1703.0</ele>
        <time>2013-07-02T12:40:34Z</time>
      </trkpt>
      <trkpt lat="40.263233" lon="-4.835317">
        <ele>1700.0</ele>
        <time>2013-07-02T12:40:35Z</time>
      </trkpt>
      <trkpt lat="40.263350" lon="-4.835367">
        <ele>1698.0</ele>
        <time>2013-07-02T12:40:36Z</time>
      </trkpt>
      <trkpt lat="40.263450" lon="-4.835400">
        <ele>1694.0</ele>
        <time>2013-07-02T12:40:37Z</time>
      </trkpt>
      <trkpt lat="40.263567" lon="-4.835450">
        <ele>1691.0</ele>
        <time>2013-07-02T12:40:38Z</time>
      </trkpt>
      <trkpt lat="40.263683" lon="-4.835483">
        <ele>1690.0</ele>
        <time>2013-07-02T12:40:39Z</time>
      </trkpt>
      <trkpt lat="40.263783" lon="-4.835517">
        <ele>1688.0</ele>
        <time>2013-07-02T12:40:40Z</time>
      </trkpt>
      <trkpt lat="40.263867" lon="-4.835550">
        <ele>1686.0</ele>
        <time>2013-07-02T12:40:41Z</time>
      </trkpt>
      <trkpt lat="40.263967" lon="-4.835567">
        <ele>1684.0</ele>
        <time>2013-07-02T12:40:42Z</time>
      </trkpt>
      <trkpt lat="40.264067" lon="-4.835600">
        <ele>1681.0</ele>
        <time>2013-07-02T12:40:43Z</time>
      </trkpt>
      <trkpt lat="40.264183" lon="-4.835617">
        <ele>1679.0</ele>
        <time>2013-07-02T12:40:44Z</time>
      </trkpt>
      <trkpt lat="40.264300" lon="-4.835633">
        <ele>1676.0</ele>
        <time>2013-07-02T12:40:45Z</time>
      </trkpt>
      <trkpt lat="40.264417" lon="-4.835667">
        <ele>1674.0</ele>
        <time>2013-07-02T12:40:46Z</time>
      </trkpt>
      <trkpt lat="40.264550" lon="-4.835700">
        <ele>1672.0</ele>
        <time>2013-07-02T12:40:47Z</time>
      </trkpt>
      <trkpt lat="40.264650" lon="-4.835733">
        <ele>1671.0</ele>
        <time>2013-07-02T12:40:48Z</time>
      </trkpt>
      <trkpt lat="40.264767" lon="-4.835767">
        <ele>1671.0</ele>
        <time>2013-07-02T12:40:49Z</time>
      </trkpt>
      <trkpt lat="40.264867" lon="-4.835800">
        <ele>1671.0</ele>
        <time>2013-07-02T12:40:50Z</time>
      </trkpt>
      <trkpt lat="40.264967" lon="-4.835833">
        <ele>1670.0</ele>
        <time>2013-07-02T12:40:51Z</time>
      </trkpt>
      <trkpt lat="40.265067" lon="-4.835867">
        <ele>1668.0</ele>
        <time>2013-07-02T12:40:52Z</time>
      </trkpt>
      <trkpt lat="40.265183" lon="-4.835900">
        <ele>1666.0</ele>
        <time>2013-07-02T12:40:53Z</time>
      </trkpt>
      <trkpt lat="40.265317" lon="-4.835933">
        <ele>1664.0</ele>
        <time>2013-07-02T12:40:54Z</time>
      </trkpt>
      <trkpt lat="40.265433" lon="-4.835983">
        <ele>1663.0</ele>
        <time>2013-07-02T12:40:55Z</time>
      </trkpt>
      <trkpt lat="40.265550" lon="-4.836017">
        <ele>1662.0</ele>
        <time>2013-07-02T12:40:56Z</time>
      </trkpt>
      <trkpt lat="40.265667" lon="-4.836050">
        <ele>1663.0</ele>
        <time>2013-07-02T12:40:57Z</time>
      </trkpt>
      <trkpt lat="40.265767" lon="-4.836083">
        <ele>1662.0</ele>
        <time>2013-07-02T12:40:58Z</time>
      </trkpt>
      <trkpt lat="40.265867" lon="-4.836100">
        <ele>1661.0</ele>
        <time>2013-07-02T12:40:59Z</time>
      </trkpt>
      <trkpt lat="40.265967" lon="-4.836150">
        <ele>1658.0</ele>
        <time>2013-07-02T12:41:00Z</time>
      </trkpt>
      <trkpt lat="40.266083" lon="-4.836183">
        <ele>1656.0</ele>
        <time>2013-07-02T12:41:01Z</time>
      </trkpt>
      <trkpt lat="40.266217" lon="-4.836217">
        <ele>1654.0</ele>
        <time>2013-07-02T12:41:02Z</time>
      </trkpt>
      <trkpt lat="40.266333" lon="-4.836250">
        <ele>1652.0</ele>
        <time>2013-07-02T12:41:03Z</time>
      </trkpt>
      <trkpt lat="40.266467" lon="-4.836250">
        <ele>1651.0</ele>
        <time>2013-07-02T12:41:04Z</time>
      </trkpt>
      <trkpt lat="40.266583" lon="-4.836267">
        <ele>1650.0</ele>
        <time>2013-07-02T12:41:05Z</time>
      </trkpt>
      <trkpt lat="40.266700" lon="-4.836283">
        <ele>1649.0</ele>
        <time>2013-07-02T12:41:06Z</time>
      </trkpt>
      <trkpt lat="40.266817" lon="-4.836300">
        <ele>1647.0</ele>
        <time>2013-07-02T12:41:07Z</time>
      </trkpt>
      <trkpt lat="40.266950" lon="-4.836317">
        <ele>1645.0</ele>
        <time>2013-07-02T12:41:08Z</time>
      </trkpt>
      <trkpt lat="40.267083" lon="-4.836300">
        <ele>1643.0</ele>
        <time>2013-07-02T12:41:09Z</time>
      </trkpt>
      <trkpt lat="40.267217" lon="-4.836283">
        <ele>1641.0</ele>
        <time>2013-07-02T12:41:10Z</time>
      </trkpt>
      <trkpt lat="40.267333" lon="-4.836250">
        <ele>1640.0</ele>
        <time>2013-07-02T12:41:11Z</time>
      </trkpt>
      <trkpt lat="40.267450" lon="-4.836217">
        <ele>1638.0</ele>
        <time>2013-07-02T12:41:12Z</time>
      </trkpt>
      <trkpt lat="40.267567" lon="-4.836183">
        <ele>1636.0</ele>
        <time>2013-07-02T12:41:13Z</time>
      </trkpt>
      <trkpt lat="40.267683" lon="-4.836133">
        <ele>1633.0</ele>
        <time>2013-07-02T12:41:14Z</time>
      </trkpt>
      <trkpt lat="40.267817" lon="-4.836083">
        <ele>1630.0</ele>
        <time>2013-07-02T12:41:15Z</time>
      </trkpt>
      <trkpt lat="40.267950" lon="-4.836033">
        <ele>1627.0</ele>
        <time>2013-07-02T12:41:16Z</time>
      </trkpt>
      <trkpt lat="40.268083" lon="-4.835983">
        <ele>1625.0</ele>
        <time>2013-07-02T12:41:17Z</time>
      </trkpt>
      <trkpt lat="40.268200" lon="-4.835917">
        <ele>1624.0</ele>
        <time>2013-07-02T12:41:18Z</time>
      </trkpt>
      <trkpt lat="40.268333" lon="-4.835867">
        <ele>1622.0</ele>
        <time>2013-07-02T12:41:19Z</time>
      </trkpt>
      <trkpt lat="40.268450" lon="-4.835800">
        <ele>1621.0</ele>
        <time>2013-07-02T12:41:20Z</time>
      </trkpt>
      <trkpt lat="40.268567" lon="-4.835750">
        <ele>1619.0</ele>
        <time>2013-07-02T12:41:21Z</time>
      </trkpt>
      <trkpt lat="40.268683" lon="-4.835700">
        <ele>1616.0</ele>
        <time>2013-07-02T12:41:22Z</time>
      </trkpt>
      <trkpt lat="40.268800" lon="-4.835650">
        <ele>1613.0</ele>
        <time>2013-07-02T12:41:23Z</time>
      </trkpt>
      <trkpt lat="40.268917" lon="-4.835600">
        <ele>1610.0</ele>
        <time>2013-07-02T12:41:24Z</time>
      </trkpt>
      <trkpt lat="40.269033" lon="-4.835533">
        <ele>1608.0</ele>
        <time>2013-07-02T12:41:25Z</time>
      </trkpt>
      <trkpt lat="40.269150" lon="-4.835467">
        <ele>1605.0</ele>
        <time>2013-07-02T12:41:26Z</time>
      </trkpt>
      <trkpt lat="40.269283" lon="-4.835417">
        <ele>1602.0</ele>
        <time>2013-07-02T12:41:27Z</time>
      </trkpt>
      <trkpt lat="40.269400" lon="-4.835350">
        <ele>1599.0</ele>
        <time>2013-07-02T12:41:28Z</time>
      </trkpt>
      <trkpt lat="40.269517" lon="-4.835283">
        <ele>1596.0</ele>
        <time>2013-07-02T12:41:29Z</time>
      </trkpt>
      <trkpt lat="40.269633" lon="-4.835217">
        <ele>1593.0</ele>
        <time>2013-07-02T12:41:30Z</time>
      </trkpt>
      <trkpt lat="40.269767" lon="-4.835167">
        <ele>1590.0</ele>
        <time>2013-07-02T12:41:31Z</time>
      </trkpt>
      <trkpt lat="40.269883" lon="-4.835100">
        <ele>1587.0</ele>
        <time>2013-07-02T12:41:32Z</time>
      </trkpt>
      <trkpt lat="40.270000" lon="-4.835050">
        <ele>1584.0</ele>
        <time>2013-07-02T12:41:33Z</time>
      </trkpt>
      <trkpt lat="40.270133" lon="-4.834983">
        <ele>1580.0</ele>
        <time>2013-07-02T12:41:34Z</time>
      </trkpt>
      <trkpt lat="40.270250" lon="-4.834900">
        <ele>1577.0</ele>
        <time>2013-07-02T12:41:35Z</time>
      </trkpt>
      <trkpt lat="40.270367" lon="-4.834833">
        <ele>1573.0</ele>
        <time>2013-07-02T12:41:36Z</time>
      </trkpt>
      <trkpt lat="40.270500" lon="-4.834783">
        <ele>1569.0</ele>
        <time>2013-07-02T12:41:37Z</time>
      </trkpt>
      <trkpt lat="40.270617" lon="-4.834700">
        <ele>1566.0</ele>
        <time>2013-07-02T12:41:38Z</time>
      </trkpt>
      <trkpt lat="40.270750" lon="-4.834633">
        <ele>1563.0</ele>
        <time>2013-07-02T12:41:39Z</time>
      </trkpt>
      <trkpt lat="40.270867" lon="-4.834567">
        <ele>1560.0</ele>
        <time>2013-07-02T12:41:40Z</time>
      </trkpt>
      <trkpt lat="40.270983" lon="-4.834517">
        <ele>1557.0</ele>
        <time>2013-07-02T12:41:41Z</time>
      </trkpt>
      <trkpt lat="40.271100" lon="-4.834450">
        <ele>1555.0</ele>
        <time>2013-07-02T12:41:42Z</time>
      </trkpt>
      <trkpt lat="40.271233" lon="-4.834400">
        <ele>1551.0</ele>
        <time>2013-07-02T12:41:43Z</time>
      </trkpt>
      <trkpt lat="40.271350" lon="-4.834333">
        <ele>1548.0</ele>
        <time>2013-07-02T12:41:44Z</time>
      </trkpt>
      <trkpt lat="40.271483" lon="-4.834267">
        <ele>1546.0</ele>
        <time>2013-07-02T12:41:45Z</time>
      </trkpt>
      <trkpt lat="40.271617" lon="-4.834217">
        <ele>1543.0</ele>
        <time>2013-07-02T12:41:46Z</time>
      </trkpt>
      <trkpt lat="40.271750" lon="-4.834150">
        <ele>1541.0</ele>
        <time>2013-07-02T12:41:47Z</time>
      </trkpt>
      <trkpt lat="40.271883" lon="-4.834100">
        <ele>1538.0</ele>
        <time>2013-07-02T12:41:48Z</time>
      </trkpt>
      <trkpt lat="40.272000" lon="-4.834033">
        <ele>1536.0</ele>
        <time>2013-07-02T12:41:49Z</time>
      </trkpt>
      <trkpt lat="40.272133" lon="-4.833967">
        <ele>1534.0</ele>
        <time>2013-07-02T12:41:50Z</time>
      </trkpt>
      <trkpt lat="40.272267" lon="-4.833900">
        <ele>1532.0</ele>
        <time>2013-07-02T12:41:51Z</time>
      </trkpt>
      <trkpt lat="40.272383" lon="-4.833817">
        <ele>1529.0</ele>
        <time>2013-07-02T12:41:52Z</time>
      </trkpt>
      <trkpt lat="40.272500" lon="-4.833750">
        <ele>1526.0</ele>
        <time>2013-07-02T12:41:53Z</time>
      </trkpt>
      <trkpt lat="40.272633" lon="-4.833683">
        <ele>1524.0</ele>
        <time>2013-07-02T12:41:54Z</time>
      </trkpt>
      <trkpt lat="40.272767" lon="-4.833617">
        <ele>1521.0</ele>
        <time>2013-07-02T12:41:55Z</time>
      </trkpt>
      <trkpt lat="40.272883" lon="-4.833533">
        <ele>1519.0</ele>
        <time>2013-07-02T12:41:56Z</time>
      </trkpt>
      <trkpt lat="40.273000" lon="-4.833483">
        <ele>1517.0</ele>
        <time>2013-07-02T12:41:57Z</time>
      </trkpt>
      <trkpt lat="40.273117" lon="-4.833417">
        <ele>1515.0</ele>
        <time>2013-07-02T12:41:58Z</time>
      </trkpt>
      <trkpt lat="40.273217" lon="-4.833350">
        <ele>1512.0</ele>
        <time>2013-07-02T12:41:59Z</time>
      </trkpt>
      <trkpt lat="40.273317" lon="-4.833267">
        <ele>1509.0</ele>
        <time>2013-07-02T12:42:00Z</time>
      </trkpt>
      <trkpt lat="40.273433" lon="-4.833183">
        <ele>1505.0</ele>
        <time>2013-07-02T12:42:01Z</time>
      </trkpt>
      <trkpt lat="40.273550" lon="-4.833100">
        <ele>1501.0</ele>
        <time>2013-07-02T12:42:02Z</time>
      </trkpt>
      <trkpt lat="40.273667" lon="-4.833017">
        <ele>1497.0</ele>
        <time>2013-07-02T12:42:03Z</time>
      </trkpt>
      <trkpt lat="40.273800" lon="-4.832967">
        <ele>1494.0</ele>
        <time>2013-07-02T12:42:04Z</time>
      </trkpt>
      <trkpt lat="40.273933" lon="-4.832900">
        <ele>1492.0</ele>
        <time>2013-07-02T12:42:05Z</time>
      </trkpt>
      <trkpt lat="40.274050" lon="-4.832850">
        <ele>1491.0</ele>
        <time>2013-07-02T12:42:06Z</time>
      </trkpt>
      <trkpt lat="40.274150" lon="-4.832783">
        <ele>1490.0</ele>
        <time>2013-07-02T12:42:07Z</time>
      </trkpt>
      <trkpt lat="40.274267" lon="-4.832733">
        <ele>1488.0</ele>
        <time>2013-07-02T12:42:08Z</time>
      </trkpt>
      <trkpt lat="40.274383" lon="-4.832683">
        <ele>1485.0</ele>
        <time>2013-07-02T12:42:09Z</time>
      </trkpt>
      <trkpt lat="40.274500" lon="-4.832617">
        <ele>1481.0</ele>
        <time>2013-07-02T12:42:10Z</time>
      </trkpt>
      <trkpt lat="40.274617" lon="-4.832533">
        <ele>1478.0</ele>
        <time>2013-07-02T12:42:11Z</time>
      </trkpt>
      <trkpt lat="40.274750" lon="-4.832467">
        <ele>1475.0</ele>
        <time>2013-07-02T12:42:12Z</time>
      </trkpt>
      <trkpt lat="40.274867" lon="-4.832383">
        <ele>1473.0</ele>
        <time>2013-07-02T12:42:13Z</time>
      </trkpt>
      <trkpt lat="40.274983" lon="-4.832317">
        <ele>1471.0</ele>
        <time>2013-07-02T12:42:14Z</time>
      </trkpt>
      <trkpt lat="40.275083" lon="-4.832233">
        <ele>1468.0</ele>
        <time>2013-07-02T12:42:15Z</time>
      </trkpt>
      <trkpt lat="40.275200" lon="-4.832150">
        <ele>1464.0</ele>
        <time>2013-07-02T12:42:16Z</time>
      </trkpt>
      <trkpt lat="40.275317" lon="-4.832050">
        <ele>1460.0</ele>
        <time>2013-07-02T12:42:17Z</time>
      </trkpt>
      <trkpt lat="40.275450" lon="-4.831950">
        <ele>1456.0</ele>
        <time>2013-07-02T12:42:18Z</time>
      </trkpt>
      <trkpt lat="40.275583" lon="-4.831850">
        <ele>1454.0</ele>
        <time>2013-07-02T12:42:19Z</time>
      </trkpt>
      <trkpt lat="40.275700" lon="-4.831750">
        <ele>1451.0</ele>
        <time>2013-07-02T12:42:20Z</time>
      </trkpt>
      <trkpt lat="40.275817" lon="-4.831683">
        <ele>1450.0</ele>
        <time>2013-07-02T12:42:21Z</time>
      </trkpt>
      <trkpt lat="40.275950" lon="-4.831617">
        <ele>1447.0</ele>
        <time>2013-07-02T12:42:22Z</time>
      </trkpt>
      <trkpt lat="40.276067" lon="-4.831550">
        <ele>1444.0</ele>
        <time>2013-07-02T12:42:23Z</time>
      </trkpt>
      <trkpt lat="40.276200" lon="-4.831483">
        <ele>1441.0</ele>
        <time>2013-07-02T12:42:24Z</time>
      </trkpt>
      <trkpt lat="40.276333" lon="-4.831450">
        <ele>1437.0</ele>
        <time>2013-07-02T12:42:25Z</time>
      </trkpt>
      <trkpt lat="40.276467" lon="-4.831400">
        <ele>1433.0</ele>
        <time>2013-07-02T12:42:26Z</time>
      </trkpt>
      <trkpt lat="40.276600" lon="-4.831350">
        <ele>1430.0</ele>
        <time>2013-07-02T12:42:27Z</time>
      </trkpt>
      <trkpt lat="40.276750" lon="-4.831300">
        <ele>1427.0</ele>
        <time>2013-07-02T12:42:28Z</time>
      </trkpt>
      <trkpt lat="40.276883" lon="-4.831267">
        <ele>1425.0</ele>
        <time>2013-07-02T12:42:29Z</time>
      </trkpt>
      <trkpt lat="40.277000" lon="-4.831217">
        <ele>1423.0</ele>
        <time>2013-07-02T12:42:30Z</time>
      </trkpt>
      <trkpt lat="40.277117" lon="-4.831183">
        <ele>1420.0</ele>
        <time>2013-07-02T12:42:31Z</time>
      </trkpt>
      <trkpt lat="40.277233" lon="-4.831150">
        <ele>1417.0</ele>
        <time>2013-07-02T12:42:32Z</time>
      </trkpt>
      <trkpt lat="40.277350" lon="-4.831117">
        <ele>1414.0</ele>
        <time>2013-07-02T12:42:33Z</time>
      </trkpt>
      <trkpt lat="40.277483" lon="-4.831083">
        <ele>1411.0</ele>
        <time>2013-07-02T12:42:34Z</time>
      </trkpt>
      <trkpt lat="40.277600" lon="-4.831050">
        <ele>1407.0</ele>
        <time>2013-07-02T12:42:35Z</time>
      </trkpt>
      <trkpt lat="40.277733" lon="-4.831017">
        <ele>1404.0</ele>
        <time>2013-07-02T12:42:36Z</time>
      </trkpt>
      <trkpt lat="40.277850" lon="-4.831000">
        <ele>1400.0</ele>
        <time>2013-07-02T12:42:37Z</time>
      </trkpt>
      <trkpt lat="40.277967" lon="-4.830967">
        <ele>1396.0</ele>
        <time>2013-07-02T12:42:38Z</time>
      </trkpt>
      <trkpt lat="40.278100" lon="-4.830933">
        <ele>1392.0</ele>
        <time>2013-07-02T12:42:39Z</time>
      </trkpt>
      <trkpt lat="40.278233" lon="-4.830900">
        <ele>1388.0</ele>
        <time>2013-07-02T12:42:40Z</time>
      </trkpt>
      <trkpt lat="40.278367" lon="-4.830867">
        <ele>1384.0</ele>
        <time>2013-07-02T12:42:41Z</time>
      </trkpt>
      <trkpt lat="40.278500" lon="-4.830817">
        <ele>1382.0</ele>
        <time>2013-07-02T12:42:42Z</time>
      </trkpt>
      <trkpt lat="40.278617" lon="-4.830767">
        <ele>1380.0</ele>
        <time>2013-07-02T12:42:43Z</time>
      </trkpt>
      <trkpt lat="40.278717" lon="-4.830717">
        <ele>1378.0</ele>
        <time>2013-07-02T12:42:44Z</time>
      </trkpt>
      <trkpt lat="40.278817" lon="-4.830683">
        <ele>1376.0</ele>
        <time>2013-07-02T12:42:45Z</time>
      </trkpt>
      <trkpt lat="40.278933" lon="-4.830633">
        <ele>1372.0</ele>
        <time>2013-07-02T12:42:46Z</time>
      </trkpt>
      <trkpt lat="40.279050" lon="-4.830617">
        <ele>1369.0</ele>
        <time>2013-07-02T12:42:47Z</time>
      </trkpt>
      <trkpt lat="40.279183" lon="-4.830600">
        <ele>1366.0</ele>
        <time>2013-07-02T12:42:48Z</time>
      </trkpt>
      <trkpt lat="40.279300" lon="-4.830600">
        <ele>1363.0</ele>
        <time>2013-07-02T12:42:49Z</time>
      </trkpt>
      <trkpt lat="40.279417" lon="-4.830600">
        <ele>1361.0</ele>
        <time>2013-07-02T12:42:50Z</time>
      </trkpt>
      <trkpt lat="40.279533" lon="-4.830583">
        <ele>1358.0</ele>
        <time>2013-07-02T12:42:51Z</time>
      </trkpt>
      <trkpt lat="40.279667" lon="-4.830583">
        <ele>1355.0</ele>
        <time>2013-07-02T12:42:52Z</time>
      </trkpt>
      <trkpt lat="40.279800" lon="-4.830583">
        <ele>1352.0</ele>
        <time>2013-07-02T12:42:53Z</time>
      </trkpt>
      <trkpt lat="40.279933" lon="-4.830583">
        <ele>1350.0</ele>
        <time>2013-07-02T12:42:54Z</time>
      </trkpt>
      <trkpt lat="40.280050" lon="-4.830600">
        <ele>1349.0</ele>
        <time>2013-07-02T12:42:55Z</time>
      </trkpt>
      <trkpt lat="40.280167" lon="-4.830600">
        <ele>1348.0</ele>
        <time>2013-07-02T12:42:56Z</time>
      </trkpt>
      <trkpt lat="40.280267" lon="-4.830583">
        <ele>1346.0</ele>
        <time>2013-07-02T12:42:57Z</time>
      </trkpt>
      <trkpt lat="40.280383" lon="-4.830583">
        <ele>1344.0</ele>
        <time>2013-07-02T12:42:58Z</time>
      </trkpt>
      <trkpt lat="40.280500" lon="-4.830583">
        <ele>1341.0</ele>
        <time>2013-07-02T12:42:59Z</time>
      </trkpt>
      <trkpt lat="40.280633" lon="-4.830583">
        <ele>1338.0</ele>
        <time>2013-07-02T12:43:00Z</time>
      </trkpt>
      <trkpt lat="40.280767" lon="-4.830583">
        <ele>1336.0</ele>
        <time>2013-07-02T12:43:01Z</time>
      </trkpt>
      <trkpt lat="40.280900" lon="-4.830567">
        <ele>1336.0</ele>
        <time>2013-07-02T12:43:02Z</time>
      </trkpt>
      <trkpt lat="40.281017" lon="-4.830533">
        <ele>1335.0</ele>
        <time>2013-07-02T12:43:03Z</time>
      </trkpt>
      <trkpt lat="40.281133" lon="-4.830500">
        <ele>1334.0</ele>
        <time>2013-07-02T12:43:04Z</time>
      </trkpt>
      <trkpt lat="40.281233" lon="-4.830483">
        <ele>1332.0</ele>
        <time>2013-07-02T12:43:05Z</time>
      </trkpt>
      <trkpt lat="40.281350" lon="-4.830467">
        <ele>1329.0</ele>
        <time>2013-07-02T12:43:06Z</time>
      </trkpt>
      <trkpt lat="40.281483" lon="-4.830433">
        <ele>1326.0</ele>
        <time>2013-07-02T12:43:07Z</time>
      </trkpt>
      <trkpt lat="40.281617" lon="-4.830417">
        <ele>1323.0</ele>
        <time>2013-07-02T12:43:08Z</time>
      </trkpt>
      <trkpt lat="40.281750" lon="-4.830400">
        <ele>1321.0</ele>
        <time>2013-07-02T12:43:09Z</time>
      </trkpt>
      <trkpt lat="40.281867" lon="-4.830383">
        <ele>1318.0</ele>
        <time>2013-07-02T12:43:10Z</time>
      </trkpt>
      <trkpt lat="40.282000" lon="-4.830383">
        <ele>1316.0</ele>
        <time>2013-07-02T12:43:11Z</time>
      </trkpt>
      <trkpt lat="40.282117" lon="-4.830367">
        <ele>1315.0</ele>
        <time>2013-07-02T12:43:12Z</time>
      </trkpt>
      <trkpt lat="40.282233" lon="-4.830350">
        <ele>1313.0</ele>
        <time>2013-07-02T12:43:13Z</time>
      </trkpt>
      <trkpt lat="40.282367" lon="-4.830350">
        <ele>1312.0</ele>
        <time>2013-07-02T12:43:14Z</time>
      </trkpt>
      <trkpt lat="40.282483" lon="-4.830333">
        <ele>1312.0</ele>
        <time>2013-07-02T12:43:15Z</time>
      </trkpt>
      <trkpt lat="40.282617" lon="-4.830317">
        <ele>1311.0</ele>
        <time>2013-07-02T12:43:16Z</time>
      </trkpt>
      <trkpt lat="40.282733" lon="-4.830283">
        <ele>1310.0</ele>
        <time>2013-07-02T12:43:17Z</time>
      </trkpt>
      <trkpt lat="40.282867" lon="-4.830250">
        <ele>1309.0</ele>
        <time>2013-07-02T12:43:18Z</time>
      </trkpt>
      <trkpt lat="40.282983" lon="-4.830217">
        <ele>1307.0</ele>
        <time>2013-07-02T12:43:19Z</time>
      </trkpt>
      <trkpt lat="40.283117" lon="-4.830183">
        <ele>1306.0</ele>
        <time>2013-07-02T12:43:20Z</time>
      </trkpt>
      <trkpt lat="40.283250" lon="-4.830150">
        <ele>1304.0</ele>
        <time>2013-07-02T12:43:21Z</time>
      </trkpt>
      <trkpt lat="40.283383" lon="-4.830100">
        <ele>1302.0</ele>
        <time>2013-07-02T12:43:22Z</time>
      </trkpt>
      <trkpt lat="40.283533" lon="-4.830050">
        <ele>1301.0</ele>
        <time>2013-07-02T12:43:23Z</time>
      </trkpt>
      <trkpt lat="40.283667" lon="-4.830017">
        <ele>1300.0</ele>
        <time>2013-07-02T12:43:24Z</time>
      </trkpt>
      <trkpt lat="40.283800" lon="-4.830000">
        <ele>1300.0</ele>
        <time>2013-07-02T12:43:25Z</time>
      </trkpt>
      <trkpt lat="40.283933" lon="-4.829967">
        <ele>1299.0</ele>
        <time>2013-07-02T12:43:26Z</time>
      </trkpt>
      <trkpt lat="40.284067" lon="-4.829933">
        <ele>1298.0</ele>
        <time>2013-07-02T12:43:27Z</time>
      </trkpt>
      <trkpt lat="40.284200" lon="-4.829867">
        <ele>1298.0</ele>
        <time>2013-07-02T12:43:28Z</time>
      </trkpt>
      <trkpt lat="40.284333" lon="-4.829817">
        <ele>1298.0</ele>
        <time>2013-07-02T12:43:29Z</time>
      </trkpt>
      <trkpt lat="40.284450" lon="-4.829750">
        <ele>1299.0</ele>
        <time>2013-07-02T12:43:30Z</time>
      </trkpt>
      <trkpt lat="40.284583" lon="-4.829700">
        <ele>1299.0</ele>
        <time>2013-07-02T12:43:31Z</time>
      </trkpt>
      <trkpt lat="40.284700" lon="-4.829667">
        <ele>1300.0</ele>
        <time>2013-07-02T12:43:32Z</time>
      </trkpt>
      <trkpt lat="40.284817" lon="-4.829633">
        <ele>1300.0</ele>
        <time>2013-07-02T12:43:33Z</time>
      </trkpt>
      <trkpt lat="40.284950" lon="-4.829617">
        <ele>1301.0</ele>
        <time>2013-07-02T12:43:34Z</time>
      </trkpt>
      <trkpt lat="40.285067" lon="-4.829600">
        <ele>1301.0</ele>
        <time>2013-07-02T12:43:35Z</time>
      </trkpt>
      <trkpt lat="40.285183" lon="-4.829583">
        <ele>1302.0</ele>
        <time>2013-07-02T12:43:36Z</time>
      </trkpt>
      <trkpt lat="40.285300" lon="-4.829567">
        <ele>1302.0</ele>
        <time>2013-07-02T12:43:37Z</time>
      </trkpt>
      <trkpt lat="40.285433" lon="-4.829567">
        <ele>1302.0</ele>
        <time>2013-07-02T12:43:38Z</time>
      </trkpt>
      <trkpt lat="40.285550" lon="-4.829550">
        <ele>1302.0</ele>
        <time>2013-07-02T12:43:39Z</time>
      </trkpt>
      <trkpt lat="40.285683" lon="-4.829533">
        <ele>1303.0</ele>
        <time>2013-07-02T12:43:40Z</time>
      </trkpt>
      <trkpt lat="40.285800" lon="-4.829500">
        <ele>1305.0</ele>
        <time>2013-07-02T12:43:41Z</time>
      </trkpt>
      <trkpt lat="40.285933" lon="-4.829483">
        <ele>1306.0</ele>
        <time>2013-07-02T12:43:42Z</time>
      </trkpt>
      <trkpt lat="40.286033" lon="-4.829467">
        <ele>1307.0</ele>
        <time>2013-07-02T12:43:43Z</time>
      </trkpt>
      <trkpt lat="40.286150" lon="-4.829433">
        <ele>1307.0</ele>
        <time>2013-07-02T12:43:44Z</time>
      </trkpt>
      <trkpt lat="40.286267" lon="-4.829417">
        <ele>1306.0</ele>
        <time>2013-07-02T12:43:45Z</time>
      </trkpt>
      <trkpt lat="40.286383" lon="-4.829383">
        <ele>1306.0</ele>
        <time>2013-07-02T12:43:46Z</time>
      </trkpt>
      <trkpt lat="40.286500" lon="-4.829333">
        <ele>1306.0</ele>
        <time>2013-07-02T12:43:47Z</time>
      </trkpt>
      <trkpt lat="40.286617" lon="-4.829267">
        <ele>1307.0</ele>
        <time>2013-07-02T12:43:48Z</time>
      </trkpt>
      <trkpt lat="40.286717" lon="-4.829200">
        <ele>1307.0</ele>
        <time>2013-07-02T12:43:49Z</time>
      </trkpt>
      <trkpt lat="40.286833" lon="-4.829117">
        <ele>1307.0</ele>
        <time>2013-07-02T12:43:50Z</time>
      </trkpt>
      <trkpt lat="40.286950" lon="-4.829017">
        <ele>1308.0</ele>
        <time>2013-07-02T12:43:51Z</time>
      </trkpt>
      <trkpt lat="40.287050" lon="-4.828933">
        <ele>1309.0</ele>
        <time>2013-07-02T12:43:52Z</time>
      </trkpt>
      <trkpt lat="40.287150" lon="-4.828833">
        <ele>1310.0</ele>
        <time>2013-07-02T12:43:53Z</time>
      </trkpt>
      <trkpt lat="40.287267" lon="-4.828733">
        <ele>1313.0</ele>
        <time>2013-07-02T12:43:54Z</time>
      </trkpt>
      <trkpt lat="40.287367" lon="-4.828650">
        <ele>1317.0</ele>
        <time>2013-07-02T12:43:55Z</time>
      </trkpt>
      <trkpt lat="40.287450" lon="-4.828583">
        <ele>1322.0</ele>
        <time>2013-07-02T12:43:56Z</time>
      </trkpt>
      <trkpt lat="40.287517" lon="-4.828533">
        <ele>1326.0</ele>
        <time>2013-07-02T12:43:57Z</time>
      </trkpt>
      <trkpt lat="40.287583" lon="-4.828483">
        <ele>1328.0</ele>
        <time>2013-07-02T12:43:58Z</time>
      </trkpt>
      <trkpt lat="40.287667" lon="-4.828417">
        <ele>1330.0</ele>
        <time>2013-07-02T12:43:59Z</time>
      </trkpt>
      <trkpt lat="40.287750" lon="-4.828350">
        <ele>1331.0</ele>
        <time>2013-07-02T12:44:00Z</time>
      </trkpt>
      <trkpt lat="40.287817" lon="-4.828250">
        <ele>1334.0</ele>
        <time>2013-07-02T12:44:01Z</time>
      </trkpt>
      <trkpt lat="40.287850" lon="-4.828150">
        <ele>1337.0</ele>
        <time>2013-07-02T12:44:02Z</time>
      </trkpt>
      <trkpt lat="40.287850" lon="-4.828033">
        <ele>1340.0</ele>
        <time>2013-07-02T12:44:03Z</time>
      </trkpt>
      <trkpt lat="40.287833" lon="-4.827917">
        <ele>1340.0</ele>
        <time>2013-07-02T12:44:04Z</time>
      </trkpt>
      <trkpt lat="40.287800" lon="-4.827817">
        <ele>1339.0</ele>
        <time>2013-07-02T12:44:05Z</time>
      </trkpt>
      <trkpt lat="40.287767" lon="-4.827733">
        <ele>1340.0</ele>
        <time>2013-07-02T12:44:06Z</time>
      </trkpt>
      <trkpt lat="40.287733" lon="-4.827667">
        <ele>1341.0</ele>
        <time>2013-07-02T12:44:07Z</time>
      </trkpt>
      <trkpt lat="40.287683" lon="-4.827633">
        <ele>1342.0</ele>
        <time>2013-07-02T12:44:08Z</time>
      </trkpt>
      <trkpt lat="40.287633" lon="-4.827600">
        <ele>1344.0</ele>
        <time>2013-07-02T12:44:09Z</time>
      </trkpt>
      <trkpt lat="40.287583" lon="-4.827600">
        <ele>1347.0</ele>
        <time>2013-07-02T12:44:10Z</time>
      </trkpt>
      <trkpt lat="40.287550" lon="-4.827600">
        <ele>1349.0</ele>
        <time>2013-07-02T12:44:11Z</time>
      </trkpt>
      <trkpt lat="40.287517" lon="-4.827583">
        <ele>1351.0</ele>
        <time>2013-07-02T12:44:12Z</time>
      </trkpt>
      <trkpt lat="40.287483" lon="-4.827550">
        <ele>1353.0</ele>
        <time>2013-07-02T12:44:13Z</time>
      </trkpt>
      <trkpt lat="40.287450" lon="-4.827500">
        <ele>1354.0</ele>
        <time>2013-07-02T12:44:14Z</time>
      </trkpt>
      <trkpt lat="40.287417" lon="-4.827433">
        <ele>1355.0</ele>
        <time>2013-07-02T12:44:15Z</time>
      </trkpt>
      <trkpt lat="40.287383" lon="-4.827400">
        <ele>1355.0</ele>
        <time>2013-07-02T12:44:16Z</time>
      </trkpt>
      <trkpt lat="40.287367" lon="-4.827417">
        <ele>1355.0</ele>
        <time>2013-07-02T12:44:17Z</time>
      </trkpt>
      <trkpt lat="40.287367" lon="-4.827483">
        <ele>1355.0</ele>
        <time>2013-07-02T12:44:18Z</time>
      </trkpt>
      <trkpt lat="40.287383" lon="-4.827550">
        <ele>1355.0</ele>
        <time>2013-07-02T12:44:19Z</time>
      </trkpt>
      <trkpt lat="40.287417" lon="-4.827633">
        <ele>1355.0</ele>
        <time>2013-07-02T12:44:20Z</time>
      </trkpt>
      <trkpt lat="40.287483" lon="-4.827700">
        <ele>1357.0</ele>
        <time>2013-07-02T12:44:21Z</time>
      </trkpt>
      <trkpt lat="40.287550" lon="-4.827783">
        <ele>1358.0</ele>
        <time>2013-07-02T12:44:22Z</time>
      </trkpt>
      <trkpt lat="40.287600" lon="-4.827833">
        <ele>1359.0</ele>
        <time>2013-07-02T12:44:23Z</time>
      </trkpt>
      <trkpt lat="40.287633" lon="-4.827883">
        <ele>1360.0</ele>
        <time>2013-07-02T12:44:24Z</time>
      </trkpt>
      <trkpt lat="40.287683" lon="-4.827917">
        <ele>1361.0</ele>
        <time>2013-07-02T12:44:25Z</time>
      </trkpt>
      <trkpt lat="40.287750" lon="-4.827950">
        <ele>1359.0</ele>
        <time>2013-07-02T12:44:26Z</time>
      </trkpt>
      <trkpt lat="40.287833" lon="-4.828000">
        <ele>1358.0</ele>
        <time>2013-07-02T12:44:27Z</time>
      </trkpt>
      <trkpt lat="40.287933" lon="-4.828033">
        <ele>1358.0</ele>
        <time>2013-07-02T12:44:28Z</time>
      </trkpt>
      <trkpt lat="40.288033" lon="-4.828033">
        <ele>1359.0</ele>
        <time>2013-07-02T12:44:29Z</time>
      </trkpt>
      <trkpt lat="40.288133" lon="-4.828017">
        <ele>1360.0</ele>
        <time>2013-07-02T12:44:30Z</time>
      </trkpt>
      <trkpt lat="40.288233" lon="-4.827967">
        <ele>1360.0</ele>
        <time>2013-07-02T12:44:31Z</time>
      </trkpt>
      <trkpt lat="40.288333" lon="-4.827883">
        <ele>1361.0</ele>
        <time>2013-07-02T12:44:32Z</time>
      </trkpt>
      <trkpt lat="40.288433" lon="-4.827783">
        <ele>1362.0</ele>
        <time>2013-07-02T12:44:33Z</time>
      </trkpt>
      <trkpt lat="40.288533" lon="-4.827683">
        <ele>1365.0</ele>
        <time>2013-07-02T12:44:34Z</time>
      </trkpt>
      <trkpt lat="40.288617" lon="-4.827583">
        <ele>1368.0</ele>
        <time>2013-07-02T12:44:35Z</time>
      </trkpt>
      <trkpt lat="40.288683" lon="-4.827500">
        <ele>1369.0</ele>
        <time>2013-07-02T12:44:36Z</time>
      </trkpt>
      <trkpt lat="40.288767" lon="-4.827400">
        <ele>1371.0</ele>
        <time>2013-07-02T12:44:37Z</time>
      </trkpt>
      <trkpt lat="40.288850" lon="-4.827283">
        <ele>1374.0</ele>
        <time>2013-07-02T12:44:38Z</time>
      </trkpt>
      <trkpt lat="40.288917" lon="-4.827150">
        <ele>1378.0</ele>
        <time>2013-07-02T12:44:39Z</time>
      </trkpt>
      <trkpt lat="40.288967" lon="-4.827017">
        <ele>1382.0</ele>
        <time>2013-07-02T12:44:40Z</time>
      </trkpt>
      <trkpt lat="40.289000" lon="-4.826900">
        <ele>1386.0</ele>
        <time>2013-07-02T12:44:41Z</time>
      </trkpt>
      <trkpt lat="40.289000" lon="-4.826767">
        <ele>1389.0</ele>
        <time>2013-07-02T12:44:42Z</time>
      </trkpt>
      <trkpt lat="40.288983" lon="-4.826667">
        <ele>1391.0</ele>
        <time>2013-07-02T12:44:43Z</time>
      </trkpt>
      <trkpt lat="40.288967" lon="-4.826583">
        <ele>1392.0</ele>
        <time>2013-07-02T12:44:44Z</time>
      </trkpt>
      <trkpt lat="40.288900" lon="-4.826500">
        <ele>1393.0</ele>
        <time>2013-07-02T12:44:45Z</time>
      </trkpt>
      <trkpt lat="40.288833" lon="-4.826450">
        <ele>1395.0</ele>
        <time>2013-07-02T12:44:46Z</time>
      </trkpt>
      <trkpt lat="40.288767" lon="-4.826433">
        <ele>1397.0</ele>
        <time>2013-07-02T12:44:47Z</time>
      </trkpt>
      <trkpt lat="40.288717" lon="-4.826467">
        <ele>1400.0</ele>
        <time>2013-07-02T12:44:48Z</time>
      </trkpt>
      <trkpt lat="40.288700" lon="-4.826517">
        <ele>1404.0</ele>
        <time>2013-07-02T12:44:49Z</time>
      </trkpt>
      <trkpt lat="40.288717" lon="-4.826567">
        <ele>1407.0</ele>
        <time>2013-07-02T12:44:50Z</time>
      </trkpt>
      <trkpt lat="40.288767" lon="-4.826617">
        <ele>1410.0</ele>
        <time>2013-07-02T12:44:51Z</time>
      </trkpt>
      <trkpt lat="40.288817" lon="-4.826650">
        <ele>1412.0</ele>
        <time>2013-07-02T12:44:52Z</time>
      </trkpt>
      <trkpt lat="40.288900" lon="-4.826667">
        <ele>1415.0</ele>
        <time>2013-07-02T12:44:53Z</time>
      </trkpt>
      <trkpt lat="40.289000" lon="-4.826633">
        <ele>1417.0</ele>
        <time>2013-07-02T12:44:54Z</time>
      </trkpt>
      <trkpt lat="40.289083" lon="-4.826583">
        <ele>1418.0</ele>
        <time>2013-07-02T12:44:55Z</time>
      </trkpt>
      <trkpt lat="40.289167" lon="-4.826467">
        <ele>1421.0</ele>
        <time>2013-07-02T12:44:56Z</time>
      </trkpt>
      <trkpt lat="40.289217" lon="-4.826350">
        <ele>1424.0</ele>
        <time>2013-07-02T12:44:57Z</time>
      </trkpt>
      <trkpt lat="40.289233" lon="-4.826233">
        <ele>1428.0</ele>
        <time>2013-07-02T12:44:58Z</time>
      </trkpt>
      <trkpt lat="40.289217" lon="-4.826117">
        <ele>1431.0</ele>
        <time>2013-07-02T12:44:59Z</time>
      </trkpt>
      <trkpt lat="40.289183" lon="-4.826017">
        <ele>1434.0</ele>
        <time>2013-07-02T12:45:00Z</time>
      </trkpt>
      <trkpt lat="40.289133" lon="-4.825933">
        <ele>1438.0</ele>
        <time>2013-07-02T12:45:01Z</time>
      </trkpt>
      <trkpt lat="40.289067" lon="-4.825867">
        <ele>1442.0</ele>
        <time>2013-07-02T12:45:02Z</time>
      </trkpt>
      <trkpt lat="40.289017" lon="-4.825833">
        <ele>1447.0</ele>
        <time>2013-07-02T12:45:03Z</time>
      </trkpt>
      <trkpt lat="40.288983" lon="-4.825817">
        <ele>1451.0</ele>
        <time>2013-07-02T12:45:04Z</time>
      </trkpt>
      <trkpt lat="40.288950" lon="-4.825817">
        <ele>1455.0</ele>
        <time>2013-07-02T12:45:05Z</time>
      </trkpt>
      <trkpt lat="40.288933" lon="-4.825850">
        <ele>1457.0</ele>
        <time>2013-07-02T12:45:06Z</time>
      </trkpt>
      <trkpt lat="40.288917" lon="-4.825883">
        <ele>1459.0</ele>
        <time>2013-07-02T12:45:07Z</time>
      </trkpt>
      <trkpt lat="40.288933" lon="-4.825933">
        <ele>1460.0</ele>
        <time>2013-07-02T12:45:08Z</time>
      </trkpt>
      <trkpt lat="40.288983" lon="-4.826000">
        <ele>1462.0</ele>
        <time>2013-07-02T12:45:09Z</time>
      </trkpt>
      <trkpt lat="40.289050" lon="-4.826050">
        <ele>1463.0</ele>
        <time>2013-07-02T12:45:10Z</time>
      </trkpt>
      <trkpt lat="40.289167" lon="-4.826033">
        <ele>1464.0</ele>
        <time>2013-07-02T12:45:11Z</time>
      </trkpt>
      <trkpt lat="40.289250" lon="-4.825967">
        <ele>1466.0</ele>
        <time>2013-07-02T12:45:12Z</time>
      </trkpt>
      <trkpt lat="40.289333" lon="-4.825833">
        <ele>1467.0</ele>
        <time>2013-07-02T12:45:13Z</time>
      </trkpt>
      <trkpt lat="40.289400" lon="-4.825700">
        <ele>1472.0</ele>
        <time>2013-07-02T12:45:14Z</time>
      </trkpt>
      <trkpt lat="40.289450" lon="-4.825583">
        <ele>1478.0</ele>
        <time>2013-07-02T12:45:15Z</time>
      </trkpt>
      <trkpt lat="40.289517" lon="-4.825483">
        <ele>1483.0</ele>
        <time>2013-07-02T12:45:16Z</time>
      </trkpt>
      <trkpt lat="40.289567" lon="-4.825367">
        <ele>1486.0</ele>
        <time>2013-07-02T12:45:17Z</time>
      </trkpt>
      <trkpt lat="40.289600" lon="-4.825250">
        <ele>1490.0</ele>
        <time>2013-07-02T12:45:18Z</time>
      </trkpt>
      <trkpt lat="40.289633" lon="-4.825100">
        <ele>1493.0</ele>
        <time>2013-07-02T12:45:19Z</time>
      </trkpt>
      <trkpt lat="40.289667" lon="-4.824967">
        <ele>1496.0</ele>
        <time>2013-07-02T12:45:20Z</time>
      </trkpt>
      <trkpt lat="40.289667" lon="-4.824833">
        <ele>1498.0</ele>
        <time>2013-07-02T12:45:21Z</time>
      </trkpt>
      <trkpt lat="40.289633" lon="-4.824733">
        <ele>1500.0</ele>
        <time>2013-07-02T12:45:22Z</time>
      </trkpt>
      <trkpt lat="40.289567" lon="-4.824700">
        <ele>1501.0</ele>
        <time>2013-07-02T12:45:23Z</time>
      </trkpt>
      <trkpt lat="40.289517" lon="-4.824717">
        <ele>1502.0</ele>
        <time>2013-07-02T12:45:24Z</time>
      </trkpt>
      <trkpt lat="40.289500" lon="-4.824767">
        <ele>1504.0</ele>
        <time>2013-07-02T12:45:25Z</time>
      </trkpt>
      <trkpt lat="40.289500" lon="-4.824833">
        <ele>1506.0</ele>
        <time>2013-07-02T12:45:26Z</time>
      </trkpt>
      <trkpt lat="40.289517" lon="-4.824883">
        <ele>1508.0</ele>
        <time>2013-07-02T12:45:27Z</time>
      </trkpt>
      <trkpt lat="40.289550" lon="-4.824933">
        <ele>1511.0</ele>
        <time>2013-07-02T12:45:28Z</time>
      </trkpt>
      <trkpt lat="40.289600" lon="-4.824983">
        <ele>1513.0</ele>
        <time>2013-07-02T12:45:29Z</time>
      </trkpt>
      <trkpt lat="40.289633" lon="-4.825033">
        <ele>1514.0</ele>
        <time>2013-07-02T12:45:30Z</time>
      </trkpt>
      <trkpt lat="40.289700" lon="-4.825067">
        <ele>1516.0</ele>
        <time>2013-07-02T12:45:31Z</time>
      </trkpt>
      <trkpt lat="40.289767" lon="-4.825117">
        <ele>1519.0</ele>
        <time>2013-07-02T12:45:32Z</time>
      </trkpt>
      <trkpt lat="40.289833" lon="-4.825133">
        <ele>1522.0</ele>
        <time>2013-07-02T12:45:33Z</time>
      </trkpt>
      <trkpt lat="40.289917" lon="-4.825150">
        <ele>1526.0</ele>
        <time>2013-07-02T12:45:34Z</time>
      </trkpt>
      <trkpt lat="40.289983" lon="-4.825133">
        <ele>1531.0</ele>
        <time>2013-07-02T12:45:35Z</time>
      </trkpt>
      <trkpt lat="40.290050" lon="-4.825083">
        <ele>1534.0</ele>
        <time>2013-07-02T12:45:36Z</time>
      </trkpt>
      <trkpt lat="40.290117" lon="-4.825050">
        <ele>1536.0</ele>
        <time>2013-07-02T12:45:37Z</time>
      </trkpt>
      <trkpt lat="40.290200" lon="-4.825000">
        <ele>1538.0</ele>
        <time>2013-07-02T12:45:38Z</time>
      </trkpt>
      <trkpt lat="40.290283" lon="-4.824950">
        <ele>1541.0</ele>
        <time>2013-07-02T12:45:39Z</time>
      </trkpt>
      <trkpt lat="40.290350" lon="-4.824900">
        <ele>1544.0</ele>
        <time>2013-07-02T12:45:40Z</time>
      </trkpt>
      <trkpt lat="40.290433" lon="-4.824833">
        <ele>1548.0</ele>
        <time>2013-07-02T12:45:41Z</time>
      </trkpt>
      <trkpt lat="40.290500" lon="-4.824767">
        <ele>1552.0</ele>
        <time>2013-07-02T12:45:42Z</time>
      </trkpt>
      <trkpt lat="40.290550" lon="-4.824667">
        <ele>1555.0</ele>
        <time>2013-07-02T12:45:43Z</time>
      </trkpt>
      <trkpt lat="40.290583" lon="-4.824550">
        <ele>1558.0</ele>
        <time>2013-07-02T12:45:44Z</time>
      </trkpt>
      <trkpt lat="40.290583" lon="-4.824417">
        <ele>1560.0</ele>
        <time>2013-07-02T12:45:45Z</time>
      </trkpt>
      <trkpt lat="40.290583" lon="-4.824300">
        <ele>1561.0</ele>
        <time>2013-07-02T12:45:46Z</time>
      </trkpt>
      <trkpt lat="40.290567" lon="-4.824183">
        <ele>1564.0</ele>
        <time>2013-07-02T12:45:47Z</time>
      </trkpt>
      <trkpt lat="40.290550" lon="-4.824067">
        <ele>1567.0</ele>
        <time>2013-07-02T12:45:48Z</time>
      </trkpt>
      <trkpt lat="40.290533" lon="-4.823967">
        <ele>1570.0</ele>
        <time>2013-07-02T12:45:49Z</time>
      </trkpt>
      <trkpt lat="40.290517" lon="-4.823900">
        <ele>1572.0</ele>
        <time>2013-07-02T12:45:50Z</time>
      </trkpt>
      <trkpt lat="40.290483" lon="-4.823850">
        <ele>1574.0</ele>
        <time>2013-07-02T12:45:51Z</time>
      </trkpt>
      <trkpt lat="40.290467" lon="-4.823833">
        <ele>1576.0</ele>
        <time>2013-07-02T12:45:52Z</time>
      </trkpt>
      <trkpt lat="40.290433" lon="-4.823817">
        <ele>1577.0</ele>
        <time>2013-07-02T12:45:53Z</time>
      </trkpt>
      <trkpt lat="40.290417" lon="-4.823833">
        <ele>1577.0</ele>
        <time>2013-07-02T12:45:54Z</time>
      </trkpt>
      <trkpt lat="40.290400" lon="-4.823867">
        <ele>1577.0</ele>
        <time>2013-07-02T12:45:55Z</time>
      </trkpt>
      <trkpt lat="40.290383" lon="-4.823917">
        <ele>1578.0</ele>
        <time>2013-07-02T12:45:56Z</time>
      </trkpt>
      <trkpt lat="40.290367" lon="-4.823983">
        <ele>1579.0</ele>
        <time>2013-07-02T12:45:57Z</time>
      </trkpt>
      <trkpt lat="40.290383" lon="-4.824050">
        <ele>1580.0</ele>
        <time>2013-07-02T12:45:58Z</time>
      </trkpt>
      <trkpt lat="40.290433" lon="-4.824117">
        <ele>1581.0</ele>
        <time>2013-07-02T12:45:59Z</time>
      </trkpt>
      <trkpt lat="40.290500" lon="-4.824167">
        <ele>1582.0</ele>
        <time>2013-07-02T12:46:00Z</time>
      </trkpt>
      <trkpt lat="40.290583" lon="-4.824217">
        <ele>1584.0</ele>
        <time>2013-07-02T12:46:01Z</time>
      </trkpt>
      <trkpt lat="40.290667" lon="-4.824267">
        <ele>1586.0</ele>
        <time>2013-07-02T12:46:02Z</time>
      </trkpt>
      <trkpt lat="40.290767" lon="-4.824283">
        <ele>1589.0</ele>
        <time>2013-07-02T12:46:03Z</time>
      </trkpt>
      <trkpt lat="40.290850" lon="-4.824283">
        <ele>1591.0</ele>
        <time>2013-07-02T12:46:04Z</time>
      </trkpt>
      <trkpt lat="40.290950" lon="-4.824250">
        <ele>1592.0</ele>
        <time>2013-07-02T12:46:05Z</time>
      </trkpt>
      <trkpt lat="40.291033" lon="-4.824200">
        <ele>1593.0</ele>
        <time>2013-07-02T12:46:06Z</time>
      </trkpt>
      <trkpt lat="40.291133" lon="-4.824133">
        <ele>1595.0</ele>
        <time>2013-07-02T12:46:07Z</time>
      </trkpt>
      <trkpt lat="40.291217" lon="-4.824033">
        <ele>1597.0</ele>
        <time>2013-07-02T12:46:08Z</time>
      </trkpt>
      <trkpt lat="40.291300" lon="-4.823917">
        <ele>1599.0</ele>
        <time>2013-07-02T12:46:09Z</time>
      </trkpt>
      <trkpt lat="40.291350" lon="-4.823817">
        <ele>1603.0</ele>
        <time>2013-07-02T12:46:10Z</time>
      </trkpt>
      <trkpt lat="40.291400" lon="-4.823717">
        <ele>1606.0</ele>
        <time>2013-07-02T12:46:11Z</time>
      </trkpt>
      <trkpt lat="40.291450" lon="-4.823633">
        <ele>1609.0</ele>
        <time>2013-07-02T12:46:12Z</time>
      </trkpt>
      <trkpt lat="40.291500" lon="-4.823550">
        <ele>1610.0</ele>
        <time>2013-07-02T12:46:13Z</time>
      </trkpt>
      <trkpt lat="40.291567" lon="-4.823450">
        <ele>1611.0</ele>
        <time>2013-07-02T12:46:14Z</time>
      </trkpt>
      <trkpt lat="40.291617" lon="-4.823333">
        <ele>1612.0</ele>
        <time>2013-07-02T12:46:15Z</time>
      </trkpt>
      <trkpt lat="40.291633" lon="-4.823200">
        <ele>1613.0</ele>
        <time>2013-07-02T12:46:16Z</time>
      </trkpt>
      <trkpt lat="40.291650" lon="-4.823083">
        <ele>1614.0</ele>
        <time>2013-07-02T12:46:17Z</time>
      </trkpt>
      <trkpt lat="40.291667" lon="-4.822967">
        <ele>1616.0</ele>
        <time>2013-07-02T12:46:18Z</time>
      </trkpt>
      <trkpt lat="40.291683" lon="-4.822850">
        <ele>1619.0</ele>
        <time>2013-07-02T12:46:19Z</time>
      </trkpt>
      <trkpt lat="40.291700" lon="-4.822750">
        <ele>1621.0</ele>
        <time>2013-07-02T12:46:20Z</time>
      </trkpt>
      <trkpt lat="40.291733" lon="-4.822633">
        <ele>1622.0</ele>
        <time>2013-07-02T12:46:21Z</time>
      </trkpt>
      <trkpt lat="40.291733" lon="-4.822517">
        <ele>1624.0</ele>
        <time>2013-07-02T12:46:22Z</time>
      </trkpt>
      <trkpt lat="40.291733" lon="-4.822433">
        <ele>1625.0</ele>
        <time>2013-07-02T12:46:23Z</time>
      </trkpt>
      <trkpt lat="40.291717" lon="-4.822350">
        <ele>1627.0</ele>
        <time>2013-07-02T12:46:24Z</time>
      </trkpt>
      <trkpt lat="40.291700" lon="-4.822300">
        <ele>1629.0</ele>
        <time>2013-07-02T12:46:25Z</time>
      </trkpt>
      <trkpt lat="40.291683" lon="-4.822267">
        <ele>1630.0</ele>
        <time>2013-07-02T12:46:26Z</time>
      </trkpt>
      <trkpt lat="40.291667" lon="-4.822250">
        <ele>1632.0</ele>
        <time>2013-07-02T12:46:27Z</time>
      </trkpt>
      <trkpt lat="40.291650" lon="-4.822217">
        <ele>1634.0</ele>
        <time>2013-07-02T12:46:28Z</time>
      </trkpt>
      <trkpt lat="40.291633" lon="-4.822200">
        <ele>1636.0</ele>
        <time>2013-07-02T12:46:29Z</time>
      </trkpt>
      <trkpt lat="40.291600" lon="-4.822183">
        <ele>1638.0</ele>
        <time>2013-07-02T12:46:30Z</time>
      </trkpt>
      <trkpt lat="40.291583" lon="-4.822183">
        <ele>1641.0</ele>
        <time>2013-07-02T12:46:31Z</time>
      </trkpt>
      <trkpt lat="40.291583" lon="-4.822183">
        <ele>1644.0</ele>
        <time>2013-07-02T12:46:32Z</time>
      </trkpt>
      <trkpt lat="40.291583" lon="-4.822183">
        <ele>1647.0</ele>
        <time>2013-07-02T12:46:33Z</time>
      </trkpt>
      <trkpt lat="40.291567" lon="-4.822200">
        <ele>1650.0</ele>
        <time>2013-07-02T12:46:34Z</time>
      </trkpt>
      <trkpt lat="40.291567" lon="-4.822200">
        <ele>1652.0</ele>
        <time>2013-07-02T12:46:35Z</time>
      </trkpt>
      <trkpt lat="40.291567" lon="-4.822217">
        <ele>1654.0</ele>
        <time>2013-07-02T12:46:36Z</time>
      </trkpt>
      <trkpt lat="40.291567" lon="-4.822267">
        <ele>1656.0</ele>
        <time>2013-07-02T12:46:37Z</time>
      </trkpt>
      <trkpt lat="40.291583" lon="-4.822317">
        <ele>1658.0</ele>
        <time>2013-07-02T12:46:38Z</time>
      </trkpt>
      <trkpt lat="40.291617" lon="-4.822383">
        <ele>1660.0</ele>
        <time>2013-07-02T12:46:39Z</time>
      </trkpt>
      <trkpt lat="40.291683" lon="-4.822433">
        <ele>1663.0</ele>
        <time>2013-07-02T12:46:40Z</time>
      </trkpt>
      <trkpt lat="40.291767" lon="-4.822467">
        <ele>1665.0</ele>
        <time>2013-07-02T12:46:41Z</time>
      </trkpt>
      <trkpt lat="40.291867" lon="-4.822500">
        <ele>1668.0</ele>
        <time>2013-07-02T12:46:42Z</time>
      </trkpt>
      <trkpt lat="40.291950" lon="-4.822517">
        <ele>1670.0</ele>
        <time>2013-07-02T12:46:43Z</time>
      </trkpt>
      <trkpt lat="40.292067" lon="-4.822500">
        <ele>1673.0</ele>
        <time>2013-07-02T12:46:44Z</time>
      </trkpt>
      <trkpt lat="40.292183" lon="-4.822467">
        <ele>1676.0</ele>
        <time>2013-07-02T12:46:45Z</time>
      </trkpt>
      <trkpt lat="40.292283" lon="-4.822417">
        <ele>1679.0</ele>
        <time>2013-07-02T12:46:46Z</time>
      </trkpt>
      <trkpt lat="40.292383" lon="-4.822333">
        <ele>1682.0</ele>
        <time>2013-07-02T12:46:47Z</time>
      </trkpt>
      <trkpt lat="40.292467" lon="-4.822233">
        <ele>1685.0</ele>
        <time>2013-07-02T12:46:48Z</time>
      </trkpt>
      <trkpt lat="40.292550" lon="-4.822117">
        <ele>1688.0</ele>
        <time>2013-07-02T12:46:49Z</time>
      </trkpt>
      <trkpt lat="40.292600" lon="-4.822000">
        <ele>1690.0</ele>
        <time>2013-07-02T12:46:50Z</time>
      </trkpt>
      <trkpt lat="40.292650" lon="-4.821867">
        <ele>1692.0</ele>
        <time>2013-07-02T12:46:51Z</time>
      </trkpt>
      <trkpt lat="40.292683" lon="-4.821733">
        <ele>1694.0</ele>
        <time>2013-07-02T12:46:52Z</time>
      </trkpt>
      <trkpt lat="40.292700" lon="-4.821583">
        <ele>1696.0</ele>
        <time>2013-07-02T12:46:53Z</time>
      </trkpt>
      <trkpt lat="40.292700" lon="-4.821450">
        <ele>1699.0</ele>
        <time>2013-07-02T12:46:54Z</time>
      </trkpt>
      <trkpt lat="40.292683" lon="-4.821333">
        <ele>1703.0</ele>
        <time>2013-07-02T12:46:55Z</time>
      </trkpt>
      <trkpt lat="40.292667" lon="-4.821233">
        <ele>1706.0</ele>
        <time>2013-07-02T12:46:56Z</time>
      </trkpt>
      <trkpt lat="40.292633" lon="-4.821150">
        <ele>1709.0</ele>
        <time>2013-07-02T12:46:57Z</time>
      </trkpt>
      <trkpt lat="40.292600" lon="-4.821067">
        <ele>1712.0</ele>
        <time>2013-07-02T12:46:58Z</time>
      </trkpt>
      <trkpt lat="40.292550" lon="-4.821000">
        <ele>1714.0</ele>
        <time>2013-07-02T12:46:59Z</time>
      </trkpt>
      <trkpt lat="40.292517" lon="-4.820983">
        <ele>1717.0</ele>
        <time>2013-07-02T12:47:00Z</time>
      </trkpt>
      <trkpt lat="40.292483" lon="-4.820967">
        <ele>1720.0</ele>
        <time>2013-07-02T12:47:01Z</time>
      </trkpt>
      <trkpt lat="40.292467" lon="-4.820967">
        <ele>1722.0</ele>
        <time>2013-07-02T12:47:02Z</time>
      </trkpt>
      <trkpt lat="40.292433" lon="-4.820967">
        <ele>1725.0</ele>
        <time>2013-07-02T12:47:03Z</time>
      </trkpt>
      <trkpt lat="40.292417" lon="-4.820967">
        <ele>1728.0</ele>
        <time>2013-07-02T12:47:04Z</time>
      </trkpt>
      <trkpt lat="40.292400" lon="-4.820983">
        <ele>1731.0</ele>
        <time>2013-07-02T12:47:05Z</time>
      </trkpt>
      <trkpt lat="40.292417" lon="-4.821017">
        <ele>1734.0</ele>
        <time>2013-07-02T12:47:06Z</time>
      </trkpt>
      <trkpt lat="40.292417" lon="-4.821067">
        <ele>1736.0</ele>
        <time>2013-07-02T12:47:07Z</time>
      </trkpt>
      <trkpt lat="40.292450" lon="-4.821100">
        <ele>1738.0</ele>
        <time>2013-07-02T12:47:08Z</time>
      </trkpt>
      <trkpt lat="40.292483" lon="-4.821133">
        <ele>1739.0</ele>
        <time>2013-07-02T12:47:09Z</time>
      </trkpt>
      <trkpt lat="40.292517" lon="-4.821167">
        <ele>1740.0</ele>
        <time>2013-07-02T12:47:10Z</time>
      </trkpt>
      <trkpt lat="40.292550" lon="-4.821233">
        <ele>1740.0</ele>
        <time>2013-07-02T12:47:11Z</time>
      </trkpt>
      <trkpt lat="40.292633" lon="-4.821283">
        <ele>1741.0</ele>
        <time>2013-07-02T12:47:12Z</time>
      </trkpt>
      <trkpt lat="40.292717" lon="-4.821300">
        <ele>1742.0</ele>
        <time>2013-07-02T12:47:13Z</time>
      </trkpt>
      <trkpt lat="40.292833" lon="-4.821317">
        <ele>1744.0</ele>
        <time>2013-07-02T12:47:14Z</time>
      </trkpt>
      <trkpt lat="40.292933" lon="-4.821317">
        <ele>1746.0</ele>
        <time>2013-07-02T12:47:15Z</time>
      </trkpt>
      <trkpt lat="40.293050" lon="-4.821300">
        <ele>1748.0</ele>
        <time>2013-07-02T12:47:16Z</time>
      </trkpt>
      <trkpt lat="40.293167" lon="-4.821267">
        <ele>1750.0</ele>
        <time>2013-07-02T12:47:17Z</time>
      </trkpt>
      <trkpt lat="40.293283" lon="-4.821217">
        <ele>1752.0</ele>
        <time>2013-07-02T12:47:18Z</time>
      </trkpt>
      <trkpt lat="40.293383" lon="-4.821133">
        <ele>1754.0</ele>
        <time>2013-07-02T12:47:19Z</time>
      </trkpt>
      <trkpt lat="40.293483" lon="-4.821050">
        <ele>1756.0</ele>
        <time>2013-07-02T12:47:20Z</time>
      </trkpt>
      <trkpt lat="40.293567" lon="-4.820933">
        <ele>1759.0</ele>
        <time>2013-07-02T12:47:21Z</time>
      </trkpt>
      <trkpt lat="40.293633" lon="-4.820817">
        <ele>1761.0</ele>
        <time>2013-07-02T12:47:22Z</time>
      </trkpt>
      <trkpt lat="40.293683" lon="-4.820667">
        <ele>1763.0</ele>
        <time>2013-07-02T12:47:23Z</time>
      </trkpt>
      <trkpt lat="40.293733" lon="-4.820533">
        <ele>1766.0</ele>
        <time>2013-07-02T12:47:24Z</time>
      </trkpt>
      <trkpt lat="40.293750" lon="-4.820400">
        <ele>1770.0</ele>
        <time>2013-07-02T12:47:25Z</time>
      </trkpt>
      <trkpt lat="40.293783" lon="-4.820283">
        <ele>1774.0</ele>
        <time>2013-07-02T12:47:26Z</time>
      </trkpt>
      <trkpt lat="40.293817" lon="-4.820183">
        <ele>1777.0</ele>
        <time>2013-07-02T12:47:27Z</time>
      </trkpt>
      <trkpt lat="40.293867" lon="-4.820067">
        <ele>1779.0</ele>
        <time>2013-07-02T12:47:28Z</time>
      </trkpt>
      <trkpt lat="40.293900" lon="-4.819950">
        <ele>1780.0</ele>
        <time>2013-07-02T12:47:29Z</time>
      </trkpt>
      <trkpt lat="40.293917" lon="-4.819817">
        <ele>1782.0</ele>
        <time>2013-07-02T12:47:30Z</time>
      </trkpt>
      <trkpt lat="40.293917" lon="-4.819683">
        <ele>1783.0</ele>
        <time>2013-07-02T12:47:31Z</time>
      </trkpt>
      <trkpt lat="40.293883" lon="-4.819583">
        <ele>1786.0</ele>
        <time>2013-07-02T12:47:32Z</time>
      </trkpt>
      <trkpt lat="40.293833" lon="-4.819517">
        <ele>1788.0</ele>
        <time>2013-07-02T12:47:33Z</time>
      </trkpt>
      <trkpt lat="40.293800" lon="-4.819483">
        <ele>1791.0</ele>
        <time>2013-07-02T12:47:34Z</time>
      </trkpt>
      <trkpt lat="40.293767" lon="-4.819467">
        <ele>1793.0</ele>
        <time>2013-07-02T12:47:35Z</time>
      </trkpt>
      <trkpt lat="40.293733" lon="-4.819450">
        <ele>1795.0</ele>
        <time>2013-07-02T12:47:36Z</time>
      </trkpt>
      <trkpt lat="40.293700" lon="-4.819433">
        <ele>1798.0</ele>
        <time>2013-07-02T12:47:37Z</time>
      </trkpt>
      <trkpt lat="40.293667" lon="-4.819433">
        <ele>1800.0</ele>
        <time>2013-07-02T12:47:38Z</time>
      </trkpt>
      <trkpt lat="40.293650" lon="-4.819433">
        <ele>1802.0</ele>
        <time>2013-07-02T12:47:39Z</time>
      </trkpt>
      <trkpt lat="40.293650" lon="-4.819467">
        <ele>1805.0</ele>
        <time>2013-07-02T12:47:40Z</time>
      </trkpt>
      <trkpt lat="40.293633" lon="-4.819500">
        <ele>1807.0</ele>
        <time>2013-07-02T12:47:41Z</time>
      </trkpt>
      <trkpt lat="40.293633" lon="-4.819533">
        <ele>1809.0</ele>
        <time>2013-07-02T12:47:42Z</time>
      </trkpt>
      <trkpt lat="40.293633" lon="-4.819567">
        <ele>1812.0</ele>
        <time>2013-07-02T12:47:43Z</time>
      </trkpt>
      <trkpt lat="40.293650" lon="-4.819617">
        <ele>1814.0</ele>
        <time>2013-07-02T12:47:44Z</time>
      </trkpt>
      <trkpt lat="40.293683" lon="-4.819667">
        <ele>1816.0</ele>
        <time>2013-07-02T12:47:45Z</time>
      </trkpt>
      <trkpt lat="40.293750" lon="-4.819733">
        <ele>1818.0</ele>
        <time>2013-07-02T12:47:46Z</time>
      </trkpt>
      <trkpt lat="40.293817" lon="-4.819767">
        <ele>1820.0</ele>
        <time>2013-07-02T12:47:47Z</time>
      </trkpt>
      <trkpt lat="40.293900" lon="-4.819800">
        <ele>1823.0</ele>
        <time>2013-07-02T12:47:48Z</time>
      </trkpt>
      <trkpt lat="40.294000" lon="-4.819817">
        <ele>1826.0</ele>
        <time>2013-07-02T12:47:49Z</time>
      </trkpt>
      <trkpt lat="40.294100" lon="-4.819800">
        <ele>1827.0</ele>
        <time>2013-07-02T12:47:50Z</time>
      </trkpt>
      <trkpt lat="40.294217" lon="-4.819750">
        <ele>1828.0</ele>
        <time>2013-07-02T12:47:51Z</time>
      </trkpt>
      <trkpt lat="40.294333" lon="-4.819667">
        <ele>1830.0</ele>
        <time>2013-07-02T12:47:52Z</time>
      </trkpt>
      <trkpt lat="40.294433" lon="-4.819583">
        <ele>1831.0</ele>
        <time>2013-07-02T12:47:53Z</time>
      </trkpt>
      <trkpt lat="40.294533" lon="-4.819483">
        <ele>1833.0</ele>
        <time>2013-07-02T12:47:54Z</time>
      </trkpt>
      <trkpt lat="40.294600" lon="-4.819367">
        <ele>1836.0</ele>
        <time>2013-07-02T12:47:55Z</time>
      </trkpt>
      <trkpt lat="40.294683" lon="-4.819250">
        <ele>1838.0</ele>
        <time>2013-07-02T12:47:56Z</time>
      </trkpt>
      <trkpt lat="40.294733" lon="-4.819117">
        <ele>1840.0</ele>
        <time>2013-07-02T12:47:57Z</time>
      </trkpt>
      <trkpt lat="40.294800" lon="-4.818967">
        <ele>1843.0</ele>
        <time>2013-07-02T12:47:58Z</time>
      </trkpt>
      <trkpt lat="40.294833" lon="-4.818833">
        <ele>1845.0</ele>
        <time>2013-07-02T12:47:59Z</time>
      </trkpt>
      <trkpt lat="40.294850" lon="-4.818700">
        <ele>1848.0</ele>
        <time>2013-07-02T12:48:00Z</time>
      </trkpt>
      <trkpt lat="40.294833" lon="-4.818567">
        <ele>1850.0</ele>
        <time>2013-07-02T12:48:01Z</time>
      </trkpt>
      <trkpt lat="40.294817" lon="-4.818450">
        <ele>1851.0</ele>
        <time>2013-07-02T12:48:02Z</time>
      </trkpt>
      <trkpt lat="40.294783" lon="-4.818333">
        <ele>1854.0</ele>
        <time>2013-07-02T12:48:03Z</time>
      </trkpt>
      <trkpt lat="40.294750" lon="-4.818233">
        <ele>1856.0</ele>
        <time>2013-07-02T12:48:04Z</time>
      </trkpt>
      <trkpt lat="40.294717" lon="-4.818150">
        <ele>1859.0</ele>
        <time>2013-07-02T12:48:05Z</time>
      </trkpt>
      <trkpt lat="40.294683" lon="-4.818067">
        <ele>1862.0</ele>
        <time>2013-07-02T12:48:06Z</time>
      </trkpt>
      <trkpt lat="40.294650" lon="-4.818000">
        <ele>1864.0</ele>
        <time>2013-07-02T12:48:07Z</time>
      </trkpt>
      <trkpt lat="40.294600" lon="-4.817950">
        <ele>1867.0</ele>
        <time>2013-07-02T12:48:08Z</time>
      </trkpt>
      <trkpt lat="40.294567" lon="-4.817917">
        <ele>1869.0</ele>
        <time>2013-07-02T12:48:09Z</time>
      </trkpt>
      <trkpt lat="40.294533" lon="-4.817917">
        <ele>1870.0</ele>
        <time>2013-07-02T12:48:10Z</time>
      </trkpt>
      <trkpt lat="40.294517" lon="-4.817933">
        <ele>1872.0</ele>
        <time>2013-07-02T12:48:11Z</time>
      </trkpt>
      <trkpt lat="40.294500" lon="-4.817950">
        <ele>1873.0</ele>
        <time>2013-07-02T12:48:12Z</time>
      </trkpt>
      <trkpt lat="40.294517" lon="-4.817983">
        <ele>1875.0</ele>
        <time>2013-07-02T12:48:13Z</time>
      </trkpt>
      <trkpt lat="40.294533" lon="-4.818017">
        <ele>1877.0</ele>
        <time>2013-07-02T12:48:14Z</time>
      </trkpt>
      <trkpt lat="40.294550" lon="-4.818050">
        <ele>1878.0</ele>
        <time>2013-07-02T12:48:15Z</time>
      </trkpt>
      <trkpt lat="40.294583" lon="-4.818083">
        <ele>1879.0</ele>
        <time>2013-07-02T12:48:16Z</time>
      </trkpt>
      <trkpt lat="40.294600" lon="-4.818133">
        <ele>1879.0</ele>
        <time>2013-07-02T12:48:17Z</time>
      </trkpt>
      <trkpt lat="40.294650" lon="-4.818183">
        <ele>1879.0</ele>
        <time>2013-07-02T12:48:18Z</time>
      </trkpt>
      <trkpt lat="40.294717" lon="-4.818250">
        <ele>1880.0</ele>
        <time>2013-07-02T12:48:19Z</time>
      </trkpt>
      <trkpt lat="40.294783" lon="-4.818317">
        <ele>1883.0</ele>
        <time>2013-07-02T12:48:20Z</time>
      </trkpt>
      <trkpt lat="40.294850" lon="-4.818367">
        <ele>1886.0</ele>
        <time>2013-07-02T12:48:21Z</time>
      </trkpt>
      <trkpt lat="40.294917" lon="-4.818417">
        <ele>1887.0</ele>
        <time>2013-07-02T12:48:22Z</time>
      </trkpt>
      <trkpt lat="40.295000" lon="-4.818467">
        <ele>1890.0</ele>
        <time>2013-07-02T12:48:23Z</time>
      </trkpt>
      <trkpt lat="40.295067" lon="-4.818500">
        <ele>1893.0</ele>
        <time>2013-07-02T12:48:24Z</time>
      </trkpt>
      <trkpt lat="40.295150" lon="-4.818517">
        <ele>1896.0</ele>
        <time>2013-07-02T12:48:25Z</time>
      </trkpt>
      <trkpt lat="40.295250" lon="-4.818500">
        <ele>1899.0</ele>
        <time>2013-07-02T12:48:26Z</time>
      </trkpt>
      <trkpt lat="40.295350" lon="-4.818483">
        <ele>1901.0</ele>
        <time>2013-07-02T12:48:27Z</time>
      </trkpt>
      <trkpt lat="40.295450" lon="-4.818433">
        <ele>1904.0</ele>
        <time>2013-07-02T12:48:28Z</time>
      </trkpt>
      <trkpt lat="40.295567" lon="-4.818383">
        <ele>1906.0</ele>
        <time>2013-07-02T12:48:29Z</time>
      </trkpt>
      <trkpt lat="40.295650" lon="-4.818300">
        <ele>1909.0</ele>
        <time>2013-07-02T12:48:30Z</time>
      </trkpt>
      <trkpt lat="40.295750" lon="-4.818183">
        <ele>1911.0</ele>
        <time>2013-07-02T12:48:31Z</time>
      </trkpt>
      <trkpt lat="40.295817" lon="-4.818067">
        <ele>1914.0</ele>
        <time>2013-07-02T12:48:32Z</time>
      </trkpt>
      <trkpt lat="40.295867" lon="-4.817933">
        <ele>1916.0</ele>
        <time>2013-07-02T12:48:33Z</time>
      </trkpt>
      <trkpt lat="40.295900" lon="-4.817783">
        <ele>1917.0</ele>
        <time>2013-07-02T12:48:34Z</time>
      </trkpt>
      <trkpt lat="40.295900" lon="-4.817650">
        <ele>1919.0</ele>
        <time>2013-07-02T12:48:35Z</time>
      </trkpt>
      <trkpt lat="40.295883" lon="-4.817533">
        <ele>1922.0</ele>
        <time>2013-07-02T12:48:36Z</time>
      </trkpt>
      <trkpt lat="40.295867" lon="-4.817433">
        <ele>1925.0</ele>
        <time>2013-07-02T12:48:37Z</time>
      </trkpt>
      <trkpt lat="40.295850" lon="-4.817350">
        <ele>1928.0</ele>
        <time>2013-07-02T12:48:38Z</time>
      </trkpt>
      <trkpt lat="40.295833" lon="-4.817267">
        <ele>1931.0</ele>
        <time>2013-07-02T12:48:39Z</time>
      </trkpt>
      <trkpt lat="40.295817" lon="-4.817200">
        <ele>1933.0</ele>
        <time>2013-07-02T12:48:40Z</time>
      </trkpt>
      <trkpt lat="40.295800" lon="-4.817150">
        <ele>1935.0</ele>
        <time>2013-07-02T12:48:41Z</time>
      </trkpt>
      <trkpt lat="40.295767" lon="-4.817117">
        <ele>1935.0</ele>
        <time>2013-07-02T12:48:42Z</time>
      </trkpt>
      <trkpt lat="40.295733" lon="-4.817133">
        <ele>1936.0</ele>
        <time>2013-07-02T12:48:43Z</time>
      </trkpt>
      <trkpt lat="40.295700" lon="-4.817150">
        <ele>1937.0</ele>
        <time>2013-07-02T12:48:44Z</time>
      </trkpt>
      <trkpt lat="40.295683" lon="-4.817200">
        <ele>1938.0</ele>
        <time>2013-07-02T12:48:45Z</time>
      </trkpt>
      <trkpt lat="40.295667" lon="-4.817250">
        <ele>1941.0</ele>
        <time>2013-07-02T12:48:46Z</time>
      </trkpt>
      <trkpt lat="40.295683" lon="-4.817333">
        <ele>1943.0</ele>
        <time>2013-07-02T12:48:47Z</time>
      </trkpt>
      <trkpt lat="40.295683" lon="-4.817400">
        <ele>1946.0</ele>
        <time>2013-07-02T12:48:48Z</time>
      </trkpt>
      <trkpt lat="40.295683" lon="-4.817467">
        <ele>1949.0</ele>
        <time>2013-07-02T12:48:49Z</time>
      </trkpt>
      <trkpt lat="40.295700" lon="-4.817533">
        <ele>1952.0</ele>
        <time>2013-07-02T12:48:50Z</time>
      </trkpt>
      <trkpt lat="40.295733" lon="-4.817600">
        <ele>1954.0</ele>
        <time>2013-07-02T12:48:51Z</time>
      </trkpt>
      <trkpt lat="40.295783" lon="-4.817667">
        <ele>1956.0</ele>
        <time>2013-07-02T12:48:52Z</time>
      </trkpt>
      <trkpt lat="40.295850" lon="-4.817733">
        <ele>1957.0</ele>
        <time>2013-07-02T12:48:53Z</time>
      </trkpt>
      <trkpt lat="40.295950" lon="-4.817783">
        <ele>1959.0</ele>
        <time>2013-07-02T12:48:54Z</time>
      </trkpt>
      <trkpt lat="40.296050" lon="-4.817783">
        <ele>1961.0</ele>
        <time>2013-07-02T12:48:55Z</time>
      </trkpt>
      <trkpt lat="40.296150" lon="-4.817750">
        <ele>1962.0</ele>
        <time>2013-07-02T12:48:56Z</time>
      </trkpt>
      <trkpt lat="40.296267" lon="-4.817667">
        <ele>1964.0</ele>
        <time>2013-07-02T12:48:57Z</time>
      </trkpt>
      <trkpt lat="40.296350" lon="-4.817583">
        <ele>1966.0</ele>
        <time>2013-07-02T12:48:58Z</time>
      </trkpt>
      <trkpt lat="40.296433" lon="-4.817500">
        <ele>1969.0</ele>
        <time>2013-07-02T12:48:59Z</time>
      </trkpt>
      <trkpt lat="40.296500" lon="-4.817417">
        <ele>1972.0</ele>
        <time>2013-07-02T12:49:00Z</time>
      </trkpt>
      <trkpt lat="40.296567" lon="-4.817333">
        <ele>1975.0</ele>
        <time>2013-07-02T12:49:01Z</time>
      </trkpt>
      <trkpt lat="40.296617" lon="-4.817233">
        <ele>1977.0</ele>
        <time>2013-07-02T12:49:02Z</time>
      </trkpt>
      <trkpt lat="40.296667" lon="-4.817117">
        <ele>1981.0</ele>
        <time>2013-07-02T12:49:03Z</time>
      </trkpt>
      <trkpt lat="40.296683" lon="-4.817000">
        <ele>1984.0</ele>
        <time>2013-07-02T12:49:04Z</time>
      </trkpt>
      <trkpt lat="40.296700" lon="-4.816900">
        <ele>1989.0</ele>
        <time>2013-07-02T12:49:05Z</time>
      </trkpt>
      <trkpt lat="40.296700" lon="-4.816817">
        <ele>1992.0</ele>
        <time>2013-07-02T12:49:06Z</time>
      </trkpt>
      <trkpt lat="40.296700" lon="-4.816733">
        <ele>1995.0</ele>
        <time>2013-07-02T12:49:07Z</time>
      </trkpt>
      <trkpt lat="40.296700" lon="-4.816633">
        <ele>1997.0</ele>
        <time>2013-07-02T12:49:08Z</time>
      </trkpt>
      <trkpt lat="40.296683" lon="-4.816550">
        <ele>1998.0</ele>
        <time>2013-07-02T12:49:09Z</time>
      </trkpt>
      <trkpt lat="40.296650" lon="-4.816467">
        <ele>2000.0</ele>
        <time>2013-07-02T12:49:10Z</time>
      </trkpt>
      <trkpt lat="40.296600" lon="-4.816417">
        <ele>2002.0</ele>
        <time>2013-07-02T12:49:11Z</time>
      </trkpt>
      <trkpt lat="40.296533" lon="-4.816383">
        <ele>2004.0</ele>
        <time>2013-07-02T12:49:12Z</time>
      </trkpt>
      <trkpt lat="40.296483" lon="-4.816383">
        <ele>2007.0</ele>
        <time>2013-07-02T12:49:13Z</time>
      </trkpt>
      <trkpt lat="40.296450" lon="-4.816400">
        <ele>2010.0</ele>
        <time>2013-07-02T12:49:14Z</time>
      </trkpt>
      <trkpt lat="40.296433" lon="-4.816433">
        <ele>2013.0</ele>
        <time>2013-07-02T12:49:15Z</time>
      </trkpt>
      <trkpt lat="40.296450" lon="-4.816467">
        <ele>2014.0</ele>
        <time>2013-07-02T12:49:16Z</time>
      </trkpt>
      <trkpt lat="40.296467" lon="-4.816517">
        <ele>2015.0</ele>
        <time>2013-07-02T12:49:17Z</time>
      </trkpt>
      <trkpt lat="40.296500" lon="-4.816583">
        <ele>2014.0</ele>
        <time>2013-07-02T12:49:18Z</time>
      </trkpt>
      <trkpt lat="40.296533" lon="-4.816650">
        <ele>2014.0</ele>
        <time>2013-07-02T12:49:19Z</time>
      </trkpt>
      <trkpt lat="40.296583" lon="-4.816733">
        <ele>2014.0</ele>
        <time>2013-07-02T12:49:20Z</time>
      </trkpt>
      <trkpt lat="40.296667" lon="-4.816817">
        <ele>2016.0</ele>
        <time>2013-07-02T12:49:21Z</time>
      </trkpt>
      <trkpt lat="40.296750" lon="-4.816850">
        <ele>2019.0</ele>
        <time>2013-07-02T12:49:22Z</time>
      </trkpt>
      <trkpt lat="40.296833" lon="-4.816850">
        <ele>2021.0</ele>
        <time>2013-07-02T12:49:23Z</time>
      </trkpt>
      <trkpt lat="40.296917" lon="-4.816817">
        <ele>2022.0</ele>
        <time>2013-07-02T12:49:24Z</time>
      </trkpt>
      <trkpt lat="40.297017" lon="-4.816800">
        <ele>2023.0</ele>
        <time>2013-07-02T12:49:25Z</time>
      </trkpt>
      <trkpt lat="40.297117" lon="-4.816800">
        <ele>2023.0</ele>
        <time>2013-07-02T12:49:26Z</time>
      </trkpt>
      <trkpt lat="40.297233" lon="-4.816817">
        <ele>2024.0</ele>
        <time>2013-07-02T12:49:27Z</time>
      </trkpt>
      <trkpt lat="40.297350" lon="-4.816800">
        <ele>2026.0</ele>
        <time>2013-07-02T12:49:28Z</time>
      </trkpt>
      <trkpt lat="40.297450" lon="-4.816767">
        <ele>2028.0</ele>
        <time>2013-07-02T12:49:29Z</time>
      </trkpt>
      <trkpt lat="40.297550" lon="-4.816700">
        <ele>2030.0</ele>
        <time>2013-07-02T12:49:30Z</time>
      </trkpt>
      <trkpt lat="40.297650" lon="-4.816633">
        <ele>2033.0</ele>
        <time>2013-07-02T12:49:31Z</time>
      </trkpt>
      <trkpt lat="40.297750" lon="-4.816550">
        <ele>2037.0</ele>
        <time>2013-07-02T12:49:32Z</time>
      </trkpt>
      <trkpt lat="40.297817" lon="-4.816467">
        <ele>2041.0</ele>
        <time>2013-07-02T12:49:33Z</time>
      </trkpt>
      <trkpt lat="40.297867" lon="-4.816367">
        <ele>2044.0</ele>
        <time>2013-07-02T12:49:34Z</time>
      </trkpt>
      <trkpt lat="40.297933" lon="-4.816267">
        <ele>2046.0</ele>
        <time>2013-07-02T12:49:35Z</time>
      </trkpt>
      <trkpt lat="40.298017" lon="-4.816133">
        <ele>2047.0</ele>
        <time>2013-07-02T12:49:36Z</time>
      </trkpt>
      <trkpt lat="40.298083" lon="-4.816000">
        <ele>2048.0</ele>
        <time>2013-07-02T12:49:37Z</time>
      </trkpt>
      <trkpt lat="40.298117" lon="-4.815850">
        <ele>2050.0</ele>
        <time>2013-07-02T12:49:38Z</time>
      </trkpt>
      <trkpt lat="40.298117" lon="-4.815700">
        <ele>2051.0</ele>
        <time>2013-07-02T12:49:39Z</time>
      </trkpt>
      <trkpt lat="40.298067" lon="-4.815600">
        <ele>2051.0</ele>
        <time>2013-07-02T12:49:40Z</time>
      </trkpt>
      <trkpt lat="40.298000" lon="-4.815500">
        <ele>2053.0</ele>
        <time>2013-07-02T12:49:41Z</time>
      </trkpt>
      <trkpt lat="40.297950" lon="-4.815433">
        <ele>2056.0</ele>
        <time>2013-07-02T12:49:42Z</time>
      </trkpt>
      <trkpt lat="40.297917" lon="-4.815367">
        <ele>2059.0</ele>
        <time>2013-07-02T12:49:43Z</time>
      </trkpt>
      <trkpt lat="40.297883" lon="-4.815300">
        <ele>2062.0</ele>
        <time>2013-07-02T12:49:44Z</time>
      </trkpt>
      <trkpt lat="40.297850" lon="-4.815250">
        <ele>2063.0</ele>
        <time>2013-07-02T12:49:45Z</time>
      </trkpt>
      <trkpt lat="40.297800" lon="-4.815217">
        <ele>2064.0</ele>
        <time>2013-07-02T12:49:46Z</time>
      </trkpt>
      <trkpt lat="40.297750" lon="-4.815183">
        <ele>2065.0</ele>
        <time>2013-07-02T12:49:47Z</time>
      </trkpt>
      <trkpt lat="40.297717" lon="-4.815150">
        <ele>2065.0</ele>
        <time>2013-07-02T12:49:48Z</time>
      </trkpt>
      <trkpt lat="40.297683" lon="-4.815133">
        <ele>2066.0</ele>
        <time>2013-07-02T12:49:49Z</time>
      </trkpt>
      <trkpt lat="40.297650" lon="-4.815133">
        <ele>2067.0</ele>
        <time>2013-07-02T12:49:50Z</time>
      </trkpt>
      <trkpt lat="40.297617" lon="-4.815150">
        <ele>2068.0</ele>
        <time>2013-07-02T12:49:51Z</time>
      </trkpt>
      <trkpt lat="40.297583" lon="-4.815167">
        <ele>2070.0</ele>
        <time>2013-07-02T12:49:52Z</time>
      </trkpt>
      <trkpt lat="40.297583" lon="-4.815183">
        <ele>2071.0</ele>
        <time>2013-07-02T12:49:53Z</time>
      </trkpt>
      <trkpt lat="40.297583" lon="-4.815217">
        <ele>2071.0</ele>
        <time>2013-07-02T12:49:54Z</time>
      </trkpt>
      <trkpt lat="40.297567" lon="-4.815267">
        <ele>2071.0</ele>
        <time>2013-07-02T12:49:55Z</time>
      </trkpt>
      <trkpt lat="40.297567" lon="-4.815317">
        <ele>2072.0</ele>
        <time>2013-07-02T12:49:56Z</time>
      </trkpt>
      <trkpt lat="40.297567" lon="-4.815367">
        <ele>2075.0</ele>
        <time>2013-07-02T12:49:57Z</time>
      </trkpt>
      <trkpt lat="40.297600" lon="-4.815383">
        <ele>2077.0</ele>
        <time>2013-07-02T12:49:58Z</time>
      </trkpt>
      <trkpt lat="40.297650" lon="-4.815400">
        <ele>2078.0</ele>
        <time>2013-07-02T12:49:59Z</time>
      </trkpt>
      <trkpt lat="40.297717" lon="-4.815433">
        <ele>2078.0</ele>
        <time>2013-07-02T12:50:00Z</time>
      </trkpt>
      <trkpt lat="40.297767" lon="-4.815483">
        <ele>2078.0</ele>
        <time>2013-07-02T12:50:01Z</time>
      </trkpt>
      <trkpt lat="40.297833" lon="-4.815517">
        <ele>2078.0</ele>
        <time>2013-07-02T12:50:02Z</time>
      </trkpt>
      <trkpt lat="40.297917" lon="-4.815550">
        <ele>2078.0</ele>
        <time>2013-07-02T12:50:03Z</time>
      </trkpt>
      <trkpt lat="40.298017" lon="-4.815583">
        <ele>2079.0</ele>
        <time>2013-07-02T12:50:04Z</time>
      </trkpt>
      <trkpt lat="40.298100" lon="-4.815600">
        <ele>2079.0</ele>
        <time>2013-07-02T12:50:05Z</time>
      </trkpt>
      <trkpt lat="40.298200" lon="-4.815600">
        <ele>2079.0</ele>
        <time>2013-07-02T12:50:06Z</time>
      </trkpt>
      <trkpt lat="40.298283" lon="-4.815617">
        <ele>2079.0</ele>
        <time>2013-07-02T12:50:07Z</time>
      </trkpt>
      <trkpt lat="40.298400" lon="-4.815617">
        <ele>2079.0</ele>
        <time>2013-07-02T12:50:08Z</time>
      </trkpt>
      <trkpt lat="40.298500" lon="-4.815600">
        <ele>2079.0</ele>
        <time>2013-07-02T12:50:09Z</time>
      </trkpt>
      <trkpt lat="40.298617" lon="-4.815567">
        <ele>2080.0</ele>
        <time>2013-07-02T12:50:10Z</time>
      </trkpt>
      <trkpt lat="40.298717" lon="-4.815517">
        <ele>2081.0</ele>
        <time>2013-07-02T12:50:11Z</time>
      </trkpt>
      <trkpt lat="40.298800" lon="-4.815467">
        <ele>2082.0</ele>
        <time>2013-07-02T12:50:12Z</time>
      </trkpt>
      <trkpt lat="40.298900" lon="-4.815417">
        <ele>2083.0</ele>
        <time>2013-07-02T12:50:13Z</time>
      </trkpt>
      <trkpt lat="40.298983" lon="-4.815367">
        <ele>2084.0</ele>
        <time>2013-07-02T12:50:14Z</time>
      </trkpt>
      <trkpt lat="40.299083" lon="-4.815333">
        <ele>2085.0</ele>
        <time>2013-07-02T12:50:15Z</time>
      </trkpt>
      <trkpt lat="40.299183" lon="-4.815283">
        <ele>2085.0</ele>
        <time>2013-07-02T12:50:16Z</time>
      </trkpt>
      <trkpt lat="40.299267" lon="-4.815233">
        <ele>2086.0</ele>
        <time>2013-07-02T12:50:17Z</time>
      </trkpt>
      <trkpt lat="40.299367" lon="-4.815167">
        <ele>2088.0</ele>
        <time>2013-07-02T12:50:18Z</time>
      </trkpt>
      <trkpt lat="40.299467" lon="-4.815117">
        <ele>2090.0</ele>
        <time>2013-07-02T12:50:19Z</time>
      </trkpt>
      <trkpt lat="40.299567" lon="-4.815067">
        <ele>2092.0</ele>
        <time>2013-07-02T12:50:20Z</time>
      </trkpt>
      <trkpt lat="40.299667" lon="-4.815017">
        <ele>2093.0</ele>
        <time>2013-07-02T12:50:21Z</time>
      </trkpt>
      <trkpt lat="40.299767" lon="-4.814983">
        <ele>2095.0</ele>
        <time>2013-07-02T12:50:22Z</time>
      </trkpt>
      <trkpt lat="40.299867" lon="-4.814933">
        <ele>2097.0</ele>
        <time>2013-07-02T12:50:23Z</time>
      </trkpt>
      <trkpt lat="40.299967" lon="-4.814900">
        <ele>2097.0</ele>
        <time>2013-07-02T12:50:24Z</time>
      </trkpt>
      <trkpt lat="40.300083" lon="-4.814883">
        <ele>2098.0</ele>
        <time>2013-07-02T12:50:25Z</time>
      </trkpt>
      <trkpt lat="40.300183" lon="-4.814833">
        <ele>2098.0</ele>
        <time>2013-07-02T12:50:26Z</time>
      </trkpt>
      <trkpt lat="40.300317" lon="-4.814783">
        <ele>2098.0</ele>
        <time>2013-07-02T12:50:27Z</time>
      </trkpt>
      <trkpt lat="40.300450" lon="-4.814733">
        <ele>2098.0</ele>
        <time>2013-07-02T12:50:28Z</time>
      </trkpt>
      <trkpt lat="40.300567" lon="-4.814683">
        <ele>2099.0</ele>
        <time>2013-07-02T12:50:29Z</time>
      </trkpt>
      <trkpt lat="40.300700" lon="-4.814650">
        <ele>2100.0</ele>
        <time>2013-07-02T12:50:30Z</time>
      </trkpt>
      <trkpt lat="40.300817" lon="-4.814617">
        <ele>2101.0</ele>
        <time>2013-07-02T12:50:31Z</time>
      </trkpt>
      <trkpt lat="40.300950" lon="-4.814567">
        <ele>2102.0</ele>
        <time>2013-07-02T12:50:32Z</time>
      </trkpt>
      <trkpt lat="40.301067" lon="-4.814517">
        <ele>2102.0</ele>
        <time>2013-07-02T12:50:33Z</time>
      </trkpt>
      <trkpt lat="40.301200" lon="-4.814467">
        <ele>2103.0</ele>
        <time>2013-07-02T12:50:34Z</time>
      </trkpt>
      <trkpt lat="40.301317" lon="-4.814433">
        <ele>2104.0</ele>
        <time>2013-07-02T12:50:35Z</time>
      </trkpt>
      <trkpt lat="40.301467" lon="-4.814400">
        <ele>2106.0</ele>
        <time>2013-07-02T12:50:36Z</time>
      </trkpt>
      <trkpt lat="40.301600" lon="-4.814367">
        <ele>2110.0</ele>
        <time>2013-07-02T12:50:37Z</time>
      </trkpt>
      <trkpt lat="40.301717" lon="-4.814333">
        <ele>2115.0</ele>
        <time>2013-07-02T12:50:38Z</time>
      </trkpt>
      <trkpt lat="40.301833" lon="-4.814283">
        <ele>2121.0</ele>
        <time>2013-07-02T12:50:39Z</time>
      </trkpt>
      <trkpt lat="40.301917" lon="-4.814233">
        <ele>2126.0</ele>
        <time>2013-07-02T12:50:40Z</time>
      </trkpt>
      <trkpt lat="40.302000" lon="-4.814183">
        <ele>2129.0</ele>
        <time>2013-07-02T12:50:41Z</time>
      </trkpt>
      <trkpt lat="40.302083" lon="-4.814150">
        <ele>2131.0</ele>
        <time>2013-07-02T12:50:42Z</time>
      </trkpt>
      <trkpt lat="40.302167" lon="-4.814133">
        <ele>2132.0</ele>
        <time>2013-07-02T12:50:43Z</time>
      </trkpt>
      <trkpt lat="40.302267" lon="-4.814117">
        <ele>2133.0</ele>
        <time>2013-07-02T12:50:44Z</time>
      </trkpt>
      <trkpt lat="40.302350" lon="-4.814167">
        <ele>2134.0</ele>
        <time>2013-07-02T12:50:45Z</time>
      </trkpt>
      <trkpt lat="40.302383" lon="-4.814250">
        <ele>2136.0</ele>
        <time>2013-07-02T12:50:46Z</time>
      </trkpt>
      <trkpt lat="40.302367" lon="-4.814317">
        <ele>2136.0</ele>
        <time>2013-07-02T12:50:47Z</time>
      </trkpt>
      <trkpt lat="40.302317" lon="-4.814367">
        <ele>2139.0</ele>
        <time>2013-07-02T12:50:48Z</time>
      </trkpt>
      <trkpt lat="40.302267" lon="-4.814400">
        <ele>2143.0</ele>
        <time>2013-07-02T12:50:49Z</time>
      </trkpt>
      <trkpt lat="40.302233" lon="-4.814417">
        <ele>2147.0</ele>
        <time>2013-07-02T12:50:50Z</time>
      </trkpt>
      <trkpt lat="40.302200" lon="-4.814417">
        <ele>2150.0</ele>
        <time>2013-07-02T12:50:51Z</time>
      </trkpt>
      <trkpt lat="40.302167" lon="-4.814417">
        <ele>2153.0</ele>
        <time>2013-07-02T12:50:52Z</time>
      </trkpt>
      <trkpt lat="40.302100" lon="-4.814400">
        <ele>2155.0</ele>
        <time>2013-07-02T12:50:53Z</time>
      </trkpt>
      <trkpt lat="40.302050" lon="-4.814333">
        <ele>2158.0</ele>
        <time>2013-07-02T12:50:54Z</time>
      </trkpt>
      <trkpt lat="40.301983" lon="-4.814217">
        <ele>2160.0</ele>
        <time>2013-07-02T12:50:55Z</time>
      </trkpt>
      <trkpt lat="40.301967" lon="-4.814083">
        <ele>2162.0</ele>
        <time>2013-07-02T12:50:56Z</time>
      </trkpt>
      <trkpt lat="40.301983" lon="-4.813933">
        <ele>2164.0</ele>
        <time>2013-07-02T12:50:57Z</time>
      </trkpt>
      <trkpt lat="40.302017" lon="-4.813783">
        <ele>2166.0</ele>
        <time>2013-07-02T12:50:58Z</time>
      </trkpt>
      <trkpt lat="40.302067" lon="-4.813667">
        <ele>2169.0</ele>
        <time>2013-07-02T12:50:59Z</time>
      </trkpt>
      <trkpt lat="40.302100" lon="-4.813550">
        <ele>2171.0</ele>
        <time>2013-07-02T12:51:00Z</time>
      </trkpt>
      <trkpt lat="40.302167" lon="-4.813450">
        <ele>2172.0</ele>
        <time>2013-07-02T12:51:01Z</time>
      </trkpt>
      <trkpt lat="40.302233" lon="-4.813350">
        <ele>2171.0</ele>
        <time>2013-07-02T12:51:02Z</time>
      </trkpt>
      <trkpt lat="40.302333" lon="-4.813233">
        <ele>2172.0</ele>
        <time>2013-07-02T12:51:03Z</time>
      </trkpt>
      <trkpt lat="40.302450" lon="-4.813133">
        <ele>2174.0</ele>
        <time>2013-07-02T12:51:04Z</time>
      </trkpt>
      <trkpt lat="40.302567" lon="-4.813067">
        <ele>2176.0</ele>
        <time>2013-07-02T12:51:05Z</time>
      </trkpt>
      <trkpt lat="40.302683" lon="-4.813033">
        <ele>2178.0</ele>
        <time>2013-07-02T12:51:06Z</time>
      </trkpt>
      <trkpt lat="40.302783" lon="-4.813017">
        <ele>2181.0</ele>
        <time>2013-07-02T12:51:07Z</time>
      </trkpt>
      <trkpt lat="40.302883" lon="-4.813017">
        <ele>2184.0</ele>
        <time>2013-07-02T12:51:08Z</time>
      </trkpt>
      <trkpt lat="40.302967" lon="-4.813033">
        <ele>2187.0</ele>
        <time>2013-07-02T12:51:09Z</time>
      </trkpt>
      <trkpt lat="40.303033" lon="-4.813033">
        <ele>2190.0</ele>
        <time>2013-07-02T12:51:10Z</time>
      </trkpt>
      <trkpt lat="40.303100" lon="-4.813050">
        <ele>2193.0</ele>
        <time>2013-07-02T12:51:11Z</time>
      </trkpt>
      <trkpt lat="40.303150" lon="-4.813083">
        <ele>2195.0</ele>
        <time>2013-07-02T12:51:12Z</time>
      </trkpt>
      <trkpt lat="40.303183" lon="-4.813117">
        <ele>2196.0</ele>
        <time>2013-07-02T12:51:13Z</time>
      </trkpt>
      <trkpt lat="40.303217" lon="-4.813167">
        <ele>2197.0</ele>
        <time>2013-07-02T12:51:14Z</time>
      </trkpt>
      <trkpt lat="40.303217" lon="-4.813233">
        <ele>2198.0</ele>
        <time>2013-07-02T12:51:15Z</time>
      </trkpt>
      <trkpt lat="40.303183" lon="-4.813283">
        <ele>2200.0</ele>
        <time>2013-07-02T12:51:16Z</time>
      </trkpt>
      <trkpt lat="40.303133" lon="-4.813300">
        <ele>2202.0</ele>
        <time>2013-07-02T12:51:17Z</time>
      </trkpt>
      <trkpt lat="40.303067" lon="-4.813283">
        <ele>2203.0</ele>
        <time>2013-07-02T12:51:18Z</time>
      </trkpt>
      <trkpt lat="40.303017" lon="-4.813217">
        <ele>2206.0</ele>
        <time>2013-07-02T12:51:19Z</time>
      </trkpt>
      <trkpt lat="40.302983" lon="-4.813100">
        <ele>2209.0</ele>
        <time>2013-07-02T12:51:20Z</time>
      </trkpt>
      <trkpt lat="40.302967" lon="-4.813000">
        <ele>2213.0</ele>
        <time>2013-07-02T12:51:21Z</time>
      </trkpt>
      <trkpt lat="40.302967" lon="-4.812900">
        <ele>2216.0</ele>
        <time>2013-07-02T12:51:22Z</time>
      </trkpt>
      <trkpt lat="40.302967" lon="-4.812817">
        <ele>2218.0</ele>
        <time>2013-07-02T12:51:23Z</time>
      </trkpt>
      <trkpt lat="40.302967" lon="-4.812733">
        <ele>2219.0</ele>
        <time>2013-07-02T12:51:24Z</time>
      </trkpt>
      <trkpt lat="40.302950" lon="-4.812617">
        <ele>2219.0</ele>
        <time>2013-07-02T12:51:25Z</time>
      </trkpt>
      <trkpt lat="40.302967" lon="-4.812467">
        <ele>2219.0</ele>
        <time>2013-07-02T12:51:26Z</time>
      </trkpt>
      <trkpt lat="40.303000" lon="-4.812333">
        <ele>2220.0</ele>
        <time>2013-07-02T12:51:27Z</time>
      </trkpt>
      <trkpt lat="40.303050" lon="-4.812200">
        <ele>2222.0</ele>
        <time>2013-07-02T12:51:28Z</time>
      </trkpt>
      <trkpt lat="40.303117" lon="-4.812100">
        <ele>2225.0</ele>
        <time>2013-07-02T12:51:29Z</time>
      </trkpt>
      <trkpt lat="40.303183" lon="-4.812017">
        <ele>2226.0</ele>
        <time>2013-07-02T12:51:30Z</time>
      </trkpt>
      <trkpt lat="40.303267" lon="-4.811950">
        <ele>2226.0</ele>
        <time>2013-07-02T12:51:31Z</time>
      </trkpt>
      <trkpt lat="40.303367" lon="-4.811917">
        <ele>2227.0</ele>
        <time>2013-07-02T12:51:32Z</time>
      </trkpt>
      <trkpt lat="40.303467" lon="-4.811900">
        <ele>2228.0</ele>
        <time>2013-07-02T12:51:33Z</time>
      </trkpt>
      <trkpt lat="40.303567" lon="-4.811900">
        <ele>2231.0</ele>
        <time>2013-07-02T12:51:34Z</time>
      </trkpt>
      <trkpt lat="40.303650" lon="-4.811917">
        <ele>2233.0</ele>
        <time>2013-07-02T12:51:35Z</time>
      </trkpt>
      <trkpt lat="40.303717" lon="-4.811950">
        <ele>2235.0</ele>
        <time>2013-07-02T12:51:36Z</time>
      </trkpt>
      <trkpt lat="40.303750" lon="-4.811983">
        <ele>2236.0</ele>
        <time>2013-07-02T12:51:37Z</time>
      </trkpt>
      <trkpt lat="40.303783" lon="-4.812017">
        <ele>2237.0</ele>
        <time>2013-07-02T12:51:38Z</time>
      </trkpt>
      <trkpt lat="40.303817" lon="-4.812083">
        <ele>2236.0</ele>
        <time>2013-07-02T12:51:39Z</time>
      </trkpt>
      <trkpt lat="40.303817" lon="-4.812167">
        <ele>2236.0</ele>
        <time>2013-07-02T12:51:40Z</time>
      </trkpt>
      <trkpt lat="40.303817" lon="-4.812250">
        <ele>2237.0</ele>
        <time>2013-07-02T12:51:41Z</time>
      </trkpt>
      <trkpt lat="40.303783" lon="-4.812317">
        <ele>2240.0</ele>
        <time>2013-07-02T12:51:42Z</time>
      </trkpt>
      <trkpt lat="40.303750" lon="-4.812350">
        <ele>2243.0</ele>
        <time>2013-07-02T12:51:43Z</time>
      </trkpt>
      <trkpt lat="40.303733" lon="-4.812367">
        <ele>2245.0</ele>
        <time>2013-07-02T12:51:44Z</time>
      </trkpt>
      <trkpt lat="40.303717" lon="-4.812383">
        <ele>2247.0</ele>
        <time>2013-07-02T12:51:45Z</time>
      </trkpt>
      <trkpt lat="40.303683" lon="-4.812383">
        <ele>2249.0</ele>
        <time>2013-07-02T12:51:46Z</time>
      </trkpt>
      <trkpt lat="40.303633" lon="-4.812383">
        <ele>2249.0</ele>
        <time>2013-07-02T12:51:47Z</time>
      </trkpt>
      <trkpt lat="40.303583" lon="-4.812367">
        <ele>2250.0</ele>
        <time>2013-07-02T12:51:48Z</time>
      </trkpt>
      <trkpt lat="40.303500" lon="-4.812350">
        <ele>2251.0</ele>
        <time>2013-07-02T12:51:49Z</time>
      </trkpt>
      <trkpt lat="40.303450" lon="-4.812317">
        <ele>2253.0</ele>
        <time>2013-07-02T12:51:50Z</time>
      </trkpt>
      <trkpt lat="40.303383" lon="-4.812283">
        <ele>2257.0</ele>
        <time>2013-07-02T12:51:51Z</time>
      </trkpt>
      <trkpt lat="40.303350" lon="-4.812233">
        <ele>2259.0</ele>
        <time>2013-07-02T12:51:52Z</time>
      </trkpt>
      <trkpt lat="40.303317" lon="-4.812183">
        <ele>2260.0</ele>
        <time>2013-07-02T12:51:53Z</time>
      </trkpt>
      <trkpt lat="40.303283" lon="-4.812117">
        <ele>2262.0</ele>
        <time>2013-07-02T12:51:54Z</time>
      </trkpt>
      <trkpt lat="40.303250" lon="-4.812050">
        <ele>2262.0</ele>
        <time>2013-07-02T12:51:55Z</time>
      </trkpt>
      <trkpt lat="40.303233" lon="-4.811967">
        <ele>2262.0</ele>
        <time>2013-07-02T12:51:56Z</time>
      </trkpt>
      <trkpt lat="40.303217" lon="-4.811867">
        <ele>2262.0</ele>
        <time>2013-07-02T12:51:57Z</time>
      </trkpt>
      <trkpt lat="40.303217" lon="-4.811750">
        <ele>2262.0</ele>
        <time>2013-07-02T12:51:58Z</time>
      </trkpt>
      <trkpt lat="40.303233" lon="-4.811617">
        <ele>2261.0</ele>
        <time>2013-07-02T12:51:59Z</time>
      </trkpt>
      <trkpt lat="40.303283" lon="-4.811483">
        <ele>2260.0</ele>
        <time>2013-07-02T12:52:00Z</time>
      </trkpt>
      <trkpt lat="40.303350" lon="-4.811350">
        <ele>2260.0</ele>
        <time>2013-07-02T12:52:01Z</time>
      </trkpt>
      <trkpt lat="40.303417" lon="-4.811217">
        <ele>2260.0</ele>
        <time>2013-07-02T12:52:02Z</time>
      </trkpt>
      <trkpt lat="40.303500" lon="-4.811100">
        <ele>2261.0</ele>
        <time>2013-07-02T12:52:03Z</time>
      </trkpt>
      <trkpt lat="40.303583" lon="-4.811000">
        <ele>2262.0</ele>
        <time>2013-07-02T12:52:04Z</time>
      </trkpt>
      <trkpt lat="40.303667" lon="-4.810933">
        <ele>2263.0</ele>
        <time>2013-07-02T12:52:05Z</time>
      </trkpt>
      <trkpt lat="40.303750" lon="-4.810883">
        <ele>2264.0</ele>
        <time>2013-07-02T12:52:06Z</time>
      </trkpt>
      <trkpt lat="40.303833" lon="-4.810833">
        <ele>2264.0</ele>
        <time>2013-07-02T12:52:07Z</time>
      </trkpt>
      <trkpt lat="40.303917" lon="-4.810800">
        <ele>2263.0</ele>
        <time>2013-07-02T12:52:08Z</time>
      </trkpt>
      <trkpt lat="40.304017" lon="-4.810767">
        <ele>2263.0</ele>
        <time>2013-07-02T12:52:09Z</time>
      </trkpt>
      <trkpt lat="40.304100" lon="-4.810733">
        <ele>2263.0</ele>
        <time>2013-07-02T12:52:10Z</time>
      </trkpt>
      <trkpt lat="40.304183" lon="-4.810700">
        <ele>2263.0</ele>
        <time>2013-07-02T12:52:11Z</time>
      </trkpt>
      <trkpt lat="40.304267" lon="-4.810667">
        <ele>2263.0</ele>
        <time>2013-07-02T12:52:12Z</time>
      </trkpt>
      <trkpt lat="40.304350" lon="-4.810633">
        <ele>2263.0</ele>
        <time>2013-07-02T12:52:13Z</time>
      </trkpt>
      <trkpt lat="40.304433" lon="-4.810600">
        <ele>2263.0</ele>
        <time>2013-07-02T12:52:14Z</time>
      </trkpt>
      <trkpt lat="40.304517" lon="-4.810567">
        <ele>2263.0</ele>
        <time>2013-07-02T12:52:15Z</time>
      </trkpt>
      <trkpt lat="40.304600" lon="-4.810550">
        <ele>2264.0</ele>
        <time>2013-07-02T12:52:16Z</time>
      </trkpt>
      <trkpt lat="40.304683" lon="-4.810517">
        <ele>2264.0</ele>
        <time>2013-07-02T12:52:17Z</time>
      </trkpt>
      <trkpt lat="40.304767" lon="-4.810483">
        <ele>2265.0</ele>
        <time>2013-07-02T12:52:18Z</time>
      </trkpt>
      <trkpt lat="40.304850" lon="-4.810450">
        <ele>2265.0</ele>
        <time>2013-07-02T12:52:19Z</time>
      </trkpt>
      <trkpt lat="40.304933" lon="-4.810433">
        <ele>2266.0</ele>
        <time>2013-07-02T12:52:20Z</time>
      </trkpt>
      <trkpt lat="40.305017" lon="-4.810400">
        <ele>2267.0</ele>
        <time>2013-07-02T12:52:21Z</time>
      </trkpt>
      <trkpt lat="40.305100" lon="-4.810383">
        <ele>2269.0</ele>
        <time>2013-07-02T12:52:22Z</time>
      </trkpt>
      <trkpt lat="40.305183" lon="-4.810367">
        <ele>2270.0</ele>
        <time>2013-07-02T12:52:23Z</time>
      </trkpt>
      <trkpt lat="40.305250" lon="-4.810367">
        <ele>2270.0</ele>
        <time>2013-07-02T12:52:24Z</time>
      </trkpt>
      <trkpt lat="40.305350" lon="-4.810383">
        <ele>2270.0</ele>
        <time>2013-07-02T12:52:25Z</time>
      </trkpt>
      <trkpt lat="40.305433" lon="-4.810400">
        <ele>2270.0</ele>
        <time>2013-07-02T12:52:26Z</time>
      </trkpt>
      <trkpt lat="40.305533" lon="-4.810400">
        <ele>2271.0</ele>
        <time>2013-07-02T12:52:27Z</time>
      </trkpt>
      <trkpt lat="40.305633" lon="-4.810400">
        <ele>2272.0</ele>
        <time>2013-07-02T12:52:28Z</time>
      </trkpt>
      <trkpt lat="40.305733" lon="-4.810417">
        <ele>2274.0</ele>
        <time>2013-07-02T12:52:29Z</time>
      </trkpt>
      <trkpt lat="40.305817" lon="-4.810433">
        <ele>2276.0</ele>
        <time>2013-07-02T12:52:30Z</time>
      </trkpt>
      <trkpt lat="40.305867" lon="-4.810467">
        <ele>2277.0</ele>
        <time>2013-07-02T12:52:31Z</time>
      </trkpt>
      <trkpt lat="40.305933" lon="-4.810500">
        <ele>2277.0</ele>
        <time>2013-07-02T12:52:32Z</time>
      </trkpt>
      <trkpt lat="40.306000" lon="-4.810533">
        <ele>2278.0</ele>
        <time>2013-07-02T12:52:33Z</time>
      </trkpt>
      <trkpt lat="40.306067" lon="-4.810550">
        <ele>2278.0</ele>
        <time>2013-07-02T12:52:34Z</time>
      </trkpt>
      <trkpt lat="40.306117" lon="-4.810600">
        <ele>2279.0</ele>
        <time>2013-07-02T12:52:35Z</time>
      </trkpt>
      <trkpt lat="40.306167" lon="-4.810650">
        <ele>2279.0</ele>
        <time>2013-07-02T12:52:36Z</time>
      </trkpt>
      <trkpt lat="40.306217" lon="-4.810700">
        <ele>2280.0</ele>
        <time>2013-07-02T12:52:37Z</time>
      </trkpt>
      <trkpt lat="40.306250" lon="-4.810750">
        <ele>2281.0</ele>
        <time>2013-07-02T12:52:38Z</time>
      </trkpt>
      <trkpt lat="40.306267" lon="-4.810800">
        <ele>2282.0</ele>
        <time>2013-07-02T12:52:39Z</time>
      </trkpt>
      <trkpt lat="40.306283" lon="-4.810850">
        <ele>2283.0</ele>
        <time>2013-07-02T12:52:40Z</time>
      </trkpt>
      <trkpt lat="40.306300" lon="-4.810883">
        <ele>2282.0</ele>
        <time>2013-07-02T12:52:41Z</time>
      </trkpt>
      <trkpt lat="40.306333" lon="-4.810933">
        <ele>2282.0</ele>
        <time>2013-07-02T12:52:42Z</time>
      </trkpt>
      <trkpt lat="40.306350" lon="-4.810983">
        <ele>2281.0</ele>
        <time>2013-07-02T12:52:43Z</time>
      </trkpt>
      <trkpt lat="40.306367" lon="-4.811050">
        <ele>2280.0</ele>
        <time>2013-07-02T12:52:44Z</time>
      </trkpt>
      <trkpt lat="40.306400" lon="-4.811117">
        <ele>2280.0</ele>
        <time>2013-07-02T12:52:45Z</time>
      </trkpt>
      <trkpt lat="40.306433" lon="-4.811200">
        <ele>2280.0</ele>
        <time>2013-07-02T12:52:46Z</time>
      </trkpt>
      <trkpt lat="40.306467" lon="-4.811283">
        <ele>2280.0</ele>
        <time>2013-07-02T12:52:47Z</time>
      </trkpt>
      <trkpt lat="40.306517" lon="-4.811383">
        <ele>2281.0</ele>
        <time>2013-07-02T12:52:48Z</time>
      </trkpt>
      <trkpt lat="40.306567" lon="-4.811450">
        <ele>2282.0</ele>
        <time>2013-07-02T12:52:49Z</time>
      </trkpt>
      <trkpt lat="40.306600" lon="-4.811533">
        <ele>2284.0</ele>
        <time>2013-07-02T12:52:50Z</time>
      </trkpt>
      <trkpt lat="40.306650" lon="-4.811583">
        <ele>2288.0</ele>
        <time>2013-07-02T12:52:51Z</time>
      </trkpt>
      <trkpt lat="40.306683" lon="-4.811600">
        <ele>2290.0</ele>
        <time>2013-07-02T12:52:52Z</time>
      </trkpt>
      <trkpt lat="40.306733" lon="-4.811617">
        <ele>2292.0</ele>
        <time>2013-07-02T12:52:53Z</time>
      </trkpt>
      <trkpt lat="40.306767" lon="-4.811650">
        <ele>2292.0</ele>
        <time>2013-07-02T12:52:54Z</time>
      </trkpt>
      <trkpt lat="40.306817" lon="-4.811700">
        <ele>2292.0</ele>
        <time>2013-07-02T12:52:55Z</time>
      </trkpt>
      <trkpt lat="40.306867" lon="-4.811750">
        <ele>2292.0</ele>
        <time>2013-07-02T12:52:56Z</time>
      </trkpt>
      <trkpt lat="40.306933" lon="-4.811800">
        <ele>2292.0</ele>
        <time>2013-07-02T12:52:57Z</time>
      </trkpt>
      <trkpt lat="40.307017" lon="-4.811817">
        <ele>2292.0</ele>
        <time>2013-07-02T12:52:58Z</time>
      </trkpt>
      <trkpt lat="40.307100" lon="-4.811800">
        <ele>2293.0</ele>
        <time>2013-07-02T12:52:59Z</time>
      </trkpt>
      <trkpt lat="40.307200" lon="-4.811750">
        <ele>2293.0</ele>
        <time>2013-07-02T12:53:00Z</time>
      </trkpt>
      <trkpt lat="40.307283" lon="-4.811667">
        <ele>2293.0</ele>
        <time>2013-07-02T12:53:01Z</time>
      </trkpt>
      <trkpt lat="40.307350" lon="-4.811583">
        <ele>2294.0</ele>
        <time>2013-07-02T12:53:02Z</time>
      </trkpt>
      <trkpt lat="40.307433" lon="-4.811500">
        <ele>2294.0</ele>
        <time>2013-07-02T12:53:03Z</time>
      </trkpt>
      <trkpt lat="40.307483" lon="-4.811383">
        <ele>2294.0</ele>
        <time>2013-07-02T12:53:04Z</time>
      </trkpt>
      <trkpt lat="40.307550" lon="-4.811267">
        <ele>2294.0</ele>
        <time>2013-07-02T12:53:05Z</time>
      </trkpt>
      <trkpt lat="40.307583" lon="-4.811150">
        <ele>2294.0</ele>
        <time>2013-07-02T12:53:06Z</time>
      </trkpt>
      <trkpt lat="40.307633" lon="-4.811017">
        <ele>2295.0</ele>
        <time>2013-07-02T12:53:07Z</time>
      </trkpt>
      <trkpt lat="40.307650" lon="-4.810883">
        <ele>2296.0</ele>
        <time>2013-07-02T12:53:08Z</time>
      </trkpt>
      <trkpt lat="40.307683" lon="-4.810750">
        <ele>2298.0</ele>
        <time>2013-07-02T12:53:09Z</time>
      </trkpt>
      <trkpt lat="40.307717" lon="-4.810633">
        <ele>2300.0</ele>
        <time>2013-07-02T12:53:10Z</time>
      </trkpt>
      <trkpt lat="40.307750" lon="-4.810517">
        <ele>2302.0</ele>
        <time>2013-07-02T12:53:11Z</time>
      </trkpt>
      <trkpt lat="40.307783" lon="-4.810417">
        <ele>2303.0</ele>
        <time>2013-07-02T12:53:12Z</time>
      </trkpt>
      <trkpt lat="40.307783" lon="-4.810300">
        <ele>2303.0</ele>
        <time>2013-07-02T12:53:13Z</time>
      </trkpt>
      <trkpt lat="40.307783" lon="-4.810183">
        <ele>2302.0</ele>
        <time>2013-07-02T12:53:14Z</time>
      </trkpt>
      <trkpt lat="40.307767" lon="-4.810083">
        <ele>2303.0</ele>
        <time>2013-07-02T12:53:15Z</time>
      </trkpt>
      <trkpt lat="40.307733" lon="-4.809983">
        <ele>2304.0</ele>
        <time>2013-07-02T12:53:16Z</time>
      </trkpt>
      <trkpt lat="40.307717" lon="-4.809900">
        <ele>2305.0</ele>
        <time>2013-07-02T12:53:17Z</time>
      </trkpt>
      <trkpt lat="40.307700" lon="-4.809833">
        <ele>2306.0</ele>
        <time>2013-07-02T12:53:18Z</time>
      </trkpt>
      <trkpt lat="40.307683" lon="-4.809783">
        <ele>2306.0</ele>
        <time>2013-07-02T12:53:19Z</time>
      </trkpt>
      <trkpt lat="40.307650" lon="-4.809733">
        <ele>2307.0</ele>
        <time>2013-07-02T12:53:20Z</time>
      </trkpt>
      <trkpt lat="40.307617" lon="-4.809700">
        <ele>2308.0</ele>
        <time>2013-07-02T12:53:21Z</time>
      </trkpt>
      <trkpt lat="40.307583" lon="-4.809683">
        <ele>2310.0</ele>
        <time>2013-07-02T12:53:22Z</time>
      </trkpt>
      <trkpt lat="40.307567" lon="-4.809683">
        <ele>2312.0</ele>
        <time>2013-07-02T12:53:23Z</time>
      </trkpt>
      <trkpt lat="40.307533" lon="-4.809700">
        <ele>2313.0</ele>
        <time>2013-07-02T12:53:24Z</time>
      </trkpt>
      <trkpt lat="40.307533" lon="-4.809733">
        <ele>2314.0</ele>
        <time>2013-07-02T12:53:25Z</time>
      </trkpt>
      <trkpt lat="40.307517" lon="-4.809783">
        <ele>2315.0</ele>
        <time>2013-07-02T12:53:26Z</time>
      </trkpt>
      <trkpt lat="40.307517" lon="-4.809833">
        <ele>2314.0</ele>
        <time>2013-07-02T12:53:27Z</time>
      </trkpt>
      <trkpt lat="40.307533" lon="-4.809883">
        <ele>2316.0</ele>
        <time>2013-07-02T12:53:28Z</time>
      </trkpt>
      <trkpt lat="40.307583" lon="-4.809950">
        <ele>2317.0</ele>
        <time>2013-07-02T12:53:29Z</time>
      </trkpt>
      <trkpt lat="40.307650" lon="-4.810017">
        <ele>2318.0</ele>
        <time>2013-07-02T12:53:30Z</time>
      </trkpt>
      <trkpt lat="40.307717" lon="-4.810050">
        <ele>2320.0</ele>
        <time>2013-07-02T12:53:31Z</time>
      </trkpt>
      <trkpt lat="40.307800" lon="-4.810083">
        <ele>2322.0</ele>
        <time>2013-07-02T12:53:32Z</time>
      </trkpt>
      <trkpt lat="40.307883" lon="-4.810083">
        <ele>2324.0</ele>
        <time>2013-07-02T12:53:33Z</time>
      </trkpt>
      <trkpt lat="40.307967" lon="-4.810083">
        <ele>2324.0</ele>
        <time>2013-07-02T12:53:34Z</time>
      </trkpt>
      <trkpt lat="40.308067" lon="-4.810067">
        <ele>2324.0</ele>
        <time>2013-07-02T12:53:35Z</time>
      </trkpt>
      <trkpt lat="40.308167" lon="-4.810050">
        <ele>2324.0</ele>
        <time>2013-07-02T12:53:36Z</time>
      </trkpt>
      <trkpt lat="40.308283" lon="-4.809983">
        <ele>2325.0</ele>
        <time>2013-07-02T12:53:37Z</time>
      </trkpt>
      <trkpt lat="40.308383" lon="-4.809917">
        <ele>2326.0</ele>
        <time>2013-07-02T12:53:38Z</time>
      </trkpt>
      <trkpt lat="40.308483" lon="-4.809817">
        <ele>2329.0</ele>
        <time>2013-07-02T12:53:39Z</time>
      </trkpt>
      <trkpt lat="40.308550" lon="-4.809717">
        <ele>2331.0</ele>
        <time>2013-07-02T12:53:40Z</time>
      </trkpt>
      <trkpt lat="40.308633" lon="-4.809633">
        <ele>2331.0</ele>
        <time>2013-07-02T12:53:41Z</time>
      </trkpt>
      <trkpt lat="40.308717" lon="-4.809533">
        <ele>2332.0</ele>
        <time>2013-07-02T12:53:42Z</time>
      </trkpt>
      <trkpt lat="40.308800" lon="-4.809417">
        <ele>2333.0</ele>
        <time>2013-07-02T12:53:43Z</time>
      </trkpt>
      <trkpt lat="40.308883" lon="-4.809300">
        <ele>2334.0</ele>
        <time>2013-07-02T12:53:44Z</time>
      </trkpt>
      <trkpt lat="40.308950" lon="-4.809167">
        <ele>2335.0</ele>
        <time>2013-07-02T12:53:45Z</time>
      </trkpt>
      <trkpt lat="40.309000" lon="-4.809033">
        <ele>2336.0</ele>
        <time>2013-07-02T12:53:46Z</time>
      </trkpt>
      <trkpt lat="40.309050" lon="-4.808900">
        <ele>2337.0</ele>
        <time>2013-07-02T12:53:47Z</time>
      </trkpt>
      <trkpt lat="40.309083" lon="-4.808767">
        <ele>2338.0</ele>
        <time>2013-07-02T12:53:48Z</time>
      </trkpt>
      <trkpt lat="40.309117" lon="-4.808633">
        <ele>2339.0</ele>
        <time>2013-07-02T12:53:49Z</time>
      </trkpt>
      <trkpt lat="40.309150" lon="-4.808500">
        <ele>2339.0</ele>
        <time>2013-07-02T12:53:50Z</time>
      </trkpt>
      <trkpt lat="40.309167" lon="-4.808350">
        <ele>2339.0</ele>
        <time>2013-07-02T12:53:51Z</time>
      </trkpt>
      <trkpt lat="40.309183" lon="-4.808200">
        <ele>2339.0</ele>
        <time>2013-07-02T12:53:52Z</time>
      </trkpt>
      <trkpt lat="40.309183" lon="-4.808033">
        <ele>2339.0</ele>
        <time>2013-07-02T12:53:53Z</time>
      </trkpt>
      <trkpt lat="40.309183" lon="-4.807883">
        <ele>2340.0</ele>
        <time>2013-07-02T12:53:54Z</time>
      </trkpt>
      <trkpt lat="40.309167" lon="-4.807750">
        <ele>2342.0</ele>
        <time>2013-07-02T12:53:55Z</time>
      </trkpt>
      <trkpt lat="40.309150" lon="-4.807617">
        <ele>2344.0</ele>
        <time>2013-07-02T12:53:56Z</time>
      </trkpt>
      <trkpt lat="40.309133" lon="-4.807500">
        <ele>2345.0</ele>
        <time>2013-07-02T12:53:57Z</time>
      </trkpt>
      <trkpt lat="40.309117" lon="-4.807383">
        <ele>2347.0</ele>
        <time>2013-07-02T12:53:58Z</time>
      </trkpt>
      <trkpt lat="40.309083" lon="-4.807267">
        <ele>2349.0</ele>
        <time>2013-07-02T12:53:59Z</time>
      </trkpt>
      <trkpt lat="40.309083" lon="-4.807167">
        <ele>2353.0</ele>
        <time>2013-07-02T12:54:00Z</time>
      </trkpt>
      <trkpt lat="40.309083" lon="-4.807083">
        <ele>2355.0</ele>
        <time>2013-07-02T12:54:01Z</time>
      </trkpt>
      <trkpt lat="40.309083" lon="-4.806983">
        <ele>2357.0</ele>
        <time>2013-07-02T12:54:02Z</time>
      </trkpt>
      <trkpt lat="40.309083" lon="-4.806883">
        <ele>2359.0</ele>
        <time>2013-07-02T12:54:03Z</time>
      </trkpt>
      <trkpt lat="40.309050" lon="-4.806783">
        <ele>2360.0</ele>
        <time>2013-07-02T12:54:04Z</time>
      </trkpt>
      <trkpt lat="40.309033" lon="-4.806700">
        <ele>2362.0</ele>
        <time>2013-07-02T12:54:05Z</time>
      </trkpt>
      <trkpt lat="40.309017" lon="-4.806633">
        <ele>2363.0</ele>
        <time>2013-07-02T12:54:06Z</time>
      </trkpt>
      <trkpt lat="40.309000" lon="-4.806583">
        <ele>2364.0</ele>
        <time>2013-07-02T12:54:07Z</time>
      </trkpt>
      <trkpt lat="40.308983" lon="-4.806550">
        <ele>2365.0</ele>
        <time>2013-07-02T12:54:08Z</time>
      </trkpt>
      <trkpt lat="40.308967" lon="-4.806517">
        <ele>2366.0</ele>
        <time>2013-07-02T12:54:09Z</time>
      </trkpt>
      <trkpt lat="40.308917" lon="-4.806500">
        <ele>2367.0</ele>
        <time>2013-07-02T12:54:10Z</time>
      </trkpt>
      <trkpt lat="40.308883" lon="-4.806517">
        <ele>2370.0</ele>
        <time>2013-07-02T12:54:11Z</time>
      </trkpt>
      <trkpt lat="40.308867" lon="-4.806533">
        <ele>2373.0</ele>
        <time>2013-07-02T12:54:12Z</time>
      </trkpt>
      <trkpt lat="40.308850" lon="-4.806533">
        <ele>2376.0</ele>
        <time>2013-07-02T12:54:13Z</time>
      </trkpt>
      <trkpt lat="40.308833" lon="-4.806533">
        <ele>2377.0</ele>
        <time>2013-07-02T12:54:14Z</time>
      </trkpt>
      <trkpt lat="40.308817" lon="-4.806517">
        <ele>2377.0</ele>
        <time>2013-07-02T12:54:15Z</time>
      </trkpt>
      <trkpt lat="40.308783" lon="-4.806533">
        <ele>2377.0</ele>
        <time>2013-07-02T12:54:16Z</time>
      </trkpt>
      <trkpt lat="40.308750" lon="-4.806583">
        <ele>2378.0</ele>
        <time>2013-07-02T12:54:17Z</time>
      </trkpt>
      <trkpt lat="40.308767" lon="-4.806633">
        <ele>2379.0</ele>
        <time>2013-07-02T12:54:18Z</time>
      </trkpt>
      <trkpt lat="40.308767" lon="-4.806650">
        <ele>2380.0</ele>
        <time>2013-07-02T12:54:19Z</time>
      </trkpt>
      <trkpt lat="40.308783" lon="-4.806650">
        <ele>2381.0</ele>
        <time>2013-07-02T12:54:20Z</time>
      </trkpt>
      <trkpt lat="40.308783" lon="-4.806667">
        <ele>2380.0</ele>
        <time>2013-07-02T12:54:21Z</time>
      </trkpt>
      <trkpt lat="40.308800" lon="-4.806683">
        <ele>2378.0</ele>
        <time>2013-07-02T12:54:22Z</time>
      </trkpt>
      <trkpt lat="40.308833" lon="-4.806733">
        <ele>2375.0</ele>
        <time>2013-07-02T12:54:23Z</time>
      </trkpt>
      <trkpt lat="40.308867" lon="-4.806783">
        <ele>2373.0</ele>
        <time>2013-07-02T12:54:24Z</time>
      </trkpt>
      <trkpt lat="40.308917" lon="-4.806833">
        <ele>2372.0</ele>
        <time>2013-07-02T12:54:25Z</time>
      </trkpt>
      <trkpt lat="40.308933" lon="-4.806867">
        <ele>2371.0</ele>
        <time>2013-07-02T12:54:26Z</time>
      </trkpt>
      <trkpt lat="40.308933" lon="-4.806917">
        <ele>2371.0</ele>
        <time>2013-07-02T12:54:27Z</time>
      </trkpt>
      <trkpt lat="40.308933" lon="-4.806950">
        <ele>2370.0</ele>
        <time>2013-07-02T12:54:28Z</time>
      </trkpt>
      <trkpt lat="40.308900" lon="-4.806983">
        <ele>2368.0</ele>
        <time>2013-07-02T12:54:29Z</time>
      </trkpt>
      <trkpt lat="40.308850" lon="-4.806967">
        <ele>2367.0</ele>
        <time>2013-07-02T12:54:30Z</time>
      </trkpt>
      <trkpt lat="40.308800" lon="-4.806900">
        <ele>2365.0</ele>
        <time>2013-07-02T12:54:31Z</time>
      </trkpt>
      <trkpt lat="40.308750" lon="-4.806833">
        <ele>2364.0</ele>
        <time>2013-07-02T12:54:32Z</time>
      </trkpt>
      <trkpt lat="40.308700" lon="-4.806750">
        <ele>2362.0</ele>
        <time>2013-07-02T12:54:33Z</time>
      </trkpt>
      <trkpt lat="40.308650" lon="-4.806683">
        <ele>2361.0</ele>
        <time>2013-07-02T12:54:34Z</time>
      </trkpt>
      <trkpt lat="40.308583" lon="-4.806633">
        <ele>2359.0</ele>
        <time>2013-07-02T12:54:35Z</time>
      </trkpt>
      <trkpt lat="40.308517" lon="-4.806550">
        <ele>2358.0</ele>
        <time>2013-07-02T12:54:36Z</time>
      </trkpt>
      <trkpt lat="40.308450" lon="-4.806433">
        <ele>2357.0</ele>
        <time>2013-07-02T12:54:37Z</time>
      </trkpt>
      <trkpt lat="40.308400" lon="-4.806333">
        <ele>2356.0</ele>
        <time>2013-07-02T12:54:38Z</time>
      </trkpt>
      <trkpt lat="40.308367" lon="-4.806233">
        <ele>2355.0</ele>
        <time>2013-07-02T12:54:39Z</time>
      </trkpt>
      <trkpt lat="40.308317" lon="-4.806167">
        <ele>2354.0</ele>
        <time>2013-07-02T12:54:40Z</time>
      </trkpt>
      <trkpt lat="40.308250" lon="-4.806083">
        <ele>2353.0</ele>
        <time>2013-07-02T12:54:41Z</time>
      </trkpt>
      <trkpt lat="40.308167" lon="-4.806000">
        <ele>2352.0</ele>
        <time>2013-07-02T12:54:42Z</time>
      </trkpt>
      <trkpt lat="40.308100" lon="-4.805883">
        <ele>2352.0</ele>
        <time>2013-07-02T12:54:43Z</time>
      </trkpt>
      <trkpt lat="40.308050" lon="-4.805783">
        <ele>2355.0</ele>
        <time>2013-07-02T12:54:44Z</time>
      </trkpt>
      <trkpt lat="40.308017" lon="-4.805683">
        <ele>2358.0</ele>
        <time>2013-07-02T12:54:45Z</time>
      </trkpt>
      <trkpt lat="40.307983" lon="-4.805617">
        <ele>2360.0</ele>
        <time>2013-07-02T12:54:46Z</time>
      </trkpt>
      <trkpt lat="40.307950" lon="-4.805533">
        <ele>2361.0</ele>
        <time>2013-07-02T12:54:47Z</time>
      </trkpt>
      <trkpt lat="40.307917" lon="-4.805450">
        <ele>2362.0</ele>
        <time>2013-07-02T12:54:48Z</time>
      </trkpt>
      <trkpt lat="40.307883" lon="-4.805350">
        <ele>2363.0</ele>
        <time>2013-07-02T12:54:49Z</time>
      </trkpt>
      <trkpt lat="40.307867" lon="-4.805233">
        <ele>2363.0</ele>
        <time>2013-07-02T12:54:50Z</time>
      </trkpt>
      <trkpt lat="40.307867" lon="-4.805083">
        <ele>2363.0</ele>
        <time>2013-07-02T12:54:51Z</time>
      </trkpt>
      <trkpt lat="40.307900" lon="-4.804917">
        <ele>2364.0</ele>
        <time>2013-07-02T12:54:52Z</time>
      </trkpt>
      <trkpt lat="40.307950" lon="-4.804767">
        <ele>2365.0</ele>
        <time>2013-07-02T12:54:53Z</time>
      </trkpt>
      <trkpt lat="40.308033" lon="-4.804650">
        <ele>2366.0</ele>
        <time>2013-07-02T12:54:54Z</time>
      </trkpt>
      <trkpt lat="40.308133" lon="-4.804550">
        <ele>2366.0</ele>
        <time>2013-07-02T12:54:55Z</time>
      </trkpt>
      <trkpt lat="40.308233" lon="-4.804483">
        <ele>2365.0</ele>
        <time>2013-07-02T12:54:56Z</time>
      </trkpt>
      <trkpt lat="40.308333" lon="-4.804450">
        <ele>2364.0</ele>
        <time>2013-07-02T12:54:57Z</time>
      </trkpt>
      <trkpt lat="40.308450" lon="-4.804433">
        <ele>2363.0</ele>
        <time>2013-07-02T12:54:58Z</time>
      </trkpt>
      <trkpt lat="40.308550" lon="-4.804450">
        <ele>2363.0</ele>
        <time>2013-07-02T12:54:59Z</time>
      </trkpt>
      <trkpt lat="40.308650" lon="-4.804483">
        <ele>2363.0</ele>
        <time>2013-07-02T12:55:00Z</time>
      </trkpt>
      <trkpt lat="40.308717" lon="-4.804517">
        <ele>2363.0</ele>
        <time>2013-07-02T12:55:01Z</time>
      </trkpt>
      <trkpt lat="40.308767" lon="-4.804567">
        <ele>2363.0</ele>
        <time>2013-07-02T12:55:02Z</time>
      </trkpt>
      <trkpt lat="40.308817" lon="-4.804617">
        <ele>2363.0</ele>
        <time>2013-07-02T12:55:03Z</time>
      </trkpt>
      <trkpt lat="40.308850" lon="-4.804667">
        <ele>2363.0</ele>
        <time>2013-07-02T12:55:04Z</time>
      </trkpt>
      <trkpt lat="40.308867" lon="-4.804717">
        <ele>2362.0</ele>
        <time>2013-07-02T12:55:05Z</time>
      </trkpt>
      <trkpt lat="40.308867" lon="-4.804767">
        <ele>2362.0</ele>
        <time>2013-07-02T12:55:06Z</time>
      </trkpt>
      <trkpt lat="40.308833" lon="-4.804817">
        <ele>2362.0</ele>
        <time>2013-07-02T12:55:07Z</time>
      </trkpt>
      <trkpt lat="40.308783" lon="-4.804817">
        <ele>2362.0</ele>
        <time>2013-07-02T12:55:08Z</time>
      </trkpt>
      <trkpt lat="40.308717" lon="-4.804817">
        <ele>2362.0</ele>
        <time>2013-07-02T12:55:09Z</time>
      </trkpt>
      <trkpt lat="40.308650" lon="-4.804767">
        <ele>2362.0</ele>
        <time>2013-07-02T12:55:10Z</time>
      </trkpt>
      <trkpt lat="40.308583" lon="-4.804733">
        <ele>2361.0</ele>
        <time>2013-07-02T12:55:11Z</time>
      </trkpt>
      <trkpt lat="40.308517" lon="-4.804683">
        <ele>2361.0</ele>
        <time>2013-07-02T12:55:12Z</time>
      </trkpt>
      <trkpt lat="40.308433" lon="-4.804650">
        <ele>2361.0</ele>
        <time>2013-07-02T12:55:13Z</time>
      </trkpt>
      <trkpt lat="40.308367" lon="-4.804583">
        <ele>2359.0</ele>
        <time>2013-07-02T12:55:14Z</time>
      </trkpt>
      <trkpt lat="40.308300" lon="-4.804533">
        <ele>2358.0</ele>
        <time>2013-07-02T12:55:15Z</time>
      </trkpt>
      <trkpt lat="40.308233" lon="-4.804467">
        <ele>2356.0</ele>
        <time>2013-07-02T12:55:16Z</time>
      </trkpt>
      <trkpt lat="40.308150" lon="-4.804417">
        <ele>2355.0</ele>
        <time>2013-07-02T12:55:17Z</time>
      </trkpt>
      <trkpt lat="40.308083" lon="-4.804367">
        <ele>2352.0</ele>
        <time>2013-07-02T12:55:18Z</time>
      </trkpt>
      <trkpt lat="40.308000" lon="-4.804300">
        <ele>2350.0</ele>
        <time>2013-07-02T12:55:19Z</time>
      </trkpt>
      <trkpt lat="40.307917" lon="-4.804217">
        <ele>2347.0</ele>
        <time>2013-07-02T12:55:20Z</time>
      </trkpt>
      <trkpt lat="40.307850" lon="-4.804150">
        <ele>2345.0</ele>
        <time>2013-07-02T12:55:21Z</time>
      </trkpt>
      <trkpt lat="40.307767" lon="-4.804067">
        <ele>2343.0</ele>
        <time>2013-07-02T12:55:22Z</time>
      </trkpt>
      <trkpt lat="40.307700" lon="-4.803983">
        <ele>2341.0</ele>
        <time>2013-07-02T12:55:23Z</time>
      </trkpt>
      <trkpt lat="40.307633" lon="-4.803917">
        <ele>2340.0</ele>
        <time>2013-07-02T12:55:24Z</time>
      </trkpt>
      <trkpt lat="40.307567" lon="-4.803867">
        <ele>2338.0</ele>
        <time>2013-07-02T12:55:25Z</time>
      </trkpt>
      <trkpt lat="40.307483" lon="-4.803817">
        <ele>2336.0</ele>
        <time>2013-07-02T12:55:26Z</time>
      </trkpt>
      <trkpt lat="40.307417" lon="-4.803767">
        <ele>2334.0</ele>
        <time>2013-07-02T12:55:27Z</time>
      </trkpt>
      <trkpt lat="40.307333" lon="-4.803700">
        <ele>2333.0</ele>
        <time>2013-07-02T12:55:28Z</time>
      </trkpt>
      <trkpt lat="40.307267" lon="-4.803633">
        <ele>2333.0</ele>
        <time>2013-07-02T12:55:29Z</time>
      </trkpt>
      <trkpt lat="40.307200" lon="-4.803583">
        <ele>2332.0</ele>
        <time>2013-07-02T12:55:30Z</time>
      </trkpt>
      <trkpt lat="40.307133" lon="-4.803517">
        <ele>2332.0</ele>
        <time>2013-07-02T12:55:31Z</time>
      </trkpt>
      <trkpt lat="40.307067" lon="-4.803450">
        <ele>2331.0</ele>
        <time>2013-07-02T12:55:32Z</time>
      </trkpt>
      <trkpt lat="40.307017" lon="-4.803383">
        <ele>2331.0</ele>
        <time>2013-07-02T12:55:33Z</time>
      </trkpt>
      <trkpt lat="40.306950" lon="-4.803317">
        <ele>2329.0</ele>
        <time>2013-07-02T12:55:34Z</time>
      </trkpt>
      <trkpt lat="40.306867" lon="-4.803250">
        <ele>2327.0</ele>
        <time>2013-07-02T12:55:35Z</time>
      </trkpt>
      <trkpt lat="40.306800" lon="-4.803183">
        <ele>2326.0</ele>
        <time>2013-07-02T12:55:36Z</time>
      </trkpt>
      <trkpt lat="40.306717" lon="-4.803117">
        <ele>2324.0</ele>
        <time>2013-07-02T12:55:37Z</time>
      </trkpt>
      <trkpt lat="40.306650" lon="-4.803050">
        <ele>2323.0</ele>
        <time>2013-07-02T12:55:38Z</time>
      </trkpt>
      <trkpt lat="40.306583" lon="-4.802967">
        <ele>2321.0</ele>
        <time>2013-07-02T12:55:39Z</time>
      </trkpt>
      <trkpt lat="40.306500" lon="-4.802900">
        <ele>2319.0</ele>
        <time>2013-07-02T12:55:40Z</time>
      </trkpt>
      <trkpt lat="40.306417" lon="-4.802817">
        <ele>2316.0</ele>
        <time>2013-07-02T12:55:41Z</time>
      </trkpt>
      <trkpt lat="40.306333" lon="-4.802750">
        <ele>2313.0</ele>
        <time>2013-07-02T12:55:42Z</time>
      </trkpt>
      <trkpt lat="40.306250" lon="-4.802683">
        <ele>2312.0</ele>
        <time>2013-07-02T12:55:43Z</time>
      </trkpt>
      <trkpt lat="40.306200" lon="-4.802617">
        <ele>2311.0</ele>
        <time>2013-07-02T12:55:44Z</time>
      </trkpt>
      <trkpt lat="40.306133" lon="-4.802533">
        <ele>2309.0</ele>
        <time>2013-07-02T12:55:45Z</time>
      </trkpt>
      <trkpt lat="40.306067" lon="-4.802450">
        <ele>2306.0</ele>
        <time>2013-07-02T12:55:46Z</time>
      </trkpt>
      <trkpt lat="40.305983" lon="-4.802383">
        <ele>2303.0</ele>
        <time>2013-07-02T12:55:47Z</time>
      </trkpt>
      <trkpt lat="40.305883" lon="-4.802317">
        <ele>2300.0</ele>
        <time>2013-07-02T12:55:48Z</time>
      </trkpt>
      <trkpt lat="40.305783" lon="-4.802250">
        <ele>2298.0</ele>
        <time>2013-07-02T12:55:49Z</time>
      </trkpt>
      <trkpt lat="40.305700" lon="-4.802167">
        <ele>2298.0</ele>
        <time>2013-07-02T12:55:50Z</time>
      </trkpt>
      <trkpt lat="40.305633" lon="-4.802100">
        <ele>2298.0</ele>
        <time>2013-07-02T12:55:51Z</time>
      </trkpt>
      <trkpt lat="40.305567" lon="-4.802033">
        <ele>2297.0</ele>
        <time>2013-07-02T12:55:52Z</time>
      </trkpt>
      <trkpt lat="40.305500" lon="-4.801933">
        <ele>2297.0</ele>
        <time>2013-07-02T12:55:53Z</time>
      </trkpt>
      <trkpt lat="40.305417" lon="-4.801850">
        <ele>2293.0</ele>
        <time>2013-07-02T12:55:54Z</time>
      </trkpt>
      <trkpt lat="40.305333" lon="-4.801767">
        <ele>2290.0</ele>
        <time>2013-07-02T12:55:55Z</time>
      </trkpt>
      <trkpt lat="40.305217" lon="-4.801700">
        <ele>2288.0</ele>
        <time>2013-07-02T12:55:56Z</time>
      </trkpt>
      <trkpt lat="40.305117" lon="-4.801650">
        <ele>2285.0</ele>
        <time>2013-07-02T12:55:57Z</time>
      </trkpt>
      <trkpt lat="40.305033" lon="-4.801583">
        <ele>2284.0</ele>
        <time>2013-07-02T12:55:58Z</time>
      </trkpt>
      <trkpt lat="40.304933" lon="-4.801517">
        <ele>2282.0</ele>
        <time>2013-07-02T12:55:59Z</time>
      </trkpt>
      <trkpt lat="40.304850" lon="-4.801433">
        <ele>2280.0</ele>
        <time>2013-07-02T12:56:00Z</time>
      </trkpt>
      <trkpt lat="40.304767" lon="-4.801383">
        <ele>2277.0</ele>
        <time>2013-07-02T12:56:01Z</time>
      </trkpt>
      <trkpt lat="40.304667" lon="-4.801317">
        <ele>2275.0</ele>
        <time>2013-07-02T12:56:02Z</time>
      </trkpt>
      <trkpt lat="40.304583" lon="-4.801267">
        <ele>2272.0</ele>
        <time>2013-07-02T12:56:03Z</time>
      </trkpt>
      <trkpt lat="40.304483" lon="-4.801217">
        <ele>2271.0</ele>
        <time>2013-07-02T12:56:04Z</time>
      </trkpt>
      <trkpt lat="40.304400" lon="-4.801150">
        <ele>2269.0</ele>
        <time>2013-07-02T12:56:05Z</time>
      </trkpt>
      <trkpt lat="40.304333" lon="-4.801117">
        <ele>2268.0</ele>
        <time>2013-07-02T12:56:06Z</time>
      </trkpt>
      <trkpt lat="40.304267" lon="-4.801067">
        <ele>2266.0</ele>
        <time>2013-07-02T12:56:07Z</time>
      </trkpt>
      <trkpt lat="40.304167" lon="-4.801033">
        <ele>2262.0</ele>
        <time>2013-07-02T12:56:08Z</time>
      </trkpt>
      <trkpt lat="40.304083" lon="-4.801000">
        <ele>2258.0</ele>
        <time>2013-07-02T12:56:09Z</time>
      </trkpt>
      <trkpt lat="40.303983" lon="-4.800950">
        <ele>2255.0</ele>
        <time>2013-07-02T12:56:10Z</time>
      </trkpt>
      <trkpt lat="40.303883" lon="-4.800883">
        <ele>2253.0</ele>
        <time>2013-07-02T12:56:11Z</time>
      </trkpt>
      <trkpt lat="40.303800" lon="-4.800817">
        <ele>2253.0</ele>
        <time>2013-07-02T12:56:12Z</time>
      </trkpt>
      <trkpt lat="40.303717" lon="-4.800733">
        <ele>2252.0</ele>
        <time>2013-07-02T12:56:13Z</time>
      </trkpt>
      <trkpt lat="40.303650" lon="-4.800650">
        <ele>2250.0</ele>
        <time>2013-07-02T12:56:14Z</time>
      </trkpt>
      <trkpt lat="40.303567" lon="-4.800567">
        <ele>2248.0</ele>
        <time>2013-07-02T12:56:15Z</time>
      </trkpt>
      <trkpt lat="40.303500" lon="-4.800467">
        <ele>2246.0</ele>
        <time>2013-07-02T12:56:16Z</time>
      </trkpt>
      <trkpt lat="40.303417" lon="-4.800400">
        <ele>2243.0</ele>
        <time>2013-07-02T12:56:17Z</time>
      </trkpt>
      <trkpt lat="40.303333" lon="-4.800317">
        <ele>2241.0</ele>
        <time>2013-07-02T12:56:18Z</time>
      </trkpt>
      <trkpt lat="40.303250" lon="-4.800233">
        <ele>2238.0</ele>
        <time>2013-07-02T12:56:19Z</time>
      </trkpt>
      <trkpt lat="40.303183" lon="-4.800150">
        <ele>2236.0</ele>
        <time>2013-07-02T12:56:20Z</time>
      </trkpt>
      <trkpt lat="40.303100" lon="-4.800083">
        <ele>2233.0</ele>
        <time>2013-07-02T12:56:21Z</time>
      </trkpt>
      <trkpt lat="40.303017" lon="-4.800017">
        <ele>2230.0</ele>
        <time>2013-07-02T12:56:22Z</time>
      </trkpt>
      <trkpt lat="40.302933" lon="-4.799950">
        <ele>2227.0</ele>
        <time>2013-07-02T12:56:23Z</time>
      </trkpt>
      <trkpt lat="40.302833" lon="-4.799883">
        <ele>2224.0</ele>
        <time>2013-07-02T12:56:24Z</time>
      </trkpt>
      <trkpt lat="40.302750" lon="-4.799817">
        <ele>2222.0</ele>
        <time>2013-07-02T12:56:25Z</time>
      </trkpt>
      <trkpt lat="40.302667" lon="-4.799750">
        <ele>2220.0</ele>
        <time>2013-07-02T12:56:26Z</time>
      </trkpt>
      <trkpt lat="40.302583" lon="-4.799667">
        <ele>2218.0</ele>
        <time>2013-07-02T12:56:27Z</time>
      </trkpt>
      <trkpt lat="40.302500" lon="-4.799600">
        <ele>2215.0</ele>
        <time>2013-07-02T12:56:28Z</time>
      </trkpt>
      <trkpt lat="40.302417" lon="-4.799533">
        <ele>2213.0</ele>
        <time>2013-07-02T12:56:29Z</time>
      </trkpt>
      <trkpt lat="40.302350" lon="-4.799467">
        <ele>2210.0</ele>
        <time>2013-07-02T12:56:30Z</time>
      </trkpt>
      <trkpt lat="40.302250" lon="-4.799383">
        <ele>2207.0</ele>
        <time>2013-07-02T12:56:31Z</time>
      </trkpt>
      <trkpt lat="40.302167" lon="-4.799317">
        <ele>2204.0</ele>
        <time>2013-07-02T12:56:32Z</time>
      </trkpt>
      <trkpt lat="40.302067" lon="-4.799250">
        <ele>2201.0</ele>
        <time>2013-07-02T12:56:33Z</time>
      </trkpt>
      <trkpt lat="40.301967" lon="-4.799200">
        <ele>2198.0</ele>
        <time>2013-07-02T12:56:34Z</time>
      </trkpt>
      <trkpt lat="40.301883" lon="-4.799167">
        <ele>2195.0</ele>
        <time>2013-07-02T12:56:35Z</time>
      </trkpt>
      <trkpt lat="40.301783" lon="-4.799117">
        <ele>2193.0</ele>
        <time>2013-07-02T12:56:36Z</time>
      </trkpt>
      <trkpt lat="40.301700" lon="-4.799083">
        <ele>2191.0</ele>
        <time>2013-07-02T12:56:37Z</time>
      </trkpt>
      <trkpt lat="40.301600" lon="-4.799033">
        <ele>2189.0</ele>
        <time>2013-07-02T12:56:38Z</time>
      </trkpt>
      <trkpt lat="40.301517" lon="-4.798983">
        <ele>2187.0</ele>
        <time>2013-07-02T12:56:39Z</time>
      </trkpt>
      <trkpt lat="40.301433" lon="-4.798950">
        <ele>2185.0</ele>
        <time>2013-07-02T12:56:40Z</time>
      </trkpt>
      <trkpt lat="40.301333" lon="-4.798883">
        <ele>2183.0</ele>
        <time>2013-07-02T12:56:41Z</time>
      </trkpt>
      <trkpt lat="40.301250" lon="-4.798817">
        <ele>2181.0</ele>
        <time>2013-07-02T12:56:42Z</time>
      </trkpt>
      <trkpt lat="40.301167" lon="-4.798733">
        <ele>2180.0</ele>
        <time>2013-07-02T12:56:43Z</time>
      </trkpt>
      <trkpt lat="40.301083" lon="-4.798650">
        <ele>2178.0</ele>
        <time>2013-07-02T12:56:44Z</time>
      </trkpt>
      <trkpt lat="40.301017" lon="-4.798567">
        <ele>2177.0</ele>
        <time>2013-07-02T12:56:45Z</time>
      </trkpt>
      <trkpt lat="40.300933" lon="-4.798483">
        <ele>2175.0</ele>
        <time>2013-07-02T12:56:46Z</time>
      </trkpt>
      <trkpt lat="40.300850" lon="-4.798383">
        <ele>2173.0</ele>
        <time>2013-07-02T12:56:47Z</time>
      </trkpt>
      <trkpt lat="40.300767" lon="-4.798283">
        <ele>2171.0</ele>
        <time>2013-07-02T12:56:48Z</time>
      </trkpt>
      <trkpt lat="40.300683" lon="-4.798200">
        <ele>2170.0</ele>
        <time>2013-07-02T12:56:49Z</time>
      </trkpt>
      <trkpt lat="40.300617" lon="-4.798117">
        <ele>2169.0</ele>
        <time>2013-07-02T12:56:50Z</time>
      </trkpt>
      <trkpt lat="40.300533" lon="-4.798050">
        <ele>2168.0</ele>
        <time>2013-07-02T12:56:51Z</time>
      </trkpt>
      <trkpt lat="40.300450" lon="-4.797967">
        <ele>2168.0</ele>
        <time>2013-07-02T12:56:52Z</time>
      </trkpt>
      <trkpt lat="40.300367" lon="-4.797900">
        <ele>2167.0</ele>
        <time>2013-07-02T12:56:53Z</time>
      </trkpt>
      <trkpt lat="40.300283" lon="-4.797833">
        <ele>2165.0</ele>
        <time>2013-07-02T12:56:54Z</time>
      </trkpt>
      <trkpt lat="40.300200" lon="-4.797783">
        <ele>2164.0</ele>
        <time>2013-07-02T12:56:55Z</time>
      </trkpt>
      <trkpt lat="40.300133" lon="-4.797733">
        <ele>2162.0</ele>
        <time>2013-07-02T12:56:56Z</time>
      </trkpt>
      <trkpt lat="40.300050" lon="-4.797683">
        <ele>2160.0</ele>
        <time>2013-07-02T12:56:57Z</time>
      </trkpt>
      <trkpt lat="40.299967" lon="-4.797633">
        <ele>2159.0</ele>
        <time>2013-07-02T12:56:58Z</time>
      </trkpt>
      <trkpt lat="40.299883" lon="-4.797567">
        <ele>2159.0</ele>
        <time>2013-07-02T12:56:59Z</time>
      </trkpt>
      <trkpt lat="40.299800" lon="-4.797500">
        <ele>2158.0</ele>
        <time>2013-07-02T12:57:00Z</time>
      </trkpt>
      <trkpt lat="40.299717" lon="-4.797450">
        <ele>2156.0</ele>
        <time>2013-07-02T12:57:01Z</time>
      </trkpt>
      <trkpt lat="40.299650" lon="-4.797383">
        <ele>2155.0</ele>
        <time>2013-07-02T12:57:02Z</time>
      </trkpt>
      <trkpt lat="40.299567" lon="-4.797317">
        <ele>2154.0</ele>
        <time>2013-07-02T12:57:03Z</time>
      </trkpt>
      <trkpt lat="40.299483" lon="-4.797250">
        <ele>2152.0</ele>
        <time>2013-07-02T12:57:04Z</time>
      </trkpt>
      <trkpt lat="40.299417" lon="-4.797200">
        <ele>2151.0</ele>
        <time>2013-07-02T12:57:05Z</time>
      </trkpt>
      <trkpt lat="40.299333" lon="-4.797133">
        <ele>2149.0</ele>
        <time>2013-07-02T12:57:06Z</time>
      </trkpt>
      <trkpt lat="40.299250" lon="-4.797083">
        <ele>2147.0</ele>
        <time>2013-07-02T12:57:07Z</time>
      </trkpt>
      <trkpt lat="40.299167" lon="-4.797050">
        <ele>2146.0</ele>
        <time>2013-07-02T12:57:08Z</time>
      </trkpt>
      <trkpt lat="40.299067" lon="-4.797033">
        <ele>2144.0</ele>
        <time>2013-07-02T12:57:09Z</time>
      </trkpt>
      <trkpt lat="40.298983" lon="-4.797000">
        <ele>2144.0</ele>
        <time>2013-07-02T12:57:10Z</time>
      </trkpt>
      <trkpt lat="40.298917" lon="-4.796983">
        <ele>2144.0</ele>
        <time>2013-07-02T12:57:11Z</time>
      </trkpt>
      <trkpt lat="40.298867" lon="-4.796967">
        <ele>2143.0</ele>
        <time>2013-07-02T12:57:12Z</time>
      </trkpt>
      <trkpt lat="40.298800" lon="-4.796950">
        <ele>2142.0</ele>
        <time>2013-07-02T12:57:13Z</time>
      </trkpt>
      <trkpt lat="40.298733" lon="-4.796917">
        <ele>2140.0</ele>
        <time>2013-07-02T12:57:14Z</time>
      </trkpt>
      <trkpt lat="40.298650" lon="-4.796867">
        <ele>2138.0</ele>
        <time>2013-07-02T12:57:15Z</time>
      </trkpt>
      <trkpt lat="40.298583" lon="-4.796767">
        <ele>2137.0</ele>
        <time>2013-07-02T12:57:16Z</time>
      </trkpt>
      <trkpt lat="40.298533" lon="-4.796667">
        <ele>2137.0</ele>
        <time>2013-07-02T12:57:17Z</time>
      </trkpt>
      <trkpt lat="40.298483" lon="-4.796550">
        <ele>2136.0</ele>
        <time>2013-07-02T12:57:18Z</time>
      </trkpt>
      <trkpt lat="40.298433" lon="-4.796467">
        <ele>2135.0</ele>
        <time>2013-07-02T12:57:19Z</time>
      </trkpt>
      <trkpt lat="40.298367" lon="-4.796383">
        <ele>2134.0</ele>
        <time>2013-07-02T12:57:20Z</time>
      </trkpt>
      <trkpt lat="40.298300" lon="-4.796300">
        <ele>2133.0</ele>
        <time>2013-07-02T12:57:21Z</time>
      </trkpt>
      <trkpt lat="40.298233" lon="-4.796233">
        <ele>2131.0</ele>
        <time>2013-07-02T12:57:22Z</time>
      </trkpt>
      <trkpt lat="40.298167" lon="-4.796150">
        <ele>2130.0</ele>
        <time>2013-07-02T12:57:23Z</time>
      </trkpt>
      <trkpt lat="40.298100" lon="-4.796083">
        <ele>2129.0</ele>
        <time>2013-07-02T12:57:24Z</time>
      </trkpt>
      <trkpt lat="40.298033" lon="-4.796017">
        <ele>2127.0</ele>
        <time>2013-07-02T12:57:25Z</time>
      </trkpt>
      <trkpt lat="40.297967" lon="-4.795933">
        <ele>2125.0</ele>
        <time>2013-07-02T12:57:26Z</time>
      </trkpt>
      <trkpt lat="40.297900" lon="-4.795867">
        <ele>2123.0</ele>
        <time>2013-07-02T12:57:27Z</time>
      </trkpt>
      <trkpt lat="40.297833" lon="-4.795783">
        <ele>2122.0</ele>
        <time>2013-07-02T12:57:28Z</time>
      </trkpt>
      <trkpt lat="40.297767" lon="-4.795700">
        <ele>2120.0</ele>
        <time>2013-07-02T12:57:29Z</time>
      </trkpt>
      <trkpt lat="40.297683" lon="-4.795617">
        <ele>2118.0</ele>
        <time>2013-07-02T12:57:30Z</time>
      </trkpt>
      <trkpt lat="40.297617" lon="-4.795550">
        <ele>2117.0</ele>
        <time>2013-07-02T12:57:31Z</time>
      </trkpt>
      <trkpt lat="40.297550" lon="-4.795467">
        <ele>2115.0</ele>
        <time>2013-07-02T12:57:32Z</time>
      </trkpt>
      <trkpt lat="40.297467" lon="-4.795383">
        <ele>2114.0</ele>
        <time>2013-07-02T12:57:33Z</time>
      </trkpt>
      <trkpt lat="40.297400" lon="-4.795300">
        <ele>2112.0</ele>
        <time>2013-07-02T12:57:34Z</time>
      </trkpt>
      <trkpt lat="40.297333" lon="-4.795233">
        <ele>2111.0</ele>
        <time>2013-07-02T12:57:35Z</time>
      </trkpt>
      <trkpt lat="40.297250" lon="-4.795150">
        <ele>2110.0</ele>
        <time>2013-07-02T12:57:36Z</time>
      </trkpt>
      <trkpt lat="40.297183" lon="-4.795083">
        <ele>2108.0</ele>
        <time>2013-07-02T12:57:37Z</time>
      </trkpt>
      <trkpt lat="40.297100" lon="-4.795017">
        <ele>2107.0</ele>
        <time>2013-07-02T12:57:38Z</time>
      </trkpt>
      <trkpt lat="40.297033" lon="-4.794933">
        <ele>2106.0</ele>
        <time>2013-07-02T12:57:39Z</time>
      </trkpt>
      <trkpt lat="40.296967" lon="-4.794850">
        <ele>2104.0</ele>
        <time>2013-07-02T12:57:40Z</time>
      </trkpt>
      <trkpt lat="40.296883" lon="-4.794783">
        <ele>2102.0</ele>
        <time>2013-07-02T12:57:41Z</time>
      </trkpt>
      <trkpt lat="40.296817" lon="-4.794700">
        <ele>2101.0</ele>
        <time>2013-07-02T12:57:42Z</time>
      </trkpt>
      <trkpt lat="40.296733" lon="-4.794633">
        <ele>2098.0</ele>
        <time>2013-07-02T12:57:43Z</time>
      </trkpt>
      <trkpt lat="40.296650" lon="-4.794567">
        <ele>2096.0</ele>
        <time>2013-07-02T12:57:44Z</time>
      </trkpt>
      <trkpt lat="40.296567" lon="-4.794500">
        <ele>2094.0</ele>
        <time>2013-07-02T12:57:45Z</time>
      </trkpt>
      <trkpt lat="40.296500" lon="-4.794450">
        <ele>2091.0</ele>
        <time>2013-07-02T12:57:46Z</time>
      </trkpt>
      <trkpt lat="40.296417" lon="-4.794400">
        <ele>2088.0</ele>
        <time>2013-07-02T12:57:47Z</time>
      </trkpt>
      <trkpt lat="40.296333" lon="-4.794350">
        <ele>2085.0</ele>
        <time>2013-07-02T12:57:48Z</time>
      </trkpt>
      <trkpt lat="40.296250" lon="-4.794300">
        <ele>2082.0</ele>
        <time>2013-07-02T12:57:49Z</time>
      </trkpt>
      <trkpt lat="40.296167" lon="-4.794233">
        <ele>2079.0</ele>
        <time>2013-07-02T12:57:50Z</time>
      </trkpt>
      <trkpt lat="40.296083" lon="-4.794167">
        <ele>2077.0</ele>
        <time>2013-07-02T12:57:51Z</time>
      </trkpt>
      <trkpt lat="40.296000" lon="-4.794100">
        <ele>2076.0</ele>
        <time>2013-07-02T12:57:52Z</time>
      </trkpt>
      <trkpt lat="40.295933" lon="-4.794050">
        <ele>2075.0</ele>
        <time>2013-07-02T12:57:53Z</time>
      </trkpt>
      <trkpt lat="40.295867" lon="-4.793983">
        <ele>2073.0</ele>
        <time>2013-07-02T12:57:54Z</time>
      </trkpt>
      <trkpt lat="40.295783" lon="-4.793917">
        <ele>2071.0</ele>
        <time>2013-07-02T12:57:55Z</time>
      </trkpt>
      <trkpt lat="40.295717" lon="-4.793850">
        <ele>2068.0</ele>
        <time>2013-07-02T12:57:56Z</time>
      </trkpt>
      <trkpt lat="40.295633" lon="-4.793767">
        <ele>2065.0</ele>
        <time>2013-07-02T12:57:57Z</time>
      </trkpt>
      <trkpt lat="40.295533" lon="-4.793683">
        <ele>2063.0</ele>
        <time>2013-07-02T12:57:58Z</time>
      </trkpt>
      <trkpt lat="40.295450" lon="-4.793600">
        <ele>2061.0</ele>
        <time>2013-07-02T12:57:59Z</time>
      </trkpt>
      <trkpt lat="40.295367" lon="-4.793500">
        <ele>2058.0</ele>
        <time>2013-07-02T12:58:00Z</time>
      </trkpt>
      <trkpt lat="40.295283" lon="-4.793417">
        <ele>2055.0</ele>
        <time>2013-07-02T12:58:01Z</time>
      </trkpt>
      <trkpt lat="40.295183" lon="-4.793333">
        <ele>2053.0</ele>
        <time>2013-07-02T12:58:02Z</time>
      </trkpt>
      <trkpt lat="40.295100" lon="-4.793267">
        <ele>2051.0</ele>
        <time>2013-07-02T12:58:03Z</time>
      </trkpt>
      <trkpt lat="40.295000" lon="-4.793183">
        <ele>2049.0</ele>
        <time>2013-07-02T12:58:04Z</time>
      </trkpt>
      <trkpt lat="40.294900" lon="-4.793117">
        <ele>2046.0</ele>
        <time>2013-07-02T12:58:05Z</time>
      </trkpt>
      <trkpt lat="40.294817" lon="-4.793067">
        <ele>2045.0</ele>
        <time>2013-07-02T12:58:06Z</time>
      </trkpt>
      <trkpt lat="40.294717" lon="-4.793000">
        <ele>2042.0</ele>
        <time>2013-07-02T12:58:07Z</time>
      </trkpt>
      <trkpt lat="40.294617" lon="-4.792950">
        <ele>2040.0</ele>
        <time>2013-07-02T12:58:08Z</time>
      </trkpt>
      <trkpt lat="40.294533" lon="-4.792900">
        <ele>2038.0</ele>
        <time>2013-07-02T12:58:09Z</time>
      </trkpt>
      <trkpt lat="40.294433" lon="-4.792833">
        <ele>2036.0</ele>
        <time>2013-07-02T12:58:10Z</time>
      </trkpt>
      <trkpt lat="40.294350" lon="-4.792767">
        <ele>2034.0</ele>
        <time>2013-07-02T12:58:11Z</time>
      </trkpt>
      <trkpt lat="40.294283" lon="-4.792700">
        <ele>2032.0</ele>
        <time>2013-07-02T12:58:12Z</time>
      </trkpt>
      <trkpt lat="40.294200" lon="-4.792650">
        <ele>2030.0</ele>
        <time>2013-07-02T12:58:13Z</time>
      </trkpt>
      <trkpt lat="40.294117" lon="-4.792583">
        <ele>2027.0</ele>
        <time>2013-07-02T12:58:14Z</time>
      </trkpt>
      <trkpt lat="40.294033" lon="-4.792517">
        <ele>2023.0</ele>
        <time>2013-07-02T12:58:15Z</time>
      </trkpt>
      <trkpt lat="40.293950" lon="-4.792467">
        <ele>2020.0</ele>
        <time>2013-07-02T12:58:16Z</time>
      </trkpt>
      <trkpt lat="40.293850" lon="-4.792417">
        <ele>2018.0</ele>
        <time>2013-07-02T12:58:17Z</time>
      </trkpt>
      <trkpt lat="40.293767" lon="-4.792350">
        <ele>2016.0</ele>
        <time>2013-07-02T12:58:18Z</time>
      </trkpt>
      <trkpt lat="40.293667" lon="-4.792300">
        <ele>2014.0</ele>
        <time>2013-07-02T12:58:19Z</time>
      </trkpt>
      <trkpt lat="40.293583" lon="-4.792233">
        <ele>2012.0</ele>
        <time>2013-07-02T12:58:20Z</time>
      </trkpt>
      <trkpt lat="40.293500" lon="-4.792167">
        <ele>2011.0</ele>
        <time>2013-07-02T12:58:21Z</time>
      </trkpt>
      <trkpt lat="40.293417" lon="-4.792100">
        <ele>2009.0</ele>
        <time>2013-07-02T12:58:22Z</time>
      </trkpt>
      <trkpt lat="40.293333" lon="-4.792067">
        <ele>2005.0</ele>
        <time>2013-07-02T12:58:23Z</time>
      </trkpt>
      <trkpt lat="40.293250" lon="-4.792017">
        <ele>2001.0</ele>
        <time>2013-07-02T12:58:24Z</time>
      </trkpt>
      <trkpt lat="40.293150" lon="-4.791950">
        <ele>1998.0</ele>
        <time>2013-07-02T12:58:25Z</time>
      </trkpt>
      <trkpt lat="40.293050" lon="-4.791883">
        <ele>1996.0</ele>
        <time>2013-07-02T12:58:26Z</time>
      </trkpt>
      <trkpt lat="40.292967" lon="-4.791817">
        <ele>1994.0</ele>
        <time>2013-07-02T12:58:27Z</time>
      </trkpt>
      <trkpt lat="40.292883" lon="-4.791750">
        <ele>1993.0</ele>
        <time>2013-07-02T12:58:28Z</time>
      </trkpt>
      <trkpt lat="40.292800" lon="-4.791683">
        <ele>1993.0</ele>
        <time>2013-07-02T12:58:29Z</time>
      </trkpt>
      <trkpt lat="40.292733" lon="-4.791617">
        <ele>1991.0</ele>
        <time>2013-07-02T12:58:30Z</time>
      </trkpt>
      <trkpt lat="40.292667" lon="-4.791550">
        <ele>1989.0</ele>
        <time>2013-07-02T12:58:31Z</time>
      </trkpt>
      <trkpt lat="40.292583" lon="-4.791483">
        <ele>1985.0</ele>
        <time>2013-07-02T12:58:32Z</time>
      </trkpt>
      <trkpt lat="40.292500" lon="-4.791400">
        <ele>1983.0</ele>
        <time>2013-07-02T12:58:33Z</time>
      </trkpt>
      <trkpt lat="40.292417" lon="-4.791333">
        <ele>1982.0</ele>
        <time>2013-07-02T12:58:34Z</time>
      </trkpt>
      <trkpt lat="40.292333" lon="-4.791283">
        <ele>1980.0</ele>
        <time>2013-07-02T12:58:35Z</time>
      </trkpt>
      <trkpt lat="40.292267" lon="-4.791217">
        <ele>1979.0</ele>
        <time>2013-07-02T12:58:36Z</time>
      </trkpt>
      <trkpt lat="40.292200" lon="-4.791133">
        <ele>1976.0</ele>
        <time>2013-07-02T12:58:37Z</time>
      </trkpt>
      <trkpt lat="40.292117" lon="-4.791050">
        <ele>1973.0</ele>
        <time>2013-07-02T12:58:38Z</time>
      </trkpt>
      <trkpt lat="40.292033" lon="-4.790967">
        <ele>1970.0</ele>
        <time>2013-07-02T12:58:39Z</time>
      </trkpt>
      <trkpt lat="40.291933" lon="-4.790883">
        <ele>1968.0</ele>
        <time>2013-07-02T12:58:40Z</time>
      </trkpt>
      <trkpt lat="40.291850" lon="-4.790833">
        <ele>1966.0</ele>
        <time>2013-07-02T12:58:41Z</time>
      </trkpt>
      <trkpt lat="40.291783" lon="-4.790767">
        <ele>1964.0</ele>
        <time>2013-07-02T12:58:42Z</time>
      </trkpt>
      <trkpt lat="40.291700" lon="-4.790700">
        <ele>1962.0</ele>
        <time>2013-07-02T12:58:43Z</time>
      </trkpt>
      <trkpt lat="40.291617" lon="-4.790633">
        <ele>1960.0</ele>
        <time>2013-07-02T12:58:44Z</time>
      </trkpt>
      <trkpt lat="40.291533" lon="-4.790567">
        <ele>1957.0</ele>
        <time>2013-07-02T12:58:45Z</time>
      </trkpt>
      <trkpt lat="40.291433" lon="-4.790500">
        <ele>1955.0</ele>
        <time>2013-07-02T12:58:46Z</time>
      </trkpt>
      <trkpt lat="40.291350" lon="-4.790450">
        <ele>1954.0</ele>
        <time>2013-07-02T12:58:47Z</time>
      </trkpt>
      <trkpt lat="40.291267" lon="-4.790400">
        <ele>1953.0</ele>
        <time>2013-07-02T12:58:48Z</time>
      </trkpt>
      <trkpt lat="40.291200" lon="-4.790333">
        <ele>1953.0</ele>
        <time>2013-07-02T12:58:49Z</time>
      </trkpt>
      <trkpt lat="40.291117" lon="-4.790283">
        <ele>1951.0</ele>
        <time>2013-07-02T12:58:50Z</time>
      </trkpt>
      <trkpt lat="40.291050" lon="-4.790233">
        <ele>1949.0</ele>
        <time>2013-07-02T12:58:51Z</time>
      </trkpt>
      <trkpt lat="40.290967" lon="-4.790183">
        <ele>1947.0</ele>
        <time>2013-07-02T12:58:52Z</time>
      </trkpt>
      <trkpt lat="40.290867" lon="-4.790133">
        <ele>1945.0</ele>
        <time>2013-07-02T12:58:53Z</time>
      </trkpt>
      <trkpt lat="40.290783" lon="-4.790100">
        <ele>1943.0</ele>
        <time>2013-07-02T12:58:54Z</time>
      </trkpt>
      <trkpt lat="40.290717" lon="-4.790050">
        <ele>1941.0</ele>
        <time>2013-07-02T12:58:55Z</time>
      </trkpt>
      <trkpt lat="40.290633" lon="-4.790000">
        <ele>1939.0</ele>
        <time>2013-07-02T12:58:56Z</time>
      </trkpt>
      <trkpt lat="40.290567" lon="-4.789967">
        <ele>1937.0</ele>
        <time>2013-07-02T12:58:57Z</time>
      </trkpt>
      <trkpt lat="40.290483" lon="-4.789917">
        <ele>1936.0</ele>
        <time>2013-07-02T12:58:58Z</time>
      </trkpt>
      <trkpt lat="40.290417" lon="-4.789867">
        <ele>1935.0</ele>
        <time>2013-07-02T12:58:59Z</time>
      </trkpt>
      <trkpt lat="40.290367" lon="-4.789800">
        <ele>1934.0</ele>
        <time>2013-07-02T12:59:00Z</time>
      </trkpt>
      <trkpt lat="40.290300" lon="-4.789733">
        <ele>1932.0</ele>
        <time>2013-07-02T12:59:01Z</time>
      </trkpt>
      <trkpt lat="40.290217" lon="-4.789683">
        <ele>1931.0</ele>
        <time>2013-07-02T12:59:02Z</time>
      </trkpt>
      <trkpt lat="40.290133" lon="-4.789633">
        <ele>1930.0</ele>
        <time>2013-07-02T12:59:03Z</time>
      </trkpt>
      <trkpt lat="40.290067" lon="-4.789583">
        <ele>1929.0</ele>
        <time>2013-07-02T12:59:04Z</time>
      </trkpt>
      <trkpt lat="40.290000" lon="-4.789517">
        <ele>1928.0</ele>
        <time>2013-07-02T12:59:05Z</time>
      </trkpt>
      <trkpt lat="40.289933" lon="-4.789467">
        <ele>1928.0</ele>
        <time>2013-07-02T12:59:06Z</time>
      </trkpt>
      <trkpt lat="40.289850" lon="-4.789433">
        <ele>1927.0</ele>
        <time>2013-07-02T12:59:07Z</time>
      </trkpt>
      <trkpt lat="40.289783" lon="-4.789383">
        <ele>1926.0</ele>
        <time>2013-07-02T12:59:08Z</time>
      </trkpt>
      <trkpt lat="40.289717" lon="-4.789333">
        <ele>1926.0</ele>
        <time>2013-07-02T12:59:09Z</time>
      </trkpt>
      <trkpt lat="40.289650" lon="-4.789300">
        <ele>1925.0</ele>
        <time>2013-07-02T12:59:10Z</time>
      </trkpt>
      <trkpt lat="40.289567" lon="-4.789267">
        <ele>1925.0</ele>
        <time>2013-07-02T12:59:11Z</time>
      </trkpt>
      <trkpt lat="40.289500" lon="-4.789233">
        <ele>1924.0</ele>
        <time>2013-07-02T12:59:12Z</time>
      </trkpt>
      <trkpt lat="40.289417" lon="-4.789200">
        <ele>1923.0</ele>
        <time>2013-07-02T12:59:13Z</time>
      </trkpt>
      <trkpt lat="40.289350" lon="-4.789150">
        <ele>1923.0</ele>
        <time>2013-07-02T12:59:14Z</time>
      </trkpt>
      <trkpt lat="40.289267" lon="-4.789100">
        <ele>1923.0</ele>
        <time>2013-07-02T12:59:15Z</time>
      </trkpt>
      <trkpt lat="40.289200" lon="-4.789067">
        <ele>1923.0</ele>
        <time>2013-07-02T12:59:16Z</time>
      </trkpt>
      <trkpt lat="40.289150" lon="-4.789050">
        <ele>1923.0</ele>
        <time>2013-07-02T12:59:17Z</time>
      </trkpt>
      <trkpt lat="40.289083" lon="-4.789017">
        <ele>1923.0</ele>
        <time>2013-07-02T12:59:18Z</time>
      </trkpt>
      <trkpt lat="40.289017" lon="-4.788983">
        <ele>1923.0</ele>
        <time>2013-07-02T12:59:19Z</time>
      </trkpt>
      <trkpt lat="40.288933" lon="-4.788967">
        <ele>1923.0</ele>
        <time>2013-07-02T12:59:20Z</time>
      </trkpt>
      <trkpt lat="40.288867" lon="-4.788950">
        <ele>1922.0</ele>
        <time>2013-07-02T12:59:21Z</time>
      </trkpt>
      <trkpt lat="40.288800" lon="-4.788933">
        <ele>1922.0</ele>
        <time>2013-07-02T12:59:22Z</time>
      </trkpt>
      <trkpt lat="40.288733" lon="-4.788900">
        <ele>1923.0</ele>
        <time>2013-07-02T12:59:23Z</time>
      </trkpt>
      <trkpt lat="40.288667" lon="-4.788883">
        <ele>1923.0</ele>
        <time>2013-07-02T12:59:24Z</time>
      </trkpt>
      <trkpt lat="40.288600" lon="-4.788850">
        <ele>1922.0</ele>
        <time>2013-07-02T12:59:25Z</time>
      </trkpt>
      <trkpt lat="40.288550" lon="-4.788817">
        <ele>1923.0</ele>
        <time>2013-07-02T12:59:26Z</time>
      </trkpt>
      <trkpt lat="40.288500" lon="-4.788783">
        <ele>1924.0</ele>
        <time>2013-07-02T12:59:27Z</time>
      </trkpt>
      <trkpt lat="40.288467" lon="-4.788733">
        <ele>1926.0</ele>
        <time>2013-07-02T12:59:28Z</time>
      </trkpt>
      <trkpt lat="40.288433" lon="-4.788700">
        <ele>1926.0</ele>
        <time>2013-07-02T12:59:29Z</time>
      </trkpt>
      <trkpt lat="40.288400" lon="-4.788650">
        <ele>1926.0</ele>
        <time>2013-07-02T12:59:30Z</time>
      </trkpt>
      <trkpt lat="40.288367" lon="-4.788600">
        <ele>1927.0</ele>
        <time>2013-07-02T12:59:31Z</time>
      </trkpt>
      <trkpt lat="40.288317" lon="-4.788567">
        <ele>1926.0</ele>
        <time>2013-07-02T12:59:32Z</time>
      </trkpt>
      <trkpt lat="40.288267" lon="-4.788533">
        <ele>1925.0</ele>
        <time>2013-07-02T12:59:33Z</time>
      </trkpt>
      <trkpt lat="40.288200" lon="-4.788483">
        <ele>1925.0</ele>
        <time>2013-07-02T12:59:34Z</time>
      </trkpt>
      <trkpt lat="40.288133" lon="-4.788450">
        <ele>1924.0</ele>
        <time>2013-07-02T12:59:35Z</time>
      </trkpt>
      <trkpt lat="40.288050" lon="-4.788400">
        <ele>1923.0</ele>
        <time>2013-07-02T12:59:36Z</time>
      </trkpt>
      <trkpt lat="40.287967" lon="-4.788367">
        <ele>1923.0</ele>
        <time>2013-07-02T12:59:37Z</time>
      </trkpt>
      <trkpt lat="40.287883" lon="-4.788350">
        <ele>1925.0</ele>
        <time>2013-07-02T12:59:38Z</time>
      </trkpt>
      <trkpt lat="40.287817" lon="-4.788317">
        <ele>1926.0</ele>
        <time>2013-07-02T12:59:39Z</time>
      </trkpt>
      <trkpt lat="40.287767" lon="-4.788300">
        <ele>1928.0</ele>
        <time>2013-07-02T12:59:40Z</time>
      </trkpt>
      <trkpt lat="40.287700" lon="-4.788267">
        <ele>1930.0</ele>
        <time>2013-07-02T12:59:41Z</time>
      </trkpt>
      <trkpt lat="40.287650" lon="-4.788217">
        <ele>1932.0</ele>
        <time>2013-07-02T12:59:42Z</time>
      </trkpt>
      <trkpt lat="40.287617" lon="-4.788167">
        <ele>1935.0</ele>
        <time>2013-07-02T12:59:43Z</time>
      </trkpt>
      <trkpt lat="40.287583" lon="-4.788117">
        <ele>1937.0</ele>
        <time>2013-07-02T12:59:44Z</time>
      </trkpt>
      <trkpt lat="40.287567" lon="-4.788083">
        <ele>1940.0</ele>
        <time>2013-07-02T12:59:45Z</time>
      </trkpt>
      <trkpt lat="40.287533" lon="-4.788017">
        <ele>1943.0</ele>
        <time>2013-07-02T12:59:46Z</time>
      </trkpt>
      <trkpt lat="40.287500" lon="-4.787967">
        <ele>1945.0</ele>
        <time>2013-07-02T12:59:47Z</time>
      </trkpt>
      <trkpt lat="40.287483" lon="-4.787917">
        <ele>1947.0</ele>
        <time>2013-07-02T12:59:48Z</time>
      </trkpt>
      <trkpt lat="40.287450" lon="-4.787867">
        <ele>1950.0</ele>
        <time>2013-07-02T12:59:49Z</time>
      </trkpt>
      <trkpt lat="40.287417" lon="-4.787833">
        <ele>1953.0</ele>
        <time>2013-07-02T12:59:50Z</time>
      </trkpt>
      <trkpt lat="40.287400" lon="-4.787800">
        <ele>1956.0</ele>
        <time>2013-07-02T12:59:51Z</time>
      </trkpt>
      <trkpt lat="40.287383" lon="-4.787750">
        <ele>1958.0</ele>
        <time>2013-07-02T12:59:52Z</time>
      </trkpt>
      <trkpt lat="40.287367" lon="-4.787700">
        <ele>1961.0</ele>
        <time>2013-07-02T12:59:53Z</time>
      </trkpt>
      <trkpt lat="40.287350" lon="-4.787667">
        <ele>1963.0</ele>
        <time>2013-07-02T12:59:54Z</time>
      </trkpt>
      <trkpt lat="40.287317" lon="-4.787633">
        <ele>1963.0</ele>
        <time>2013-07-02T12:59:55Z</time>
      </trkpt>
      <trkpt lat="40.287283" lon="-4.787583">
        <ele>1965.0</ele>
        <time>2013-07-02T12:59:56Z</time>
      </trkpt>
      <trkpt lat="40.287267" lon="-4.787500">
        <ele>1966.0</ele>
        <time>2013-07-02T12:59:57Z</time>
      </trkpt>
      <trkpt lat="40.287250" lon="-4.787417">
        <ele>1968.0</ele>
        <time>2013-07-02T12:59:58Z</time>
      </trkpt>
      <trkpt lat="40.287250" lon="-4.787300">
        <ele>1970.0</ele>
        <time>2013-07-02T12:59:59Z</time>
      </trkpt>
      <trkpt lat="40.287267" lon="-4.787167">
        <ele>1972.0</ele>
        <time>2013-07-02T13:00:00Z</time>
      </trkpt>
      <trkpt lat="40.287300" lon="-4.787050">
        <ele>1973.0</ele>
        <time>2013-07-02T13:00:01Z</time>
      </trkpt>
      <trkpt lat="40.287350" lon="-4.786917">
        <ele>1974.0</ele>
        <time>2013-07-02T13:00:02Z</time>
      </trkpt>
      <trkpt lat="40.287417" lon="-4.786817">
        <ele>1975.0</ele>
        <time>2013-07-02T13:00:03Z</time>
      </trkpt>
      <trkpt lat="40.287517" lon="-4.786733">
        <ele>1975.0</ele>
        <time>2013-07-02T13:00:04Z</time>
      </trkpt>
      <trkpt lat="40.287617" lon="-4.786667">
        <ele>1976.0</ele>
        <time>2013-07-02T13:00:05Z</time>
      </trkpt>
      <trkpt lat="40.287717" lon="-4.786617">
        <ele>1976.0</ele>
        <time>2013-07-02T13:00:06Z</time>
      </trkpt>
      <trkpt lat="40.287833" lon="-4.786600">
        <ele>1976.0</ele>
        <time>2013-07-02T13:00:07Z</time>
      </trkpt>
      <trkpt lat="40.287933" lon="-4.786600">
        <ele>1976.0</ele>
        <time>2013-07-02T13:00:08Z</time>
      </trkpt>
      <trkpt lat="40.288050" lon="-4.786617">
        <ele>1976.0</ele>
        <time>2013-07-02T13:00:09Z</time>
      </trkpt>
      <trkpt lat="40.288133" lon="-4.786650">
        <ele>1976.0</ele>
        <time>2013-07-02T13:00:10Z</time>
      </trkpt>
      <trkpt lat="40.288200" lon="-4.786717">
        <ele>1976.0</ele>
        <time>2013-07-02T13:00:11Z</time>
      </trkpt>
      <trkpt lat="40.288267" lon="-4.786783">
        <ele>1976.0</ele>
        <time>2013-07-02T13:00:12Z</time>
      </trkpt>
      <trkpt lat="40.288333" lon="-4.786850">
        <ele>1978.0</ele>
        <time>2013-07-02T13:00:13Z</time>
      </trkpt>
      <trkpt lat="40.288383" lon="-4.786917">
        <ele>1980.0</ele>
        <time>2013-07-02T13:00:14Z</time>
      </trkpt>
      <trkpt lat="40.288433" lon="-4.786967">
        <ele>1981.0</ele>
        <time>2013-07-02T13:00:15Z</time>
      </trkpt>
      <trkpt lat="40.288483" lon="-4.787000">
        <ele>1984.0</ele>
        <time>2013-07-02T13:00:16Z</time>
      </trkpt>
      <trkpt lat="40.288550" lon="-4.787050">
        <ele>1986.0</ele>
        <time>2013-07-02T13:00:17Z</time>
      </trkpt>
      <trkpt lat="40.288633" lon="-4.787083">
        <ele>1988.0</ele>
        <time>2013-07-02T13:00:18Z</time>
      </trkpt>
      <trkpt lat="40.288733" lon="-4.787100">
        <ele>1989.0</ele>
        <time>2013-07-02T13:00:19Z</time>
      </trkpt>
      <trkpt lat="40.288867" lon="-4.787117">
        <ele>1990.0</ele>
        <time>2013-07-02T13:00:20Z</time>
      </trkpt>
      <trkpt lat="40.288983" lon="-4.787083">
        <ele>1991.0</ele>
        <time>2013-07-02T13:00:21Z</time>
      </trkpt>
      <trkpt lat="40.289100" lon="-4.787017">
        <ele>1992.0</ele>
        <time>2013-07-02T13:00:22Z</time>
      </trkpt>
      <trkpt lat="40.289200" lon="-4.786900">
        <ele>1993.0</ele>
        <time>2013-07-02T13:00:23Z</time>
      </trkpt>
      <trkpt lat="40.289250" lon="-4.786783">
        <ele>1994.0</ele>
        <time>2013-07-02T13:00:24Z</time>
      </trkpt>
      <trkpt lat="40.289300" lon="-4.786650">
        <ele>1994.0</ele>
        <time>2013-07-02T13:00:25Z</time>
      </trkpt>
      <trkpt lat="40.289333" lon="-4.786517">
        <ele>1994.0</ele>
        <time>2013-07-02T13:00:26Z</time>
      </trkpt>
      <trkpt lat="40.289367" lon="-4.786383">
        <ele>1994.0</ele>
        <time>2013-07-02T13:00:27Z</time>
      </trkpt>
      <trkpt lat="40.289383" lon="-4.786233">
        <ele>1995.0</ele>
        <time>2013-07-02T13:00:28Z</time>
      </trkpt>
      <trkpt lat="40.289400" lon="-4.786083">
        <ele>1997.0</ele>
        <time>2013-07-02T13:00:29Z</time>
      </trkpt>
      <trkpt lat="40.289400" lon="-4.785967">
        <ele>1999.0</ele>
        <time>2013-07-02T13:00:30Z</time>
      </trkpt>
      <trkpt lat="40.289383" lon="-4.785867">
        <ele>2001.0</ele>
        <time>2013-07-02T13:00:31Z</time>
      </trkpt>
      <trkpt lat="40.289383" lon="-4.785767">
        <ele>2002.0</ele>
        <time>2013-07-02T13:00:32Z</time>
      </trkpt>
      <trkpt lat="40.289367" lon="-4.785683">
        <ele>2002.0</ele>
        <time>2013-07-02T13:00:33Z</time>
      </trkpt>
      <trkpt lat="40.289333" lon="-4.785583">
        <ele>2003.0</ele>
        <time>2013-07-02T13:00:34Z</time>
      </trkpt>
      <trkpt lat="40.289300" lon="-4.785517">
        <ele>2003.0</ele>
        <time>2013-07-02T13:00:35Z</time>
      </trkpt>
      <trkpt lat="40.289283" lon="-4.785450">
        <ele>2003.0</ele>
        <time>2013-07-02T13:00:36Z</time>
      </trkpt>
      <trkpt lat="40.289250" lon="-4.785383">
        <ele>2005.0</ele>
        <time>2013-07-02T13:00:37Z</time>
      </trkpt>
      <trkpt lat="40.289217" lon="-4.785317">
        <ele>2008.0</ele>
        <time>2013-07-02T13:00:38Z</time>
      </trkpt>
      <trkpt lat="40.289183" lon="-4.785283">
        <ele>2012.0</ele>
        <time>2013-07-02T13:00:39Z</time>
      </trkpt>
      <trkpt lat="40.289167" lon="-4.785250">
        <ele>2015.0</ele>
        <time>2013-07-02T13:00:40Z</time>
      </trkpt>
      <trkpt lat="40.289167" lon="-4.785250">
        <ele>2016.0</ele>
        <time>2013-07-02T13:00:41Z</time>
      </trkpt>
      <trkpt lat="40.289183" lon="-4.785267">
        <ele>2018.0</ele>
        <time>2013-07-02T13:00:42Z</time>
      </trkpt>
      <trkpt lat="40.289167" lon="-4.785267">
        <ele>2020.0</ele>
        <time>2013-07-02T13:00:43Z</time>
      </trkpt>
      <trkpt lat="40.289117" lon="-4.785267">
        <ele>2021.0</ele>
        <time>2013-07-02T13:00:44Z</time>
      </trkpt>
      <trkpt lat="40.289083" lon="-4.785300">
        <ele>2025.0</ele>
        <time>2013-07-02T13:00:45Z</time>
      </trkpt>
      <trkpt lat="40.289067" lon="-4.785333">
        <ele>2027.0</ele>
        <time>2013-07-02T13:00:46Z</time>
      </trkpt>
      <trkpt lat="40.289083" lon="-4.785400">
        <ele>2029.0</ele>
        <time>2013-07-02T13:00:47Z</time>
      </trkpt>
      <trkpt lat="40.289100" lon="-4.785467">
        <ele>2030.0</ele>
        <time>2013-07-02T13:00:48Z</time>
      </trkpt>
      <trkpt lat="40.289117" lon="-4.785550">
        <ele>2031.0</ele>
        <time>2013-07-02T13:00:49Z</time>
      </trkpt>
      <trkpt lat="40.289133" lon="-4.785617">
        <ele>2032.0</ele>
        <time>2013-07-02T13:00:50Z</time>
      </trkpt>
      <trkpt lat="40.289183" lon="-4.785700">
        <ele>2033.0</ele>
        <time>2013-07-02T13:00:51Z</time>
      </trkpt>
      <trkpt lat="40.289267" lon="-4.785750">
        <ele>2033.0</ele>
        <time>2013-07-02T13:00:52Z</time>
      </trkpt>
      <trkpt lat="40.289350" lon="-4.785783">
        <ele>2033.0</ele>
        <time>2013-07-02T13:00:53Z</time>
      </trkpt>
      <trkpt lat="40.289450" lon="-4.785800">
        <ele>2032.0</ele>
        <time>2013-07-02T13:00:54Z</time>
      </trkpt>
      <trkpt lat="40.289533" lon="-4.785800">
        <ele>2032.0</ele>
        <time>2013-07-02T13:00:55Z</time>
      </trkpt>
      <trkpt lat="40.289633" lon="-4.785783">
        <ele>2031.0</ele>
        <time>2013-07-02T13:00:56Z</time>
      </trkpt>
      <trkpt lat="40.289717" lon="-4.785750">
        <ele>2029.0</ele>
        <time>2013-07-02T13:00:57Z</time>
      </trkpt>
      <trkpt lat="40.289817" lon="-4.785700">
        <ele>2028.0</ele>
        <time>2013-07-02T13:00:58Z</time>
      </trkpt>
      <trkpt lat="40.289917" lon="-4.785633">
        <ele>2027.0</ele>
        <time>2013-07-02T13:00:59Z</time>
      </trkpt>
      <trkpt lat="40.290000" lon="-4.785533">
        <ele>2027.0</ele>
        <time>2013-07-02T13:01:00Z</time>
      </trkpt>
      <trkpt lat="40.290100" lon="-4.785417">
        <ele>2026.0</ele>
        <time>2013-07-02T13:01:01Z</time>
      </trkpt>
      <trkpt lat="40.290167" lon="-4.785283">
        <ele>2026.0</ele>
        <time>2013-07-02T13:01:02Z</time>
      </trkpt>
      <trkpt lat="40.290217" lon="-4.785150">
        <ele>2025.0</ele>
        <time>2013-07-02T13:01:03Z</time>
      </trkpt>
      <trkpt lat="40.290233" lon="-4.785000">
        <ele>2025.0</ele>
        <time>2013-07-02T13:01:04Z</time>
      </trkpt>
      <trkpt lat="40.290250" lon="-4.784867">
        <ele>2025.0</ele>
        <time>2013-07-02T13:01:05Z</time>
      </trkpt>
      <trkpt lat="40.290250" lon="-4.784750">
        <ele>2026.0</ele>
        <time>2013-07-02T13:01:06Z</time>
      </trkpt>
      <trkpt lat="40.290250" lon="-4.784617">
        <ele>2027.0</ele>
        <time>2013-07-02T13:01:07Z</time>
      </trkpt>
      <trkpt lat="40.290233" lon="-4.784517">
        <ele>2028.0</ele>
        <time>2013-07-02T13:01:08Z</time>
      </trkpt>
      <trkpt lat="40.290233" lon="-4.784417">
        <ele>2029.0</ele>
        <time>2013-07-02T13:01:09Z</time>
      </trkpt>
      <trkpt lat="40.290200" lon="-4.784333">
        <ele>2030.0</ele>
        <time>2013-07-02T13:01:10Z</time>
      </trkpt>
      <trkpt lat="40.290183" lon="-4.784250">
        <ele>2031.0</ele>
        <time>2013-07-02T13:01:11Z</time>
      </trkpt>
      <trkpt lat="40.290150" lon="-4.784183">
        <ele>2032.0</ele>
        <time>2013-07-02T13:01:12Z</time>
      </trkpt>
      <trkpt lat="40.290133" lon="-4.784117">
        <ele>2033.0</ele>
        <time>2013-07-02T13:01:13Z</time>
      </trkpt>
      <trkpt lat="40.290100" lon="-4.784050">
        <ele>2035.0</ele>
        <time>2013-07-02T13:01:14Z</time>
      </trkpt>
      <trkpt lat="40.290083" lon="-4.783983">
        <ele>2036.0</ele>
        <time>2013-07-02T13:01:15Z</time>
      </trkpt>
      <trkpt lat="40.290067" lon="-4.783933">
        <ele>2038.0</ele>
        <time>2013-07-02T13:01:16Z</time>
      </trkpt>
      <trkpt lat="40.290050" lon="-4.783900">
        <ele>2039.0</ele>
        <time>2013-07-02T13:01:17Z</time>
      </trkpt>
      <trkpt lat="40.290050" lon="-4.783883">
        <ele>2040.0</ele>
        <time>2013-07-02T13:01:18Z</time>
      </trkpt>
      <trkpt lat="40.290033" lon="-4.783883">
        <ele>2041.0</ele>
        <time>2013-07-02T13:01:19Z</time>
      </trkpt>
      <trkpt lat="40.290017" lon="-4.783883">
        <ele>2043.0</ele>
        <time>2013-07-02T13:01:20Z</time>
      </trkpt>
      <trkpt lat="40.290000" lon="-4.783883">
        <ele>2045.0</ele>
        <time>2013-07-02T13:01:21Z</time>
      </trkpt>
      <trkpt lat="40.289983" lon="-4.783867">
        <ele>2047.0</ele>
        <time>2013-07-02T13:01:22Z</time>
      </trkpt>
      <trkpt lat="40.289967" lon="-4.783867">
        <ele>2046.0</ele>
        <time>2013-07-02T13:01:23Z</time>
      </trkpt>
      <trkpt lat="40.289950" lon="-4.783867">
        <ele>2048.0</ele>
        <time>2013-07-02T13:01:24Z</time>
      </trkpt>
      <trkpt lat="40.289933" lon="-4.783867">
        <ele>2050.0</ele>
        <time>2013-07-02T13:01:25Z</time>
      </trkpt>
      <trkpt lat="40.289917" lon="-4.783850">
        <ele>2053.0</ele>
        <time>2013-07-02T13:01:26Z</time>
      </trkpt>
      <trkpt lat="40.289917" lon="-4.783850">
        <ele>2055.0</ele>
        <time>2013-07-02T13:01:27Z</time>
      </trkpt>
      <trkpt lat="40.289900" lon="-4.783850">
        <ele>2057.0</ele>
        <time>2013-07-02T13:01:28Z</time>
      </trkpt>
      <trkpt lat="40.289883" lon="-4.783833">
        <ele>2059.0</ele>
        <time>2013-07-02T13:01:29Z</time>
      </trkpt>
      <trkpt lat="40.289883" lon="-4.783850">
        <ele>2060.0</ele>
        <time>2013-07-02T13:01:30Z</time>
      </trkpt>
      <trkpt lat="40.289883" lon="-4.783883">
        <ele>2062.0</ele>
        <time>2013-07-02T13:01:31Z</time>
      </trkpt>
      <trkpt lat="40.289917" lon="-4.783917">
        <ele>2064.0</ele>
        <time>2013-07-02T13:01:32Z</time>
      </trkpt>
      <trkpt lat="40.289950" lon="-4.783950">
        <ele>2066.0</ele>
        <time>2013-07-02T13:01:33Z</time>
      </trkpt>
      <trkpt lat="40.290000" lon="-4.783983">
        <ele>2068.0</ele>
        <time>2013-07-02T13:01:34Z</time>
      </trkpt>
      <trkpt lat="40.290050" lon="-4.784000">
        <ele>2070.0</ele>
        <time>2013-07-02T13:01:35Z</time>
      </trkpt>
      <trkpt lat="40.290100" lon="-4.784033">
        <ele>2072.0</ele>
        <time>2013-07-02T13:01:36Z</time>
      </trkpt>
      <trkpt lat="40.290167" lon="-4.784067">
        <ele>2073.0</ele>
        <time>2013-07-02T13:01:37Z</time>
      </trkpt>
      <trkpt lat="40.290250" lon="-4.784100">
        <ele>2074.0</ele>
        <time>2013-07-02T13:01:38Z</time>
      </trkpt>
      <trkpt lat="40.290333" lon="-4.784117">
        <ele>2074.0</ele>
        <time>2013-07-02T13:01:39Z</time>
      </trkpt>
      <trkpt lat="40.290450" lon="-4.784133">
        <ele>2074.0</ele>
        <time>2013-07-02T13:01:40Z</time>
      </trkpt>
      <trkpt lat="40.290583" lon="-4.784117">
        <ele>2074.0</ele>
        <time>2013-07-02T13:01:41Z</time>
      </trkpt>
      <trkpt lat="40.290683" lon="-4.784083">
        <ele>2075.0</ele>
        <time>2013-07-02T13:01:42Z</time>
      </trkpt>
      <trkpt lat="40.290800" lon="-4.784017">
        <ele>2075.0</ele>
        <time>2013-07-02T13:01:43Z</time>
      </trkpt>
      <trkpt lat="40.290883" lon="-4.783950">
        <ele>2076.0</ele>
        <time>2013-07-02T13:01:44Z</time>
      </trkpt>
      <trkpt lat="40.290983" lon="-4.783883">
        <ele>2075.0</ele>
        <time>2013-07-02T13:01:45Z</time>
      </trkpt>
      <trkpt lat="40.291067" lon="-4.783783">
        <ele>2074.0</ele>
        <time>2013-07-02T13:01:46Z</time>
      </trkpt>
      <trkpt lat="40.291167" lon="-4.783683">
        <ele>2072.0</ele>
        <time>2013-07-02T13:01:47Z</time>
      </trkpt>
      <trkpt lat="40.291233" lon="-4.783550">
        <ele>2071.0</ele>
        <time>2013-07-02T13:01:48Z</time>
      </trkpt>
      <trkpt lat="40.291283" lon="-4.783400">
        <ele>2070.0</ele>
        <time>2013-07-02T13:01:49Z</time>
      </trkpt>
      <trkpt lat="40.291317" lon="-4.783250">
        <ele>2069.0</ele>
        <time>2013-07-02T13:01:50Z</time>
      </trkpt>
      <trkpt lat="40.291317" lon="-4.783100">
        <ele>2069.0</ele>
        <time>2013-07-02T13:01:51Z</time>
      </trkpt>
      <trkpt lat="40.291317" lon="-4.782933">
        <ele>2069.0</ele>
        <time>2013-07-02T13:01:52Z</time>
      </trkpt>
      <trkpt lat="40.291300" lon="-4.782783">
        <ele>2069.0</ele>
        <time>2013-07-02T13:01:53Z</time>
      </trkpt>
      <trkpt lat="40.291283" lon="-4.782633">
        <ele>2070.0</ele>
        <time>2013-07-02T13:01:54Z</time>
      </trkpt>
      <trkpt lat="40.291250" lon="-4.782483">
        <ele>2071.0</ele>
        <time>2013-07-02T13:01:55Z</time>
      </trkpt>
      <trkpt lat="40.291217" lon="-4.782350">
        <ele>2074.0</ele>
        <time>2013-07-02T13:01:56Z</time>
      </trkpt>
      <trkpt lat="40.291200" lon="-4.782217">
        <ele>2076.0</ele>
        <time>2013-07-02T13:01:57Z</time>
      </trkpt>
      <trkpt lat="40.291167" lon="-4.782117">
        <ele>2078.0</ele>
        <time>2013-07-02T13:01:58Z</time>
      </trkpt>
      <trkpt lat="40.291133" lon="-4.782017">
        <ele>2082.0</ele>
        <time>2013-07-02T13:01:59Z</time>
      </trkpt>
      <trkpt lat="40.291117" lon="-4.781950">
        <ele>2086.0</ele>
        <time>2013-07-02T13:02:00Z</time>
      </trkpt>
      <trkpt lat="40.291100" lon="-4.781867">
        <ele>2089.0</ele>
        <time>2013-07-02T13:02:01Z</time>
      </trkpt>
      <trkpt lat="40.291083" lon="-4.781783">
        <ele>2091.0</ele>
        <time>2013-07-02T13:02:02Z</time>
      </trkpt>
      <trkpt lat="40.291050" lon="-4.781733">
        <ele>2094.0</ele>
        <time>2013-07-02T13:02:03Z</time>
      </trkpt>
      <trkpt lat="40.291017" lon="-4.781700">
        <ele>2096.0</ele>
        <time>2013-07-02T13:02:04Z</time>
      </trkpt>
      <trkpt lat="40.290967" lon="-4.781717">
        <ele>2097.0</ele>
        <time>2013-07-02T13:02:05Z</time>
      </trkpt>
      <trkpt lat="40.290950" lon="-4.781767">
        <ele>2100.0</ele>
        <time>2013-07-02T13:02:06Z</time>
      </trkpt>
      <trkpt lat="40.290933" lon="-4.781817">
        <ele>2103.0</ele>
        <time>2013-07-02T13:02:07Z</time>
      </trkpt>
      <trkpt lat="40.290933" lon="-4.781867">
        <ele>2108.0</ele>
        <time>2013-07-02T13:02:08Z</time>
      </trkpt>
      <trkpt lat="40.290950" lon="-4.781883">
        <ele>2112.0</ele>
        <time>2013-07-02T13:02:09Z</time>
      </trkpt>
      <trkpt lat="40.290983" lon="-4.781917">
        <ele>2110.0</ele>
        <time>2013-07-02T13:02:10Z</time>
      </trkpt>
      <trkpt lat="40.291033" lon="-4.781950">
        <ele>2111.0</ele>
        <time>2013-07-02T13:02:11Z</time>
      </trkpt>
      <trkpt lat="40.291067" lon="-4.782000">
        <ele>2113.0</ele>
        <time>2013-07-02T13:02:12Z</time>
      </trkpt>
      <trkpt lat="40.291117" lon="-4.782050">
        <ele>2117.0</ele>
        <time>2013-07-02T13:02:13Z</time>
      </trkpt>
      <trkpt lat="40.291200" lon="-4.782100">
        <ele>2122.0</ele>
        <time>2013-07-02T13:02:14Z</time>
      </trkpt>
      <trkpt lat="40.291300" lon="-4.782133">
        <ele>2126.0</ele>
        <time>2013-07-02T13:02:15Z</time>
      </trkpt>
      <trkpt lat="40.291417" lon="-4.782133">
        <ele>2128.0</ele>
        <time>2013-07-02T13:02:16Z</time>
      </trkpt>
      <trkpt lat="40.291550" lon="-4.782083">
        <ele>2131.0</ele>
        <time>2013-07-02T13:02:17Z</time>
      </trkpt>
      <trkpt lat="40.291667" lon="-4.782017">
        <ele>2135.0</ele>
        <time>2013-07-02T13:02:18Z</time>
      </trkpt>
      <trkpt lat="40.291767" lon="-4.781933">
        <ele>2138.0</ele>
        <time>2013-07-02T13:02:19Z</time>
      </trkpt>
      <trkpt lat="40.291867" lon="-4.781817">
        <ele>2141.0</ele>
        <time>2013-07-02T13:02:20Z</time>
      </trkpt>
      <trkpt lat="40.291950" lon="-4.781700">
        <ele>2143.0</ele>
        <time>2013-07-02T13:02:21Z</time>
      </trkpt>
      <trkpt lat="40.292017" lon="-4.781550">
        <ele>2145.0</ele>
        <time>2013-07-02T13:02:22Z</time>
      </trkpt>
      <trkpt lat="40.292067" lon="-4.781383">
        <ele>2146.0</ele>
        <time>2013-07-02T13:02:23Z</time>
      </trkpt>
      <trkpt lat="40.292100" lon="-4.781233">
        <ele>2148.0</ele>
        <time>2013-07-02T13:02:24Z</time>
      </trkpt>
      <trkpt lat="40.292117" lon="-4.781083">
        <ele>2150.0</ele>
        <time>2013-07-02T13:02:25Z</time>
      </trkpt>
      <trkpt lat="40.292117" lon="-4.780950">
        <ele>2153.0</ele>
        <time>2013-07-02T13:02:26Z</time>
      </trkpt>
      <trkpt lat="40.292117" lon="-4.780833">
        <ele>2155.0</ele>
        <time>2013-07-02T13:02:27Z</time>
      </trkpt>
      <trkpt lat="40.292100" lon="-4.780733">
        <ele>2158.0</ele>
        <time>2013-07-02T13:02:28Z</time>
      </trkpt>
      <trkpt lat="40.292083" lon="-4.780633">
        <ele>2161.0</ele>
        <time>2013-07-02T13:02:29Z</time>
      </trkpt>
      <trkpt lat="40.292067" lon="-4.780533">
        <ele>2163.0</ele>
        <time>2013-07-02T13:02:30Z</time>
      </trkpt>
      <trkpt lat="40.292050" lon="-4.780467">
        <ele>2166.0</ele>
        <time>2013-07-02T13:02:31Z</time>
      </trkpt>
      <trkpt lat="40.292017" lon="-4.780400">
        <ele>2167.0</ele>
        <time>2013-07-02T13:02:32Z</time>
      </trkpt>
      <trkpt lat="40.291983" lon="-4.780383">
        <ele>2168.0</ele>
        <time>2013-07-02T13:02:33Z</time>
      </trkpt>
      <trkpt lat="40.291933" lon="-4.780400">
        <ele>2170.0</ele>
        <time>2013-07-02T13:02:34Z</time>
      </trkpt>
      <trkpt lat="40.291933" lon="-4.780450">
        <ele>2173.0</ele>
        <time>2013-07-02T13:02:35Z</time>
      </trkpt>
      <trkpt lat="40.291933" lon="-4.780500">
        <ele>2176.0</ele>
        <time>2013-07-02T13:02:36Z</time>
      </trkpt>
      <trkpt lat="40.291950" lon="-4.780533">
        <ele>2178.0</ele>
        <time>2013-07-02T13:02:37Z</time>
      </trkpt>
      <trkpt lat="40.291967" lon="-4.780567">
        <ele>2181.0</ele>
        <time>2013-07-02T13:02:38Z</time>
      </trkpt>
      <trkpt lat="40.292000" lon="-4.780617">
        <ele>2184.0</ele>
        <time>2013-07-02T13:02:39Z</time>
      </trkpt>
      <trkpt lat="40.292017" lon="-4.780683">
        <ele>2187.0</ele>
        <time>2013-07-02T13:02:40Z</time>
      </trkpt>
      <trkpt lat="40.292067" lon="-4.780733">
        <ele>2191.0</ele>
        <time>2013-07-02T13:02:41Z</time>
      </trkpt>
      <trkpt lat="40.292133" lon="-4.780783">
        <ele>2195.0</ele>
        <time>2013-07-02T13:02:42Z</time>
      </trkpt>
      <trkpt lat="40.292217" lon="-4.780817">
        <ele>2198.0</ele>
        <time>2013-07-02T13:02:43Z</time>
      </trkpt>
      <trkpt lat="40.292317" lon="-4.780850">
        <ele>2202.0</ele>
        <time>2013-07-02T13:02:44Z</time>
      </trkpt>
      <trkpt lat="40.292417" lon="-4.780850">
        <ele>2206.0</ele>
        <time>2013-07-02T13:02:45Z</time>
      </trkpt>
      <trkpt lat="40.292533" lon="-4.780817">
        <ele>2209.0</ele>
        <time>2013-07-02T13:02:46Z</time>
      </trkpt>
      <trkpt lat="40.292650" lon="-4.780733">
        <ele>2210.0</ele>
        <time>2013-07-02T13:02:47Z</time>
      </trkpt>
      <trkpt lat="40.292750" lon="-4.780633">
        <ele>2209.0</ele>
        <time>2013-07-02T13:02:48Z</time>
      </trkpt>
      <trkpt lat="40.292850" lon="-4.780483">
        <ele>2210.0</ele>
        <time>2013-07-02T13:02:49Z</time>
      </trkpt>
      <trkpt lat="40.292933" lon="-4.780333">
        <ele>2212.0</ele>
        <time>2013-07-02T13:02:50Z</time>
      </trkpt>
      <trkpt lat="40.293000" lon="-4.780183">
        <ele>2216.0</ele>
        <time>2013-07-02T13:02:51Z</time>
      </trkpt>
      <trkpt lat="40.293067" lon="-4.780067">
        <ele>2221.0</ele>
        <time>2013-07-02T13:02:52Z</time>
      </trkpt>
      <trkpt lat="40.293117" lon="-4.779967">
        <ele>2224.0</ele>
        <time>2013-07-02T13:02:53Z</time>
      </trkpt>
      <trkpt lat="40.293167" lon="-4.779867">
        <ele>2227.0</ele>
        <time>2013-07-02T13:02:54Z</time>
      </trkpt>
      <trkpt lat="40.293183" lon="-4.779750">
        <ele>2228.0</ele>
        <time>2013-07-02T13:02:55Z</time>
      </trkpt>
      <trkpt lat="40.293167" lon="-4.779617">
        <ele>2228.0</ele>
        <time>2013-07-02T13:02:56Z</time>
      </trkpt>
      <trkpt lat="40.293133" lon="-4.779517">
        <ele>2229.0</ele>
        <time>2013-07-02T13:02:57Z</time>
      </trkpt>
      <trkpt lat="40.293100" lon="-4.779450">
        <ele>2230.0</ele>
        <time>2013-07-02T13:02:58Z</time>
      </trkpt>
      <trkpt lat="40.293067" lon="-4.779417">
        <ele>2232.0</ele>
        <time>2013-07-02T13:02:59Z</time>
      </trkpt>
      <trkpt lat="40.293050" lon="-4.779417">
        <ele>2234.0</ele>
        <time>2013-07-02T13:03:00Z</time>
      </trkpt>
      <trkpt lat="40.293017" lon="-4.779417">
        <ele>2236.0</ele>
        <time>2013-07-02T13:03:01Z</time>
      </trkpt>
      <trkpt lat="40.293000" lon="-4.779417">
        <ele>2239.0</ele>
        <time>2013-07-02T13:03:02Z</time>
      </trkpt>
      <trkpt lat="40.292983" lon="-4.779433">
        <ele>2243.0</ele>
        <time>2013-07-02T13:03:03Z</time>
      </trkpt>
      <trkpt lat="40.292967" lon="-4.779450">
        <ele>2246.0</ele>
        <time>2013-07-02T13:03:04Z</time>
      </trkpt>
      <trkpt lat="40.292967" lon="-4.779483">
        <ele>2250.0</ele>
        <time>2013-07-02T13:03:05Z</time>
      </trkpt>
      <trkpt lat="40.292967" lon="-4.779517">
        <ele>2253.0</ele>
        <time>2013-07-02T13:03:06Z</time>
      </trkpt>
      <trkpt lat="40.293000" lon="-4.779550">
        <ele>2256.0</ele>
        <time>2013-07-02T13:03:07Z</time>
      </trkpt>
      <trkpt lat="40.293033" lon="-4.779600">
        <ele>2258.0</ele>
        <time>2013-07-02T13:03:08Z</time>
      </trkpt>
      <trkpt lat="40.293083" lon="-4.779667">
        <ele>2260.0</ele>
        <time>2013-07-02T13:03:09Z</time>
      </trkpt>
      <trkpt lat="40.293150" lon="-4.779733">
        <ele>2264.0</ele>
        <time>2013-07-02T13:03:10Z</time>
      </trkpt>
      <trkpt lat="40.293250" lon="-4.779750">
        <ele>2267.0</ele>
        <time>2013-07-02T13:03:11Z</time>
      </trkpt>
      <trkpt lat="40.293350" lon="-4.779733">
        <ele>2270.0</ele>
        <time>2013-07-02T13:03:12Z</time>
      </trkpt>
      <trkpt lat="40.293467" lon="-4.779650">
        <ele>2271.0</ele>
        <time>2013-07-02T13:03:13Z</time>
      </trkpt>
      <trkpt lat="40.293583" lon="-4.779550">
        <ele>2273.0</ele>
        <time>2013-07-02T13:03:14Z</time>
      </trkpt>
      <trkpt lat="40.293650" lon="-4.779417">
        <ele>2275.0</ele>
        <time>2013-07-02T13:03:15Z</time>
      </trkpt>
      <trkpt lat="40.293717" lon="-4.779283">
        <ele>2277.0</ele>
        <time>2013-07-02T13:03:16Z</time>
      </trkpt>
      <trkpt lat="40.293750" lon="-4.779133">
        <ele>2280.0</ele>
        <time>2013-07-02T13:03:17Z</time>
      </trkpt>
      <trkpt lat="40.293767" lon="-4.779017">
        <ele>2284.0</ele>
        <time>2013-07-02T13:03:18Z</time>
      </trkpt>
      <trkpt lat="40.293767" lon="-4.778900">
        <ele>2287.0</ele>
        <time>2013-07-02T13:03:19Z</time>
      </trkpt>
      <trkpt lat="40.293783" lon="-4.778817">
        <ele>2290.0</ele>
        <time>2013-07-02T13:03:20Z</time>
      </trkpt>
      <trkpt lat="40.293783" lon="-4.778717">
        <ele>2292.0</ele>
        <time>2013-07-02T13:03:21Z</time>
      </trkpt>
      <trkpt lat="40.293767" lon="-4.778617">
        <ele>2294.0</ele>
        <time>2013-07-02T13:03:22Z</time>
      </trkpt>
      <trkpt lat="40.293733" lon="-4.778550">
        <ele>2296.0</ele>
        <time>2013-07-02T13:03:23Z</time>
      </trkpt>
      <trkpt lat="40.293700" lon="-4.778500">
        <ele>2298.0</ele>
        <time>2013-07-02T13:03:24Z</time>
      </trkpt>
      <trkpt lat="40.293667" lon="-4.778483">
        <ele>2300.0</ele>
        <time>2013-07-02T13:03:25Z</time>
      </trkpt>
      <trkpt lat="40.293633" lon="-4.778467">
        <ele>2303.0</ele>
        <time>2013-07-02T13:03:26Z</time>
      </trkpt>
      <trkpt lat="40.293633" lon="-4.778500">
        <ele>2305.0</ele>
        <time>2013-07-02T13:03:27Z</time>
      </trkpt>
      <trkpt lat="40.293633" lon="-4.778533">
        <ele>2306.0</ele>
        <time>2013-07-02T13:03:28Z</time>
      </trkpt>
      <trkpt lat="40.293633" lon="-4.778583">
        <ele>2308.0</ele>
        <time>2013-07-02T13:03:29Z</time>
      </trkpt>
      <trkpt lat="40.293667" lon="-4.778633">
        <ele>2310.0</ele>
        <time>2013-07-02T13:03:30Z</time>
      </trkpt>
      <trkpt lat="40.293700" lon="-4.778667">
        <ele>2311.0</ele>
        <time>2013-07-02T13:03:31Z</time>
      </trkpt>
      <trkpt lat="40.293733" lon="-4.778717">
        <ele>2313.0</ele>
        <time>2013-07-02T13:03:32Z</time>
      </trkpt>
      <trkpt lat="40.293783" lon="-4.778767">
        <ele>2313.0</ele>
        <time>2013-07-02T13:03:33Z</time>
      </trkpt>
      <trkpt lat="40.293850" lon="-4.778833">
        <ele>2314.0</ele>
        <time>2013-07-02T13:03:34Z</time>
      </trkpt>
      <trkpt lat="40.293950" lon="-4.778867">
        <ele>2316.0</ele>
        <time>2013-07-02T13:03:35Z</time>
      </trkpt>
      <trkpt lat="40.294067" lon="-4.778850">
        <ele>2318.0</ele>
        <time>2013-07-02T13:03:36Z</time>
      </trkpt>
      <trkpt lat="40.294167" lon="-4.778800">
        <ele>2319.0</ele>
        <time>2013-07-02T13:03:37Z</time>
      </trkpt>
      <trkpt lat="40.294267" lon="-4.778717">
        <ele>2321.0</ele>
        <time>2013-07-02T13:03:38Z</time>
      </trkpt>
      <trkpt lat="40.294350" lon="-4.778600">
        <ele>2323.0</ele>
        <time>2013-07-02T13:03:39Z</time>
      </trkpt>
      <trkpt lat="40.294433" lon="-4.778500">
        <ele>2326.0</ele>
        <time>2013-07-02T13:03:40Z</time>
      </trkpt>
      <trkpt lat="40.294483" lon="-4.778367">
        <ele>2327.0</ele>
        <time>2013-07-02T13:03:41Z</time>
      </trkpt>
      <trkpt lat="40.294517" lon="-4.778250">
        <ele>2329.0</ele>
        <time>2013-07-02T13:03:42Z</time>
      </trkpt>
      <trkpt lat="40.294533" lon="-4.778133">
        <ele>2330.0</ele>
        <time>2013-07-02T13:03:43Z</time>
      </trkpt>
      <trkpt lat="40.294517" lon="-4.778017">
        <ele>2332.0</ele>
        <time>2013-07-02T13:03:44Z</time>
      </trkpt>
      <trkpt lat="40.294500" lon="-4.777933">
        <ele>2333.0</ele>
        <time>2013-07-02T13:03:45Z</time>
      </trkpt>
      <trkpt lat="40.294467" lon="-4.777883">
        <ele>2334.0</ele>
        <time>2013-07-02T13:03:46Z</time>
      </trkpt>
      <trkpt lat="40.294433" lon="-4.777867">
        <ele>2334.0</ele>
        <time>2013-07-02T13:03:47Z</time>
      </trkpt>
      <trkpt lat="40.294400" lon="-4.777867">
        <ele>2335.0</ele>
        <time>2013-07-02T13:03:48Z</time>
      </trkpt>
      <trkpt lat="40.294350" lon="-4.777867">
        <ele>2336.0</ele>
        <time>2013-07-02T13:03:49Z</time>
      </trkpt>
      <trkpt lat="40.294317" lon="-4.777850">
        <ele>2338.0</ele>
        <time>2013-07-02T13:03:50Z</time>
      </trkpt>
      <trkpt lat="40.294300" lon="-4.777850">
        <ele>2340.0</ele>
        <time>2013-07-02T13:03:51Z</time>
      </trkpt>
      <trkpt lat="40.294267" lon="-4.777850">
        <ele>2340.0</ele>
        <time>2013-07-02T13:03:52Z</time>
      </trkpt>
      <trkpt lat="40.294250" lon="-4.777867">
        <ele>2341.0</ele>
        <time>2013-07-02T13:03:53Z</time>
      </trkpt>
      <trkpt lat="40.294217" lon="-4.777900">
        <ele>2341.0</ele>
        <time>2013-07-02T13:03:54Z</time>
      </trkpt>
      <trkpt lat="40.294200" lon="-4.777917">
        <ele>2343.0</ele>
        <time>2013-07-02T13:03:55Z</time>
      </trkpt>
      <trkpt lat="40.294200" lon="-4.777933">
        <ele>2344.0</ele>
        <time>2013-07-02T13:03:56Z</time>
      </trkpt>
      <trkpt lat="40.294217" lon="-4.777967">
        <ele>2344.0</ele>
        <time>2013-07-02T13:03:57Z</time>
      </trkpt>
      <trkpt lat="40.294233" lon="-4.778000">
        <ele>2344.0</ele>
        <time>2013-07-02T13:03:58Z</time>
      </trkpt>
      <trkpt lat="40.294250" lon="-4.778050">
        <ele>2344.0</ele>
        <time>2013-07-02T13:03:59Z</time>
      </trkpt>
      <trkpt lat="40.294283" lon="-4.778117">
        <ele>2344.0</ele>
        <time>2013-07-02T13:04:00Z</time>
      </trkpt>
      <trkpt lat="40.294317" lon="-4.778183">
        <ele>2344.0</ele>
        <time>2013-07-02T13:04:01Z</time>
      </trkpt>
      <trkpt lat="40.294367" lon="-4.778233">
        <ele>2344.0</ele>
        <time>2013-07-02T13:04:02Z</time>
      </trkpt>
      <trkpt lat="40.294417" lon="-4.778283">
        <ele>2343.0</ele>
        <time>2013-07-02T13:04:03Z</time>
      </trkpt>
      <trkpt lat="40.294483" lon="-4.778333">
        <ele>2341.0</ele>
        <time>2013-07-02T13:04:04Z</time>
      </trkpt>
      <trkpt lat="40.294550" lon="-4.778383">
        <ele>2339.0</ele>
        <time>2013-07-02T13:04:05Z</time>
      </trkpt>
      <trkpt lat="40.294633" lon="-4.778417">
        <ele>2337.0</ele>
        <time>2013-07-02T13:04:06Z</time>
      </trkpt>
      <trkpt lat="40.294733" lon="-4.778417">
        <ele>2335.0</ele>
        <time>2013-07-02T13:04:07Z</time>
      </trkpt>
      <trkpt lat="40.294833" lon="-4.778417">
        <ele>2333.0</ele>
        <time>2013-07-02T13:04:08Z</time>
      </trkpt>
      <trkpt lat="40.294933" lon="-4.778367">
        <ele>2330.0</ele>
        <time>2013-07-02T13:04:09Z</time>
      </trkpt>
      <trkpt lat="40.295033" lon="-4.778283">
        <ele>2327.0</ele>
        <time>2013-07-02T13:04:10Z</time>
      </trkpt>
      <trkpt lat="40.295133" lon="-4.778150">
        <ele>2324.0</ele>
        <time>2013-07-02T13:04:11Z</time>
      </trkpt>
      <trkpt lat="40.295217" lon="-4.778000">
        <ele>2321.0</ele>
        <time>2013-07-02T13:04:12Z</time>
      </trkpt>
      <trkpt lat="40.295283" lon="-4.777850">
        <ele>2319.0</ele>
        <time>2013-07-02T13:04:13Z</time>
      </trkpt>
      <trkpt lat="40.295367" lon="-4.777700">
        <ele>2318.0</ele>
        <time>2013-07-02T13:04:14Z</time>
      </trkpt>
      <trkpt lat="40.295450" lon="-4.777550">
        <ele>2317.0</ele>
        <time>2013-07-02T13:04:15Z</time>
      </trkpt>
      <trkpt lat="40.295517" lon="-4.777400">
        <ele>2316.0</ele>
        <time>2013-07-02T13:04:16Z</time>
      </trkpt>
      <trkpt lat="40.295583" lon="-4.777250">
        <ele>2314.0</ele>
        <time>2013-07-02T13:04:17Z</time>
      </trkpt>
      <trkpt lat="40.295633" lon="-4.777083">
        <ele>2313.0</ele>
        <time>2013-07-02T13:04:18Z</time>
      </trkpt>
      <trkpt lat="40.295683" lon="-4.776883">
        <ele>2312.0</ele>
        <time>2013-07-02T13:04:19Z</time>
      </trkpt>
      <trkpt lat="40.295717" lon="-4.776700">
        <ele>2313.0</ele>
        <time>2013-07-02T13:04:20Z</time>
      </trkpt>
      <trkpt lat="40.295750" lon="-4.776533">
        <ele>2314.0</ele>
        <time>2013-07-02T13:04:21Z</time>
      </trkpt>
      <trkpt lat="40.295783" lon="-4.776383">
        <ele>2316.0</ele>
        <time>2013-07-02T13:04:22Z</time>
      </trkpt>
      <trkpt lat="40.295800" lon="-4.776250">
        <ele>2318.0</ele>
        <time>2013-07-02T13:04:23Z</time>
      </trkpt>
      <trkpt lat="40.295817" lon="-4.776133">
        <ele>2319.0</ele>
        <time>2013-07-02T13:04:24Z</time>
      </trkpt>
      <trkpt lat="40.295833" lon="-4.776017">
        <ele>2318.0</ele>
        <time>2013-07-02T13:04:25Z</time>
      </trkpt>
      <trkpt lat="40.295833" lon="-4.775900">
        <ele>2317.0</ele>
        <time>2013-07-02T13:04:26Z</time>
      </trkpt>
      <trkpt lat="40.295817" lon="-4.775767">
        <ele>2316.0</ele>
        <time>2013-07-02T13:04:27Z</time>
      </trkpt>
      <trkpt lat="40.295800" lon="-4.775633">
        <ele>2315.0</ele>
        <time>2013-07-02T13:04:28Z</time>
      </trkpt>
      <trkpt lat="40.295767" lon="-4.775517">
        <ele>2316.0</ele>
        <time>2013-07-02T13:04:29Z</time>
      </trkpt>
      <trkpt lat="40.295733" lon="-4.775433">
        <ele>2318.0</ele>
        <time>2013-07-02T13:04:30Z</time>
      </trkpt>
      <trkpt lat="40.295700" lon="-4.775367">
        <ele>2319.0</ele>
        <time>2013-07-02T13:04:31Z</time>
      </trkpt>
      <trkpt lat="40.295667" lon="-4.775300">
        <ele>2319.0</ele>
        <time>2013-07-02T13:04:32Z</time>
      </trkpt>
      <trkpt lat="40.295633" lon="-4.775233">
        <ele>2319.0</ele>
        <time>2013-07-02T13:04:33Z</time>
      </trkpt>
      <trkpt lat="40.295600" lon="-4.775183">
        <ele>2318.0</ele>
        <time>2013-07-02T13:04:34Z</time>
      </trkpt>
      <trkpt lat="40.295550" lon="-4.775133">
        <ele>2318.0</ele>
        <time>2013-07-02T13:04:35Z</time>
      </trkpt>
      <trkpt lat="40.295500" lon="-4.775100">
        <ele>2318.0</ele>
        <time>2013-07-02T13:04:36Z</time>
      </trkpt>
      <trkpt lat="40.295450" lon="-4.775050">
        <ele>2318.0</ele>
        <time>2013-07-02T13:04:37Z</time>
      </trkpt>
      <trkpt lat="40.295383" lon="-4.775000">
        <ele>2318.0</ele>
        <time>2013-07-02T13:04:38Z</time>
      </trkpt>
      <trkpt lat="40.295350" lon="-4.774967">
        <ele>2319.0</ele>
        <time>2013-07-02T13:04:39Z</time>
      </trkpt>
      <trkpt lat="40.295317" lon="-4.774967">
        <ele>2319.0</ele>
        <time>2013-07-02T13:04:40Z</time>
      </trkpt>
      <trkpt lat="40.295283" lon="-4.774967">
        <ele>2320.0</ele>
        <time>2013-07-02T13:04:41Z</time>
      </trkpt>
      <trkpt lat="40.295267" lon="-4.774967">
        <ele>2320.0</ele>
        <time>2013-07-02T13:04:42Z</time>
      </trkpt>
      <trkpt lat="40.295250" lon="-4.774950">
        <ele>2320.0</ele>
        <time>2013-07-02T13:04:43Z</time>
      </trkpt>
      <trkpt lat="40.295233" lon="-4.774950">
        <ele>2320.0</ele>
        <time>2013-07-02T13:04:44Z</time>
      </trkpt>
      <trkpt lat="40.295233" lon="-4.774950">
        <ele>2319.0</ele>
        <time>2013-07-02T13:04:45Z</time>
      </trkpt>
      <trkpt lat="40.295217" lon="-4.774983">
        <ele>2318.0</ele>
        <time>2013-07-02T13:04:46Z</time>
      </trkpt>
      <trkpt lat="40.295217" lon="-4.775017">
        <ele>2316.0</ele>
        <time>2013-07-02T13:04:47Z</time>
      </trkpt>
      <trkpt lat="40.295233" lon="-4.775050">
        <ele>2315.0</ele>
        <time>2013-07-02T13:04:48Z</time>
      </trkpt>
      <trkpt lat="40.295233" lon="-4.775100">
        <ele>2313.0</ele>
        <time>2013-07-02T13:04:49Z</time>
      </trkpt>
      <trkpt lat="40.295267" lon="-4.775167">
        <ele>2311.0</ele>
        <time>2013-07-02T13:04:50Z</time>
      </trkpt>
      <trkpt lat="40.295300" lon="-4.775250">
        <ele>2310.0</ele>
        <time>2013-07-02T13:04:51Z</time>
      </trkpt>
      <trkpt lat="40.295367" lon="-4.775300">
        <ele>2311.0</ele>
        <time>2013-07-02T13:04:52Z</time>
      </trkpt>
      <trkpt lat="40.295433" lon="-4.775333">
        <ele>2312.0</ele>
        <time>2013-07-02T13:04:53Z</time>
      </trkpt>
      <trkpt lat="40.295500" lon="-4.775350">
        <ele>2311.0</ele>
        <time>2013-07-02T13:04:54Z</time>
      </trkpt>
      <trkpt lat="40.295583" lon="-4.775367">
        <ele>2311.0</ele>
        <time>2013-07-02T13:04:55Z</time>
      </trkpt>
      <trkpt lat="40.295667" lon="-4.775417">
        <ele>2311.0</ele>
        <time>2013-07-02T13:04:56Z</time>
      </trkpt>
      <trkpt lat="40.295750" lon="-4.775467">
        <ele>2311.0</ele>
        <time>2013-07-02T13:04:57Z</time>
      </trkpt>
      <trkpt lat="40.295817" lon="-4.775517">
        <ele>2313.0</ele>
        <time>2013-07-02T13:04:58Z</time>
      </trkpt>
      <trkpt lat="40.295883" lon="-4.775550">
        <ele>2315.0</ele>
        <time>2013-07-02T13:04:59Z</time>
      </trkpt>
      <trkpt lat="40.295950" lon="-4.775550">
        <ele>2316.0</ele>
        <time>2013-07-02T13:05:00Z</time>
      </trkpt>
      <trkpt lat="40.296017" lon="-4.775550">
        <ele>2316.0</ele>
        <time>2013-07-02T13:05:01Z</time>
      </trkpt>
      <trkpt lat="40.296117" lon="-4.775550">
        <ele>2316.0</ele>
        <time>2013-07-02T13:05:02Z</time>
      </trkpt>
      <trkpt lat="40.296200" lon="-4.775567">
        <ele>2316.0</ele>
        <time>2013-07-02T13:05:03Z</time>
      </trkpt>
      <trkpt lat="40.296300" lon="-4.775567">
        <ele>2315.0</ele>
        <time>2013-07-02T13:05:04Z</time>
      </trkpt>
      <trkpt lat="40.296383" lon="-4.775533">
        <ele>2315.0</ele>
        <time>2013-07-02T13:05:05Z</time>
      </trkpt>
      <trkpt lat="40.296483" lon="-4.775467">
        <ele>2314.0</ele>
        <time>2013-07-02T13:05:06Z</time>
      </trkpt>
      <trkpt lat="40.296567" lon="-4.775383">
        <ele>2312.0</ele>
        <time>2013-07-02T13:05:07Z</time>
      </trkpt>
      <trkpt lat="40.296650" lon="-4.775267">
        <ele>2310.0</ele>
        <time>2013-07-02T13:05:08Z</time>
      </trkpt>
      <trkpt lat="40.296717" lon="-4.775133">
        <ele>2308.0</ele>
        <time>2013-07-02T13:05:09Z</time>
      </trkpt>
      <trkpt lat="40.296767" lon="-4.774967">
        <ele>2306.0</ele>
        <time>2013-07-02T13:05:10Z</time>
      </trkpt>
      <trkpt lat="40.296817" lon="-4.774817">
        <ele>2304.0</ele>
        <time>2013-07-02T13:05:11Z</time>
      </trkpt>
      <trkpt lat="40.296833" lon="-4.774633">
        <ele>2303.0</ele>
        <time>2013-07-02T13:05:12Z</time>
      </trkpt>
      <trkpt lat="40.296867" lon="-4.774467">
        <ele>2302.0</ele>
        <time>2013-07-02T13:05:13Z</time>
      </trkpt>
      <trkpt lat="40.296883" lon="-4.774283">
        <ele>2301.0</ele>
        <time>2013-07-02T13:05:14Z</time>
      </trkpt>
      <trkpt lat="40.296883" lon="-4.774117">
        <ele>2300.0</ele>
        <time>2013-07-02T13:05:15Z</time>
      </trkpt>
      <trkpt lat="40.296900" lon="-4.773933">
        <ele>2300.0</ele>
        <time>2013-07-02T13:05:16Z</time>
      </trkpt>
      <trkpt lat="40.296883" lon="-4.773767">
        <ele>2300.0</ele>
        <time>2013-07-02T13:05:17Z</time>
      </trkpt>
      <trkpt lat="40.296883" lon="-4.773600">
        <ele>2300.0</ele>
        <time>2013-07-02T13:05:18Z</time>
      </trkpt>
      <trkpt lat="40.296867" lon="-4.773433">
        <ele>2299.0</ele>
        <time>2013-07-02T13:05:19Z</time>
      </trkpt>
      <trkpt lat="40.296850" lon="-4.773267">
        <ele>2299.0</ele>
        <time>2013-07-02T13:05:20Z</time>
      </trkpt>
      <trkpt lat="40.296817" lon="-4.773100">
        <ele>2298.0</ele>
        <time>2013-07-02T13:05:21Z</time>
      </trkpt>
      <trkpt lat="40.296767" lon="-4.772950">
        <ele>2299.0</ele>
        <time>2013-07-02T13:05:22Z</time>
      </trkpt>
      <trkpt lat="40.296733" lon="-4.772800">
        <ele>2300.0</ele>
        <time>2013-07-02T13:05:23Z</time>
      </trkpt>
      <trkpt lat="40.296717" lon="-4.772650">
        <ele>2300.0</ele>
        <time>2013-07-02T13:05:24Z</time>
      </trkpt>
      <trkpt lat="40.296700" lon="-4.772517">
        <ele>2299.0</ele>
        <time>2013-07-02T13:05:25Z</time>
      </trkpt>
      <trkpt lat="40.296683" lon="-4.772367">
        <ele>2299.0</ele>
        <time>2013-07-02T13:05:26Z</time>
      </trkpt>
      <trkpt lat="40.296667" lon="-4.772217">
        <ele>2298.0</ele>
        <time>2013-07-02T13:05:27Z</time>
      </trkpt>
      <trkpt lat="40.296633" lon="-4.772067">
        <ele>2299.0</ele>
        <time>2013-07-02T13:05:28Z</time>
      </trkpt>
      <trkpt lat="40.296600" lon="-4.771917">
        <ele>2299.0</ele>
        <time>2013-07-02T13:05:29Z</time>
      </trkpt>
      <trkpt lat="40.296567" lon="-4.771783">
        <ele>2300.0</ele>
        <time>2013-07-02T13:05:30Z</time>
      </trkpt>
      <trkpt lat="40.296550" lon="-4.771650">
        <ele>2301.0</ele>
        <time>2013-07-02T13:05:31Z</time>
      </trkpt>
      <trkpt lat="40.296533" lon="-4.771517">
        <ele>2303.0</ele>
        <time>2013-07-02T13:05:32Z</time>
      </trkpt>
      <trkpt lat="40.296517" lon="-4.771400">
        <ele>2305.0</ele>
        <time>2013-07-02T13:05:33Z</time>
      </trkpt>
      <trkpt lat="40.296517" lon="-4.771283">
        <ele>2306.0</ele>
        <time>2013-07-02T13:05:34Z</time>
      </trkpt>
      <trkpt lat="40.296483" lon="-4.771183">
        <ele>2307.0</ele>
        <time>2013-07-02T13:05:35Z</time>
      </trkpt>
      <trkpt lat="40.296450" lon="-4.771100">
        <ele>2306.0</ele>
        <time>2013-07-02T13:05:36Z</time>
      </trkpt>
      <trkpt lat="40.296400" lon="-4.771017">
        <ele>2306.0</ele>
        <time>2013-07-02T13:05:37Z</time>
      </trkpt>
      <trkpt lat="40.296350" lon="-4.770950">
        <ele>2305.0</ele>
        <time>2013-07-02T13:05:38Z</time>
      </trkpt>
      <trkpt lat="40.296300" lon="-4.770917">
        <ele>2306.0</ele>
        <time>2013-07-02T13:05:39Z</time>
      </trkpt>
      <trkpt lat="40.296283" lon="-4.770900">
        <ele>2306.0</ele>
        <time>2013-07-02T13:05:40Z</time>
      </trkpt>
      <trkpt lat="40.296283" lon="-4.770900">
        <ele>2306.0</ele>
        <time>2013-07-02T13:05:41Z</time>
      </trkpt>
      <trkpt lat="40.296267" lon="-4.770883">
        <ele>2305.0</ele>
        <time>2013-07-02T13:05:42Z</time>
      </trkpt>
      <trkpt lat="40.296233" lon="-4.770850">
        <ele>2304.0</ele>
        <time>2013-07-02T13:05:43Z</time>
      </trkpt>
      <trkpt lat="40.296183" lon="-4.770800">
        <ele>2302.0</ele>
        <time>2013-07-02T13:05:44Z</time>
      </trkpt>
      <trkpt lat="40.296133" lon="-4.770750">
        <ele>2301.0</ele>
        <time>2013-07-02T13:05:45Z</time>
      </trkpt>
      <trkpt lat="40.296083" lon="-4.770683">
        <ele>2300.0</ele>
        <time>2013-07-02T13:05:46Z</time>
      </trkpt>
      <trkpt lat="40.296033" lon="-4.770617">
        <ele>2302.0</ele>
        <time>2013-07-02T13:05:47Z</time>
      </trkpt>
      <trkpt lat="40.295983" lon="-4.770550">
        <ele>2302.0</ele>
        <time>2013-07-02T13:05:48Z</time>
      </trkpt>
      <trkpt lat="40.295933" lon="-4.770483">
        <ele>2301.0</ele>
        <time>2013-07-02T13:05:49Z</time>
      </trkpt>
      <trkpt lat="40.295900" lon="-4.770400">
        <ele>2299.0</ele>
        <time>2013-07-02T13:05:50Z</time>
      </trkpt>
      <trkpt lat="40.295850" lon="-4.770317">
        <ele>2298.0</ele>
        <time>2013-07-02T13:05:51Z</time>
      </trkpt>
      <trkpt lat="40.295817" lon="-4.770250">
        <ele>2296.0</ele>
        <time>2013-07-02T13:05:52Z</time>
      </trkpt>
      <trkpt lat="40.295767" lon="-4.770217">
        <ele>2294.0</ele>
        <time>2013-07-02T13:05:53Z</time>
      </trkpt>
      <trkpt lat="40.295733" lon="-4.770200">
        <ele>2292.0</ele>
        <time>2013-07-02T13:05:54Z</time>
      </trkpt>
      <trkpt lat="40.295700" lon="-4.770150">
        <ele>2291.0</ele>
        <time>2013-07-02T13:05:55Z</time>
      </trkpt>
      <trkpt lat="40.295667" lon="-4.770083">
        <ele>2290.0</ele>
        <time>2013-07-02T13:05:56Z</time>
      </trkpt>
      <trkpt lat="40.295617" lon="-4.770017">
        <ele>2288.0</ele>
        <time>2013-07-02T13:05:57Z</time>
      </trkpt>
      <trkpt lat="40.295583" lon="-4.769967">
        <ele>2285.0</ele>
        <time>2013-07-02T13:05:58Z</time>
      </trkpt>
      <trkpt lat="40.295533" lon="-4.769933">
        <ele>2283.0</ele>
        <time>2013-07-02T13:05:59Z</time>
      </trkpt>
      <trkpt lat="40.295500" lon="-4.769883">
        <ele>2281.0</ele>
        <time>2013-07-02T13:06:00Z</time>
      </trkpt>
      <trkpt lat="40.295450" lon="-4.769817">
        <ele>2278.0</ele>
        <time>2013-07-02T13:06:01Z</time>
      </trkpt>
      <trkpt lat="40.295400" lon="-4.769717">
        <ele>2276.0</ele>
        <time>2013-07-02T13:06:02Z</time>
      </trkpt>
      <trkpt lat="40.295350" lon="-4.769633">
        <ele>2274.0</ele>
        <time>2013-07-02T13:06:03Z</time>
      </trkpt>
      <trkpt lat="40.295300" lon="-4.769567">
        <ele>2272.0</ele>
        <time>2013-07-02T13:06:04Z</time>
      </trkpt>
      <trkpt lat="40.295250" lon="-4.769517">
        <ele>2270.0</ele>
        <time>2013-07-02T13:06:05Z</time>
      </trkpt>
      <trkpt lat="40.295200" lon="-4.769500">
        <ele>2268.0</ele>
        <time>2013-07-02T13:06:06Z</time>
      </trkpt>
      <trkpt lat="40.295133" lon="-4.769467">
        <ele>2267.0</ele>
        <time>2013-07-02T13:06:07Z</time>
      </trkpt>
      <trkpt lat="40.295067" lon="-4.769417">
        <ele>2265.0</ele>
        <time>2013-07-02T13:06:08Z</time>
      </trkpt>
      <trkpt lat="40.295000" lon="-4.769350">
        <ele>2265.0</ele>
        <time>2013-07-02T13:06:09Z</time>
      </trkpt>
      <trkpt lat="40.294933" lon="-4.769283">
        <ele>2264.0</ele>
        <time>2013-07-02T13:06:10Z</time>
      </trkpt>
      <trkpt lat="40.294867" lon="-4.769217">
        <ele>2264.0</ele>
        <time>2013-07-02T13:06:11Z</time>
      </trkpt>
      <trkpt lat="40.294817" lon="-4.769167">
        <ele>2264.0</ele>
        <time>2013-07-02T13:06:12Z</time>
      </trkpt>
      <trkpt lat="40.294767" lon="-4.769117">
        <ele>2263.0</ele>
        <time>2013-07-02T13:06:13Z</time>
      </trkpt>
      <trkpt lat="40.294717" lon="-4.769067">
        <ele>2260.0</ele>
        <time>2013-07-02T13:06:14Z</time>
      </trkpt>
      <trkpt lat="40.294650" lon="-4.769000">
        <ele>2259.0</ele>
        <time>2013-07-02T13:06:15Z</time>
      </trkpt>
      <trkpt lat="40.294567" lon="-4.768933">
        <ele>2258.0</ele>
        <time>2013-07-02T13:06:16Z</time>
      </trkpt>
      <trkpt lat="40.294483" lon="-4.768867">
        <ele>2258.0</ele>
        <time>2013-07-02T13:06:17Z</time>
      </trkpt>
      <trkpt lat="40.294417" lon="-4.768817">
        <ele>2258.0</ele>
        <time>2013-07-02T13:06:18Z</time>
      </trkpt>
      <trkpt lat="40.294350" lon="-4.768783">
        <ele>2258.0</ele>
        <time>2013-07-02T13:06:19Z</time>
      </trkpt>
      <trkpt lat="40.294283" lon="-4.768750">
        <ele>2257.0</ele>
        <time>2013-07-02T13:06:20Z</time>
      </trkpt>
      <trkpt lat="40.294233" lon="-4.768733">
        <ele>2256.0</ele>
        <time>2013-07-02T13:06:21Z</time>
      </trkpt>
      <trkpt lat="40.294167" lon="-4.768700">
        <ele>2254.0</ele>
        <time>2013-07-02T13:06:22Z</time>
      </trkpt>
      <trkpt lat="40.294100" lon="-4.768667">
        <ele>2252.0</ele>
        <time>2013-07-02T13:06:23Z</time>
      </trkpt>
      <trkpt lat="40.294033" lon="-4.768633">
        <ele>2250.0</ele>
        <time>2013-07-02T13:06:24Z</time>
      </trkpt>
      <trkpt lat="40.293967" lon="-4.768617">
        <ele>2247.0</ele>
        <time>2013-07-02T13:06:25Z</time>
      </trkpt>
      <trkpt lat="40.293900" lon="-4.768583">
        <ele>2244.0</ele>
        <time>2013-07-02T13:06:26Z</time>
      </trkpt>
      <trkpt lat="40.293833" lon="-4.768567">
        <ele>2242.0</ele>
        <time>2013-07-02T13:06:27Z</time>
      </trkpt>
      <trkpt lat="40.293750" lon="-4.768550">
        <ele>2239.0</ele>
        <time>2013-07-02T13:06:28Z</time>
      </trkpt>
      <trkpt lat="40.293683" lon="-4.768533">
        <ele>2237.0</ele>
        <time>2013-07-02T13:06:29Z</time>
      </trkpt>
      <trkpt lat="40.293617" lon="-4.768500">
        <ele>2235.0</ele>
        <time>2013-07-02T13:06:30Z</time>
      </trkpt>
      <trkpt lat="40.293533" lon="-4.768483">
        <ele>2233.0</ele>
        <time>2013-07-02T13:06:31Z</time>
      </trkpt>
      <trkpt lat="40.293467" lon="-4.768450">
        <ele>2232.0</ele>
        <time>2013-07-02T13:06:32Z</time>
      </trkpt>
      <trkpt lat="40.293383" lon="-4.768433">
        <ele>2231.0</ele>
        <time>2013-07-02T13:06:33Z</time>
      </trkpt>
      <trkpt lat="40.293283" lon="-4.768383">
        <ele>2230.0</ele>
        <time>2013-07-02T13:06:34Z</time>
      </trkpt>
      <trkpt lat="40.293200" lon="-4.768333">
        <ele>2230.0</ele>
        <time>2013-07-02T13:06:35Z</time>
      </trkpt>
      <trkpt lat="40.293117" lon="-4.768283">
        <ele>2230.0</ele>
        <time>2013-07-02T13:06:36Z</time>
      </trkpt>
      <trkpt lat="40.293033" lon="-4.768267">
        <ele>2228.0</ele>
        <time>2013-07-02T13:06:37Z</time>
      </trkpt>
      <trkpt lat="40.292950" lon="-4.768250">
        <ele>2227.0</ele>
        <time>2013-07-02T13:06:38Z</time>
      </trkpt>
      <trkpt lat="40.292867" lon="-4.768217">
        <ele>2227.0</ele>
        <time>2013-07-02T13:06:39Z</time>
      </trkpt>
      <trkpt lat="40.292783" lon="-4.768183">
        <ele>2226.0</ele>
        <time>2013-07-02T13:06:40Z</time>
      </trkpt>
      <trkpt lat="40.292683" lon="-4.768167">
        <ele>2225.0</ele>
        <time>2013-07-02T13:06:41Z</time>
      </trkpt>
      <trkpt lat="40.292600" lon="-4.768150">
        <ele>2224.0</ele>
        <time>2013-07-02T13:06:42Z</time>
      </trkpt>
      <trkpt lat="40.292517" lon="-4.768117">
        <ele>2223.0</ele>
        <time>2013-07-02T13:06:43Z</time>
      </trkpt>
      <trkpt lat="40.292417" lon="-4.768100">
        <ele>2223.0</ele>
        <time>2013-07-02T13:06:44Z</time>
      </trkpt>
      <trkpt lat="40.292333" lon="-4.768083">
        <ele>2222.0</ele>
        <time>2013-07-02T13:06:45Z</time>
      </trkpt>
      <trkpt lat="40.292250" lon="-4.768067">
        <ele>2222.0</ele>
        <time>2013-07-02T13:06:46Z</time>
      </trkpt>
      <trkpt lat="40.292183" lon="-4.768050">
        <ele>2223.0</ele>
        <time>2013-07-02T13:06:47Z</time>
      </trkpt>
      <trkpt lat="40.292117" lon="-4.768017">
        <ele>2222.0</ele>
        <time>2013-07-02T13:06:48Z</time>
      </trkpt>
      <trkpt lat="40.292050" lon="-4.767983">
        <ele>2221.0</ele>
        <time>2013-07-02T13:06:49Z</time>
      </trkpt>
      <trkpt lat="40.291983" lon="-4.767967">
        <ele>2221.0</ele>
        <time>2013-07-02T13:06:50Z</time>
      </trkpt>
      <trkpt lat="40.291900" lon="-4.767950">
        <ele>2220.0</ele>
        <time>2013-07-02T13:06:51Z</time>
      </trkpt>
      <trkpt lat="40.291833" lon="-4.767950">
        <ele>2219.0</ele>
        <time>2013-07-02T13:06:52Z</time>
      </trkpt>
      <trkpt lat="40.291750" lon="-4.767933">
        <ele>2218.0</ele>
        <time>2013-07-02T13:06:53Z</time>
      </trkpt>
      <trkpt lat="40.291683" lon="-4.767900">
        <ele>2217.0</ele>
        <time>2013-07-02T13:06:54Z</time>
      </trkpt>
      <trkpt lat="40.291617" lon="-4.767867">
        <ele>2217.0</ele>
        <time>2013-07-02T13:06:55Z</time>
      </trkpt>
      <trkpt lat="40.291550" lon="-4.767833">
        <ele>2216.0</ele>
        <time>2013-07-02T13:06:56Z</time>
      </trkpt>
      <trkpt lat="40.291500" lon="-4.767817">
        <ele>2215.0</ele>
        <time>2013-07-02T13:06:57Z</time>
      </trkpt>
      <trkpt lat="40.291433" lon="-4.767783">
        <ele>2214.0</ele>
        <time>2013-07-02T13:06:58Z</time>
      </trkpt>
      <trkpt lat="40.291350" lon="-4.767767">
        <ele>2212.0</ele>
        <time>2013-07-02T13:06:59Z</time>
      </trkpt>
      <trkpt lat="40.291267" lon="-4.767733">
        <ele>2210.0</ele>
        <time>2013-07-02T13:07:00Z</time>
      </trkpt>
      <trkpt lat="40.291200" lon="-4.767700">
        <ele>2209.0</ele>
        <time>2013-07-02T13:07:01Z</time>
      </trkpt>
      <trkpt lat="40.291133" lon="-4.767683">
        <ele>2208.0</ele>
        <time>2013-07-02T13:07:02Z</time>
      </trkpt>
      <trkpt lat="40.291067" lon="-4.767650">
        <ele>2207.0</ele>
        <time>2013-07-02T13:07:03Z</time>
      </trkpt>
      <trkpt lat="40.291000" lon="-4.767617">
        <ele>2206.0</ele>
        <time>2013-07-02T13:07:04Z</time>
      </trkpt>
      <trkpt lat="40.290933" lon="-4.767583">
        <ele>2205.0</ele>
        <time>2013-07-02T13:07:05Z</time>
      </trkpt>
      <trkpt lat="40.290850" lon="-4.767567">
        <ele>2204.0</ele>
        <time>2013-07-02T13:07:06Z</time>
      </trkpt>
      <trkpt lat="40.290767" lon="-4.767567">
        <ele>2204.0</ele>
        <time>2013-07-02T13:07:07Z</time>
      </trkpt>
      <trkpt lat="40.290683" lon="-4.767550">
        <ele>2206.0</ele>
        <time>2013-07-02T13:07:08Z</time>
      </trkpt>
      <trkpt lat="40.290600" lon="-4.767517">
        <ele>2207.0</ele>
        <time>2013-07-02T13:07:09Z</time>
      </trkpt>
      <trkpt lat="40.290533" lon="-4.767467">
        <ele>2211.0</ele>
        <time>2013-07-02T13:07:10Z</time>
      </trkpt>
      <trkpt lat="40.290483" lon="-4.767417">
        <ele>2216.0</ele>
        <time>2013-07-02T13:07:11Z</time>
      </trkpt>
      <trkpt lat="40.290467" lon="-4.767400">
        <ele>2220.0</ele>
        <time>2013-07-02T13:07:12Z</time>
      </trkpt>
      <trkpt lat="40.290450" lon="-4.767367">
        <ele>2223.0</ele>
        <time>2013-07-02T13:07:13Z</time>
      </trkpt>
      <trkpt lat="40.290433" lon="-4.767333">
        <ele>2225.0</ele>
        <time>2013-07-02T13:07:14Z</time>
      </trkpt>
      <trkpt lat="40.290400" lon="-4.767283">
        <ele>2226.0</ele>
        <time>2013-07-02T13:07:15Z</time>
      </trkpt>
      <trkpt lat="40.290350" lon="-4.767167">
        <ele>2227.0</ele>
        <time>2013-07-02T13:07:16Z</time>
      </trkpt>
      <trkpt lat="40.290350" lon="-4.767033">
        <ele>2229.0</ele>
        <time>2013-07-02T13:07:17Z</time>
      </trkpt>
      <trkpt lat="40.290367" lon="-4.766867">
        <ele>2231.0</ele>
        <time>2013-07-02T13:07:18Z</time>
      </trkpt>
      <trkpt lat="40.290450" lon="-4.766700">
        <ele>2233.0</ele>
        <time>2013-07-02T13:07:19Z</time>
      </trkpt>
      <trkpt lat="40.290550" lon="-4.766583">
        <ele>2236.0</ele>
        <time>2013-07-02T13:07:20Z</time>
      </trkpt>
      <trkpt lat="40.290667" lon="-4.766483">
        <ele>2239.0</ele>
        <time>2013-07-02T13:07:21Z</time>
      </trkpt>
      <trkpt lat="40.290783" lon="-4.766433">
        <ele>2242.0</ele>
        <time>2013-07-02T13:07:22Z</time>
      </trkpt>
      <trkpt lat="40.290883" lon="-4.766400">
        <ele>2244.0</ele>
        <time>2013-07-02T13:07:23Z</time>
      </trkpt>
      <trkpt lat="40.290967" lon="-4.766417">
        <ele>2245.0</ele>
        <time>2013-07-02T13:07:24Z</time>
      </trkpt>
      <trkpt lat="40.291050" lon="-4.766450">
        <ele>2246.0</ele>
        <time>2013-07-02T13:07:25Z</time>
      </trkpt>
      <trkpt lat="40.291100" lon="-4.766500">
        <ele>2246.0</ele>
        <time>2013-07-02T13:07:26Z</time>
      </trkpt>
      <trkpt lat="40.291133" lon="-4.766567">
        <ele>2247.0</ele>
        <time>2013-07-02T13:07:27Z</time>
      </trkpt>
      <trkpt lat="40.291150" lon="-4.766617">
        <ele>2247.0</ele>
        <time>2013-07-02T13:07:28Z</time>
      </trkpt>
      <trkpt lat="40.291133" lon="-4.766667">
        <ele>2248.0</ele>
        <time>2013-07-02T13:07:29Z</time>
      </trkpt>
      <trkpt lat="40.291117" lon="-4.766700">
        <ele>2250.0</ele>
        <time>2013-07-02T13:07:30Z</time>
      </trkpt>
      <trkpt lat="40.291083" lon="-4.766733">
        <ele>2251.0</ele>
        <time>2013-07-02T13:07:31Z</time>
      </trkpt>
      <trkpt lat="40.291050" lon="-4.766750">
        <ele>2253.0</ele>
        <time>2013-07-02T13:07:32Z</time>
      </trkpt>
      <trkpt lat="40.291017" lon="-4.766717">
        <ele>2255.0</ele>
        <time>2013-07-02T13:07:33Z</time>
      </trkpt>
      <trkpt lat="40.290983" lon="-4.766683">
        <ele>2257.0</ele>
        <time>2013-07-02T13:07:34Z</time>
      </trkpt>
      <trkpt lat="40.290950" lon="-4.766633">
        <ele>2259.0</ele>
        <time>2013-07-02T13:07:35Z</time>
      </trkpt>
      <trkpt lat="40.290900" lon="-4.766567">
        <ele>2260.0</ele>
        <time>2013-07-02T13:07:36Z</time>
      </trkpt>
      <trkpt lat="40.290867" lon="-4.766467">
        <ele>2262.0</ele>
        <time>2013-07-02T13:07:37Z</time>
      </trkpt>
      <trkpt lat="40.290833" lon="-4.766367">
        <ele>2264.0</ele>
        <time>2013-07-02T13:07:38Z</time>
      </trkpt>
      <trkpt lat="40.290817" lon="-4.766217">
        <ele>2266.0</ele>
        <time>2013-07-02T13:07:39Z</time>
      </trkpt>
      <trkpt lat="40.290817" lon="-4.766067">
        <ele>2267.0</ele>
        <time>2013-07-02T13:07:40Z</time>
      </trkpt>
      <trkpt lat="40.290867" lon="-4.765917">
        <ele>2268.0</ele>
        <time>2013-07-02T13:07:41Z</time>
      </trkpt>
      <trkpt lat="40.290933" lon="-4.765767">
        <ele>2270.0</ele>
        <time>2013-07-02T13:07:42Z</time>
      </trkpt>
      <trkpt lat="40.291033" lon="-4.765650">
        <ele>2271.0</ele>
        <time>2013-07-02T13:07:43Z</time>
      </trkpt>
      <trkpt lat="40.291133" lon="-4.765583">
        <ele>2273.0</ele>
        <time>2013-07-02T13:07:44Z</time>
      </trkpt>
      <trkpt lat="40.291250" lon="-4.765517">
        <ele>2276.0</ele>
        <time>2013-07-02T13:07:45Z</time>
      </trkpt>
      <trkpt lat="40.291350" lon="-4.765483">
        <ele>2279.0</ele>
        <time>2013-07-02T13:07:46Z</time>
      </trkpt>
      <trkpt lat="40.291450" lon="-4.765450">
        <ele>2282.0</ele>
        <time>2013-07-02T13:07:47Z</time>
      </trkpt>
      <trkpt lat="40.291533" lon="-4.765450">
        <ele>2285.0</ele>
        <time>2013-07-02T13:07:48Z</time>
      </trkpt>
      <trkpt lat="40.291617" lon="-4.765450">
        <ele>2287.0</ele>
        <time>2013-07-02T13:07:49Z</time>
      </trkpt>
      <trkpt lat="40.291683" lon="-4.765500">
        <ele>2288.0</ele>
        <time>2013-07-02T13:07:50Z</time>
      </trkpt>
      <trkpt lat="40.291750" lon="-4.765550">
        <ele>2289.0</ele>
        <time>2013-07-02T13:07:51Z</time>
      </trkpt>
      <trkpt lat="40.291767" lon="-4.765617">
        <ele>2291.0</ele>
        <time>2013-07-02T13:07:52Z</time>
      </trkpt>
      <trkpt lat="40.291767" lon="-4.765667">
        <ele>2293.0</ele>
        <time>2013-07-02T13:07:53Z</time>
      </trkpt>
      <trkpt lat="40.291750" lon="-4.765700">
        <ele>2295.0</ele>
        <time>2013-07-02T13:07:54Z</time>
      </trkpt>
      <trkpt lat="40.291717" lon="-4.765700">
        <ele>2297.0</ele>
        <time>2013-07-02T13:07:55Z</time>
      </trkpt>
      <trkpt lat="40.291667" lon="-4.765667">
        <ele>2299.0</ele>
        <time>2013-07-02T13:07:56Z</time>
      </trkpt>
      <trkpt lat="40.291650" lon="-4.765600">
        <ele>2300.0</ele>
        <time>2013-07-02T13:07:57Z</time>
      </trkpt>
      <trkpt lat="40.291617" lon="-4.765517">
        <ele>2301.0</ele>
        <time>2013-07-02T13:07:58Z</time>
      </trkpt>
      <trkpt lat="40.291567" lon="-4.765433">
        <ele>2302.0</ele>
        <time>2013-07-02T13:07:59Z</time>
      </trkpt>
      <trkpt lat="40.291533" lon="-4.765333">
        <ele>2303.0</ele>
        <time>2013-07-02T13:08:00Z</time>
      </trkpt>
      <trkpt lat="40.291517" lon="-4.765200">
        <ele>2304.0</ele>
        <time>2013-07-02T13:08:01Z</time>
      </trkpt>
      <trkpt lat="40.291533" lon="-4.765033">
        <ele>2305.0</ele>
        <time>2013-07-02T13:08:02Z</time>
      </trkpt>
      <trkpt lat="40.291583" lon="-4.764867">
        <ele>2306.0</ele>
        <time>2013-07-02T13:08:03Z</time>
      </trkpt>
      <trkpt lat="40.291650" lon="-4.764717">
        <ele>2308.0</ele>
        <time>2013-07-02T13:08:04Z</time>
      </trkpt>
      <trkpt lat="40.291733" lon="-4.764583">
        <ele>2310.0</ele>
        <time>2013-07-02T13:08:05Z</time>
      </trkpt>
      <trkpt lat="40.291817" lon="-4.764467">
        <ele>2311.0</ele>
        <time>2013-07-02T13:08:06Z</time>
      </trkpt>
      <trkpt lat="40.291917" lon="-4.764367">
        <ele>2312.0</ele>
        <time>2013-07-02T13:08:07Z</time>
      </trkpt>
      <trkpt lat="40.292033" lon="-4.764283">
        <ele>2312.0</ele>
        <time>2013-07-02T13:08:08Z</time>
      </trkpt>
      <trkpt lat="40.292150" lon="-4.764217">
        <ele>2314.0</ele>
        <time>2013-07-02T13:08:09Z</time>
      </trkpt>
      <trkpt lat="40.292250" lon="-4.764200">
        <ele>2315.0</ele>
        <time>2013-07-02T13:08:10Z</time>
      </trkpt>
      <trkpt lat="40.292350" lon="-4.764200">
        <ele>2316.0</ele>
        <time>2013-07-02T13:08:11Z</time>
      </trkpt>
      <trkpt lat="40.292433" lon="-4.764233">
        <ele>2317.0</ele>
        <time>2013-07-02T13:08:12Z</time>
      </trkpt>
      <trkpt lat="40.292483" lon="-4.764267">
        <ele>2318.0</ele>
        <time>2013-07-02T13:08:13Z</time>
      </trkpt>
      <trkpt lat="40.292517" lon="-4.764317">
        <ele>2319.0</ele>
        <time>2013-07-02T13:08:14Z</time>
      </trkpt>
      <trkpt lat="40.292533" lon="-4.764367">
        <ele>2319.0</ele>
        <time>2013-07-02T13:08:15Z</time>
      </trkpt>
      <trkpt lat="40.292533" lon="-4.764417">
        <ele>2320.0</ele>
        <time>2013-07-02T13:08:16Z</time>
      </trkpt>
      <trkpt lat="40.292533" lon="-4.764433">
        <ele>2320.0</ele>
        <time>2013-07-02T13:08:17Z</time>
      </trkpt>
      <trkpt lat="40.292500" lon="-4.764433">
        <ele>2321.0</ele>
        <time>2013-07-02T13:08:18Z</time>
      </trkpt>
      <trkpt lat="40.292450" lon="-4.764383">
        <ele>2321.0</ele>
        <time>2013-07-02T13:08:19Z</time>
      </trkpt>
      <trkpt lat="40.292417" lon="-4.764300">
        <ele>2322.0</ele>
        <time>2013-07-02T13:08:20Z</time>
      </trkpt>
      <trkpt lat="40.292383" lon="-4.764183">
        <ele>2322.0</ele>
        <time>2013-07-02T13:08:21Z</time>
      </trkpt>
      <trkpt lat="40.292383" lon="-4.764067">
        <ele>2323.0</ele>
        <time>2013-07-02T13:08:22Z</time>
      </trkpt>
      <trkpt lat="40.292367" lon="-4.763933">
        <ele>2325.0</ele>
        <time>2013-07-02T13:08:23Z</time>
      </trkpt>
      <trkpt lat="40.292350" lon="-4.763800">
        <ele>2326.0</ele>
        <time>2013-07-02T13:08:24Z</time>
      </trkpt>
      <trkpt lat="40.292367" lon="-4.763667">
        <ele>2328.0</ele>
        <time>2013-07-02T13:08:25Z</time>
      </trkpt>
      <trkpt lat="40.292383" lon="-4.763517">
        <ele>2329.0</ele>
        <time>2013-07-02T13:08:26Z</time>
      </trkpt>
      <trkpt lat="40.292417" lon="-4.763367">
        <ele>2330.0</ele>
        <time>2013-07-02T13:08:27Z</time>
      </trkpt>
      <trkpt lat="40.292483" lon="-4.763233">
        <ele>2331.0</ele>
        <time>2013-07-02T13:08:28Z</time>
      </trkpt>
      <trkpt lat="40.292567" lon="-4.763117">
        <ele>2332.0</ele>
        <time>2013-07-02T13:08:29Z</time>
      </trkpt>
      <trkpt lat="40.292683" lon="-4.763017">
        <ele>2332.0</ele>
        <time>2013-07-02T13:08:30Z</time>
      </trkpt>
      <trkpt lat="40.292800" lon="-4.762900">
        <ele>2332.0</ele>
        <time>2013-07-02T13:08:31Z</time>
      </trkpt>
      <trkpt lat="40.292917" lon="-4.762817">
        <ele>2332.0</ele>
        <time>2013-07-02T13:08:32Z</time>
      </trkpt>
      <trkpt lat="40.293033" lon="-4.762733">
        <ele>2332.0</ele>
        <time>2013-07-02T13:08:33Z</time>
      </trkpt>
      <trkpt lat="40.293167" lon="-4.762700">
        <ele>2332.0</ele>
        <time>2013-07-02T13:08:34Z</time>
      </trkpt>
      <trkpt lat="40.293267" lon="-4.762700">
        <ele>2332.0</ele>
        <time>2013-07-02T13:08:35Z</time>
      </trkpt>
      <trkpt lat="40.293367" lon="-4.762717">
        <ele>2331.0</ele>
        <time>2013-07-02T13:08:36Z</time>
      </trkpt>
      <trkpt lat="40.293433" lon="-4.762750">
        <ele>2330.0</ele>
        <time>2013-07-02T13:08:37Z</time>
      </trkpt>
      <trkpt lat="40.293467" lon="-4.762817">
        <ele>2328.0</ele>
        <time>2013-07-02T13:08:38Z</time>
      </trkpt>
      <trkpt lat="40.293483" lon="-4.762867">
        <ele>2327.0</ele>
        <time>2013-07-02T13:08:39Z</time>
      </trkpt>
      <trkpt lat="40.293500" lon="-4.762933">
        <ele>2326.0</ele>
        <time>2013-07-02T13:08:40Z</time>
      </trkpt>
      <trkpt lat="40.293517" lon="-4.762983">
        <ele>2326.0</ele>
        <time>2013-07-02T13:08:41Z</time>
      </trkpt>
      <trkpt lat="40.293500" lon="-4.763033">
        <ele>2325.0</ele>
        <time>2013-07-02T13:08:42Z</time>
      </trkpt>
      <trkpt lat="40.293500" lon="-4.763050">
        <ele>2325.0</ele>
        <time>2013-07-02T13:08:43Z</time>
      </trkpt>
      <trkpt lat="40.293467" lon="-4.763050">
        <ele>2325.0</ele>
        <time>2013-07-02T13:08:44Z</time>
      </trkpt>
      <trkpt lat="40.293433" lon="-4.763017">
        <ele>2325.0</ele>
        <time>2013-07-02T13:08:45Z</time>
      </trkpt>
      <trkpt lat="40.293383" lon="-4.762967">
        <ele>2325.0</ele>
        <time>2013-07-02T13:08:46Z</time>
      </trkpt>
      <trkpt lat="40.293333" lon="-4.762917">
        <ele>2327.0</ele>
        <time>2013-07-02T13:08:47Z</time>
      </trkpt>
      <trkpt lat="40.293300" lon="-4.762883">
        <ele>2330.0</ele>
        <time>2013-07-02T13:08:48Z</time>
      </trkpt>
      <trkpt lat="40.293267" lon="-4.762850">
        <ele>2331.0</ele>
        <time>2013-07-02T13:08:49Z</time>
      </trkpt>
      <trkpt lat="40.293250" lon="-4.762833">
        <ele>2332.0</ele>
        <time>2013-07-02T13:08:50Z</time>
      </trkpt>
      <trkpt lat="40.293217" lon="-4.762800">
        <ele>2332.0</ele>
        <time>2013-07-02T13:08:51Z</time>
      </trkpt>
      <trkpt lat="40.293200" lon="-4.762750">
        <ele>2332.0</ele>
        <time>2013-07-02T13:08:52Z</time>
      </trkpt>
      <trkpt lat="40.293150" lon="-4.762683">
        <ele>2332.0</ele>
        <time>2013-07-02T13:08:53Z</time>
      </trkpt>
      <trkpt lat="40.293100" lon="-4.762633">
        <ele>2332.0</ele>
        <time>2013-07-02T13:08:54Z</time>
      </trkpt>
      <trkpt lat="40.293050" lon="-4.762567">
        <ele>2333.0</ele>
        <time>2013-07-02T13:08:55Z</time>
      </trkpt>
      <trkpt lat="40.292983" lon="-4.762517">
        <ele>2333.0</ele>
        <time>2013-07-02T13:08:56Z</time>
      </trkpt>
      <trkpt lat="40.292900" lon="-4.762467">
        <ele>2334.0</ele>
        <time>2013-07-02T13:08:57Z</time>
      </trkpt>
      <trkpt lat="40.292833" lon="-4.762417">
        <ele>2336.0</ele>
        <time>2013-07-02T13:08:58Z</time>
      </trkpt>
      <trkpt lat="40.292767" lon="-4.762350">
        <ele>2339.0</ele>
        <time>2013-07-02T13:08:59Z</time>
      </trkpt>
      <trkpt lat="40.292700" lon="-4.762300">
        <ele>2343.0</ele>
        <time>2013-07-02T13:09:00Z</time>
      </trkpt>
      <trkpt lat="40.292633" lon="-4.762267">
        <ele>2347.0</ele>
        <time>2013-07-02T13:09:01Z</time>
      </trkpt>
      <trkpt lat="40.292600" lon="-4.762217">
        <ele>2351.0</ele>
        <time>2013-07-02T13:09:02Z</time>
      </trkpt>
      <trkpt lat="40.292567" lon="-4.762167">
        <ele>2354.0</ele>
        <time>2013-07-02T13:09:03Z</time>
      </trkpt>
      <trkpt lat="40.292533" lon="-4.762100">
        <ele>2355.0</ele>
        <time>2013-07-02T13:09:04Z</time>
      </trkpt>
      <trkpt lat="40.292483" lon="-4.762000">
        <ele>2356.0</ele>
        <time>2013-07-02T13:09:05Z</time>
      </trkpt>
      <trkpt lat="40.292450" lon="-4.761867">
        <ele>2357.0</ele>
        <time>2013-07-02T13:09:06Z</time>
      </trkpt>
      <trkpt lat="40.292450" lon="-4.761717">
        <ele>2359.0</ele>
        <time>2013-07-02T13:09:07Z</time>
      </trkpt>
      <trkpt lat="40.292467" lon="-4.761567">
        <ele>2360.0</ele>
        <time>2013-07-02T13:09:08Z</time>
      </trkpt>
      <trkpt lat="40.292533" lon="-4.761433">
        <ele>2361.0</ele>
        <time>2013-07-02T13:09:09Z</time>
      </trkpt>
      <trkpt lat="40.292633" lon="-4.761333">
        <ele>2362.0</ele>
        <time>2013-07-02T13:09:10Z</time>
      </trkpt>
      <trkpt lat="40.292750" lon="-4.761283">
        <ele>2365.0</ele>
        <time>2013-07-02T13:09:11Z</time>
      </trkpt>
      <trkpt lat="40.292850" lon="-4.761283">
        <ele>2368.0</ele>
        <time>2013-07-02T13:09:12Z</time>
      </trkpt>
      <trkpt lat="40.292917" lon="-4.761317">
        <ele>2370.0</ele>
        <time>2013-07-02T13:09:13Z</time>
      </trkpt>
      <trkpt lat="40.292933" lon="-4.761383">
        <ele>2372.0</ele>
        <time>2013-07-02T13:09:14Z</time>
      </trkpt>
      <trkpt lat="40.292933" lon="-4.761450">
        <ele>2374.0</ele>
        <time>2013-07-02T13:09:15Z</time>
      </trkpt>
      <trkpt lat="40.292900" lon="-4.761500">
        <ele>2377.0</ele>
        <time>2013-07-02T13:09:16Z</time>
      </trkpt>
      <trkpt lat="40.292867" lon="-4.761533">
        <ele>2381.0</ele>
        <time>2013-07-02T13:09:17Z</time>
      </trkpt>
      <trkpt lat="40.292817" lon="-4.761517">
        <ele>2383.0</ele>
        <time>2013-07-02T13:09:18Z</time>
      </trkpt>
      <trkpt lat="40.292767" lon="-4.761483">
        <ele>2385.0</ele>
        <time>2013-07-02T13:09:19Z</time>
      </trkpt>
      <trkpt lat="40.292717" lon="-4.761417">
        <ele>2387.0</ele>
        <time>2013-07-02T13:09:20Z</time>
      </trkpt>
      <trkpt lat="40.292667" lon="-4.761333">
        <ele>2388.0</ele>
        <time>2013-07-02T13:09:21Z</time>
      </trkpt>
      <trkpt lat="40.292617" lon="-4.761233">
        <ele>2389.0</ele>
        <time>2013-07-02T13:09:22Z</time>
      </trkpt>
      <trkpt lat="40.292583" lon="-4.761117">
        <ele>2389.0</ele>
        <time>2013-07-02T13:09:23Z</time>
      </trkpt>
      <trkpt lat="40.292567" lon="-4.760983">
        <ele>2390.0</ele>
        <time>2013-07-02T13:09:24Z</time>
      </trkpt>
      <trkpt lat="40.292567" lon="-4.760833">
        <ele>2390.0</ele>
        <time>2013-07-02T13:09:25Z</time>
      </trkpt>
      <trkpt lat="40.292583" lon="-4.760683">
        <ele>2390.0</ele>
        <time>2013-07-02T13:09:26Z</time>
      </trkpt>
      <trkpt lat="40.292650" lon="-4.760533">
        <ele>2390.0</ele>
        <time>2013-07-02T13:09:27Z</time>
      </trkpt>
      <trkpt lat="40.292717" lon="-4.760400">
        <ele>2390.0</ele>
        <time>2013-07-02T13:09:28Z</time>
      </trkpt>
      <trkpt lat="40.292817" lon="-4.760283">
        <ele>2392.0</ele>
        <time>2013-07-02T13:09:29Z</time>
      </trkpt>
      <trkpt lat="40.292917" lon="-4.760200">
        <ele>2394.0</ele>
        <time>2013-07-02T13:09:30Z</time>
      </trkpt>
      <trkpt lat="40.293000" lon="-4.760117">
        <ele>2396.0</ele>
        <time>2013-07-02T13:09:31Z</time>
      </trkpt>
      <trkpt lat="40.293083" lon="-4.760067">
        <ele>2399.0</ele>
        <time>2013-07-02T13:09:32Z</time>
      </trkpt>
      <trkpt lat="40.293183" lon="-4.760033">
        <ele>2401.0</ele>
        <time>2013-07-02T13:09:33Z</time>
      </trkpt>
      <trkpt lat="40.293283" lon="-4.760017">
        <ele>2403.0</ele>
        <time>2013-07-02T13:09:34Z</time>
      </trkpt>
      <trkpt lat="40.293367" lon="-4.760000">
        <ele>2406.0</ele>
        <time>2013-07-02T13:09:35Z</time>
      </trkpt>
      <trkpt lat="40.293433" lon="-4.760017">
        <ele>2409.0</ele>
        <time>2013-07-02T13:09:36Z</time>
      </trkpt>
      <trkpt lat="40.293483" lon="-4.760033">
        <ele>2412.0</ele>
        <time>2013-07-02T13:09:37Z</time>
      </trkpt>
      <trkpt lat="40.293517" lon="-4.760067">
        <ele>2414.0</ele>
        <time>2013-07-02T13:09:38Z</time>
      </trkpt>
      <trkpt lat="40.293567" lon="-4.760100">
        <ele>2416.0</ele>
        <time>2013-07-02T13:09:39Z</time>
      </trkpt>
      <trkpt lat="40.293600" lon="-4.760150">
        <ele>2418.0</ele>
        <time>2013-07-02T13:09:40Z</time>
      </trkpt>
      <trkpt lat="40.293633" lon="-4.760183">
        <ele>2420.0</ele>
        <time>2013-07-02T13:09:41Z</time>
      </trkpt>
      <trkpt lat="40.293633" lon="-4.760217">
        <ele>2422.0</ele>
        <time>2013-07-02T13:09:42Z</time>
      </trkpt>
      <trkpt lat="40.293617" lon="-4.760250">
        <ele>2424.0</ele>
        <time>2013-07-02T13:09:43Z</time>
      </trkpt>
      <trkpt lat="40.293567" lon="-4.760283">
        <ele>2425.0</ele>
        <time>2013-07-02T13:09:44Z</time>
      </trkpt>
      <trkpt lat="40.293517" lon="-4.760300">
        <ele>2424.0</ele>
        <time>2013-07-02T13:09:45Z</time>
      </trkpt>
      <trkpt lat="40.293467" lon="-4.760317">
        <ele>2425.0</ele>
        <time>2013-07-02T13:09:46Z</time>
      </trkpt>
      <trkpt lat="40.293417" lon="-4.760300">
        <ele>2426.0</ele>
        <time>2013-07-02T13:09:47Z</time>
      </trkpt>
      <trkpt lat="40.293367" lon="-4.760300">
        <ele>2428.0</ele>
        <time>2013-07-02T13:09:48Z</time>
      </trkpt>
      <trkpt lat="40.293317" lon="-4.760267">
        <ele>2428.0</ele>
        <time>2013-07-02T13:09:49Z</time>
      </trkpt>
      <trkpt lat="40.293267" lon="-4.760233">
        <ele>2428.0</ele>
        <time>2013-07-02T13:09:50Z</time>
      </trkpt>
      <trkpt lat="40.293217" lon="-4.760167">
        <ele>2428.0</ele>
        <time>2013-07-02T13:09:51Z</time>
      </trkpt>
      <trkpt lat="40.293167" lon="-4.760050">
        <ele>2427.0</ele>
        <time>2013-07-02T13:09:52Z</time>
      </trkpt>
      <trkpt lat="40.293150" lon="-4.759900">
        <ele>2426.0</ele>
        <time>2013-07-02T13:09:53Z</time>
      </trkpt>
      <trkpt lat="40.293150" lon="-4.759750">
        <ele>2426.0</ele>
        <time>2013-07-02T13:09:54Z</time>
      </trkpt>
      <trkpt lat="40.293150" lon="-4.759583">
        <ele>2426.0</ele>
        <time>2013-07-02T13:09:55Z</time>
      </trkpt>
      <trkpt lat="40.293183" lon="-4.759417">
        <ele>2426.0</ele>
        <time>2013-07-02T13:09:56Z</time>
      </trkpt>
      <trkpt lat="40.293233" lon="-4.759283">
        <ele>2426.0</ele>
        <time>2013-07-02T13:09:57Z</time>
      </trkpt>
      <trkpt lat="40.293283" lon="-4.759133">
        <ele>2425.0</ele>
        <time>2013-07-02T13:09:58Z</time>
      </trkpt>
      <trkpt lat="40.293367" lon="-4.759000">
        <ele>2425.0</ele>
        <time>2013-07-02T13:09:59Z</time>
      </trkpt>
      <trkpt lat="40.293450" lon="-4.758850">
        <ele>2426.0</ele>
        <time>2013-07-02T13:10:00Z</time>
      </trkpt>
      <trkpt lat="40.293550" lon="-4.758733">
        <ele>2428.0</ele>
        <time>2013-07-02T13:10:01Z</time>
      </trkpt>
      <trkpt lat="40.293633" lon="-4.758617">
        <ele>2431.0</ele>
        <time>2013-07-02T13:10:02Z</time>
      </trkpt>
      <trkpt lat="40.293717" lon="-4.758517">
        <ele>2433.0</ele>
        <time>2013-07-02T13:10:03Z</time>
      </trkpt>
      <trkpt lat="40.293800" lon="-4.758433">
        <ele>2436.0</ele>
        <time>2013-07-02T13:10:04Z</time>
      </trkpt>
      <trkpt lat="40.293900" lon="-4.758367">
        <ele>2438.0</ele>
        <time>2013-07-02T13:10:05Z</time>
      </trkpt>
      <trkpt lat="40.293983" lon="-4.758317">
        <ele>2440.0</ele>
        <time>2013-07-02T13:10:06Z</time>
      </trkpt>
      <trkpt lat="40.294067" lon="-4.758300">
        <ele>2441.0</ele>
        <time>2013-07-02T13:10:07Z</time>
      </trkpt>
      <trkpt lat="40.294150" lon="-4.758283">
        <ele>2443.0</ele>
        <time>2013-07-02T13:10:08Z</time>
      </trkpt>
      <trkpt lat="40.294217" lon="-4.758300">
        <ele>2445.0</ele>
        <time>2013-07-02T13:10:09Z</time>
      </trkpt>
      <trkpt lat="40.294250" lon="-4.758333">
        <ele>2446.0</ele>
        <time>2013-07-02T13:10:10Z</time>
      </trkpt>
      <trkpt lat="40.294283" lon="-4.758367">
        <ele>2447.0</ele>
        <time>2013-07-02T13:10:11Z</time>
      </trkpt>
      <trkpt lat="40.294317" lon="-4.758383">
        <ele>2448.0</ele>
        <time>2013-07-02T13:10:12Z</time>
      </trkpt>
      <trkpt lat="40.294333" lon="-4.758433">
        <ele>2449.0</ele>
        <time>2013-07-02T13:10:13Z</time>
      </trkpt>
      <trkpt lat="40.294350" lon="-4.758467">
        <ele>2449.0</ele>
        <time>2013-07-02T13:10:14Z</time>
      </trkpt>
      <trkpt lat="40.294367" lon="-4.758500">
        <ele>2451.0</ele>
        <time>2013-07-02T13:10:15Z</time>
      </trkpt>
      <trkpt lat="40.294367" lon="-4.758550">
        <ele>2450.0</ele>
        <time>2013-07-02T13:10:16Z</time>
      </trkpt>
      <trkpt lat="40.294383" lon="-4.758583">
        <ele>2452.0</ele>
        <time>2013-07-02T13:10:17Z</time>
      </trkpt>
      <trkpt lat="40.294383" lon="-4.758600">
        <ele>2453.0</ele>
        <time>2013-07-02T13:10:18Z</time>
      </trkpt>
      <trkpt lat="40.294383" lon="-4.758633">
        <ele>2455.0</ele>
        <time>2013-07-02T13:10:19Z</time>
      </trkpt>
      <trkpt lat="40.294400" lon="-4.758650">
        <ele>2456.0</ele>
        <time>2013-07-02T13:10:20Z</time>
      </trkpt>
      <trkpt lat="40.294383" lon="-4.758683">
        <ele>2457.0</ele>
        <time>2013-07-02T13:10:21Z</time>
      </trkpt>
      <trkpt lat="40.294383" lon="-4.758717">
        <ele>2458.0</ele>
        <time>2013-07-02T13:10:22Z</time>
      </trkpt>
      <trkpt lat="40.294367" lon="-4.758750">
        <ele>2460.0</ele>
        <time>2013-07-02T13:10:23Z</time>
      </trkpt>
      <trkpt lat="40.294350" lon="-4.758783">
        <ele>2460.0</ele>
        <time>2013-07-02T13:10:24Z</time>
      </trkpt>
      <trkpt lat="40.294367" lon="-4.758850">
        <ele>2461.0</ele>
        <time>2013-07-02T13:10:25Z</time>
      </trkpt>
      <trkpt lat="40.294367" lon="-4.758900">
        <ele>2463.0</ele>
        <time>2013-07-02T13:10:26Z</time>
      </trkpt>
      <trkpt lat="40.294383" lon="-4.758950">
        <ele>2465.0</ele>
        <time>2013-07-02T13:10:27Z</time>
      </trkpt>
      <trkpt lat="40.294383" lon="-4.759000">
        <ele>2468.0</ele>
        <time>2013-07-02T13:10:28Z</time>
      </trkpt>
      <trkpt lat="40.294383" lon="-4.759033">
        <ele>2471.0</ele>
        <time>2013-07-02T13:10:29Z</time>
      </trkpt>
      <trkpt lat="40.294400" lon="-4.759050">
        <ele>2474.0</ele>
        <time>2013-07-02T13:10:30Z</time>
      </trkpt>
      <trkpt lat="40.294400" lon="-4.759100">
        <ele>2476.0</ele>
        <time>2013-07-02T13:10:31Z</time>
      </trkpt>
      <trkpt lat="40.294400" lon="-4.759150">
        <ele>2478.0</ele>
        <time>2013-07-02T13:10:32Z</time>
      </trkpt>
      <trkpt lat="40.294350" lon="-4.759167">
        <ele>2479.0</ele>
        <time>2013-07-02T13:10:33Z</time>
      </trkpt>
      <trkpt lat="40.294300" lon="-4.759167">
        <ele>2481.0</ele>
        <time>2013-07-02T13:10:34Z</time>
      </trkpt>
      <trkpt lat="40.294250" lon="-4.759133">
        <ele>2483.0</ele>
        <time>2013-07-02T13:10:35Z</time>
      </trkpt>
      <trkpt lat="40.294200" lon="-4.759067">
        <ele>2485.0</ele>
        <time>2013-07-02T13:10:36Z</time>
      </trkpt>
      <trkpt lat="40.294150" lon="-4.758983">
        <ele>2487.0</ele>
        <time>2013-07-02T13:10:37Z</time>
      </trkpt>
      <trkpt lat="40.294117" lon="-4.758883">
        <ele>2489.0</ele>
        <time>2013-07-02T13:10:38Z</time>
      </trkpt>
      <trkpt lat="40.294083" lon="-4.758783">
        <ele>2489.0</ele>
        <time>2013-07-02T13:10:39Z</time>
      </trkpt>
      <trkpt lat="40.294067" lon="-4.758667">
        <ele>2488.0</ele>
        <time>2013-07-02T13:10:40Z</time>
      </trkpt>
      <trkpt lat="40.294067" lon="-4.758517">
        <ele>2488.0</ele>
        <time>2013-07-02T13:10:41Z</time>
      </trkpt>
      <trkpt lat="40.294083" lon="-4.758383">
        <ele>2487.0</ele>
        <time>2013-07-02T13:10:42Z</time>
      </trkpt>
      <trkpt lat="40.294117" lon="-4.758250">
        <ele>2487.0</ele>
        <time>2013-07-02T13:10:43Z</time>
      </trkpt>
      <trkpt lat="40.294167" lon="-4.758100">
        <ele>2486.0</ele>
        <time>2013-07-02T13:10:44Z</time>
      </trkpt>
      <trkpt lat="40.294233" lon="-4.757967">
        <ele>2485.0</ele>
        <time>2013-07-02T13:10:45Z</time>
      </trkpt>
      <trkpt lat="40.294283" lon="-4.757833">
        <ele>2484.0</ele>
        <time>2013-07-02T13:10:46Z</time>
      </trkpt>
      <trkpt lat="40.294350" lon="-4.757700">
        <ele>2483.0</ele>
        <time>2013-07-02T13:10:47Z</time>
      </trkpt>
      <trkpt lat="40.294417" lon="-4.757583">
        <ele>2482.0</ele>
        <time>2013-07-02T13:10:48Z</time>
      </trkpt>
      <trkpt lat="40.294483" lon="-4.757467">
        <ele>2481.0</ele>
        <time>2013-07-02T13:10:49Z</time>
      </trkpt>
      <trkpt lat="40.294550" lon="-4.757350">
        <ele>2479.0</ele>
        <time>2013-07-02T13:10:50Z</time>
      </trkpt>
      <trkpt lat="40.294650" lon="-4.757233">
        <ele>2478.0</ele>
        <time>2013-07-02T13:10:51Z</time>
      </trkpt>
      <trkpt lat="40.294750" lon="-4.757167">
        <ele>2479.0</ele>
        <time>2013-07-02T13:10:52Z</time>
      </trkpt>
      <trkpt lat="40.294867" lon="-4.757133">
        <ele>2480.0</ele>
        <time>2013-07-02T13:10:53Z</time>
      </trkpt>
      <trkpt lat="40.294950" lon="-4.757150">
        <ele>2482.0</ele>
        <time>2013-07-02T13:10:54Z</time>
      </trkpt>
      <trkpt lat="40.295017" lon="-4.757167">
        <ele>2484.0</ele>
        <time>2013-07-02T13:10:55Z</time>
      </trkpt>
      <trkpt lat="40.295050" lon="-4.757200">
        <ele>2486.0</ele>
        <time>2013-07-02T13:10:56Z</time>
      </trkpt>
      <trkpt lat="40.295083" lon="-4.757233">
        <ele>2487.0</ele>
        <time>2013-07-02T13:10:57Z</time>
      </trkpt>
      <trkpt lat="40.295100" lon="-4.757267">
        <ele>2488.0</ele>
        <time>2013-07-02T13:10:58Z</time>
      </trkpt>
      <trkpt lat="40.295100" lon="-4.757317">
        <ele>2489.0</ele>
        <time>2013-07-02T13:10:59Z</time>
      </trkpt>
      <trkpt lat="40.295083" lon="-4.757367">
        <ele>2489.0</ele>
        <time>2013-07-02T13:11:00Z</time>
      </trkpt>
      <trkpt lat="40.295050" lon="-4.757417">
        <ele>2490.0</ele>
        <time>2013-07-02T13:11:01Z</time>
      </trkpt>
      <trkpt lat="40.295017" lon="-4.757450">
        <ele>2490.0</ele>
        <time>2013-07-02T13:11:02Z</time>
      </trkpt>
      <trkpt lat="40.294967" lon="-4.757483">
        <ele>2492.0</ele>
        <time>2013-07-02T13:11:03Z</time>
      </trkpt>
      <trkpt lat="40.294933" lon="-4.757500">
        <ele>2494.0</ele>
        <time>2013-07-02T13:11:04Z</time>
      </trkpt>
      <trkpt lat="40.294900" lon="-4.757500">
        <ele>2496.0</ele>
        <time>2013-07-02T13:11:05Z</time>
      </trkpt>
      <trkpt lat="40.294867" lon="-4.757500">
        <ele>2496.0</ele>
        <time>2013-07-02T13:11:06Z</time>
      </trkpt>
      <trkpt lat="40.294817" lon="-4.757483">
        <ele>2496.0</ele>
        <time>2013-07-02T13:11:07Z</time>
      </trkpt>
      <trkpt lat="40.294750" lon="-4.757467">
        <ele>2495.0</ele>
        <time>2013-07-02T13:11:08Z</time>
      </trkpt>
      <trkpt lat="40.294667" lon="-4.757450">
        <ele>2495.0</ele>
        <time>2013-07-02T13:11:09Z</time>
      </trkpt>
      <trkpt lat="40.294583" lon="-4.757417">
        <ele>2494.0</ele>
        <time>2013-07-02T13:11:10Z</time>
      </trkpt>
      <trkpt lat="40.294500" lon="-4.757400">
        <ele>2495.0</ele>
        <time>2013-07-02T13:11:11Z</time>
      </trkpt>
      <trkpt lat="40.294433" lon="-4.757350">
        <ele>2494.0</ele>
        <time>2013-07-02T13:11:12Z</time>
      </trkpt>
      <trkpt lat="40.294333" lon="-4.757317">
        <ele>2492.0</ele>
        <time>2013-07-02T13:11:13Z</time>
      </trkpt>
      <trkpt lat="40.294233" lon="-4.757300">
        <ele>2490.0</ele>
        <time>2013-07-02T13:11:14Z</time>
      </trkpt>
      <trkpt lat="40.294133" lon="-4.757250">
        <ele>2489.0</ele>
        <time>2013-07-02T13:11:15Z</time>
      </trkpt>
      <trkpt lat="40.294017" lon="-4.757200">
        <ele>2489.0</ele>
        <time>2013-07-02T13:11:16Z</time>
      </trkpt>
      <trkpt lat="40.293933" lon="-4.757150">
        <ele>2493.0</ele>
        <time>2013-07-02T13:11:17Z</time>
      </trkpt>
      <trkpt lat="40.293867" lon="-4.757117">
        <ele>2495.0</ele>
        <time>2013-07-02T13:11:18Z</time>
      </trkpt>
      <trkpt lat="40.293800" lon="-4.757083">
        <ele>2497.0</ele>
        <time>2013-07-02T13:11:19Z</time>
      </trkpt>
      <trkpt lat="40.293750" lon="-4.757050">
        <ele>2496.0</ele>
        <time>2013-07-02T13:11:20Z</time>
      </trkpt>
      <trkpt lat="40.293700" lon="-4.757033">
        <ele>2494.0</ele>
        <time>2013-07-02T13:11:21Z</time>
      </trkpt>
      <trkpt lat="40.293617" lon="-4.757017">
        <ele>2490.0</ele>
        <time>2013-07-02T13:11:22Z</time>
      </trkpt>
      <trkpt lat="40.293533" lon="-4.757000">
        <ele>2487.0</ele>
        <time>2013-07-02T13:11:23Z</time>
      </trkpt>
      <trkpt lat="40.293433" lon="-4.757000">
        <ele>2485.0</ele>
        <time>2013-07-02T13:11:24Z</time>
      </trkpt>
      <trkpt lat="40.293350" lon="-4.757000">
        <ele>2484.0</ele>
        <time>2013-07-02T13:11:25Z</time>
      </trkpt>
      <trkpt lat="40.293267" lon="-4.756983">
        <ele>2484.0</ele>
        <time>2013-07-02T13:11:26Z</time>
      </trkpt>
      <trkpt lat="40.293200" lon="-4.756967">
        <ele>2484.0</ele>
        <time>2013-07-02T13:11:27Z</time>
      </trkpt>
      <trkpt lat="40.293133" lon="-4.756950">
        <ele>2484.0</ele>
        <time>2013-07-02T13:11:28Z</time>
      </trkpt>
      <trkpt lat="40.293067" lon="-4.756917">
        <ele>2483.0</ele>
        <time>2013-07-02T13:11:29Z</time>
      </trkpt>
      <trkpt lat="40.292983" lon="-4.756900">
        <ele>2481.0</ele>
        <time>2013-07-02T13:11:30Z</time>
      </trkpt>
      <trkpt lat="40.292900" lon="-4.756900">
        <ele>2479.0</ele>
        <time>2013-07-02T13:11:31Z</time>
      </trkpt>
      <trkpt lat="40.292817" lon="-4.756900">
        <ele>2477.0</ele>
        <time>2013-07-02T13:11:32Z</time>
      </trkpt>
      <trkpt lat="40.292750" lon="-4.756900">
        <ele>2476.0</ele>
        <time>2013-07-02T13:11:33Z</time>
      </trkpt>
      <trkpt lat="40.292683" lon="-4.756900">
        <ele>2474.0</ele>
        <time>2013-07-02T13:11:34Z</time>
      </trkpt>
      <trkpt lat="40.292633" lon="-4.756867">
        <ele>2476.0</ele>
        <time>2013-07-02T13:11:35Z</time>
      </trkpt>
      <trkpt lat="40.292567" lon="-4.756850">
        <ele>2475.0</ele>
        <time>2013-07-02T13:11:36Z</time>
      </trkpt>
      <trkpt lat="40.292500" lon="-4.756833">
        <ele>2473.0</ele>
        <time>2013-07-02T13:11:37Z</time>
      </trkpt>
      <trkpt lat="40.292417" lon="-4.756833">
        <ele>2471.0</ele>
        <time>2013-07-02T13:11:38Z</time>
      </trkpt>
      <trkpt lat="40.292350" lon="-4.756833">
        <ele>2469.0</ele>
        <time>2013-07-02T13:11:39Z</time>
      </trkpt>
      <trkpt lat="40.292283" lon="-4.756817">
        <ele>2469.0</ele>
        <time>2013-07-02T13:11:40Z</time>
      </trkpt>
      <trkpt lat="40.292217" lon="-4.756800">
        <ele>2468.0</ele>
        <time>2013-07-02T13:11:41Z</time>
      </trkpt>
      <trkpt lat="40.292133" lon="-4.756767">
        <ele>2466.0</ele>
        <time>2013-07-02T13:11:42Z</time>
      </trkpt>
      <trkpt lat="40.292050" lon="-4.756750">
        <ele>2464.0</ele>
        <time>2013-07-02T13:11:43Z</time>
      </trkpt>
      <trkpt lat="40.291983" lon="-4.756733">
        <ele>2462.0</ele>
        <time>2013-07-02T13:11:44Z</time>
      </trkpt>
      <trkpt lat="40.291900" lon="-4.756717">
        <ele>2462.0</ele>
        <time>2013-07-02T13:11:45Z</time>
      </trkpt>
      <trkpt lat="40.291833" lon="-4.756700">
        <ele>2460.0</ele>
        <time>2013-07-02T13:11:46Z</time>
      </trkpt>
      <trkpt lat="40.291767" lon="-4.756650">
        <ele>2458.0</ele>
        <time>2013-07-02T13:11:47Z</time>
      </trkpt>
      <trkpt lat="40.291700" lon="-4.756617">
        <ele>2453.0</ele>
        <time>2013-07-02T13:11:48Z</time>
      </trkpt>
      <trkpt lat="40.291617" lon="-4.756600">
        <ele>2448.0</ele>
        <time>2013-07-02T13:11:49Z</time>
      </trkpt>
      <trkpt lat="40.291533" lon="-4.756583">
        <ele>2445.0</ele>
        <time>2013-07-02T13:11:50Z</time>
      </trkpt>
      <trkpt lat="40.291450" lon="-4.756567">
        <ele>2442.0</ele>
        <time>2013-07-02T13:11:51Z</time>
      </trkpt>
      <trkpt lat="40.291383" lon="-4.756533">
        <ele>2439.0</ele>
        <time>2013-07-02T13:11:52Z</time>
      </trkpt>
      <trkpt lat="40.291300" lon="-4.756500">
        <ele>2436.0</ele>
        <time>2013-07-02T13:11:53Z</time>
      </trkpt>
      <trkpt lat="40.291233" lon="-4.756467">
        <ele>2432.0</ele>
        <time>2013-07-02T13:11:54Z</time>
      </trkpt>
      <trkpt lat="40.291150" lon="-4.756450">
        <ele>2428.0</ele>
        <time>2013-07-02T13:11:55Z</time>
      </trkpt>
      <trkpt lat="40.291050" lon="-4.756433">
        <ele>2425.0</ele>
        <time>2013-07-02T13:11:56Z</time>
      </trkpt>
      <trkpt lat="40.290967" lon="-4.756417">
        <ele>2423.0</ele>
        <time>2013-07-02T13:11:57Z</time>
      </trkpt>
      <trkpt lat="40.290900" lon="-4.756383">
        <ele>2421.0</ele>
        <time>2013-07-02T13:11:58Z</time>
      </trkpt>
      <trkpt lat="40.290817" lon="-4.756350">
        <ele>2419.0</ele>
        <time>2013-07-02T13:11:59Z</time>
      </trkpt>
      <trkpt lat="40.290750" lon="-4.756300">
        <ele>2414.0</ele>
        <time>2013-07-02T13:12:00Z</time>
      </trkpt>
      <trkpt lat="40.290667" lon="-4.756267">
        <ele>2411.0</ele>
        <time>2013-07-02T13:12:01Z</time>
      </trkpt>
      <trkpt lat="40.290583" lon="-4.756250">
        <ele>2408.0</ele>
        <time>2013-07-02T13:12:02Z</time>
      </trkpt>
      <trkpt lat="40.290483" lon="-4.756217">
        <ele>2405.0</ele>
        <time>2013-07-02T13:12:03Z</time>
      </trkpt>
      <trkpt lat="40.290400" lon="-4.756167">
        <ele>2402.0</ele>
        <time>2013-07-02T13:12:04Z</time>
      </trkpt>
      <trkpt lat="40.290317" lon="-4.756133">
        <ele>2400.0</ele>
        <time>2013-07-02T13:12:05Z</time>
      </trkpt>
      <trkpt lat="40.290250" lon="-4.756100">
        <ele>2398.0</ele>
        <time>2013-07-02T13:12:06Z</time>
      </trkpt>
      <trkpt lat="40.290167" lon="-4.756067">
        <ele>2395.0</ele>
        <time>2013-07-02T13:12:07Z</time>
      </trkpt>
      <trkpt lat="40.290083" lon="-4.756050">
        <ele>2394.0</ele>
        <time>2013-07-02T13:12:08Z</time>
      </trkpt>
      <trkpt lat="40.290000" lon="-4.756017">
        <ele>2392.0</ele>
        <time>2013-07-02T13:12:09Z</time>
      </trkpt>
      <trkpt lat="40.289917" lon="-4.755967">
        <ele>2390.0</ele>
        <time>2013-07-02T13:12:10Z</time>
      </trkpt>
      <trkpt lat="40.289850" lon="-4.755933">
        <ele>2388.0</ele>
        <time>2013-07-02T13:12:11Z</time>
      </trkpt>
      <trkpt lat="40.289767" lon="-4.755900">
        <ele>2386.0</ele>
        <time>2013-07-02T13:12:12Z</time>
      </trkpt>
      <trkpt lat="40.289683" lon="-4.755867">
        <ele>2384.0</ele>
        <time>2013-07-02T13:12:13Z</time>
      </trkpt>
      <trkpt lat="40.289600" lon="-4.755833">
        <ele>2383.0</ele>
        <time>2013-07-02T13:12:14Z</time>
      </trkpt>
      <trkpt lat="40.289533" lon="-4.755783">
        <ele>2381.0</ele>
        <time>2013-07-02T13:12:15Z</time>
      </trkpt>
      <trkpt lat="40.289467" lon="-4.755733">
        <ele>2378.0</ele>
        <time>2013-07-02T13:12:16Z</time>
      </trkpt>
      <trkpt lat="40.289400" lon="-4.755683">
        <ele>2376.0</ele>
        <time>2013-07-02T13:12:17Z</time>
      </trkpt>
      <trkpt lat="40.289317" lon="-4.755667">
        <ele>2373.0</ele>
        <time>2013-07-02T13:12:18Z</time>
      </trkpt>
      <trkpt lat="40.289250" lon="-4.755633">
        <ele>2371.0</ele>
        <time>2013-07-02T13:12:19Z</time>
      </trkpt>
      <trkpt lat="40.289167" lon="-4.755617">
        <ele>2369.0</ele>
        <time>2013-07-02T13:12:20Z</time>
      </trkpt>
      <trkpt lat="40.289083" lon="-4.755600">
        <ele>2367.0</ele>
        <time>2013-07-02T13:12:21Z</time>
      </trkpt>
      <trkpt lat="40.289017" lon="-4.755583">
        <ele>2368.0</ele>
        <time>2013-07-02T13:12:22Z</time>
      </trkpt>
      <trkpt lat="40.288933" lon="-4.755567">
        <ele>2366.0</ele>
        <time>2013-07-02T13:12:23Z</time>
      </trkpt>
      <trkpt lat="40.288850" lon="-4.755550">
        <ele>2364.0</ele>
        <time>2013-07-02T13:12:24Z</time>
      </trkpt>
      <trkpt lat="40.288767" lon="-4.755533">
        <ele>2362.0</ele>
        <time>2013-07-02T13:12:25Z</time>
      </trkpt>
      <trkpt lat="40.288683" lon="-4.755517">
        <ele>2360.0</ele>
        <time>2013-07-02T13:12:26Z</time>
      </trkpt>
      <trkpt lat="40.288617" lon="-4.755500">
        <ele>2359.0</ele>
        <time>2013-07-02T13:12:27Z</time>
      </trkpt>
      <trkpt lat="40.288533" lon="-4.755500">
        <ele>2358.0</ele>
        <time>2013-07-02T13:12:28Z</time>
      </trkpt>
      <trkpt lat="40.288467" lon="-4.755467">
        <ele>2357.0</ele>
        <time>2013-07-02T13:12:29Z</time>
      </trkpt>
      <trkpt lat="40.288383" lon="-4.755433">
        <ele>2355.0</ele>
        <time>2013-07-02T13:12:30Z</time>
      </trkpt>
      <trkpt lat="40.288300" lon="-4.755400">
        <ele>2354.0</ele>
        <time>2013-07-02T13:12:31Z</time>
      </trkpt>
      <trkpt lat="40.288217" lon="-4.755367">
        <ele>2353.0</ele>
        <time>2013-07-02T13:12:32Z</time>
      </trkpt>
      <trkpt lat="40.288133" lon="-4.755317">
        <ele>2351.0</ele>
        <time>2013-07-02T13:12:33Z</time>
      </trkpt>
      <trkpt lat="40.288050" lon="-4.755283">
        <ele>2349.0</ele>
        <time>2013-07-02T13:12:34Z</time>
      </trkpt>
      <trkpt lat="40.287967" lon="-4.755250">
        <ele>2347.0</ele>
        <time>2013-07-02T13:12:35Z</time>
      </trkpt>
      <trkpt lat="40.287867" lon="-4.755217">
        <ele>2344.0</ele>
        <time>2013-07-02T13:12:36Z</time>
      </trkpt>
      <trkpt lat="40.287783" lon="-4.755183">
        <ele>2342.0</ele>
        <time>2013-07-02T13:12:37Z</time>
      </trkpt>
      <trkpt lat="40.287683" lon="-4.755150">
        <ele>2340.0</ele>
        <time>2013-07-02T13:12:38Z</time>
      </trkpt>
      <trkpt lat="40.287617" lon="-4.755133">
        <ele>2341.0</ele>
        <time>2013-07-02T13:12:39Z</time>
      </trkpt>
      <trkpt lat="40.287533" lon="-4.755100">
        <ele>2341.0</ele>
        <time>2013-07-02T13:12:40Z</time>
      </trkpt>
      <trkpt lat="40.287450" lon="-4.755067">
        <ele>2339.0</ele>
        <time>2013-07-02T13:12:41Z</time>
      </trkpt>
      <trkpt lat="40.287383" lon="-4.755033">
        <ele>2338.0</ele>
        <time>2013-07-02T13:12:42Z</time>
      </trkpt>
      <trkpt lat="40.287300" lon="-4.754983">
        <ele>2336.0</ele>
        <time>2013-07-02T13:12:43Z</time>
      </trkpt>
      <trkpt lat="40.287217" lon="-4.754950">
        <ele>2335.0</ele>
        <time>2013-07-02T13:12:44Z</time>
      </trkpt>
      <trkpt lat="40.287133" lon="-4.754900">
        <ele>2333.0</ele>
        <time>2013-07-02T13:12:45Z</time>
      </trkpt>
      <trkpt lat="40.287050" lon="-4.754850">
        <ele>2331.0</ele>
        <time>2013-07-02T13:12:46Z</time>
      </trkpt>
      <trkpt lat="40.286967" lon="-4.754800">
        <ele>2330.0</ele>
        <time>2013-07-02T13:12:47Z</time>
      </trkpt>
      <trkpt lat="40.286883" lon="-4.754750">
        <ele>2329.0</ele>
        <time>2013-07-02T13:12:48Z</time>
      </trkpt>
      <trkpt lat="40.286800" lon="-4.754717">
        <ele>2328.0</ele>
        <time>2013-07-02T13:12:49Z</time>
      </trkpt>
      <trkpt lat="40.286717" lon="-4.754700">
        <ele>2328.0</ele>
        <time>2013-07-02T13:12:50Z</time>
      </trkpt>
      <trkpt lat="40.286650" lon="-4.754683">
        <ele>2327.0</ele>
        <time>2013-07-02T13:12:51Z</time>
      </trkpt>
      <trkpt lat="40.286567" lon="-4.754667">
        <ele>2327.0</ele>
        <time>2013-07-02T13:12:52Z</time>
      </trkpt>
      <trkpt lat="40.286483" lon="-4.754633">
        <ele>2327.0</ele>
        <time>2013-07-02T13:12:53Z</time>
      </trkpt>
      <trkpt lat="40.286400" lon="-4.754600">
        <ele>2327.0</ele>
        <time>2013-07-02T13:12:54Z</time>
      </trkpt>
      <trkpt lat="40.286317" lon="-4.754567">
        <ele>2326.0</ele>
        <time>2013-07-02T13:12:55Z</time>
      </trkpt>
      <trkpt lat="40.286233" lon="-4.754533">
        <ele>2326.0</ele>
        <time>2013-07-02T13:12:56Z</time>
      </trkpt>
      <trkpt lat="40.286167" lon="-4.754500">
        <ele>2325.0</ele>
        <time>2013-07-02T13:12:57Z</time>
      </trkpt>
      <trkpt lat="40.286083" lon="-4.754450">
        <ele>2325.0</ele>
        <time>2013-07-02T13:12:58Z</time>
      </trkpt>
      <trkpt lat="40.286017" lon="-4.754417">
        <ele>2324.0</ele>
        <time>2013-07-02T13:12:59Z</time>
      </trkpt>
      <trkpt lat="40.285950" lon="-4.754350">
        <ele>2324.0</ele>
        <time>2013-07-02T13:13:00Z</time>
      </trkpt>
      <trkpt lat="40.285867" lon="-4.754317">
        <ele>2323.0</ele>
        <time>2013-07-02T13:13:01Z</time>
      </trkpt>
      <trkpt lat="40.285800" lon="-4.754267">
        <ele>2321.0</ele>
        <time>2013-07-02T13:13:02Z</time>
      </trkpt>
      <trkpt lat="40.285717" lon="-4.754233">
        <ele>2320.0</ele>
        <time>2013-07-02T13:13:03Z</time>
      </trkpt>
      <trkpt lat="40.285633" lon="-4.754200">
        <ele>2319.0</ele>
        <time>2013-07-02T13:13:04Z</time>
      </trkpt>
      <trkpt lat="40.285550" lon="-4.754150">
        <ele>2317.0</ele>
        <time>2013-07-02T13:13:05Z</time>
      </trkpt>
      <trkpt lat="40.285467" lon="-4.754100">
        <ele>2317.0</ele>
        <time>2013-07-02T13:13:06Z</time>
      </trkpt>
      <trkpt lat="40.285367" lon="-4.754050">
        <ele>2316.0</ele>
        <time>2013-07-02T13:13:07Z</time>
      </trkpt>
      <trkpt lat="40.285283" lon="-4.754017">
        <ele>2314.0</ele>
        <time>2013-07-02T13:13:08Z</time>
      </trkpt>
      <trkpt lat="40.285183" lon="-4.753983">
        <ele>2313.0</ele>
        <time>2013-07-02T13:13:09Z</time>
      </trkpt>
      <trkpt lat="40.285100" lon="-4.753933">
        <ele>2313.0</ele>
        <time>2013-07-02T13:13:10Z</time>
      </trkpt>
      <trkpt lat="40.285017" lon="-4.753883">
        <ele>2312.0</ele>
        <time>2013-07-02T13:13:11Z</time>
      </trkpt>
      <trkpt lat="40.284933" lon="-4.753833">
        <ele>2311.0</ele>
        <time>2013-07-02T13:13:12Z</time>
      </trkpt>
      <trkpt lat="40.284850" lon="-4.753783">
        <ele>2309.0</ele>
        <time>2013-07-02T13:13:13Z</time>
      </trkpt>
      <trkpt lat="40.284750" lon="-4.753733">
        <ele>2308.0</ele>
        <time>2013-07-02T13:13:14Z</time>
      </trkpt>
      <trkpt lat="40.284667" lon="-4.753667">
        <ele>2307.0</ele>
        <time>2013-07-02T13:13:15Z</time>
      </trkpt>
      <trkpt lat="40.284583" lon="-4.753617">
        <ele>2306.0</ele>
        <time>2013-07-02T13:13:16Z</time>
      </trkpt>
      <trkpt lat="40.284500" lon="-4.753550">
        <ele>2304.0</ele>
        <time>2013-07-02T13:13:17Z</time>
      </trkpt>
      <trkpt lat="40.284417" lon="-4.753483">
        <ele>2303.0</ele>
        <time>2013-07-02T13:13:18Z</time>
      </trkpt>
      <trkpt lat="40.284317" lon="-4.753433">
        <ele>2302.0</ele>
        <time>2013-07-02T13:13:19Z</time>
      </trkpt>
      <trkpt lat="40.284233" lon="-4.753383">
        <ele>2302.0</ele>
        <time>2013-07-02T13:13:20Z</time>
      </trkpt>
      <trkpt lat="40.284150" lon="-4.753317">
        <ele>2301.0</ele>
        <time>2013-07-02T13:13:21Z</time>
      </trkpt>
      <trkpt lat="40.284067" lon="-4.753267">
        <ele>2300.0</ele>
        <time>2013-07-02T13:13:22Z</time>
      </trkpt>
      <trkpt lat="40.283983" lon="-4.753200">
        <ele>2299.0</ele>
        <time>2013-07-02T13:13:23Z</time>
      </trkpt>
      <trkpt lat="40.283900" lon="-4.753133">
        <ele>2297.0</ele>
        <time>2013-07-02T13:13:24Z</time>
      </trkpt>
      <trkpt lat="40.283817" lon="-4.753083">
        <ele>2296.0</ele>
        <time>2013-07-02T13:13:25Z</time>
      </trkpt>
      <trkpt lat="40.283717" lon="-4.753033">
        <ele>2294.0</ele>
        <time>2013-07-02T13:13:26Z</time>
      </trkpt>
      <trkpt lat="40.283633" lon="-4.752967">
        <ele>2293.0</ele>
        <time>2013-07-02T13:13:27Z</time>
      </trkpt>
      <trkpt lat="40.283550" lon="-4.752917">
        <ele>2292.0</ele>
        <time>2013-07-02T13:13:28Z</time>
      </trkpt>
      <trkpt lat="40.283467" lon="-4.752867">
        <ele>2291.0</ele>
        <time>2013-07-02T13:13:29Z</time>
      </trkpt>
      <trkpt lat="40.283383" lon="-4.752833">
        <ele>2290.0</ele>
        <time>2013-07-02T13:13:30Z</time>
      </trkpt>
      <trkpt lat="40.283300" lon="-4.752800">
        <ele>2289.0</ele>
        <time>2013-07-02T13:13:31Z</time>
      </trkpt>
      <trkpt lat="40.283233" lon="-4.752767">
        <ele>2288.0</ele>
        <time>2013-07-02T13:13:32Z</time>
      </trkpt>
      <trkpt lat="40.283150" lon="-4.752717">
        <ele>2287.0</ele>
        <time>2013-07-02T13:13:33Z</time>
      </trkpt>
      <trkpt lat="40.283083" lon="-4.752683">
        <ele>2285.0</ele>
        <time>2013-07-02T13:13:34Z</time>
      </trkpt>
      <trkpt lat="40.283000" lon="-4.752650">
        <ele>2284.0</ele>
        <time>2013-07-02T13:13:35Z</time>
      </trkpt>
      <trkpt lat="40.282917" lon="-4.752633">
        <ele>2282.0</ele>
        <time>2013-07-02T13:13:36Z</time>
      </trkpt>
      <trkpt lat="40.282850" lon="-4.752617">
        <ele>2281.0</ele>
        <time>2013-07-02T13:13:37Z</time>
      </trkpt>
      <trkpt lat="40.282783" lon="-4.752600">
        <ele>2280.0</ele>
        <time>2013-07-02T13:13:38Z</time>
      </trkpt>
      <trkpt lat="40.282717" lon="-4.752583">
        <ele>2279.0</ele>
        <time>2013-07-02T13:13:39Z</time>
      </trkpt>
      <trkpt lat="40.282633" lon="-4.752567">
        <ele>2278.0</ele>
        <time>2013-07-02T13:13:40Z</time>
      </trkpt>
      <trkpt lat="40.282567" lon="-4.752550">
        <ele>2276.0</ele>
        <time>2013-07-02T13:13:41Z</time>
      </trkpt>
      <trkpt lat="40.282500" lon="-4.752517">
        <ele>2274.0</ele>
        <time>2013-07-02T13:13:42Z</time>
      </trkpt>
      <trkpt lat="40.282417" lon="-4.752483">
        <ele>2272.0</ele>
        <time>2013-07-02T13:13:43Z</time>
      </trkpt>
      <trkpt lat="40.282350" lon="-4.752467">
        <ele>2271.0</ele>
        <time>2013-07-02T13:13:44Z</time>
      </trkpt>
      <trkpt lat="40.282267" lon="-4.752433">
        <ele>2270.0</ele>
        <time>2013-07-02T13:13:45Z</time>
      </trkpt>
      <trkpt lat="40.282200" lon="-4.752417">
        <ele>2269.0</ele>
        <time>2013-07-02T13:13:46Z</time>
      </trkpt>
      <trkpt lat="40.282133" lon="-4.752417">
        <ele>2268.0</ele>
        <time>2013-07-02T13:13:47Z</time>
      </trkpt>
      <trkpt lat="40.282067" lon="-4.752383">
        <ele>2267.0</ele>
        <time>2013-07-02T13:13:48Z</time>
      </trkpt>
      <trkpt lat="40.282000" lon="-4.752367">
        <ele>2265.0</ele>
        <time>2013-07-02T13:13:49Z</time>
      </trkpt>
      <trkpt lat="40.281917" lon="-4.752333">
        <ele>2263.0</ele>
        <time>2013-07-02T13:13:50Z</time>
      </trkpt>
      <trkpt lat="40.281833" lon="-4.752300">
        <ele>2261.0</ele>
        <time>2013-07-02T13:13:51Z</time>
      </trkpt>
      <trkpt lat="40.281767" lon="-4.752267">
        <ele>2262.0</ele>
        <time>2013-07-02T13:13:52Z</time>
      </trkpt>
      <trkpt lat="40.281683" lon="-4.752233">
        <ele>2262.0</ele>
        <time>2013-07-02T13:13:53Z</time>
      </trkpt>
      <trkpt lat="40.281617" lon="-4.752200">
        <ele>2261.0</ele>
        <time>2013-07-02T13:13:54Z</time>
      </trkpt>
      <trkpt lat="40.281550" lon="-4.752167">
        <ele>2259.0</ele>
        <time>2013-07-02T13:13:55Z</time>
      </trkpt>
      <trkpt lat="40.281483" lon="-4.752117">
        <ele>2257.0</ele>
        <time>2013-07-02T13:13:56Z</time>
      </trkpt>
      <trkpt lat="40.281400" lon="-4.752083">
        <ele>2256.0</ele>
        <time>2013-07-02T13:13:57Z</time>
      </trkpt>
      <trkpt lat="40.281317" lon="-4.752050">
        <ele>2255.0</ele>
        <time>2013-07-02T13:13:58Z</time>
      </trkpt>
      <trkpt lat="40.281250" lon="-4.752017">
        <ele>2255.0</ele>
        <time>2013-07-02T13:13:59Z</time>
      </trkpt>
      <trkpt lat="40.281183" lon="-4.751983">
        <ele>2254.0</ele>
        <time>2013-07-02T13:14:00Z</time>
      </trkpt>
      <trkpt lat="40.281117" lon="-4.751933">
        <ele>2253.0</ele>
        <time>2013-07-02T13:14:01Z</time>
      </trkpt>
      <trkpt lat="40.281033" lon="-4.751900">
        <ele>2252.0</ele>
        <time>2013-07-02T13:14:02Z</time>
      </trkpt>
      <trkpt lat="40.280967" lon="-4.751867">
        <ele>2250.0</ele>
        <time>2013-07-02T13:14:03Z</time>
      </trkpt>
      <trkpt lat="40.280883" lon="-4.751817">
        <ele>2249.0</ele>
        <time>2013-07-02T13:14:04Z</time>
      </trkpt>
      <trkpt lat="40.280800" lon="-4.751783">
        <ele>2248.0</ele>
        <time>2013-07-02T13:14:05Z</time>
      </trkpt>
      <trkpt lat="40.280733" lon="-4.751733">
        <ele>2246.0</ele>
        <time>2013-07-02T13:14:06Z</time>
      </trkpt>
      <trkpt lat="40.280650" lon="-4.751683">
        <ele>2246.0</ele>
        <time>2013-07-02T13:14:07Z</time>
      </trkpt>
      <trkpt lat="40.280583" lon="-4.751633">
        <ele>2245.0</ele>
        <time>2013-07-02T13:14:08Z</time>
      </trkpt>
      <trkpt lat="40.280517" lon="-4.751583">
        <ele>2244.0</ele>
        <time>2013-07-02T13:14:09Z</time>
      </trkpt>
      <trkpt lat="40.280433" lon="-4.751533">
        <ele>2244.0</ele>
        <time>2013-07-02T13:14:10Z</time>
      </trkpt>
      <trkpt lat="40.280367" lon="-4.751483">
        <ele>2244.0</ele>
        <time>2013-07-02T13:14:11Z</time>
      </trkpt>
      <trkpt lat="40.280300" lon="-4.751433">
        <ele>2244.0</ele>
        <time>2013-07-02T13:14:12Z</time>
      </trkpt>
      <trkpt lat="40.280233" lon="-4.751383">
        <ele>2243.0</ele>
        <time>2013-07-02T13:14:13Z</time>
      </trkpt>
      <trkpt lat="40.280167" lon="-4.751333">
        <ele>2243.0</ele>
        <time>2013-07-02T13:14:14Z</time>
      </trkpt>
      <trkpt lat="40.280083" lon="-4.751283">
        <ele>2243.0</ele>
        <time>2013-07-02T13:14:15Z</time>
      </trkpt>
      <trkpt lat="40.280017" lon="-4.751233">
        <ele>2243.0</ele>
        <time>2013-07-02T13:14:16Z</time>
      </trkpt>
      <trkpt lat="40.279933" lon="-4.751183">
        <ele>2243.0</ele>
        <time>2013-07-02T13:14:17Z</time>
      </trkpt>
      <trkpt lat="40.279867" lon="-4.751150">
        <ele>2244.0</ele>
        <time>2013-07-02T13:14:18Z</time>
      </trkpt>
      <trkpt lat="40.279800" lon="-4.751117">
        <ele>2246.0</ele>
        <time>2013-07-02T13:14:19Z</time>
      </trkpt>
      <trkpt lat="40.279733" lon="-4.751067">
        <ele>2248.0</ele>
        <time>2013-07-02T13:14:20Z</time>
      </trkpt>
      <trkpt lat="40.279683" lon="-4.751017">
        <ele>2249.0</ele>
        <time>2013-07-02T13:14:21Z</time>
      </trkpt>
      <trkpt lat="40.279633" lon="-4.750950">
        <ele>2250.0</ele>
        <time>2013-07-02T13:14:22Z</time>
      </trkpt>
      <trkpt lat="40.279567" lon="-4.750883">
        <ele>2250.0</ele>
        <time>2013-07-02T13:14:23Z</time>
      </trkpt>
      <trkpt lat="40.279517" lon="-4.750833">
        <ele>2248.0</ele>
        <time>2013-07-02T13:14:24Z</time>
      </trkpt>
      <trkpt lat="40.279450" lon="-4.750783">
        <ele>2246.0</ele>
        <time>2013-07-02T13:14:25Z</time>
      </trkpt>
      <trkpt lat="40.279367" lon="-4.750750">
        <ele>2246.0</ele>
        <time>2013-07-02T13:14:26Z</time>
      </trkpt>
      <trkpt lat="40.279300" lon="-4.750717">
        <ele>2246.0</ele>
        <time>2013-07-02T13:14:27Z</time>
      </trkpt>
      <trkpt lat="40.279233" lon="-4.750667">
        <ele>2247.0</ele>
        <time>2013-07-02T13:14:28Z</time>
      </trkpt>
      <trkpt lat="40.279183" lon="-4.750617">
        <ele>2248.0</ele>
        <time>2013-07-02T13:14:29Z</time>
      </trkpt>
      <trkpt lat="40.279117" lon="-4.750550">
        <ele>2248.0</ele>
        <time>2013-07-02T13:14:30Z</time>
      </trkpt>
      <trkpt lat="40.279067" lon="-4.750500">
        <ele>2248.0</ele>
        <time>2013-07-02T13:14:31Z</time>
      </trkpt>
      <trkpt lat="40.279000" lon="-4.750467">
        <ele>2247.0</ele>
        <time>2013-07-02T13:14:32Z</time>
      </trkpt>
      <trkpt lat="40.278933" lon="-4.750417">
        <ele>2246.0</ele>
        <time>2013-07-02T13:14:33Z</time>
      </trkpt>
      <trkpt lat="40.278883" lon="-4.750350">
        <ele>2247.0</ele>
        <time>2013-07-02T13:14:34Z</time>
      </trkpt>
      <trkpt lat="40.278833" lon="-4.750300">
        <ele>2248.0</ele>
        <time>2013-07-02T13:14:35Z</time>
      </trkpt>
      <trkpt lat="40.278783" lon="-4.750233">
        <ele>2248.0</ele>
        <time>2013-07-02T13:14:36Z</time>
      </trkpt>
      <trkpt lat="40.278750" lon="-4.750183">
        <ele>2248.0</ele>
        <time>2013-07-02T13:14:37Z</time>
      </trkpt>
      <trkpt lat="40.278700" lon="-4.750150">
        <ele>2247.0</ele>
        <time>2013-07-02T13:14:38Z</time>
      </trkpt>
      <trkpt lat="40.278650" lon="-4.750100">
        <ele>2244.0</ele>
        <time>2013-07-02T13:14:39Z</time>
      </trkpt>
      <trkpt lat="40.278583" lon="-4.750067">
        <ele>2244.0</ele>
        <time>2013-07-02T13:14:40Z</time>
      </trkpt>
      <trkpt lat="40.278517" lon="-4.750017">
        <ele>2243.0</ele>
        <time>2013-07-02T13:14:41Z</time>
      </trkpt>
      <trkpt lat="40.278467" lon="-4.749967">
        <ele>2242.0</ele>
        <time>2013-07-02T13:14:42Z</time>
      </trkpt>
      <trkpt lat="40.278417" lon="-4.749917">
        <ele>2241.0</ele>
        <time>2013-07-02T13:14:43Z</time>
      </trkpt>
      <trkpt lat="40.278350" lon="-4.749867">
        <ele>2239.0</ele>
        <time>2013-07-02T13:14:44Z</time>
      </trkpt>
      <trkpt lat="40.278267" lon="-4.749817">
        <ele>2237.0</ele>
        <time>2013-07-02T13:14:45Z</time>
      </trkpt>
      <trkpt lat="40.278200" lon="-4.749767">
        <ele>2236.0</ele>
        <time>2013-07-02T13:14:46Z</time>
      </trkpt>
      <trkpt lat="40.278133" lon="-4.749700">
        <ele>2234.0</ele>
        <time>2013-07-02T13:14:47Z</time>
      </trkpt>
      <trkpt lat="40.278083" lon="-4.749650">
        <ele>2233.0</ele>
        <time>2013-07-02T13:14:48Z</time>
      </trkpt>
      <trkpt lat="40.278033" lon="-4.749583">
        <ele>2232.0</ele>
        <time>2013-07-02T13:14:49Z</time>
      </trkpt>
      <trkpt lat="40.277967" lon="-4.749533">
        <ele>2230.0</ele>
        <time>2013-07-02T13:14:50Z</time>
      </trkpt>
      <trkpt lat="40.277917" lon="-4.749483">
        <ele>2228.0</ele>
        <time>2013-07-02T13:14:51Z</time>
      </trkpt>
      <trkpt lat="40.277850" lon="-4.749433">
        <ele>2226.0</ele>
        <time>2013-07-02T13:14:52Z</time>
      </trkpt>
      <trkpt lat="40.277800" lon="-4.749383">
        <ele>2224.0</ele>
        <time>2013-07-02T13:14:53Z</time>
      </trkpt>
      <trkpt lat="40.277733" lon="-4.749350">
        <ele>2223.0</ele>
        <time>2013-07-02T13:14:54Z</time>
      </trkpt>
      <trkpt lat="40.277683" lon="-4.749317">
        <ele>2222.0</ele>
        <time>2013-07-02T13:14:55Z</time>
      </trkpt>
      <trkpt lat="40.277633" lon="-4.749300">
        <ele>2222.0</ele>
        <time>2013-07-02T13:14:56Z</time>
      </trkpt>
      <trkpt lat="40.277583" lon="-4.749267">
        <ele>2220.0</ele>
        <time>2013-07-02T13:14:57Z</time>
      </trkpt>
      <trkpt lat="40.277533" lon="-4.749250">
        <ele>2217.0</ele>
        <time>2013-07-02T13:14:58Z</time>
      </trkpt>
      <trkpt lat="40.277467" lon="-4.749217">
        <ele>2214.0</ele>
        <time>2013-07-02T13:14:59Z</time>
      </trkpt>
      <trkpt lat="40.277400" lon="-4.749183">
        <ele>2214.0</ele>
        <time>2013-07-02T13:15:00Z</time>
      </trkpt>
      <trkpt lat="40.277333" lon="-4.749150">
        <ele>2213.0</ele>
        <time>2013-07-02T13:15:01Z</time>
      </trkpt>
      <trkpt lat="40.277283" lon="-4.749117">
        <ele>2211.0</ele>
        <time>2013-07-02T13:15:02Z</time>
      </trkpt>
      <trkpt lat="40.277217" lon="-4.749083">
        <ele>2209.0</ele>
        <time>2013-07-02T13:15:03Z</time>
      </trkpt>
      <trkpt lat="40.277150" lon="-4.749067">
        <ele>2205.0</ele>
        <time>2013-07-02T13:15:04Z</time>
      </trkpt>
      <trkpt lat="40.277083" lon="-4.749050">
        <ele>2202.0</ele>
        <time>2013-07-02T13:15:05Z</time>
      </trkpt>
      <trkpt lat="40.277017" lon="-4.749033">
        <ele>2198.0</ele>
        <time>2013-07-02T13:15:06Z</time>
      </trkpt>
      <trkpt lat="40.276950" lon="-4.749017">
        <ele>2195.0</ele>
        <time>2013-07-02T13:15:07Z</time>
      </trkpt>
      <trkpt lat="40.276867" lon="-4.748967">
        <ele>2195.0</ele>
        <time>2013-07-02T13:15:08Z</time>
      </trkpt>
      <trkpt lat="40.276800" lon="-4.748950">
        <ele>2193.0</ele>
        <time>2013-07-02T13:15:09Z</time>
      </trkpt>
      <trkpt lat="40.276733" lon="-4.748917">
        <ele>2190.0</ele>
        <time>2013-07-02T13:15:10Z</time>
      </trkpt>
      <trkpt lat="40.276667" lon="-4.748883">
        <ele>2187.0</ele>
        <time>2013-07-02T13:15:11Z</time>
      </trkpt>
      <trkpt lat="40.276600" lon="-4.748867">
        <ele>2184.0</ele>
        <time>2013-07-02T13:15:12Z</time>
      </trkpt>
      <trkpt lat="40.276533" lon="-4.748833">
        <ele>2181.0</ele>
        <time>2013-07-02T13:15:13Z</time>
      </trkpt>
      <trkpt lat="40.276450" lon="-4.748817">
        <ele>2179.0</ele>
        <time>2013-07-02T13:15:14Z</time>
      </trkpt>
      <trkpt lat="40.276383" lon="-4.748783">
        <ele>2177.0</ele>
        <time>2013-07-02T13:15:15Z</time>
      </trkpt>
      <trkpt lat="40.276317" lon="-4.748767">
        <ele>2174.0</ele>
        <time>2013-07-02T13:15:16Z</time>
      </trkpt>
      <trkpt lat="40.276250" lon="-4.748733">
        <ele>2171.0</ele>
        <time>2013-07-02T13:15:17Z</time>
      </trkpt>
      <trkpt lat="40.276167" lon="-4.748700">
        <ele>2169.0</ele>
        <time>2013-07-02T13:15:18Z</time>
      </trkpt>
      <trkpt lat="40.276100" lon="-4.748667">
        <ele>2167.0</ele>
        <time>2013-07-02T13:15:19Z</time>
      </trkpt>
      <trkpt lat="40.276033" lon="-4.748650">
        <ele>2164.0</ele>
        <time>2013-07-02T13:15:20Z</time>
      </trkpt>
      <trkpt lat="40.275967" lon="-4.748633">
        <ele>2162.0</ele>
        <time>2013-07-02T13:15:21Z</time>
      </trkpt>
      <trkpt lat="40.275900" lon="-4.748600">
        <ele>2160.0</ele>
        <time>2013-07-02T13:15:22Z</time>
      </trkpt>
      <trkpt lat="40.275817" lon="-4.748583">
        <ele>2158.0</ele>
        <time>2013-07-02T13:15:23Z</time>
      </trkpt>
      <trkpt lat="40.275750" lon="-4.748550">
        <ele>2156.0</ele>
        <time>2013-07-02T13:15:24Z</time>
      </trkpt>
      <trkpt lat="40.275683" lon="-4.748533">
        <ele>2154.0</ele>
        <time>2013-07-02T13:15:25Z</time>
      </trkpt>
      <trkpt lat="40.275617" lon="-4.748517">
        <ele>2152.0</ele>
        <time>2013-07-02T13:15:26Z</time>
      </trkpt>
      <trkpt lat="40.275533" lon="-4.748517">
        <ele>2150.0</ele>
        <time>2013-07-02T13:15:27Z</time>
      </trkpt>
      <trkpt lat="40.275467" lon="-4.748500">
        <ele>2148.0</ele>
        <time>2013-07-02T13:15:28Z</time>
      </trkpt>
      <trkpt lat="40.275400" lon="-4.748483">
        <ele>2146.0</ele>
        <time>2013-07-02T13:15:29Z</time>
      </trkpt>
      <trkpt lat="40.275317" lon="-4.748483">
        <ele>2144.0</ele>
        <time>2013-07-02T13:15:30Z</time>
      </trkpt>
      <trkpt lat="40.275250" lon="-4.748483">
        <ele>2144.0</ele>
        <time>2013-07-02T13:15:31Z</time>
      </trkpt>
      <trkpt lat="40.275183" lon="-4.748483">
        <ele>2143.0</ele>
        <time>2013-07-02T13:15:32Z</time>
      </trkpt>
      <trkpt lat="40.275100" lon="-4.748467">
        <ele>2142.0</ele>
        <time>2013-07-02T13:15:33Z</time>
      </trkpt>
      <trkpt lat="40.275033" lon="-4.748450">
        <ele>2141.0</ele>
        <time>2013-07-02T13:15:34Z</time>
      </trkpt>
      <trkpt lat="40.274950" lon="-4.748433">
        <ele>2139.0</ele>
        <time>2013-07-02T13:15:35Z</time>
      </trkpt>
      <trkpt lat="40.274883" lon="-4.748450">
        <ele>2138.0</ele>
        <time>2013-07-02T13:15:36Z</time>
      </trkpt>
      <trkpt lat="40.274800" lon="-4.748450">
        <ele>2136.0</ele>
        <time>2013-07-02T13:15:37Z</time>
      </trkpt>
      <trkpt lat="40.274733" lon="-4.748450">
        <ele>2134.0</ele>
        <time>2013-07-02T13:15:38Z</time>
      </trkpt>
      <trkpt lat="40.274650" lon="-4.748433">
        <ele>2132.0</ele>
        <time>2013-07-02T13:15:39Z</time>
      </trkpt>
      <trkpt lat="40.274567" lon="-4.748417">
        <ele>2131.0</ele>
        <time>2013-07-02T13:15:40Z</time>
      </trkpt>
      <trkpt lat="40.274483" lon="-4.748400">
        <ele>2129.0</ele>
        <time>2013-07-02T13:15:41Z</time>
      </trkpt>
      <trkpt lat="40.274417" lon="-4.748367">
        <ele>2127.0</ele>
        <time>2013-07-02T13:15:42Z</time>
      </trkpt>
      <trkpt lat="40.274333" lon="-4.748350">
        <ele>2124.0</ele>
        <time>2013-07-02T13:15:43Z</time>
      </trkpt>
      <trkpt lat="40.274250" lon="-4.748317">
        <ele>2121.0</ele>
        <time>2013-07-02T13:15:44Z</time>
      </trkpt>
      <trkpt lat="40.274167" lon="-4.748300">
        <ele>2118.0</ele>
        <time>2013-07-02T13:15:45Z</time>
      </trkpt>
      <trkpt lat="40.274067" lon="-4.748300">
        <ele>2116.0</ele>
        <time>2013-07-02T13:15:46Z</time>
      </trkpt>
      <trkpt lat="40.273983" lon="-4.748300">
        <ele>2114.0</ele>
        <time>2013-07-02T13:15:47Z</time>
      </trkpt>
      <trkpt lat="40.273900" lon="-4.748283">
        <ele>2112.0</ele>
        <time>2013-07-02T13:15:48Z</time>
      </trkpt>
      <trkpt lat="40.273817" lon="-4.748267">
        <ele>2109.0</ele>
        <time>2013-07-02T13:15:49Z</time>
      </trkpt>
      <trkpt lat="40.273750" lon="-4.748250">
        <ele>2106.0</ele>
        <time>2013-07-02T13:15:50Z</time>
      </trkpt>
      <trkpt lat="40.273667" lon="-4.748217">
        <ele>2107.0</ele>
        <time>2013-07-02T13:15:51Z</time>
      </trkpt>
      <trkpt lat="40.273567" lon="-4.748200">
        <ele>2105.0</ele>
        <time>2013-07-02T13:15:52Z</time>
      </trkpt>
      <trkpt lat="40.273483" lon="-4.748183">
        <ele>2103.0</ele>
        <time>2013-07-02T13:15:53Z</time>
      </trkpt>
      <trkpt lat="40.273400" lon="-4.748167">
        <ele>2101.0</ele>
        <time>2013-07-02T13:15:54Z</time>
      </trkpt>
      <trkpt lat="40.273317" lon="-4.748150">
        <ele>2100.0</ele>
        <time>2013-07-02T13:15:55Z</time>
      </trkpt>
      <trkpt lat="40.273250" lon="-4.748117">
        <ele>2100.0</ele>
        <time>2013-07-02T13:15:56Z</time>
      </trkpt>
      <trkpt lat="40.273200" lon="-4.748100">
        <ele>2098.0</ele>
        <time>2013-07-02T13:15:57Z</time>
      </trkpt>
      <trkpt lat="40.273133" lon="-4.748100">
        <ele>2095.0</ele>
        <time>2013-07-02T13:15:58Z</time>
      </trkpt>
      <trkpt lat="40.273067" lon="-4.748100">
        <ele>2092.0</ele>
        <time>2013-07-02T13:15:59Z</time>
      </trkpt>
      <trkpt lat="40.272983" lon="-4.748100">
        <ele>2089.0</ele>
        <time>2013-07-02T13:16:00Z</time>
      </trkpt>
      <trkpt lat="40.272900" lon="-4.748100">
        <ele>2089.0</ele>
        <time>2013-07-02T13:16:01Z</time>
      </trkpt>
      <trkpt lat="40.272833" lon="-4.748067">
        <ele>2089.0</ele>
        <time>2013-07-02T13:16:02Z</time>
      </trkpt>
      <trkpt lat="40.272767" lon="-4.748050">
        <ele>2089.0</ele>
        <time>2013-07-02T13:16:03Z</time>
      </trkpt>
      <trkpt lat="40.272700" lon="-4.748017">
        <ele>2088.0</ele>
        <time>2013-07-02T13:16:04Z</time>
      </trkpt>
      <trkpt lat="40.272633" lon="-4.748000">
        <ele>2087.0</ele>
        <time>2013-07-02T13:16:05Z</time>
      </trkpt>
      <trkpt lat="40.272567" lon="-4.747983">
        <ele>2085.0</ele>
        <time>2013-07-02T13:16:06Z</time>
      </trkpt>
      <trkpt lat="40.272483" lon="-4.747950">
        <ele>2083.0</ele>
        <time>2013-07-02T13:16:07Z</time>
      </trkpt>
      <trkpt lat="40.272400" lon="-4.747900">
        <ele>2082.0</ele>
        <time>2013-07-02T13:16:08Z</time>
      </trkpt>
      <trkpt lat="40.272317" lon="-4.747883">
        <ele>2082.0</ele>
        <time>2013-07-02T13:16:09Z</time>
      </trkpt>
      <trkpt lat="40.272267" lon="-4.747867">
        <ele>2081.0</ele>
        <time>2013-07-02T13:16:10Z</time>
      </trkpt>
      <trkpt lat="40.272200" lon="-4.747833">
        <ele>2081.0</ele>
        <time>2013-07-02T13:16:11Z</time>
      </trkpt>
      <trkpt lat="40.272133" lon="-4.747800">
        <ele>2079.0</ele>
        <time>2013-07-02T13:16:12Z</time>
      </trkpt>
      <trkpt lat="40.272050" lon="-4.747733">
        <ele>2077.0</ele>
        <time>2013-07-02T13:16:13Z</time>
      </trkpt>
      <trkpt lat="40.271950" lon="-4.747683">
        <ele>2076.0</ele>
        <time>2013-07-02T13:16:14Z</time>
      </trkpt>
      <trkpt lat="40.271850" lon="-4.747633">
        <ele>2077.0</ele>
        <time>2013-07-02T13:16:15Z</time>
      </trkpt>
      <trkpt lat="40.271767" lon="-4.747600">
        <ele>2078.0</ele>
        <time>2013-07-02T13:16:16Z</time>
      </trkpt>
      <trkpt lat="40.271700" lon="-4.747583">
        <ele>2079.0</ele>
        <time>2013-07-02T13:16:17Z</time>
      </trkpt>
      <trkpt lat="40.271633" lon="-4.747550">
        <ele>2079.0</ele>
        <time>2013-07-02T13:16:18Z</time>
      </trkpt>
      <trkpt lat="40.271567" lon="-4.747517">
        <ele>2077.0</ele>
        <time>2013-07-02T13:16:19Z</time>
      </trkpt>
      <trkpt lat="40.271500" lon="-4.747467">
        <ele>2075.0</ele>
        <time>2013-07-02T13:16:20Z</time>
      </trkpt>
      <trkpt lat="40.271417" lon="-4.747433">
        <ele>2074.0</ele>
        <time>2013-07-02T13:16:21Z</time>
      </trkpt>
      <trkpt lat="40.271333" lon="-4.747417">
        <ele>2073.0</ele>
        <time>2013-07-02T13:16:22Z</time>
      </trkpt>
      <trkpt lat="40.271267" lon="-4.747383">
        <ele>2071.0</ele>
        <time>2013-07-02T13:16:23Z</time>
      </trkpt>
      <trkpt lat="40.271183" lon="-4.747350">
        <ele>2071.0</ele>
        <time>2013-07-02T13:16:24Z</time>
      </trkpt>
      <trkpt lat="40.271117" lon="-4.747317">
        <ele>2070.0</ele>
        <time>2013-07-02T13:16:25Z</time>
      </trkpt>
      <trkpt lat="40.271050" lon="-4.747283">
        <ele>2069.0</ele>
        <time>2013-07-02T13:16:26Z</time>
      </trkpt>
      <trkpt lat="40.270983" lon="-4.747267">
        <ele>2067.0</ele>
        <time>2013-07-02T13:16:27Z</time>
      </trkpt>
      <trkpt lat="40.270917" lon="-4.747233">
        <ele>2065.0</ele>
        <time>2013-07-02T13:16:28Z</time>
      </trkpt>
      <trkpt lat="40.270833" lon="-4.747217">
        <ele>2062.0</ele>
        <time>2013-07-02T13:16:29Z</time>
      </trkpt>
      <trkpt lat="40.270767" lon="-4.747183">
        <ele>2059.0</ele>
        <time>2013-07-02T13:16:30Z</time>
      </trkpt>
      <trkpt lat="40.270667" lon="-4.747167">
        <ele>2057.0</ele>
        <time>2013-07-02T13:16:31Z</time>
      </trkpt>
      <trkpt lat="40.270583" lon="-4.747150">
        <ele>2056.0</ele>
        <time>2013-07-02T13:16:32Z</time>
      </trkpt>
      <trkpt lat="40.270500" lon="-4.747133">
        <ele>2056.0</ele>
        <time>2013-07-02T13:16:33Z</time>
      </trkpt>
      <trkpt lat="40.270417" lon="-4.747117">
        <ele>2056.0</ele>
        <time>2013-07-02T13:16:34Z</time>
      </trkpt>
      <trkpt lat="40.270350" lon="-4.747100">
        <ele>2055.0</ele>
        <time>2013-07-02T13:16:35Z</time>
      </trkpt>
      <trkpt lat="40.270267" lon="-4.747100">
        <ele>2053.0</ele>
        <time>2013-07-02T13:16:36Z</time>
      </trkpt>
      <trkpt lat="40.270183" lon="-4.747100">
        <ele>2051.0</ele>
        <time>2013-07-02T13:16:37Z</time>
      </trkpt>
      <trkpt lat="40.270100" lon="-4.747100">
        <ele>2050.0</ele>
        <time>2013-07-02T13:16:38Z</time>
      </trkpt>
      <trkpt lat="40.270017" lon="-4.747117">
        <ele>2049.0</ele>
        <time>2013-07-02T13:16:39Z</time>
      </trkpt>
      <trkpt lat="40.269933" lon="-4.747133">
        <ele>2049.0</ele>
        <time>2013-07-02T13:16:40Z</time>
      </trkpt>
      <trkpt lat="40.269850" lon="-4.747150">
        <ele>2048.0</ele>
        <time>2013-07-02T13:16:41Z</time>
      </trkpt>
      <trkpt lat="40.269767" lon="-4.747150">
        <ele>2049.0</ele>
        <time>2013-07-02T13:16:42Z</time>
      </trkpt>
      <trkpt lat="40.269683" lon="-4.747150">
        <ele>2048.0</ele>
        <time>2013-07-02T13:16:43Z</time>
      </trkpt>
      <trkpt lat="40.269617" lon="-4.747150">
        <ele>2048.0</ele>
        <time>2013-07-02T13:16:44Z</time>
      </trkpt>
      <trkpt lat="40.269533" lon="-4.747167">
        <ele>2048.0</ele>
        <time>2013-07-02T13:16:45Z</time>
      </trkpt>
      <trkpt lat="40.269450" lon="-4.747167">
        <ele>2048.0</ele>
        <time>2013-07-02T13:16:46Z</time>
      </trkpt>
      <trkpt lat="40.269383" lon="-4.747167">
        <ele>2047.0</ele>
        <time>2013-07-02T13:16:47Z</time>
      </trkpt>
      <trkpt lat="40.269300" lon="-4.747183">
        <ele>2047.0</ele>
        <time>2013-07-02T13:16:48Z</time>
      </trkpt>
      <trkpt lat="40.269233" lon="-4.747200">
        <ele>2046.0</ele>
        <time>2013-07-02T13:16:49Z</time>
      </trkpt>
      <trkpt lat="40.269150" lon="-4.747200">
        <ele>2045.0</ele>
        <time>2013-07-02T13:16:50Z</time>
      </trkpt>
      <trkpt lat="40.269067" lon="-4.747233">
        <ele>2044.0</ele>
        <time>2013-07-02T13:16:51Z</time>
      </trkpt>
      <trkpt lat="40.269000" lon="-4.747250">
        <ele>2042.0</ele>
        <time>2013-07-02T13:16:52Z</time>
      </trkpt>
      <trkpt lat="40.268917" lon="-4.747267">
        <ele>2043.0</ele>
        <time>2013-07-02T13:16:53Z</time>
      </trkpt>
      <trkpt lat="40.268833" lon="-4.747267">
        <ele>2043.0</ele>
        <time>2013-07-02T13:16:54Z</time>
      </trkpt>
      <trkpt lat="40.268750" lon="-4.747283">
        <ele>2042.0</ele>
        <time>2013-07-02T13:16:55Z</time>
      </trkpt>
      <trkpt lat="40.268683" lon="-4.747300">
        <ele>2041.0</ele>
        <time>2013-07-02T13:16:56Z</time>
      </trkpt>
      <trkpt lat="40.268600" lon="-4.747317">
        <ele>2040.0</ele>
        <time>2013-07-02T13:16:57Z</time>
      </trkpt>
      <trkpt lat="40.268517" lon="-4.747350">
        <ele>2039.0</ele>
        <time>2013-07-02T13:16:58Z</time>
      </trkpt>
      <trkpt lat="40.268450" lon="-4.747367">
        <ele>2038.0</ele>
        <time>2013-07-02T13:16:59Z</time>
      </trkpt>
      <trkpt lat="40.268383" lon="-4.747383">
        <ele>2038.0</ele>
        <time>2013-07-02T13:17:00Z</time>
      </trkpt>
      <trkpt lat="40.268317" lon="-4.747400">
        <ele>2037.0</ele>
        <time>2013-07-02T13:17:01Z</time>
      </trkpt>
      <trkpt lat="40.268250" lon="-4.747400">
        <ele>2036.0</ele>
        <time>2013-07-02T13:17:02Z</time>
      </trkpt>
      <trkpt lat="40.268183" lon="-4.747417">
        <ele>2036.0</ele>
        <time>2013-07-02T13:17:03Z</time>
      </trkpt>
      <trkpt lat="40.268117" lon="-4.747417">
        <ele>2033.0</ele>
        <time>2013-07-02T13:17:04Z</time>
      </trkpt>
      <trkpt lat="40.268033" lon="-4.747417">
        <ele>2031.0</ele>
        <time>2013-07-02T13:17:05Z</time>
      </trkpt>
      <trkpt lat="40.267950" lon="-4.747433">
        <ele>2030.0</ele>
        <time>2013-07-02T13:17:06Z</time>
      </trkpt>
      <trkpt lat="40.267867" lon="-4.747433">
        <ele>2029.0</ele>
        <time>2013-07-02T13:17:07Z</time>
      </trkpt>
      <trkpt lat="40.267800" lon="-4.747450">
        <ele>2028.0</ele>
        <time>2013-07-02T13:17:08Z</time>
      </trkpt>
      <trkpt lat="40.267733" lon="-4.747450">
        <ele>2027.0</ele>
        <time>2013-07-02T13:17:09Z</time>
      </trkpt>
      <trkpt lat="40.267667" lon="-4.747450">
        <ele>2025.0</ele>
        <time>2013-07-02T13:17:10Z</time>
      </trkpt>
      <trkpt lat="40.267600" lon="-4.747467">
        <ele>2022.0</ele>
        <time>2013-07-02T13:17:11Z</time>
      </trkpt>
      <trkpt lat="40.267533" lon="-4.747500">
        <ele>2020.0</ele>
        <time>2013-07-02T13:17:12Z</time>
      </trkpt>
      <trkpt lat="40.267467" lon="-4.747517">
        <ele>2019.0</ele>
        <time>2013-07-02T13:17:13Z</time>
      </trkpt>
      <trkpt lat="40.267400" lon="-4.747517">
        <ele>2018.0</ele>
        <time>2013-07-02T13:17:14Z</time>
      </trkpt>
      <trkpt lat="40.267350" lon="-4.747517">
        <ele>2017.0</ele>
        <time>2013-07-02T13:17:15Z</time>
      </trkpt>
      <trkpt lat="40.267283" lon="-4.747517">
        <ele>2015.0</ele>
        <time>2013-07-02T13:17:16Z</time>
      </trkpt>
      <trkpt lat="40.267217" lon="-4.747517">
        <ele>2013.0</ele>
        <time>2013-07-02T13:17:17Z</time>
      </trkpt>
      <trkpt lat="40.267167" lon="-4.747533">
        <ele>2010.0</ele>
        <time>2013-07-02T13:17:18Z</time>
      </trkpt>
      <trkpt lat="40.267100" lon="-4.747550">
        <ele>2007.0</ele>
        <time>2013-07-02T13:17:19Z</time>
      </trkpt>
      <trkpt lat="40.267033" lon="-4.747567">
        <ele>2005.0</ele>
        <time>2013-07-02T13:17:20Z</time>
      </trkpt>
      <trkpt lat="40.266967" lon="-4.747583">
        <ele>2003.0</ele>
        <time>2013-07-02T13:17:21Z</time>
      </trkpt>
      <trkpt lat="40.266900" lon="-4.747583">
        <ele>2002.0</ele>
        <time>2013-07-02T13:17:22Z</time>
      </trkpt>
      <trkpt lat="40.266833" lon="-4.747567">
        <ele>2000.0</ele>
        <time>2013-07-02T13:17:23Z</time>
      </trkpt>
      <trkpt lat="40.266767" lon="-4.747567">
        <ele>1998.0</ele>
        <time>2013-07-02T13:17:24Z</time>
      </trkpt>
      <trkpt lat="40.266717" lon="-4.747567">
        <ele>1995.0</ele>
        <time>2013-07-02T13:17:25Z</time>
      </trkpt>
      <trkpt lat="40.266650" lon="-4.747550">
        <ele>1992.0</ele>
        <time>2013-07-02T13:17:26Z</time>
      </trkpt>
      <trkpt lat="40.266583" lon="-4.747567">
        <ele>1990.0</ele>
        <time>2013-07-02T13:17:27Z</time>
      </trkpt>
      <trkpt lat="40.266500" lon="-4.747567">
        <ele>1987.0</ele>
        <time>2013-07-02T13:17:28Z</time>
      </trkpt>
      <trkpt lat="40.266433" lon="-4.747583">
        <ele>1986.0</ele>
        <time>2013-07-02T13:17:29Z</time>
      </trkpt>
      <trkpt lat="40.266367" lon="-4.747567">
        <ele>1985.0</ele>
        <time>2013-07-02T13:17:30Z</time>
      </trkpt>
      <trkpt lat="40.266317" lon="-4.747567">
        <ele>1984.0</ele>
        <time>2013-07-02T13:17:31Z</time>
      </trkpt>
      <trkpt lat="40.266267" lon="-4.747533">
        <ele>1982.0</ele>
        <time>2013-07-02T13:17:32Z</time>
      </trkpt>
      <trkpt lat="40.266200" lon="-4.747533">
        <ele>1982.0</ele>
        <time>2013-07-02T13:17:33Z</time>
      </trkpt>
      <trkpt lat="40.266117" lon="-4.747533">
        <ele>1980.0</ele>
        <time>2013-07-02T13:17:34Z</time>
      </trkpt>
      <trkpt lat="40.266050" lon="-4.747533">
        <ele>1978.0</ele>
        <time>2013-07-02T13:17:35Z</time>
      </trkpt>
      <trkpt lat="40.265983" lon="-4.747550">
        <ele>1977.0</ele>
        <time>2013-07-02T13:17:36Z</time>
      </trkpt>
      <trkpt lat="40.265917" lon="-4.747550">
        <ele>1976.0</ele>
        <time>2013-07-02T13:17:37Z</time>
      </trkpt>
      <trkpt lat="40.265883" lon="-4.747533">
        <ele>1974.0</ele>
        <time>2013-07-02T13:17:38Z</time>
      </trkpt>
      <trkpt lat="40.265833" lon="-4.747533">
        <ele>1970.0</ele>
        <time>2013-07-02T13:17:39Z</time>
      </trkpt>
      <trkpt lat="40.265783" lon="-4.747533">
        <ele>1966.0</ele>
        <time>2013-07-02T13:17:40Z</time>
      </trkpt>
      <trkpt lat="40.265717" lon="-4.747517">
        <ele>1963.0</ele>
        <time>2013-07-02T13:17:41Z</time>
      </trkpt>
      <trkpt lat="40.265650" lon="-4.747517">
        <ele>1959.0</ele>
        <time>2013-07-02T13:17:42Z</time>
      </trkpt>
      <trkpt lat="40.265583" lon="-4.747517">
        <ele>1957.0</ele>
        <time>2013-07-02T13:17:43Z</time>
      </trkpt>
      <trkpt lat="40.265533" lon="-4.747517">
        <ele>1956.0</ele>
        <time>2013-07-02T13:17:44Z</time>
      </trkpt>
      <trkpt lat="40.265483" lon="-4.747500">
        <ele>1954.0</ele>
        <time>2013-07-02T13:17:45Z</time>
      </trkpt>
      <trkpt lat="40.265433" lon="-4.747500">
        <ele>1952.0</ele>
        <time>2013-07-02T13:17:46Z</time>
      </trkpt>
      <trkpt lat="40.265383" lon="-4.747483">
        <ele>1949.0</ele>
        <time>2013-07-02T13:17:47Z</time>
      </trkpt>
      <trkpt lat="40.265333" lon="-4.747483">
        <ele>1946.0</ele>
        <time>2013-07-02T13:17:48Z</time>
      </trkpt>
      <trkpt lat="40.265267" lon="-4.747467">
        <ele>1943.0</ele>
        <time>2013-07-02T13:17:49Z</time>
      </trkpt>
      <trkpt lat="40.265183" lon="-4.747433">
        <ele>1941.0</ele>
        <time>2013-07-02T13:17:50Z</time>
      </trkpt>
      <trkpt lat="40.265133" lon="-4.747417">
        <ele>1939.0</ele>
        <time>2013-07-02T13:17:51Z</time>
      </trkpt>
      <trkpt lat="40.265067" lon="-4.747383">
        <ele>1937.0</ele>
        <time>2013-07-02T13:17:52Z</time>
      </trkpt>
      <trkpt lat="40.265017" lon="-4.747367">
        <ele>1935.0</ele>
        <time>2013-07-02T13:17:53Z</time>
      </trkpt>
      <trkpt lat="40.264950" lon="-4.747367">
        <ele>1932.0</ele>
        <time>2013-07-02T13:17:54Z</time>
      </trkpt>
      <trkpt lat="40.264883" lon="-4.747367">
        <ele>1930.0</ele>
        <time>2013-07-02T13:17:55Z</time>
      </trkpt>
      <trkpt lat="40.264817" lon="-4.747350">
        <ele>1927.0</ele>
        <time>2013-07-02T13:17:56Z</time>
      </trkpt>
      <trkpt lat="40.264750" lon="-4.747350">
        <ele>1925.0</ele>
        <time>2013-07-02T13:17:57Z</time>
      </trkpt>
      <trkpt lat="40.264700" lon="-4.747333">
        <ele>1923.0</ele>
        <time>2013-07-02T13:17:58Z</time>
      </trkpt>
      <trkpt lat="40.264633" lon="-4.747333">
        <ele>1920.0</ele>
        <time>2013-07-02T13:17:59Z</time>
      </trkpt>
      <trkpt lat="40.264583" lon="-4.747317">
        <ele>1918.0</ele>
        <time>2013-07-02T13:18:00Z</time>
      </trkpt>
      <trkpt lat="40.264517" lon="-4.747300">
        <ele>1915.0</ele>
        <time>2013-07-02T13:18:01Z</time>
      </trkpt>
      <trkpt lat="40.264450" lon="-4.747300">
        <ele>1912.0</ele>
        <time>2013-07-02T13:18:02Z</time>
      </trkpt>
      <trkpt lat="40.264400" lon="-4.747300">
        <ele>1910.0</ele>
        <time>2013-07-02T13:18:03Z</time>
      </trkpt>
      <trkpt lat="40.264350" lon="-4.747300">
        <ele>1907.0</ele>
        <time>2013-07-02T13:18:04Z</time>
      </trkpt>
      <trkpt lat="40.264283" lon="-4.747300">
        <ele>1904.0</ele>
        <time>2013-07-02T13:18:05Z</time>
      </trkpt>
      <trkpt lat="40.264217" lon="-4.747300">
        <ele>1901.0</ele>
        <time>2013-07-02T13:18:06Z</time>
      </trkpt>
      <trkpt lat="40.264150" lon="-4.747300">
        <ele>1898.0</ele>
        <time>2013-07-02T13:18:07Z</time>
      </trkpt>
      <trkpt lat="40.264083" lon="-4.747300">
        <ele>1895.0</ele>
        <time>2013-07-02T13:18:08Z</time>
      </trkpt>
      <trkpt lat="40.264017" lon="-4.747300">
        <ele>1893.0</ele>
        <time>2013-07-02T13:18:09Z</time>
      </trkpt>
      <trkpt lat="40.263967" lon="-4.747317">
        <ele>1891.0</ele>
        <time>2013-07-02T13:18:10Z</time>
      </trkpt>
      <trkpt lat="40.263900" lon="-4.747317">
        <ele>1890.0</ele>
        <time>2013-07-02T13:18:11Z</time>
      </trkpt>
      <trkpt lat="40.263850" lon="-4.747300">
        <ele>1888.0</ele>
        <time>2013-07-02T13:18:12Z</time>
      </trkpt>
      <trkpt lat="40.263800" lon="-4.747300">
        <ele>1887.0</ele>
        <time>2013-07-02T13:18:13Z</time>
      </trkpt>
      <trkpt lat="40.263767" lon="-4.747300">
        <ele>1885.0</ele>
        <time>2013-07-02T13:18:14Z</time>
      </trkpt>
      <trkpt lat="40.263717" lon="-4.747300">
        <ele>1883.0</ele>
        <time>2013-07-02T13:18:15Z</time>
      </trkpt>
      <trkpt lat="40.263667" lon="-4.747300">
        <ele>1881.0</ele>
        <time>2013-07-02T13:18:16Z</time>
      </trkpt>
      <trkpt lat="40.263600" lon="-4.747317">
        <ele>1878.0</ele>
        <time>2013-07-02T13:18:17Z</time>
      </trkpt>
      <trkpt lat="40.263533" lon="-4.747350">
        <ele>1877.0</ele>
        <time>2013-07-02T13:18:18Z</time>
      </trkpt>
      <trkpt lat="40.263483" lon="-4.747383">
        <ele>1876.0</ele>
        <time>2013-07-02T13:18:19Z</time>
      </trkpt>
      <trkpt lat="40.263433" lon="-4.747417">
        <ele>1875.0</ele>
        <time>2013-07-02T13:18:20Z</time>
      </trkpt>
      <trkpt lat="40.263400" lon="-4.747433">
        <ele>1874.0</ele>
        <time>2013-07-02T13:18:21Z</time>
      </trkpt>
      <trkpt lat="40.263367" lon="-4.747450">
        <ele>1873.0</ele>
        <time>2013-07-02T13:18:22Z</time>
      </trkpt>
      <trkpt lat="40.263333" lon="-4.747467">
        <ele>1872.0</ele>
        <time>2013-07-02T13:18:23Z</time>
      </trkpt>
      <trkpt lat="40.263283" lon="-4.747483">
        <ele>1869.0</ele>
        <time>2013-07-02T13:18:24Z</time>
      </trkpt>
      <trkpt lat="40.263250" lon="-4.747517">
        <ele>1865.0</ele>
        <time>2013-07-02T13:18:25Z</time>
      </trkpt>
      <trkpt lat="40.263200" lon="-4.747533">
        <ele>1863.0</ele>
        <time>2013-07-02T13:18:26Z</time>
      </trkpt>
      <trkpt lat="40.263133" lon="-4.747550">
        <ele>1861.0</ele>
        <time>2013-07-02T13:18:27Z</time>
      </trkpt>
      <trkpt lat="40.263067" lon="-4.747533">
        <ele>1859.0</ele>
        <time>2013-07-02T13:18:28Z</time>
      </trkpt>
      <trkpt lat="40.263017" lon="-4.747500">
        <ele>1858.0</ele>
        <time>2013-07-02T13:18:29Z</time>
      </trkpt>
      <trkpt lat="40.262950" lon="-4.747467">
        <ele>1857.0</ele>
        <time>2013-07-02T13:18:30Z</time>
      </trkpt>
      <trkpt lat="40.262883" lon="-4.747433">
        <ele>1856.0</ele>
        <time>2013-07-02T13:18:31Z</time>
      </trkpt>
      <trkpt lat="40.262817" lon="-4.747417">
        <ele>1854.0</ele>
        <time>2013-07-02T13:18:32Z</time>
      </trkpt>
      <trkpt lat="40.262733" lon="-4.747400">
        <ele>1853.0</ele>
        <time>2013-07-02T13:18:33Z</time>
      </trkpt>
      <trkpt lat="40.262667" lon="-4.747383">
        <ele>1854.0</ele>
        <time>2013-07-02T13:18:34Z</time>
      </trkpt>
      <trkpt lat="40.262600" lon="-4.747367">
        <ele>1855.0</ele>
        <time>2013-07-02T13:18:35Z</time>
      </trkpt>
      <trkpt lat="40.262533" lon="-4.747350">
        <ele>1855.0</ele>
        <time>2013-07-02T13:18:36Z</time>
      </trkpt>
      <trkpt lat="40.262467" lon="-4.747317">
        <ele>1855.0</ele>
        <time>2013-07-02T13:18:37Z</time>
      </trkpt>
      <trkpt lat="40.262383" lon="-4.747283">
        <ele>1856.0</ele>
        <time>2013-07-02T13:18:38Z</time>
      </trkpt>
      <trkpt lat="40.262317" lon="-4.747250">
        <ele>1858.0</ele>
        <time>2013-07-02T13:18:39Z</time>
      </trkpt>
      <trkpt lat="40.262250" lon="-4.747200">
        <ele>1859.0</ele>
        <time>2013-07-02T13:18:40Z</time>
      </trkpt>
      <trkpt lat="40.262200" lon="-4.747133">
        <ele>1861.0</ele>
        <time>2013-07-02T13:18:41Z</time>
      </trkpt>
      <trkpt lat="40.262150" lon="-4.747067">
        <ele>1862.0</ele>
        <time>2013-07-02T13:18:42Z</time>
      </trkpt>
      <trkpt lat="40.262100" lon="-4.747000">
        <ele>1862.0</ele>
        <time>2013-07-02T13:18:43Z</time>
      </trkpt>
      <trkpt lat="40.262067" lon="-4.746950">
        <ele>1862.0</ele>
        <time>2013-07-02T13:18:44Z</time>
      </trkpt>
      <trkpt lat="40.262017" lon="-4.746883">
        <ele>1862.0</ele>
        <time>2013-07-02T13:18:45Z</time>
      </trkpt>
      <trkpt lat="40.261967" lon="-4.746833">
        <ele>1862.0</ele>
        <time>2013-07-02T13:18:46Z</time>
      </trkpt>
      <trkpt lat="40.261917" lon="-4.746767">
        <ele>1862.0</ele>
        <time>2013-07-02T13:18:47Z</time>
      </trkpt>
      <trkpt lat="40.261850" lon="-4.746700">
        <ele>1861.0</ele>
        <time>2013-07-02T13:18:48Z</time>
      </trkpt>
      <trkpt lat="40.261800" lon="-4.746633">
        <ele>1861.0</ele>
        <time>2013-07-02T13:18:49Z</time>
      </trkpt>
      <trkpt lat="40.261733" lon="-4.746583">
        <ele>1860.0</ele>
        <time>2013-07-02T13:18:50Z</time>
      </trkpt>
      <trkpt lat="40.261650" lon="-4.746533">
        <ele>1859.0</ele>
        <time>2013-07-02T13:18:51Z</time>
      </trkpt>
      <trkpt lat="40.261567" lon="-4.746450">
        <ele>1859.0</ele>
        <time>2013-07-02T13:18:52Z</time>
      </trkpt>
      <trkpt lat="40.261500" lon="-4.746383">
        <ele>1860.0</ele>
        <time>2013-07-02T13:18:53Z</time>
      </trkpt>
      <trkpt lat="40.261433" lon="-4.746317">
        <ele>1862.0</ele>
        <time>2013-07-02T13:18:54Z</time>
      </trkpt>
      <trkpt lat="40.261383" lon="-4.746267">
        <ele>1863.0</ele>
        <time>2013-07-02T13:18:55Z</time>
      </trkpt>
      <trkpt lat="40.261333" lon="-4.746200">
        <ele>1863.0</ele>
        <time>2013-07-02T13:18:56Z</time>
      </trkpt>
      <trkpt lat="40.261300" lon="-4.746150">
        <ele>1863.0</ele>
        <time>2013-07-02T13:18:57Z</time>
      </trkpt>
      <trkpt lat="40.261267" lon="-4.746083">
        <ele>1862.0</ele>
        <time>2013-07-02T13:18:58Z</time>
      </trkpt>
      <trkpt lat="40.261217" lon="-4.746017">
        <ele>1862.0</ele>
        <time>2013-07-02T13:18:59Z</time>
      </trkpt>
      <trkpt lat="40.261167" lon="-4.745950">
        <ele>1861.0</ele>
        <time>2013-07-02T13:19:00Z</time>
      </trkpt>
      <trkpt lat="40.261117" lon="-4.745900">
        <ele>1859.0</ele>
        <time>2013-07-02T13:19:01Z</time>
      </trkpt>
      <trkpt lat="40.261050" lon="-4.745850">
        <ele>1857.0</ele>
        <time>2013-07-02T13:19:02Z</time>
      </trkpt>
      <trkpt lat="40.260967" lon="-4.745817">
        <ele>1854.0</ele>
        <time>2013-07-02T13:19:03Z</time>
      </trkpt>
      <trkpt lat="40.260883" lon="-4.745783">
        <ele>1853.0</ele>
        <time>2013-07-02T13:19:04Z</time>
      </trkpt>
      <trkpt lat="40.260800" lon="-4.745750">
        <ele>1854.0</ele>
        <time>2013-07-02T13:19:05Z</time>
      </trkpt>
      <trkpt lat="40.260733" lon="-4.745733">
        <ele>1854.0</ele>
        <time>2013-07-02T13:19:06Z</time>
      </trkpt>
      <trkpt lat="40.260667" lon="-4.745733">
        <ele>1854.0</ele>
        <time>2013-07-02T13:19:07Z</time>
      </trkpt>
      <trkpt lat="40.260600" lon="-4.745717">
        <ele>1855.0</ele>
        <time>2013-07-02T13:19:08Z</time>
      </trkpt>
      <trkpt lat="40.260533" lon="-4.745667">
        <ele>1855.0</ele>
        <time>2013-07-02T13:19:09Z</time>
      </trkpt>
      <trkpt lat="40.260483" lon="-4.745617">
        <ele>1856.0</ele>
        <time>2013-07-02T13:19:10Z</time>
      </trkpt>
      <trkpt lat="40.260433" lon="-4.745583">
        <ele>1855.0</ele>
        <time>2013-07-02T13:19:11Z</time>
      </trkpt>
      <trkpt lat="40.260383" lon="-4.745533">
        <ele>1856.0</ele>
        <time>2013-07-02T13:19:12Z</time>
      </trkpt>
      <trkpt lat="40.260333" lon="-4.745500">
        <ele>1854.0</ele>
        <time>2013-07-02T13:19:13Z</time>
      </trkpt>
      <trkpt lat="40.260267" lon="-4.745433">
        <ele>1852.0</ele>
        <time>2013-07-02T13:19:14Z</time>
      </trkpt>
      <trkpt lat="40.260183" lon="-4.745367">
        <ele>1848.0</ele>
        <time>2013-07-02T13:19:15Z</time>
      </trkpt>
      <trkpt lat="40.260100" lon="-4.745283">
        <ele>1846.0</ele>
        <time>2013-07-02T13:19:16Z</time>
      </trkpt>
      <trkpt lat="40.260000" lon="-4.745200">
        <ele>1846.0</ele>
        <time>2013-07-02T13:19:17Z</time>
      </trkpt>
      <trkpt lat="40.259917" lon="-4.745133">
        <ele>1846.0</ele>
        <time>2013-07-02T13:19:18Z</time>
      </trkpt>
      <trkpt lat="40.259850" lon="-4.745083">
        <ele>1846.0</ele>
        <time>2013-07-02T13:19:19Z</time>
      </trkpt>
      <trkpt lat="40.259783" lon="-4.745050">
        <ele>1847.0</ele>
        <time>2013-07-02T13:19:20Z</time>
      </trkpt>
      <trkpt lat="40.259733" lon="-4.744983">
        <ele>1847.0</ele>
        <time>2013-07-02T13:19:21Z</time>
      </trkpt>
      <trkpt lat="40.259683" lon="-4.744933">
        <ele>1847.0</ele>
        <time>2013-07-02T13:19:22Z</time>
      </trkpt>
      <trkpt lat="40.259633" lon="-4.744850">
        <ele>1847.0</ele>
        <time>2013-07-02T13:19:23Z</time>
      </trkpt>
      <trkpt lat="40.259583" lon="-4.744783">
        <ele>1847.0</ele>
        <time>2013-07-02T13:19:24Z</time>
      </trkpt>
      <trkpt lat="40.259533" lon="-4.744717">
        <ele>1846.0</ele>
        <time>2013-07-02T13:19:25Z</time>
      </trkpt>
      <trkpt lat="40.259467" lon="-4.744633">
        <ele>1845.0</ele>
        <time>2013-07-02T13:19:26Z</time>
      </trkpt>
      <trkpt lat="40.259417" lon="-4.744550">
        <ele>1842.0</ele>
        <time>2013-07-02T13:19:27Z</time>
      </trkpt>
      <trkpt lat="40.259350" lon="-4.744450">
        <ele>1840.0</ele>
        <time>2013-07-02T13:19:28Z</time>
      </trkpt>
      <trkpt lat="40.259283" lon="-4.744333">
        <ele>1839.0</ele>
        <time>2013-07-02T13:19:29Z</time>
      </trkpt>
      <trkpt lat="40.259217" lon="-4.744217">
        <ele>1839.0</ele>
        <time>2013-07-02T13:19:30Z</time>
      </trkpt>
      <trkpt lat="40.259167" lon="-4.744133">
        <ele>1840.0</ele>
        <time>2013-07-02T13:19:31Z</time>
      </trkpt>
      <trkpt lat="40.259117" lon="-4.744050">
        <ele>1840.0</ele>
        <time>2013-07-02T13:19:32Z</time>
      </trkpt>
      <trkpt lat="40.259067" lon="-4.743967">
        <ele>1840.0</ele>
        <time>2013-07-02T13:19:33Z</time>
      </trkpt>
      <trkpt lat="40.259017" lon="-4.743867">
        <ele>1839.0</ele>
        <time>2013-07-02T13:19:34Z</time>
      </trkpt>
      <trkpt lat="40.258967" lon="-4.743783">
        <ele>1838.0</ele>
        <time>2013-07-02T13:19:35Z</time>
      </trkpt>
      <trkpt lat="40.258900" lon="-4.743700">
        <ele>1837.0</ele>
        <time>2013-07-02T13:19:36Z</time>
      </trkpt>
      <trkpt lat="40.258850" lon="-4.743600">
        <ele>1836.0</ele>
        <time>2013-07-02T13:19:37Z</time>
      </trkpt>
      <trkpt lat="40.258783" lon="-4.743517">
        <ele>1836.0</ele>
        <time>2013-07-02T13:19:38Z</time>
      </trkpt>
      <trkpt lat="40.258733" lon="-4.743450">
        <ele>1835.0</ele>
        <time>2013-07-02T13:19:39Z</time>
      </trkpt>
      <trkpt lat="40.258667" lon="-4.743383">
        <ele>1834.0</ele>
        <time>2013-07-02T13:19:40Z</time>
      </trkpt>
      <trkpt lat="40.258617" lon="-4.743317">
        <ele>1833.0</ele>
        <time>2013-07-02T13:19:41Z</time>
      </trkpt>
      <trkpt lat="40.258550" lon="-4.743250">
        <ele>1833.0</ele>
        <time>2013-07-02T13:19:42Z</time>
      </trkpt>
      <trkpt lat="40.258500" lon="-4.743183">
        <ele>1834.0</ele>
        <time>2013-07-02T13:19:43Z</time>
      </trkpt>
      <trkpt lat="40.258450" lon="-4.743100">
        <ele>1834.0</ele>
        <time>2013-07-02T13:19:44Z</time>
      </trkpt>
      <trkpt lat="40.258400" lon="-4.743050">
        <ele>1834.0</ele>
        <time>2013-07-02T13:19:45Z</time>
      </trkpt>
      <trkpt lat="40.258333" lon="-4.742983">
        <ele>1833.0</ele>
        <time>2013-07-02T13:19:46Z</time>
      </trkpt>
      <trkpt lat="40.258283" lon="-4.742917">
        <ele>1833.0</ele>
        <time>2013-07-02T13:19:47Z</time>
      </trkpt>
      <trkpt lat="40.258217" lon="-4.742833">
        <ele>1834.0</ele>
        <time>2013-07-02T13:19:48Z</time>
      </trkpt>
      <trkpt lat="40.258167" lon="-4.742767">
        <ele>1834.0</ele>
        <time>2013-07-02T13:19:49Z</time>
      </trkpt>
      <trkpt lat="40.258117" lon="-4.742700">
        <ele>1835.0</ele>
        <time>2013-07-02T13:19:50Z</time>
      </trkpt>
      <trkpt lat="40.258067" lon="-4.742633">
        <ele>1834.0</ele>
        <time>2013-07-02T13:19:51Z</time>
      </trkpt>
      <trkpt lat="40.258017" lon="-4.742550">
        <ele>1835.0</ele>
        <time>2013-07-02T13:19:52Z</time>
      </trkpt>
      <trkpt lat="40.257967" lon="-4.742483">
        <ele>1835.0</ele>
        <time>2013-07-02T13:19:53Z</time>
      </trkpt>
      <trkpt lat="40.257900" lon="-4.742417">
        <ele>1835.0</ele>
        <time>2013-07-02T13:19:54Z</time>
      </trkpt>
      <trkpt lat="40.257833" lon="-4.742350">
        <ele>1835.0</ele>
        <time>2013-07-02T13:19:55Z</time>
      </trkpt>
      <trkpt lat="40.257783" lon="-4.742283">
        <ele>1835.0</ele>
        <time>2013-07-02T13:19:56Z</time>
      </trkpt>
      <trkpt lat="40.257717" lon="-4.742217">
        <ele>1837.0</ele>
        <time>2013-07-02T13:19:57Z</time>
      </trkpt>
      <trkpt lat="40.257667" lon="-4.742150">
        <ele>1838.0</ele>
        <time>2013-07-02T13:19:58Z</time>
      </trkpt>
      <trkpt lat="40.257617" lon="-4.742067">
        <ele>1839.0</ele>
        <time>2013-07-02T13:19:59Z</time>
      </trkpt>
      <trkpt lat="40.257583" lon="-4.742000">
        <ele>1840.0</ele>
        <time>2013-07-02T13:20:00Z</time>
      </trkpt>
      <trkpt lat="40.257550" lon="-4.741917">
        <ele>1841.0</ele>
        <time>2013-07-02T13:20:01Z</time>
      </trkpt>
      <trkpt lat="40.257533" lon="-4.741850">
        <ele>1841.0</ele>
        <time>2013-07-02T13:20:02Z</time>
      </trkpt>
      <trkpt lat="40.257517" lon="-4.741767">
        <ele>1841.0</ele>
        <time>2013-07-02T13:20:03Z</time>
      </trkpt>
      <trkpt lat="40.257483" lon="-4.741667">
        <ele>1839.0</ele>
        <time>2013-07-02T13:20:04Z</time>
      </trkpt>
      <trkpt lat="40.257417" lon="-4.741567">
        <ele>1838.0</ele>
        <time>2013-07-02T13:20:05Z</time>
      </trkpt>
      <trkpt lat="40.257350" lon="-4.741500">
        <ele>1836.0</ele>
        <time>2013-07-02T13:20:06Z</time>
      </trkpt>
      <trkpt lat="40.257267" lon="-4.741433">
        <ele>1835.0</ele>
        <time>2013-07-02T13:20:07Z</time>
      </trkpt>
      <trkpt lat="40.257200" lon="-4.741383">
        <ele>1835.0</ele>
        <time>2013-07-02T13:20:08Z</time>
      </trkpt>
      <trkpt lat="40.257117" lon="-4.741317">
        <ele>1835.0</ele>
        <time>2013-07-02T13:20:09Z</time>
      </trkpt>
      <trkpt lat="40.257050" lon="-4.741250">
        <ele>1837.0</ele>
        <time>2013-07-02T13:20:10Z</time>
      </trkpt>
      <trkpt lat="40.256983" lon="-4.741200">
        <ele>1838.0</ele>
        <time>2013-07-02T13:20:11Z</time>
      </trkpt>
      <trkpt lat="40.256917" lon="-4.741167">
        <ele>1839.0</ele>
        <time>2013-07-02T13:20:12Z</time>
      </trkpt>
      <trkpt lat="40.256867" lon="-4.741117">
        <ele>1842.0</ele>
        <time>2013-07-02T13:20:13Z</time>
      </trkpt>
      <trkpt lat="40.256833" lon="-4.741067">
        <ele>1844.0</ele>
        <time>2013-07-02T13:20:14Z</time>
      </trkpt>
      <trkpt lat="40.256800" lon="-4.741000">
        <ele>1845.0</ele>
        <time>2013-07-02T13:20:15Z</time>
      </trkpt>
      <trkpt lat="40.256767" lon="-4.740917">
        <ele>1844.0</ele>
        <time>2013-07-02T13:20:16Z</time>
      </trkpt>
      <trkpt lat="40.256717" lon="-4.740817">
        <ele>1844.0</ele>
        <time>2013-07-02T13:20:17Z</time>
      </trkpt>
      <trkpt lat="40.256683" lon="-4.740700">
        <ele>1845.0</ele>
        <time>2013-07-02T13:20:18Z</time>
      </trkpt>
      <trkpt lat="40.256667" lon="-4.740567">
        <ele>1846.0</ele>
        <time>2013-07-02T13:20:19Z</time>
      </trkpt>
      <trkpt lat="40.256667" lon="-4.740433">
        <ele>1846.0</ele>
        <time>2013-07-02T13:20:20Z</time>
      </trkpt>
      <trkpt lat="40.256683" lon="-4.740267">
        <ele>1845.0</ele>
        <time>2013-07-02T13:20:21Z</time>
      </trkpt>
      <trkpt lat="40.256750" lon="-4.740083">
        <ele>1843.0</ele>
        <time>2013-07-02T13:20:22Z</time>
      </trkpt>
      <trkpt lat="40.256850" lon="-4.739933">
        <ele>1843.0</ele>
        <time>2013-07-02T13:20:23Z</time>
      </trkpt>
      <trkpt lat="40.256967" lon="-4.739817">
        <ele>1843.0</ele>
        <time>2013-07-02T13:20:24Z</time>
      </trkpt>
      <trkpt lat="40.257083" lon="-4.739767">
        <ele>1843.0</ele>
        <time>2013-07-02T13:20:25Z</time>
      </trkpt>
      <trkpt lat="40.257183" lon="-4.739783">
        <ele>1842.0</ele>
        <time>2013-07-02T13:20:26Z</time>
      </trkpt>
      <trkpt lat="40.257250" lon="-4.739800">
        <ele>1841.0</ele>
        <time>2013-07-02T13:20:27Z</time>
      </trkpt>
      <trkpt lat="40.257300" lon="-4.739850">
        <ele>1841.0</ele>
        <time>2013-07-02T13:20:28Z</time>
      </trkpt>
      <trkpt lat="40.257333" lon="-4.739883">
        <ele>1841.0</ele>
        <time>2013-07-02T13:20:29Z</time>
      </trkpt>
      <trkpt lat="40.257350" lon="-4.739900">
        <ele>1841.0</ele>
        <time>2013-07-02T13:20:30Z</time>
      </trkpt>
      <trkpt lat="40.257350" lon="-4.739933">
        <ele>1841.0</ele>
        <time>2013-07-02T13:20:31Z</time>
      </trkpt>
      <trkpt lat="40.257333" lon="-4.739950">
        <ele>1841.0</ele>
        <time>2013-07-02T13:20:32Z</time>
      </trkpt>
      <trkpt lat="40.257300" lon="-4.739950">
        <ele>1841.0</ele>
        <time>2013-07-02T13:20:33Z</time>
      </trkpt>
      <trkpt lat="40.257267" lon="-4.739950">
        <ele>1841.0</ele>
        <time>2013-07-02T13:20:34Z</time>
      </trkpt>
      <trkpt lat="40.257233" lon="-4.739933">
        <ele>1841.0</ele>
        <time>2013-07-02T13:20:35Z</time>
      </trkpt>
      <trkpt lat="40.257183" lon="-4.739900">
        <ele>1841.0</ele>
        <time>2013-07-02T13:20:36Z</time>
      </trkpt>
      <trkpt lat="40.257133" lon="-4.739867">
        <ele>1842.0</ele>
        <time>2013-07-02T13:20:37Z</time>
      </trkpt>
      <trkpt lat="40.257100" lon="-4.739817">
        <ele>1842.0</ele>
        <time>2013-07-02T13:20:38Z</time>
      </trkpt>
      <trkpt lat="40.257067" lon="-4.739767">
        <ele>1842.0</ele>
        <time>2013-07-02T13:20:39Z</time>
      </trkpt>
      <trkpt lat="40.257017" lon="-4.739733">
        <ele>1842.0</ele>
        <time>2013-07-02T13:20:40Z</time>
      </trkpt>
      <trkpt lat="40.256983" lon="-4.739717">
        <ele>1842.0</ele>
        <time>2013-07-02T13:20:41Z</time>
      </trkpt>
      <trkpt lat="40.256917" lon="-4.739717">
        <ele>1842.0</ele>
        <time>2013-07-02T13:20:42Z</time>
      </trkpt>
      <trkpt lat="40.256833" lon="-4.739733">
        <ele>1843.0</ele>
        <time>2013-07-02T13:20:43Z</time>
      </trkpt>
      <trkpt lat="40.256767" lon="-4.739733">
        <ele>1845.0</ele>
        <time>2013-07-02T13:20:44Z</time>
      </trkpt>
      <trkpt lat="40.256717" lon="-4.739717">
        <ele>1847.0</ele>
        <time>2013-07-02T13:20:45Z</time>
      </trkpt>
      <trkpt lat="40.256667" lon="-4.739717">
        <ele>1850.0</ele>
        <time>2013-07-02T13:20:46Z</time>
      </trkpt>
      <trkpt lat="40.256617" lon="-4.739683">
        <ele>1852.0</ele>
        <time>2013-07-02T13:20:47Z</time>
      </trkpt>
      <trkpt lat="40.256583" lon="-4.739667">
        <ele>1854.0</ele>
        <time>2013-07-02T13:20:48Z</time>
      </trkpt>
      <trkpt lat="40.256550" lon="-4.739633">
        <ele>1854.0</ele>
        <time>2013-07-02T13:20:49Z</time>
      </trkpt>
      <trkpt lat="40.256500" lon="-4.739600">
        <ele>1855.0</ele>
        <time>2013-07-02T13:20:50Z</time>
      </trkpt>
      <trkpt lat="40.256450" lon="-4.739567">
        <ele>1853.0</ele>
        <time>2013-07-02T13:20:51Z</time>
      </trkpt>
      <trkpt lat="40.256417" lon="-4.739550">
        <ele>1853.0</ele>
        <time>2013-07-02T13:20:52Z</time>
      </trkpt>
      <trkpt lat="40.256367" lon="-4.739550">
        <ele>1853.0</ele>
        <time>2013-07-02T13:20:53Z</time>
      </trkpt>
      <trkpt lat="40.256333" lon="-4.739600">
        <ele>1854.0</ele>
        <time>2013-07-02T13:20:54Z</time>
      </trkpt>
      <trkpt lat="40.256333" lon="-4.739650">
        <ele>1856.0</ele>
        <time>2013-07-02T13:20:55Z</time>
      </trkpt>
      <trkpt lat="40.256367" lon="-4.739717">
        <ele>1857.0</ele>
        <time>2013-07-02T13:20:56Z</time>
      </trkpt>
      <trkpt lat="40.256433" lon="-4.739783">
        <ele>1858.0</ele>
        <time>2013-07-02T13:20:57Z</time>
      </trkpt>
      <trkpt lat="40.256500" lon="-4.739817">
        <ele>1861.0</ele>
        <time>2013-07-02T13:20:58Z</time>
      </trkpt>
      <trkpt lat="40.256583" lon="-4.739817">
        <ele>1863.0</ele>
        <time>2013-07-02T13:20:59Z</time>
      </trkpt>
      <trkpt lat="40.256667" lon="-4.739783">
        <ele>1864.0</ele>
        <time>2013-07-02T13:21:00Z</time>
      </trkpt>
      <trkpt lat="40.256733" lon="-4.739733">
        <ele>1865.0</ele>
        <time>2013-07-02T13:21:01Z</time>
      </trkpt>
      <trkpt lat="40.256800" lon="-4.739667">
        <ele>1866.0</ele>
        <time>2013-07-02T13:21:02Z</time>
      </trkpt>
      <trkpt lat="40.256867" lon="-4.739550">
        <ele>1866.0</ele>
        <time>2013-07-02T13:21:03Z</time>
      </trkpt>
      <trkpt lat="40.256917" lon="-4.739433">
        <ele>1868.0</ele>
        <time>2013-07-02T13:21:04Z</time>
      </trkpt>
      <trkpt lat="40.256933" lon="-4.739300">
        <ele>1869.0</ele>
        <time>2013-07-02T13:21:05Z</time>
      </trkpt>
      <trkpt lat="40.256933" lon="-4.739183">
        <ele>1871.0</ele>
        <time>2013-07-02T13:21:06Z</time>
      </trkpt>
      <trkpt lat="40.256917" lon="-4.739067">
        <ele>1873.0</ele>
        <time>2013-07-02T13:21:07Z</time>
      </trkpt>
      <trkpt lat="40.256917" lon="-4.738950">
        <ele>1874.0</ele>
        <time>2013-07-02T13:21:08Z</time>
      </trkpt>
      <trkpt lat="40.256900" lon="-4.738833">
        <ele>1876.0</ele>
        <time>2013-07-02T13:21:09Z</time>
      </trkpt>
      <trkpt lat="40.256900" lon="-4.738700">
        <ele>1878.0</ele>
        <time>2013-07-02T13:21:10Z</time>
      </trkpt>
      <trkpt lat="40.256883" lon="-4.738583">
        <ele>1879.0</ele>
        <time>2013-07-02T13:21:11Z</time>
      </trkpt>
      <trkpt lat="40.256850" lon="-4.738467">
        <ele>1881.0</ele>
        <time>2013-07-02T13:21:12Z</time>
      </trkpt>
      <trkpt lat="40.256800" lon="-4.738367">
        <ele>1883.0</ele>
        <time>2013-07-02T13:21:13Z</time>
      </trkpt>
      <trkpt lat="40.256767" lon="-4.738283">
        <ele>1886.0</ele>
        <time>2013-07-02T13:21:14Z</time>
      </trkpt>
      <trkpt lat="40.256717" lon="-4.738233">
        <ele>1888.0</ele>
        <time>2013-07-02T13:21:15Z</time>
      </trkpt>
      <trkpt lat="40.256667" lon="-4.738183">
        <ele>1889.0</ele>
        <time>2013-07-02T13:21:16Z</time>
      </trkpt>
      <trkpt lat="40.256617" lon="-4.738150">
        <ele>1891.0</ele>
        <time>2013-07-02T13:21:17Z</time>
      </trkpt>
      <trkpt lat="40.256567" lon="-4.738133">
        <ele>1894.0</ele>
        <time>2013-07-02T13:21:18Z</time>
      </trkpt>
      <trkpt lat="40.256533" lon="-4.738150">
        <ele>1898.0</ele>
        <time>2013-07-02T13:21:19Z</time>
      </trkpt>
      <trkpt lat="40.256500" lon="-4.738167">
        <ele>1901.0</ele>
        <time>2013-07-02T13:21:20Z</time>
      </trkpt>
      <trkpt lat="40.256517" lon="-4.738200">
        <ele>1905.0</ele>
        <time>2013-07-02T13:21:21Z</time>
      </trkpt>
      <trkpt lat="40.256517" lon="-4.738217">
        <ele>1908.0</ele>
        <time>2013-07-02T13:21:22Z</time>
      </trkpt>
      <trkpt lat="40.256550" lon="-4.738233">
        <ele>1911.0</ele>
        <time>2013-07-02T13:21:23Z</time>
      </trkpt>
      <trkpt lat="40.256567" lon="-4.738267">
        <ele>1913.0</ele>
        <time>2013-07-02T13:21:24Z</time>
      </trkpt>
      <trkpt lat="40.256600" lon="-4.738317">
        <ele>1916.0</ele>
        <time>2013-07-02T13:21:25Z</time>
      </trkpt>
      <trkpt lat="40.256633" lon="-4.738350">
        <ele>1918.0</ele>
        <time>2013-07-02T13:21:26Z</time>
      </trkpt>
      <trkpt lat="40.256700" lon="-4.738383">
        <ele>1921.0</ele>
        <time>2013-07-02T13:21:27Z</time>
      </trkpt>
      <trkpt lat="40.256783" lon="-4.738383">
        <ele>1923.0</ele>
        <time>2013-07-02T13:21:28Z</time>
      </trkpt>
      <trkpt lat="40.256883" lon="-4.738367">
        <ele>1924.0</ele>
        <time>2013-07-02T13:21:29Z</time>
      </trkpt>
      <trkpt lat="40.256983" lon="-4.738317">
        <ele>1925.0</ele>
        <time>2013-07-02T13:21:30Z</time>
      </trkpt>
      <trkpt lat="40.257083" lon="-4.738233">
        <ele>1926.0</ele>
        <time>2013-07-02T13:21:31Z</time>
      </trkpt>
      <trkpt lat="40.257167" lon="-4.738133">
        <ele>1929.0</ele>
        <time>2013-07-02T13:21:32Z</time>
      </trkpt>
      <trkpt lat="40.257250" lon="-4.738000">
        <ele>1932.0</ele>
        <time>2013-07-02T13:21:33Z</time>
      </trkpt>
      <trkpt lat="40.257283" lon="-4.737867">
        <ele>1934.0</ele>
        <time>2013-07-02T13:21:34Z</time>
      </trkpt>
      <trkpt lat="40.257283" lon="-4.737700">
        <ele>1937.0</ele>
        <time>2013-07-02T13:21:35Z</time>
      </trkpt>
      <trkpt lat="40.257267" lon="-4.737567">
        <ele>1940.0</ele>
        <time>2013-07-02T13:21:36Z</time>
      </trkpt>
      <trkpt lat="40.257217" lon="-4.737450">
        <ele>1944.0</ele>
        <time>2013-07-02T13:21:37Z</time>
      </trkpt>
      <trkpt lat="40.257183" lon="-4.737350">
        <ele>1948.0</ele>
        <time>2013-07-02T13:21:38Z</time>
      </trkpt>
      <trkpt lat="40.257150" lon="-4.737267">
        <ele>1951.0</ele>
        <time>2013-07-02T13:21:39Z</time>
      </trkpt>
      <trkpt lat="40.257117" lon="-4.737200">
        <ele>1953.0</ele>
        <time>2013-07-02T13:21:40Z</time>
      </trkpt>
      <trkpt lat="40.257067" lon="-4.737117">
        <ele>1956.0</ele>
        <time>2013-07-02T13:21:41Z</time>
      </trkpt>
      <trkpt lat="40.257000" lon="-4.737050">
        <ele>1958.0</ele>
        <time>2013-07-02T13:21:42Z</time>
      </trkpt>
      <trkpt lat="40.256950" lon="-4.737000">
        <ele>1961.0</ele>
        <time>2013-07-02T13:21:43Z</time>
      </trkpt>
      <trkpt lat="40.256883" lon="-4.736967">
        <ele>1965.0</ele>
        <time>2013-07-02T13:21:44Z</time>
      </trkpt>
      <trkpt lat="40.256833" lon="-4.736933">
        <ele>1968.0</ele>
        <time>2013-07-02T13:21:45Z</time>
      </trkpt>
      <trkpt lat="40.256767" lon="-4.736917">
        <ele>1970.0</ele>
        <time>2013-07-02T13:21:46Z</time>
      </trkpt>
      <trkpt lat="40.256717" lon="-4.736900">
        <ele>1972.0</ele>
        <time>2013-07-02T13:21:47Z</time>
      </trkpt>
      <trkpt lat="40.256667" lon="-4.736883">
        <ele>1974.0</ele>
        <time>2013-07-02T13:21:48Z</time>
      </trkpt>
      <trkpt lat="40.256633" lon="-4.736867">
        <ele>1976.0</ele>
        <time>2013-07-02T13:21:49Z</time>
      </trkpt>
      <trkpt lat="40.256633" lon="-4.736883">
        <ele>1978.0</ele>
        <time>2013-07-02T13:21:50Z</time>
      </trkpt>
      <trkpt lat="40.256633" lon="-4.736917">
        <ele>1978.0</ele>
        <time>2013-07-02T13:21:51Z</time>
      </trkpt>
      <trkpt lat="40.256650" lon="-4.736967">
        <ele>1978.0</ele>
        <time>2013-07-02T13:21:52Z</time>
      </trkpt>
      <trkpt lat="40.256667" lon="-4.737017">
        <ele>1978.0</ele>
        <time>2013-07-02T13:21:53Z</time>
      </trkpt>
      <trkpt lat="40.256733" lon="-4.737050">
        <ele>1978.0</ele>
        <time>2013-07-02T13:21:54Z</time>
      </trkpt>
      <trkpt lat="40.256817" lon="-4.737083">
        <ele>1978.0</ele>
        <time>2013-07-02T13:21:55Z</time>
      </trkpt>
      <trkpt lat="40.256933" lon="-4.737050">
        <ele>1978.0</ele>
        <time>2013-07-02T13:21:56Z</time>
      </trkpt>
      <trkpt lat="40.257050" lon="-4.736983">
        <ele>1980.0</ele>
        <time>2013-07-02T13:21:57Z</time>
      </trkpt>
      <trkpt lat="40.257133" lon="-4.736867">
        <ele>1982.0</ele>
        <time>2013-07-02T13:21:58Z</time>
      </trkpt>
      <trkpt lat="40.257183" lon="-4.736750">
        <ele>1984.0</ele>
        <time>2013-07-02T13:21:59Z</time>
      </trkpt>
      <trkpt lat="40.257233" lon="-4.736617">
        <ele>1986.0</ele>
        <time>2013-07-02T13:22:00Z</time>
      </trkpt>
      <trkpt lat="40.257250" lon="-4.736483">
        <ele>1987.0</ele>
        <time>2013-07-02T13:22:01Z</time>
      </trkpt>
      <trkpt lat="40.257250" lon="-4.736333">
        <ele>1988.0</ele>
        <time>2013-07-02T13:22:02Z</time>
      </trkpt>
      <trkpt lat="40.257250" lon="-4.736183">
        <ele>1989.0</ele>
        <time>2013-07-02T13:22:03Z</time>
      </trkpt>
      <trkpt lat="40.257233" lon="-4.736017">
        <ele>1991.0</ele>
        <time>2013-07-02T13:22:04Z</time>
      </trkpt>
      <trkpt lat="40.257200" lon="-4.735883">
        <ele>1992.0</ele>
        <time>2013-07-02T13:22:05Z</time>
      </trkpt>
      <trkpt lat="40.257167" lon="-4.735783">
        <ele>1994.0</ele>
        <time>2013-07-02T13:22:06Z</time>
      </trkpt>
      <trkpt lat="40.257100" lon="-4.735717">
        <ele>1995.0</ele>
        <time>2013-07-02T13:22:07Z</time>
      </trkpt>
      <trkpt lat="40.257050" lon="-4.735667">
        <ele>1996.0</ele>
        <time>2013-07-02T13:22:08Z</time>
      </trkpt>
      <trkpt lat="40.257000" lon="-4.735617">
        <ele>1997.0</ele>
        <time>2013-07-02T13:22:09Z</time>
      </trkpt>
      <trkpt lat="40.256933" lon="-4.735550">
        <ele>1998.0</ele>
        <time>2013-07-02T13:22:10Z</time>
      </trkpt>
      <trkpt lat="40.256883" lon="-4.735500">
        <ele>1998.0</ele>
        <time>2013-07-02T13:22:11Z</time>
      </trkpt>
      <trkpt lat="40.256833" lon="-4.735467">
        <ele>1999.0</ele>
        <time>2013-07-02T13:22:12Z</time>
      </trkpt>
      <trkpt lat="40.256767" lon="-4.735433">
        <ele>1999.0</ele>
        <time>2013-07-02T13:22:13Z</time>
      </trkpt>
      <trkpt lat="40.256717" lon="-4.735417">
        <ele>1999.0</ele>
        <time>2013-07-02T13:22:14Z</time>
      </trkpt>
      <trkpt lat="40.256650" lon="-4.735417">
        <ele>1998.0</ele>
        <time>2013-07-02T13:22:15Z</time>
      </trkpt>
      <trkpt lat="40.256600" lon="-4.735417">
        <ele>1998.0</ele>
        <time>2013-07-02T13:22:16Z</time>
      </trkpt>
      <trkpt lat="40.256517" lon="-4.735417">
        <ele>1996.0</ele>
        <time>2013-07-02T13:22:17Z</time>
      </trkpt>
      <trkpt lat="40.256450" lon="-4.735417">
        <ele>1994.0</ele>
        <time>2013-07-02T13:22:18Z</time>
      </trkpt>
      <trkpt lat="40.256367" lon="-4.735417">
        <ele>1995.0</ele>
        <time>2013-07-02T13:22:19Z</time>
      </trkpt>
      <trkpt lat="40.256300" lon="-4.735400">
        <ele>1994.0</ele>
        <time>2013-07-02T13:22:20Z</time>
      </trkpt>
      <trkpt lat="40.256250" lon="-4.735383">
        <ele>1993.0</ele>
        <time>2013-07-02T13:22:21Z</time>
      </trkpt>
      <trkpt lat="40.256183" lon="-4.735367">
        <ele>1991.0</ele>
        <time>2013-07-02T13:22:22Z</time>
      </trkpt>
      <trkpt lat="40.256133" lon="-4.735333">
        <ele>1988.0</ele>
        <time>2013-07-02T13:22:23Z</time>
      </trkpt>
      <trkpt lat="40.256067" lon="-4.735317">
        <ele>1985.0</ele>
        <time>2013-07-02T13:22:24Z</time>
      </trkpt>
      <trkpt lat="40.255983" lon="-4.735283">
        <ele>1986.0</ele>
        <time>2013-07-02T13:22:25Z</time>
      </trkpt>
      <trkpt lat="40.255917" lon="-4.735250">
        <ele>1985.0</ele>
        <time>2013-07-02T13:22:26Z</time>
      </trkpt>
      <trkpt lat="40.255833" lon="-4.735217">
        <ele>1983.0</ele>
        <time>2013-07-02T13:22:27Z</time>
      </trkpt>
      <trkpt lat="40.255767" lon="-4.735183">
        <ele>1982.0</ele>
        <time>2013-07-02T13:22:28Z</time>
      </trkpt>
      <trkpt lat="40.255700" lon="-4.735133">
        <ele>1982.0</ele>
        <time>2013-07-02T13:22:29Z</time>
      </trkpt>
      <trkpt lat="40.255650" lon="-4.735100">
        <ele>1981.0</ele>
        <time>2013-07-02T13:22:30Z</time>
      </trkpt>
      <trkpt lat="40.255583" lon="-4.735067">
        <ele>1979.0</ele>
        <time>2013-07-02T13:22:31Z</time>
      </trkpt>
      <trkpt lat="40.255517" lon="-4.735033">
        <ele>1978.0</ele>
        <time>2013-07-02T13:22:32Z</time>
      </trkpt>
      <trkpt lat="40.255433" lon="-4.735017">
        <ele>1977.0</ele>
        <time>2013-07-02T13:22:33Z</time>
      </trkpt>
      <trkpt lat="40.255367" lon="-4.735000">
        <ele>1976.0</ele>
        <time>2013-07-02T13:22:34Z</time>
      </trkpt>
      <trkpt lat="40.255317" lon="-4.735017">
        <ele>1977.0</ele>
        <time>2013-07-02T13:22:35Z</time>
      </trkpt>
      <trkpt lat="40.255267" lon="-4.735017">
        <ele>1978.0</ele>
        <time>2013-07-02T13:22:36Z</time>
      </trkpt>
      <trkpt lat="40.255233" lon="-4.735000">
        <ele>1977.0</ele>
        <time>2013-07-02T13:22:37Z</time>
      </trkpt>
      <trkpt lat="40.255183" lon="-4.735017">
        <ele>1976.0</ele>
        <time>2013-07-02T13:22:38Z</time>
      </trkpt>
      <trkpt lat="40.255133" lon="-4.735033">
        <ele>1975.0</ele>
        <time>2013-07-02T13:22:39Z</time>
      </trkpt>
      <trkpt lat="40.255083" lon="-4.735067">
        <ele>1974.0</ele>
        <time>2013-07-02T13:22:40Z</time>
      </trkpt>
      <trkpt lat="40.255033" lon="-4.735100">
        <ele>1974.0</ele>
        <time>2013-07-02T13:22:41Z</time>
      </trkpt>
      <trkpt lat="40.254983" lon="-4.735117">
        <ele>1974.0</ele>
        <time>2013-07-02T13:22:42Z</time>
      </trkpt>
      <trkpt lat="40.254950" lon="-4.735133">
        <ele>1974.0</ele>
        <time>2013-07-02T13:22:43Z</time>
      </trkpt>
      <trkpt lat="40.254917" lon="-4.735167">
        <ele>1974.0</ele>
        <time>2013-07-02T13:22:44Z</time>
      </trkpt>
      <trkpt lat="40.254867" lon="-4.735200">
        <ele>1974.0</ele>
        <time>2013-07-02T13:22:45Z</time>
      </trkpt>
      <trkpt lat="40.254817" lon="-4.735250">
        <ele>1973.0</ele>
        <time>2013-07-02T13:22:46Z</time>
      </trkpt>
      <trkpt lat="40.254767" lon="-4.735283">
        <ele>1972.0</ele>
        <time>2013-07-02T13:22:47Z</time>
      </trkpt>
      <trkpt lat="40.254717" lon="-4.735300">
        <ele>1970.0</ele>
        <time>2013-07-02T13:22:48Z</time>
      </trkpt>
      <trkpt lat="40.254667" lon="-4.735350">
        <ele>1969.0</ele>
        <time>2013-07-02T13:22:49Z</time>
      </trkpt>
      <trkpt lat="40.254617" lon="-4.735400">
        <ele>1968.0</ele>
        <time>2013-07-02T13:22:50Z</time>
      </trkpt>
      <trkpt lat="40.254600" lon="-4.735450">
        <ele>1967.0</ele>
        <time>2013-07-02T13:22:51Z</time>
      </trkpt>
      <trkpt lat="40.254567" lon="-4.735483">
        <ele>1965.0</ele>
        <time>2013-07-02T13:22:52Z</time>
      </trkpt>
      <trkpt lat="40.254533" lon="-4.735533">
        <ele>1963.0</ele>
        <time>2013-07-02T13:22:53Z</time>
      </trkpt>
      <trkpt lat="40.254483" lon="-4.735567">
        <ele>1964.0</ele>
        <time>2013-07-02T13:22:54Z</time>
      </trkpt>
      <trkpt lat="40.254450" lon="-4.735617">
        <ele>1962.0</ele>
        <time>2013-07-02T13:22:55Z</time>
      </trkpt>
      <trkpt lat="40.254400" lon="-4.735650">
        <ele>1960.0</ele>
        <time>2013-07-02T13:22:56Z</time>
      </trkpt>
      <trkpt lat="40.254350" lon="-4.735683">
        <ele>1958.0</ele>
        <time>2013-07-02T13:22:57Z</time>
      </trkpt>
      <trkpt lat="40.254300" lon="-4.735717">
        <ele>1957.0</ele>
        <time>2013-07-02T13:22:58Z</time>
      </trkpt>
      <trkpt lat="40.254250" lon="-4.735733">
        <ele>1955.0</ele>
        <time>2013-07-02T13:22:59Z</time>
      </trkpt>
      <trkpt lat="40.254183" lon="-4.735767">
        <ele>1954.0</ele>
        <time>2013-07-02T13:23:00Z</time>
      </trkpt>
      <trkpt lat="40.254150" lon="-4.735800">
        <ele>1953.0</ele>
        <time>2013-07-02T13:23:01Z</time>
      </trkpt>
      <trkpt lat="40.254100" lon="-4.735833">
        <ele>1952.0</ele>
        <time>2013-07-02T13:23:02Z</time>
      </trkpt>
      <trkpt lat="40.254050" lon="-4.735850">
        <ele>1950.0</ele>
        <time>2013-07-02T13:23:03Z</time>
      </trkpt>
      <trkpt lat="40.254000" lon="-4.735850">
        <ele>1948.0</ele>
        <time>2013-07-02T13:23:04Z</time>
      </trkpt>
      <trkpt lat="40.253933" lon="-4.735850">
        <ele>1945.0</ele>
        <time>2013-07-02T13:23:05Z</time>
      </trkpt>
      <trkpt lat="40.253867" lon="-4.735867">
        <ele>1943.0</ele>
        <time>2013-07-02T13:23:06Z</time>
      </trkpt>
      <trkpt lat="40.253800" lon="-4.735883">
        <ele>1942.0</ele>
        <time>2013-07-02T13:23:07Z</time>
      </trkpt>
      <trkpt lat="40.253733" lon="-4.735900">
        <ele>1940.0</ele>
        <time>2013-07-02T13:23:08Z</time>
      </trkpt>
      <trkpt lat="40.253683" lon="-4.735900">
        <ele>1939.0</ele>
        <time>2013-07-02T13:23:09Z</time>
      </trkpt>
      <trkpt lat="40.253617" lon="-4.735900">
        <ele>1938.0</ele>
        <time>2013-07-02T13:23:10Z</time>
      </trkpt>
      <trkpt lat="40.253550" lon="-4.735917">
        <ele>1936.0</ele>
        <time>2013-07-02T13:23:11Z</time>
      </trkpt>
      <trkpt lat="40.253483" lon="-4.735933">
        <ele>1934.0</ele>
        <time>2013-07-02T13:23:12Z</time>
      </trkpt>
      <trkpt lat="40.253417" lon="-4.735950">
        <ele>1932.0</ele>
        <time>2013-07-02T13:23:13Z</time>
      </trkpt>
      <trkpt lat="40.253350" lon="-4.735967">
        <ele>1931.0</ele>
        <time>2013-07-02T13:23:14Z</time>
      </trkpt>
      <trkpt lat="40.253267" lon="-4.735983">
        <ele>1930.0</ele>
        <time>2013-07-02T13:23:15Z</time>
      </trkpt>
      <trkpt lat="40.253200" lon="-4.736000">
        <ele>1929.0</ele>
        <time>2013-07-02T13:23:16Z</time>
      </trkpt>
      <trkpt lat="40.253133" lon="-4.736017">
        <ele>1928.0</ele>
        <time>2013-07-02T13:23:17Z</time>
      </trkpt>
      <trkpt lat="40.253067" lon="-4.736017">
        <ele>1929.0</ele>
        <time>2013-07-02T13:23:18Z</time>
      </trkpt>
      <trkpt lat="40.253017" lon="-4.736033">
        <ele>1929.0</ele>
        <time>2013-07-02T13:23:19Z</time>
      </trkpt>
      <trkpt lat="40.252950" lon="-4.736033">
        <ele>1928.0</ele>
        <time>2013-07-02T13:23:20Z</time>
      </trkpt>
      <trkpt lat="40.252883" lon="-4.736033">
        <ele>1926.0</ele>
        <time>2013-07-02T13:23:21Z</time>
      </trkpt>
      <trkpt lat="40.252817" lon="-4.736050">
        <ele>1923.0</ele>
        <time>2013-07-02T13:23:22Z</time>
      </trkpt>
      <trkpt lat="40.252733" lon="-4.736067">
        <ele>1920.0</ele>
        <time>2013-07-02T13:23:23Z</time>
      </trkpt>
      <trkpt lat="40.252667" lon="-4.736083">
        <ele>1917.0</ele>
        <time>2013-07-02T13:23:24Z</time>
      </trkpt>
      <trkpt lat="40.252600" lon="-4.736100">
        <ele>1915.0</ele>
        <time>2013-07-02T13:23:25Z</time>
      </trkpt>
      <trkpt lat="40.252533" lon="-4.736117">
        <ele>1912.0</ele>
        <time>2013-07-02T13:23:26Z</time>
      </trkpt>
      <trkpt lat="40.252483" lon="-4.736133">
        <ele>1909.0</ele>
        <time>2013-07-02T13:23:27Z</time>
      </trkpt>
      <trkpt lat="40.252417" lon="-4.736133">
        <ele>1905.0</ele>
        <time>2013-07-02T13:23:28Z</time>
      </trkpt>
      <trkpt lat="40.252367" lon="-4.736150">
        <ele>1902.0</ele>
        <time>2013-07-02T13:23:29Z</time>
      </trkpt>
      <trkpt lat="40.252300" lon="-4.736183">
        <ele>1897.0</ele>
        <time>2013-07-02T13:23:30Z</time>
      </trkpt>
      <trkpt lat="40.252233" lon="-4.736217">
        <ele>1893.0</ele>
        <time>2013-07-02T13:23:31Z</time>
      </trkpt>
      <trkpt lat="40.252183" lon="-4.736267">
        <ele>1888.0</ele>
        <time>2013-07-02T13:23:32Z</time>
      </trkpt>
      <trkpt lat="40.252117" lon="-4.736300">
        <ele>1883.0</ele>
        <time>2013-07-02T13:23:33Z</time>
      </trkpt>
      <trkpt lat="40.252033" lon="-4.736317">
        <ele>1878.0</ele>
        <time>2013-07-02T13:23:34Z</time>
      </trkpt>
      <trkpt lat="40.251933" lon="-4.736300">
        <ele>1874.0</ele>
        <time>2013-07-02T13:23:35Z</time>
      </trkpt>
      <trkpt lat="40.251850" lon="-4.736283">
        <ele>1871.0</ele>
        <time>2013-07-02T13:23:36Z</time>
      </trkpt>
      <trkpt lat="40.251750" lon="-4.736300">
        <ele>1869.0</ele>
        <time>2013-07-02T13:23:37Z</time>
      </trkpt>
      <trkpt lat="40.251683" lon="-4.736300">
        <ele>1869.0</ele>
        <time>2013-07-02T13:23:38Z</time>
      </trkpt>
      <trkpt lat="40.251600" lon="-4.736300">
        <ele>1867.0</ele>
        <time>2013-07-02T13:23:39Z</time>
      </trkpt>
      <trkpt lat="40.251533" lon="-4.736283">
        <ele>1866.0</ele>
        <time>2013-07-02T13:23:40Z</time>
      </trkpt>
      <trkpt lat="40.251450" lon="-4.736283">
        <ele>1864.0</ele>
        <time>2013-07-02T13:23:41Z</time>
      </trkpt>
      <trkpt lat="40.251383" lon="-4.736267">
        <ele>1861.0</ele>
        <time>2013-07-02T13:23:42Z</time>
      </trkpt>
      <trkpt lat="40.251300" lon="-4.736283">
        <ele>1858.0</ele>
        <time>2013-07-02T13:23:43Z</time>
      </trkpt>
      <trkpt lat="40.251217" lon="-4.736283">
        <ele>1855.0</ele>
        <time>2013-07-02T13:23:44Z</time>
      </trkpt>
      <trkpt lat="40.251133" lon="-4.736283">
        <ele>1852.0</ele>
        <time>2013-07-02T13:23:45Z</time>
      </trkpt>
      <trkpt lat="40.251050" lon="-4.736250">
        <ele>1850.0</ele>
        <time>2013-07-02T13:23:46Z</time>
      </trkpt>
      <trkpt lat="40.250967" lon="-4.736250">
        <ele>1848.0</ele>
        <time>2013-07-02T13:23:47Z</time>
      </trkpt>
      <trkpt lat="40.250900" lon="-4.736250">
        <ele>1846.0</ele>
        <time>2013-07-02T13:23:48Z</time>
      </trkpt>
      <trkpt lat="40.250833" lon="-4.736250">
        <ele>1843.0</ele>
        <time>2013-07-02T13:23:49Z</time>
      </trkpt>
      <trkpt lat="40.250767" lon="-4.736250">
        <ele>1840.0</ele>
        <time>2013-07-02T13:23:50Z</time>
      </trkpt>
      <trkpt lat="40.250700" lon="-4.736250">
        <ele>1837.0</ele>
        <time>2013-07-02T13:23:51Z</time>
      </trkpt>
      <trkpt lat="40.250617" lon="-4.736250">
        <ele>1833.0</ele>
        <time>2013-07-02T13:23:52Z</time>
      </trkpt>
      <trkpt lat="40.250533" lon="-4.736283">
        <ele>1829.0</ele>
        <time>2013-07-02T13:23:53Z</time>
      </trkpt>
      <trkpt lat="40.250467" lon="-4.736317">
        <ele>1826.0</ele>
        <time>2013-07-02T13:23:54Z</time>
      </trkpt>
      <trkpt lat="40.250400" lon="-4.736350">
        <ele>1823.0</ele>
        <time>2013-07-02T13:23:55Z</time>
      </trkpt>
      <trkpt lat="40.250333" lon="-4.736400">
        <ele>1820.0</ele>
        <time>2013-07-02T13:23:56Z</time>
      </trkpt>
      <trkpt lat="40.250267" lon="-4.736433">
        <ele>1817.0</ele>
        <time>2013-07-02T13:23:57Z</time>
      </trkpt>
      <trkpt lat="40.250183" lon="-4.736483">
        <ele>1814.0</ele>
        <time>2013-07-02T13:23:58Z</time>
      </trkpt>
      <trkpt lat="40.250117" lon="-4.736517">
        <ele>1811.0</ele>
        <time>2013-07-02T13:23:59Z</time>
      </trkpt>
      <trkpt lat="40.250033" lon="-4.736533">
        <ele>1808.0</ele>
        <time>2013-07-02T13:24:00Z</time>
      </trkpt>
      <trkpt lat="40.249967" lon="-4.736550">
        <ele>1805.0</ele>
        <time>2013-07-02T13:24:01Z</time>
      </trkpt>
      <trkpt lat="40.249883" lon="-4.736583">
        <ele>1802.0</ele>
        <time>2013-07-02T13:24:02Z</time>
      </trkpt>
      <trkpt lat="40.249817" lon="-4.736600">
        <ele>1804.0</ele>
        <time>2013-07-02T13:24:03Z</time>
      </trkpt>
      <trkpt lat="40.249750" lon="-4.736617">
        <ele>1801.0</ele>
        <time>2013-07-02T13:24:04Z</time>
      </trkpt>
      <trkpt lat="40.249667" lon="-4.736633">
        <ele>1798.0</ele>
        <time>2013-07-02T13:24:05Z</time>
      </trkpt>
      <trkpt lat="40.249600" lon="-4.736633">
        <ele>1796.0</ele>
        <time>2013-07-02T13:24:06Z</time>
      </trkpt>
      <trkpt lat="40.249533" lon="-4.736650">
        <ele>1796.0</ele>
        <time>2013-07-02T13:24:07Z</time>
      </trkpt>
      <trkpt lat="40.249467" lon="-4.736667">
        <ele>1794.0</ele>
        <time>2013-07-02T13:24:08Z</time>
      </trkpt>
      <trkpt lat="40.249417" lon="-4.736700">
        <ele>1791.0</ele>
        <time>2013-07-02T13:24:09Z</time>
      </trkpt>
      <trkpt lat="40.249367" lon="-4.736717">
        <ele>1789.0</ele>
        <time>2013-07-02T13:24:10Z</time>
      </trkpt>
      <trkpt lat="40.249283" lon="-4.736733">
        <ele>1786.0</ele>
        <time>2013-07-02T13:24:11Z</time>
      </trkpt>
      <trkpt lat="40.249217" lon="-4.736767">
        <ele>1783.0</ele>
        <time>2013-07-02T13:24:12Z</time>
      </trkpt>
      <trkpt lat="40.249133" lon="-4.736817">
        <ele>1781.0</ele>
        <time>2013-07-02T13:24:13Z</time>
      </trkpt>
      <trkpt lat="40.249067" lon="-4.736833">
        <ele>1781.0</ele>
        <time>2013-07-02T13:24:14Z</time>
      </trkpt>
      <trkpt lat="40.249000" lon="-4.736867">
        <ele>1779.0</ele>
        <time>2013-07-02T13:24:15Z</time>
      </trkpt>
      <trkpt lat="40.248933" lon="-4.736883">
        <ele>1777.0</ele>
        <time>2013-07-02T13:24:16Z</time>
      </trkpt>
      <trkpt lat="40.248867" lon="-4.736900">
        <ele>1775.0</ele>
        <time>2013-07-02T13:24:17Z</time>
      </trkpt>
      <trkpt lat="40.248783" lon="-4.736917">
        <ele>1773.0</ele>
        <time>2013-07-02T13:24:18Z</time>
      </trkpt>
      <trkpt lat="40.248700" lon="-4.736933">
        <ele>1770.0</ele>
        <time>2013-07-02T13:24:19Z</time>
      </trkpt>
      <trkpt lat="40.248633" lon="-4.736950">
        <ele>1768.0</ele>
        <time>2013-07-02T13:24:20Z</time>
      </trkpt>
      <trkpt lat="40.248567" lon="-4.736967">
        <ele>1766.0</ele>
        <time>2013-07-02T13:24:21Z</time>
      </trkpt>
      <trkpt lat="40.248517" lon="-4.736983">
        <ele>1764.0</ele>
        <time>2013-07-02T13:24:22Z</time>
      </trkpt>
      <trkpt lat="40.248450" lon="-4.737017">
        <ele>1761.0</ele>
        <time>2013-07-02T13:24:23Z</time>
      </trkpt>
      <trkpt lat="40.248400" lon="-4.737050">
        <ele>1758.0</ele>
        <time>2013-07-02T13:24:24Z</time>
      </trkpt>
      <trkpt lat="40.248317" lon="-4.737083">
        <ele>1755.0</ele>
        <time>2013-07-02T13:24:25Z</time>
      </trkpt>
      <trkpt lat="40.248250" lon="-4.737117">
        <ele>1751.0</ele>
        <time>2013-07-02T13:24:26Z</time>
      </trkpt>
      <trkpt lat="40.248167" lon="-4.737150">
        <ele>1748.0</ele>
        <time>2013-07-02T13:24:27Z</time>
      </trkpt>
      <trkpt lat="40.248083" lon="-4.737183">
        <ele>1745.0</ele>
        <time>2013-07-02T13:24:28Z</time>
      </trkpt>
      <trkpt lat="40.248017" lon="-4.737217">
        <ele>1742.0</ele>
        <time>2013-07-02T13:24:29Z</time>
      </trkpt>
      <trkpt lat="40.247933" lon="-4.737250">
        <ele>1739.0</ele>
        <time>2013-07-02T13:24:30Z</time>
      </trkpt>
      <trkpt lat="40.247867" lon="-4.737300">
        <ele>1735.0</ele>
        <time>2013-07-02T13:24:31Z</time>
      </trkpt>
      <trkpt lat="40.247767" lon="-4.737350">
        <ele>1732.0</ele>
        <time>2013-07-02T13:24:32Z</time>
      </trkpt>
      <trkpt lat="40.247667" lon="-4.737383">
        <ele>1729.0</ele>
        <time>2013-07-02T13:24:33Z</time>
      </trkpt>
      <trkpt lat="40.247567" lon="-4.737417">
        <ele>1728.0</ele>
        <time>2013-07-02T13:24:34Z</time>
      </trkpt>
      <trkpt lat="40.247467" lon="-4.737450">
        <ele>1727.0</ele>
        <time>2013-07-02T13:24:35Z</time>
      </trkpt>
      <trkpt lat="40.247367" lon="-4.737483">
        <ele>1728.0</ele>
        <time>2013-07-02T13:24:36Z</time>
      </trkpt>
      <trkpt lat="40.247283" lon="-4.737500">
        <ele>1728.0</ele>
        <time>2013-07-02T13:24:37Z</time>
      </trkpt>
      <trkpt lat="40.247200" lon="-4.737500">
        <ele>1728.0</ele>
        <time>2013-07-02T13:24:38Z</time>
      </trkpt>
      <trkpt lat="40.247100" lon="-4.737517">
        <ele>1729.0</ele>
        <time>2013-07-02T13:24:39Z</time>
      </trkpt>
      <trkpt lat="40.247000" lon="-4.737533">
        <ele>1729.0</ele>
        <time>2013-07-02T13:24:40Z</time>
      </trkpt>
      <trkpt lat="40.246933" lon="-4.737533">
        <ele>1730.0</ele>
        <time>2013-07-02T13:24:41Z</time>
      </trkpt>
      <trkpt lat="40.246867" lon="-4.737533">
        <ele>1732.0</ele>
        <time>2013-07-02T13:24:42Z</time>
      </trkpt>
      <trkpt lat="40.246817" lon="-4.737517">
        <ele>1733.0</ele>
        <time>2013-07-02T13:24:43Z</time>
      </trkpt>
      <trkpt lat="40.246767" lon="-4.737483">
        <ele>1733.0</ele>
        <time>2013-07-02T13:24:44Z</time>
      </trkpt>
      <trkpt lat="40.246717" lon="-4.737433">
        <ele>1732.0</ele>
        <time>2013-07-02T13:24:45Z</time>
      </trkpt>
      <trkpt lat="40.246650" lon="-4.737383">
        <ele>1733.0</ele>
        <time>2013-07-02T13:24:46Z</time>
      </trkpt>
      <trkpt lat="40.246583" lon="-4.737333">
        <ele>1734.0</ele>
        <time>2013-07-02T13:24:47Z</time>
      </trkpt>
      <trkpt lat="40.246550" lon="-4.737300">
        <ele>1735.0</ele>
        <time>2013-07-02T13:24:48Z</time>
      </trkpt>
      <trkpt lat="40.246517" lon="-4.737267">
        <ele>1735.0</ele>
        <time>2013-07-02T13:24:49Z</time>
      </trkpt>
      <trkpt lat="40.246500" lon="-4.737233">
        <ele>1733.0</ele>
        <time>2013-07-02T13:24:50Z</time>
      </trkpt>
      <trkpt lat="40.246467" lon="-4.737217">
        <ele>1731.0</ele>
        <time>2013-07-02T13:24:51Z</time>
      </trkpt>
      <trkpt lat="40.246400" lon="-4.737183">
        <ele>1728.0</ele>
        <time>2013-07-02T13:24:52Z</time>
      </trkpt>
      <trkpt lat="40.246333" lon="-4.737167">
        <ele>1726.0</ele>
        <time>2013-07-02T13:24:53Z</time>
      </trkpt>
      <trkpt lat="40.246250" lon="-4.737167">
        <ele>1724.0</ele>
        <time>2013-07-02T13:24:54Z</time>
      </trkpt>
      <trkpt lat="40.246183" lon="-4.737150">
        <ele>1723.0</ele>
        <time>2013-07-02T13:24:55Z</time>
      </trkpt>
      <trkpt lat="40.246100" lon="-4.737150">
        <ele>1721.0</ele>
        <time>2013-07-02T13:24:56Z</time>
      </trkpt>
      <trkpt lat="40.246017" lon="-4.737150">
        <ele>1720.0</ele>
        <time>2013-07-02T13:24:57Z</time>
      </trkpt>
      <trkpt lat="40.245950" lon="-4.737150">
        <ele>1718.0</ele>
        <time>2013-07-02T13:24:58Z</time>
      </trkpt>
      <trkpt lat="40.245867" lon="-4.737167">
        <ele>1716.0</ele>
        <time>2013-07-02T13:24:59Z</time>
      </trkpt>
      <trkpt lat="40.245783" lon="-4.737183">
        <ele>1714.0</ele>
        <time>2013-07-02T13:25:00Z</time>
      </trkpt>
      <trkpt lat="40.245717" lon="-4.737183">
        <ele>1715.0</ele>
        <time>2013-07-02T13:25:01Z</time>
      </trkpt>
      <trkpt lat="40.245633" lon="-4.737183">
        <ele>1714.0</ele>
        <time>2013-07-02T13:25:02Z</time>
      </trkpt>
      <trkpt lat="40.245550" lon="-4.737200">
        <ele>1713.0</ele>
        <time>2013-07-02T13:25:03Z</time>
      </trkpt>
      <trkpt lat="40.245450" lon="-4.737200">
        <ele>1712.0</ele>
        <time>2013-07-02T13:25:04Z</time>
      </trkpt>
      <trkpt lat="40.245367" lon="-4.737217">
        <ele>1711.0</ele>
        <time>2013-07-02T13:25:05Z</time>
      </trkpt>
      <trkpt lat="40.245300" lon="-4.737250">
        <ele>1710.0</ele>
        <time>2013-07-02T13:25:06Z</time>
      </trkpt>
      <trkpt lat="40.245217" lon="-4.737267">
        <ele>1709.0</ele>
        <time>2013-07-02T13:25:07Z</time>
      </trkpt>
      <trkpt lat="40.245133" lon="-4.737283">
        <ele>1707.0</ele>
        <time>2013-07-02T13:25:08Z</time>
      </trkpt>
      <trkpt lat="40.245033" lon="-4.737300">
        <ele>1705.0</ele>
        <time>2013-07-02T13:25:09Z</time>
      </trkpt>
      <trkpt lat="40.244933" lon="-4.737317">
        <ele>1704.0</ele>
        <time>2013-07-02T13:25:10Z</time>
      </trkpt>
      <trkpt lat="40.244850" lon="-4.737350">
        <ele>1703.0</ele>
        <time>2013-07-02T13:25:11Z</time>
      </trkpt>
      <trkpt lat="40.244783" lon="-4.737383">
        <ele>1701.0</ele>
        <time>2013-07-02T13:25:12Z</time>
      </trkpt>
      <trkpt lat="40.244733" lon="-4.737433">
        <ele>1698.0</ele>
        <time>2013-07-02T13:25:13Z</time>
      </trkpt>
      <trkpt lat="40.244683" lon="-4.737500">
        <ele>1695.0</ele>
        <time>2013-07-02T13:25:14Z</time>
      </trkpt>
      <trkpt lat="40.244633" lon="-4.737567">
        <ele>1693.0</ele>
        <time>2013-07-02T13:25:15Z</time>
      </trkpt>
      <trkpt lat="40.244583" lon="-4.737600">
        <ele>1690.0</ele>
        <time>2013-07-02T13:25:16Z</time>
      </trkpt>
      <trkpt lat="40.244517" lon="-4.737617">
        <ele>1688.0</ele>
        <time>2013-07-02T13:25:17Z</time>
      </trkpt>
      <trkpt lat="40.244450" lon="-4.737650">
        <ele>1686.0</ele>
        <time>2013-07-02T13:25:18Z</time>
      </trkpt>
      <trkpt lat="40.244367" lon="-4.737700">
        <ele>1685.0</ele>
        <time>2013-07-02T13:25:19Z</time>
      </trkpt>
      <trkpt lat="40.244300" lon="-4.737750">
        <ele>1685.0</ele>
        <time>2013-07-02T13:25:20Z</time>
      </trkpt>
      <trkpt lat="40.244233" lon="-4.737750">
        <ele>1684.0</ele>
        <time>2013-07-02T13:25:21Z</time>
      </trkpt>
      <trkpt lat="40.244183" lon="-4.737750">
        <ele>1683.0</ele>
        <time>2013-07-02T13:25:22Z</time>
      </trkpt>
      <trkpt lat="40.244117" lon="-4.737750">
        <ele>1681.0</ele>
        <time>2013-07-02T13:25:23Z</time>
      </trkpt>
      <trkpt lat="40.244050" lon="-4.737750">
        <ele>1678.0</ele>
        <time>2013-07-02T13:25:24Z</time>
      </trkpt>
      <trkpt lat="40.243983" lon="-4.737767">
        <ele>1676.0</ele>
        <time>2013-07-02T13:25:25Z</time>
      </trkpt>
      <trkpt lat="40.243917" lon="-4.737783">
        <ele>1675.0</ele>
        <time>2013-07-02T13:25:26Z</time>
      </trkpt>
      <trkpt lat="40.243867" lon="-4.737783">
        <ele>1675.0</ele>
        <time>2013-07-02T13:25:27Z</time>
      </trkpt>
      <trkpt lat="40.243800" lon="-4.737783">
        <ele>1673.0</ele>
        <time>2013-07-02T13:25:28Z</time>
      </trkpt>
      <trkpt lat="40.243750" lon="-4.737800">
        <ele>1671.0</ele>
        <time>2013-07-02T13:25:29Z</time>
      </trkpt>
      <trkpt lat="40.243683" lon="-4.737817">
        <ele>1667.0</ele>
        <time>2013-07-02T13:25:30Z</time>
      </trkpt>
      <trkpt lat="40.243617" lon="-4.737867">
        <ele>1664.0</ele>
        <time>2013-07-02T13:25:31Z</time>
      </trkpt>
      <trkpt lat="40.243550" lon="-4.737900">
        <ele>1663.0</ele>
        <time>2013-07-02T13:25:32Z</time>
      </trkpt>
      <trkpt lat="40.243483" lon="-4.737933">
        <ele>1661.0</ele>
        <time>2013-07-02T13:25:33Z</time>
      </trkpt>
      <trkpt lat="40.243433" lon="-4.737950">
        <ele>1661.0</ele>
        <time>2013-07-02T13:25:34Z</time>
      </trkpt>
      <trkpt lat="40.243383" lon="-4.737950">
        <ele>1659.0</ele>
        <time>2013-07-02T13:25:35Z</time>
      </trkpt>
      <trkpt lat="40.243333" lon="-4.737967">
        <ele>1660.0</ele>
        <time>2013-07-02T13:25:36Z</time>
      </trkpt>
      <trkpt lat="40.243267" lon="-4.737983">
        <ele>1659.0</ele>
        <time>2013-07-02T13:25:37Z</time>
      </trkpt>
      <trkpt lat="40.243217" lon="-4.738000">
        <ele>1657.0</ele>
        <time>2013-07-02T13:25:38Z</time>
      </trkpt>
      <trkpt lat="40.243150" lon="-4.738033">
        <ele>1656.0</ele>
        <time>2013-07-02T13:25:39Z</time>
      </trkpt>
      <trkpt lat="40.243117" lon="-4.738050">
        <ele>1655.0</ele>
        <time>2013-07-02T13:25:40Z</time>
      </trkpt>
      <trkpt lat="40.243067" lon="-4.738083">
        <ele>1652.0</ele>
        <time>2013-07-02T13:25:41Z</time>
      </trkpt>
      <trkpt lat="40.243000" lon="-4.738100">
        <ele>1650.0</ele>
        <time>2013-07-02T13:25:42Z</time>
      </trkpt>
      <trkpt lat="40.242950" lon="-4.738117">
        <ele>1649.0</ele>
        <time>2013-07-02T13:25:43Z</time>
      </trkpt>
      <trkpt lat="40.242900" lon="-4.738167">
        <ele>1646.0</ele>
        <time>2013-07-02T13:25:44Z</time>
      </trkpt>
      <trkpt lat="40.242850" lon="-4.738217">
        <ele>1643.0</ele>
        <time>2013-07-02T13:25:45Z</time>
      </trkpt>
      <trkpt lat="40.242783" lon="-4.738267">
        <ele>1640.0</ele>
        <time>2013-07-02T13:25:46Z</time>
      </trkpt>
      <trkpt lat="40.242733" lon="-4.738300">
        <ele>1638.0</ele>
        <time>2013-07-02T13:25:47Z</time>
      </trkpt>
      <trkpt lat="40.242700" lon="-4.738333">
        <ele>1636.0</ele>
        <time>2013-07-02T13:25:48Z</time>
      </trkpt>
      <trkpt lat="40.242650" lon="-4.738350">
        <ele>1634.0</ele>
        <time>2013-07-02T13:25:49Z</time>
      </trkpt>
      <trkpt lat="40.242600" lon="-4.738383">
        <ele>1631.0</ele>
        <time>2013-07-02T13:25:50Z</time>
      </trkpt>
      <trkpt lat="40.242533" lon="-4.738417">
        <ele>1627.0</ele>
        <time>2013-07-02T13:25:51Z</time>
      </trkpt>
      <trkpt lat="40.242483" lon="-4.738450">
        <ele>1624.0</ele>
        <time>2013-07-02T13:25:52Z</time>
      </trkpt>
      <trkpt lat="40.242417" lon="-4.738483">
        <ele>1621.0</ele>
        <time>2013-07-02T13:25:53Z</time>
      </trkpt>
      <trkpt lat="40.242367" lon="-4.738533">
        <ele>1619.0</ele>
        <time>2013-07-02T13:25:54Z</time>
      </trkpt>
      <trkpt lat="40.242300" lon="-4.738567">
        <ele>1617.0</ele>
        <time>2013-07-02T13:25:55Z</time>
      </trkpt>
      <trkpt lat="40.242250" lon="-4.738600">
        <ele>1616.0</ele>
        <time>2013-07-02T13:25:56Z</time>
      </trkpt>
      <trkpt lat="40.242200" lon="-4.738633">
        <ele>1614.0</ele>
        <time>2013-07-02T13:25:57Z</time>
      </trkpt>
      <trkpt lat="40.242150" lon="-4.738667">
        <ele>1612.0</ele>
        <time>2013-07-02T13:25:58Z</time>
      </trkpt>
      <trkpt lat="40.242117" lon="-4.738717">
        <ele>1611.0</ele>
        <time>2013-07-02T13:25:59Z</time>
      </trkpt>
      <trkpt lat="40.242067" lon="-4.738783">
        <ele>1609.0</ele>
        <time>2013-07-02T13:26:00Z</time>
      </trkpt>
      <trkpt lat="40.242033" lon="-4.738850">
        <ele>1608.0</ele>
        <time>2013-07-02T13:26:01Z</time>
      </trkpt>
      <trkpt lat="40.241983" lon="-4.738900">
        <ele>1606.0</ele>
        <time>2013-07-02T13:26:02Z</time>
      </trkpt>
      <trkpt lat="40.241950" lon="-4.738950">
        <ele>1605.0</ele>
        <time>2013-07-02T13:26:03Z</time>
      </trkpt>
      <trkpt lat="40.241917" lon="-4.739000">
        <ele>1604.0</ele>
        <time>2013-07-02T13:26:04Z</time>
      </trkpt>
      <trkpt lat="40.241883" lon="-4.739050">
        <ele>1603.0</ele>
        <time>2013-07-02T13:26:05Z</time>
      </trkpt>
      <trkpt lat="40.241867" lon="-4.739117">
        <ele>1602.0</ele>
        <time>2013-07-02T13:26:06Z</time>
      </trkpt>
      <trkpt lat="40.241833" lon="-4.739183">
        <ele>1600.0</ele>
        <time>2013-07-02T13:26:07Z</time>
      </trkpt>
      <trkpt lat="40.241817" lon="-4.739250">
        <ele>1599.0</ele>
        <time>2013-07-02T13:26:08Z</time>
      </trkpt>
      <trkpt lat="40.241800" lon="-4.739333">
        <ele>1599.0</ele>
        <time>2013-07-02T13:26:09Z</time>
      </trkpt>
      <trkpt lat="40.241783" lon="-4.739400">
        <ele>1597.0</ele>
        <time>2013-07-02T13:26:10Z</time>
      </trkpt>
      <trkpt lat="40.241750" lon="-4.739467">
        <ele>1596.0</ele>
        <time>2013-07-02T13:26:11Z</time>
      </trkpt>
      <trkpt lat="40.241717" lon="-4.739533">
        <ele>1594.0</ele>
        <time>2013-07-02T13:26:12Z</time>
      </trkpt>
      <trkpt lat="40.241683" lon="-4.739600">
        <ele>1592.0</ele>
        <time>2013-07-02T13:26:13Z</time>
      </trkpt>
      <trkpt lat="40.241650" lon="-4.739650">
        <ele>1590.0</ele>
        <time>2013-07-02T13:26:14Z</time>
      </trkpt>
      <trkpt lat="40.241600" lon="-4.739700">
        <ele>1588.0</ele>
        <time>2013-07-02T13:26:15Z</time>
      </trkpt>
      <trkpt lat="40.241550" lon="-4.739733">
        <ele>1588.0</ele>
        <time>2013-07-02T13:26:16Z</time>
      </trkpt>
      <trkpt lat="40.241500" lon="-4.739767">
        <ele>1587.0</ele>
        <time>2013-07-02T13:26:17Z</time>
      </trkpt>
      <trkpt lat="40.241450" lon="-4.739800">
        <ele>1585.0</ele>
        <time>2013-07-02T13:26:18Z</time>
      </trkpt>
      <trkpt lat="40.241400" lon="-4.739817">
        <ele>1583.0</ele>
        <time>2013-07-02T13:26:19Z</time>
      </trkpt>
      <trkpt lat="40.241333" lon="-4.739850">
        <ele>1582.0</ele>
        <time>2013-07-02T13:26:20Z</time>
      </trkpt>
      <trkpt lat="40.241283" lon="-4.739900">
        <ele>1580.0</ele>
        <time>2013-07-02T13:26:21Z</time>
      </trkpt>
      <trkpt lat="40.241217" lon="-4.739933">
        <ele>1580.0</ele>
        <time>2013-07-02T13:26:22Z</time>
      </trkpt>
      <trkpt lat="40.241150" lon="-4.739983">
        <ele>1579.0</ele>
        <time>2013-07-02T13:26:23Z</time>
      </trkpt>
      <trkpt lat="40.241083" lon="-4.740017">
        <ele>1579.0</ele>
        <time>2013-07-02T13:26:24Z</time>
      </trkpt>
      <trkpt lat="40.241033" lon="-4.740033">
        <ele>1579.0</ele>
        <time>2013-07-02T13:26:25Z</time>
      </trkpt>
      <trkpt lat="40.240983" lon="-4.740067">
        <ele>1579.0</ele>
        <time>2013-07-02T13:26:26Z</time>
      </trkpt>
      <trkpt lat="40.240933" lon="-4.740100">
        <ele>1578.0</ele>
        <time>2013-07-02T13:26:27Z</time>
      </trkpt>
      <trkpt lat="40.240883" lon="-4.740117">
        <ele>1576.0</ele>
        <time>2013-07-02T13:26:28Z</time>
      </trkpt>
      <trkpt lat="40.240817" lon="-4.740150">
        <ele>1575.0</ele>
        <time>2013-07-02T13:26:29Z</time>
      </trkpt>
      <trkpt lat="40.240767" lon="-4.740167">
        <ele>1574.0</ele>
        <time>2013-07-02T13:26:30Z</time>
      </trkpt>
      <trkpt lat="40.240700" lon="-4.740200">
        <ele>1573.0</ele>
        <time>2013-07-02T13:26:31Z</time>
      </trkpt>
      <trkpt lat="40.240650" lon="-4.740250">
        <ele>1572.0</ele>
        <time>2013-07-02T13:26:32Z</time>
      </trkpt>
      <trkpt lat="40.240583" lon="-4.740300">
        <ele>1571.0</ele>
        <time>2013-07-02T13:26:33Z</time>
      </trkpt>
      <trkpt lat="40.240533" lon="-4.740333">
        <ele>1570.0</ele>
        <time>2013-07-02T13:26:34Z</time>
      </trkpt>
      <trkpt lat="40.240467" lon="-4.740383">
        <ele>1569.0</ele>
        <time>2013-07-02T13:26:35Z</time>
      </trkpt>
      <trkpt lat="40.240417" lon="-4.740400">
        <ele>1569.0</ele>
        <time>2013-07-02T13:26:36Z</time>
      </trkpt>
      <trkpt lat="40.240350" lon="-4.740417">
        <ele>1567.0</ele>
        <time>2013-07-02T13:26:37Z</time>
      </trkpt>
      <trkpt lat="40.240283" lon="-4.740433">
        <ele>1566.0</ele>
        <time>2013-07-02T13:26:38Z</time>
      </trkpt>
      <trkpt lat="40.240217" lon="-4.740450">
        <ele>1565.0</ele>
        <time>2013-07-02T13:26:39Z</time>
      </trkpt>
      <trkpt lat="40.240133" lon="-4.740483">
        <ele>1563.0</ele>
        <time>2013-07-02T13:26:40Z</time>
      </trkpt>
      <trkpt lat="40.240067" lon="-4.740517">
        <ele>1563.0</ele>
        <time>2013-07-02T13:26:41Z</time>
      </trkpt>
      <trkpt lat="40.240000" lon="-4.740533">
        <ele>1562.0</ele>
        <time>2013-07-02T13:26:42Z</time>
      </trkpt>
      <trkpt lat="40.239933" lon="-4.740567">
        <ele>1562.0</ele>
        <time>2013-07-02T13:26:43Z</time>
      </trkpt>
      <trkpt lat="40.239867" lon="-4.740567">
        <ele>1562.0</ele>
        <time>2013-07-02T13:26:44Z</time>
      </trkpt>
      <trkpt lat="40.239817" lon="-4.740583">
        <ele>1561.0</ele>
        <time>2013-07-02T13:26:45Z</time>
      </trkpt>
      <trkpt lat="40.239750" lon="-4.740600">
        <ele>1561.0</ele>
        <time>2013-07-02T13:26:46Z</time>
      </trkpt>
      <trkpt lat="40.239700" lon="-4.740617">
        <ele>1561.0</ele>
        <time>2013-07-02T13:26:47Z</time>
      </trkpt>
      <trkpt lat="40.239650" lon="-4.740650">
        <ele>1561.0</ele>
        <time>2013-07-02T13:26:48Z</time>
      </trkpt>
      <trkpt lat="40.239600" lon="-4.740683">
        <ele>1561.0</ele>
        <time>2013-07-02T13:26:49Z</time>
      </trkpt>
      <trkpt lat="40.239550" lon="-4.740717">
        <ele>1561.0</ele>
        <time>2013-07-02T13:26:50Z</time>
      </trkpt>
      <trkpt lat="40.239500" lon="-4.740733">
        <ele>1562.0</ele>
        <time>2013-07-02T13:26:51Z</time>
      </trkpt>
      <trkpt lat="40.239467" lon="-4.740733">
        <ele>1562.0</ele>
        <time>2013-07-02T13:26:52Z</time>
      </trkpt>
      <trkpt lat="40.239417" lon="-4.740733">
        <ele>1562.0</ele>
        <time>2013-07-02T13:26:53Z</time>
      </trkpt>
      <trkpt lat="40.239367" lon="-4.740733">
        <ele>1562.0</ele>
        <time>2013-07-02T13:26:54Z</time>
      </trkpt>
      <trkpt lat="40.239333" lon="-4.740717">
        <ele>1563.0</ele>
        <time>2013-07-02T13:26:55Z</time>
      </trkpt>
      <trkpt lat="40.239300" lon="-4.740717">
        <ele>1563.0</ele>
        <time>2013-07-02T13:26:56Z</time>
      </trkpt>
      <trkpt lat="40.239267" lon="-4.740700">
        <ele>1563.0</ele>
        <time>2013-07-02T13:26:57Z</time>
      </trkpt>
      <trkpt lat="40.239233" lon="-4.740683">
        <ele>1564.0</ele>
        <time>2013-07-02T13:26:58Z</time>
      </trkpt>
      <trkpt lat="40.239200" lon="-4.740683">
        <ele>1564.0</ele>
        <time>2013-07-02T13:26:59Z</time>
      </trkpt>
      <trkpt lat="40.239167" lon="-4.740667">
        <ele>1564.0</ele>
        <time>2013-07-02T13:27:00Z</time>
      </trkpt>
      <trkpt lat="40.239133" lon="-4.740633">
        <ele>1565.0</ele>
        <time>2013-07-02T13:27:01Z</time>
      </trkpt>
      <trkpt lat="40.239100" lon="-4.740617">
        <ele>1565.0</ele>
        <time>2013-07-02T13:27:02Z</time>
      </trkpt>
      <trkpt lat="40.239067" lon="-4.740600">
        <ele>1565.0</ele>
        <time>2013-07-02T13:27:03Z</time>
      </trkpt>
      <trkpt lat="40.239033" lon="-4.740600">
        <ele>1564.0</ele>
        <time>2013-07-02T13:27:04Z</time>
      </trkpt>
      <trkpt lat="40.238967" lon="-4.740583">
        <ele>1563.0</ele>
        <time>2013-07-02T13:27:05Z</time>
      </trkpt>
      <trkpt lat="40.238917" lon="-4.740600">
        <ele>1562.0</ele>
        <time>2013-07-02T13:27:06Z</time>
      </trkpt>
      <trkpt lat="40.238850" lon="-4.740600">
        <ele>1561.0</ele>
        <time>2013-07-02T13:27:07Z</time>
      </trkpt>
      <trkpt lat="40.238783" lon="-4.740617">
        <ele>1562.0</ele>
        <time>2013-07-02T13:27:08Z</time>
      </trkpt>
      <trkpt lat="40.238733" lon="-4.740617">
        <ele>1562.0</ele>
        <time>2013-07-02T13:27:09Z</time>
      </trkpt>
      <trkpt lat="40.238667" lon="-4.740617">
        <ele>1562.0</ele>
        <time>2013-07-02T13:27:10Z</time>
      </trkpt>
      <trkpt lat="40.238617" lon="-4.740617">
        <ele>1562.0</ele>
        <time>2013-07-02T13:27:11Z</time>
      </trkpt>
      <trkpt lat="40.238550" lon="-4.740617">
        <ele>1561.0</ele>
        <time>2013-07-02T13:27:12Z</time>
      </trkpt>
      <trkpt lat="40.238500" lon="-4.740650">
        <ele>1560.0</ele>
        <time>2013-07-02T13:27:13Z</time>
      </trkpt>
      <trkpt lat="40.238467" lon="-4.740700">
        <ele>1559.0</ele>
        <time>2013-07-02T13:27:14Z</time>
      </trkpt>
      <trkpt lat="40.238450" lon="-4.740750">
        <ele>1559.0</ele>
        <time>2013-07-02T13:27:15Z</time>
      </trkpt>
      <trkpt lat="40.238417" lon="-4.740800">
        <ele>1558.0</ele>
        <time>2013-07-02T13:27:16Z</time>
      </trkpt>
      <trkpt lat="40.238383" lon="-4.740850">
        <ele>1558.0</ele>
        <time>2013-07-02T13:27:17Z</time>
      </trkpt>
      <trkpt lat="40.238367" lon="-4.740900">
        <ele>1557.0</ele>
        <time>2013-07-02T13:27:18Z</time>
      </trkpt>
      <trkpt lat="40.238350" lon="-4.740967">
        <ele>1556.0</ele>
        <time>2013-07-02T13:27:19Z</time>
      </trkpt>
      <trkpt lat="40.238350" lon="-4.741033">
        <ele>1554.0</ele>
        <time>2013-07-02T13:27:20Z</time>
      </trkpt>
      <trkpt lat="40.238317" lon="-4.741100">
        <ele>1553.0</ele>
        <time>2013-07-02T13:27:21Z</time>
      </trkpt>
      <trkpt lat="40.238267" lon="-4.741150">
        <ele>1551.0</ele>
        <time>2013-07-02T13:27:22Z</time>
      </trkpt>
      <trkpt lat="40.238217" lon="-4.741200">
        <ele>1550.0</ele>
        <time>2013-07-02T13:27:23Z</time>
      </trkpt>
      <trkpt lat="40.238167" lon="-4.741233">
        <ele>1548.0</ele>
        <time>2013-07-02T13:27:24Z</time>
      </trkpt>
      <trkpt lat="40.238117" lon="-4.741267">
        <ele>1546.0</ele>
        <time>2013-07-02T13:27:25Z</time>
      </trkpt>
      <trkpt lat="40.238050" lon="-4.741283">
        <ele>1545.0</ele>
        <time>2013-07-02T13:27:26Z</time>
      </trkpt>
      <trkpt lat="40.237983" lon="-4.741300">
        <ele>1542.0</ele>
        <time>2013-07-02T13:27:27Z</time>
      </trkpt>
      <trkpt lat="40.237917" lon="-4.741300">
        <ele>1539.0</ele>
        <time>2013-07-02T13:27:28Z</time>
      </trkpt>
      <trkpt lat="40.237833" lon="-4.741300">
        <ele>1538.0</ele>
        <time>2013-07-02T13:27:29Z</time>
      </trkpt>
      <trkpt lat="40.237767" lon="-4.741317">
        <ele>1537.0</ele>
        <time>2013-07-02T13:27:30Z</time>
      </trkpt>
      <trkpt lat="40.237700" lon="-4.741333">
        <ele>1537.0</ele>
        <time>2013-07-02T13:27:31Z</time>
      </trkpt>
      <trkpt lat="40.237633" lon="-4.741333">
        <ele>1536.0</ele>
        <time>2013-07-02T13:27:32Z</time>
      </trkpt>
      <trkpt lat="40.237567" lon="-4.741333">
        <ele>1536.0</ele>
        <time>2013-07-02T13:27:33Z</time>
      </trkpt>
      <trkpt lat="40.237517" lon="-4.741333">
        <ele>1535.0</ele>
        <time>2013-07-02T13:27:34Z</time>
      </trkpt>
      <trkpt lat="40.237450" lon="-4.741350">
        <ele>1534.0</ele>
        <time>2013-07-02T13:27:35Z</time>
      </trkpt>
      <trkpt lat="40.237383" lon="-4.741367">
        <ele>1533.0</ele>
        <time>2013-07-02T13:27:36Z</time>
      </trkpt>
      <trkpt lat="40.237317" lon="-4.741400">
        <ele>1533.0</ele>
        <time>2013-07-02T13:27:37Z</time>
      </trkpt>
      <trkpt lat="40.237250" lon="-4.741417">
        <ele>1533.0</ele>
        <time>2013-07-02T13:27:38Z</time>
      </trkpt>
      <trkpt lat="40.237200" lon="-4.741433">
        <ele>1533.0</ele>
        <time>2013-07-02T13:27:39Z</time>
      </trkpt>
      <trkpt lat="40.237133" lon="-4.741450">
        <ele>1532.0</ele>
        <time>2013-07-02T13:27:40Z</time>
      </trkpt>
      <trkpt lat="40.237067" lon="-4.741467">
        <ele>1531.0</ele>
        <time>2013-07-02T13:27:41Z</time>
      </trkpt>
      <trkpt lat="40.237000" lon="-4.741483">
        <ele>1530.0</ele>
        <time>2013-07-02T13:27:42Z</time>
      </trkpt>
      <trkpt lat="40.236933" lon="-4.741517">
        <ele>1530.0</ele>
        <time>2013-07-02T13:27:43Z</time>
      </trkpt>
      <trkpt lat="40.236867" lon="-4.741550">
        <ele>1531.0</ele>
        <time>2013-07-02T13:27:44Z</time>
      </trkpt>
      <trkpt lat="40.236817" lon="-4.741583">
        <ele>1531.0</ele>
        <time>2013-07-02T13:27:45Z</time>
      </trkpt>
      <trkpt lat="40.236767" lon="-4.741617">
        <ele>1531.0</ele>
        <time>2013-07-02T13:27:46Z</time>
      </trkpt>
      <trkpt lat="40.236717" lon="-4.741650">
        <ele>1531.0</ele>
        <time>2013-07-02T13:27:47Z</time>
      </trkpt>
      <trkpt lat="40.236667" lon="-4.741700">
        <ele>1531.0</ele>
        <time>2013-07-02T13:27:48Z</time>
      </trkpt>
      <trkpt lat="40.236617" lon="-4.741750">
        <ele>1532.0</ele>
        <time>2013-07-02T13:27:49Z</time>
      </trkpt>
      <trkpt lat="40.236567" lon="-4.741783">
        <ele>1532.0</ele>
        <time>2013-07-02T13:27:50Z</time>
      </trkpt>
      <trkpt lat="40.236533" lon="-4.741833">
        <ele>1533.0</ele>
        <time>2013-07-02T13:27:51Z</time>
      </trkpt>
      <trkpt lat="40.236500" lon="-4.741883">
        <ele>1534.0</ele>
        <time>2013-07-02T13:27:52Z</time>
      </trkpt>
      <trkpt lat="40.236483" lon="-4.741900">
        <ele>1534.0</ele>
        <time>2013-07-02T13:27:53Z</time>
      </trkpt>
      <trkpt lat="40.236467" lon="-4.741917">
        <ele>1534.0</ele>
        <time>2013-07-02T13:27:54Z</time>
      </trkpt>
      <trkpt lat="40.236450" lon="-4.741950">
        <ele>1534.0</ele>
        <time>2013-07-02T13:27:55Z</time>
      </trkpt>
      <trkpt lat="40.236417" lon="-4.741967">
        <ele>1534.0</ele>
        <time>2013-07-02T13:27:56Z</time>
      </trkpt>
      <trkpt lat="40.236383" lon="-4.742000">
        <ele>1534.0</ele>
        <time>2013-07-02T13:27:57Z</time>
      </trkpt>
      <trkpt lat="40.236367" lon="-4.742050">
        <ele>1534.0</ele>
        <time>2013-07-02T13:27:58Z</time>
      </trkpt>
      <trkpt lat="40.236333" lon="-4.742100">
        <ele>1533.0</ele>
        <time>2013-07-02T13:27:59Z</time>
      </trkpt>
      <trkpt lat="40.236300" lon="-4.742167">
        <ele>1532.0</ele>
        <time>2013-07-02T13:28:00Z</time>
      </trkpt>
      <trkpt lat="40.236267" lon="-4.742217">
        <ele>1531.0</ele>
        <time>2013-07-02T13:28:01Z</time>
      </trkpt>
      <trkpt lat="40.236233" lon="-4.742267">
        <ele>1530.0</ele>
        <time>2013-07-02T13:28:02Z</time>
      </trkpt>
      <trkpt lat="40.236200" lon="-4.742317">
        <ele>1531.0</ele>
        <time>2013-07-02T13:28:03Z</time>
      </trkpt>
      <trkpt lat="40.236167" lon="-4.742367">
        <ele>1529.0</ele>
        <time>2013-07-02T13:28:04Z</time>
      </trkpt>
      <trkpt lat="40.236133" lon="-4.742417">
        <ele>1527.0</ele>
        <time>2013-07-02T13:28:05Z</time>
      </trkpt>
      <trkpt lat="40.236067" lon="-4.742483">
        <ele>1525.0</ele>
        <time>2013-07-02T13:28:06Z</time>
      </trkpt>
      <trkpt lat="40.236000" lon="-4.742550">
        <ele>1523.0</ele>
        <time>2013-07-02T13:28:07Z</time>
      </trkpt>
      <trkpt lat="40.235933" lon="-4.742583">
        <ele>1522.0</ele>
        <time>2013-07-02T13:28:08Z</time>
      </trkpt>
      <trkpt lat="40.235900" lon="-4.742617">
        <ele>1521.0</ele>
        <time>2013-07-02T13:28:09Z</time>
      </trkpt>
      <trkpt lat="40.235867" lon="-4.742667">
        <ele>1520.0</ele>
        <time>2013-07-02T13:28:10Z</time>
      </trkpt>
      <trkpt lat="40.235850" lon="-4.742733">
        <ele>1517.0</ele>
        <time>2013-07-02T13:28:11Z</time>
      </trkpt>
      <trkpt lat="40.235817" lon="-4.742800">
        <ele>1513.0</ele>
        <time>2013-07-02T13:28:12Z</time>
      </trkpt>
      <trkpt lat="40.235783" lon="-4.742850">
        <ele>1509.0</ele>
        <time>2013-07-02T13:28:13Z</time>
      </trkpt>
      <trkpt lat="40.235717" lon="-4.742917">
        <ele>1505.0</ele>
        <time>2013-07-02T13:28:14Z</time>
      </trkpt>
      <trkpt lat="40.235667" lon="-4.742983">
        <ele>1505.0</ele>
        <time>2013-07-02T13:28:15Z</time>
      </trkpt>
      <trkpt lat="40.235633" lon="-4.743050">
        <ele>1503.0</ele>
        <time>2013-07-02T13:28:16Z</time>
      </trkpt>
      <trkpt lat="40.235600" lon="-4.743100">
        <ele>1501.0</ele>
        <time>2013-07-02T13:28:17Z</time>
      </trkpt>
      <trkpt lat="40.235567" lon="-4.743150">
        <ele>1500.0</ele>
        <time>2013-07-02T13:28:18Z</time>
      </trkpt>
      <trkpt lat="40.235533" lon="-4.743217">
        <ele>1498.0</ele>
        <time>2013-07-02T13:28:19Z</time>
      </trkpt>
      <trkpt lat="40.235483" lon="-4.743283">
        <ele>1494.0</ele>
        <time>2013-07-02T13:28:20Z</time>
      </trkpt>
      <trkpt lat="40.235433" lon="-4.743350">
        <ele>1490.0</ele>
        <time>2013-07-02T13:28:21Z</time>
      </trkpt>
      <trkpt lat="40.235383" lon="-4.743433">
        <ele>1488.0</ele>
        <time>2013-07-02T13:28:22Z</time>
      </trkpt>
      <trkpt lat="40.235350" lon="-4.743517">
        <ele>1487.0</ele>
        <time>2013-07-02T13:28:23Z</time>
      </trkpt>
      <trkpt lat="40.235300" lon="-4.743567">
        <ele>1485.0</ele>
        <time>2013-07-02T13:28:24Z</time>
      </trkpt>
      <trkpt lat="40.235250" lon="-4.743617">
        <ele>1483.0</ele>
        <time>2013-07-02T13:28:25Z</time>
      </trkpt>
      <trkpt lat="40.235200" lon="-4.743667">
        <ele>1480.0</ele>
        <time>2013-07-02T13:28:26Z</time>
      </trkpt>
      <trkpt lat="40.235150" lon="-4.743750">
        <ele>1477.0</ele>
        <time>2013-07-02T13:28:27Z</time>
      </trkpt>
      <trkpt lat="40.235100" lon="-4.743817">
        <ele>1475.0</ele>
        <time>2013-07-02T13:28:28Z</time>
      </trkpt>
      <trkpt lat="40.235050" lon="-4.743900">
        <ele>1475.0</ele>
        <time>2013-07-02T13:28:29Z</time>
      </trkpt>
      <trkpt lat="40.234983" lon="-4.743950">
        <ele>1473.0</ele>
        <time>2013-07-02T13:28:30Z</time>
      </trkpt>
      <trkpt lat="40.234933" lon="-4.744000">
        <ele>1472.0</ele>
        <time>2013-07-02T13:28:31Z</time>
      </trkpt>
      <trkpt lat="40.234883" lon="-4.744050">
        <ele>1470.0</ele>
        <time>2013-07-02T13:28:32Z</time>
      </trkpt>
      <trkpt lat="40.234833" lon="-4.744117">
        <ele>1468.0</ele>
        <time>2013-07-02T13:28:33Z</time>
      </trkpt>
      <trkpt lat="40.234800" lon="-4.744167">
        <ele>1466.0</ele>
        <time>2013-07-02T13:28:34Z</time>
      </trkpt>
      <trkpt lat="40.234750" lon="-4.744233">
        <ele>1464.0</ele>
        <time>2013-07-02T13:28:35Z</time>
      </trkpt>
      <trkpt lat="40.234700" lon="-4.744283">
        <ele>1462.0</ele>
        <time>2013-07-02T13:28:36Z</time>
      </trkpt>
      <trkpt lat="40.234667" lon="-4.744333">
        <ele>1461.0</ele>
        <time>2013-07-02T13:28:37Z</time>
      </trkpt>
      <trkpt lat="40.234617" lon="-4.744367">
        <ele>1460.0</ele>
        <time>2013-07-02T13:28:38Z</time>
      </trkpt>
      <trkpt lat="40.234567" lon="-4.744417">
        <ele>1459.0</ele>
        <time>2013-07-02T13:28:39Z</time>
      </trkpt>
      <trkpt lat="40.234533" lon="-4.744433">
        <ele>1458.0</ele>
        <time>2013-07-02T13:28:40Z</time>
      </trkpt>
      <trkpt lat="40.234483" lon="-4.744450">
        <ele>1457.0</ele>
        <time>2013-07-02T13:28:41Z</time>
      </trkpt>
      <trkpt lat="40.234433" lon="-4.744467">
        <ele>1454.0</ele>
        <time>2013-07-02T13:28:42Z</time>
      </trkpt>
      <trkpt lat="40.234400" lon="-4.744500">
        <ele>1452.0</ele>
        <time>2013-07-02T13:28:43Z</time>
      </trkpt>
      <trkpt lat="40.234350" lon="-4.744533">
        <ele>1448.0</ele>
        <time>2013-07-02T13:28:44Z</time>
      </trkpt>
      <trkpt lat="40.234300" lon="-4.744567">
        <ele>1448.0</ele>
        <time>2013-07-02T13:28:45Z</time>
      </trkpt>
      <trkpt lat="40.234267" lon="-4.744600">
        <ele>1447.0</ele>
        <time>2013-07-02T13:28:46Z</time>
      </trkpt>
      <trkpt lat="40.234217" lon="-4.744633">
        <ele>1444.0</ele>
        <time>2013-07-02T13:28:47Z</time>
      </trkpt>
      <trkpt lat="40.234183" lon="-4.744683">
        <ele>1441.0</ele>
        <time>2013-07-02T13:28:48Z</time>
      </trkpt>
      <trkpt lat="40.234150" lon="-4.744733">
        <ele>1438.0</ele>
        <time>2013-07-02T13:28:49Z</time>
      </trkpt>
      <trkpt lat="40.234100" lon="-4.744783">
        <ele>1435.0</ele>
        <time>2013-07-02T13:28:50Z</time>
      </trkpt>
      <trkpt lat="40.234050" lon="-4.744833">
        <ele>1433.0</ele>
        <time>2013-07-02T13:28:51Z</time>
      </trkpt>
      <trkpt lat="40.234000" lon="-4.744883">
        <ele>1431.0</ele>
        <time>2013-07-02T13:28:52Z</time>
      </trkpt>
      <trkpt lat="40.233950" lon="-4.744900">
        <ele>1428.0</ele>
        <time>2013-07-02T13:28:53Z</time>
      </trkpt>
      <trkpt lat="40.233900" lon="-4.744933">
        <ele>1426.0</ele>
        <time>2013-07-02T13:28:54Z</time>
      </trkpt>
      <trkpt lat="40.233850" lon="-4.744967">
        <ele>1424.0</ele>
        <time>2013-07-02T13:28:55Z</time>
      </trkpt>
      <trkpt lat="40.233783" lon="-4.745000">
        <ele>1422.0</ele>
        <time>2013-07-02T13:28:56Z</time>
      </trkpt>
      <trkpt lat="40.233733" lon="-4.745017">
        <ele>1420.0</ele>
        <time>2013-07-02T13:28:57Z</time>
      </trkpt>
      <trkpt lat="40.233667" lon="-4.745067">
        <ele>1418.0</ele>
        <time>2013-07-02T13:28:58Z</time>
      </trkpt>
      <trkpt lat="40.233617" lon="-4.745100">
        <ele>1417.0</ele>
        <time>2013-07-02T13:28:59Z</time>
      </trkpt>
      <trkpt lat="40.233567" lon="-4.745133">
        <ele>1416.0</ele>
        <time>2013-07-02T13:29:00Z</time>
      </trkpt>
      <trkpt lat="40.233517" lon="-4.745167">
        <ele>1414.0</ele>
        <time>2013-07-02T13:29:01Z</time>
      </trkpt>
      <trkpt lat="40.233467" lon="-4.745200">
        <ele>1412.0</ele>
        <time>2013-07-02T13:29:02Z</time>
      </trkpt>
      <trkpt lat="40.233433" lon="-4.745250">
        <ele>1409.0</ele>
        <time>2013-07-02T13:29:03Z</time>
      </trkpt>
      <trkpt lat="40.233383" lon="-4.745317">
        <ele>1406.0</ele>
        <time>2013-07-02T13:29:04Z</time>
      </trkpt>
      <trkpt lat="40.233333" lon="-4.745367">
        <ele>1404.0</ele>
        <time>2013-07-02T13:29:05Z</time>
      </trkpt>
      <trkpt lat="40.233267" lon="-4.745417">
        <ele>1402.0</ele>
        <time>2013-07-02T13:29:06Z</time>
      </trkpt>
      <trkpt lat="40.233200" lon="-4.745433">
        <ele>1399.0</ele>
        <time>2013-07-02T13:29:07Z</time>
      </trkpt>
      <trkpt lat="40.233150" lon="-4.745467">
        <ele>1398.0</ele>
        <time>2013-07-02T13:29:08Z</time>
      </trkpt>
      <trkpt lat="40.233100" lon="-4.745483">
        <ele>1397.0</ele>
        <time>2013-07-02T13:29:09Z</time>
      </trkpt>
      <trkpt lat="40.233033" lon="-4.745517">
        <ele>1395.0</ele>
        <time>2013-07-02T13:29:10Z</time>
      </trkpt>
      <trkpt lat="40.232983" lon="-4.745533">
        <ele>1393.0</ele>
        <time>2013-07-02T13:29:11Z</time>
      </trkpt>
      <trkpt lat="40.232933" lon="-4.745550">
        <ele>1393.0</ele>
        <time>2013-07-02T13:29:12Z</time>
      </trkpt>
      <trkpt lat="40.232883" lon="-4.745567">
        <ele>1392.0</ele>
        <time>2013-07-02T13:29:13Z</time>
      </trkpt>
      <trkpt lat="40.232850" lon="-4.745600">
        <ele>1390.0</ele>
        <time>2013-07-02T13:29:14Z</time>
      </trkpt>
      <trkpt lat="40.232817" lon="-4.745617">
        <ele>1388.0</ele>
        <time>2013-07-02T13:29:15Z</time>
      </trkpt>
      <trkpt lat="40.232800" lon="-4.745650">
        <ele>1385.0</ele>
        <time>2013-07-02T13:29:16Z</time>
      </trkpt>
      <trkpt lat="40.232767" lon="-4.745667">
        <ele>1381.0</ele>
        <time>2013-07-02T13:29:17Z</time>
      </trkpt>
      <trkpt lat="40.232733" lon="-4.745717">
        <ele>1378.0</ele>
        <time>2013-07-02T13:29:18Z</time>
      </trkpt>
      <trkpt lat="40.232700" lon="-4.745767">
        <ele>1375.0</ele>
        <time>2013-07-02T13:29:19Z</time>
      </trkpt>
      <trkpt lat="40.232650" lon="-4.745833">
        <ele>1373.0</ele>
        <time>2013-07-02T13:29:20Z</time>
      </trkpt>
      <trkpt lat="40.232617" lon="-4.745900">
        <ele>1373.0</ele>
        <time>2013-07-02T13:29:21Z</time>
      </trkpt>
      <trkpt lat="40.232600" lon="-4.745950">
        <ele>1374.0</ele>
        <time>2013-07-02T13:29:22Z</time>
      </trkpt>
      <trkpt lat="40.232600" lon="-4.745967">
        <ele>1374.0</ele>
        <time>2013-07-02T13:29:23Z</time>
      </trkpt>
      <trkpt lat="40.232583" lon="-4.746000">
        <ele>1374.0</ele>
        <time>2013-07-02T13:29:24Z</time>
      </trkpt>
      <trkpt lat="40.232567" lon="-4.746017">
        <ele>1372.0</ele>
        <time>2013-07-02T13:29:25Z</time>
      </trkpt>
      <trkpt lat="40.232533" lon="-4.746050">
        <ele>1370.0</ele>
        <time>2013-07-02T13:29:26Z</time>
      </trkpt>
      <trkpt lat="40.232483" lon="-4.746083">
        <ele>1369.0</ele>
        <time>2013-07-02T13:29:27Z</time>
      </trkpt>
      <trkpt lat="40.232450" lon="-4.746100">
        <ele>1367.0</ele>
        <time>2013-07-02T13:29:28Z</time>
      </trkpt>
      <trkpt lat="40.232400" lon="-4.746117">
        <ele>1366.0</ele>
        <time>2013-07-02T13:29:29Z</time>
      </trkpt>
      <trkpt lat="40.232350" lon="-4.746117">
        <ele>1364.0</ele>
        <time>2013-07-02T13:29:30Z</time>
      </trkpt>
      <trkpt lat="40.232317" lon="-4.746117">
        <ele>1362.0</ele>
        <time>2013-07-02T13:29:31Z</time>
      </trkpt>
      <trkpt lat="40.232283" lon="-4.746117">
        <ele>1357.0</ele>
        <time>2013-07-02T13:29:32Z</time>
      </trkpt>
      <trkpt lat="40.232217" lon="-4.746150">
        <ele>1354.0</ele>
        <time>2013-07-02T13:29:33Z</time>
      </trkpt>
      <trkpt lat="40.232150" lon="-4.746200">
        <ele>1351.0</ele>
        <time>2013-07-02T13:29:34Z</time>
      </trkpt>
      <trkpt lat="40.232083" lon="-4.746250">
        <ele>1349.0</ele>
        <time>2013-07-02T13:29:35Z</time>
      </trkpt>
      <trkpt lat="40.232017" lon="-4.746283">
        <ele>1348.0</ele>
        <time>2013-07-02T13:29:36Z</time>
      </trkpt>
      <trkpt lat="40.231967" lon="-4.746333">
        <ele>1350.0</ele>
        <time>2013-07-02T13:29:37Z</time>
      </trkpt>
      <trkpt lat="40.231917" lon="-4.746367">
        <ele>1352.0</ele>
        <time>2013-07-02T13:29:38Z</time>
      </trkpt>
      <trkpt lat="40.231883" lon="-4.746400">
        <ele>1353.0</ele>
        <time>2013-07-02T13:29:39Z</time>
      </trkpt>
      <trkpt lat="40.231850" lon="-4.746450">
        <ele>1353.0</ele>
        <time>2013-07-02T13:29:40Z</time>
      </trkpt>
      <trkpt lat="40.231817" lon="-4.746500">
        <ele>1354.0</ele>
        <time>2013-07-02T13:29:41Z</time>
      </trkpt>
      <trkpt lat="40.231767" lon="-4.746533">
        <ele>1355.0</ele>
        <time>2013-07-02T13:29:42Z</time>
      </trkpt>
      <trkpt lat="40.231733" lon="-4.746583">
        <ele>1356.0</ele>
        <time>2013-07-02T13:29:43Z</time>
      </trkpt>
      <trkpt lat="40.231700" lon="-4.746600">
        <ele>1359.0</ele>
        <time>2013-07-02T13:29:44Z</time>
      </trkpt>
      <trkpt lat="40.231683" lon="-4.746617">
        <ele>1361.0</ele>
        <time>2013-07-02T13:29:45Z</time>
      </trkpt>
      <trkpt lat="40.231650" lon="-4.746633">
        <ele>1363.0</ele>
        <time>2013-07-02T13:29:46Z</time>
      </trkpt>
      <trkpt lat="40.231633" lon="-4.746633">
        <ele>1365.0</ele>
        <time>2013-07-02T13:29:47Z</time>
      </trkpt>
      <trkpt lat="40.231600" lon="-4.746650">
        <ele>1366.0</ele>
        <time>2013-07-02T13:29:48Z</time>
      </trkpt>
      <trkpt lat="40.231583" lon="-4.746633">
        <ele>1366.0</ele>
        <time>2013-07-02T13:29:49Z</time>
      </trkpt>
      <trkpt lat="40.231550" lon="-4.746617">
        <ele>1365.0</ele>
        <time>2013-07-02T13:29:50Z</time>
      </trkpt>
      <trkpt lat="40.231517" lon="-4.746600">
        <ele>1364.0</ele>
        <time>2013-07-02T13:29:51Z</time>
      </trkpt>
      <trkpt lat="40.231467" lon="-4.746567">
        <ele>1363.0</ele>
        <time>2013-07-02T13:29:52Z</time>
      </trkpt>
      <trkpt lat="40.231417" lon="-4.746550">
        <ele>1361.0</ele>
        <time>2013-07-02T13:29:53Z</time>
      </trkpt>
      <trkpt lat="40.231350" lon="-4.746533">
        <ele>1359.0</ele>
        <time>2013-07-02T13:29:54Z</time>
      </trkpt>
      <trkpt lat="40.231283" lon="-4.746550">
        <ele>1359.0</ele>
        <time>2013-07-02T13:29:55Z</time>
      </trkpt>
      <trkpt lat="40.231217" lon="-4.746550">
        <ele>1359.0</ele>
        <time>2013-07-02T13:29:56Z</time>
      </trkpt>
      <trkpt lat="40.231167" lon="-4.746550">
        <ele>1360.0</ele>
        <time>2013-07-02T13:29:57Z</time>
      </trkpt>
      <trkpt lat="40.231117" lon="-4.746550">
        <ele>1360.0</ele>
        <time>2013-07-02T13:29:58Z</time>
      </trkpt>
      <trkpt lat="40.231067" lon="-4.746550">
        <ele>1361.0</ele>
        <time>2013-07-02T13:29:59Z</time>
      </trkpt>
      <trkpt lat="40.231033" lon="-4.746567">
        <ele>1361.0</ele>
        <time>2013-07-02T13:30:00Z</time>
      </trkpt>
      <trkpt lat="40.231000" lon="-4.746583">
        <ele>1361.0</ele>
        <time>2013-07-02T13:30:01Z</time>
      </trkpt>
      <trkpt lat="40.230967" lon="-4.746600">
        <ele>1360.0</ele>
        <time>2013-07-02T13:30:02Z</time>
      </trkpt>
      <trkpt lat="40.230917" lon="-4.746617">
        <ele>1360.0</ele>
        <time>2013-07-02T13:30:03Z</time>
      </trkpt>
      <trkpt lat="40.230883" lon="-4.746633">
        <ele>1361.0</ele>
        <time>2013-07-02T13:30:04Z</time>
      </trkpt>
      <trkpt lat="40.230850" lon="-4.746667">
        <ele>1361.0</ele>
        <time>2013-07-02T13:30:05Z</time>
      </trkpt>
      <trkpt lat="40.230800" lon="-4.746683">
        <ele>1362.0</ele>
        <time>2013-07-02T13:30:06Z</time>
      </trkpt>
      <trkpt lat="40.230767" lon="-4.746717">
        <ele>1363.0</ele>
        <time>2013-07-02T13:30:07Z</time>
      </trkpt>
      <trkpt lat="40.230717" lon="-4.746733">
        <ele>1364.0</ele>
        <time>2013-07-02T13:30:08Z</time>
      </trkpt>
      <trkpt lat="40.230667" lon="-4.746717">
        <ele>1365.0</ele>
        <time>2013-07-02T13:30:09Z</time>
      </trkpt>
      <trkpt lat="40.230617" lon="-4.746717">
        <ele>1365.0</ele>
        <time>2013-07-02T13:30:10Z</time>
      </trkpt>
      <trkpt lat="40.230567" lon="-4.746733">
        <ele>1365.0</ele>
        <time>2013-07-02T13:30:11Z</time>
      </trkpt>
      <trkpt lat="40.230517" lon="-4.746767">
        <ele>1364.0</ele>
        <time>2013-07-02T13:30:12Z</time>
      </trkpt>
      <trkpt lat="40.230467" lon="-4.746800">
        <ele>1365.0</ele>
        <time>2013-07-02T13:30:13Z</time>
      </trkpt>
      <trkpt lat="40.230417" lon="-4.746833">
        <ele>1366.0</ele>
        <time>2013-07-02T13:30:14Z</time>
      </trkpt>
      <trkpt lat="40.230383" lon="-4.746850">
        <ele>1366.0</ele>
        <time>2013-07-02T13:30:15Z</time>
      </trkpt>
      <trkpt lat="40.230350" lon="-4.746883">
        <ele>1367.0</ele>
        <time>2013-07-02T13:30:16Z</time>
      </trkpt>
      <trkpt lat="40.230317" lon="-4.746917">
        <ele>1368.0</ele>
        <time>2013-07-02T13:30:17Z</time>
      </trkpt>
      <trkpt lat="40.230283" lon="-4.746967">
        <ele>1369.0</ele>
        <time>2013-07-02T13:30:18Z</time>
      </trkpt>
      <trkpt lat="40.230267" lon="-4.746983">
        <ele>1372.0</ele>
        <time>2013-07-02T13:30:19Z</time>
      </trkpt>
      <trkpt lat="40.230267" lon="-4.746983">
        <ele>1376.0</ele>
        <time>2013-07-02T13:30:20Z</time>
      </trkpt>
      <trkpt lat="40.230267" lon="-4.746983">
        <ele>1378.0</ele>
        <time>2013-07-02T13:30:21Z</time>
      </trkpt>
      <trkpt lat="40.230250" lon="-4.746967">
        <ele>1380.0</ele>
        <time>2013-07-02T13:30:22Z</time>
      </trkpt>
      <trkpt lat="40.230250" lon="-4.746967">
        <ele>1380.0</ele>
        <time>2013-07-02T13:30:23Z</time>
      </trkpt>
      <trkpt lat="40.230233" lon="-4.747000">
        <ele>1381.0</ele>
        <time>2013-07-02T13:30:24Z</time>
      </trkpt>
      <trkpt lat="40.230250" lon="-4.747033">
        <ele>1382.0</ele>
        <time>2013-07-02T13:30:25Z</time>
      </trkpt>
      <trkpt lat="40.230267" lon="-4.747067">
        <ele>1384.0</ele>
        <time>2013-07-02T13:30:26Z</time>
      </trkpt>
      <trkpt lat="40.230283" lon="-4.747083">
        <ele>1386.0</ele>
        <time>2013-07-02T13:30:27Z</time>
      </trkpt>
      <trkpt lat="40.230300" lon="-4.747100">
        <ele>1388.0</ele>
        <time>2013-07-02T13:30:28Z</time>
      </trkpt>
      <trkpt lat="40.230283" lon="-4.747117">
        <ele>1390.0</ele>
        <time>2013-07-02T13:30:29Z</time>
      </trkpt>
      <trkpt lat="40.230283" lon="-4.747133">
        <ele>1392.0</ele>
        <time>2013-07-02T13:30:30Z</time>
      </trkpt>
      <trkpt lat="40.230283" lon="-4.747150">
        <ele>1394.0</ele>
        <time>2013-07-02T13:30:31Z</time>
      </trkpt>
      <trkpt lat="40.230283" lon="-4.747167">
        <ele>1396.0</ele>
        <time>2013-07-02T13:30:32Z</time>
      </trkpt>
      <trkpt lat="40.230267" lon="-4.747167">
        <ele>1397.0</ele>
        <time>2013-07-02T13:30:33Z</time>
      </trkpt>
      <trkpt lat="40.230233" lon="-4.747167">
        <ele>1398.0</ele>
        <time>2013-07-02T13:30:34Z</time>
      </trkpt>
      <trkpt lat="40.230183" lon="-4.747150">
        <ele>1399.0</ele>
        <time>2013-07-02T13:30:35Z</time>
      </trkpt>
      <trkpt lat="40.230150" lon="-4.747133">
        <ele>1401.0</ele>
        <time>2013-07-02T13:30:36Z</time>
      </trkpt>
      <trkpt lat="40.230100" lon="-4.747117">
        <ele>1403.0</ele>
        <time>2013-07-02T13:30:37Z</time>
      </trkpt>
      <trkpt lat="40.230067" lon="-4.747083">
        <ele>1405.0</ele>
        <time>2013-07-02T13:30:38Z</time>
      </trkpt>
      <trkpt lat="40.230033" lon="-4.747067">
        <ele>1407.0</ele>
        <time>2013-07-02T13:30:39Z</time>
      </trkpt>
      <trkpt lat="40.229983" lon="-4.747033">
        <ele>1408.0</ele>
        <time>2013-07-02T13:30:40Z</time>
      </trkpt>
      <trkpt lat="40.229933" lon="-4.746983">
        <ele>1409.0</ele>
        <time>2013-07-02T13:30:41Z</time>
      </trkpt>
      <trkpt lat="40.229867" lon="-4.746900">
        <ele>1410.0</ele>
        <time>2013-07-02T13:30:42Z</time>
      </trkpt>
      <trkpt lat="40.229817" lon="-4.746783">
        <ele>1412.0</ele>
        <time>2013-07-02T13:30:43Z</time>
      </trkpt>
      <trkpt lat="40.229783" lon="-4.746633">
        <ele>1413.0</ele>
        <time>2013-07-02T13:30:44Z</time>
      </trkpt>
      <trkpt lat="40.229767" lon="-4.746483">
        <ele>1416.0</ele>
        <time>2013-07-02T13:30:45Z</time>
      </trkpt>
      <trkpt lat="40.229767" lon="-4.746333">
        <ele>1418.0</ele>
        <time>2013-07-02T13:30:46Z</time>
      </trkpt>
      <trkpt lat="40.229767" lon="-4.746200">
        <ele>1420.0</ele>
        <time>2013-07-02T13:30:47Z</time>
      </trkpt>
      <trkpt lat="40.229800" lon="-4.746067">
        <ele>1421.0</ele>
        <time>2013-07-02T13:30:48Z</time>
      </trkpt>
      <trkpt lat="40.229833" lon="-4.745917">
        <ele>1422.0</ele>
        <time>2013-07-02T13:30:49Z</time>
      </trkpt>
      <trkpt lat="40.229883" lon="-4.745767">
        <ele>1422.0</ele>
        <time>2013-07-02T13:30:50Z</time>
      </trkpt>
      <trkpt lat="40.229950" lon="-4.745633">
        <ele>1422.0</ele>
        <time>2013-07-02T13:30:51Z</time>
      </trkpt>
      <trkpt lat="40.230017" lon="-4.745517">
        <ele>1423.0</ele>
        <time>2013-07-02T13:30:52Z</time>
      </trkpt>
      <trkpt lat="40.230083" lon="-4.745417">
        <ele>1422.0</ele>
        <time>2013-07-02T13:30:53Z</time>
      </trkpt>
      <trkpt lat="40.230150" lon="-4.745317">
        <ele>1422.0</ele>
        <time>2013-07-02T13:30:54Z</time>
      </trkpt>
      <trkpt lat="40.230217" lon="-4.745200">
        <ele>1420.0</ele>
        <time>2013-07-02T13:30:55Z</time>
      </trkpt>
      <trkpt lat="40.230300" lon="-4.745083">
        <ele>1419.0</ele>
        <time>2013-07-02T13:30:56Z</time>
      </trkpt>
      <trkpt lat="40.230400" lon="-4.744967">
        <ele>1419.0</ele>
        <time>2013-07-02T13:30:57Z</time>
      </trkpt>
      <trkpt lat="40.230483" lon="-4.744883">
        <ele>1419.0</ele>
        <time>2013-07-02T13:30:58Z</time>
      </trkpt>
      <trkpt lat="40.230583" lon="-4.744800">
        <ele>1420.0</ele>
        <time>2013-07-02T13:30:59Z</time>
      </trkpt>
      <trkpt lat="40.230667" lon="-4.744733">
        <ele>1421.0</ele>
        <time>2013-07-02T13:31:00Z</time>
      </trkpt>
      <trkpt lat="40.230767" lon="-4.744700">
        <ele>1421.0</ele>
        <time>2013-07-02T13:31:01Z</time>
      </trkpt>
      <trkpt lat="40.230850" lon="-4.744667">
        <ele>1422.0</ele>
        <time>2013-07-02T13:31:02Z</time>
      </trkpt>
      <trkpt lat="40.230950" lon="-4.744650">
        <ele>1423.0</ele>
        <time>2013-07-02T13:31:03Z</time>
      </trkpt>
      <trkpt lat="40.231017" lon="-4.744650">
        <ele>1424.0</ele>
        <time>2013-07-02T13:31:04Z</time>
      </trkpt>
      <trkpt lat="40.231083" lon="-4.744667">
        <ele>1425.0</ele>
        <time>2013-07-02T13:31:05Z</time>
      </trkpt>
      <trkpt lat="40.231150" lon="-4.744683">
        <ele>1427.0</ele>
        <time>2013-07-02T13:31:06Z</time>
      </trkpt>
      <trkpt lat="40.231183" lon="-4.744717">
        <ele>1429.0</ele>
        <time>2013-07-02T13:31:07Z</time>
      </trkpt>
      <trkpt lat="40.231217" lon="-4.744733">
        <ele>1430.0</ele>
        <time>2013-07-02T13:31:08Z</time>
      </trkpt>
      <trkpt lat="40.231233" lon="-4.744767">
        <ele>1432.0</ele>
        <time>2013-07-02T13:31:09Z</time>
      </trkpt>
      <trkpt lat="40.231233" lon="-4.744783">
        <ele>1434.0</ele>
        <time>2013-07-02T13:31:10Z</time>
      </trkpt>
      <trkpt lat="40.231217" lon="-4.744800">
        <ele>1435.0</ele>
        <time>2013-07-02T13:31:11Z</time>
      </trkpt>
      <trkpt lat="40.231217" lon="-4.744817">
        <ele>1437.0</ele>
        <time>2013-07-02T13:31:12Z</time>
      </trkpt>
      <trkpt lat="40.231183" lon="-4.744833">
        <ele>1439.0</ele>
        <time>2013-07-02T13:31:13Z</time>
      </trkpt>
      <trkpt lat="40.231167" lon="-4.744833">
        <ele>1440.0</ele>
        <time>2013-07-02T13:31:14Z</time>
      </trkpt>
      <trkpt lat="40.231117" lon="-4.744833">
        <ele>1441.0</ele>
        <time>2013-07-02T13:31:15Z</time>
      </trkpt>
      <trkpt lat="40.231067" lon="-4.744800">
        <ele>1441.0</ele>
        <time>2013-07-02T13:31:16Z</time>
      </trkpt>
      <trkpt lat="40.231017" lon="-4.744750">
        <ele>1442.0</ele>
        <time>2013-07-02T13:31:17Z</time>
      </trkpt>
      <trkpt lat="40.230950" lon="-4.744667">
        <ele>1443.0</ele>
        <time>2013-07-02T13:31:18Z</time>
      </trkpt>
      <trkpt lat="40.230900" lon="-4.744550">
        <ele>1445.0</ele>
        <time>2013-07-02T13:31:19Z</time>
      </trkpt>
      <trkpt lat="40.230867" lon="-4.744433">
        <ele>1446.0</ele>
        <time>2013-07-02T13:31:20Z</time>
      </trkpt>
      <trkpt lat="40.230850" lon="-4.744300">
        <ele>1448.0</ele>
        <time>2013-07-02T13:31:21Z</time>
      </trkpt>
      <trkpt lat="40.230850" lon="-4.744150">
        <ele>1450.0</ele>
        <time>2013-07-02T13:31:22Z</time>
      </trkpt>
      <trkpt lat="40.230850" lon="-4.744000">
        <ele>1451.0</ele>
        <time>2013-07-02T13:31:23Z</time>
      </trkpt>
      <trkpt lat="40.230883" lon="-4.743850">
        <ele>1453.0</ele>
        <time>2013-07-02T13:31:24Z</time>
      </trkpt>
      <trkpt lat="40.230917" lon="-4.743717">
        <ele>1454.0</ele>
        <time>2013-07-02T13:31:25Z</time>
      </trkpt>
      <trkpt lat="40.230983" lon="-4.743583">
        <ele>1455.0</ele>
        <time>2013-07-02T13:31:26Z</time>
      </trkpt>
      <trkpt lat="40.231050" lon="-4.743467">
        <ele>1455.0</ele>
        <time>2013-07-02T13:31:27Z</time>
      </trkpt>
      <trkpt lat="40.231133" lon="-4.743367">
        <ele>1456.0</ele>
        <time>2013-07-02T13:31:28Z</time>
      </trkpt>
      <trkpt lat="40.231217" lon="-4.743267">
        <ele>1458.0</ele>
        <time>2013-07-02T13:31:29Z</time>
      </trkpt>
      <trkpt lat="40.231300" lon="-4.743200">
        <ele>1459.0</ele>
        <time>2013-07-02T13:31:30Z</time>
      </trkpt>
      <trkpt lat="40.231383" lon="-4.743133">
        <ele>1461.0</ele>
        <time>2013-07-02T13:31:31Z</time>
      </trkpt>
      <trkpt lat="40.231467" lon="-4.743100">
        <ele>1462.0</ele>
        <time>2013-07-02T13:31:32Z</time>
      </trkpt>
      <trkpt lat="40.231567" lon="-4.743067">
        <ele>1463.0</ele>
        <time>2013-07-02T13:31:33Z</time>
      </trkpt>
      <trkpt lat="40.231633" lon="-4.743067">
        <ele>1464.0</ele>
        <time>2013-07-02T13:31:34Z</time>
      </trkpt>
      <trkpt lat="40.231700" lon="-4.743083">
        <ele>1464.0</ele>
        <time>2013-07-02T13:31:35Z</time>
      </trkpt>
      <trkpt lat="40.231750" lon="-4.743117">
        <ele>1465.0</ele>
        <time>2013-07-02T13:31:36Z</time>
      </trkpt>
      <trkpt lat="40.231783" lon="-4.743167">
        <ele>1465.0</ele>
        <time>2013-07-02T13:31:37Z</time>
      </trkpt>
      <trkpt lat="40.231783" lon="-4.743200">
        <ele>1466.0</ele>
        <time>2013-07-02T13:31:38Z</time>
      </trkpt>
      <trkpt lat="40.231767" lon="-4.743233">
        <ele>1467.0</ele>
        <time>2013-07-02T13:31:39Z</time>
      </trkpt>
      <trkpt lat="40.231717" lon="-4.743250">
        <ele>1469.0</ele>
        <time>2013-07-02T13:31:40Z</time>
      </trkpt>
      <trkpt lat="40.231683" lon="-4.743233">
        <ele>1470.0</ele>
        <time>2013-07-02T13:31:41Z</time>
      </trkpt>
      <trkpt lat="40.231633" lon="-4.743217">
        <ele>1471.0</ele>
        <time>2013-07-02T13:31:42Z</time>
      </trkpt>
      <trkpt lat="40.231583" lon="-4.743183">
        <ele>1473.0</ele>
        <time>2013-07-02T13:31:43Z</time>
      </trkpt>
      <trkpt lat="40.231533" lon="-4.743117">
        <ele>1474.0</ele>
        <time>2013-07-02T13:31:44Z</time>
      </trkpt>
      <trkpt lat="40.231483" lon="-4.743050">
        <ele>1475.0</ele>
        <time>2013-07-02T13:31:45Z</time>
      </trkpt>
      <trkpt lat="40.231433" lon="-4.742950">
        <ele>1476.0</ele>
        <time>2013-07-02T13:31:46Z</time>
      </trkpt>
      <trkpt lat="40.231400" lon="-4.742833">
        <ele>1477.0</ele>
        <time>2013-07-02T13:31:47Z</time>
      </trkpt>
      <trkpt lat="40.231367" lon="-4.742700">
        <ele>1477.0</ele>
        <time>2013-07-02T13:31:48Z</time>
      </trkpt>
      <trkpt lat="40.231367" lon="-4.742550">
        <ele>1478.0</ele>
        <time>2013-07-02T13:31:49Z</time>
      </trkpt>
      <trkpt lat="40.231383" lon="-4.742400">
        <ele>1478.0</ele>
        <time>2013-07-02T13:31:50Z</time>
      </trkpt>
      <trkpt lat="40.231433" lon="-4.742250">
        <ele>1479.0</ele>
        <time>2013-07-02T13:31:51Z</time>
      </trkpt>
      <trkpt lat="40.231500" lon="-4.742133">
        <ele>1480.0</ele>
        <time>2013-07-02T13:31:52Z</time>
      </trkpt>
      <trkpt lat="40.231583" lon="-4.742017">
        <ele>1481.0</ele>
        <time>2013-07-02T13:31:53Z</time>
      </trkpt>
      <trkpt lat="40.231650" lon="-4.741933">
        <ele>1483.0</ele>
        <time>2013-07-02T13:31:54Z</time>
      </trkpt>
      <trkpt lat="40.231717" lon="-4.741850">
        <ele>1485.0</ele>
        <time>2013-07-02T13:31:55Z</time>
      </trkpt>
      <trkpt lat="40.231783" lon="-4.741783">
        <ele>1486.0</ele>
        <time>2013-07-02T13:31:56Z</time>
      </trkpt>
      <trkpt lat="40.231867" lon="-4.741717">
        <ele>1486.0</ele>
        <time>2013-07-02T13:31:57Z</time>
      </trkpt>
      <trkpt lat="40.231933" lon="-4.741700">
        <ele>1486.0</ele>
        <time>2013-07-02T13:31:58Z</time>
      </trkpt>
      <trkpt lat="40.232017" lon="-4.741683">
        <ele>1486.0</ele>
        <time>2013-07-02T13:31:59Z</time>
      </trkpt>
      <trkpt lat="40.232067" lon="-4.741717">
        <ele>1486.0</ele>
        <time>2013-07-02T13:32:00Z</time>
      </trkpt>
      <trkpt lat="40.232117" lon="-4.741750">
        <ele>1486.0</ele>
        <time>2013-07-02T13:32:01Z</time>
      </trkpt>
      <trkpt lat="40.232133" lon="-4.741800">
        <ele>1486.0</ele>
        <time>2013-07-02T13:32:02Z</time>
      </trkpt>
      <trkpt lat="40.232133" lon="-4.741867">
        <ele>1486.0</ele>
        <time>2013-07-02T13:32:03Z</time>
      </trkpt>
      <trkpt lat="40.232117" lon="-4.741933">
        <ele>1486.0</ele>
        <time>2013-07-02T13:32:04Z</time>
      </trkpt>
      <trkpt lat="40.232083" lon="-4.741983">
        <ele>1486.0</ele>
        <time>2013-07-02T13:32:05Z</time>
      </trkpt>
      <trkpt lat="40.232050" lon="-4.742000">
        <ele>1487.0</ele>
        <time>2013-07-02T13:32:06Z</time>
      </trkpt>
      <trkpt lat="40.232017" lon="-4.742017">
        <ele>1488.0</ele>
        <time>2013-07-02T13:32:07Z</time>
      </trkpt>
      <trkpt lat="40.231983" lon="-4.742017">
        <ele>1489.0</ele>
        <time>2013-07-02T13:32:08Z</time>
      </trkpt>
      <trkpt lat="40.231933" lon="-4.742000">
        <ele>1488.0</ele>
        <time>2013-07-02T13:32:09Z</time>
      </trkpt>
      <trkpt lat="40.231867" lon="-4.741967">
        <ele>1488.0</ele>
        <time>2013-07-02T13:32:10Z</time>
      </trkpt>
      <trkpt lat="40.231800" lon="-4.741917">
        <ele>1488.0</ele>
        <time>2013-07-02T13:32:11Z</time>
      </trkpt>
      <trkpt lat="40.231750" lon="-4.741833">
        <ele>1488.0</ele>
        <time>2013-07-02T13:32:12Z</time>
      </trkpt>
      <trkpt lat="40.231700" lon="-4.741717">
        <ele>1489.0</ele>
        <time>2013-07-02T13:32:13Z</time>
      </trkpt>
      <trkpt lat="40.231683" lon="-4.741567">
        <ele>1490.0</ele>
        <time>2013-07-02T13:32:14Z</time>
      </trkpt>
      <trkpt lat="40.231717" lon="-4.741433">
        <ele>1490.0</ele>
        <time>2013-07-02T13:32:15Z</time>
      </trkpt>
      <trkpt lat="40.231767" lon="-4.741300">
        <ele>1490.0</ele>
        <time>2013-07-02T13:32:16Z</time>
      </trkpt>
      <trkpt lat="40.231817" lon="-4.741200">
        <ele>1491.0</ele>
        <time>2013-07-02T13:32:17Z</time>
      </trkpt>
      <trkpt lat="40.231883" lon="-4.741117">
        <ele>1492.0</ele>
        <time>2013-07-02T13:32:18Z</time>
      </trkpt>
      <trkpt lat="40.231950" lon="-4.741017">
        <ele>1493.0</ele>
        <time>2013-07-02T13:32:19Z</time>
      </trkpt>
      <trkpt lat="40.232017" lon="-4.740950">
        <ele>1493.0</ele>
        <time>2013-07-02T13:32:20Z</time>
      </trkpt>
      <trkpt lat="40.232083" lon="-4.740883">
        <ele>1494.0</ele>
        <time>2013-07-02T13:32:21Z</time>
      </trkpt>
      <trkpt lat="40.232150" lon="-4.740850">
        <ele>1494.0</ele>
        <time>2013-07-02T13:32:22Z</time>
      </trkpt>
      <trkpt lat="40.232217" lon="-4.740833">
        <ele>1494.0</ele>
        <time>2013-07-02T13:32:23Z</time>
      </trkpt>
      <trkpt lat="40.232283" lon="-4.740833">
        <ele>1494.0</ele>
        <time>2013-07-02T13:32:24Z</time>
      </trkpt>
      <trkpt lat="40.232333" lon="-4.740867">
        <ele>1494.0</ele>
        <time>2013-07-02T13:32:25Z</time>
      </trkpt>
      <trkpt lat="40.232367" lon="-4.740900">
        <ele>1494.0</ele>
        <time>2013-07-02T13:32:26Z</time>
      </trkpt>
      <trkpt lat="40.232400" lon="-4.740950">
        <ele>1495.0</ele>
        <time>2013-07-02T13:32:27Z</time>
      </trkpt>
      <trkpt lat="40.232417" lon="-4.741000">
        <ele>1496.0</ele>
        <time>2013-07-02T13:32:28Z</time>
      </trkpt>
      <trkpt lat="40.232417" lon="-4.741050">
        <ele>1496.0</ele>
        <time>2013-07-02T13:32:29Z</time>
      </trkpt>
      <trkpt lat="40.232400" lon="-4.741100">
        <ele>1497.0</ele>
        <time>2013-07-02T13:32:30Z</time>
      </trkpt>
      <trkpt lat="40.232350" lon="-4.741150">
        <ele>1497.0</ele>
        <time>2013-07-02T13:32:31Z</time>
      </trkpt>
      <trkpt lat="40.232283" lon="-4.741167">
        <ele>1498.0</ele>
        <time>2013-07-02T13:32:32Z</time>
      </trkpt>
      <trkpt lat="40.232233" lon="-4.741167">
        <ele>1499.0</ele>
        <time>2013-07-02T13:32:33Z</time>
      </trkpt>
      <trkpt lat="40.232167" lon="-4.741150">
        <ele>1501.0</ele>
        <time>2013-07-02T13:32:34Z</time>
      </trkpt>
      <trkpt lat="40.232117" lon="-4.741117">
        <ele>1502.0</ele>
        <time>2013-07-02T13:32:35Z</time>
      </trkpt>
      <trkpt lat="40.232067" lon="-4.741083">
        <ele>1503.0</ele>
        <time>2013-07-02T13:32:36Z</time>
      </trkpt>
      <trkpt lat="40.232000" lon="-4.741017">
        <ele>1502.0</ele>
        <time>2013-07-02T13:32:37Z</time>
      </trkpt>
      <trkpt lat="40.231933" lon="-4.740917">
        <ele>1501.0</ele>
        <time>2013-07-02T13:32:38Z</time>
      </trkpt>
      <trkpt lat="40.231883" lon="-4.740800">
        <ele>1502.0</ele>
        <time>2013-07-02T13:32:39Z</time>
      </trkpt>
      <trkpt lat="40.231850" lon="-4.740650">
        <ele>1503.0</ele>
        <time>2013-07-02T13:32:40Z</time>
      </trkpt>
      <trkpt lat="40.231850" lon="-4.740517">
        <ele>1504.0</ele>
        <time>2013-07-02T13:32:41Z</time>
      </trkpt>
      <trkpt lat="40.231867" lon="-4.740383">
        <ele>1504.0</ele>
        <time>2013-07-02T13:32:42Z</time>
      </trkpt>
      <trkpt lat="40.231900" lon="-4.740250">
        <ele>1505.0</ele>
        <time>2013-07-02T13:32:43Z</time>
      </trkpt>
      <trkpt lat="40.231933" lon="-4.740133">
        <ele>1505.0</ele>
        <time>2013-07-02T13:32:44Z</time>
      </trkpt>
      <trkpt lat="40.232000" lon="-4.740033">
        <ele>1505.0</ele>
        <time>2013-07-02T13:32:45Z</time>
      </trkpt>
      <trkpt lat="40.232067" lon="-4.739933">
        <ele>1504.0</ele>
        <time>2013-07-02T13:32:46Z</time>
      </trkpt>
      <trkpt lat="40.232150" lon="-4.739867">
        <ele>1503.0</ele>
        <time>2013-07-02T13:32:47Z</time>
      </trkpt>
      <trkpt lat="40.232233" lon="-4.739817">
        <ele>1502.0</ele>
        <time>2013-07-02T13:32:48Z</time>
      </trkpt>
      <trkpt lat="40.232333" lon="-4.739800">
        <ele>1502.0</ele>
        <time>2013-07-02T13:32:49Z</time>
      </trkpt>
      <trkpt lat="40.232417" lon="-4.739800">
        <ele>1502.0</ele>
        <time>2013-07-02T13:32:50Z</time>
      </trkpt>
      <trkpt lat="40.232483" lon="-4.739817">
        <ele>1503.0</ele>
        <time>2013-07-02T13:32:51Z</time>
      </trkpt>
      <trkpt lat="40.232533" lon="-4.739833">
        <ele>1505.0</ele>
        <time>2013-07-02T13:32:52Z</time>
      </trkpt>
      <trkpt lat="40.232567" lon="-4.739867">
        <ele>1506.0</ele>
        <time>2013-07-02T13:32:53Z</time>
      </trkpt>
      <trkpt lat="40.232600" lon="-4.739900">
        <ele>1507.0</ele>
        <time>2013-07-02T13:32:54Z</time>
      </trkpt>
      <trkpt lat="40.232617" lon="-4.739933">
        <ele>1508.0</ele>
        <time>2013-07-02T13:32:55Z</time>
      </trkpt>
      <trkpt lat="40.232650" lon="-4.739967">
        <ele>1508.0</ele>
        <time>2013-07-02T13:32:56Z</time>
      </trkpt>
      <trkpt lat="40.232667" lon="-4.740000">
        <ele>1509.0</ele>
        <time>2013-07-02T13:32:57Z</time>
      </trkpt>
      <trkpt lat="40.232667" lon="-4.740050">
        <ele>1508.0</ele>
        <time>2013-07-02T13:32:58Z</time>
      </trkpt>
      <trkpt lat="40.232650" lon="-4.740100">
        <ele>1509.0</ele>
        <time>2013-07-02T13:32:59Z</time>
      </trkpt>
      <trkpt lat="40.232600" lon="-4.740133">
        <ele>1508.0</ele>
        <time>2013-07-02T13:33:00Z</time>
      </trkpt>
      <trkpt lat="40.232550" lon="-4.740150">
        <ele>1508.0</ele>
        <time>2013-07-02T13:33:01Z</time>
      </trkpt>
      <trkpt lat="40.232483" lon="-4.740167">
        <ele>1508.0</ele>
        <time>2013-07-02T13:33:02Z</time>
      </trkpt>
      <trkpt lat="40.232433" lon="-4.740167">
        <ele>1508.0</ele>
        <time>2013-07-02T13:33:03Z</time>
      </trkpt>
      <trkpt lat="40.232367" lon="-4.740167">
        <ele>1508.0</ele>
        <time>2013-07-02T13:33:04Z</time>
      </trkpt>
      <trkpt lat="40.232300" lon="-4.740167">
        <ele>1508.0</ele>
        <time>2013-07-02T13:33:05Z</time>
      </trkpt>
      <trkpt lat="40.232233" lon="-4.740150">
        <ele>1508.0</ele>
        <time>2013-07-02T13:33:06Z</time>
      </trkpt>
      <trkpt lat="40.232167" lon="-4.740117">
        <ele>1508.0</ele>
        <time>2013-07-02T13:33:07Z</time>
      </trkpt>
      <trkpt lat="40.232083" lon="-4.740067">
        <ele>1508.0</ele>
        <time>2013-07-02T13:33:08Z</time>
      </trkpt>
      <trkpt lat="40.232017" lon="-4.739983">
        <ele>1508.0</ele>
        <time>2013-07-02T13:33:09Z</time>
      </trkpt>
      <trkpt lat="40.231967" lon="-4.739867">
        <ele>1508.0</ele>
        <time>2013-07-02T13:33:10Z</time>
      </trkpt>
      <trkpt lat="40.231933" lon="-4.739717">
        <ele>1507.0</ele>
        <time>2013-07-02T13:33:11Z</time>
      </trkpt>
      <trkpt lat="40.231917" lon="-4.739550">
        <ele>1507.0</ele>
        <time>2013-07-02T13:33:12Z</time>
      </trkpt>
      <trkpt lat="40.231933" lon="-4.739400">
        <ele>1508.0</ele>
        <time>2013-07-02T13:33:13Z</time>
      </trkpt>
      <trkpt lat="40.231950" lon="-4.739250">
        <ele>1509.0</ele>
        <time>2013-07-02T13:33:14Z</time>
      </trkpt>
      <trkpt lat="40.231967" lon="-4.739117">
        <ele>1511.0</ele>
        <time>2013-07-02T13:33:15Z</time>
      </trkpt>
      <trkpt lat="40.231983" lon="-4.738983">
        <ele>1512.0</ele>
        <time>2013-07-02T13:33:16Z</time>
      </trkpt>
      <trkpt lat="40.232000" lon="-4.738850">
        <ele>1513.0</ele>
        <time>2013-07-02T13:33:17Z</time>
      </trkpt>
      <trkpt lat="40.232033" lon="-4.738717">
        <ele>1514.0</ele>
        <time>2013-07-02T13:33:18Z</time>
      </trkpt>
      <trkpt lat="40.232083" lon="-4.738600">
        <ele>1514.0</ele>
        <time>2013-07-02T13:33:19Z</time>
      </trkpt>
      <trkpt lat="40.232150" lon="-4.738517">
        <ele>1514.0</ele>
        <time>2013-07-02T13:33:20Z</time>
      </trkpt>
      <trkpt lat="40.232233" lon="-4.738450">
        <ele>1514.0</ele>
        <time>2013-07-02T13:33:21Z</time>
      </trkpt>
      <trkpt lat="40.232300" lon="-4.738400">
        <ele>1515.0</ele>
        <time>2013-07-02T13:33:22Z</time>
      </trkpt>
      <trkpt lat="40.232383" lon="-4.738350">
        <ele>1516.0</ele>
        <time>2013-07-02T13:33:23Z</time>
      </trkpt>
      <trkpt lat="40.232450" lon="-4.738317">
        <ele>1516.0</ele>
        <time>2013-07-02T13:33:24Z</time>
      </trkpt>
      <trkpt lat="40.232533" lon="-4.738300">
        <ele>1516.0</ele>
        <time>2013-07-02T13:33:25Z</time>
      </trkpt>
      <trkpt lat="40.232600" lon="-4.738283">
        <ele>1516.0</ele>
        <time>2013-07-02T13:33:26Z</time>
      </trkpt>
      <trkpt lat="40.232667" lon="-4.738300">
        <ele>1516.0</ele>
        <time>2013-07-02T13:33:27Z</time>
      </trkpt>
      <trkpt lat="40.232750" lon="-4.738317">
        <ele>1516.0</ele>
        <time>2013-07-02T13:33:28Z</time>
      </trkpt>
      <trkpt lat="40.232817" lon="-4.738333">
        <ele>1515.0</ele>
        <time>2013-07-02T13:33:29Z</time>
      </trkpt>
      <trkpt lat="40.232883" lon="-4.738383">
        <ele>1515.0</ele>
        <time>2013-07-02T13:33:30Z</time>
      </trkpt>
      <trkpt lat="40.232933" lon="-4.738433">
        <ele>1516.0</ele>
        <time>2013-07-02T13:33:31Z</time>
      </trkpt>
      <trkpt lat="40.232967" lon="-4.738467">
        <ele>1517.0</ele>
        <time>2013-07-02T13:33:32Z</time>
      </trkpt>
      <trkpt lat="40.232967" lon="-4.738500">
        <ele>1518.0</ele>
        <time>2013-07-02T13:33:33Z</time>
      </trkpt>
      <trkpt lat="40.232983" lon="-4.738517">
        <ele>1519.0</ele>
        <time>2013-07-02T13:33:34Z</time>
      </trkpt>
      <trkpt lat="40.232983" lon="-4.738533">
        <ele>1519.0</ele>
        <time>2013-07-02T13:33:35Z</time>
      </trkpt>
      <trkpt lat="40.232967" lon="-4.738567">
        <ele>1519.0</ele>
        <time>2013-07-02T13:33:36Z</time>
      </trkpt>
      <trkpt lat="40.232950" lon="-4.738617">
        <ele>1519.0</ele>
        <time>2013-07-02T13:33:37Z</time>
      </trkpt>
      <trkpt lat="40.232917" lon="-4.738633">
        <ele>1518.0</ele>
        <time>2013-07-02T13:33:38Z</time>
      </trkpt>
      <trkpt lat="40.232867" lon="-4.738650">
        <ele>1519.0</ele>
        <time>2013-07-02T13:33:39Z</time>
      </trkpt>
      <trkpt lat="40.232800" lon="-4.738633">
        <ele>1519.0</ele>
        <time>2013-07-02T13:33:40Z</time>
      </trkpt>
      <trkpt lat="40.232750" lon="-4.738617">
        <ele>1519.0</ele>
        <time>2013-07-02T13:33:41Z</time>
      </trkpt>
      <trkpt lat="40.232700" lon="-4.738600">
        <ele>1519.0</ele>
        <time>2013-07-02T13:33:42Z</time>
      </trkpt>
      <trkpt lat="40.232633" lon="-4.738600">
        <ele>1519.0</ele>
        <time>2013-07-02T13:33:43Z</time>
      </trkpt>
      <trkpt lat="40.232583" lon="-4.738600">
        <ele>1520.0</ele>
        <time>2013-07-02T13:33:44Z</time>
      </trkpt>
      <trkpt lat="40.232533" lon="-4.738567">
        <ele>1520.0</ele>
        <time>2013-07-02T13:33:45Z</time>
      </trkpt>
      <trkpt lat="40.232467" lon="-4.738517">
        <ele>1520.0</ele>
        <time>2013-07-02T13:33:46Z</time>
      </trkpt>
      <trkpt lat="40.232400" lon="-4.738433">
        <ele>1519.0</ele>
        <time>2013-07-02T13:33:47Z</time>
      </trkpt>
      <trkpt lat="40.232333" lon="-4.738333">
        <ele>1519.0</ele>
        <time>2013-07-02T13:33:48Z</time>
      </trkpt>
      <trkpt lat="40.232283" lon="-4.738217">
        <ele>1519.0</ele>
        <time>2013-07-02T13:33:49Z</time>
      </trkpt>
      <trkpt lat="40.232250" lon="-4.738100">
        <ele>1519.0</ele>
        <time>2013-07-02T13:33:50Z</time>
      </trkpt>
      <trkpt lat="40.232233" lon="-4.737967">
        <ele>1519.0</ele>
        <time>2013-07-02T13:33:51Z</time>
      </trkpt>
      <trkpt lat="40.232233" lon="-4.737833">
        <ele>1519.0</ele>
        <time>2013-07-02T13:33:52Z</time>
      </trkpt>
      <trkpt lat="40.232233" lon="-4.737683">
        <ele>1519.0</ele>
        <time>2013-07-02T13:33:53Z</time>
      </trkpt>
      <trkpt lat="40.232250" lon="-4.737533">
        <ele>1519.0</ele>
        <time>2013-07-02T13:33:54Z</time>
      </trkpt>
      <trkpt lat="40.232267" lon="-4.737383">
        <ele>1520.0</ele>
        <time>2013-07-02T13:33:55Z</time>
      </trkpt>
      <trkpt lat="40.232300" lon="-4.737250">
        <ele>1521.0</ele>
        <time>2013-07-02T13:33:56Z</time>
      </trkpt>
      <trkpt lat="40.232350" lon="-4.737133">
        <ele>1522.0</ele>
        <time>2013-07-02T13:33:57Z</time>
      </trkpt>
      <trkpt lat="40.232400" lon="-4.737017">
        <ele>1522.0</ele>
        <time>2013-07-02T13:33:58Z</time>
      </trkpt>
      <trkpt lat="40.232467" lon="-4.736917">
        <ele>1522.0</ele>
        <time>2013-07-02T13:33:59Z</time>
      </trkpt>
      <trkpt lat="40.232533" lon="-4.736833">
        <ele>1523.0</ele>
        <time>2013-07-02T13:34:00Z</time>
      </trkpt>
      <trkpt lat="40.232600" lon="-4.736750">
        <ele>1523.0</ele>
        <time>2013-07-02T13:34:01Z</time>
      </trkpt>
      <trkpt lat="40.232683" lon="-4.736700">
        <ele>1523.0</ele>
        <time>2013-07-02T13:34:02Z</time>
      </trkpt>
      <trkpt lat="40.232767" lon="-4.736650">
        <ele>1523.0</ele>
        <time>2013-07-02T13:34:03Z</time>
      </trkpt>
      <trkpt lat="40.232833" lon="-4.736617">
        <ele>1523.0</ele>
        <time>2013-07-02T13:34:04Z</time>
      </trkpt>
      <trkpt lat="40.232917" lon="-4.736600">
        <ele>1524.0</ele>
        <time>2013-07-02T13:34:05Z</time>
      </trkpt>
      <trkpt lat="40.232983" lon="-4.736583">
        <ele>1524.0</ele>
        <time>2013-07-02T13:34:06Z</time>
      </trkpt>
      <trkpt lat="40.233050" lon="-4.736583">
        <ele>1525.0</ele>
        <time>2013-07-02T13:34:07Z</time>
      </trkpt>
      <trkpt lat="40.233117" lon="-4.736600">
        <ele>1526.0</ele>
        <time>2013-07-02T13:34:08Z</time>
      </trkpt>
      <trkpt lat="40.233150" lon="-4.736633">
        <ele>1527.0</ele>
        <time>2013-07-02T13:34:09Z</time>
      </trkpt>
      <trkpt lat="40.233167" lon="-4.736683">
        <ele>1527.0</ele>
        <time>2013-07-02T13:34:10Z</time>
      </trkpt>
      <trkpt lat="40.233167" lon="-4.736717">
        <ele>1528.0</ele>
        <time>2013-07-02T13:34:11Z</time>
      </trkpt>
      <trkpt lat="40.233150" lon="-4.736733">
        <ele>1528.0</ele>
        <time>2013-07-02T13:34:12Z</time>
      </trkpt>
      <trkpt lat="40.233133" lon="-4.736750">
        <ele>1528.0</ele>
        <time>2013-07-02T13:34:13Z</time>
      </trkpt>
      <trkpt lat="40.233083" lon="-4.736767">
        <ele>1526.0</ele>
        <time>2013-07-02T13:34:14Z</time>
      </trkpt>
      <trkpt lat="40.233017" lon="-4.736767">
        <ele>1526.0</ele>
        <time>2013-07-02T13:34:15Z</time>
      </trkpt>
      <trkpt lat="40.232933" lon="-4.736750">
        <ele>1526.0</ele>
        <time>2013-07-02T13:34:16Z</time>
      </trkpt>
      <trkpt lat="40.232850" lon="-4.736683">
        <ele>1527.0</ele>
        <time>2013-07-02T13:34:17Z</time>
      </trkpt>
      <trkpt lat="40.232800" lon="-4.736617">
        <ele>1527.0</ele>
        <time>2013-07-02T13:34:18Z</time>
      </trkpt>
      <trkpt lat="40.232733" lon="-4.736517">
        <ele>1527.0</ele>
        <time>2013-07-02T13:34:19Z</time>
      </trkpt>
      <trkpt lat="40.232683" lon="-4.736417">
        <ele>1527.0</ele>
        <time>2013-07-02T13:34:20Z</time>
      </trkpt>
      <trkpt lat="40.232650" lon="-4.736317">
        <ele>1527.0</ele>
        <time>2013-07-02T13:34:21Z</time>
      </trkpt>
      <trkpt lat="40.232600" lon="-4.736183">
        <ele>1526.0</ele>
        <time>2013-07-02T13:34:22Z</time>
      </trkpt>
      <trkpt lat="40.232550" lon="-4.736050">
        <ele>1527.0</ele>
        <time>2013-07-02T13:34:23Z</time>
      </trkpt>
      <trkpt lat="40.232517" lon="-4.735917">
        <ele>1527.0</ele>
        <time>2013-07-02T13:34:24Z</time>
      </trkpt>
      <trkpt lat="40.232517" lon="-4.735783">
        <ele>1529.0</ele>
        <time>2013-07-02T13:34:25Z</time>
      </trkpt>
      <trkpt lat="40.232500" lon="-4.735650">
        <ele>1529.0</ele>
        <time>2013-07-02T13:34:26Z</time>
      </trkpt>
      <trkpt lat="40.232517" lon="-4.735533">
        <ele>1530.0</ele>
        <time>2013-07-02T13:34:27Z</time>
      </trkpt>
      <trkpt lat="40.232550" lon="-4.735383">
        <ele>1530.0</ele>
        <time>2013-07-02T13:34:28Z</time>
      </trkpt>
      <trkpt lat="40.232583" lon="-4.735250">
        <ele>1530.0</ele>
        <time>2013-07-02T13:34:29Z</time>
      </trkpt>
      <trkpt lat="40.232633" lon="-4.735133">
        <ele>1530.0</ele>
        <time>2013-07-02T13:34:30Z</time>
      </trkpt>
      <trkpt lat="40.232700" lon="-4.735033">
        <ele>1531.0</ele>
        <time>2013-07-02T13:34:31Z</time>
      </trkpt>
      <trkpt lat="40.232783" lon="-4.734950">
        <ele>1531.0</ele>
        <time>2013-07-02T13:34:32Z</time>
      </trkpt>
      <trkpt lat="40.232867" lon="-4.734883">
        <ele>1531.0</ele>
        <time>2013-07-02T13:34:33Z</time>
      </trkpt>
      <trkpt lat="40.232933" lon="-4.734833">
        <ele>1532.0</ele>
        <time>2013-07-02T13:34:34Z</time>
      </trkpt>
      <trkpt lat="40.233017" lon="-4.734783">
        <ele>1533.0</ele>
        <time>2013-07-02T13:34:35Z</time>
      </trkpt>
      <trkpt lat="40.233100" lon="-4.734767">
        <ele>1534.0</ele>
        <time>2013-07-02T13:34:36Z</time>
      </trkpt>
      <trkpt lat="40.233167" lon="-4.734767">
        <ele>1535.0</ele>
        <time>2013-07-02T13:34:37Z</time>
      </trkpt>
      <trkpt lat="40.233233" lon="-4.734767">
        <ele>1536.0</ele>
        <time>2013-07-02T13:34:38Z</time>
      </trkpt>
      <trkpt lat="40.233267" lon="-4.734800">
        <ele>1537.0</ele>
        <time>2013-07-02T13:34:39Z</time>
      </trkpt>
      <trkpt lat="40.233300" lon="-4.734833">
        <ele>1538.0</ele>
        <time>2013-07-02T13:34:40Z</time>
      </trkpt>
      <trkpt lat="40.233333" lon="-4.734867">
        <ele>1539.0</ele>
        <time>2013-07-02T13:34:41Z</time>
      </trkpt>
      <trkpt lat="40.233350" lon="-4.734917">
        <ele>1539.0</ele>
        <time>2013-07-02T13:34:42Z</time>
      </trkpt>
      <trkpt lat="40.233367" lon="-4.734967">
        <ele>1540.0</ele>
        <time>2013-07-02T13:34:43Z</time>
      </trkpt>
      <trkpt lat="40.233367" lon="-4.735017">
        <ele>1540.0</ele>
        <time>2013-07-02T13:34:44Z</time>
      </trkpt>
      <trkpt lat="40.233333" lon="-4.735067">
        <ele>1540.0</ele>
        <time>2013-07-02T13:34:45Z</time>
      </trkpt>
      <trkpt lat="40.233300" lon="-4.735083">
        <ele>1540.0</ele>
        <time>2013-07-02T13:34:46Z</time>
      </trkpt>
      <trkpt lat="40.233267" lon="-4.735117">
        <ele>1540.0</ele>
        <time>2013-07-02T13:34:47Z</time>
      </trkpt>
      <trkpt lat="40.233217" lon="-4.735117">
        <ele>1540.0</ele>
        <time>2013-07-02T13:34:48Z</time>
      </trkpt>
      <trkpt lat="40.233167" lon="-4.735133">
        <ele>1540.0</ele>
        <time>2013-07-02T13:34:49Z</time>
      </trkpt>
      <trkpt lat="40.233100" lon="-4.735117">
        <ele>1540.0</ele>
        <time>2013-07-02T13:34:50Z</time>
      </trkpt>
      <trkpt lat="40.233033" lon="-4.735117">
        <ele>1540.0</ele>
        <time>2013-07-02T13:34:51Z</time>
      </trkpt>
      <trkpt lat="40.232983" lon="-4.735083">
        <ele>1540.0</ele>
        <time>2013-07-02T13:34:52Z</time>
      </trkpt>
      <trkpt lat="40.232917" lon="-4.735033">
        <ele>1538.0</ele>
        <time>2013-07-02T13:34:53Z</time>
      </trkpt>
      <trkpt lat="40.232850" lon="-4.734967">
        <ele>1537.0</ele>
        <time>2013-07-02T13:34:54Z</time>
      </trkpt>
      <trkpt lat="40.232783" lon="-4.734867">
        <ele>1537.0</ele>
        <time>2013-07-02T13:34:55Z</time>
      </trkpt>
      <trkpt lat="40.232733" lon="-4.734767">
        <ele>1537.0</ele>
        <time>2013-07-02T13:34:56Z</time>
      </trkpt>
      <trkpt lat="40.232700" lon="-4.734633">
        <ele>1538.0</ele>
        <time>2013-07-02T13:34:57Z</time>
      </trkpt>
      <trkpt lat="40.232683" lon="-4.734500">
        <ele>1539.0</ele>
        <time>2013-07-02T13:34:58Z</time>
      </trkpt>
      <trkpt lat="40.232683" lon="-4.734367">
        <ele>1540.0</ele>
        <time>2013-07-02T13:34:59Z</time>
      </trkpt>
      <trkpt lat="40.232700" lon="-4.734233">
        <ele>1540.0</ele>
        <time>2013-07-02T13:35:00Z</time>
      </trkpt>
      <trkpt lat="40.232717" lon="-4.734117">
        <ele>1541.0</ele>
        <time>2013-07-02T13:35:01Z</time>
      </trkpt>
      <trkpt lat="40.232750" lon="-4.734000">
        <ele>1541.0</ele>
        <time>2013-07-02T13:35:02Z</time>
      </trkpt>
      <trkpt lat="40.232800" lon="-4.733883">
        <ele>1541.0</ele>
        <time>2013-07-02T13:35:03Z</time>
      </trkpt>
      <trkpt lat="40.232850" lon="-4.733783">
        <ele>1540.0</ele>
        <time>2013-07-02T13:35:04Z</time>
      </trkpt>
      <trkpt lat="40.232933" lon="-4.733700">
        <ele>1540.0</ele>
        <time>2013-07-02T13:35:05Z</time>
      </trkpt>
      <trkpt lat="40.233000" lon="-4.733633">
        <ele>1540.0</ele>
        <time>2013-07-02T13:35:06Z</time>
      </trkpt>
      <trkpt lat="40.233083" lon="-4.733567">
        <ele>1541.0</ele>
        <time>2013-07-02T13:35:07Z</time>
      </trkpt>
      <trkpt lat="40.233167" lon="-4.733533">
        <ele>1541.0</ele>
        <time>2013-07-02T13:35:08Z</time>
      </trkpt>
      <trkpt lat="40.233250" lon="-4.733500">
        <ele>1542.0</ele>
        <time>2013-07-02T13:35:09Z</time>
      </trkpt>
      <trkpt lat="40.233317" lon="-4.733500">
        <ele>1543.0</ele>
        <time>2013-07-02T13:35:10Z</time>
      </trkpt>
      <trkpt lat="40.233383" lon="-4.733500">
        <ele>1543.0</ele>
        <time>2013-07-02T13:35:11Z</time>
      </trkpt>
      <trkpt lat="40.233433" lon="-4.733533">
        <ele>1544.0</ele>
        <time>2013-07-02T13:35:12Z</time>
      </trkpt>
      <trkpt lat="40.233467" lon="-4.733567">
        <ele>1544.0</ele>
        <time>2013-07-02T13:35:13Z</time>
      </trkpt>
      <trkpt lat="40.233500" lon="-4.733633">
        <ele>1545.0</ele>
        <time>2013-07-02T13:35:14Z</time>
      </trkpt>
      <trkpt lat="40.233500" lon="-4.733683">
        <ele>1545.0</ele>
        <time>2013-07-02T13:35:15Z</time>
      </trkpt>
      <trkpt lat="40.233467" lon="-4.733717">
        <ele>1546.0</ele>
        <time>2013-07-02T13:35:16Z</time>
      </trkpt>
      <trkpt lat="40.233450" lon="-4.733733">
        <ele>1545.0</ele>
        <time>2013-07-02T13:35:17Z</time>
      </trkpt>
      <trkpt lat="40.233400" lon="-4.733750">
        <ele>1544.0</ele>
        <time>2013-07-02T13:35:18Z</time>
      </trkpt>
      <trkpt lat="40.233367" lon="-4.733783">
        <ele>1543.0</ele>
        <time>2013-07-02T13:35:19Z</time>
      </trkpt>
      <trkpt lat="40.233300" lon="-4.733800">
        <ele>1543.0</ele>
        <time>2013-07-02T13:35:20Z</time>
      </trkpt>
      <trkpt lat="40.233250" lon="-4.733800">
        <ele>1543.0</ele>
        <time>2013-07-02T13:35:21Z</time>
      </trkpt>
      <trkpt lat="40.233200" lon="-4.733800">
        <ele>1543.0</ele>
        <time>2013-07-02T13:35:22Z</time>
      </trkpt>
      <trkpt lat="40.233133" lon="-4.733783">
        <ele>1543.0</ele>
        <time>2013-07-02T13:35:23Z</time>
      </trkpt>
      <trkpt lat="40.233067" lon="-4.733767">
        <ele>1542.0</ele>
        <time>2013-07-02T13:35:24Z</time>
      </trkpt>
      <trkpt lat="40.232983" lon="-4.733733">
        <ele>1542.0</ele>
        <time>2013-07-02T13:35:25Z</time>
      </trkpt>
      <trkpt lat="40.232917" lon="-4.733700">
        <ele>1542.0</ele>
        <time>2013-07-02T13:35:26Z</time>
      </trkpt>
      <trkpt lat="40.232833" lon="-4.733650">
        <ele>1542.0</ele>
        <time>2013-07-02T13:35:27Z</time>
      </trkpt>
      <trkpt lat="40.232767" lon="-4.733583">
        <ele>1542.0</ele>
        <time>2013-07-02T13:35:28Z</time>
      </trkpt>
      <trkpt lat="40.232700" lon="-4.733500">
        <ele>1542.0</ele>
        <time>2013-07-02T13:35:29Z</time>
      </trkpt>
      <trkpt lat="40.232650" lon="-4.733400">
        <ele>1542.0</ele>
        <time>2013-07-02T13:35:30Z</time>
      </trkpt>
      <trkpt lat="40.232600" lon="-4.733283">
        <ele>1543.0</ele>
        <time>2013-07-02T13:35:31Z</time>
      </trkpt>
      <trkpt lat="40.232567" lon="-4.733167">
        <ele>1543.0</ele>
        <time>2013-07-02T13:35:32Z</time>
      </trkpt>
      <trkpt lat="40.232517" lon="-4.733033">
        <ele>1543.0</ele>
        <time>2013-07-02T13:35:33Z</time>
      </trkpt>
      <trkpt lat="40.232483" lon="-4.732900">
        <ele>1543.0</ele>
        <time>2013-07-02T13:35:34Z</time>
      </trkpt>
      <trkpt lat="40.232450" lon="-4.732750">
        <ele>1542.0</ele>
        <time>2013-07-02T13:35:35Z</time>
      </trkpt>
      <trkpt lat="40.232400" lon="-4.732617">
        <ele>1542.0</ele>
        <time>2013-07-02T13:35:36Z</time>
      </trkpt>
      <trkpt lat="40.232350" lon="-4.732483">
        <ele>1541.0</ele>
        <time>2013-07-02T13:35:37Z</time>
      </trkpt>
      <trkpt lat="40.232300" lon="-4.732350">
        <ele>1541.0</ele>
        <time>2013-07-02T13:35:38Z</time>
      </trkpt>
      <trkpt lat="40.232250" lon="-4.732217">
        <ele>1541.0</ele>
        <time>2013-07-02T13:35:39Z</time>
      </trkpt>
      <trkpt lat="40.232200" lon="-4.732100">
        <ele>1541.0</ele>
        <time>2013-07-02T13:35:40Z</time>
      </trkpt>
      <trkpt lat="40.232150" lon="-4.731983">
        <ele>1540.0</ele>
        <time>2013-07-02T13:35:41Z</time>
      </trkpt>
      <trkpt lat="40.232100" lon="-4.731883">
        <ele>1539.0</ele>
        <time>2013-07-02T13:35:42Z</time>
      </trkpt>
      <trkpt lat="40.232033" lon="-4.731767">
        <ele>1538.0</ele>
        <time>2013-07-02T13:35:43Z</time>
      </trkpt>
      <trkpt lat="40.232000" lon="-4.731650">
        <ele>1537.0</ele>
        <time>2013-07-02T13:35:44Z</time>
      </trkpt>
      <trkpt lat="40.231967" lon="-4.731533">
        <ele>1536.0</ele>
        <time>2013-07-02T13:35:45Z</time>
      </trkpt>
      <trkpt lat="40.231933" lon="-4.731417">
        <ele>1535.0</ele>
        <time>2013-07-02T13:35:46Z</time>
      </trkpt>
      <trkpt lat="40.231900" lon="-4.731283">
        <ele>1534.0</ele>
        <time>2013-07-02T13:35:47Z</time>
      </trkpt>
      <trkpt lat="40.231867" lon="-4.731150">
        <ele>1533.0</ele>
        <time>2013-07-02T13:35:48Z</time>
      </trkpt>
      <trkpt lat="40.231833" lon="-4.731017">
        <ele>1532.0</ele>
        <time>2013-07-02T13:35:49Z</time>
      </trkpt>
      <trkpt lat="40.231800" lon="-4.730900">
        <ele>1531.0</ele>
        <time>2013-07-02T13:35:50Z</time>
      </trkpt>
      <trkpt lat="40.231767" lon="-4.730767">
        <ele>1530.0</ele>
        <time>2013-07-02T13:35:51Z</time>
      </trkpt>
      <trkpt lat="40.231733" lon="-4.730633">
        <ele>1530.0</ele>
        <time>2013-07-02T13:35:52Z</time>
      </trkpt>
      <trkpt lat="40.231700" lon="-4.730500">
        <ele>1530.0</ele>
        <time>2013-07-02T13:35:53Z</time>
      </trkpt>
      <trkpt lat="40.231683" lon="-4.730367">
        <ele>1529.0</ele>
        <time>2013-07-02T13:35:54Z</time>
      </trkpt>
      <trkpt lat="40.231650" lon="-4.730233">
        <ele>1529.0</ele>
        <time>2013-07-02T13:35:55Z</time>
      </trkpt>
      <trkpt lat="40.231617" lon="-4.730083">
        <ele>1529.0</ele>
        <time>2013-07-02T13:35:56Z</time>
      </trkpt>
      <trkpt lat="40.231600" lon="-4.729950">
        <ele>1529.0</ele>
        <time>2013-07-02T13:35:57Z</time>
      </trkpt>
      <trkpt lat="40.231583" lon="-4.729817">
        <ele>1530.0</ele>
        <time>2013-07-02T13:35:58Z</time>
      </trkpt>
      <trkpt lat="40.231583" lon="-4.729700">
        <ele>1529.0</ele>
        <time>2013-07-02T13:35:59Z</time>
      </trkpt>
      <trkpt lat="40.231567" lon="-4.729583">
        <ele>1529.0</ele>
        <time>2013-07-02T13:36:00Z</time>
      </trkpt>
      <trkpt lat="40.231567" lon="-4.729450">
        <ele>1528.0</ele>
        <time>2013-07-02T13:36:01Z</time>
      </trkpt>
      <trkpt lat="40.231583" lon="-4.729317">
        <ele>1526.0</ele>
        <time>2013-07-02T13:36:02Z</time>
      </trkpt>
      <trkpt lat="40.231583" lon="-4.729167">
        <ele>1526.0</ele>
        <time>2013-07-02T13:36:03Z</time>
      </trkpt>
      <trkpt lat="40.231583" lon="-4.729033">
        <ele>1526.0</ele>
        <time>2013-07-02T13:36:04Z</time>
      </trkpt>
      <trkpt lat="40.231567" lon="-4.728900">
        <ele>1526.0</ele>
        <time>2013-07-02T13:36:05Z</time>
      </trkpt>
      <trkpt lat="40.231550" lon="-4.728800">
        <ele>1524.0</ele>
        <time>2013-07-02T13:36:06Z</time>
      </trkpt>
      <trkpt lat="40.231517" lon="-4.728683">
        <ele>1523.0</ele>
        <time>2013-07-02T13:36:07Z</time>
      </trkpt>
      <trkpt lat="40.231500" lon="-4.728550">
        <ele>1521.0</ele>
        <time>2013-07-02T13:36:08Z</time>
      </trkpt>
      <trkpt lat="40.231500" lon="-4.728417">
        <ele>1519.0</ele>
        <time>2013-07-02T13:36:09Z</time>
      </trkpt>
      <trkpt lat="40.231500" lon="-4.728267">
        <ele>1518.0</ele>
        <time>2013-07-02T13:36:10Z</time>
      </trkpt>
      <trkpt lat="40.231500" lon="-4.728133">
        <ele>1516.0</ele>
        <time>2013-07-02T13:36:11Z</time>
      </trkpt>
      <trkpt lat="40.231517" lon="-4.728000">
        <ele>1515.0</ele>
        <time>2013-07-02T13:36:12Z</time>
      </trkpt>
      <trkpt lat="40.231517" lon="-4.727883">
        <ele>1513.0</ele>
        <time>2013-07-02T13:36:13Z</time>
      </trkpt>
      <trkpt lat="40.231517" lon="-4.727750">
        <ele>1511.0</ele>
        <time>2013-07-02T13:36:14Z</time>
      </trkpt>
      <trkpt lat="40.231517" lon="-4.727617">
        <ele>1509.0</ele>
        <time>2013-07-02T13:36:15Z</time>
      </trkpt>
      <trkpt lat="40.231533" lon="-4.727483">
        <ele>1506.0</ele>
        <time>2013-07-02T13:36:16Z</time>
      </trkpt>
      <trkpt lat="40.231550" lon="-4.727350">
        <ele>1504.0</ele>
        <time>2013-07-02T13:36:17Z</time>
      </trkpt>
      <trkpt lat="40.231550" lon="-4.727217">
        <ele>1501.0</ele>
        <time>2013-07-02T13:36:18Z</time>
      </trkpt>
      <trkpt lat="40.231550" lon="-4.727067">
        <ele>1499.0</ele>
        <time>2013-07-02T13:36:19Z</time>
      </trkpt>
      <trkpt lat="40.231567" lon="-4.726933">
        <ele>1497.0</ele>
        <time>2013-07-02T13:36:20Z</time>
      </trkpt>
      <trkpt lat="40.231567" lon="-4.726800">
        <ele>1495.0</ele>
        <time>2013-07-02T13:36:21Z</time>
      </trkpt>
      <trkpt lat="40.231583" lon="-4.726683">
        <ele>1492.0</ele>
        <time>2013-07-02T13:36:22Z</time>
      </trkpt>
      <trkpt lat="40.231600" lon="-4.726550">
        <ele>1489.0</ele>
        <time>2013-07-02T13:36:23Z</time>
      </trkpt>
      <trkpt lat="40.231617" lon="-4.726433">
        <ele>1486.0</ele>
        <time>2013-07-02T13:36:24Z</time>
      </trkpt>
      <trkpt lat="40.231650" lon="-4.726283">
        <ele>1483.0</ele>
        <time>2013-07-02T13:36:25Z</time>
      </trkpt>
      <trkpt lat="40.231683" lon="-4.726133">
        <ele>1480.0</ele>
        <time>2013-07-02T13:36:26Z</time>
      </trkpt>
      <trkpt lat="40.231733" lon="-4.725983">
        <ele>1478.0</ele>
        <time>2013-07-02T13:36:27Z</time>
      </trkpt>
      <trkpt lat="40.231767" lon="-4.725850">
        <ele>1478.0</ele>
        <time>2013-07-02T13:36:28Z</time>
      </trkpt>
      <trkpt lat="40.231783" lon="-4.725733">
        <ele>1476.0</ele>
        <time>2013-07-02T13:36:29Z</time>
      </trkpt>
      <trkpt lat="40.231783" lon="-4.725617">
        <ele>1474.0</ele>
        <time>2013-07-02T13:36:30Z</time>
      </trkpt>
      <trkpt lat="40.231800" lon="-4.725483">
        <ele>1471.0</ele>
        <time>2013-07-02T13:36:31Z</time>
      </trkpt>
      <trkpt lat="40.231800" lon="-4.725367">
        <ele>1469.0</ele>
        <time>2013-07-02T13:36:32Z</time>
      </trkpt>
      <trkpt lat="40.231800" lon="-4.725233">
        <ele>1465.0</ele>
        <time>2013-07-02T13:36:33Z</time>
      </trkpt>
      <trkpt lat="40.231783" lon="-4.725117">
        <ele>1460.0</ele>
        <time>2013-07-02T13:36:34Z</time>
      </trkpt>
      <trkpt lat="40.231767" lon="-4.724983">
        <ele>1456.0</ele>
        <time>2013-07-02T13:36:35Z</time>
      </trkpt>
      <trkpt lat="40.231750" lon="-4.724833">
        <ele>1453.0</ele>
        <time>2013-07-02T13:36:36Z</time>
      </trkpt>
      <trkpt lat="40.231733" lon="-4.724700">
        <ele>1450.0</ele>
        <time>2013-07-02T13:36:37Z</time>
      </trkpt>
      <trkpt lat="40.231733" lon="-4.724567">
        <ele>1448.0</ele>
        <time>2013-07-02T13:36:38Z</time>
      </trkpt>
      <trkpt lat="40.231733" lon="-4.724450">
        <ele>1446.0</ele>
        <time>2013-07-02T13:36:39Z</time>
      </trkpt>
      <trkpt lat="40.231750" lon="-4.724317">
        <ele>1443.0</ele>
        <time>2013-07-02T13:36:40Z</time>
      </trkpt>
      <trkpt lat="40.231767" lon="-4.724183">
        <ele>1440.0</ele>
        <time>2013-07-02T13:36:41Z</time>
      </trkpt>
      <trkpt lat="40.231783" lon="-4.724050">
        <ele>1436.0</ele>
        <time>2013-07-02T13:36:42Z</time>
      </trkpt>
      <trkpt lat="40.231800" lon="-4.723917">
        <ele>1433.0</ele>
        <time>2013-07-02T13:36:43Z</time>
      </trkpt>
      <trkpt lat="40.231817" lon="-4.723783">
        <ele>1430.0</ele>
        <time>2013-07-02T13:36:44Z</time>
      </trkpt>
      <trkpt lat="40.231833" lon="-4.723650">
        <ele>1428.0</ele>
        <time>2013-07-02T13:36:45Z</time>
      </trkpt>
      <trkpt lat="40.231850" lon="-4.723517">
        <ele>1425.0</ele>
        <time>2013-07-02T13:36:46Z</time>
      </trkpt>
      <trkpt lat="40.231867" lon="-4.723367">
        <ele>1421.0</ele>
        <time>2013-07-02T13:36:47Z</time>
      </trkpt>
      <trkpt lat="40.231883" lon="-4.723217">
        <ele>1418.0</ele>
        <time>2013-07-02T13:36:48Z</time>
      </trkpt>
      <trkpt lat="40.231900" lon="-4.723067">
        <ele>1416.0</ele>
        <time>2013-07-02T13:36:49Z</time>
      </trkpt>
      <trkpt lat="40.231917" lon="-4.722933">
        <ele>1413.0</ele>
        <time>2013-07-02T13:36:50Z</time>
      </trkpt>
      <trkpt lat="40.231933" lon="-4.722800">
        <ele>1411.0</ele>
        <time>2013-07-02T13:36:51Z</time>
      </trkpt>
      <trkpt lat="40.231950" lon="-4.722650">
        <ele>1407.0</ele>
        <time>2013-07-02T13:36:52Z</time>
      </trkpt>
      <trkpt lat="40.231967" lon="-4.722517">
        <ele>1404.0</ele>
        <time>2013-07-02T13:36:53Z</time>
      </trkpt>
      <trkpt lat="40.231983" lon="-4.722383">
        <ele>1402.0</ele>
        <time>2013-07-02T13:36:54Z</time>
      </trkpt>
      <trkpt lat="40.231983" lon="-4.722267">
        <ele>1399.0</ele>
        <time>2013-07-02T13:36:55Z</time>
      </trkpt>
      <trkpt lat="40.231983" lon="-4.722150">
        <ele>1395.0</ele>
        <time>2013-07-02T13:36:56Z</time>
      </trkpt>
      <trkpt lat="40.232000" lon="-4.722033">
        <ele>1391.0</ele>
        <time>2013-07-02T13:36:57Z</time>
      </trkpt>
      <trkpt lat="40.232017" lon="-4.721917">
        <ele>1388.0</ele>
        <time>2013-07-02T13:36:58Z</time>
      </trkpt>
      <trkpt lat="40.232033" lon="-4.721783">
        <ele>1384.0</ele>
        <time>2013-07-02T13:36:59Z</time>
      </trkpt>
      <trkpt lat="40.232067" lon="-4.721650">
        <ele>1380.0</ele>
        <time>2013-07-02T13:37:00Z</time>
      </trkpt>
      <trkpt lat="40.232083" lon="-4.721550">
        <ele>1376.0</ele>
        <time>2013-07-02T13:37:01Z</time>
      </trkpt>
      <trkpt lat="40.232100" lon="-4.721433">
        <ele>1373.0</ele>
        <time>2013-07-02T13:37:02Z</time>
      </trkpt>
      <trkpt lat="40.232100" lon="-4.721300">
        <ele>1369.0</ele>
        <time>2013-07-02T13:37:03Z</time>
      </trkpt>
      <trkpt lat="40.232117" lon="-4.721183">
        <ele>1365.0</ele>
        <time>2013-07-02T13:37:04Z</time>
      </trkpt>
      <trkpt lat="40.232150" lon="-4.721050">
        <ele>1361.0</ele>
        <time>2013-07-02T13:37:05Z</time>
      </trkpt>
      <trkpt lat="40.232183" lon="-4.720917">
        <ele>1355.0</ele>
        <time>2013-07-02T13:37:06Z</time>
      </trkpt>
      <trkpt lat="40.232233" lon="-4.720783">
        <ele>1350.0</ele>
        <time>2013-07-02T13:37:07Z</time>
      </trkpt>
      <trkpt lat="40.232267" lon="-4.720650">
        <ele>1346.0</ele>
        <time>2013-07-02T13:37:08Z</time>
      </trkpt>
      <trkpt lat="40.232283" lon="-4.720517">
        <ele>1342.0</ele>
        <time>2013-07-02T13:37:09Z</time>
      </trkpt>
      <trkpt lat="40.232300" lon="-4.720367">
        <ele>1338.0</ele>
        <time>2013-07-02T13:37:10Z</time>
      </trkpt>
      <trkpt lat="40.232317" lon="-4.720233">
        <ele>1333.0</ele>
        <time>2013-07-02T13:37:11Z</time>
      </trkpt>
      <trkpt lat="40.232350" lon="-4.720083">
        <ele>1328.0</ele>
        <time>2013-07-02T13:37:12Z</time>
      </trkpt>
      <trkpt lat="40.232367" lon="-4.719933">
        <ele>1324.0</ele>
        <time>2013-07-02T13:37:13Z</time>
      </trkpt>
      <trkpt lat="40.232383" lon="-4.719767">
        <ele>1320.0</ele>
        <time>2013-07-02T13:37:14Z</time>
      </trkpt>
      <trkpt lat="40.232383" lon="-4.719633">
        <ele>1317.0</ele>
        <time>2013-07-02T13:37:15Z</time>
      </trkpt>
      <trkpt lat="40.232400" lon="-4.719483">
        <ele>1314.0</ele>
        <time>2013-07-02T13:37:16Z</time>
      </trkpt>
      <trkpt lat="40.232417" lon="-4.719350">
        <ele>1310.0</ele>
        <time>2013-07-02T13:37:17Z</time>
      </trkpt>
      <trkpt lat="40.232433" lon="-4.719200">
        <ele>1306.0</ele>
        <time>2013-07-02T13:37:18Z</time>
      </trkpt>
      <trkpt lat="40.232450" lon="-4.719050">
        <ele>1301.0</ele>
        <time>2013-07-02T13:37:19Z</time>
      </trkpt>
      <trkpt lat="40.232450" lon="-4.718900">
        <ele>1297.0</ele>
        <time>2013-07-02T13:37:20Z</time>
      </trkpt>
      <trkpt lat="40.232467" lon="-4.718750">
        <ele>1293.0</ele>
        <time>2013-07-02T13:37:21Z</time>
      </trkpt>
      <trkpt lat="40.232467" lon="-4.718600">
        <ele>1289.0</ele>
        <time>2013-07-02T13:37:22Z</time>
      </trkpt>
      <trkpt lat="40.232483" lon="-4.718450">
        <ele>1285.0</ele>
        <time>2013-07-02T13:37:23Z</time>
      </trkpt>
      <trkpt lat="40.232483" lon="-4.718300">
        <ele>1280.0</ele>
        <time>2013-07-02T13:37:24Z</time>
      </trkpt>
      <trkpt lat="40.232500" lon="-4.718167">
        <ele>1276.0</ele>
        <time>2013-07-02T13:37:25Z</time>
      </trkpt>
      <trkpt lat="40.232500" lon="-4.718017">
        <ele>1271.0</ele>
        <time>2013-07-02T13:37:26Z</time>
      </trkpt>
      <trkpt lat="40.232517" lon="-4.717867">
        <ele>1267.0</ele>
        <time>2013-07-02T13:37:27Z</time>
      </trkpt>
      <trkpt lat="40.232533" lon="-4.717717">
        <ele>1262.0</ele>
        <time>2013-07-02T13:37:28Z</time>
      </trkpt>
      <trkpt lat="40.232533" lon="-4.717567">
        <ele>1258.0</ele>
        <time>2013-07-02T13:37:29Z</time>
      </trkpt>
      <trkpt lat="40.232533" lon="-4.717433">
        <ele>1254.0</ele>
        <time>2013-07-02T13:37:30Z</time>
      </trkpt>
      <trkpt lat="40.232550" lon="-4.717283">
        <ele>1250.0</ele>
        <time>2013-07-02T13:37:31Z</time>
      </trkpt>
      <trkpt lat="40.232550" lon="-4.717150">
        <ele>1245.0</ele>
        <time>2013-07-02T13:37:32Z</time>
      </trkpt>
      <trkpt lat="40.232567" lon="-4.717000">
        <ele>1241.0</ele>
        <time>2013-07-02T13:37:33Z</time>
      </trkpt>
      <trkpt lat="40.232567" lon="-4.716867">
        <ele>1236.0</ele>
        <time>2013-07-02T13:37:34Z</time>
      </trkpt>
      <trkpt lat="40.232567" lon="-4.716717">
        <ele>1232.0</ele>
        <time>2013-07-02T13:37:35Z</time>
      </trkpt>
      <trkpt lat="40.232550" lon="-4.716567">
        <ele>1228.0</ele>
        <time>2013-07-02T13:37:36Z</time>
      </trkpt>
      <trkpt lat="40.232550" lon="-4.716417">
        <ele>1224.0</ele>
        <time>2013-07-02T13:37:37Z</time>
      </trkpt>
      <trkpt lat="40.232550" lon="-4.716267">
        <ele>1222.0</ele>
        <time>2013-07-02T13:37:38Z</time>
      </trkpt>
      <trkpt lat="40.232550" lon="-4.716133">
        <ele>1219.0</ele>
        <time>2013-07-02T13:37:39Z</time>
      </trkpt>
      <trkpt lat="40.232533" lon="-4.716000">
        <ele>1214.0</ele>
        <time>2013-07-02T13:37:40Z</time>
      </trkpt>
      <trkpt lat="40.232517" lon="-4.715867">
        <ele>1211.0</ele>
        <time>2013-07-02T13:37:41Z</time>
      </trkpt>
      <trkpt lat="40.232483" lon="-4.715717">
        <ele>1207.0</ele>
        <time>2013-07-02T13:37:42Z</time>
      </trkpt>
      <trkpt lat="40.232483" lon="-4.715550">
        <ele>1204.0</ele>
        <time>2013-07-02T13:37:43Z</time>
      </trkpt>
      <trkpt lat="40.232467" lon="-4.715400">
        <ele>1200.0</ele>
        <time>2013-07-02T13:37:44Z</time>
      </trkpt>
      <trkpt lat="40.232433" lon="-4.715267">
        <ele>1196.0</ele>
        <time>2013-07-02T13:37:45Z</time>
      </trkpt>
      <trkpt lat="40.232417" lon="-4.715117">
        <ele>1191.0</ele>
        <time>2013-07-02T13:37:46Z</time>
      </trkpt>
      <trkpt lat="40.232383" lon="-4.714967">
        <ele>1187.0</ele>
        <time>2013-07-02T13:37:47Z</time>
      </trkpt>
      <trkpt lat="40.232367" lon="-4.714800">
        <ele>1183.0</ele>
        <time>2013-07-02T13:37:48Z</time>
      </trkpt>
      <trkpt lat="40.232350" lon="-4.714633">
        <ele>1178.0</ele>
        <time>2013-07-02T13:37:49Z</time>
      </trkpt>
      <trkpt lat="40.232350" lon="-4.714450">
        <ele>1173.0</ele>
        <time>2013-07-02T13:37:50Z</time>
      </trkpt>
      <trkpt lat="40.232333" lon="-4.714267">
        <ele>1169.0</ele>
        <time>2013-07-02T13:37:51Z</time>
      </trkpt>
      <trkpt lat="40.232333" lon="-4.714117">
        <ele>1166.0</ele>
        <time>2013-07-02T13:37:52Z</time>
      </trkpt>
      <trkpt lat="40.232317" lon="-4.713967">
        <ele>1162.0</ele>
        <time>2013-07-02T13:37:53Z</time>
      </trkpt>
      <trkpt lat="40.232300" lon="-4.713800">
        <ele>1158.0</ele>
        <time>2013-07-02T13:37:54Z</time>
      </trkpt>
      <trkpt lat="40.232283" lon="-4.713633">
        <ele>1153.0</ele>
        <time>2013-07-02T13:37:55Z</time>
      </trkpt>
      <trkpt lat="40.232267" lon="-4.713467">
        <ele>1148.0</ele>
        <time>2013-07-02T13:37:56Z</time>
      </trkpt>
      <trkpt lat="40.232250" lon="-4.713283">
        <ele>1144.0</ele>
        <time>2013-07-02T13:37:57Z</time>
      </trkpt>
      <trkpt lat="40.232217" lon="-4.713117">
        <ele>1140.0</ele>
        <time>2013-07-02T13:37:58Z</time>
      </trkpt>
      <trkpt lat="40.232200" lon="-4.712950">
        <ele>1138.0</ele>
        <time>2013-07-02T13:37:59Z</time>
      </trkpt>
      <trkpt lat="40.232200" lon="-4.712817">
        <ele>1135.0</ele>
        <time>2013-07-02T13:38:00Z</time>
      </trkpt>
      <trkpt lat="40.232217" lon="-4.712667">
        <ele>1132.0</ele>
        <time>2013-07-02T13:38:01Z</time>
      </trkpt>
      <trkpt lat="40.232217" lon="-4.712500">
        <ele>1128.0</ele>
        <time>2013-07-02T13:38:02Z</time>
      </trkpt>
      <trkpt lat="40.232217" lon="-4.712317">
        <ele>1124.0</ele>
        <time>2013-07-02T13:38:03Z</time>
      </trkpt>
      <trkpt lat="40.232200" lon="-4.712133">
        <ele>1121.0</ele>
        <time>2013-07-02T13:38:04Z</time>
      </trkpt>
      <trkpt lat="40.232200" lon="-4.711950">
        <ele>1120.0</ele>
        <time>2013-07-02T13:38:05Z</time>
      </trkpt>
      <trkpt lat="40.232183" lon="-4.711783">
        <ele>1120.0</ele>
        <time>2013-07-02T13:38:06Z</time>
      </trkpt>
      <trkpt lat="40.232167" lon="-4.711650">
        <ele>1118.0</ele>
        <time>2013-07-02T13:38:07Z</time>
      </trkpt>
      <trkpt lat="40.232150" lon="-4.711500">
        <ele>1116.0</ele>
        <time>2013-07-02T13:38:08Z</time>
      </trkpt>
      <trkpt lat="40.232133" lon="-4.711350">
        <ele>1113.0</ele>
        <time>2013-07-02T13:38:09Z</time>
      </trkpt>
      <trkpt lat="40.232117" lon="-4.711183">
        <ele>1110.0</ele>
        <time>2013-07-02T13:38:10Z</time>
      </trkpt>
      <trkpt lat="40.232100" lon="-4.711000">
        <ele>1106.0</ele>
        <time>2013-07-02T13:38:11Z</time>
      </trkpt>
      <trkpt lat="40.232067" lon="-4.710833">
        <ele>1103.0</ele>
        <time>2013-07-02T13:38:12Z</time>
      </trkpt>
      <trkpt lat="40.232033" lon="-4.710683">
        <ele>1102.0</ele>
        <time>2013-07-02T13:38:13Z</time>
      </trkpt>
      <trkpt lat="40.232000" lon="-4.710550">
        <ele>1101.0</ele>
        <time>2013-07-02T13:38:14Z</time>
      </trkpt>
      <trkpt lat="40.231983" lon="-4.710433">
        <ele>1099.0</ele>
        <time>2013-07-02T13:38:15Z</time>
      </trkpt>
      <trkpt lat="40.231983" lon="-4.710333">
        <ele>1096.0</ele>
        <time>2013-07-02T13:38:16Z</time>
      </trkpt>
      <trkpt lat="40.231967" lon="-4.710183">
        <ele>1093.0</ele>
        <time>2013-07-02T13:38:17Z</time>
      </trkpt>
      <trkpt lat="40.231967" lon="-4.710017">
        <ele>1088.0</ele>
        <time>2013-07-02T13:38:18Z</time>
      </trkpt>
      <trkpt lat="40.231950" lon="-4.709850">
        <ele>1085.0</ele>
        <time>2013-07-02T13:38:19Z</time>
      </trkpt>
      <trkpt lat="40.231950" lon="-4.709700">
        <ele>1084.0</ele>
        <time>2013-07-02T13:38:20Z</time>
      </trkpt>
      <trkpt lat="40.231950" lon="-4.709550">
        <ele>1083.0</ele>
        <time>2013-07-02T13:38:21Z</time>
      </trkpt>
      <trkpt lat="40.231950" lon="-4.709417">
        <ele>1081.0</ele>
        <time>2013-07-02T13:38:22Z</time>
      </trkpt>
      <trkpt lat="40.231950" lon="-4.709283">
        <ele>1078.0</ele>
        <time>2013-07-02T13:38:23Z</time>
      </trkpt>
      <trkpt lat="40.231967" lon="-4.709133">
        <ele>1075.0</ele>
        <time>2013-07-02T13:38:24Z</time>
      </trkpt>
      <trkpt lat="40.231967" lon="-4.708967">
        <ele>1072.0</ele>
        <time>2013-07-02T13:38:25Z</time>
      </trkpt>
      <trkpt lat="40.231983" lon="-4.708783">
        <ele>1069.0</ele>
        <time>2013-07-02T13:38:26Z</time>
      </trkpt>
      <trkpt lat="40.232000" lon="-4.708617">
        <ele>1065.0</ele>
        <time>2013-07-02T13:38:27Z</time>
      </trkpt>
      <trkpt lat="40.232017" lon="-4.708450">
        <ele>1063.0</ele>
        <time>2013-07-02T13:38:28Z</time>
      </trkpt>
      <trkpt lat="40.232033" lon="-4.708300">
        <ele>1061.0</ele>
        <time>2013-07-02T13:38:29Z</time>
      </trkpt>
      <trkpt lat="40.232050" lon="-4.708150">
        <ele>1058.0</ele>
        <time>2013-07-02T13:38:30Z</time>
      </trkpt>
      <trkpt lat="40.232067" lon="-4.708000">
        <ele>1054.0</ele>
        <time>2013-07-02T13:38:31Z</time>
      </trkpt>
      <trkpt lat="40.232067" lon="-4.707850">
        <ele>1049.0</ele>
        <time>2013-07-02T13:38:32Z</time>
      </trkpt>
      <trkpt lat="40.232050" lon="-4.707683">
        <ele>1045.0</ele>
        <time>2013-07-02T13:38:33Z</time>
      </trkpt>
      <trkpt lat="40.232033" lon="-4.707483">
        <ele>1042.0</ele>
        <time>2013-07-02T13:38:34Z</time>
      </trkpt>
      <trkpt lat="40.232017" lon="-4.707283">
        <ele>1041.0</ele>
        <time>2013-07-02T13:38:35Z</time>
      </trkpt>
      <trkpt lat="40.232000" lon="-4.707133">
        <ele>1040.0</ele>
        <time>2013-07-02T13:38:36Z</time>
      </trkpt>
      <trkpt lat="40.232000" lon="-4.707000">
        <ele>1039.0</ele>
        <time>2013-07-02T13:38:37Z</time>
      </trkpt>
      <trkpt lat="40.232000" lon="-4.706867">
        <ele>1037.0</ele>
        <time>2013-07-02T13:38:38Z</time>
      </trkpt>
      <trkpt lat="40.231983" lon="-4.706700">
        <ele>1034.0</ele>
        <time>2013-07-02T13:38:39Z</time>
      </trkpt>
      <trkpt lat="40.231967" lon="-4.706500">
        <ele>1031.0</ele>
        <time>2013-07-02T13:38:40Z</time>
      </trkpt>
      <trkpt lat="40.231950" lon="-4.706300">
        <ele>1028.0</ele>
        <time>2013-07-02T13:38:41Z</time>
      </trkpt>
      <trkpt lat="40.231950" lon="-4.706100">
        <ele>1028.0</ele>
        <time>2013-07-02T13:38:42Z</time>
      </trkpt>
      <trkpt lat="40.231950" lon="-4.705950">
        <ele>1029.0</ele>
        <time>2013-07-02T13:38:43Z</time>
      </trkpt>
      <trkpt lat="40.231967" lon="-4.705800">
        <ele>1031.0</ele>
        <time>2013-07-02T13:38:44Z</time>
      </trkpt>
      <trkpt lat="40.232000" lon="-4.705650">
        <ele>1031.0</ele>
        <time>2013-07-02T13:38:45Z</time>
      </trkpt>
      <trkpt lat="40.232033" lon="-4.705483">
        <ele>1032.0</ele>
        <time>2013-07-02T13:38:46Z</time>
      </trkpt>
      <trkpt lat="40.232050" lon="-4.705333">
        <ele>1032.0</ele>
        <time>2013-07-02T13:38:47Z</time>
      </trkpt>
      <trkpt lat="40.232083" lon="-4.705183">
        <ele>1035.0</ele>
        <time>2013-07-02T13:38:48Z</time>
      </trkpt>
      <trkpt lat="40.232100" lon="-4.705033">
        <ele>1036.0</ele>
        <time>2013-07-02T13:38:49Z</time>
      </trkpt>
      <trkpt lat="40.232100" lon="-4.704883">
        <ele>1037.0</ele>
        <time>2013-07-02T13:38:50Z</time>
      </trkpt>
      <trkpt lat="40.232117" lon="-4.704733">
        <ele>1040.0</ele>
        <time>2013-07-02T13:38:51Z</time>
      </trkpt>
      <trkpt lat="40.232150" lon="-4.704567">
        <ele>1044.0</ele>
        <time>2013-07-02T13:38:52Z</time>
      </trkpt>
      <trkpt lat="40.232167" lon="-4.704433">
        <ele>1047.0</ele>
        <time>2013-07-02T13:38:53Z</time>
      </trkpt>
      <trkpt lat="40.232183" lon="-4.704300">
        <ele>1049.0</ele>
        <time>2013-07-02T13:38:54Z</time>
      </trkpt>
      <trkpt lat="40.232200" lon="-4.704167">
        <ele>1051.0</ele>
        <time>2013-07-02T13:38:55Z</time>
      </trkpt>
      <trkpt lat="40.232200" lon="-4.704033">
        <ele>1052.0</ele>
        <time>2013-07-02T13:38:56Z</time>
      </trkpt>
      <trkpt lat="40.232183" lon="-4.703867">
        <ele>1053.0</ele>
        <time>2013-07-02T13:38:57Z</time>
      </trkpt>
      <trkpt lat="40.232183" lon="-4.703700">
        <ele>1055.0</ele>
        <time>2013-07-02T13:38:58Z</time>
      </trkpt>
      <trkpt lat="40.232167" lon="-4.703550">
        <ele>1057.0</ele>
        <time>2013-07-02T13:38:59Z</time>
      </trkpt>
      <trkpt lat="40.232150" lon="-4.703417">
        <ele>1060.0</ele>
        <time>2013-07-02T13:39:00Z</time>
      </trkpt>
      <trkpt lat="40.232133" lon="-4.703300">
        <ele>1062.0</ele>
        <time>2013-07-02T13:39:01Z</time>
      </trkpt>
      <trkpt lat="40.232117" lon="-4.703183">
        <ele>1063.0</ele>
        <time>2013-07-02T13:39:02Z</time>
      </trkpt>
      <trkpt lat="40.232100" lon="-4.703067">
        <ele>1063.0</ele>
        <time>2013-07-02T13:39:03Z</time>
      </trkpt>
      <trkpt lat="40.232067" lon="-4.702967">
        <ele>1062.0</ele>
        <time>2013-07-02T13:39:04Z</time>
      </trkpt>
      <trkpt lat="40.232033" lon="-4.702850">
        <ele>1062.0</ele>
        <time>2013-07-02T13:39:05Z</time>
      </trkpt>
      <trkpt lat="40.231967" lon="-4.702750">
        <ele>1061.0</ele>
        <time>2013-07-02T13:39:06Z</time>
      </trkpt>
      <trkpt lat="40.231883" lon="-4.702700">
        <ele>1061.0</ele>
        <time>2013-07-02T13:39:07Z</time>
      </trkpt>
      <trkpt lat="40.231817" lon="-4.702700">
        <ele>1061.0</ele>
        <time>2013-07-02T13:39:08Z</time>
      </trkpt>
      <trkpt lat="40.231750" lon="-4.702733">
        <ele>1061.0</ele>
        <time>2013-07-02T13:39:09Z</time>
      </trkpt>
      <trkpt lat="40.231717" lon="-4.702783">
        <ele>1061.0</ele>
        <time>2013-07-02T13:39:10Z</time>
      </trkpt>
      <trkpt lat="40.231683" lon="-4.702850">
        <ele>1063.0</ele>
        <time>2013-07-02T13:39:11Z</time>
      </trkpt>
      <trkpt lat="40.231650" lon="-4.702917">
        <ele>1064.0</ele>
        <time>2013-07-02T13:39:12Z</time>
      </trkpt>
      <trkpt lat="40.231633" lon="-4.702983">
        <ele>1067.0</ele>
        <time>2013-07-02T13:39:13Z</time>
      </trkpt>
      <trkpt lat="40.231617" lon="-4.703017">
        <ele>1070.0</ele>
        <time>2013-07-02T13:39:14Z</time>
      </trkpt>
      <trkpt lat="40.231617" lon="-4.703067">
        <ele>1073.0</ele>
        <time>2013-07-02T13:39:15Z</time>
      </trkpt>
      <trkpt lat="40.231600" lon="-4.703100">
        <ele>1076.0</ele>
        <time>2013-07-02T13:39:16Z</time>
      </trkpt>
      <trkpt lat="40.231600" lon="-4.703133">
        <ele>1079.0</ele>
        <time>2013-07-02T13:39:17Z</time>
      </trkpt>
      <trkpt lat="40.231617" lon="-4.703183">
        <ele>1081.0</ele>
        <time>2013-07-02T13:39:18Z</time>
      </trkpt>
      <trkpt lat="40.231633" lon="-4.703233">
        <ele>1083.0</ele>
        <time>2013-07-02T13:39:19Z</time>
      </trkpt>
      <trkpt lat="40.231667" lon="-4.703267">
        <ele>1084.0</ele>
        <time>2013-07-02T13:39:20Z</time>
      </trkpt>
      <trkpt lat="40.231733" lon="-4.703317">
        <ele>1085.0</ele>
        <time>2013-07-02T13:39:21Z</time>
      </trkpt>
      <trkpt lat="40.231833" lon="-4.703317">
        <ele>1086.0</ele>
        <time>2013-07-02T13:39:22Z</time>
      </trkpt>
      <trkpt lat="40.231933" lon="-4.703317">
        <ele>1088.0</ele>
        <time>2013-07-02T13:39:23Z</time>
      </trkpt>
      <trkpt lat="40.232050" lon="-4.703267">
        <ele>1090.0</ele>
        <time>2013-07-02T13:39:24Z</time>
      </trkpt>
      <trkpt lat="40.232133" lon="-4.703200">
        <ele>1093.0</ele>
        <time>2013-07-02T13:39:25Z</time>
      </trkpt>
      <trkpt lat="40.232200" lon="-4.703083">
        <ele>1095.0</ele>
        <time>2013-07-02T13:39:26Z</time>
      </trkpt>
      <trkpt lat="40.232250" lon="-4.702950">
        <ele>1096.0</ele>
        <time>2013-07-02T13:39:27Z</time>
      </trkpt>
      <trkpt lat="40.232267" lon="-4.702800">
        <ele>1098.0</ele>
        <time>2013-07-02T13:39:28Z</time>
      </trkpt>
      <trkpt lat="40.232250" lon="-4.702667">
        <ele>1099.0</ele>
        <time>2013-07-02T13:39:29Z</time>
      </trkpt>
      <trkpt lat="40.232217" lon="-4.702567">
        <ele>1101.0</ele>
        <time>2013-07-02T13:39:30Z</time>
      </trkpt>
      <trkpt lat="40.232183" lon="-4.702467">
        <ele>1103.0</ele>
        <time>2013-07-02T13:39:31Z</time>
      </trkpt>
      <trkpt lat="40.232150" lon="-4.702383">
        <ele>1104.0</ele>
        <time>2013-07-02T13:39:32Z</time>
      </trkpt>
      <trkpt lat="40.232100" lon="-4.702283">
        <ele>1105.0</ele>
        <time>2013-07-02T13:39:33Z</time>
      </trkpt>
      <trkpt lat="40.232050" lon="-4.702200">
        <ele>1107.0</ele>
        <time>2013-07-02T13:39:34Z</time>
      </trkpt>
      <trkpt lat="40.231983" lon="-4.702150">
        <ele>1109.0</ele>
        <time>2013-07-02T13:39:35Z</time>
      </trkpt>
      <trkpt lat="40.231917" lon="-4.702117">
        <ele>1111.0</ele>
        <time>2013-07-02T13:39:36Z</time>
      </trkpt>
      <trkpt lat="40.231867" lon="-4.702100">
        <ele>1113.0</ele>
        <time>2013-07-02T13:39:37Z</time>
      </trkpt>
      <trkpt lat="40.231833" lon="-4.702100">
        <ele>1115.0</ele>
        <time>2013-07-02T13:39:38Z</time>
      </trkpt>
      <trkpt lat="40.231800" lon="-4.702117">
        <ele>1117.0</ele>
        <time>2013-07-02T13:39:39Z</time>
      </trkpt>
      <trkpt lat="40.231767" lon="-4.702150">
        <ele>1119.0</ele>
        <time>2013-07-02T13:39:40Z</time>
      </trkpt>
      <trkpt lat="40.231750" lon="-4.702183">
        <ele>1121.0</ele>
        <time>2013-07-02T13:39:41Z</time>
      </trkpt>
      <trkpt lat="40.231750" lon="-4.702233">
        <ele>1123.0</ele>
        <time>2013-07-02T13:39:42Z</time>
      </trkpt>
      <trkpt lat="40.231767" lon="-4.702267">
        <ele>1125.0</ele>
        <time>2013-07-02T13:39:43Z</time>
      </trkpt>
      <trkpt lat="40.231783" lon="-4.702317">
        <ele>1122.0</ele>
        <time>2013-07-02T13:39:44Z</time>
      </trkpt>
      <trkpt lat="40.231833" lon="-4.702367">
        <ele>1123.0</ele>
        <time>2013-07-02T13:39:45Z</time>
      </trkpt>
      <trkpt lat="40.231900" lon="-4.702433">
        <ele>1123.0</ele>
        <time>2013-07-02T13:39:46Z</time>
      </trkpt>
      <trkpt lat="40.231983" lon="-4.702467">
        <ele>1124.0</ele>
        <time>2013-07-02T13:39:47Z</time>
      </trkpt>
      <trkpt lat="40.232083" lon="-4.702450">
        <ele>1124.0</ele>
        <time>2013-07-02T13:39:48Z</time>
      </trkpt>
      <trkpt lat="40.232167" lon="-4.702383">
        <ele>1123.0</ele>
        <time>2013-07-02T13:39:49Z</time>
      </trkpt>
      <trkpt lat="40.232267" lon="-4.702267">
        <ele>1124.0</ele>
        <time>2013-07-02T13:39:50Z</time>
      </trkpt>
      <trkpt lat="40.232317" lon="-4.702133">
        <ele>1124.0</ele>
        <time>2013-07-02T13:39:51Z</time>
      </trkpt>
      <trkpt lat="40.232350" lon="-4.701983">
        <ele>1125.0</ele>
        <time>2013-07-02T13:39:52Z</time>
      </trkpt>
      <trkpt lat="40.232333" lon="-4.701850">
        <ele>1124.0</ele>
        <time>2013-07-02T13:39:53Z</time>
      </trkpt>
      <trkpt lat="40.232317" lon="-4.701733">
        <ele>1125.0</ele>
        <time>2013-07-02T13:39:54Z</time>
      </trkpt>
      <trkpt lat="40.232283" lon="-4.701600">
        <ele>1126.0</ele>
        <time>2013-07-02T13:39:55Z</time>
      </trkpt>
      <trkpt lat="40.232233" lon="-4.701483">
        <ele>1127.0</ele>
        <time>2013-07-02T13:39:56Z</time>
      </trkpt>
      <trkpt lat="40.232217" lon="-4.701367">
        <ele>1128.0</ele>
        <time>2013-07-02T13:39:57Z</time>
      </trkpt>
      <trkpt lat="40.232183" lon="-4.701250">
        <ele>1129.0</ele>
        <time>2013-07-02T13:39:58Z</time>
      </trkpt>
      <trkpt lat="40.232150" lon="-4.701150">
        <ele>1130.0</ele>
        <time>2013-07-02T13:39:59Z</time>
      </trkpt>
      <trkpt lat="40.232117" lon="-4.701033">
        <ele>1132.0</ele>
        <time>2013-07-02T13:40:00Z</time>
      </trkpt>
      <trkpt lat="40.232100" lon="-4.700917">
        <ele>1134.0</ele>
        <time>2013-07-02T13:40:01Z</time>
      </trkpt>
      <trkpt lat="40.232083" lon="-4.700817">
        <ele>1136.0</ele>
        <time>2013-07-02T13:40:02Z</time>
      </trkpt>
      <trkpt lat="40.232083" lon="-4.700700">
        <ele>1137.0</ele>
        <time>2013-07-02T13:40:03Z</time>
      </trkpt>
      <trkpt lat="40.232067" lon="-4.700600">
        <ele>1139.0</ele>
        <time>2013-07-02T13:40:04Z</time>
      </trkpt>
      <trkpt lat="40.232083" lon="-4.700483">
        <ele>1140.0</ele>
        <time>2013-07-02T13:40:05Z</time>
      </trkpt>
      <trkpt lat="40.232100" lon="-4.700350">
        <ele>1141.0</ele>
        <time>2013-07-02T13:40:06Z</time>
      </trkpt>
      <trkpt lat="40.232117" lon="-4.700233">
        <ele>1141.0</ele>
        <time>2013-07-02T13:40:07Z</time>
      </trkpt>
      <trkpt lat="40.232167" lon="-4.700117">
        <ele>1141.0</ele>
        <time>2013-07-02T13:40:08Z</time>
      </trkpt>
      <trkpt lat="40.232200" lon="-4.700000">
        <ele>1142.0</ele>
        <time>2013-07-02T13:40:09Z</time>
      </trkpt>
      <trkpt lat="40.232233" lon="-4.699883">
        <ele>1143.0</ele>
        <time>2013-07-02T13:40:10Z</time>
      </trkpt>
      <trkpt lat="40.232267" lon="-4.699767">
        <ele>1143.0</ele>
        <time>2013-07-02T13:40:11Z</time>
      </trkpt>
      <trkpt lat="40.232283" lon="-4.699633">
        <ele>1143.0</ele>
        <time>2013-07-02T13:40:12Z</time>
      </trkpt>
      <trkpt lat="40.232283" lon="-4.699517">
        <ele>1143.0</ele>
        <time>2013-07-02T13:40:13Z</time>
      </trkpt>
      <trkpt lat="40.232250" lon="-4.699400">
        <ele>1144.0</ele>
        <time>2013-07-02T13:40:14Z</time>
      </trkpt>
      <trkpt lat="40.232233" lon="-4.699300">
        <ele>1144.0</ele>
        <time>2013-07-02T13:40:15Z</time>
      </trkpt>
      <trkpt lat="40.232183" lon="-4.699233">
        <ele>1144.0</ele>
        <time>2013-07-02T13:40:16Z</time>
      </trkpt>
      <trkpt lat="40.232133" lon="-4.699167">
        <ele>1145.0</ele>
        <time>2013-07-02T13:40:17Z</time>
      </trkpt>
      <trkpt lat="40.232067" lon="-4.699117">
        <ele>1145.0</ele>
        <time>2013-07-02T13:40:18Z</time>
      </trkpt>
      <trkpt lat="40.232017" lon="-4.699083">
        <ele>1146.0</ele>
        <time>2013-07-02T13:40:19Z</time>
      </trkpt>
      <trkpt lat="40.231983" lon="-4.699050">
        <ele>1148.0</ele>
        <time>2013-07-02T13:40:20Z</time>
      </trkpt>
      <trkpt lat="40.231933" lon="-4.699017">
        <ele>1149.0</ele>
        <time>2013-07-02T13:40:21Z</time>
      </trkpt>
      <trkpt lat="40.231900" lon="-4.698967">
        <ele>1150.0</ele>
        <time>2013-07-02T13:40:22Z</time>
      </trkpt>
      <trkpt lat="40.231850" lon="-4.698933">
        <ele>1152.0</ele>
        <time>2013-07-02T13:40:23Z</time>
      </trkpt>
      <trkpt lat="40.231817" lon="-4.698900">
        <ele>1154.0</ele>
        <time>2013-07-02T13:40:24Z</time>
      </trkpt>
      <trkpt lat="40.231767" lon="-4.698850">
        <ele>1156.0</ele>
        <time>2013-07-02T13:40:25Z</time>
      </trkpt>
      <trkpt lat="40.231717" lon="-4.698817">
        <ele>1159.0</ele>
        <time>2013-07-02T13:40:26Z</time>
      </trkpt>
      <trkpt lat="40.231667" lon="-4.698767">
        <ele>1161.0</ele>
        <time>2013-07-02T13:40:27Z</time>
      </trkpt>
      <trkpt lat="40.231617" lon="-4.698700">
        <ele>1164.0</ele>
        <time>2013-07-02T13:40:28Z</time>
      </trkpt>
      <trkpt lat="40.231583" lon="-4.698650">
        <ele>1167.0</ele>
        <time>2013-07-02T13:40:29Z</time>
      </trkpt>
      <trkpt lat="40.231533" lon="-4.698600">
        <ele>1169.0</ele>
        <time>2013-07-02T13:40:30Z</time>
      </trkpt>
      <trkpt lat="40.231483" lon="-4.698550">
        <ele>1172.0</ele>
        <time>2013-07-02T13:40:31Z</time>
      </trkpt>
      <trkpt lat="40.231433" lon="-4.698500">
        <ele>1174.0</ele>
        <time>2013-07-02T13:40:32Z</time>
      </trkpt>
      <trkpt lat="40.231383" lon="-4.698450">
        <ele>1176.0</ele>
        <time>2013-07-02T13:40:33Z</time>
      </trkpt>
      <trkpt lat="40.231333" lon="-4.698400">
        <ele>1179.0</ele>
        <time>2013-07-02T13:40:34Z</time>
      </trkpt>
      <trkpt lat="40.231283" lon="-4.698367">
        <ele>1181.0</ele>
        <time>2013-07-02T13:40:35Z</time>
      </trkpt>
      <trkpt lat="40.231233" lon="-4.698333">
        <ele>1184.0</ele>
        <time>2013-07-02T13:40:36Z</time>
      </trkpt>
      <trkpt lat="40.231200" lon="-4.698333">
        <ele>1187.0</ele>
        <time>2013-07-02T13:40:37Z</time>
      </trkpt>
      <trkpt lat="40.231167" lon="-4.698317">
        <ele>1191.0</ele>
        <time>2013-07-02T13:40:38Z</time>
      </trkpt>
      <trkpt lat="40.231133" lon="-4.698300">
        <ele>1195.0</ele>
        <time>2013-07-02T13:40:39Z</time>
      </trkpt>
      <trkpt lat="40.231117" lon="-4.698283">
        <ele>1198.0</ele>
        <time>2013-07-02T13:40:40Z</time>
      </trkpt>
      <trkpt lat="40.231100" lon="-4.698283">
        <ele>1200.0</ele>
        <time>2013-07-02T13:40:41Z</time>
      </trkpt>
      <trkpt lat="40.231067" lon="-4.698283">
        <ele>1201.0</ele>
        <time>2013-07-02T13:40:42Z</time>
      </trkpt>
      <trkpt lat="40.231017" lon="-4.698300">
        <ele>1203.0</ele>
        <time>2013-07-02T13:40:43Z</time>
      </trkpt>
      <trkpt lat="40.230967" lon="-4.698283">
        <ele>1206.0</ele>
        <time>2013-07-02T13:40:44Z</time>
      </trkpt>
      <trkpt lat="40.230933" lon="-4.698217">
        <ele>1208.0</ele>
        <time>2013-07-02T13:40:45Z</time>
      </trkpt>
      <trkpt lat="40.230900" lon="-4.698083">
        <ele>1210.0</ele>
        <time>2013-07-02T13:40:46Z</time>
      </trkpt>
      <trkpt lat="40.230917" lon="-4.697933">
        <ele>1213.0</ele>
        <time>2013-07-02T13:40:47Z</time>
      </trkpt>
      <trkpt lat="40.230967" lon="-4.697783">
        <ele>1216.0</ele>
        <time>2013-07-02T13:40:48Z</time>
      </trkpt>
      <trkpt lat="40.231050" lon="-4.697683">
        <ele>1219.0</ele>
        <time>2013-07-02T13:40:49Z</time>
      </trkpt>
      <trkpt lat="40.231150" lon="-4.697617">
        <ele>1221.0</ele>
        <time>2013-07-02T13:40:50Z</time>
      </trkpt>
      <trkpt lat="40.231250" lon="-4.697567">
        <ele>1222.0</ele>
        <time>2013-07-02T13:40:51Z</time>
      </trkpt>
      <trkpt lat="40.231367" lon="-4.697567">
        <ele>1224.0</ele>
        <time>2013-07-02T13:40:52Z</time>
      </trkpt>
      <trkpt lat="40.231467" lon="-4.697583">
        <ele>1225.0</ele>
        <time>2013-07-02T13:40:53Z</time>
      </trkpt>
      <trkpt lat="40.231533" lon="-4.697633">
        <ele>1228.0</ele>
        <time>2013-07-02T13:40:54Z</time>
      </trkpt>
      <trkpt lat="40.231600" lon="-4.697683">
        <ele>1230.0</ele>
        <time>2013-07-02T13:40:55Z</time>
      </trkpt>
      <trkpt lat="40.231650" lon="-4.697733">
        <ele>1233.0</ele>
        <time>2013-07-02T13:40:56Z</time>
      </trkpt>
      <trkpt lat="40.231700" lon="-4.697783">
        <ele>1236.0</ele>
        <time>2013-07-02T13:40:57Z</time>
      </trkpt>
      <trkpt lat="40.231717" lon="-4.697833">
        <ele>1238.0</ele>
        <time>2013-07-02T13:40:58Z</time>
      </trkpt>
      <trkpt lat="40.231717" lon="-4.697883">
        <ele>1240.0</ele>
        <time>2013-07-02T13:40:59Z</time>
      </trkpt>
      <trkpt lat="40.231667" lon="-4.697917">
        <ele>1241.0</ele>
        <time>2013-07-02T13:41:00Z</time>
      </trkpt>
      <trkpt lat="40.231600" lon="-4.697917">
        <ele>1243.0</ele>
        <time>2013-07-02T13:41:01Z</time>
      </trkpt>
      <trkpt lat="40.231550" lon="-4.697900">
        <ele>1247.0</ele>
        <time>2013-07-02T13:41:02Z</time>
      </trkpt>
      <trkpt lat="40.231483" lon="-4.697833">
        <ele>1251.0</ele>
        <time>2013-07-02T13:41:03Z</time>
      </trkpt>
      <trkpt lat="40.231450" lon="-4.697767">
        <ele>1256.0</ele>
        <time>2013-07-02T13:41:04Z</time>
      </trkpt>
      <trkpt lat="40.231417" lon="-4.697683">
        <ele>1260.0</ele>
        <time>2013-07-02T13:41:05Z</time>
      </trkpt>
      <trkpt lat="40.231383" lon="-4.697600">
        <ele>1264.0</ele>
        <time>2013-07-02T13:41:06Z</time>
      </trkpt>
      <trkpt lat="40.231350" lon="-4.697517">
        <ele>1268.0</ele>
        <time>2013-07-02T13:41:07Z</time>
      </trkpt>
      <trkpt lat="40.231333" lon="-4.697400">
        <ele>1272.0</ele>
        <time>2013-07-02T13:41:08Z</time>
      </trkpt>
      <trkpt lat="40.231317" lon="-4.697283">
        <ele>1276.0</ele>
        <time>2013-07-02T13:41:09Z</time>
      </trkpt>
      <trkpt lat="40.231317" lon="-4.697150">
        <ele>1280.0</ele>
        <time>2013-07-02T13:41:10Z</time>
      </trkpt>
      <trkpt lat="40.231333" lon="-4.697017">
        <ele>1283.0</ele>
        <time>2013-07-02T13:41:11Z</time>
      </trkpt>
      <trkpt lat="40.231367" lon="-4.696883">
        <ele>1286.0</ele>
        <time>2013-07-02T13:41:12Z</time>
      </trkpt>
      <trkpt lat="40.231450" lon="-4.696783">
        <ele>1288.0</ele>
        <time>2013-07-02T13:41:13Z</time>
      </trkpt>
      <trkpt lat="40.231550" lon="-4.696700">
        <ele>1290.0</ele>
        <time>2013-07-02T13:41:14Z</time>
      </trkpt>
      <trkpt lat="40.231650" lon="-4.696683">
        <ele>1292.0</ele>
        <time>2013-07-02T13:41:15Z</time>
      </trkpt>
      <trkpt lat="40.231733" lon="-4.696733">
        <ele>1294.0</ele>
        <time>2013-07-02T13:41:16Z</time>
      </trkpt>
      <trkpt lat="40.231783" lon="-4.696800">
        <ele>1297.0</ele>
        <time>2013-07-02T13:41:17Z</time>
      </trkpt>
      <trkpt lat="40.231783" lon="-4.696867">
        <ele>1301.0</ele>
        <time>2013-07-02T13:41:18Z</time>
      </trkpt>
      <trkpt lat="40.231783" lon="-4.696917">
        <ele>1305.0</ele>
        <time>2013-07-02T13:41:19Z</time>
      </trkpt>
      <trkpt lat="40.231767" lon="-4.696950">
        <ele>1309.0</ele>
        <time>2013-07-02T13:41:20Z</time>
      </trkpt>
      <trkpt lat="40.231767" lon="-4.696983">
        <ele>1314.0</ele>
        <time>2013-07-02T13:41:21Z</time>
      </trkpt>
      <trkpt lat="40.231767" lon="-4.697017">
        <ele>1317.0</ele>
        <time>2013-07-02T13:41:22Z</time>
      </trkpt>
      <trkpt lat="40.231750" lon="-4.697050">
        <ele>1321.0</ele>
        <time>2013-07-02T13:41:23Z</time>
      </trkpt>
      <trkpt lat="40.231700" lon="-4.697050">
        <ele>1325.0</ele>
        <time>2013-07-02T13:41:24Z</time>
      </trkpt>
      <trkpt lat="40.231633" lon="-4.697017">
        <ele>1328.0</ele>
        <time>2013-07-02T13:41:25Z</time>
      </trkpt>
      <trkpt lat="40.231583" lon="-4.696933">
        <ele>1333.0</ele>
        <time>2013-07-02T13:41:26Z</time>
      </trkpt>
      <trkpt lat="40.231550" lon="-4.696850">
        <ele>1339.0</ele>
        <time>2013-07-02T13:41:27Z</time>
      </trkpt>
      <trkpt lat="40.231517" lon="-4.696767">
        <ele>1345.0</ele>
        <time>2013-07-02T13:41:28Z</time>
      </trkpt>
      <trkpt lat="40.231483" lon="-4.696700">
        <ele>1350.0</ele>
        <time>2013-07-02T13:41:29Z</time>
      </trkpt>
      <trkpt lat="40.231467" lon="-4.696650">
        <ele>1354.0</ele>
        <time>2013-07-02T13:41:30Z</time>
      </trkpt>
      <trkpt lat="40.231433" lon="-4.696567">
        <ele>1358.0</ele>
        <time>2013-07-02T13:41:31Z</time>
      </trkpt>
      <trkpt lat="40.231417" lon="-4.696467">
        <ele>1361.0</ele>
        <time>2013-07-02T13:41:32Z</time>
      </trkpt>
      <trkpt lat="40.231417" lon="-4.696333">
        <ele>1364.0</ele>
        <time>2013-07-02T13:41:33Z</time>
      </trkpt>
      <trkpt lat="40.231433" lon="-4.696200">
        <ele>1367.0</ele>
        <time>2013-07-02T13:41:34Z</time>
      </trkpt>
      <trkpt lat="40.231483" lon="-4.696067">
        <ele>1371.0</ele>
        <time>2013-07-02T13:41:35Z</time>
      </trkpt>
      <trkpt lat="40.231550" lon="-4.695967">
        <ele>1373.0</ele>
        <time>2013-07-02T13:41:36Z</time>
      </trkpt>
      <trkpt lat="40.231650" lon="-4.695900">
        <ele>1376.0</ele>
        <time>2013-07-02T13:41:37Z</time>
      </trkpt>
      <trkpt lat="40.231750" lon="-4.695850">
        <ele>1378.0</ele>
        <time>2013-07-02T13:41:38Z</time>
      </trkpt>
      <trkpt lat="40.231867" lon="-4.695850">
        <ele>1380.0</ele>
        <time>2013-07-02T13:41:39Z</time>
      </trkpt>
      <trkpt lat="40.231950" lon="-4.695883">
        <ele>1383.0</ele>
        <time>2013-07-02T13:41:40Z</time>
      </trkpt>
      <trkpt lat="40.232017" lon="-4.695933">
        <ele>1386.0</ele>
        <time>2013-07-02T13:41:41Z</time>
      </trkpt>
      <trkpt lat="40.232067" lon="-4.696000">
        <ele>1389.0</ele>
        <time>2013-07-02T13:41:42Z</time>
      </trkpt>
      <trkpt lat="40.232100" lon="-4.696067">
        <ele>1391.0</ele>
        <time>2013-07-02T13:41:43Z</time>
      </trkpt>
      <trkpt lat="40.232117" lon="-4.696133">
        <ele>1393.0</ele>
        <time>2013-07-02T13:41:44Z</time>
      </trkpt>
      <trkpt lat="40.232117" lon="-4.696217">
        <ele>1395.0</ele>
        <time>2013-07-02T13:41:45Z</time>
      </trkpt>
      <trkpt lat="40.232083" lon="-4.696267">
        <ele>1397.0</ele>
        <time>2013-07-02T13:41:46Z</time>
      </trkpt>
      <trkpt lat="40.232017" lon="-4.696283">
        <ele>1399.0</ele>
        <time>2013-07-02T13:41:47Z</time>
      </trkpt>
      <trkpt lat="40.231950" lon="-4.696250">
        <ele>1403.0</ele>
        <time>2013-07-02T13:41:48Z</time>
      </trkpt>
      <trkpt lat="40.231900" lon="-4.696183">
        <ele>1407.0</ele>
        <time>2013-07-02T13:41:49Z</time>
      </trkpt>
      <trkpt lat="40.231867" lon="-4.696117">
        <ele>1411.0</ele>
        <time>2013-07-02T13:41:50Z</time>
      </trkpt>
      <trkpt lat="40.231833" lon="-4.696050">
        <ele>1415.0</ele>
        <time>2013-07-02T13:41:51Z</time>
      </trkpt>
      <trkpt lat="40.231800" lon="-4.696000">
        <ele>1419.0</ele>
        <time>2013-07-02T13:41:52Z</time>
      </trkpt>
      <trkpt lat="40.231750" lon="-4.695933">
        <ele>1422.0</ele>
        <time>2013-07-02T13:41:53Z</time>
      </trkpt>
      <trkpt lat="40.231717" lon="-4.695833">
        <ele>1425.0</ele>
        <time>2013-07-02T13:41:54Z</time>
      </trkpt>
      <trkpt lat="40.231683" lon="-4.695733">
        <ele>1429.0</ele>
        <time>2013-07-02T13:41:55Z</time>
      </trkpt>
      <trkpt lat="40.231683" lon="-4.695600">
        <ele>1433.0</ele>
        <time>2013-07-02T13:41:56Z</time>
      </trkpt>
      <trkpt lat="40.231700" lon="-4.695467">
        <ele>1438.0</ele>
        <time>2013-07-02T13:41:57Z</time>
      </trkpt>
      <trkpt lat="40.231750" lon="-4.695350">
        <ele>1443.0</ele>
        <time>2013-07-02T13:41:58Z</time>
      </trkpt>
      <trkpt lat="40.231817" lon="-4.695250">
        <ele>1448.0</ele>
        <time>2013-07-02T13:41:59Z</time>
      </trkpt>
      <trkpt lat="40.231900" lon="-4.695200">
        <ele>1453.0</ele>
        <time>2013-07-02T13:42:00Z</time>
      </trkpt>
      <trkpt lat="40.231983" lon="-4.695150">
        <ele>1457.0</ele>
        <time>2013-07-02T13:42:01Z</time>
      </trkpt>
      <trkpt lat="40.232050" lon="-4.695150">
        <ele>1461.0</ele>
        <time>2013-07-02T13:42:02Z</time>
      </trkpt>
      <trkpt lat="40.232133" lon="-4.695183">
        <ele>1464.0</ele>
        <time>2013-07-02T13:42:03Z</time>
      </trkpt>
      <trkpt lat="40.232200" lon="-4.695233">
        <ele>1467.0</ele>
        <time>2013-07-02T13:42:04Z</time>
      </trkpt>
      <trkpt lat="40.232250" lon="-4.695300">
        <ele>1470.0</ele>
        <time>2013-07-02T13:42:05Z</time>
      </trkpt>
      <trkpt lat="40.232267" lon="-4.695383">
        <ele>1474.0</ele>
        <time>2013-07-02T13:42:06Z</time>
      </trkpt>
      <trkpt lat="40.232267" lon="-4.695450">
        <ele>1478.0</ele>
        <time>2013-07-02T13:42:07Z</time>
      </trkpt>
      <trkpt lat="40.232250" lon="-4.695517">
        <ele>1482.0</ele>
        <time>2013-07-02T13:42:08Z</time>
      </trkpt>
      <trkpt lat="40.232217" lon="-4.695550">
        <ele>1486.0</ele>
        <time>2013-07-02T13:42:09Z</time>
      </trkpt>
      <trkpt lat="40.232167" lon="-4.695583">
        <ele>1489.0</ele>
        <time>2013-07-02T13:42:10Z</time>
      </trkpt>
      <trkpt lat="40.232133" lon="-4.695583">
        <ele>1492.0</ele>
        <time>2013-07-02T13:42:11Z</time>
      </trkpt>
      <trkpt lat="40.232083" lon="-4.695583">
        <ele>1495.0</ele>
        <time>2013-07-02T13:42:12Z</time>
      </trkpt>
      <trkpt lat="40.232033" lon="-4.695550">
        <ele>1497.0</ele>
        <time>2013-07-02T13:42:13Z</time>
      </trkpt>
      <trkpt lat="40.231967" lon="-4.695550">
        <ele>1498.0</ele>
        <time>2013-07-02T13:42:14Z</time>
      </trkpt>
      <trkpt lat="40.231917" lon="-4.695517">
        <ele>1501.0</ele>
        <time>2013-07-02T13:42:15Z</time>
      </trkpt>
      <trkpt lat="40.231867" lon="-4.695467">
        <ele>1505.0</ele>
        <time>2013-07-02T13:42:16Z</time>
      </trkpt>
      <trkpt lat="40.231833" lon="-4.695400">
        <ele>1510.0</ele>
        <time>2013-07-02T13:42:17Z</time>
      </trkpt>
      <trkpt lat="40.231833" lon="-4.695317">
        <ele>1513.0</ele>
        <time>2013-07-02T13:42:18Z</time>
      </trkpt>
      <trkpt lat="40.231817" lon="-4.695217">
        <ele>1517.0</ele>
        <time>2013-07-02T13:42:19Z</time>
      </trkpt>
      <trkpt lat="40.231817" lon="-4.695117">
        <ele>1521.0</ele>
        <time>2013-07-02T13:42:20Z</time>
      </trkpt>
      <trkpt lat="40.231833" lon="-4.695017">
        <ele>1526.0</ele>
        <time>2013-07-02T13:42:21Z</time>
      </trkpt>
      <trkpt lat="40.231883" lon="-4.694917">
        <ele>1531.0</ele>
        <time>2013-07-02T13:42:22Z</time>
      </trkpt>
      <trkpt lat="40.231950" lon="-4.694850">
        <ele>1535.0</ele>
        <time>2013-07-02T13:42:23Z</time>
      </trkpt>
      <trkpt lat="40.232050" lon="-4.694817">
        <ele>1538.0</ele>
        <time>2013-07-02T13:42:24Z</time>
      </trkpt>
      <trkpt lat="40.232167" lon="-4.694800">
        <ele>1542.0</ele>
        <time>2013-07-02T13:42:25Z</time>
      </trkpt>
      <trkpt lat="40.232267" lon="-4.694817">
        <ele>1546.0</ele>
        <time>2013-07-02T13:42:26Z</time>
      </trkpt>
      <trkpt lat="40.232350" lon="-4.694850">
        <ele>1550.0</ele>
        <time>2013-07-02T13:42:27Z</time>
      </trkpt>
      <trkpt lat="40.232433" lon="-4.694917">
        <ele>1555.0</ele>
        <time>2013-07-02T13:42:28Z</time>
      </trkpt>
      <trkpt lat="40.232483" lon="-4.694983">
        <ele>1559.0</ele>
        <time>2013-07-02T13:42:29Z</time>
      </trkpt>
      <trkpt lat="40.232517" lon="-4.695050">
        <ele>1563.0</ele>
        <time>2013-07-02T13:42:30Z</time>
      </trkpt>
      <trkpt lat="40.232550" lon="-4.695117">
        <ele>1567.0</ele>
        <time>2013-07-02T13:42:31Z</time>
      </trkpt>
      <trkpt lat="40.232550" lon="-4.695183">
        <ele>1570.0</ele>
        <time>2013-07-02T13:42:32Z</time>
      </trkpt>
      <trkpt lat="40.232533" lon="-4.695267">
        <ele>1573.0</ele>
        <time>2013-07-02T13:42:33Z</time>
      </trkpt>
      <trkpt lat="40.232517" lon="-4.695333">
        <ele>1574.0</ele>
        <time>2013-07-02T13:42:34Z</time>
      </trkpt>
      <trkpt lat="40.232483" lon="-4.695383">
        <ele>1576.0</ele>
        <time>2013-07-02T13:42:35Z</time>
      </trkpt>
      <trkpt lat="40.232417" lon="-4.695400">
        <ele>1578.0</ele>
        <time>2013-07-02T13:42:36Z</time>
      </trkpt>
      <trkpt lat="40.232367" lon="-4.695367">
        <ele>1580.0</ele>
        <time>2013-07-02T13:42:37Z</time>
      </trkpt>
      <trkpt lat="40.232333" lon="-4.695300">
        <ele>1581.0</ele>
        <time>2013-07-02T13:42:38Z</time>
      </trkpt>
      <trkpt lat="40.232283" lon="-4.695217">
        <ele>1582.0</ele>
        <time>2013-07-02T13:42:39Z</time>
      </trkpt>
      <trkpt lat="40.232250" lon="-4.695133">
        <ele>1585.0</ele>
        <time>2013-07-02T13:42:40Z</time>
      </trkpt>
      <trkpt lat="40.232233" lon="-4.695050">
        <ele>1588.0</ele>
        <time>2013-07-02T13:42:41Z</time>
      </trkpt>
      <trkpt lat="40.232217" lon="-4.694967">
        <ele>1591.0</ele>
        <time>2013-07-02T13:42:42Z</time>
      </trkpt>
      <trkpt lat="40.232233" lon="-4.694867">
        <ele>1592.0</ele>
        <time>2013-07-02T13:42:43Z</time>
      </trkpt>
      <trkpt lat="40.232250" lon="-4.694750">
        <ele>1594.0</ele>
        <time>2013-07-02T13:42:44Z</time>
      </trkpt>
      <trkpt lat="40.232267" lon="-4.694617">
        <ele>1596.0</ele>
        <time>2013-07-02T13:42:45Z</time>
      </trkpt>
      <trkpt lat="40.232300" lon="-4.694483">
        <ele>1600.0</ele>
        <time>2013-07-02T13:42:46Z</time>
      </trkpt>
      <trkpt lat="40.232333" lon="-4.694367">
        <ele>1606.0</ele>
        <time>2013-07-02T13:42:47Z</time>
      </trkpt>
      <trkpt lat="40.232383" lon="-4.694283">
        <ele>1611.0</ele>
        <time>2013-07-02T13:42:48Z</time>
      </trkpt>
      <trkpt lat="40.232433" lon="-4.694200">
        <ele>1615.0</ele>
        <time>2013-07-02T13:42:49Z</time>
      </trkpt>
      <trkpt lat="40.232500" lon="-4.694117">
        <ele>1619.0</ele>
        <time>2013-07-02T13:42:50Z</time>
      </trkpt>
      <trkpt lat="40.232583" lon="-4.694050">
        <ele>1621.0</ele>
        <time>2013-07-02T13:42:51Z</time>
      </trkpt>
      <trkpt lat="40.232683" lon="-4.693983">
        <ele>1624.0</ele>
        <time>2013-07-02T13:42:52Z</time>
      </trkpt>
      <trkpt lat="40.232783" lon="-4.693933">
        <ele>1627.0</ele>
        <time>2013-07-02T13:42:53Z</time>
      </trkpt>
      <trkpt lat="40.232883" lon="-4.693933">
        <ele>1631.0</ele>
        <time>2013-07-02T13:42:54Z</time>
      </trkpt>
      <trkpt lat="40.232983" lon="-4.693967">
        <ele>1634.0</ele>
        <time>2013-07-02T13:42:55Z</time>
      </trkpt>
      <trkpt lat="40.233050" lon="-4.694033">
        <ele>1638.0</ele>
        <time>2013-07-02T13:42:56Z</time>
      </trkpt>
      <trkpt lat="40.233117" lon="-4.694100">
        <ele>1641.0</ele>
        <time>2013-07-02T13:42:57Z</time>
      </trkpt>
      <trkpt lat="40.233167" lon="-4.694183">
        <ele>1645.0</ele>
        <time>2013-07-02T13:42:58Z</time>
      </trkpt>
      <trkpt lat="40.233183" lon="-4.694283">
        <ele>1648.0</ele>
        <time>2013-07-02T13:42:59Z</time>
      </trkpt>
      <trkpt lat="40.233167" lon="-4.694350">
        <ele>1650.0</ele>
        <time>2013-07-02T13:43:00Z</time>
      </trkpt>
      <trkpt lat="40.233133" lon="-4.694417">
        <ele>1653.0</ele>
        <time>2013-07-02T13:43:01Z</time>
      </trkpt>
      <trkpt lat="40.233083" lon="-4.694450">
        <ele>1654.0</ele>
        <time>2013-07-02T13:43:02Z</time>
      </trkpt>
      <trkpt lat="40.233017" lon="-4.694467">
        <ele>1656.0</ele>
        <time>2013-07-02T13:43:03Z</time>
      </trkpt>
      <trkpt lat="40.232967" lon="-4.694467">
        <ele>1658.0</ele>
        <time>2013-07-02T13:43:04Z</time>
      </trkpt>
      <trkpt lat="40.232900" lon="-4.694450">
        <ele>1659.0</ele>
        <time>2013-07-02T13:43:05Z</time>
      </trkpt>
      <trkpt lat="40.232850" lon="-4.694400">
        <ele>1661.0</ele>
        <time>2013-07-02T13:43:06Z</time>
      </trkpt>
      <trkpt lat="40.232817" lon="-4.694333">
        <ele>1664.0</ele>
        <time>2013-07-02T13:43:07Z</time>
      </trkpt>
      <trkpt lat="40.232783" lon="-4.694233">
        <ele>1667.0</ele>
        <time>2013-07-02T13:43:08Z</time>
      </trkpt>
      <trkpt lat="40.232783" lon="-4.694117">
        <ele>1670.0</ele>
        <time>2013-07-02T13:43:09Z</time>
      </trkpt>
      <trkpt lat="40.232783" lon="-4.694000">
        <ele>1674.0</ele>
        <time>2013-07-02T13:43:10Z</time>
      </trkpt>
      <trkpt lat="40.232817" lon="-4.693883">
        <ele>1677.0</ele>
        <time>2013-07-02T13:43:11Z</time>
      </trkpt>
      <trkpt lat="40.232867" lon="-4.693783">
        <ele>1680.0</ele>
        <time>2013-07-02T13:43:12Z</time>
      </trkpt>
      <trkpt lat="40.232933" lon="-4.693683">
        <ele>1684.0</ele>
        <time>2013-07-02T13:43:13Z</time>
      </trkpt>
      <trkpt lat="40.233000" lon="-4.693600">
        <ele>1688.0</ele>
        <time>2013-07-02T13:43:14Z</time>
      </trkpt>
      <trkpt lat="40.233083" lon="-4.693517">
        <ele>1692.0</ele>
        <time>2013-07-02T13:43:15Z</time>
      </trkpt>
      <trkpt lat="40.233150" lon="-4.693467">
        <ele>1696.0</ele>
        <time>2013-07-02T13:43:16Z</time>
      </trkpt>
      <trkpt lat="40.233233" lon="-4.693417">
        <ele>1699.0</ele>
        <time>2013-07-02T13:43:17Z</time>
      </trkpt>
      <trkpt lat="40.233333" lon="-4.693383">
        <ele>1702.0</ele>
        <time>2013-07-02T13:43:18Z</time>
      </trkpt>
      <trkpt lat="40.233433" lon="-4.693383">
        <ele>1704.0</ele>
        <time>2013-07-02T13:43:19Z</time>
      </trkpt>
      <trkpt lat="40.233533" lon="-4.693400">
        <ele>1707.0</ele>
        <time>2013-07-02T13:43:20Z</time>
      </trkpt>
      <trkpt lat="40.233617" lon="-4.693450">
        <ele>1710.0</ele>
        <time>2013-07-02T13:43:21Z</time>
      </trkpt>
      <trkpt lat="40.233683" lon="-4.693517">
        <ele>1712.0</ele>
        <time>2013-07-02T13:43:22Z</time>
      </trkpt>
      <trkpt lat="40.233700" lon="-4.693600">
        <ele>1715.0</ele>
        <time>2013-07-02T13:43:23Z</time>
      </trkpt>
      <trkpt lat="40.233700" lon="-4.693667">
        <ele>1718.0</ele>
        <time>2013-07-02T13:43:24Z</time>
      </trkpt>
      <trkpt lat="40.233667" lon="-4.693733">
        <ele>1721.0</ele>
        <time>2013-07-02T13:43:25Z</time>
      </trkpt>
      <trkpt lat="40.233633" lon="-4.693767">
        <ele>1723.0</ele>
        <time>2013-07-02T13:43:26Z</time>
      </trkpt>
      <trkpt lat="40.233583" lon="-4.693783">
        <ele>1725.0</ele>
        <time>2013-07-02T13:43:27Z</time>
      </trkpt>
      <trkpt lat="40.233550" lon="-4.693783">
        <ele>1727.0</ele>
        <time>2013-07-02T13:43:28Z</time>
      </trkpt>
      <trkpt lat="40.233500" lon="-4.693750">
        <ele>1728.0</ele>
        <time>2013-07-02T13:43:29Z</time>
      </trkpt>
      <trkpt lat="40.233450" lon="-4.693667">
        <ele>1730.0</ele>
        <time>2013-07-02T13:43:30Z</time>
      </trkpt>
      <trkpt lat="40.233400" lon="-4.693567">
        <ele>1733.0</ele>
        <time>2013-07-02T13:43:31Z</time>
      </trkpt>
      <trkpt lat="40.233383" lon="-4.693467">
        <ele>1736.0</ele>
        <time>2013-07-02T13:43:32Z</time>
      </trkpt>
      <trkpt lat="40.233367" lon="-4.693367">
        <ele>1740.0</ele>
        <time>2013-07-02T13:43:33Z</time>
      </trkpt>
      <trkpt lat="40.233367" lon="-4.693267">
        <ele>1743.0</ele>
        <time>2013-07-02T13:43:34Z</time>
      </trkpt>
      <trkpt lat="40.233383" lon="-4.693167">
        <ele>1746.0</ele>
        <time>2013-07-02T13:43:35Z</time>
      </trkpt>
      <trkpt lat="40.233400" lon="-4.693033">
        <ele>1749.0</ele>
        <time>2013-07-02T13:43:36Z</time>
      </trkpt>
      <trkpt lat="40.233433" lon="-4.692917">
        <ele>1753.0</ele>
        <time>2013-07-02T13:43:37Z</time>
      </trkpt>
      <trkpt lat="40.233500" lon="-4.692833">
        <ele>1757.0</ele>
        <time>2013-07-02T13:43:38Z</time>
      </trkpt>
      <trkpt lat="40.233567" lon="-4.692767">
        <ele>1760.0</ele>
        <time>2013-07-02T13:43:39Z</time>
      </trkpt>
      <trkpt lat="40.233650" lon="-4.692700">
        <ele>1763.0</ele>
        <time>2013-07-02T13:43:40Z</time>
      </trkpt>
      <trkpt lat="40.233733" lon="-4.692650">
        <ele>1766.0</ele>
        <time>2013-07-02T13:43:41Z</time>
      </trkpt>
      <trkpt lat="40.233833" lon="-4.692617">
        <ele>1768.0</ele>
        <time>2013-07-02T13:43:42Z</time>
      </trkpt>
      <trkpt lat="40.233933" lon="-4.692600">
        <ele>1770.0</ele>
        <time>2013-07-02T13:43:43Z</time>
      </trkpt>
      <trkpt lat="40.234033" lon="-4.692600">
        <ele>1772.0</ele>
        <time>2013-07-02T13:43:44Z</time>
      </trkpt>
      <trkpt lat="40.234133" lon="-4.692650">
        <ele>1774.0</ele>
        <time>2013-07-02T13:43:45Z</time>
      </trkpt>
      <trkpt lat="40.234217" lon="-4.692717">
        <ele>1777.0</ele>
        <time>2013-07-02T13:43:46Z</time>
      </trkpt>
      <trkpt lat="40.234267" lon="-4.692783">
        <ele>1779.0</ele>
        <time>2013-07-02T13:43:47Z</time>
      </trkpt>
      <trkpt lat="40.234283" lon="-4.692867">
        <ele>1781.0</ele>
        <time>2013-07-02T13:43:48Z</time>
      </trkpt>
      <trkpt lat="40.234283" lon="-4.692950">
        <ele>1783.0</ele>
        <time>2013-07-02T13:43:49Z</time>
      </trkpt>
      <trkpt lat="40.234267" lon="-4.693000">
        <ele>1785.0</ele>
        <time>2013-07-02T13:43:50Z</time>
      </trkpt>
      <trkpt lat="40.234233" lon="-4.693050">
        <ele>1786.0</ele>
        <time>2013-07-02T13:43:51Z</time>
      </trkpt>
      <trkpt lat="40.234183" lon="-4.693067">
        <ele>1787.0</ele>
        <time>2013-07-02T13:43:52Z</time>
      </trkpt>
      <trkpt lat="40.234133" lon="-4.693067">
        <ele>1789.0</ele>
        <time>2013-07-02T13:43:53Z</time>
      </trkpt>
      <trkpt lat="40.234083" lon="-4.693033">
        <ele>1793.0</ele>
        <time>2013-07-02T13:43:54Z</time>
      </trkpt>
      <trkpt lat="40.234050" lon="-4.692983">
        <ele>1796.0</ele>
        <time>2013-07-02T13:43:55Z</time>
      </trkpt>
      <trkpt lat="40.234017" lon="-4.692900">
        <ele>1797.0</ele>
        <time>2013-07-02T13:43:56Z</time>
      </trkpt>
      <trkpt lat="40.233983" lon="-4.692817">
        <ele>1799.0</ele>
        <time>2013-07-02T13:43:57Z</time>
      </trkpt>
      <trkpt lat="40.233967" lon="-4.692733">
        <ele>1801.0</ele>
        <time>2013-07-02T13:43:58Z</time>
      </trkpt>
      <trkpt lat="40.233933" lon="-4.692650">
        <ele>1803.0</ele>
        <time>2013-07-02T13:43:59Z</time>
      </trkpt>
      <trkpt lat="40.233933" lon="-4.692533">
        <ele>1806.0</ele>
        <time>2013-07-02T13:44:00Z</time>
      </trkpt>
      <trkpt lat="40.233950" lon="-4.692400">
        <ele>1808.0</ele>
        <time>2013-07-02T13:44:01Z</time>
      </trkpt>
      <trkpt lat="40.234000" lon="-4.692283">
        <ele>1811.0</ele>
        <time>2013-07-02T13:44:02Z</time>
      </trkpt>
      <trkpt lat="40.234050" lon="-4.692183">
        <ele>1814.0</ele>
        <time>2013-07-02T13:44:03Z</time>
      </trkpt>
      <trkpt lat="40.234100" lon="-4.692067">
        <ele>1818.0</ele>
        <time>2013-07-02T13:44:04Z</time>
      </trkpt>
      <trkpt lat="40.234150" lon="-4.691983">
        <ele>1822.0</ele>
        <time>2013-07-02T13:44:05Z</time>
      </trkpt>
      <trkpt lat="40.234217" lon="-4.691883">
        <ele>1823.0</ele>
        <time>2013-07-02T13:44:06Z</time>
      </trkpt>
      <trkpt lat="40.234300" lon="-4.691800">
        <ele>1825.0</ele>
        <time>2013-07-02T13:44:07Z</time>
      </trkpt>
      <trkpt lat="40.234400" lon="-4.691733">
        <ele>1828.0</ele>
        <time>2013-07-02T13:44:08Z</time>
      </trkpt>
      <trkpt lat="40.234500" lon="-4.691700">
        <ele>1831.0</ele>
        <time>2013-07-02T13:44:09Z</time>
      </trkpt>
      <trkpt lat="40.234600" lon="-4.691717">
        <ele>1833.0</ele>
        <time>2013-07-02T13:44:10Z</time>
      </trkpt>
      <trkpt lat="40.234667" lon="-4.691767">
        <ele>1836.0</ele>
        <time>2013-07-02T13:44:11Z</time>
      </trkpt>
      <trkpt lat="40.234750" lon="-4.691817">
        <ele>1837.0</ele>
        <time>2013-07-02T13:44:12Z</time>
      </trkpt>
      <trkpt lat="40.234817" lon="-4.691883">
        <ele>1840.0</ele>
        <time>2013-07-02T13:44:13Z</time>
      </trkpt>
      <trkpt lat="40.234883" lon="-4.691933">
        <ele>1842.0</ele>
        <time>2013-07-02T13:44:14Z</time>
      </trkpt>
      <trkpt lat="40.234917" lon="-4.692017">
        <ele>1845.0</ele>
        <time>2013-07-02T13:44:15Z</time>
      </trkpt>
      <trkpt lat="40.234933" lon="-4.692083">
        <ele>1847.0</ele>
        <time>2013-07-02T13:44:16Z</time>
      </trkpt>
      <trkpt lat="40.234900" lon="-4.692150">
        <ele>1848.0</ele>
        <time>2013-07-02T13:44:17Z</time>
      </trkpt>
      <trkpt lat="40.234867" lon="-4.692167">
        <ele>1850.0</ele>
        <time>2013-07-02T13:44:18Z</time>
      </trkpt>
      <trkpt lat="40.234817" lon="-4.692167">
        <ele>1852.0</ele>
        <time>2013-07-02T13:44:19Z</time>
      </trkpt>
      <trkpt lat="40.234767" lon="-4.692150">
        <ele>1857.0</ele>
        <time>2013-07-02T13:44:20Z</time>
      </trkpt>
      <trkpt lat="40.234733" lon="-4.692117">
        <ele>1860.0</ele>
        <time>2013-07-02T13:44:21Z</time>
      </trkpt>
      <trkpt lat="40.234700" lon="-4.692083">
        <ele>1863.0</ele>
        <time>2013-07-02T13:44:22Z</time>
      </trkpt>
      <trkpt lat="40.234667" lon="-4.692050">
        <ele>1866.0</ele>
        <time>2013-07-02T13:44:23Z</time>
      </trkpt>
      <trkpt lat="40.234617" lon="-4.692000">
        <ele>1869.0</ele>
        <time>2013-07-02T13:44:24Z</time>
      </trkpt>
      <trkpt lat="40.234600" lon="-4.691917">
        <ele>1871.0</ele>
        <time>2013-07-02T13:44:25Z</time>
      </trkpt>
      <trkpt lat="40.234583" lon="-4.691800">
        <ele>1873.0</ele>
        <time>2013-07-02T13:44:26Z</time>
      </trkpt>
      <trkpt lat="40.234583" lon="-4.691683">
        <ele>1877.0</ele>
        <time>2013-07-02T13:44:27Z</time>
      </trkpt>
      <trkpt lat="40.234617" lon="-4.691583">
        <ele>1880.0</ele>
        <time>2013-07-02T13:44:28Z</time>
      </trkpt>
      <trkpt lat="40.234667" lon="-4.691500">
        <ele>1883.0</ele>
        <time>2013-07-02T13:44:29Z</time>
      </trkpt>
      <trkpt lat="40.234717" lon="-4.691400">
        <ele>1886.0</ele>
        <time>2013-07-02T13:44:30Z</time>
      </trkpt>
      <trkpt lat="40.234783" lon="-4.691300">
        <ele>1887.0</ele>
        <time>2013-07-02T13:44:31Z</time>
      </trkpt>
      <trkpt lat="40.234883" lon="-4.691217">
        <ele>1889.0</ele>
        <time>2013-07-02T13:44:32Z</time>
      </trkpt>
      <trkpt lat="40.234983" lon="-4.691150">
        <ele>1892.0</ele>
        <time>2013-07-02T13:44:33Z</time>
      </trkpt>
      <trkpt lat="40.235100" lon="-4.691117">
        <ele>1895.0</ele>
        <time>2013-07-02T13:44:34Z</time>
      </trkpt>
      <trkpt lat="40.235183" lon="-4.691117">
        <ele>1897.0</ele>
        <time>2013-07-02T13:44:35Z</time>
      </trkpt>
      <trkpt lat="40.235267" lon="-4.691117">
        <ele>1899.0</ele>
        <time>2013-07-02T13:44:36Z</time>
      </trkpt>
      <trkpt lat="40.235367" lon="-4.691117">
        <ele>1901.0</ele>
        <time>2013-07-02T13:44:37Z</time>
      </trkpt>
      <trkpt lat="40.235450" lon="-4.691133">
        <ele>1904.0</ele>
        <time>2013-07-02T13:44:38Z</time>
      </trkpt>
      <trkpt lat="40.235550" lon="-4.691183">
        <ele>1906.0</ele>
        <time>2013-07-02T13:44:39Z</time>
      </trkpt>
      <trkpt lat="40.235633" lon="-4.691250">
        <ele>1909.0</ele>
        <time>2013-07-02T13:44:40Z</time>
      </trkpt>
      <trkpt lat="40.235667" lon="-4.691333">
        <ele>1911.0</ele>
        <time>2013-07-02T13:44:41Z</time>
      </trkpt>
      <trkpt lat="40.235683" lon="-4.691417">
        <ele>1914.0</ele>
        <time>2013-07-02T13:44:42Z</time>
      </trkpt>
      <trkpt lat="40.235667" lon="-4.691467">
        <ele>1917.0</ele>
        <time>2013-07-02T13:44:43Z</time>
      </trkpt>
      <trkpt lat="40.235667" lon="-4.691517">
        <ele>1919.0</ele>
        <time>2013-07-02T13:44:44Z</time>
      </trkpt>
      <trkpt lat="40.235650" lon="-4.691550">
        <ele>1921.0</ele>
        <time>2013-07-02T13:44:45Z</time>
      </trkpt>
      <trkpt lat="40.235617" lon="-4.691583">
        <ele>1923.0</ele>
        <time>2013-07-02T13:44:46Z</time>
      </trkpt>
      <trkpt lat="40.235567" lon="-4.691633">
        <ele>1925.0</ele>
        <time>2013-07-02T13:44:47Z</time>
      </trkpt>
      <trkpt lat="40.235517" lon="-4.691667">
        <ele>1929.0</ele>
        <time>2013-07-02T13:44:48Z</time>
      </trkpt>
      <trkpt lat="40.235467" lon="-4.691667">
        <ele>1934.0</ele>
        <time>2013-07-02T13:44:49Z</time>
      </trkpt>
      <trkpt lat="40.235433" lon="-4.691650">
        <ele>1938.0</ele>
        <time>2013-07-02T13:44:50Z</time>
      </trkpt>
      <trkpt lat="40.235417" lon="-4.691633">
        <ele>1940.0</ele>
        <time>2013-07-02T13:44:51Z</time>
      </trkpt>
      <trkpt lat="40.235383" lon="-4.691583">
        <ele>1942.0</ele>
        <time>2013-07-02T13:44:52Z</time>
      </trkpt>
      <trkpt lat="40.235333" lon="-4.691533">
        <ele>1943.0</ele>
        <time>2013-07-02T13:44:53Z</time>
      </trkpt>
      <trkpt lat="40.235300" lon="-4.691450">
        <ele>1945.0</ele>
        <time>2013-07-02T13:44:54Z</time>
      </trkpt>
      <trkpt lat="40.235267" lon="-4.691333">
        <ele>1948.0</ele>
        <time>2013-07-02T13:44:55Z</time>
      </trkpt>
      <trkpt lat="40.235250" lon="-4.691200">
        <ele>1952.0</ele>
        <time>2013-07-02T13:44:56Z</time>
      </trkpt>
      <trkpt lat="40.235267" lon="-4.691083">
        <ele>1955.0</ele>
        <time>2013-07-02T13:44:57Z</time>
      </trkpt>
      <trkpt lat="40.235283" lon="-4.690967">
        <ele>1958.0</ele>
        <time>2013-07-02T13:44:58Z</time>
      </trkpt>
      <trkpt lat="40.235317" lon="-4.690833">
        <ele>1961.0</ele>
        <time>2013-07-02T13:44:59Z</time>
      </trkpt>
      <trkpt lat="40.235367" lon="-4.690717">
        <ele>1964.0</ele>
        <time>2013-07-02T13:45:00Z</time>
      </trkpt>
      <trkpt lat="40.235450" lon="-4.690600">
        <ele>1967.0</ele>
        <time>2013-07-02T13:45:01Z</time>
      </trkpt>
      <trkpt lat="40.235533" lon="-4.690500">
        <ele>1970.0</ele>
        <time>2013-07-02T13:45:02Z</time>
      </trkpt>
      <trkpt lat="40.235633" lon="-4.690417">
        <ele>1973.0</ele>
        <time>2013-07-02T13:45:03Z</time>
      </trkpt>
      <trkpt lat="40.235717" lon="-4.690383">
        <ele>1976.0</ele>
        <time>2013-07-02T13:45:04Z</time>
      </trkpt>
      <trkpt lat="40.235817" lon="-4.690367">
        <ele>1978.0</ele>
        <time>2013-07-02T13:45:05Z</time>
      </trkpt>
      <trkpt lat="40.235900" lon="-4.690383">
        <ele>1980.0</ele>
        <time>2013-07-02T13:45:06Z</time>
      </trkpt>
      <trkpt lat="40.236000" lon="-4.690417">
        <ele>1980.0</ele>
        <time>2013-07-02T13:45:07Z</time>
      </trkpt>
      <trkpt lat="40.236083" lon="-4.690467">
        <ele>1982.0</ele>
        <time>2013-07-02T13:45:08Z</time>
      </trkpt>
      <trkpt lat="40.236167" lon="-4.690517">
        <ele>1983.0</ele>
        <time>2013-07-02T13:45:09Z</time>
      </trkpt>
      <trkpt lat="40.236233" lon="-4.690583">
        <ele>1984.0</ele>
        <time>2013-07-02T13:45:10Z</time>
      </trkpt>
      <trkpt lat="40.236267" lon="-4.690667">
        <ele>1985.0</ele>
        <time>2013-07-02T13:45:11Z</time>
      </trkpt>
      <trkpt lat="40.236300" lon="-4.690767">
        <ele>1986.0</ele>
        <time>2013-07-02T13:45:12Z</time>
      </trkpt>
      <trkpt lat="40.236317" lon="-4.690867">
        <ele>1987.0</ele>
        <time>2013-07-02T13:45:13Z</time>
      </trkpt>
      <trkpt lat="40.236333" lon="-4.690950">
        <ele>1990.0</ele>
        <time>2013-07-02T13:45:14Z</time>
      </trkpt>
      <trkpt lat="40.236317" lon="-4.691017">
        <ele>1993.0</ele>
        <time>2013-07-02T13:45:15Z</time>
      </trkpt>
      <trkpt lat="40.236300" lon="-4.691083">
        <ele>1995.0</ele>
        <time>2013-07-02T13:45:16Z</time>
      </trkpt>
      <trkpt lat="40.236267" lon="-4.691150">
        <ele>1998.0</ele>
        <time>2013-07-02T13:45:17Z</time>
      </trkpt>
      <trkpt lat="40.236233" lon="-4.691217">
        <ele>2001.0</ele>
        <time>2013-07-02T13:45:18Z</time>
      </trkpt>
      <trkpt lat="40.236217" lon="-4.691267">
        <ele>2005.0</ele>
        <time>2013-07-02T13:45:19Z</time>
      </trkpt>
      <trkpt lat="40.236183" lon="-4.691317">
        <ele>2009.0</ele>
        <time>2013-07-02T13:45:20Z</time>
      </trkpt>
      <trkpt lat="40.236150" lon="-4.691350">
        <ele>2013.0</ele>
        <time>2013-07-02T13:45:21Z</time>
      </trkpt>
      <trkpt lat="40.236117" lon="-4.691367">
        <ele>2017.0</ele>
        <time>2013-07-02T13:45:22Z</time>
      </trkpt>
      <trkpt lat="40.236083" lon="-4.691383">
        <ele>2020.0</ele>
        <time>2013-07-02T13:45:23Z</time>
      </trkpt>
      <trkpt lat="40.236067" lon="-4.691400">
        <ele>2022.0</ele>
        <time>2013-07-02T13:45:24Z</time>
      </trkpt>
      <trkpt lat="40.236033" lon="-4.691400">
        <ele>2023.0</ele>
        <time>2013-07-02T13:45:25Z</time>
      </trkpt>
      <trkpt lat="40.235983" lon="-4.691383">
        <ele>2024.0</ele>
        <time>2013-07-02T13:45:26Z</time>
      </trkpt>
      <trkpt lat="40.235933" lon="-4.691317">
        <ele>2026.0</ele>
        <time>2013-07-02T13:45:27Z</time>
      </trkpt>
      <trkpt lat="40.235883" lon="-4.691250">
        <ele>2029.0</ele>
        <time>2013-07-02T13:45:28Z</time>
      </trkpt>
      <trkpt lat="40.235833" lon="-4.691167">
        <ele>2034.0</ele>
        <time>2013-07-02T13:45:29Z</time>
      </trkpt>
      <trkpt lat="40.235817" lon="-4.691117">
        <ele>2039.0</ele>
        <time>2013-07-02T13:45:30Z</time>
      </trkpt>
      <trkpt lat="40.235800" lon="-4.691050">
        <ele>2043.0</ele>
        <time>2013-07-02T13:45:31Z</time>
      </trkpt>
      <trkpt lat="40.235800" lon="-4.690967">
        <ele>2047.0</ele>
        <time>2013-07-02T13:45:32Z</time>
      </trkpt>
      <trkpt lat="40.235800" lon="-4.690867">
        <ele>2050.0</ele>
        <time>2013-07-02T13:45:33Z</time>
      </trkpt>
      <trkpt lat="40.235833" lon="-4.690750">
        <ele>2053.0</ele>
        <time>2013-07-02T13:45:34Z</time>
      </trkpt>
      <trkpt lat="40.235867" lon="-4.690633">
        <ele>2057.0</ele>
        <time>2013-07-02T13:45:35Z</time>
      </trkpt>
      <trkpt lat="40.235933" lon="-4.690550">
        <ele>2061.0</ele>
        <time>2013-07-02T13:45:36Z</time>
      </trkpt>
      <trkpt lat="40.236017" lon="-4.690500">
        <ele>2064.0</ele>
        <time>2013-07-02T13:45:37Z</time>
      </trkpt>
      <trkpt lat="40.236133" lon="-4.690483">
        <ele>2067.0</ele>
        <time>2013-07-02T13:45:38Z</time>
      </trkpt>
      <trkpt lat="40.236250" lon="-4.690483">
        <ele>2070.0</ele>
        <time>2013-07-02T13:45:39Z</time>
      </trkpt>
      <trkpt lat="40.236350" lon="-4.690517">
        <ele>2075.0</ele>
        <time>2013-07-02T13:45:40Z</time>
      </trkpt>
      <trkpt lat="40.236433" lon="-4.690567">
        <ele>2079.0</ele>
        <time>2013-07-02T13:45:41Z</time>
      </trkpt>
      <trkpt lat="40.236517" lon="-4.690617">
        <ele>2082.0</ele>
        <time>2013-07-02T13:45:42Z</time>
      </trkpt>
      <trkpt lat="40.236583" lon="-4.690683">
        <ele>2084.0</ele>
        <time>2013-07-02T13:45:43Z</time>
      </trkpt>
      <trkpt lat="40.236650" lon="-4.690783">
        <ele>2087.0</ele>
        <time>2013-07-02T13:45:44Z</time>
      </trkpt>
      <trkpt lat="40.236683" lon="-4.690883">
        <ele>2090.0</ele>
        <time>2013-07-02T13:45:45Z</time>
      </trkpt>
      <trkpt lat="40.236700" lon="-4.690983">
        <ele>2093.0</ele>
        <time>2013-07-02T13:45:46Z</time>
      </trkpt>
      <trkpt lat="40.236700" lon="-4.691083">
        <ele>2096.0</ele>
        <time>2013-07-02T13:45:47Z</time>
      </trkpt>
      <trkpt lat="40.236683" lon="-4.691150">
        <ele>2100.0</ele>
        <time>2013-07-02T13:45:48Z</time>
      </trkpt>
      <trkpt lat="40.236667" lon="-4.691233">
        <ele>2103.0</ele>
        <time>2013-07-02T13:45:49Z</time>
      </trkpt>
      <trkpt lat="40.236633" lon="-4.691300">
        <ele>2106.0</ele>
        <time>2013-07-02T13:45:50Z</time>
      </trkpt>
      <trkpt lat="40.236600" lon="-4.691350">
        <ele>2108.0</ele>
        <time>2013-07-02T13:45:51Z</time>
      </trkpt>
      <trkpt lat="40.236533" lon="-4.691383">
        <ele>2111.0</ele>
        <time>2013-07-02T13:45:52Z</time>
      </trkpt>
      <trkpt lat="40.236483" lon="-4.691400">
        <ele>2113.0</ele>
        <time>2013-07-02T13:45:53Z</time>
      </trkpt>
      <trkpt lat="40.236450" lon="-4.691367">
        <ele>2116.0</ele>
        <time>2013-07-02T13:45:54Z</time>
      </trkpt>
      <trkpt lat="40.236417" lon="-4.691300">
        <ele>2119.0</ele>
        <time>2013-07-02T13:45:55Z</time>
      </trkpt>
      <trkpt lat="40.236400" lon="-4.691217">
        <ele>2123.0</ele>
        <time>2013-07-02T13:45:56Z</time>
      </trkpt>
      <trkpt lat="40.236400" lon="-4.691133">
        <ele>2126.0</ele>
        <time>2013-07-02T13:45:57Z</time>
      </trkpt>
      <trkpt lat="40.236417" lon="-4.691050">
        <ele>2129.0</ele>
        <time>2013-07-02T13:45:58Z</time>
      </trkpt>
      <trkpt lat="40.236433" lon="-4.690950">
        <ele>2133.0</ele>
        <time>2013-07-02T13:45:59Z</time>
      </trkpt>
      <trkpt lat="40.236467" lon="-4.690850">
        <ele>2137.0</ele>
        <time>2013-07-02T13:46:00Z</time>
      </trkpt>
      <trkpt lat="40.236533" lon="-4.690750">
        <ele>2140.0</ele>
        <time>2013-07-02T13:46:01Z</time>
      </trkpt>
      <trkpt lat="40.236600" lon="-4.690667">
        <ele>2144.0</ele>
        <time>2013-07-02T13:46:02Z</time>
      </trkpt>
      <trkpt lat="40.236700" lon="-4.690600">
        <ele>2148.0</ele>
        <time>2013-07-02T13:46:03Z</time>
      </trkpt>
      <trkpt lat="40.236800" lon="-4.690550">
        <ele>2152.0</ele>
        <time>2013-07-02T13:46:04Z</time>
      </trkpt>
      <trkpt lat="40.236900" lon="-4.690533">
        <ele>2156.0</ele>
        <time>2013-07-02T13:46:05Z</time>
      </trkpt>
      <trkpt lat="40.237000" lon="-4.690533">
        <ele>2160.0</ele>
        <time>2013-07-02T13:46:06Z</time>
      </trkpt>
      <trkpt lat="40.237100" lon="-4.690533">
        <ele>2163.0</ele>
        <time>2013-07-02T13:46:07Z</time>
      </trkpt>
      <trkpt lat="40.237183" lon="-4.690533">
        <ele>2166.0</ele>
        <time>2013-07-02T13:46:08Z</time>
      </trkpt>
      <trkpt lat="40.237267" lon="-4.690550">
        <ele>2167.0</ele>
        <time>2013-07-02T13:46:09Z</time>
      </trkpt>
      <trkpt lat="40.237367" lon="-4.690583">
        <ele>2169.0</ele>
        <time>2013-07-02T13:46:10Z</time>
      </trkpt>
      <trkpt lat="40.237450" lon="-4.690650">
        <ele>2170.0</ele>
        <time>2013-07-02T13:46:11Z</time>
      </trkpt>
      <trkpt lat="40.237533" lon="-4.690733">
        <ele>2173.0</ele>
        <time>2013-07-02T13:46:12Z</time>
      </trkpt>
      <trkpt lat="40.237617" lon="-4.690833">
        <ele>2176.0</ele>
        <time>2013-07-02T13:46:13Z</time>
      </trkpt>
      <trkpt lat="40.237667" lon="-4.690933">
        <ele>2180.0</ele>
        <time>2013-07-02T13:46:14Z</time>
      </trkpt>
      <trkpt lat="40.237700" lon="-4.691017">
        <ele>2183.0</ele>
        <time>2013-07-02T13:46:15Z</time>
      </trkpt>
      <trkpt lat="40.237733" lon="-4.691117">
        <ele>2187.0</ele>
        <time>2013-07-02T13:46:16Z</time>
      </trkpt>
      <trkpt lat="40.237750" lon="-4.691217">
        <ele>2189.0</ele>
        <time>2013-07-02T13:46:17Z</time>
      </trkpt>
      <trkpt lat="40.237750" lon="-4.691317">
        <ele>2192.0</ele>
        <time>2013-07-02T13:46:18Z</time>
      </trkpt>
      <trkpt lat="40.237750" lon="-4.691433">
        <ele>2195.0</ele>
        <time>2013-07-02T13:46:19Z</time>
      </trkpt>
      <trkpt lat="40.237733" lon="-4.691517">
        <ele>2199.0</ele>
        <time>2013-07-02T13:46:20Z</time>
      </trkpt>
      <trkpt lat="40.237700" lon="-4.691550">
        <ele>2200.0</ele>
        <time>2013-07-02T13:46:21Z</time>
      </trkpt>
      <trkpt lat="40.237667" lon="-4.691567">
        <ele>2201.0</ele>
        <time>2013-07-02T13:46:22Z</time>
      </trkpt>
      <trkpt lat="40.237633" lon="-4.691583">
        <ele>2202.0</ele>
        <time>2013-07-02T13:46:23Z</time>
      </trkpt>
      <trkpt lat="40.237583" lon="-4.691617">
        <ele>2203.0</ele>
        <time>2013-07-02T13:46:24Z</time>
      </trkpt>
      <trkpt lat="40.237533" lon="-4.691633">
        <ele>2205.0</ele>
        <time>2013-07-02T13:46:25Z</time>
      </trkpt>
      <trkpt lat="40.237500" lon="-4.691633">
        <ele>2207.0</ele>
        <time>2013-07-02T13:46:26Z</time>
      </trkpt>
      <trkpt lat="40.237450" lon="-4.691600">
        <ele>2209.0</ele>
        <time>2013-07-02T13:46:27Z</time>
      </trkpt>
      <trkpt lat="40.237433" lon="-4.691567">
        <ele>2212.0</ele>
        <time>2013-07-02T13:46:28Z</time>
      </trkpt>
      <trkpt lat="40.237417" lon="-4.691533">
        <ele>2215.0</ele>
        <time>2013-07-02T13:46:29Z</time>
      </trkpt>
      <trkpt lat="40.237400" lon="-4.691483">
        <ele>2217.0</ele>
        <time>2013-07-02T13:46:30Z</time>
      </trkpt>
      <trkpt lat="40.237383" lon="-4.691433">
        <ele>2219.0</ele>
        <time>2013-07-02T13:46:31Z</time>
      </trkpt>
      <trkpt lat="40.237383" lon="-4.691350">
        <ele>2221.0</ele>
        <time>2013-07-02T13:46:32Z</time>
      </trkpt>
      <trkpt lat="40.237417" lon="-4.691267">
        <ele>2222.0</ele>
        <time>2013-07-02T13:46:33Z</time>
      </trkpt>
      <trkpt lat="40.237450" lon="-4.691167">
        <ele>2224.0</ele>
        <time>2013-07-02T13:46:34Z</time>
      </trkpt>
      <trkpt lat="40.237517" lon="-4.691067">
        <ele>2226.0</ele>
        <time>2013-07-02T13:46:35Z</time>
      </trkpt>
      <trkpt lat="40.237583" lon="-4.690983">
        <ele>2230.0</ele>
        <time>2013-07-02T13:46:36Z</time>
      </trkpt>
      <trkpt lat="40.237667" lon="-4.690917">
        <ele>2233.0</ele>
        <time>2013-07-02T13:46:37Z</time>
      </trkpt>
      <trkpt lat="40.237750" lon="-4.690867">
        <ele>2236.0</ele>
        <time>2013-07-02T13:46:38Z</time>
      </trkpt>
      <trkpt lat="40.237850" lon="-4.690833">
        <ele>2238.0</ele>
        <time>2013-07-02T13:46:39Z</time>
      </trkpt>
      <trkpt lat="40.237967" lon="-4.690817">
        <ele>2239.0</ele>
        <time>2013-07-02T13:46:40Z</time>
      </trkpt>
      <trkpt lat="40.238083" lon="-4.690800">
        <ele>2242.0</ele>
        <time>2013-07-02T13:46:41Z</time>
      </trkpt>
      <trkpt lat="40.238183" lon="-4.690833">
        <ele>2245.0</ele>
        <time>2013-07-02T13:46:42Z</time>
      </trkpt>
      <trkpt lat="40.238283" lon="-4.690867">
        <ele>2249.0</ele>
        <time>2013-07-02T13:46:43Z</time>
      </trkpt>
      <trkpt lat="40.238383" lon="-4.690933">
        <ele>2252.0</ele>
        <time>2013-07-02T13:46:44Z</time>
      </trkpt>
      <trkpt lat="40.238450" lon="-4.691033">
        <ele>2255.0</ele>
        <time>2013-07-02T13:46:45Z</time>
      </trkpt>
      <trkpt lat="40.238500" lon="-4.691133">
        <ele>2258.0</ele>
        <time>2013-07-02T13:46:46Z</time>
      </trkpt>
      <trkpt lat="40.238533" lon="-4.691217">
        <ele>2261.0</ele>
        <time>2013-07-02T13:46:47Z</time>
      </trkpt>
      <trkpt lat="40.238567" lon="-4.691283">
        <ele>2264.0</ele>
        <time>2013-07-02T13:46:48Z</time>
      </trkpt>
      <trkpt lat="40.238600" lon="-4.691367">
        <ele>2266.0</ele>
        <time>2013-07-02T13:46:49Z</time>
      </trkpt>
      <trkpt lat="40.238633" lon="-4.691450">
        <ele>2268.0</ele>
        <time>2013-07-02T13:46:50Z</time>
      </trkpt>
      <trkpt lat="40.238650" lon="-4.691533">
        <ele>2268.0</ele>
        <time>2013-07-02T13:46:51Z</time>
      </trkpt>
      <trkpt lat="40.238650" lon="-4.691633">
        <ele>2267.0</ele>
        <time>2013-07-02T13:46:52Z</time>
      </trkpt>
      <trkpt lat="40.238650" lon="-4.691700">
        <ele>2267.0</ele>
        <time>2013-07-02T13:46:53Z</time>
      </trkpt>
      <trkpt lat="40.238600" lon="-4.691767">
        <ele>2267.0</ele>
        <time>2013-07-02T13:46:54Z</time>
      </trkpt>
      <trkpt lat="40.238550" lon="-4.691783">
        <ele>2266.0</ele>
        <time>2013-07-02T13:46:55Z</time>
      </trkpt>
      <trkpt lat="40.238517" lon="-4.691783">
        <ele>2268.0</ele>
        <time>2013-07-02T13:46:56Z</time>
      </trkpt>
      <trkpt lat="40.238483" lon="-4.691783">
        <ele>2270.0</ele>
        <time>2013-07-02T13:46:57Z</time>
      </trkpt>
      <trkpt lat="40.238467" lon="-4.691767">
        <ele>2272.0</ele>
        <time>2013-07-02T13:46:58Z</time>
      </trkpt>
      <trkpt lat="40.238467" lon="-4.691750">
        <ele>2274.0</ele>
        <time>2013-07-02T13:46:59Z</time>
      </trkpt>
      <trkpt lat="40.238450" lon="-4.691733">
        <ele>2274.0</ele>
        <time>2013-07-02T13:47:00Z</time>
      </trkpt>
      <trkpt lat="40.238417" lon="-4.691700">
        <ele>2274.0</ele>
        <time>2013-07-02T13:47:01Z</time>
      </trkpt>
      <trkpt lat="40.238400" lon="-4.691650">
        <ele>2275.0</ele>
        <time>2013-07-02T13:47:02Z</time>
      </trkpt>
      <trkpt lat="40.238383" lon="-4.691583">
        <ele>2277.0</ele>
        <time>2013-07-02T13:47:03Z</time>
      </trkpt>
      <trkpt lat="40.238383" lon="-4.691517">
        <ele>2279.0</ele>
        <time>2013-07-02T13:47:04Z</time>
      </trkpt>
      <trkpt lat="40.238400" lon="-4.691450">
        <ele>2281.0</ele>
        <time>2013-07-02T13:47:05Z</time>
      </trkpt>
      <trkpt lat="40.238433" lon="-4.691383">
        <ele>2282.0</ele>
        <time>2013-07-02T13:47:06Z</time>
      </trkpt>
      <trkpt lat="40.238467" lon="-4.691317">
        <ele>2283.0</ele>
        <time>2013-07-02T13:47:07Z</time>
      </trkpt>
      <trkpt lat="40.238517" lon="-4.691233">
        <ele>2284.0</ele>
        <time>2013-07-02T13:47:08Z</time>
      </trkpt>
      <trkpt lat="40.238583" lon="-4.691150">
        <ele>2284.0</ele>
        <time>2013-07-02T13:47:09Z</time>
      </trkpt>
      <trkpt lat="40.238667" lon="-4.691067">
        <ele>2285.0</ele>
        <time>2013-07-02T13:47:10Z</time>
      </trkpt>
      <trkpt lat="40.238750" lon="-4.691000">
        <ele>2286.0</ele>
        <time>2013-07-02T13:47:11Z</time>
      </trkpt>
      <trkpt lat="40.238817" lon="-4.690917">
        <ele>2289.0</ele>
        <time>2013-07-02T13:47:12Z</time>
      </trkpt>
      <trkpt lat="40.238900" lon="-4.690867">
        <ele>2292.0</ele>
        <time>2013-07-02T13:47:13Z</time>
      </trkpt>
      <trkpt lat="40.238983" lon="-4.690833">
        <ele>2294.0</ele>
        <time>2013-07-02T13:47:14Z</time>
      </trkpt>
      <trkpt lat="40.239067" lon="-4.690800">
        <ele>2295.0</ele>
        <time>2013-07-02T13:47:15Z</time>
      </trkpt>
      <trkpt lat="40.239167" lon="-4.690767">
        <ele>2296.0</ele>
        <time>2013-07-02T13:47:16Z</time>
      </trkpt>
      <trkpt lat="40.239283" lon="-4.690733">
        <ele>2296.0</ele>
        <time>2013-07-02T13:47:17Z</time>
      </trkpt>
      <trkpt lat="40.239400" lon="-4.690717">
        <ele>2297.0</ele>
        <time>2013-07-02T13:47:18Z</time>
      </trkpt>
      <trkpt lat="40.239517" lon="-4.690733">
        <ele>2299.0</ele>
        <time>2013-07-02T13:47:19Z</time>
      </trkpt>
      <trkpt lat="40.239617" lon="-4.690800">
        <ele>2301.0</ele>
        <time>2013-07-02T13:47:20Z</time>
      </trkpt>
      <trkpt lat="40.239700" lon="-4.690883">
        <ele>2303.0</ele>
        <time>2013-07-02T13:47:21Z</time>
      </trkpt>
      <trkpt lat="40.239783" lon="-4.690967">
        <ele>2305.0</ele>
        <time>2013-07-02T13:47:22Z</time>
      </trkpt>
      <trkpt lat="40.239850" lon="-4.691050">
        <ele>2307.0</ele>
        <time>2013-07-02T13:47:23Z</time>
      </trkpt>
      <trkpt lat="40.239917" lon="-4.691150">
        <ele>2308.0</ele>
        <time>2013-07-02T13:47:24Z</time>
      </trkpt>
      <trkpt lat="40.239967" lon="-4.691233">
        <ele>2310.0</ele>
        <time>2013-07-02T13:47:25Z</time>
      </trkpt>
      <trkpt lat="40.240017" lon="-4.691333">
        <ele>2311.0</ele>
        <time>2013-07-02T13:47:26Z</time>
      </trkpt>
      <trkpt lat="40.240033" lon="-4.691450">
        <ele>2312.0</ele>
        <time>2013-07-02T13:47:27Z</time>
      </trkpt>
      <trkpt lat="40.240050" lon="-4.691533">
        <ele>2312.0</ele>
        <time>2013-07-02T13:47:28Z</time>
      </trkpt>
      <trkpt lat="40.240050" lon="-4.691617">
        <ele>2312.0</ele>
        <time>2013-07-02T13:47:29Z</time>
      </trkpt>
      <trkpt lat="40.240033" lon="-4.691683">
        <ele>2312.0</ele>
        <time>2013-07-02T13:47:30Z</time>
      </trkpt>
      <trkpt lat="40.240017" lon="-4.691733">
        <ele>2311.0</ele>
        <time>2013-07-02T13:47:31Z</time>
      </trkpt>
      <trkpt lat="40.240000" lon="-4.691783">
        <ele>2310.0</ele>
        <time>2013-07-02T13:47:32Z</time>
      </trkpt>
      <trkpt lat="40.239967" lon="-4.691833">
        <ele>2310.0</ele>
        <time>2013-07-02T13:47:33Z</time>
      </trkpt>
      <trkpt lat="40.239950" lon="-4.691850">
        <ele>2309.0</ele>
        <time>2013-07-02T13:47:34Z</time>
      </trkpt>
      <trkpt lat="40.239900" lon="-4.691850">
        <ele>2308.0</ele>
        <time>2013-07-02T13:47:35Z</time>
      </trkpt>
      <trkpt lat="40.239867" lon="-4.691850">
        <ele>2306.0</ele>
        <time>2013-07-02T13:47:36Z</time>
      </trkpt>
      <trkpt lat="40.239833" lon="-4.691833">
        <ele>2305.0</ele>
        <time>2013-07-02T13:47:37Z</time>
      </trkpt>
      <trkpt lat="40.239800" lon="-4.691817">
        <ele>2304.0</ele>
        <time>2013-07-02T13:47:38Z</time>
      </trkpt>
      <trkpt lat="40.239750" lon="-4.691767">
        <ele>2303.0</ele>
        <time>2013-07-02T13:47:39Z</time>
      </trkpt>
      <trkpt lat="40.239717" lon="-4.691733">
        <ele>2302.0</ele>
        <time>2013-07-02T13:47:40Z</time>
      </trkpt>
      <trkpt lat="40.239667" lon="-4.691683">
        <ele>2303.0</ele>
        <time>2013-07-02T13:47:41Z</time>
      </trkpt>
      <trkpt lat="40.239633" lon="-4.691633">
        <ele>2304.0</ele>
        <time>2013-07-02T13:47:42Z</time>
      </trkpt>
      <trkpt lat="40.239600" lon="-4.691567">
        <ele>2306.0</ele>
        <time>2013-07-02T13:47:43Z</time>
      </trkpt>
      <trkpt lat="40.239600" lon="-4.691500">
        <ele>2308.0</ele>
        <time>2013-07-02T13:47:44Z</time>
      </trkpt>
      <trkpt lat="40.239600" lon="-4.691433">
        <ele>2309.0</ele>
        <time>2013-07-02T13:47:45Z</time>
      </trkpt>
      <trkpt lat="40.239617" lon="-4.691383">
        <ele>2310.0</ele>
        <time>2013-07-02T13:47:46Z</time>
      </trkpt>
      <trkpt lat="40.239617" lon="-4.691317">
        <ele>2310.0</ele>
        <time>2013-07-02T13:47:47Z</time>
      </trkpt>
      <trkpt lat="40.239583" lon="-4.691267">
        <ele>2310.0</ele>
        <time>2013-07-02T13:47:48Z</time>
      </trkpt>
      <trkpt lat="40.239567" lon="-4.691183">
        <ele>2310.0</ele>
        <time>2013-07-02T13:47:49Z</time>
      </trkpt>
      <trkpt lat="40.239550" lon="-4.691117">
        <ele>2310.0</ele>
        <time>2013-07-02T13:47:50Z</time>
      </trkpt>
      <trkpt lat="40.239517" lon="-4.691050">
        <ele>2310.0</ele>
        <time>2013-07-02T13:47:51Z</time>
      </trkpt>
      <trkpt lat="40.239483" lon="-4.691000">
        <ele>2312.0</ele>
        <time>2013-07-02T13:47:52Z</time>
      </trkpt>
      <trkpt lat="40.239483" lon="-4.690950">
        <ele>2314.0</ele>
        <time>2013-07-02T13:47:53Z</time>
      </trkpt>
      <trkpt lat="40.239483" lon="-4.690900">
        <ele>2315.0</ele>
        <time>2013-07-02T13:47:54Z</time>
      </trkpt>
      <trkpt lat="40.239500" lon="-4.690867">
        <ele>2315.0</ele>
        <time>2013-07-02T13:47:55Z</time>
      </trkpt>
      <trkpt lat="40.239500" lon="-4.690800">
        <ele>2314.0</ele>
        <time>2013-07-02T13:47:56Z</time>
      </trkpt>
      <trkpt lat="40.239483" lon="-4.690733">
        <ele>2312.0</ele>
        <time>2013-07-02T13:47:57Z</time>
      </trkpt>
      <trkpt lat="40.239467" lon="-4.690650">
        <ele>2311.0</ele>
        <time>2013-07-02T13:47:58Z</time>
      </trkpt>
      <trkpt lat="40.239467" lon="-4.690567">
        <ele>2310.0</ele>
        <time>2013-07-02T13:47:59Z</time>
      </trkpt>
      <trkpt lat="40.239467" lon="-4.690467">
        <ele>2309.0</ele>
        <time>2013-07-02T13:48:00Z</time>
      </trkpt>
      <trkpt lat="40.239467" lon="-4.690383">
        <ele>2308.0</ele>
        <time>2013-07-02T13:48:01Z</time>
      </trkpt>
      <trkpt lat="40.239467" lon="-4.690300">
        <ele>2307.0</ele>
        <time>2013-07-02T13:48:02Z</time>
      </trkpt>
      <trkpt lat="40.239467" lon="-4.690233">
        <ele>2306.0</ele>
        <time>2013-07-02T13:48:03Z</time>
      </trkpt>
      <trkpt lat="40.239450" lon="-4.690150">
        <ele>2303.0</ele>
        <time>2013-07-02T13:48:04Z</time>
      </trkpt>
      <trkpt lat="40.239433" lon="-4.690050">
        <ele>2301.0</ele>
        <time>2013-07-02T13:48:05Z</time>
      </trkpt>
      <trkpt lat="40.239400" lon="-4.689967">
        <ele>2299.0</ele>
        <time>2013-07-02T13:48:06Z</time>
      </trkpt>
      <trkpt lat="40.239367" lon="-4.689883">
        <ele>2296.0</ele>
        <time>2013-07-02T13:48:07Z</time>
      </trkpt>
      <trkpt lat="40.239333" lon="-4.689783">
        <ele>2294.0</ele>
        <time>2013-07-02T13:48:08Z</time>
      </trkpt>
      <trkpt lat="40.239300" lon="-4.689683">
        <ele>2292.0</ele>
        <time>2013-07-02T13:48:09Z</time>
      </trkpt>
      <trkpt lat="40.239267" lon="-4.689583">
        <ele>2293.0</ele>
        <time>2013-07-02T13:48:10Z</time>
      </trkpt>
      <trkpt lat="40.239233" lon="-4.689483">
        <ele>2292.0</ele>
        <time>2013-07-02T13:48:11Z</time>
      </trkpt>
      <trkpt lat="40.239200" lon="-4.689383">
        <ele>2292.0</ele>
        <time>2013-07-02T13:48:12Z</time>
      </trkpt>
      <trkpt lat="40.239167" lon="-4.689300">
        <ele>2293.0</ele>
        <time>2013-07-02T13:48:13Z</time>
      </trkpt>
      <trkpt lat="40.239117" lon="-4.689200">
        <ele>2294.0</ele>
        <time>2013-07-02T13:48:14Z</time>
      </trkpt>
      <trkpt lat="40.239083" lon="-4.689117">
        <ele>2296.0</ele>
        <time>2013-07-02T13:48:15Z</time>
      </trkpt>
      <trkpt lat="40.239083" lon="-4.689067">
        <ele>2298.0</ele>
        <time>2013-07-02T13:48:16Z</time>
      </trkpt>
      <trkpt lat="40.239083" lon="-4.689017">
        <ele>2300.0</ele>
        <time>2013-07-02T13:48:17Z</time>
      </trkpt>
      <trkpt lat="40.239083" lon="-4.688983">
        <ele>2300.0</ele>
        <time>2013-07-02T13:48:18Z</time>
      </trkpt>
      <trkpt lat="40.239100" lon="-4.688950">
        <ele>2298.0</ele>
        <time>2013-07-02T13:48:19Z</time>
      </trkpt>
      <trkpt lat="40.239083" lon="-4.688867">
        <ele>2296.0</ele>
        <time>2013-07-02T13:48:20Z</time>
      </trkpt>
      <trkpt lat="40.239100" lon="-4.688767">
        <ele>2293.0</ele>
        <time>2013-07-02T13:48:21Z</time>
      </trkpt>
      <trkpt lat="40.239133" lon="-4.688667">
        <ele>2292.0</ele>
        <time>2013-07-02T13:48:22Z</time>
      </trkpt>
      <trkpt lat="40.239183" lon="-4.688567">
        <ele>2290.0</ele>
        <time>2013-07-02T13:48:23Z</time>
      </trkpt>
      <trkpt lat="40.239200" lon="-4.688467">
        <ele>2288.0</ele>
        <time>2013-07-02T13:48:24Z</time>
      </trkpt>
      <trkpt lat="40.239200" lon="-4.688367">
        <ele>2286.0</ele>
        <time>2013-07-02T13:48:25Z</time>
      </trkpt>
      <trkpt lat="40.239200" lon="-4.688250">
        <ele>2284.0</ele>
        <time>2013-07-02T13:48:26Z</time>
      </trkpt>
      <trkpt lat="40.239217" lon="-4.688133">
        <ele>2282.0</ele>
        <time>2013-07-02T13:48:27Z</time>
      </trkpt>
      <trkpt lat="40.239217" lon="-4.688000">
        <ele>2280.0</ele>
        <time>2013-07-02T13:48:28Z</time>
      </trkpt>
      <trkpt lat="40.239217" lon="-4.687883">
        <ele>2278.0</ele>
        <time>2013-07-02T13:48:29Z</time>
      </trkpt>
      <trkpt lat="40.239217" lon="-4.687750">
        <ele>2276.0</ele>
        <time>2013-07-02T13:48:30Z</time>
      </trkpt>
      <trkpt lat="40.239217" lon="-4.687633">
        <ele>2275.0</ele>
        <time>2013-07-02T13:48:31Z</time>
      </trkpt>
      <trkpt lat="40.239217" lon="-4.687517">
        <ele>2274.0</ele>
        <time>2013-07-02T13:48:32Z</time>
      </trkpt>
      <trkpt lat="40.239233" lon="-4.687400">
        <ele>2273.0</ele>
        <time>2013-07-02T13:48:33Z</time>
      </trkpt>
      <trkpt lat="40.239217" lon="-4.687267">
        <ele>2272.0</ele>
        <time>2013-07-02T13:48:34Z</time>
      </trkpt>
      <trkpt lat="40.239200" lon="-4.687150">
        <ele>2272.0</ele>
        <time>2013-07-02T13:48:35Z</time>
      </trkpt>
      <trkpt lat="40.239183" lon="-4.687050">
        <ele>2271.0</ele>
        <time>2013-07-02T13:48:36Z</time>
      </trkpt>
      <trkpt lat="40.239183" lon="-4.686933">
        <ele>2271.0</ele>
        <time>2013-07-02T13:48:37Z</time>
      </trkpt>
      <trkpt lat="40.239167" lon="-4.686833">
        <ele>2270.0</ele>
        <time>2013-07-02T13:48:38Z</time>
      </trkpt>
      <trkpt lat="40.239150" lon="-4.686733">
        <ele>2270.0</ele>
        <time>2013-07-02T13:48:39Z</time>
      </trkpt>
      <trkpt lat="40.239133" lon="-4.686633">
        <ele>2269.0</ele>
        <time>2013-07-02T13:48:40Z</time>
      </trkpt>
      <trkpt lat="40.239117" lon="-4.686517">
        <ele>2268.0</ele>
        <time>2013-07-02T13:48:41Z</time>
      </trkpt>
      <trkpt lat="40.239100" lon="-4.686400">
        <ele>2267.0</ele>
        <time>2013-07-02T13:48:42Z</time>
      </trkpt>
      <trkpt lat="40.239083" lon="-4.686267">
        <ele>2266.0</ele>
        <time>2013-07-02T13:48:43Z</time>
      </trkpt>
      <trkpt lat="40.239083" lon="-4.686150">
        <ele>2265.0</ele>
        <time>2013-07-02T13:48:44Z</time>
      </trkpt>
      <trkpt lat="40.239050" lon="-4.686033">
        <ele>2265.0</ele>
        <time>2013-07-02T13:48:45Z</time>
      </trkpt>
      <trkpt lat="40.239033" lon="-4.685933">
        <ele>2263.0</ele>
        <time>2013-07-02T13:48:46Z</time>
      </trkpt>
      <trkpt lat="40.239017" lon="-4.685817">
        <ele>2262.0</ele>
        <time>2013-07-02T13:48:47Z</time>
      </trkpt>
      <trkpt lat="40.239000" lon="-4.685700">
        <ele>2260.0</ele>
        <time>2013-07-02T13:48:48Z</time>
      </trkpt>
      <trkpt lat="40.239000" lon="-4.685567">
        <ele>2260.0</ele>
        <time>2013-07-02T13:48:49Z</time>
      </trkpt>
      <trkpt lat="40.238983" lon="-4.685433">
        <ele>2259.0</ele>
        <time>2013-07-02T13:48:50Z</time>
      </trkpt>
      <trkpt lat="40.238983" lon="-4.685300">
        <ele>2260.0</ele>
        <time>2013-07-02T13:48:51Z</time>
      </trkpt>
      <trkpt lat="40.238967" lon="-4.685183">
        <ele>2260.0</ele>
        <time>2013-07-02T13:48:52Z</time>
      </trkpt>
      <trkpt lat="40.238967" lon="-4.685067">
        <ele>2260.0</ele>
        <time>2013-07-02T13:48:53Z</time>
      </trkpt>
      <trkpt lat="40.238967" lon="-4.684950">
        <ele>2259.0</ele>
        <time>2013-07-02T13:48:54Z</time>
      </trkpt>
      <trkpt lat="40.238983" lon="-4.684817">
        <ele>2258.0</ele>
        <time>2013-07-02T13:48:55Z</time>
      </trkpt>
      <trkpt lat="40.238983" lon="-4.684683">
        <ele>2256.0</ele>
        <time>2013-07-02T13:48:56Z</time>
      </trkpt>
      <trkpt lat="40.238983" lon="-4.684550">
        <ele>2255.0</ele>
        <time>2013-07-02T13:48:57Z</time>
      </trkpt>
      <trkpt lat="40.238983" lon="-4.684400">
        <ele>2256.0</ele>
        <time>2013-07-02T13:48:58Z</time>
      </trkpt>
      <trkpt lat="40.238983" lon="-4.684250">
        <ele>2258.0</ele>
        <time>2013-07-02T13:48:59Z</time>
      </trkpt>
      <trkpt lat="40.238983" lon="-4.684117">
        <ele>2259.0</ele>
        <time>2013-07-02T13:49:00Z</time>
      </trkpt>
      <trkpt lat="40.238983" lon="-4.684000">
        <ele>2260.0</ele>
        <time>2013-07-02T13:49:01Z</time>
      </trkpt>
      <trkpt lat="40.238967" lon="-4.683900">
        <ele>2261.0</ele>
        <time>2013-07-02T13:49:02Z</time>
      </trkpt>
      <trkpt lat="40.238967" lon="-4.683800">
        <ele>2260.0</ele>
        <time>2013-07-02T13:49:03Z</time>
      </trkpt>
      <trkpt lat="40.238950" lon="-4.683700">
        <ele>2258.0</ele>
        <time>2013-07-02T13:49:04Z</time>
      </trkpt>
      <trkpt lat="40.238933" lon="-4.683600">
        <ele>2256.0</ele>
        <time>2013-07-02T13:49:05Z</time>
      </trkpt>
      <trkpt lat="40.238900" lon="-4.683500">
        <ele>2255.0</ele>
        <time>2013-07-02T13:49:06Z</time>
      </trkpt>
      <trkpt lat="40.238867" lon="-4.683367">
        <ele>2253.0</ele>
        <time>2013-07-02T13:49:07Z</time>
      </trkpt>
      <trkpt lat="40.238850" lon="-4.683233">
        <ele>2252.0</ele>
        <time>2013-07-02T13:49:08Z</time>
      </trkpt>
      <trkpt lat="40.238833" lon="-4.683083">
        <ele>2252.0</ele>
        <time>2013-07-02T13:49:09Z</time>
      </trkpt>
      <trkpt lat="40.238817" lon="-4.682950">
        <ele>2255.0</ele>
        <time>2013-07-02T13:49:10Z</time>
      </trkpt>
      <trkpt lat="40.238783" lon="-4.682833">
        <ele>2258.0</ele>
        <time>2013-07-02T13:49:11Z</time>
      </trkpt>
      <trkpt lat="40.238767" lon="-4.682733">
        <ele>2261.0</ele>
        <time>2013-07-02T13:49:12Z</time>
      </trkpt>
      <trkpt lat="40.238750" lon="-4.682667">
        <ele>2263.0</ele>
        <time>2013-07-02T13:49:13Z</time>
      </trkpt>
      <trkpt lat="40.238733" lon="-4.682583">
        <ele>2265.0</ele>
        <time>2013-07-02T13:49:14Z</time>
      </trkpt>
      <trkpt lat="40.238750" lon="-4.682500">
        <ele>2266.0</ele>
        <time>2013-07-02T13:49:15Z</time>
      </trkpt>
      <trkpt lat="40.238783" lon="-4.682400">
        <ele>2263.0</ele>
        <time>2013-07-02T13:49:16Z</time>
      </trkpt>
      <trkpt lat="40.238833" lon="-4.682300">
        <ele>2262.0</ele>
        <time>2013-07-02T13:49:17Z</time>
      </trkpt>
      <trkpt lat="40.238917" lon="-4.682233">
        <ele>2261.0</ele>
        <time>2013-07-02T13:49:18Z</time>
      </trkpt>
      <trkpt lat="40.239017" lon="-4.682200">
        <ele>2261.0</ele>
        <time>2013-07-02T13:49:19Z</time>
      </trkpt>
      <trkpt lat="40.239117" lon="-4.682217">
        <ele>2260.0</ele>
        <time>2013-07-02T13:49:20Z</time>
      </trkpt>
      <trkpt lat="40.239183" lon="-4.682267">
        <ele>2260.0</ele>
        <time>2013-07-02T13:49:21Z</time>
      </trkpt>
      <trkpt lat="40.239250" lon="-4.682333">
        <ele>2262.0</ele>
        <time>2013-07-02T13:49:22Z</time>
      </trkpt>
      <trkpt lat="40.239300" lon="-4.682400">
        <ele>2262.0</ele>
        <time>2013-07-02T13:49:23Z</time>
      </trkpt>
      <trkpt lat="40.239350" lon="-4.682467">
        <ele>2262.0</ele>
        <time>2013-07-02T13:49:24Z</time>
      </trkpt>
      <trkpt lat="40.239400" lon="-4.682550">
        <ele>2261.0</ele>
        <time>2013-07-02T13:49:25Z</time>
      </trkpt>
      <trkpt lat="40.239433" lon="-4.682650">
        <ele>2261.0</ele>
        <time>2013-07-02T13:49:26Z</time>
      </trkpt>
      <trkpt lat="40.239433" lon="-4.682767">
        <ele>2260.0</ele>
        <time>2013-07-02T13:49:27Z</time>
      </trkpt>
      <trkpt lat="40.239400" lon="-4.682850">
        <ele>2260.0</ele>
        <time>2013-07-02T13:49:28Z</time>
      </trkpt>
      <trkpt lat="40.239350" lon="-4.682917">
        <ele>2258.0</ele>
        <time>2013-07-02T13:49:29Z</time>
      </trkpt>
      <trkpt lat="40.239283" lon="-4.682950">
        <ele>2257.0</ele>
        <time>2013-07-02T13:49:30Z</time>
      </trkpt>
      <trkpt lat="40.239200" lon="-4.682950">
        <ele>2256.0</ele>
        <time>2013-07-02T13:49:31Z</time>
      </trkpt>
      <trkpt lat="40.239133" lon="-4.682900">
        <ele>2254.0</ele>
        <time>2013-07-02T13:49:32Z</time>
      </trkpt>
      <trkpt lat="40.239067" lon="-4.682833">
        <ele>2253.0</ele>
        <time>2013-07-02T13:49:33Z</time>
      </trkpt>
      <trkpt lat="40.238983" lon="-4.682717">
        <ele>2253.0</ele>
        <time>2013-07-02T13:49:34Z</time>
      </trkpt>
      <trkpt lat="40.238917" lon="-4.682617">
        <ele>2254.0</ele>
        <time>2013-07-02T13:49:35Z</time>
      </trkpt>
      <trkpt lat="40.238850" lon="-4.682533">
        <ele>2256.0</ele>
        <time>2013-07-02T13:49:36Z</time>
      </trkpt>
      <trkpt lat="40.238783" lon="-4.682433">
        <ele>2258.0</ele>
        <time>2013-07-02T13:49:37Z</time>
      </trkpt>
      <trkpt lat="40.238717" lon="-4.682350">
        <ele>2260.0</ele>
        <time>2013-07-02T13:49:38Z</time>
      </trkpt>
      <trkpt lat="40.238683" lon="-4.682250">
        <ele>2262.0</ele>
        <time>2013-07-02T13:49:39Z</time>
      </trkpt>
      <trkpt lat="40.238650" lon="-4.682150">
        <ele>2263.0</ele>
        <time>2013-07-02T13:49:40Z</time>
      </trkpt>
      <trkpt lat="40.238617" lon="-4.682067">
        <ele>2265.0</ele>
        <time>2013-07-02T13:49:41Z</time>
      </trkpt>
      <trkpt lat="40.238600" lon="-4.681967">
        <ele>2266.0</ele>
        <time>2013-07-02T13:49:42Z</time>
      </trkpt>
      <trkpt lat="40.238567" lon="-4.681867">
        <ele>2267.0</ele>
        <time>2013-07-02T13:49:43Z</time>
      </trkpt>
      <trkpt lat="40.238550" lon="-4.681750">
        <ele>2268.0</ele>
        <time>2013-07-02T13:49:44Z</time>
      </trkpt>
      <trkpt lat="40.238533" lon="-4.681633">
        <ele>2269.0</ele>
        <time>2013-07-02T13:49:45Z</time>
      </trkpt>
      <trkpt lat="40.238517" lon="-4.681517">
        <ele>2271.0</ele>
        <time>2013-07-02T13:49:46Z</time>
      </trkpt>
      <trkpt lat="40.238517" lon="-4.681417">
        <ele>2272.0</ele>
        <time>2013-07-02T13:49:47Z</time>
      </trkpt>
      <trkpt lat="40.238517" lon="-4.681300">
        <ele>2274.0</ele>
        <time>2013-07-02T13:49:48Z</time>
      </trkpt>
      <trkpt lat="40.238517" lon="-4.681183">
        <ele>2275.0</ele>
        <time>2013-07-02T13:49:49Z</time>
      </trkpt>
      <trkpt lat="40.238517" lon="-4.681050">
        <ele>2276.0</ele>
        <time>2013-07-02T13:49:50Z</time>
      </trkpt>
      <trkpt lat="40.238533" lon="-4.680917">
        <ele>2277.0</ele>
        <time>2013-07-02T13:49:51Z</time>
      </trkpt>
      <trkpt lat="40.238550" lon="-4.680783">
        <ele>2278.0</ele>
        <time>2013-07-02T13:49:52Z</time>
      </trkpt>
      <trkpt lat="40.238567" lon="-4.680650">
        <ele>2280.0</ele>
        <time>2013-07-02T13:49:53Z</time>
      </trkpt>
      <trkpt lat="40.238583" lon="-4.680517">
        <ele>2281.0</ele>
        <time>2013-07-02T13:49:54Z</time>
      </trkpt>
      <trkpt lat="40.238600" lon="-4.680383">
        <ele>2282.0</ele>
        <time>2013-07-02T13:49:55Z</time>
      </trkpt>
      <trkpt lat="40.238617" lon="-4.680233">
        <ele>2285.0</ele>
        <time>2013-07-02T13:49:56Z</time>
      </trkpt>
      <trkpt lat="40.238650" lon="-4.680100">
        <ele>2287.0</ele>
        <time>2013-07-02T13:49:57Z</time>
      </trkpt>
      <trkpt lat="40.238683" lon="-4.679983">
        <ele>2289.0</ele>
        <time>2013-07-02T13:49:58Z</time>
      </trkpt>
      <trkpt lat="40.238717" lon="-4.679867">
        <ele>2291.0</ele>
        <time>2013-07-02T13:49:59Z</time>
      </trkpt>
      <trkpt lat="40.238750" lon="-4.679733">
        <ele>2293.0</ele>
        <time>2013-07-02T13:50:00Z</time>
      </trkpt>
      <trkpt lat="40.238800" lon="-4.679617">
        <ele>2295.0</ele>
        <time>2013-07-02T13:50:01Z</time>
      </trkpt>
      <trkpt lat="40.238833" lon="-4.679500">
        <ele>2297.0</ele>
        <time>2013-07-02T13:50:02Z</time>
      </trkpt>
      <trkpt lat="40.238867" lon="-4.679383">
        <ele>2299.0</ele>
        <time>2013-07-02T13:50:03Z</time>
      </trkpt>
      <trkpt lat="40.238917" lon="-4.679267">
        <ele>2302.0</ele>
        <time>2013-07-02T13:50:04Z</time>
      </trkpt>
      <trkpt lat="40.238967" lon="-4.679167">
        <ele>2304.0</ele>
        <time>2013-07-02T13:50:05Z</time>
      </trkpt>
      <trkpt lat="40.239000" lon="-4.679050">
        <ele>2306.0</ele>
        <time>2013-07-02T13:50:06Z</time>
      </trkpt>
      <trkpt lat="40.239017" lon="-4.678917">
        <ele>2307.0</ele>
        <time>2013-07-02T13:50:07Z</time>
      </trkpt>
      <trkpt lat="40.239033" lon="-4.678800">
        <ele>2309.0</ele>
        <time>2013-07-02T13:50:08Z</time>
      </trkpt>
      <trkpt lat="40.239033" lon="-4.678683">
        <ele>2311.0</ele>
        <time>2013-07-02T13:50:09Z</time>
      </trkpt>
      <trkpt lat="40.239050" lon="-4.678550">
        <ele>2313.0</ele>
        <time>2013-07-02T13:50:10Z</time>
      </trkpt>
      <trkpt lat="40.239050" lon="-4.678433">
        <ele>2315.0</ele>
        <time>2013-07-02T13:50:11Z</time>
      </trkpt>
      <trkpt lat="40.239050" lon="-4.678317">
        <ele>2317.0</ele>
        <time>2013-07-02T13:50:12Z</time>
      </trkpt>
      <trkpt lat="40.239033" lon="-4.678200">
        <ele>2317.0</ele>
        <time>2013-07-02T13:50:13Z</time>
      </trkpt>
      <trkpt lat="40.239017" lon="-4.678100">
        <ele>2319.0</ele>
        <time>2013-07-02T13:50:14Z</time>
      </trkpt>
      <trkpt lat="40.238983" lon="-4.677983">
        <ele>2321.0</ele>
        <time>2013-07-02T13:50:15Z</time>
      </trkpt>
      <trkpt lat="40.238950" lon="-4.677900">
        <ele>2323.0</ele>
        <time>2013-07-02T13:50:16Z</time>
      </trkpt>
      <trkpt lat="40.238917" lon="-4.677817">
        <ele>2324.0</ele>
        <time>2013-07-02T13:50:17Z</time>
      </trkpt>
      <trkpt lat="40.238883" lon="-4.677750">
        <ele>2326.0</ele>
        <time>2013-07-02T13:50:18Z</time>
      </trkpt>
      <trkpt lat="40.238850" lon="-4.677667">
        <ele>2327.0</ele>
        <time>2013-07-02T13:50:19Z</time>
      </trkpt>
      <trkpt lat="40.238800" lon="-4.677617">
        <ele>2328.0</ele>
        <time>2013-07-02T13:50:20Z</time>
      </trkpt>
      <trkpt lat="40.238750" lon="-4.677567">
        <ele>2329.0</ele>
        <time>2013-07-02T13:50:21Z</time>
      </trkpt>
      <trkpt lat="40.238717" lon="-4.677533">
        <ele>2329.0</ele>
        <time>2013-07-02T13:50:22Z</time>
      </trkpt>
      <trkpt lat="40.238667" lon="-4.677533">
        <ele>2330.0</ele>
        <time>2013-07-02T13:50:23Z</time>
      </trkpt>
      <trkpt lat="40.238633" lon="-4.677517">
        <ele>2331.0</ele>
        <time>2013-07-02T13:50:24Z</time>
      </trkpt>
      <trkpt lat="40.238600" lon="-4.677517">
        <ele>2333.0</ele>
        <time>2013-07-02T13:50:25Z</time>
      </trkpt>
      <trkpt lat="40.238550" lon="-4.677517">
        <ele>2334.0</ele>
        <time>2013-07-02T13:50:26Z</time>
      </trkpt>
      <trkpt lat="40.238517" lon="-4.677517">
        <ele>2336.0</ele>
        <time>2013-07-02T13:50:27Z</time>
      </trkpt>
      <trkpt lat="40.238483" lon="-4.677517">
        <ele>2338.0</ele>
        <time>2013-07-02T13:50:28Z</time>
      </trkpt>
      <trkpt lat="40.238450" lon="-4.677533">
        <ele>2339.0</ele>
        <time>2013-07-02T13:50:29Z</time>
      </trkpt>
      <trkpt lat="40.238433" lon="-4.677567">
        <ele>2340.0</ele>
        <time>2013-07-02T13:50:30Z</time>
      </trkpt>
      <trkpt lat="40.238400" lon="-4.677600">
        <ele>2341.0</ele>
        <time>2013-07-02T13:50:31Z</time>
      </trkpt>
      <trkpt lat="40.238367" lon="-4.677650">
        <ele>2342.0</ele>
        <time>2013-07-02T13:50:32Z</time>
      </trkpt>
      <trkpt lat="40.238350" lon="-4.677700">
        <ele>2345.0</ele>
        <time>2013-07-02T13:50:33Z</time>
      </trkpt>
      <trkpt lat="40.238367" lon="-4.677750">
        <ele>2347.0</ele>
        <time>2013-07-02T13:50:34Z</time>
      </trkpt>
      <trkpt lat="40.238383" lon="-4.677817">
        <ele>2349.0</ele>
        <time>2013-07-02T13:50:35Z</time>
      </trkpt>
      <trkpt lat="40.238400" lon="-4.677867">
        <ele>2351.0</ele>
        <time>2013-07-02T13:50:36Z</time>
      </trkpt>
      <trkpt lat="40.238433" lon="-4.677933">
        <ele>2353.0</ele>
        <time>2013-07-02T13:50:37Z</time>
      </trkpt>
      <trkpt lat="40.238467" lon="-4.678000">
        <ele>2355.0</ele>
        <time>2013-07-02T13:50:38Z</time>
      </trkpt>
      <trkpt lat="40.238500" lon="-4.678067">
        <ele>2357.0</ele>
        <time>2013-07-02T13:50:39Z</time>
      </trkpt>
      <trkpt lat="40.238567" lon="-4.678150">
        <ele>2359.0</ele>
        <time>2013-07-02T13:50:40Z</time>
      </trkpt>
      <trkpt lat="40.238667" lon="-4.678200">
        <ele>2361.0</ele>
        <time>2013-07-02T13:50:41Z</time>
      </trkpt>
      <trkpt lat="40.238750" lon="-4.678233">
        <ele>2363.0</ele>
        <time>2013-07-02T13:50:42Z</time>
      </trkpt>
      <trkpt lat="40.238850" lon="-4.678233">
        <ele>2365.0</ele>
        <time>2013-07-02T13:50:43Z</time>
      </trkpt>
      <trkpt lat="40.238950" lon="-4.678233">
        <ele>2366.0</ele>
        <time>2013-07-02T13:50:44Z</time>
      </trkpt>
      <trkpt lat="40.239050" lon="-4.678233">
        <ele>2368.0</ele>
        <time>2013-07-02T13:50:45Z</time>
      </trkpt>
      <trkpt lat="40.239150" lon="-4.678200">
        <ele>2368.0</ele>
        <time>2013-07-02T13:50:46Z</time>
      </trkpt>
      <trkpt lat="40.239250" lon="-4.678167">
        <ele>2369.0</ele>
        <time>2013-07-02T13:50:47Z</time>
      </trkpt>
      <trkpt lat="40.239350" lon="-4.678117">
        <ele>2369.0</ele>
        <time>2013-07-02T13:50:48Z</time>
      </trkpt>
      <trkpt lat="40.239450" lon="-4.678033">
        <ele>2369.0</ele>
        <time>2013-07-02T13:50:49Z</time>
      </trkpt>
      <trkpt lat="40.239533" lon="-4.677933">
        <ele>2370.0</ele>
        <time>2013-07-02T13:50:50Z</time>
      </trkpt>
      <trkpt lat="40.239617" lon="-4.677833">
        <ele>2370.0</ele>
        <time>2013-07-02T13:50:51Z</time>
      </trkpt>
      <trkpt lat="40.239667" lon="-4.677717">
        <ele>2371.0</ele>
        <time>2013-07-02T13:50:52Z</time>
      </trkpt>
      <trkpt lat="40.239717" lon="-4.677600">
        <ele>2372.0</ele>
        <time>2013-07-02T13:50:53Z</time>
      </trkpt>
      <trkpt lat="40.239750" lon="-4.677467">
        <ele>2372.0</ele>
        <time>2013-07-02T13:50:54Z</time>
      </trkpt>
      <trkpt lat="40.239767" lon="-4.677333">
        <ele>2373.0</ele>
        <time>2013-07-02T13:50:55Z</time>
      </trkpt>
      <trkpt lat="40.239767" lon="-4.677200">
        <ele>2373.0</ele>
        <time>2013-07-02T13:50:56Z</time>
      </trkpt>
      <trkpt lat="40.239750" lon="-4.677083">
        <ele>2375.0</ele>
        <time>2013-07-02T13:50:57Z</time>
      </trkpt>
      <trkpt lat="40.239733" lon="-4.676967">
        <ele>2375.0</ele>
        <time>2013-07-02T13:50:58Z</time>
      </trkpt>
      <trkpt lat="40.239717" lon="-4.676867">
        <ele>2376.0</ele>
        <time>2013-07-02T13:50:59Z</time>
      </trkpt>
      <trkpt lat="40.239700" lon="-4.676767">
        <ele>2376.0</ele>
        <time>2013-07-02T13:51:00Z</time>
      </trkpt>
      <trkpt lat="40.239667" lon="-4.676667">
        <ele>2377.0</ele>
        <time>2013-07-02T13:51:01Z</time>
      </trkpt>
      <trkpt lat="40.239633" lon="-4.676583">
        <ele>2378.0</ele>
        <time>2013-07-02T13:51:02Z</time>
      </trkpt>
      <trkpt lat="40.239583" lon="-4.676517">
        <ele>2380.0</ele>
        <time>2013-07-02T13:51:03Z</time>
      </trkpt>
      <trkpt lat="40.239533" lon="-4.676467">
        <ele>2381.0</ele>
        <time>2013-07-02T13:51:04Z</time>
      </trkpt>
      <trkpt lat="40.239483" lon="-4.676450">
        <ele>2383.0</ele>
        <time>2013-07-02T13:51:05Z</time>
      </trkpt>
      <trkpt lat="40.239450" lon="-4.676417">
        <ele>2385.0</ele>
        <time>2013-07-02T13:51:06Z</time>
      </trkpt>
      <trkpt lat="40.239400" lon="-4.676400">
        <ele>2387.0</ele>
        <time>2013-07-02T13:51:07Z</time>
      </trkpt>
      <trkpt lat="40.239350" lon="-4.676383">
        <ele>2389.0</ele>
        <time>2013-07-02T13:51:08Z</time>
      </trkpt>
      <trkpt lat="40.239317" lon="-4.676383">
        <ele>2391.0</ele>
        <time>2013-07-02T13:51:09Z</time>
      </trkpt>
      <trkpt lat="40.239283" lon="-4.676383">
        <ele>2393.0</ele>
        <time>2013-07-02T13:51:10Z</time>
      </trkpt>
      <trkpt lat="40.239250" lon="-4.676400">
        <ele>2395.0</ele>
        <time>2013-07-02T13:51:11Z</time>
      </trkpt>
      <trkpt lat="40.239217" lon="-4.676417">
        <ele>2397.0</ele>
        <time>2013-07-02T13:51:12Z</time>
      </trkpt>
      <trkpt lat="40.239183" lon="-4.676450">
        <ele>2398.0</ele>
        <time>2013-07-02T13:51:13Z</time>
      </trkpt>
      <trkpt lat="40.239183" lon="-4.676500">
        <ele>2401.0</ele>
        <time>2013-07-02T13:51:14Z</time>
      </trkpt>
      <trkpt lat="40.239167" lon="-4.676550">
        <ele>2403.0</ele>
        <time>2013-07-02T13:51:15Z</time>
      </trkpt>
      <trkpt lat="40.239167" lon="-4.676600">
        <ele>2405.0</ele>
        <time>2013-07-02T13:51:16Z</time>
      </trkpt>
      <trkpt lat="40.239167" lon="-4.676650">
        <ele>2404.0</ele>
        <time>2013-07-02T13:51:17Z</time>
      </trkpt>
      <trkpt lat="40.239150" lon="-4.676717">
        <ele>2405.0</ele>
        <time>2013-07-02T13:51:18Z</time>
      </trkpt>
      <trkpt lat="40.239150" lon="-4.676800">
        <ele>2406.0</ele>
        <time>2013-07-02T13:51:19Z</time>
      </trkpt>
      <trkpt lat="40.239167" lon="-4.676883">
        <ele>2408.0</ele>
        <time>2013-07-02T13:51:20Z</time>
      </trkpt>
      <trkpt lat="40.239200" lon="-4.676950">
        <ele>2412.0</ele>
        <time>2013-07-02T13:51:21Z</time>
      </trkpt>
      <trkpt lat="40.239250" lon="-4.677000">
        <ele>2416.0</ele>
        <time>2013-07-02T13:51:22Z</time>
      </trkpt>
      <trkpt lat="40.239300" lon="-4.677050">
        <ele>2419.0</ele>
        <time>2013-07-02T13:51:23Z</time>
      </trkpt>
      <trkpt lat="40.239350" lon="-4.677117">
        <ele>2421.0</ele>
        <time>2013-07-02T13:51:24Z</time>
      </trkpt>
      <trkpt lat="40.239417" lon="-4.677150">
        <ele>2424.0</ele>
        <time>2013-07-02T13:51:25Z</time>
      </trkpt>
      <trkpt lat="40.239483" lon="-4.677167">
        <ele>2425.0</ele>
        <time>2013-07-02T13:51:26Z</time>
      </trkpt>
      <trkpt lat="40.239567" lon="-4.677167">
        <ele>2427.0</ele>
        <time>2013-07-02T13:51:27Z</time>
      </trkpt>
      <trkpt lat="40.239667" lon="-4.677133">
        <ele>2428.0</ele>
        <time>2013-07-02T13:51:28Z</time>
      </trkpt>
      <trkpt lat="40.239767" lon="-4.677100">
        <ele>2429.0</ele>
        <time>2013-07-02T13:51:29Z</time>
      </trkpt>
      <trkpt lat="40.239850" lon="-4.677033">
        <ele>2431.0</ele>
        <time>2013-07-02T13:51:30Z</time>
      </trkpt>
      <trkpt lat="40.239950" lon="-4.676967">
        <ele>2432.0</ele>
        <time>2013-07-02T13:51:31Z</time>
      </trkpt>
      <trkpt lat="40.240033" lon="-4.676883">
        <ele>2434.0</ele>
        <time>2013-07-02T13:51:32Z</time>
      </trkpt>
      <trkpt lat="40.240117" lon="-4.676783">
        <ele>2435.0</ele>
        <time>2013-07-02T13:51:33Z</time>
      </trkpt>
      <trkpt lat="40.240183" lon="-4.676667">
        <ele>2437.0</ele>
        <time>2013-07-02T13:51:34Z</time>
      </trkpt>
      <trkpt lat="40.240233" lon="-4.676550">
        <ele>2438.0</ele>
        <time>2013-07-02T13:51:35Z</time>
      </trkpt>
      <trkpt lat="40.240267" lon="-4.676417">
        <ele>2440.0</ele>
        <time>2013-07-02T13:51:36Z</time>
      </trkpt>
      <trkpt lat="40.240317" lon="-4.676300">
        <ele>2442.0</ele>
        <time>2013-07-02T13:51:37Z</time>
      </trkpt>
      <trkpt lat="40.240350" lon="-4.676183">
        <ele>2443.0</ele>
        <time>2013-07-02T13:51:38Z</time>
      </trkpt>
      <trkpt lat="40.240383" lon="-4.676050">
        <ele>2445.0</ele>
        <time>2013-07-02T13:51:39Z</time>
      </trkpt>
      <trkpt lat="40.240400" lon="-4.675933">
        <ele>2446.0</ele>
        <time>2013-07-02T13:51:40Z</time>
      </trkpt>
      <trkpt lat="40.240417" lon="-4.675817">
        <ele>2448.0</ele>
        <time>2013-07-02T13:51:41Z</time>
      </trkpt>
      <trkpt lat="40.240400" lon="-4.675700">
        <ele>2449.0</ele>
        <time>2013-07-02T13:51:42Z</time>
      </trkpt>
      <trkpt lat="40.240383" lon="-4.675600">
        <ele>2450.0</ele>
        <time>2013-07-02T13:51:43Z</time>
      </trkpt>
      <trkpt lat="40.240367" lon="-4.675533">
        <ele>2451.0</ele>
        <time>2013-07-02T13:51:44Z</time>
      </trkpt>
      <trkpt lat="40.240333" lon="-4.675467">
        <ele>2452.0</ele>
        <time>2013-07-02T13:51:45Z</time>
      </trkpt>
      <trkpt lat="40.240283" lon="-4.675417">
        <ele>2452.0</ele>
        <time>2013-07-02T13:51:46Z</time>
      </trkpt>
      <trkpt lat="40.240250" lon="-4.675350">
        <ele>2454.0</ele>
        <time>2013-07-02T13:51:47Z</time>
      </trkpt>
      <trkpt lat="40.240200" lon="-4.675300">
        <ele>2455.0</ele>
        <time>2013-07-02T13:51:48Z</time>
      </trkpt>
      <trkpt lat="40.240150" lon="-4.675250">
        <ele>2456.0</ele>
        <time>2013-07-02T13:51:49Z</time>
      </trkpt>
      <trkpt lat="40.240083" lon="-4.675200">
        <ele>2457.0</ele>
        <time>2013-07-02T13:51:50Z</time>
      </trkpt>
      <trkpt lat="40.240017" lon="-4.675183">
        <ele>2459.0</ele>
        <time>2013-07-02T13:51:51Z</time>
      </trkpt>
      <trkpt lat="40.239967" lon="-4.675200">
        <ele>2462.0</ele>
        <time>2013-07-02T13:51:52Z</time>
      </trkpt>
      <trkpt lat="40.239933" lon="-4.675233">
        <ele>2463.0</ele>
        <time>2013-07-02T13:51:53Z</time>
      </trkpt>
      <trkpt lat="40.239900" lon="-4.675250">
        <ele>2465.0</ele>
        <time>2013-07-02T13:51:54Z</time>
      </trkpt>
      <trkpt lat="40.239883" lon="-4.675283">
        <ele>2467.0</ele>
        <time>2013-07-02T13:51:55Z</time>
      </trkpt>
      <trkpt lat="40.239867" lon="-4.675333">
        <ele>2469.0</ele>
        <time>2013-07-02T13:51:56Z</time>
      </trkpt>
      <trkpt lat="40.239883" lon="-4.675400">
        <ele>2470.0</ele>
        <time>2013-07-02T13:51:57Z</time>
      </trkpt>
      <trkpt lat="40.239900" lon="-4.675483">
        <ele>2472.0</ele>
        <time>2013-07-02T13:51:58Z</time>
      </trkpt>
      <trkpt lat="40.239917" lon="-4.675550">
        <ele>2473.0</ele>
        <time>2013-07-02T13:51:59Z</time>
      </trkpt>
      <trkpt lat="40.239950" lon="-4.675633">
        <ele>2474.0</ele>
        <time>2013-07-02T13:52:00Z</time>
      </trkpt>
      <trkpt lat="40.240000" lon="-4.675700">
        <ele>2475.0</ele>
        <time>2013-07-02T13:52:01Z</time>
      </trkpt>
      <trkpt lat="40.240050" lon="-4.675767">
        <ele>2478.0</ele>
        <time>2013-07-02T13:52:02Z</time>
      </trkpt>
      <trkpt lat="40.240117" lon="-4.675817">
        <ele>2480.0</ele>
        <time>2013-07-02T13:52:03Z</time>
      </trkpt>
      <trkpt lat="40.240200" lon="-4.675850">
        <ele>2482.0</ele>
        <time>2013-07-02T13:52:04Z</time>
      </trkpt>
      <trkpt lat="40.240300" lon="-4.675867">
        <ele>2484.0</ele>
        <time>2013-07-02T13:52:05Z</time>
      </trkpt>
      <trkpt lat="40.240417" lon="-4.675883">
        <ele>2486.0</ele>
        <time>2013-07-02T13:52:06Z</time>
      </trkpt>
      <trkpt lat="40.240533" lon="-4.675850">
        <ele>2489.0</ele>
        <time>2013-07-02T13:52:07Z</time>
      </trkpt>
      <trkpt lat="40.240633" lon="-4.675833">
        <ele>2493.0</ele>
        <time>2013-07-02T13:52:08Z</time>
      </trkpt>
      <trkpt lat="40.240733" lon="-4.675783">
        <ele>2497.0</ele>
        <time>2013-07-02T13:52:09Z</time>
      </trkpt>
      <trkpt lat="40.240800" lon="-4.675733">
        <ele>2499.0</ele>
        <time>2013-07-02T13:52:10Z</time>
      </trkpt>
      <trkpt lat="40.240883" lon="-4.675667">
        <ele>2500.0</ele>
        <time>2013-07-02T13:52:11Z</time>
      </trkpt>
      <trkpt lat="40.240967" lon="-4.675583">
        <ele>2501.0</ele>
        <time>2013-07-02T13:52:12Z</time>
      </trkpt>
      <trkpt lat="40.241033" lon="-4.675483">
        <ele>2502.0</ele>
        <time>2013-07-02T13:52:13Z</time>
      </trkpt>
      <trkpt lat="40.241083" lon="-4.675350">
        <ele>2502.0</ele>
        <time>2013-07-02T13:52:14Z</time>
      </trkpt>
      <trkpt lat="40.241067" lon="-4.675200">
        <ele>2503.0</ele>
        <time>2013-07-02T13:52:15Z</time>
      </trkpt>
      <trkpt lat="40.241033" lon="-4.675083">
        <ele>2505.0</ele>
        <time>2013-07-02T13:52:16Z</time>
      </trkpt>
      <trkpt lat="40.241000" lon="-4.675000">
        <ele>2509.0</ele>
        <time>2013-07-02T13:52:17Z</time>
      </trkpt>
      <trkpt lat="40.240967" lon="-4.674933">
        <ele>2512.0</ele>
        <time>2013-07-02T13:52:18Z</time>
      </trkpt>
      <trkpt lat="40.240933" lon="-4.674867">
        <ele>2515.0</ele>
        <time>2013-07-02T13:52:19Z</time>
      </trkpt>
      <trkpt lat="40.240917" lon="-4.674817">
        <ele>2517.0</ele>
        <time>2013-07-02T13:52:20Z</time>
      </trkpt>
      <trkpt lat="40.240900" lon="-4.674783">
        <ele>2518.0</ele>
        <time>2013-07-02T13:52:21Z</time>
      </trkpt>
      <trkpt lat="40.240867" lon="-4.674783">
        <ele>2519.0</ele>
        <time>2013-07-02T13:52:22Z</time>
      </trkpt>
      <trkpt lat="40.240833" lon="-4.674783">
        <ele>2519.0</ele>
        <time>2013-07-02T13:52:23Z</time>
      </trkpt>
      <trkpt lat="40.240800" lon="-4.674817">
        <ele>2520.0</ele>
        <time>2013-07-02T13:52:24Z</time>
      </trkpt>
      <trkpt lat="40.240767" lon="-4.674867">
        <ele>2523.0</ele>
        <time>2013-07-02T13:52:25Z</time>
      </trkpt>
      <trkpt lat="40.240750" lon="-4.674917">
        <ele>2526.0</ele>
        <time>2013-07-02T13:52:26Z</time>
      </trkpt>
      <trkpt lat="40.240767" lon="-4.674983">
        <ele>2528.0</ele>
        <time>2013-07-02T13:52:27Z</time>
      </trkpt>
      <trkpt lat="40.240783" lon="-4.675050">
        <ele>2528.0</ele>
        <time>2013-07-02T13:52:28Z</time>
      </trkpt>
      <trkpt lat="40.240783" lon="-4.675133">
        <ele>2529.0</ele>
        <time>2013-07-02T13:52:29Z</time>
      </trkpt>
      <trkpt lat="40.240800" lon="-4.675217">
        <ele>2530.0</ele>
        <time>2013-07-02T13:52:30Z</time>
      </trkpt>
      <trkpt lat="40.240833" lon="-4.675317">
        <ele>2532.0</ele>
        <time>2013-07-02T13:52:31Z</time>
      </trkpt>
      <trkpt lat="40.240900" lon="-4.675400">
        <ele>2535.0</ele>
        <time>2013-07-02T13:52:32Z</time>
      </trkpt>
      <trkpt lat="40.241000" lon="-4.675450">
        <ele>2537.0</ele>
        <time>2013-07-02T13:52:33Z</time>
      </trkpt>
      <trkpt lat="40.241100" lon="-4.675500">
        <ele>2539.0</ele>
        <time>2013-07-02T13:52:34Z</time>
      </trkpt>
      <trkpt lat="40.241200" lon="-4.675517">
        <ele>2540.0</ele>
        <time>2013-07-02T13:52:35Z</time>
      </trkpt>
      <trkpt lat="40.241300" lon="-4.675500">
        <ele>2543.0</ele>
        <time>2013-07-02T13:52:36Z</time>
      </trkpt>
      <trkpt lat="40.241400" lon="-4.675433">
        <ele>2543.0</ele>
        <time>2013-07-02T13:52:37Z</time>
      </trkpt>
      <trkpt lat="40.241500" lon="-4.675350">
        <ele>2544.0</ele>
        <time>2013-07-02T13:52:38Z</time>
      </trkpt>
      <trkpt lat="40.241583" lon="-4.675250">
        <ele>2545.0</ele>
        <time>2013-07-02T13:52:39Z</time>
      </trkpt>
      <trkpt lat="40.241650" lon="-4.675167">
        <ele>2546.0</ele>
        <time>2013-07-02T13:52:40Z</time>
      </trkpt>
      <trkpt lat="40.241733" lon="-4.675067">
        <ele>2547.0</ele>
        <time>2013-07-02T13:52:41Z</time>
      </trkpt>
      <trkpt lat="40.241800" lon="-4.674950">
        <ele>2548.0</ele>
        <time>2013-07-02T13:52:42Z</time>
      </trkpt>
      <trkpt lat="40.241850" lon="-4.674833">
        <ele>2548.0</ele>
        <time>2013-07-02T13:52:43Z</time>
      </trkpt>
      <trkpt lat="40.241883" lon="-4.674717">
        <ele>2549.0</ele>
        <time>2013-07-02T13:52:44Z</time>
      </trkpt>
      <trkpt lat="40.241917" lon="-4.674600">
        <ele>2549.0</ele>
        <time>2013-07-02T13:52:45Z</time>
      </trkpt>
      <trkpt lat="40.241933" lon="-4.674467">
        <ele>2549.0</ele>
        <time>2013-07-02T13:52:46Z</time>
      </trkpt>
      <trkpt lat="40.241933" lon="-4.674333">
        <ele>2549.0</ele>
        <time>2013-07-02T13:52:47Z</time>
      </trkpt>
      <trkpt lat="40.241917" lon="-4.674217">
        <ele>2550.0</ele>
        <time>2013-07-02T13:52:48Z</time>
      </trkpt>
      <trkpt lat="40.241900" lon="-4.674100">
        <ele>2552.0</ele>
        <time>2013-07-02T13:52:49Z</time>
      </trkpt>
      <trkpt lat="40.241883" lon="-4.674000">
        <ele>2554.0</ele>
        <time>2013-07-02T13:52:50Z</time>
      </trkpt>
      <trkpt lat="40.241867" lon="-4.673883">
        <ele>2555.0</ele>
        <time>2013-07-02T13:52:51Z</time>
      </trkpt>
      <trkpt lat="40.241850" lon="-4.673783">
        <ele>2556.0</ele>
        <time>2013-07-02T13:52:52Z</time>
      </trkpt>
      <trkpt lat="40.241833" lon="-4.673667">
        <ele>2558.0</ele>
        <time>2013-07-02T13:52:53Z</time>
      </trkpt>
      <trkpt lat="40.241800" lon="-4.673550">
        <ele>2560.0</ele>
        <time>2013-07-02T13:52:54Z</time>
      </trkpt>
      <trkpt lat="40.241767" lon="-4.673450">
        <ele>2562.0</ele>
        <time>2013-07-02T13:52:55Z</time>
      </trkpt>
      <trkpt lat="40.241733" lon="-4.673350">
        <ele>2564.0</ele>
        <time>2013-07-02T13:52:56Z</time>
      </trkpt>
      <trkpt lat="40.241683" lon="-4.673250">
        <ele>2566.0</ele>
        <time>2013-07-02T13:52:57Z</time>
      </trkpt>
      <trkpt lat="40.241650" lon="-4.673167">
        <ele>2568.0</ele>
        <time>2013-07-02T13:52:58Z</time>
      </trkpt>
      <trkpt lat="40.241617" lon="-4.673083">
        <ele>2571.0</ele>
        <time>2013-07-02T13:52:59Z</time>
      </trkpt>
      <trkpt lat="40.241583" lon="-4.673000">
        <ele>2573.0</ele>
        <time>2013-07-02T13:53:00Z</time>
      </trkpt>
      <trkpt lat="40.241550" lon="-4.672917">
        <ele>2575.0</ele>
        <time>2013-07-02T13:53:01Z</time>
      </trkpt>
      <trkpt lat="40.241500" lon="-4.672867">
        <ele>2576.0</ele>
        <time>2013-07-02T13:53:02Z</time>
      </trkpt>
      <trkpt lat="40.241433" lon="-4.672817">
        <ele>2578.0</ele>
        <time>2013-07-02T13:53:03Z</time>
      </trkpt>
      <trkpt lat="40.241383" lon="-4.672783">
        <ele>2579.0</ele>
        <time>2013-07-02T13:53:04Z</time>
      </trkpt>
      <trkpt lat="40.241317" lon="-4.672783">
        <ele>2582.0</ele>
        <time>2013-07-02T13:53:05Z</time>
      </trkpt>
      <trkpt lat="40.241267" lon="-4.672800">
        <ele>2585.0</ele>
        <time>2013-07-02T13:53:06Z</time>
      </trkpt>
      <trkpt lat="40.241233" lon="-4.672817">
        <ele>2588.0</ele>
        <time>2013-07-02T13:53:07Z</time>
      </trkpt>
      <trkpt lat="40.241217" lon="-4.672867">
        <ele>2591.0</ele>
        <time>2013-07-02T13:53:08Z</time>
      </trkpt>
      <trkpt lat="40.241200" lon="-4.672917">
        <ele>2593.0</ele>
        <time>2013-07-02T13:53:09Z</time>
      </trkpt>
      <trkpt lat="40.241217" lon="-4.672983">
        <ele>2595.0</ele>
        <time>2013-07-02T13:53:10Z</time>
      </trkpt>
      <trkpt lat="40.241233" lon="-4.673050">
        <ele>2597.0</ele>
        <time>2013-07-02T13:53:11Z</time>
      </trkpt>
      <trkpt lat="40.241283" lon="-4.673117">
        <ele>2597.0</ele>
        <time>2013-07-02T13:53:12Z</time>
      </trkpt>
      <trkpt lat="40.241350" lon="-4.673183">
        <ele>2597.0</ele>
        <time>2013-07-02T13:53:13Z</time>
      </trkpt>
      <trkpt lat="40.241450" lon="-4.673200">
        <ele>2598.0</ele>
        <time>2013-07-02T13:53:14Z</time>
      </trkpt>
      <trkpt lat="40.241550" lon="-4.673183">
        <ele>2599.0</ele>
        <time>2013-07-02T13:53:15Z</time>
      </trkpt>
      <trkpt lat="40.241633" lon="-4.673117">
        <ele>2599.0</ele>
        <time>2013-07-02T13:53:16Z</time>
      </trkpt>
      <trkpt lat="40.241717" lon="-4.673017">
        <ele>2600.0</ele>
        <time>2013-07-02T13:53:17Z</time>
      </trkpt>
      <trkpt lat="40.241783" lon="-4.672900">
        <ele>2601.0</ele>
        <time>2013-07-02T13:53:18Z</time>
      </trkpt>
      <trkpt lat="40.241833" lon="-4.672783">
        <ele>2603.0</ele>
        <time>2013-07-02T13:53:19Z</time>
      </trkpt>
      <trkpt lat="40.241900" lon="-4.672667">
        <ele>2605.0</ele>
        <time>2013-07-02T13:53:20Z</time>
      </trkpt>
      <trkpt lat="40.241933" lon="-4.672550">
        <ele>2608.0</ele>
        <time>2013-07-02T13:53:21Z</time>
      </trkpt>
      <trkpt lat="40.241967" lon="-4.672417">
        <ele>2610.0</ele>
        <time>2013-07-02T13:53:22Z</time>
      </trkpt>
      <trkpt lat="40.242000" lon="-4.672300">
        <ele>2612.0</ele>
        <time>2013-07-02T13:53:23Z</time>
      </trkpt>
      <trkpt lat="40.242017" lon="-4.672167">
        <ele>2615.0</ele>
        <time>2013-07-02T13:53:24Z</time>
      </trkpt>
      <trkpt lat="40.242017" lon="-4.672033">
        <ele>2617.0</ele>
        <time>2013-07-02T13:53:25Z</time>
      </trkpt>
      <trkpt lat="40.242000" lon="-4.671900">
        <ele>2619.0</ele>
        <time>2013-07-02T13:53:26Z</time>
      </trkpt>
      <trkpt lat="40.242000" lon="-4.671783">
        <ele>2621.0</ele>
        <time>2013-07-02T13:53:27Z</time>
      </trkpt>
      <trkpt lat="40.241967" lon="-4.671650">
        <ele>2624.0</ele>
        <time>2013-07-02T13:53:28Z</time>
      </trkpt>
      <trkpt lat="40.241933" lon="-4.671533">
        <ele>2626.0</ele>
        <time>2013-07-02T13:53:29Z</time>
      </trkpt>
      <trkpt lat="40.241900" lon="-4.671433">
        <ele>2628.0</ele>
        <time>2013-07-02T13:53:30Z</time>
      </trkpt>
      <trkpt lat="40.241850" lon="-4.671350">
        <ele>2629.0</ele>
        <time>2013-07-02T13:53:31Z</time>
      </trkpt>
      <trkpt lat="40.241783" lon="-4.671300">
        <ele>2630.0</ele>
        <time>2013-07-02T13:53:32Z</time>
      </trkpt>
      <trkpt lat="40.241733" lon="-4.671250">
        <ele>2632.0</ele>
        <time>2013-07-02T13:53:33Z</time>
      </trkpt>
      <trkpt lat="40.241683" lon="-4.671200">
        <ele>2633.0</ele>
        <time>2013-07-02T13:53:34Z</time>
      </trkpt>
      <trkpt lat="40.241617" lon="-4.671183">
        <ele>2634.0</ele>
        <time>2013-07-02T13:53:35Z</time>
      </trkpt>
      <trkpt lat="40.241567" lon="-4.671150">
        <ele>2636.0</ele>
        <time>2013-07-02T13:53:36Z</time>
      </trkpt>
      <trkpt lat="40.241517" lon="-4.671133">
        <ele>2637.0</ele>
        <time>2013-07-02T13:53:37Z</time>
      </trkpt>
      <trkpt lat="40.241483" lon="-4.671133">
        <ele>2638.0</ele>
        <time>2013-07-02T13:53:38Z</time>
      </trkpt>
      <trkpt lat="40.241450" lon="-4.671133">
        <ele>2637.0</ele>
        <time>2013-07-02T13:53:39Z</time>
      </trkpt>
      <trkpt lat="40.241417" lon="-4.671150">
        <ele>2636.0</ele>
        <time>2013-07-02T13:53:40Z</time>
      </trkpt>
      <trkpt lat="40.241400" lon="-4.671183">
        <ele>2635.0</ele>
        <time>2013-07-02T13:53:41Z</time>
      </trkpt>
      <trkpt lat="40.241400" lon="-4.671233">
        <ele>2634.0</ele>
        <time>2013-07-02T13:53:42Z</time>
      </trkpt>
      <trkpt lat="40.241383" lon="-4.671283">
        <ele>2633.0</ele>
        <time>2013-07-02T13:53:43Z</time>
      </trkpt>
      <trkpt lat="40.241383" lon="-4.671350">
        <ele>2631.0</ele>
        <time>2013-07-02T13:53:44Z</time>
      </trkpt>
      <trkpt lat="40.241417" lon="-4.671417">
        <ele>2630.0</ele>
        <time>2013-07-02T13:53:45Z</time>
      </trkpt>
      <trkpt lat="40.241467" lon="-4.671500">
        <ele>2628.0</ele>
        <time>2013-07-02T13:53:46Z</time>
      </trkpt>
      <trkpt lat="40.241533" lon="-4.671550">
        <ele>2626.0</ele>
        <time>2013-07-02T13:53:47Z</time>
      </trkpt>
      <trkpt lat="40.241617" lon="-4.671583">
        <ele>2625.0</ele>
        <time>2013-07-02T13:53:48Z</time>
      </trkpt>
      <trkpt lat="40.241733" lon="-4.671617">
        <ele>2625.0</ele>
        <time>2013-07-02T13:53:49Z</time>
      </trkpt>
      <trkpt lat="40.241833" lon="-4.671617">
        <ele>2624.0</ele>
        <time>2013-07-02T13:53:50Z</time>
      </trkpt>
      <trkpt lat="40.241933" lon="-4.671600">
        <ele>2623.0</ele>
        <time>2013-07-02T13:53:51Z</time>
      </trkpt>
      <trkpt lat="40.242033" lon="-4.671550">
        <ele>2622.0</ele>
        <time>2013-07-02T13:53:52Z</time>
      </trkpt>
      <trkpt lat="40.242133" lon="-4.671467">
        <ele>2619.0</ele>
        <time>2013-07-02T13:53:53Z</time>
      </trkpt>
      <trkpt lat="40.242250" lon="-4.671383">
        <ele>2618.0</ele>
        <time>2013-07-02T13:53:54Z</time>
      </trkpt>
      <trkpt lat="40.242367" lon="-4.671283">
        <ele>2618.0</ele>
        <time>2013-07-02T13:53:55Z</time>
      </trkpt>
      <trkpt lat="40.242467" lon="-4.671167">
        <ele>2618.0</ele>
        <time>2013-07-02T13:53:56Z</time>
      </trkpt>
      <trkpt lat="40.242567" lon="-4.671067">
        <ele>2619.0</ele>
        <time>2013-07-02T13:53:57Z</time>
      </trkpt>
      <trkpt lat="40.242650" lon="-4.670967">
        <ele>2619.0</ele>
        <time>2013-07-02T13:53:58Z</time>
      </trkpt>
      <trkpt lat="40.242733" lon="-4.670850">
        <ele>2619.0</ele>
        <time>2013-07-02T13:53:59Z</time>
      </trkpt>
      <trkpt lat="40.242800" lon="-4.670717">
        <ele>2619.0</ele>
        <time>2013-07-02T13:54:00Z</time>
      </trkpt>
      <trkpt lat="40.242850" lon="-4.670550">
        <ele>2620.0</ele>
        <time>2013-07-02T13:54:01Z</time>
      </trkpt>
      <trkpt lat="40.242883" lon="-4.670383">
        <ele>2620.0</ele>
        <time>2013-07-02T13:54:02Z</time>
      </trkpt>
      <trkpt lat="40.242917" lon="-4.670233">
        <ele>2621.0</ele>
        <time>2013-07-02T13:54:03Z</time>
      </trkpt>
      <trkpt lat="40.242950" lon="-4.670067">
        <ele>2624.0</ele>
        <time>2013-07-02T13:54:04Z</time>
      </trkpt>
      <trkpt lat="40.242967" lon="-4.669917">
        <ele>2627.0</ele>
        <time>2013-07-02T13:54:05Z</time>
      </trkpt>
      <trkpt lat="40.242983" lon="-4.669783">
        <ele>2632.0</ele>
        <time>2013-07-02T13:54:06Z</time>
      </trkpt>
      <trkpt lat="40.242983" lon="-4.669683">
        <ele>2636.0</ele>
        <time>2013-07-02T13:54:07Z</time>
      </trkpt>
      <trkpt lat="40.242967" lon="-4.669567">
        <ele>2638.0</ele>
        <time>2013-07-02T13:54:08Z</time>
      </trkpt>
      <trkpt lat="40.242967" lon="-4.669433">
        <ele>2640.0</ele>
        <time>2013-07-02T13:54:09Z</time>
      </trkpt>
      <trkpt lat="40.242950" lon="-4.669317">
        <ele>2642.0</ele>
        <time>2013-07-02T13:54:10Z</time>
      </trkpt>
      <trkpt lat="40.242917" lon="-4.669217">
        <ele>2643.0</ele>
        <time>2013-07-02T13:54:11Z</time>
      </trkpt>
      <trkpt lat="40.242867" lon="-4.669133">
        <ele>2644.0</ele>
        <time>2013-07-02T13:54:12Z</time>
      </trkpt>
      <trkpt lat="40.242800" lon="-4.669083">
        <ele>2645.0</ele>
        <time>2013-07-02T13:54:13Z</time>
      </trkpt>
      <trkpt lat="40.242750" lon="-4.669083">
        <ele>2647.0</ele>
        <time>2013-07-02T13:54:14Z</time>
      </trkpt>
      <trkpt lat="40.242733" lon="-4.669117">
        <ele>2648.0</ele>
        <time>2013-07-02T13:54:15Z</time>
      </trkpt>
      <trkpt lat="40.242733" lon="-4.669183">
        <ele>2650.0</ele>
        <time>2013-07-02T13:54:16Z</time>
      </trkpt>
      <trkpt lat="40.242767" lon="-4.669267">
        <ele>2652.0</ele>
        <time>2013-07-02T13:54:17Z</time>
      </trkpt>
      <trkpt lat="40.242817" lon="-4.669333">
        <ele>2655.0</ele>
        <time>2013-07-02T13:54:18Z</time>
      </trkpt>
      <trkpt lat="40.242900" lon="-4.669367">
        <ele>2658.0</ele>
        <time>2013-07-02T13:54:19Z</time>
      </trkpt>
      <trkpt lat="40.243000" lon="-4.669350">
        <ele>2661.0</ele>
        <time>2013-07-02T13:54:20Z</time>
      </trkpt>
      <trkpt lat="40.243100" lon="-4.669333">
        <ele>2662.0</ele>
        <time>2013-07-02T13:54:21Z</time>
      </trkpt>
      <trkpt lat="40.243217" lon="-4.669283">
        <ele>2663.0</ele>
        <time>2013-07-02T13:54:22Z</time>
      </trkpt>
      <trkpt lat="40.243317" lon="-4.669200">
        <ele>2664.0</ele>
        <time>2013-07-02T13:54:23Z</time>
      </trkpt>
      <trkpt lat="40.243417" lon="-4.669100">
        <ele>2666.0</ele>
        <time>2013-07-02T13:54:24Z</time>
      </trkpt>
      <trkpt lat="40.243483" lon="-4.668967">
        <ele>2668.0</ele>
        <time>2013-07-02T13:54:25Z</time>
      </trkpt>
      <trkpt lat="40.243550" lon="-4.668850">
        <ele>2671.0</ele>
        <time>2013-07-02T13:54:26Z</time>
      </trkpt>
      <trkpt lat="40.243633" lon="-4.668750">
        <ele>2674.0</ele>
        <time>2013-07-02T13:54:27Z</time>
      </trkpt>
      <trkpt lat="40.243700" lon="-4.668650">
        <ele>2677.0</ele>
        <time>2013-07-02T13:54:28Z</time>
      </trkpt>
      <trkpt lat="40.243750" lon="-4.668533">
        <ele>2680.0</ele>
        <time>2013-07-02T13:54:29Z</time>
      </trkpt>
      <trkpt lat="40.243800" lon="-4.668400">
        <ele>2681.0</ele>
        <time>2013-07-02T13:54:30Z</time>
      </trkpt>
      <trkpt lat="40.243850" lon="-4.668250">
        <ele>2682.0</ele>
        <time>2013-07-02T13:54:31Z</time>
      </trkpt>
      <trkpt lat="40.243867" lon="-4.668083">
        <ele>2683.0</ele>
        <time>2013-07-02T13:54:32Z</time>
      </trkpt>
      <trkpt lat="40.243850" lon="-4.667917">
        <ele>2685.0</ele>
        <time>2013-07-02T13:54:33Z</time>
      </trkpt>
      <trkpt lat="40.243850" lon="-4.667767">
        <ele>2686.0</ele>
        <time>2013-07-02T13:54:34Z</time>
      </trkpt>
      <trkpt lat="40.243867" lon="-4.667617">
        <ele>2687.0</ele>
        <time>2013-07-02T13:54:35Z</time>
      </trkpt>
      <trkpt lat="40.243867" lon="-4.667483">
        <ele>2688.0</ele>
        <time>2013-07-02T13:54:36Z</time>
      </trkpt>
      <trkpt lat="40.243883" lon="-4.667317">
        <ele>2687.0</ele>
        <time>2013-07-02T13:54:37Z</time>
      </trkpt>
      <trkpt lat="40.243883" lon="-4.667183">
        <ele>2683.0</ele>
        <time>2013-07-02T13:54:38Z</time>
      </trkpt>
      <trkpt lat="40.243850" lon="-4.667033">
        <ele>2681.0</ele>
        <time>2013-07-02T13:54:39Z</time>
      </trkpt>
      <trkpt lat="40.243817" lon="-4.666900">
        <ele>2680.0</ele>
        <time>2013-07-02T13:54:40Z</time>
      </trkpt>
      <trkpt lat="40.243767" lon="-4.666800">
        <ele>2678.0</ele>
        <time>2013-07-02T13:54:41Z</time>
      </trkpt>
      <trkpt lat="40.243717" lon="-4.666717">
        <ele>2677.0</ele>
        <time>2013-07-02T13:54:42Z</time>
      </trkpt>
      <trkpt lat="40.243650" lon="-4.666650">
        <ele>2677.0</ele>
        <time>2013-07-02T13:54:43Z</time>
      </trkpt>
      <trkpt lat="40.243583" lon="-4.666600">
        <ele>2677.0</ele>
        <time>2013-07-02T13:54:44Z</time>
      </trkpt>
      <trkpt lat="40.243533" lon="-4.666567">
        <ele>2677.0</ele>
        <time>2013-07-02T13:54:45Z</time>
      </trkpt>
      <trkpt lat="40.243500" lon="-4.666533">
        <ele>2677.0</ele>
        <time>2013-07-02T13:54:46Z</time>
      </trkpt>
      <trkpt lat="40.243450" lon="-4.666517">
        <ele>2677.0</ele>
        <time>2013-07-02T13:54:47Z</time>
      </trkpt>
      <trkpt lat="40.243417" lon="-4.666500">
        <ele>2677.0</ele>
        <time>2013-07-02T13:54:48Z</time>
      </trkpt>
      <trkpt lat="40.243383" lon="-4.666483">
        <ele>2677.0</ele>
        <time>2013-07-02T13:54:49Z</time>
      </trkpt>
      <trkpt lat="40.243367" lon="-4.666467">
        <ele>2677.0</ele>
        <time>2013-07-02T13:54:50Z</time>
      </trkpt>
      <trkpt lat="40.243350" lon="-4.666483">
        <ele>2676.0</ele>
        <time>2013-07-02T13:54:51Z</time>
      </trkpt>
      <trkpt lat="40.243333" lon="-4.666517">
        <ele>2676.0</ele>
        <time>2013-07-02T13:54:52Z</time>
      </trkpt>
      <trkpt lat="40.243333" lon="-4.666550">
        <ele>2676.0</ele>
        <time>2013-07-02T13:54:53Z</time>
      </trkpt>
      <trkpt lat="40.243350" lon="-4.666583">
        <ele>2678.0</ele>
        <time>2013-07-02T13:54:54Z</time>
      </trkpt>
      <trkpt lat="40.243367" lon="-4.666617">
        <ele>2680.0</ele>
        <time>2013-07-02T13:54:55Z</time>
      </trkpt>
      <trkpt lat="40.243400" lon="-4.666633">
        <ele>2681.0</ele>
        <time>2013-07-02T13:54:56Z</time>
      </trkpt>
      <trkpt lat="40.243433" lon="-4.666667">
        <ele>2682.0</ele>
        <time>2013-07-02T13:54:57Z</time>
      </trkpt>
      <trkpt lat="40.243483" lon="-4.666683">
        <ele>2684.0</ele>
        <time>2013-07-02T13:54:58Z</time>
      </trkpt>
      <trkpt lat="40.243533" lon="-4.666717">
        <ele>2685.0</ele>
        <time>2013-07-02T13:54:59Z</time>
      </trkpt>
      <trkpt lat="40.243617" lon="-4.666717">
        <ele>2687.0</ele>
        <time>2013-07-02T13:55:00Z</time>
      </trkpt>
      <trkpt lat="40.243700" lon="-4.666717">
        <ele>2689.0</ele>
        <time>2013-07-02T13:55:01Z</time>
      </trkpt>
      <trkpt lat="40.243783" lon="-4.666717">
        <ele>2690.0</ele>
        <time>2013-07-02T13:55:02Z</time>
      </trkpt>
      <trkpt lat="40.243867" lon="-4.666733">
        <ele>2692.0</ele>
        <time>2013-07-02T13:55:03Z</time>
      </trkpt>
      <trkpt lat="40.243950" lon="-4.666733">
        <ele>2694.0</ele>
        <time>2013-07-02T13:55:04Z</time>
      </trkpt>
      <trkpt lat="40.244033" lon="-4.666717">
        <ele>2695.0</ele>
        <time>2013-07-02T13:55:05Z</time>
      </trkpt>
      <trkpt lat="40.244133" lon="-4.666700">
        <ele>2697.0</ele>
        <time>2013-07-02T13:55:06Z</time>
      </trkpt>
      <trkpt lat="40.244217" lon="-4.666700">
        <ele>2698.0</ele>
        <time>2013-07-02T13:55:07Z</time>
      </trkpt>
      <trkpt lat="40.244317" lon="-4.666683">
        <ele>2699.0</ele>
        <time>2013-07-02T13:55:08Z</time>
      </trkpt>
      <trkpt lat="40.244400" lon="-4.666667">
        <ele>2700.0</ele>
        <time>2013-07-02T13:55:09Z</time>
      </trkpt>
      <trkpt lat="40.244500" lon="-4.666633">
        <ele>2701.0</ele>
        <time>2013-07-02T13:55:10Z</time>
      </trkpt>
      <trkpt lat="40.244583" lon="-4.666600">
        <ele>2702.0</ele>
        <time>2013-07-02T13:55:11Z</time>
      </trkpt>
      <trkpt lat="40.244683" lon="-4.666550">
        <ele>2702.0</ele>
        <time>2013-07-02T13:55:12Z</time>
      </trkpt>
      <trkpt lat="40.244783" lon="-4.666483">
        <ele>2702.0</ele>
        <time>2013-07-02T13:55:13Z</time>
      </trkpt>
      <trkpt lat="40.244883" lon="-4.666417">
        <ele>2702.0</ele>
        <time>2013-07-02T13:55:14Z</time>
      </trkpt>
      <trkpt lat="40.244983" lon="-4.666317">
        <ele>2702.0</ele>
        <time>2013-07-02T13:55:15Z</time>
      </trkpt>
      <trkpt lat="40.245083" lon="-4.666233">
        <ele>2703.0</ele>
        <time>2013-07-02T13:55:16Z</time>
      </trkpt>
      <trkpt lat="40.245183" lon="-4.666133">
        <ele>2703.0</ele>
        <time>2013-07-02T13:55:17Z</time>
      </trkpt>
      <trkpt lat="40.245267" lon="-4.666033">
        <ele>2704.0</ele>
        <time>2013-07-02T13:55:18Z</time>
      </trkpt>
      <trkpt lat="40.245367" lon="-4.665933">
        <ele>2705.0</ele>
        <time>2013-07-02T13:55:19Z</time>
      </trkpt>
      <trkpt lat="40.245450" lon="-4.665833">
        <ele>2706.0</ele>
        <time>2013-07-02T13:55:20Z</time>
      </trkpt>
      <trkpt lat="40.245533" lon="-4.665733">
        <ele>2706.0</ele>
        <time>2013-07-02T13:55:21Z</time>
      </trkpt>
      <trkpt lat="40.245617" lon="-4.665633">
        <ele>2707.0</ele>
        <time>2013-07-02T13:55:22Z</time>
      </trkpt>
      <trkpt lat="40.245700" lon="-4.665533">
        <ele>2707.0</ele>
        <time>2013-07-02T13:55:23Z</time>
      </trkpt>
      <trkpt lat="40.245783" lon="-4.665417">
        <ele>2707.0</ele>
        <time>2013-07-02T13:55:24Z</time>
      </trkpt>
      <trkpt lat="40.245850" lon="-4.665317">
        <ele>2707.0</ele>
        <time>2013-07-02T13:55:25Z</time>
      </trkpt>
      <trkpt lat="40.245933" lon="-4.665200">
        <ele>2707.0</ele>
        <time>2013-07-02T13:55:26Z</time>
      </trkpt>
      <trkpt lat="40.246000" lon="-4.665067">
        <ele>2707.0</ele>
        <time>2013-07-02T13:55:27Z</time>
      </trkpt>
      <trkpt lat="40.246067" lon="-4.664933">
        <ele>2707.0</ele>
        <time>2013-07-02T13:55:28Z</time>
      </trkpt>
      <trkpt lat="40.246100" lon="-4.664817">
        <ele>2708.0</ele>
        <time>2013-07-02T13:55:29Z</time>
      </trkpt>
      <trkpt lat="40.246150" lon="-4.664683">
        <ele>2708.0</ele>
        <time>2013-07-02T13:55:30Z</time>
      </trkpt>
      <trkpt lat="40.246183" lon="-4.664550">
        <ele>2708.0</ele>
        <time>2013-07-02T13:55:31Z</time>
      </trkpt>
      <trkpt lat="40.246233" lon="-4.664417">
        <ele>2707.0</ele>
        <time>2013-07-02T13:55:32Z</time>
      </trkpt>
      <trkpt lat="40.246267" lon="-4.664283">
        <ele>2706.0</ele>
        <time>2013-07-02T13:55:33Z</time>
      </trkpt>
      <trkpt lat="40.246300" lon="-4.664133">
        <ele>2705.0</ele>
        <time>2013-07-02T13:55:34Z</time>
      </trkpt>
      <trkpt lat="40.246317" lon="-4.663983">
        <ele>2705.0</ele>
        <time>2013-07-02T13:55:35Z</time>
      </trkpt>
      <trkpt lat="40.246317" lon="-4.663833">
        <ele>2704.0</ele>
        <time>2013-07-02T13:55:36Z</time>
      </trkpt>
      <trkpt lat="40.246300" lon="-4.663700">
        <ele>2703.0</ele>
        <time>2013-07-02T13:55:37Z</time>
      </trkpt>
      <trkpt lat="40.246250" lon="-4.663567">
        <ele>2702.0</ele>
        <time>2013-07-02T13:55:38Z</time>
      </trkpt>
      <trkpt lat="40.246217" lon="-4.663467">
        <ele>2700.0</ele>
        <time>2013-07-02T13:55:39Z</time>
      </trkpt>
      <trkpt lat="40.246167" lon="-4.663350">
        <ele>2699.0</ele>
        <time>2013-07-02T13:55:40Z</time>
      </trkpt>
      <trkpt lat="40.246133" lon="-4.663233">
        <ele>2697.0</ele>
        <time>2013-07-02T13:55:41Z</time>
      </trkpt>
      <trkpt lat="40.246100" lon="-4.663100">
        <ele>2695.0</ele>
        <time>2013-07-02T13:55:42Z</time>
      </trkpt>
      <trkpt lat="40.246083" lon="-4.662917">
        <ele>2693.0</ele>
        <time>2013-07-02T13:55:43Z</time>
      </trkpt>
      <trkpt lat="40.246100" lon="-4.662717">
        <ele>2690.0</ele>
        <time>2013-07-02T13:55:44Z</time>
      </trkpt>
      <trkpt lat="40.246117" lon="-4.662517">
        <ele>2688.0</ele>
        <time>2013-07-02T13:55:45Z</time>
      </trkpt>
      <trkpt lat="40.246117" lon="-4.662333">
        <ele>2687.0</ele>
        <time>2013-07-02T13:55:46Z</time>
      </trkpt>
      <trkpt lat="40.246100" lon="-4.662183">
        <ele>2686.0</ele>
        <time>2013-07-02T13:55:47Z</time>
      </trkpt>
      <trkpt lat="40.246100" lon="-4.662017">
        <ele>2684.0</ele>
        <time>2013-07-02T13:55:48Z</time>
      </trkpt>
      <trkpt lat="40.246100" lon="-4.661850">
        <ele>2681.0</ele>
        <time>2013-07-02T13:55:49Z</time>
      </trkpt>
      <trkpt lat="40.246100" lon="-4.661683">
        <ele>2679.0</ele>
        <time>2013-07-02T13:55:50Z</time>
      </trkpt>
      <trkpt lat="40.246100" lon="-4.661500">
        <ele>2676.0</ele>
        <time>2013-07-02T13:55:51Z</time>
      </trkpt>
      <trkpt lat="40.246100" lon="-4.661317">
        <ele>2676.0</ele>
        <time>2013-07-02T13:55:52Z</time>
      </trkpt>
      <trkpt lat="40.246100" lon="-4.661167">
        <ele>2675.0</ele>
        <time>2013-07-02T13:55:53Z</time>
      </trkpt>
      <trkpt lat="40.246100" lon="-4.661017">
        <ele>2675.0</ele>
        <time>2013-07-02T13:55:54Z</time>
      </trkpt>
      <trkpt lat="40.246100" lon="-4.660867">
        <ele>2674.0</ele>
        <time>2013-07-02T13:55:55Z</time>
      </trkpt>
      <trkpt lat="40.246117" lon="-4.660717">
        <ele>2672.0</ele>
        <time>2013-07-02T13:55:56Z</time>
      </trkpt>
      <trkpt lat="40.246133" lon="-4.660550">
        <ele>2670.0</ele>
        <time>2013-07-02T13:55:57Z</time>
      </trkpt>
      <trkpt lat="40.246133" lon="-4.660400">
        <ele>2668.0</ele>
        <time>2013-07-02T13:55:58Z</time>
      </trkpt>
      <trkpt lat="40.246133" lon="-4.660250">
        <ele>2667.0</ele>
        <time>2013-07-02T13:55:59Z</time>
      </trkpt>
      <trkpt lat="40.246150" lon="-4.660117">
        <ele>2666.0</ele>
        <time>2013-07-02T13:56:00Z</time>
      </trkpt>
      <trkpt lat="40.246167" lon="-4.659967">
        <ele>2664.0</ele>
        <time>2013-07-02T13:56:01Z</time>
      </trkpt>
      <trkpt lat="40.246183" lon="-4.659800">
        <ele>2663.0</ele>
        <time>2013-07-02T13:56:02Z</time>
      </trkpt>
      <trkpt lat="40.246200" lon="-4.659633">
        <ele>2661.0</ele>
        <time>2013-07-02T13:56:03Z</time>
      </trkpt>
      <trkpt lat="40.246217" lon="-4.659467">
        <ele>2658.0</ele>
        <time>2013-07-02T13:56:04Z</time>
      </trkpt>
      <trkpt lat="40.246217" lon="-4.659300">
        <ele>2656.0</ele>
        <time>2013-07-02T13:56:05Z</time>
      </trkpt>
      <trkpt lat="40.246233" lon="-4.659133">
        <ele>2654.0</ele>
        <time>2013-07-02T13:56:06Z</time>
      </trkpt>
      <trkpt lat="40.246267" lon="-4.658983">
        <ele>2652.0</ele>
        <time>2013-07-02T13:56:07Z</time>
      </trkpt>
      <trkpt lat="40.246283" lon="-4.658833">
        <ele>2649.0</ele>
        <time>2013-07-02T13:56:08Z</time>
      </trkpt>
      <trkpt lat="40.246300" lon="-4.658667">
        <ele>2647.0</ele>
        <time>2013-07-02T13:56:09Z</time>
      </trkpt>
      <trkpt lat="40.246317" lon="-4.658483">
        <ele>2644.0</ele>
        <time>2013-07-02T13:56:10Z</time>
      </trkpt>
      <trkpt lat="40.246317" lon="-4.658300">
        <ele>2644.0</ele>
        <time>2013-07-02T13:56:11Z</time>
      </trkpt>
      <trkpt lat="40.246350" lon="-4.658167">
        <ele>2645.0</ele>
        <time>2013-07-02T13:56:12Z</time>
      </trkpt>
      <trkpt lat="40.246367" lon="-4.658050">
        <ele>2645.0</ele>
        <time>2013-07-02T13:56:13Z</time>
      </trkpt>
      <trkpt lat="40.246417" lon="-4.657950">
        <ele>2643.0</ele>
        <time>2013-07-02T13:56:14Z</time>
      </trkpt>
      <trkpt lat="40.246450" lon="-4.657833">
        <ele>2642.0</ele>
        <time>2013-07-02T13:56:15Z</time>
      </trkpt>
      <trkpt lat="40.246483" lon="-4.657683">
        <ele>2639.0</ele>
        <time>2013-07-02T13:56:16Z</time>
      </trkpt>
      <trkpt lat="40.246500" lon="-4.657517">
        <ele>2636.0</ele>
        <time>2013-07-02T13:56:17Z</time>
      </trkpt>
      <trkpt lat="40.246533" lon="-4.657367">
        <ele>2633.0</ele>
        <time>2013-07-02T13:56:18Z</time>
      </trkpt>
      <trkpt lat="40.246550" lon="-4.657217">
        <ele>2630.0</ele>
        <time>2013-07-02T13:56:19Z</time>
      </trkpt>
      <trkpt lat="40.246583" lon="-4.657083">
        <ele>2628.0</ele>
        <time>2013-07-02T13:56:20Z</time>
      </trkpt>
      <trkpt lat="40.246600" lon="-4.656950">
        <ele>2625.0</ele>
        <time>2013-07-02T13:56:21Z</time>
      </trkpt>
      <trkpt lat="40.246633" lon="-4.656817">
        <ele>2621.0</ele>
        <time>2013-07-02T13:56:22Z</time>
      </trkpt>
      <trkpt lat="40.246650" lon="-4.656683">
        <ele>2616.0</ele>
        <time>2013-07-02T13:56:23Z</time>
      </trkpt>
      <trkpt lat="40.246683" lon="-4.656533">
        <ele>2612.0</ele>
        <time>2013-07-02T13:56:24Z</time>
      </trkpt>
      <trkpt lat="40.246700" lon="-4.656367">
        <ele>2609.0</ele>
        <time>2013-07-02T13:56:25Z</time>
      </trkpt>
      <trkpt lat="40.246733" lon="-4.656233">
        <ele>2607.0</ele>
        <time>2013-07-02T13:56:26Z</time>
      </trkpt>
      <trkpt lat="40.246750" lon="-4.656083">
        <ele>2605.0</ele>
        <time>2013-07-02T13:56:27Z</time>
      </trkpt>
      <trkpt lat="40.246767" lon="-4.655950">
        <ele>2604.0</ele>
        <time>2013-07-02T13:56:28Z</time>
      </trkpt>
      <trkpt lat="40.246783" lon="-4.655817">
        <ele>2601.0</ele>
        <time>2013-07-02T13:56:29Z</time>
      </trkpt>
      <trkpt lat="40.246800" lon="-4.655683">
        <ele>2598.0</ele>
        <time>2013-07-02T13:56:30Z</time>
      </trkpt>
      <trkpt lat="40.246817" lon="-4.655533">
        <ele>2594.0</ele>
        <time>2013-07-02T13:56:31Z</time>
      </trkpt>
      <trkpt lat="40.246833" lon="-4.655383">
        <ele>2590.0</ele>
        <time>2013-07-02T13:56:32Z</time>
      </trkpt>
      <trkpt lat="40.246850" lon="-4.655217">
        <ele>2588.0</ele>
        <time>2013-07-02T13:56:33Z</time>
      </trkpt>
      <trkpt lat="40.246850" lon="-4.655083">
        <ele>2585.0</ele>
        <time>2013-07-02T13:56:34Z</time>
      </trkpt>
      <trkpt lat="40.246850" lon="-4.654933">
        <ele>2584.0</ele>
        <time>2013-07-02T13:56:35Z</time>
      </trkpt>
      <trkpt lat="40.246850" lon="-4.654817">
        <ele>2582.0</ele>
        <time>2013-07-02T13:56:36Z</time>
      </trkpt>
      <trkpt lat="40.246850" lon="-4.654683">
        <ele>2579.0</ele>
        <time>2013-07-02T13:56:37Z</time>
      </trkpt>
      <trkpt lat="40.246833" lon="-4.654567">
        <ele>2576.0</ele>
        <time>2013-07-02T13:56:38Z</time>
      </trkpt>
      <trkpt lat="40.246817" lon="-4.654433">
        <ele>2573.0</ele>
        <time>2013-07-02T13:56:39Z</time>
      </trkpt>
      <trkpt lat="40.246800" lon="-4.654300">
        <ele>2571.0</ele>
        <time>2013-07-02T13:56:40Z</time>
      </trkpt>
      <trkpt lat="40.246767" lon="-4.654150">
        <ele>2568.0</ele>
        <time>2013-07-02T13:56:41Z</time>
      </trkpt>
      <trkpt lat="40.246750" lon="-4.654017">
        <ele>2568.0</ele>
        <time>2013-07-02T13:56:42Z</time>
      </trkpt>
      <trkpt lat="40.246733" lon="-4.653900">
        <ele>2567.0</ele>
        <time>2013-07-02T13:56:43Z</time>
      </trkpt>
      <trkpt lat="40.246733" lon="-4.653783">
        <ele>2567.0</ele>
        <time>2013-07-02T13:56:44Z</time>
      </trkpt>
      <trkpt lat="40.246717" lon="-4.653667">
        <ele>2567.0</ele>
        <time>2013-07-02T13:56:45Z</time>
      </trkpt>
      <trkpt lat="40.246717" lon="-4.653517">
        <ele>2565.0</ele>
        <time>2013-07-02T13:56:46Z</time>
      </trkpt>
      <trkpt lat="40.246700" lon="-4.653367">
        <ele>2562.0</ele>
        <time>2013-07-02T13:56:47Z</time>
      </trkpt>
      <trkpt lat="40.246683" lon="-4.653217">
        <ele>2560.0</ele>
        <time>2013-07-02T13:56:48Z</time>
      </trkpt>
      <trkpt lat="40.246667" lon="-4.653083">
        <ele>2560.0</ele>
        <time>2013-07-02T13:56:49Z</time>
      </trkpt>
      <trkpt lat="40.246650" lon="-4.652967">
        <ele>2559.0</ele>
        <time>2013-07-02T13:56:50Z</time>
      </trkpt>
      <trkpt lat="40.246633" lon="-4.652850">
        <ele>2558.0</ele>
        <time>2013-07-02T13:56:51Z</time>
      </trkpt>
      <trkpt lat="40.246617" lon="-4.652733">
        <ele>2556.0</ele>
        <time>2013-07-02T13:56:52Z</time>
      </trkpt>
      <trkpt lat="40.246600" lon="-4.652617">
        <ele>2554.0</ele>
        <time>2013-07-02T13:56:53Z</time>
      </trkpt>
      <trkpt lat="40.246583" lon="-4.652483">
        <ele>2551.0</ele>
        <time>2013-07-02T13:56:54Z</time>
      </trkpt>
      <trkpt lat="40.246567" lon="-4.652367">
        <ele>2549.0</ele>
        <time>2013-07-02T13:56:55Z</time>
      </trkpt>
      <trkpt lat="40.246550" lon="-4.652233">
        <ele>2547.0</ele>
        <time>2013-07-02T13:56:56Z</time>
      </trkpt>
      <trkpt lat="40.246550" lon="-4.652100">
        <ele>2546.0</ele>
        <time>2013-07-02T13:56:57Z</time>
      </trkpt>
      <trkpt lat="40.246533" lon="-4.651967">
        <ele>2544.0</ele>
        <time>2013-07-02T13:56:58Z</time>
      </trkpt>
      <trkpt lat="40.246517" lon="-4.651833">
        <ele>2542.0</ele>
        <time>2013-07-02T13:56:59Z</time>
      </trkpt>
      <trkpt lat="40.246517" lon="-4.651700">
        <ele>2539.0</ele>
        <time>2013-07-02T13:57:00Z</time>
      </trkpt>
      <trkpt lat="40.246500" lon="-4.651550">
        <ele>2535.0</ele>
        <time>2013-07-02T13:57:01Z</time>
      </trkpt>
      <trkpt lat="40.246483" lon="-4.651383">
        <ele>2532.0</ele>
        <time>2013-07-02T13:57:02Z</time>
      </trkpt>
      <trkpt lat="40.246450" lon="-4.651217">
        <ele>2530.0</ele>
        <time>2013-07-02T13:57:03Z</time>
      </trkpt>
      <trkpt lat="40.246417" lon="-4.651067">
        <ele>2529.0</ele>
        <time>2013-07-02T13:57:04Z</time>
      </trkpt>
      <trkpt lat="40.246383" lon="-4.650917">
        <ele>2528.0</ele>
        <time>2013-07-02T13:57:05Z</time>
      </trkpt>
      <trkpt lat="40.246367" lon="-4.650783">
        <ele>2526.0</ele>
        <time>2013-07-02T13:57:06Z</time>
      </trkpt>
      <trkpt lat="40.246333" lon="-4.650650">
        <ele>2525.0</ele>
        <time>2013-07-02T13:57:07Z</time>
      </trkpt>
      <trkpt lat="40.246300" lon="-4.650500">
        <ele>2522.0</ele>
        <time>2013-07-02T13:57:08Z</time>
      </trkpt>
      <trkpt lat="40.246250" lon="-4.650350">
        <ele>2519.0</ele>
        <time>2013-07-02T13:57:09Z</time>
      </trkpt>
      <trkpt lat="40.246200" lon="-4.650200">
        <ele>2517.0</ele>
        <time>2013-07-02T13:57:10Z</time>
      </trkpt>
      <trkpt lat="40.246167" lon="-4.650033">
        <ele>2517.0</ele>
        <time>2013-07-02T13:57:11Z</time>
      </trkpt>
      <trkpt lat="40.246150" lon="-4.649867">
        <ele>2519.0</ele>
        <time>2013-07-02T13:57:12Z</time>
      </trkpt>
      <trkpt lat="40.246133" lon="-4.649717">
        <ele>2519.0</ele>
        <time>2013-07-02T13:57:13Z</time>
      </trkpt>
      <trkpt lat="40.246100" lon="-4.649567">
        <ele>2519.0</ele>
        <time>2013-07-02T13:57:14Z</time>
      </trkpt>
      <trkpt lat="40.246083" lon="-4.649433">
        <ele>2518.0</ele>
        <time>2013-07-02T13:57:15Z</time>
      </trkpt>
      <trkpt lat="40.246067" lon="-4.649283">
        <ele>2517.0</ele>
        <time>2013-07-02T13:57:16Z</time>
      </trkpt>
      <trkpt lat="40.246033" lon="-4.649100">
        <ele>2514.0</ele>
        <time>2013-07-02T13:57:17Z</time>
      </trkpt>
      <trkpt lat="40.246017" lon="-4.648933">
        <ele>2512.0</ele>
        <time>2013-07-02T13:57:18Z</time>
      </trkpt>
      <trkpt lat="40.246000" lon="-4.648750">
        <ele>2510.0</ele>
        <time>2013-07-02T13:57:19Z</time>
      </trkpt>
      <trkpt lat="40.245983" lon="-4.648583">
        <ele>2509.0</ele>
        <time>2013-07-02T13:57:20Z</time>
      </trkpt>
      <trkpt lat="40.245967" lon="-4.648433">
        <ele>2508.0</ele>
        <time>2013-07-02T13:57:21Z</time>
      </trkpt>
      <trkpt lat="40.245950" lon="-4.648267">
        <ele>2507.0</ele>
        <time>2013-07-02T13:57:22Z</time>
      </trkpt>
      <trkpt lat="40.245933" lon="-4.648117">
        <ele>2505.0</ele>
        <time>2013-07-02T13:57:23Z</time>
      </trkpt>
      <trkpt lat="40.245900" lon="-4.647983">
        <ele>2505.0</ele>
        <time>2013-07-02T13:57:24Z</time>
      </trkpt>
      <trkpt lat="40.245883" lon="-4.647850">
        <ele>2503.0</ele>
        <time>2013-07-02T13:57:25Z</time>
      </trkpt>
      <trkpt lat="40.245867" lon="-4.647700">
        <ele>2502.0</ele>
        <time>2013-07-02T13:57:26Z</time>
      </trkpt>
      <trkpt lat="40.245850" lon="-4.647550">
        <ele>2499.0</ele>
        <time>2013-07-02T13:57:27Z</time>
      </trkpt>
      <trkpt lat="40.245817" lon="-4.647400">
        <ele>2497.0</ele>
        <time>2013-07-02T13:57:28Z</time>
      </trkpt>
      <trkpt lat="40.245783" lon="-4.647250">
        <ele>2495.0</ele>
        <time>2013-07-02T13:57:29Z</time>
      </trkpt>
      <trkpt lat="40.245750" lon="-4.647133">
        <ele>2495.0</ele>
        <time>2013-07-02T13:57:30Z</time>
      </trkpt>
      <trkpt lat="40.245750" lon="-4.646983">
        <ele>2493.0</ele>
        <time>2013-07-02T13:57:31Z</time>
      </trkpt>
      <trkpt lat="40.245733" lon="-4.646850">
        <ele>2491.0</ele>
        <time>2013-07-02T13:57:32Z</time>
      </trkpt>
      <trkpt lat="40.245733" lon="-4.646700">
        <ele>2489.0</ele>
        <time>2013-07-02T13:57:33Z</time>
      </trkpt>
      <trkpt lat="40.245700" lon="-4.646567">
        <ele>2486.0</ele>
        <time>2013-07-02T13:57:34Z</time>
      </trkpt>
      <trkpt lat="40.245683" lon="-4.646417">
        <ele>2484.0</ele>
        <time>2013-07-02T13:57:35Z</time>
      </trkpt>
      <trkpt lat="40.245667" lon="-4.646283">
        <ele>2482.0</ele>
        <time>2013-07-02T13:57:36Z</time>
      </trkpt>
      <trkpt lat="40.245650" lon="-4.646133">
        <ele>2479.0</ele>
        <time>2013-07-02T13:57:37Z</time>
      </trkpt>
      <trkpt lat="40.245633" lon="-4.646000">
        <ele>2477.0</ele>
        <time>2013-07-02T13:57:38Z</time>
      </trkpt>
      <trkpt lat="40.245617" lon="-4.645867">
        <ele>2473.0</ele>
        <time>2013-07-02T13:57:39Z</time>
      </trkpt>
      <trkpt lat="40.245600" lon="-4.645733">
        <ele>2469.0</ele>
        <time>2013-07-02T13:57:40Z</time>
      </trkpt>
      <trkpt lat="40.245583" lon="-4.645583">
        <ele>2466.0</ele>
        <time>2013-07-02T13:57:41Z</time>
      </trkpt>
      <trkpt lat="40.245583" lon="-4.645433">
        <ele>2462.0</ele>
        <time>2013-07-02T13:57:42Z</time>
      </trkpt>
      <trkpt lat="40.245567" lon="-4.645267">
        <ele>2459.0</ele>
        <time>2013-07-02T13:57:43Z</time>
      </trkpt>
      <trkpt lat="40.245567" lon="-4.645117">
        <ele>2456.0</ele>
        <time>2013-07-02T13:57:44Z</time>
      </trkpt>
      <trkpt lat="40.245550" lon="-4.644967">
        <ele>2454.0</ele>
        <time>2013-07-02T13:57:45Z</time>
      </trkpt>
      <trkpt lat="40.245550" lon="-4.644833">
        <ele>2452.0</ele>
        <time>2013-07-02T13:57:46Z</time>
      </trkpt>
      <trkpt lat="40.245533" lon="-4.644700">
        <ele>2449.0</ele>
        <time>2013-07-02T13:57:47Z</time>
      </trkpt>
      <trkpt lat="40.245533" lon="-4.644550">
        <ele>2447.0</ele>
        <time>2013-07-02T13:57:48Z</time>
      </trkpt>
      <trkpt lat="40.245533" lon="-4.644417">
        <ele>2444.0</ele>
        <time>2013-07-02T13:57:49Z</time>
      </trkpt>
      <trkpt lat="40.245517" lon="-4.644283">
        <ele>2441.0</ele>
        <time>2013-07-02T13:57:50Z</time>
      </trkpt>
      <trkpt lat="40.245483" lon="-4.644150">
        <ele>2437.0</ele>
        <time>2013-07-02T13:57:51Z</time>
      </trkpt>
      <trkpt lat="40.245450" lon="-4.644000">
        <ele>2435.0</ele>
        <time>2013-07-02T13:57:52Z</time>
      </trkpt>
      <trkpt lat="40.245417" lon="-4.643883">
        <ele>2433.0</ele>
        <time>2013-07-02T13:57:53Z</time>
      </trkpt>
      <trkpt lat="40.245400" lon="-4.643767">
        <ele>2433.0</ele>
        <time>2013-07-02T13:57:54Z</time>
      </trkpt>
      <trkpt lat="40.245367" lon="-4.643667">
        <ele>2435.0</ele>
        <time>2013-07-02T13:57:55Z</time>
      </trkpt>
      <trkpt lat="40.245350" lon="-4.643583">
        <ele>2436.0</ele>
        <time>2013-07-02T13:57:56Z</time>
      </trkpt>
      <trkpt lat="40.245333" lon="-4.643517">
        <ele>2435.0</ele>
        <time>2013-07-02T13:57:57Z</time>
      </trkpt>
      <trkpt lat="40.245317" lon="-4.643417">
        <ele>2434.0</ele>
        <time>2013-07-02T13:57:58Z</time>
      </trkpt>
      <trkpt lat="40.245300" lon="-4.643317">
        <ele>2432.0</ele>
        <time>2013-07-02T13:57:59Z</time>
      </trkpt>
      <trkpt lat="40.245283" lon="-4.643183">
        <ele>2431.0</ele>
        <time>2013-07-02T13:58:00Z</time>
      </trkpt>
      <trkpt lat="40.245283" lon="-4.643033">
        <ele>2431.0</ele>
        <time>2013-07-02T13:58:01Z</time>
      </trkpt>
      <trkpt lat="40.245300" lon="-4.642900">
        <ele>2432.0</ele>
        <time>2013-07-02T13:58:02Z</time>
      </trkpt>
      <trkpt lat="40.245333" lon="-4.642783">
        <ele>2433.0</ele>
        <time>2013-07-02T13:58:03Z</time>
      </trkpt>
      <trkpt lat="40.245367" lon="-4.642650">
        <ele>2434.0</ele>
        <time>2013-07-02T13:58:04Z</time>
      </trkpt>
      <trkpt lat="40.245383" lon="-4.642533">
        <ele>2434.0</ele>
        <time>2013-07-02T13:58:05Z</time>
      </trkpt>
      <trkpt lat="40.245400" lon="-4.642400">
        <ele>2434.0</ele>
        <time>2013-07-02T13:58:06Z</time>
      </trkpt>
      <trkpt lat="40.245417" lon="-4.642283">
        <ele>2434.0</ele>
        <time>2013-07-02T13:58:07Z</time>
      </trkpt>
      <trkpt lat="40.245433" lon="-4.642167">
        <ele>2434.0</ele>
        <time>2013-07-02T13:58:08Z</time>
      </trkpt>
      <trkpt lat="40.245450" lon="-4.642033">
        <ele>2434.0</ele>
        <time>2013-07-02T13:58:09Z</time>
      </trkpt>
      <trkpt lat="40.245467" lon="-4.641917">
        <ele>2434.0</ele>
        <time>2013-07-02T13:58:10Z</time>
      </trkpt>
      <trkpt lat="40.245467" lon="-4.641783">
        <ele>2433.0</ele>
        <time>2013-07-02T13:58:11Z</time>
      </trkpt>
      <trkpt lat="40.245467" lon="-4.641650">
        <ele>2433.0</ele>
        <time>2013-07-02T13:58:12Z</time>
      </trkpt>
      <trkpt lat="40.245467" lon="-4.641533">
        <ele>2434.0</ele>
        <time>2013-07-02T13:58:13Z</time>
      </trkpt>
      <trkpt lat="40.245483" lon="-4.641400">
        <ele>2433.0</ele>
        <time>2013-07-02T13:58:14Z</time>
      </trkpt>
      <trkpt lat="40.245517" lon="-4.641267">
        <ele>2433.0</ele>
        <time>2013-07-02T13:58:15Z</time>
      </trkpt>
      <trkpt lat="40.245533" lon="-4.641117">
        <ele>2431.0</ele>
        <time>2013-07-02T13:58:16Z</time>
      </trkpt>
      <trkpt lat="40.245550" lon="-4.640950">
        <ele>2430.0</ele>
        <time>2013-07-02T13:58:17Z</time>
      </trkpt>
      <trkpt lat="40.245550" lon="-4.640783">
        <ele>2431.0</ele>
        <time>2013-07-02T13:58:18Z</time>
      </trkpt>
      <trkpt lat="40.245550" lon="-4.640667">
        <ele>2432.0</ele>
        <time>2013-07-02T13:58:19Z</time>
      </trkpt>
      <trkpt lat="40.245550" lon="-4.640550">
        <ele>2434.0</ele>
        <time>2013-07-02T13:58:20Z</time>
      </trkpt>
      <trkpt lat="40.245567" lon="-4.640433">
        <ele>2434.0</ele>
        <time>2013-07-02T13:58:21Z</time>
      </trkpt>
      <trkpt lat="40.245583" lon="-4.640317">
        <ele>2435.0</ele>
        <time>2013-07-02T13:58:22Z</time>
      </trkpt>
      <trkpt lat="40.245600" lon="-4.640200">
        <ele>2436.0</ele>
        <time>2013-07-02T13:58:23Z</time>
      </trkpt>
      <trkpt lat="40.245617" lon="-4.640100">
        <ele>2436.0</ele>
        <time>2013-07-02T13:58:24Z</time>
      </trkpt>
      <trkpt lat="40.245633" lon="-4.640000">
        <ele>2436.0</ele>
        <time>2013-07-02T13:58:25Z</time>
      </trkpt>
      <trkpt lat="40.245650" lon="-4.639900">
        <ele>2435.0</ele>
        <time>2013-07-02T13:58:26Z</time>
      </trkpt>
      <trkpt lat="40.245667" lon="-4.639783">
        <ele>2434.0</ele>
        <time>2013-07-02T13:58:27Z</time>
      </trkpt>
      <trkpt lat="40.245683" lon="-4.639650">
        <ele>2433.0</ele>
        <time>2013-07-02T13:58:28Z</time>
      </trkpt>
      <trkpt lat="40.245700" lon="-4.639517">
        <ele>2431.0</ele>
        <time>2013-07-02T13:58:29Z</time>
      </trkpt>
      <trkpt lat="40.245700" lon="-4.639350">
        <ele>2429.0</ele>
        <time>2013-07-02T13:58:30Z</time>
      </trkpt>
      <trkpt lat="40.245700" lon="-4.639200">
        <ele>2428.0</ele>
        <time>2013-07-02T13:58:31Z</time>
      </trkpt>
      <trkpt lat="40.245717" lon="-4.639050">
        <ele>2430.0</ele>
        <time>2013-07-02T13:58:32Z</time>
      </trkpt>
      <trkpt lat="40.245700" lon="-4.638933">
        <ele>2430.0</ele>
        <time>2013-07-02T13:58:33Z</time>
      </trkpt>
      <trkpt lat="40.245700" lon="-4.638800">
        <ele>2430.0</ele>
        <time>2013-07-02T13:58:34Z</time>
      </trkpt>
      <trkpt lat="40.245667" lon="-4.638667">
        <ele>2429.0</ele>
        <time>2013-07-02T13:58:35Z</time>
      </trkpt>
      <trkpt lat="40.245667" lon="-4.638500">
        <ele>2428.0</ele>
        <time>2013-07-02T13:58:36Z</time>
      </trkpt>
      <trkpt lat="40.245667" lon="-4.638350">
        <ele>2428.0</ele>
        <time>2013-07-02T13:58:37Z</time>
      </trkpt>
      <trkpt lat="40.245683" lon="-4.638200">
        <ele>2429.0</ele>
        <time>2013-07-02T13:58:38Z</time>
      </trkpt>
      <trkpt lat="40.245683" lon="-4.638083">
        <ele>2429.0</ele>
        <time>2013-07-02T13:58:39Z</time>
      </trkpt>
      <trkpt lat="40.245683" lon="-4.637950">
        <ele>2429.0</ele>
        <time>2013-07-02T13:58:40Z</time>
      </trkpt>
      <trkpt lat="40.245683" lon="-4.637800">
        <ele>2428.0</ele>
        <time>2013-07-02T13:58:41Z</time>
      </trkpt>
      <trkpt lat="40.245700" lon="-4.637617">
        <ele>2428.0</ele>
        <time>2013-07-02T13:58:42Z</time>
      </trkpt>
      <trkpt lat="40.245717" lon="-4.637433">
        <ele>2427.0</ele>
        <time>2013-07-02T13:58:43Z</time>
      </trkpt>
      <trkpt lat="40.245717" lon="-4.637267">
        <ele>2428.0</ele>
        <time>2013-07-02T13:58:44Z</time>
      </trkpt>
      <trkpt lat="40.245717" lon="-4.637100">
        <ele>2430.0</ele>
        <time>2013-07-02T13:58:45Z</time>
      </trkpt>
      <trkpt lat="40.245700" lon="-4.636933">
        <ele>2433.0</ele>
        <time>2013-07-02T13:58:46Z</time>
      </trkpt>
      <trkpt lat="40.245700" lon="-4.636800">
        <ele>2434.0</ele>
        <time>2013-07-02T13:58:47Z</time>
      </trkpt>
      <trkpt lat="40.245717" lon="-4.636667">
        <ele>2435.0</ele>
        <time>2013-07-02T13:58:48Z</time>
      </trkpt>
      <trkpt lat="40.245733" lon="-4.636550">
        <ele>2436.0</ele>
        <time>2013-07-02T13:58:49Z</time>
      </trkpt>
      <trkpt lat="40.245750" lon="-4.636433">
        <ele>2437.0</ele>
        <time>2013-07-02T13:58:50Z</time>
      </trkpt>
      <trkpt lat="40.245767" lon="-4.636317">
        <ele>2436.0</ele>
        <time>2013-07-02T13:58:51Z</time>
      </trkpt>
      <trkpt lat="40.245767" lon="-4.636183">
        <ele>2435.0</ele>
        <time>2013-07-02T13:58:52Z</time>
      </trkpt>
      <trkpt lat="40.245767" lon="-4.636050">
        <ele>2434.0</ele>
        <time>2013-07-02T13:58:53Z</time>
      </trkpt>
      <trkpt lat="40.245767" lon="-4.635883">
        <ele>2433.0</ele>
        <time>2013-07-02T13:58:54Z</time>
      </trkpt>
      <trkpt lat="40.245750" lon="-4.635717">
        <ele>2433.0</ele>
        <time>2013-07-02T13:58:55Z</time>
      </trkpt>
      <trkpt lat="40.245733" lon="-4.635550">
        <ele>2433.0</ele>
        <time>2013-07-02T13:58:56Z</time>
      </trkpt>
      <trkpt lat="40.245717" lon="-4.635383">
        <ele>2434.0</ele>
        <time>2013-07-02T13:58:57Z</time>
      </trkpt>
      <trkpt lat="40.245700" lon="-4.635233">
        <ele>2435.0</ele>
        <time>2013-07-02T13:58:58Z</time>
      </trkpt>
      <trkpt lat="40.245683" lon="-4.635067">
        <ele>2437.0</ele>
        <time>2013-07-02T13:58:59Z</time>
      </trkpt>
      <trkpt lat="40.245683" lon="-4.634917">
        <ele>2439.0</ele>
        <time>2013-07-02T13:59:00Z</time>
      </trkpt>
      <trkpt lat="40.245700" lon="-4.634783">
        <ele>2441.0</ele>
        <time>2013-07-02T13:59:01Z</time>
      </trkpt>
      <trkpt lat="40.245750" lon="-4.634667">
        <ele>2443.0</ele>
        <time>2013-07-02T13:59:02Z</time>
      </trkpt>
      <trkpt lat="40.245800" lon="-4.634550">
        <ele>2444.0</ele>
        <time>2013-07-02T13:59:03Z</time>
      </trkpt>
      <trkpt lat="40.245883" lon="-4.634467">
        <ele>2445.0</ele>
        <time>2013-07-02T13:59:04Z</time>
      </trkpt>
      <trkpt lat="40.245967" lon="-4.634383">
        <ele>2446.0</ele>
        <time>2013-07-02T13:59:05Z</time>
      </trkpt>
      <trkpt lat="40.246067" lon="-4.634317">
        <ele>2447.0</ele>
        <time>2013-07-02T13:59:06Z</time>
      </trkpt>
      <trkpt lat="40.246167" lon="-4.634283">
        <ele>2447.0</ele>
        <time>2013-07-02T13:59:07Z</time>
      </trkpt>
      <trkpt lat="40.246250" lon="-4.634283">
        <ele>2448.0</ele>
        <time>2013-07-02T13:59:08Z</time>
      </trkpt>
      <trkpt lat="40.246350" lon="-4.634317">
        <ele>2449.0</ele>
        <time>2013-07-02T13:59:09Z</time>
      </trkpt>
      <trkpt lat="40.246417" lon="-4.634367">
        <ele>2452.0</ele>
        <time>2013-07-02T13:59:10Z</time>
      </trkpt>
      <trkpt lat="40.246483" lon="-4.634417">
        <ele>2454.0</ele>
        <time>2013-07-02T13:59:11Z</time>
      </trkpt>
      <trkpt lat="40.246517" lon="-4.634483">
        <ele>2455.0</ele>
        <time>2013-07-02T13:59:12Z</time>
      </trkpt>
      <trkpt lat="40.246550" lon="-4.634533">
        <ele>2457.0</ele>
        <time>2013-07-02T13:59:13Z</time>
      </trkpt>
      <trkpt lat="40.246533" lon="-4.634600">
        <ele>2456.0</ele>
        <time>2013-07-02T13:59:14Z</time>
      </trkpt>
      <trkpt lat="40.246517" lon="-4.634667">
        <ele>2457.0</ele>
        <time>2013-07-02T13:59:15Z</time>
      </trkpt>
      <trkpt lat="40.246467" lon="-4.634683">
        <ele>2456.0</ele>
        <time>2013-07-02T13:59:16Z</time>
      </trkpt>
      <trkpt lat="40.246417" lon="-4.634683">
        <ele>2456.0</ele>
        <time>2013-07-02T13:59:17Z</time>
      </trkpt>
      <trkpt lat="40.246367" lon="-4.634633">
        <ele>2456.0</ele>
        <time>2013-07-02T13:59:18Z</time>
      </trkpt>
      <trkpt lat="40.246317" lon="-4.634583">
        <ele>2457.0</ele>
        <time>2013-07-02T13:59:19Z</time>
      </trkpt>
      <trkpt lat="40.246267" lon="-4.634483">
        <ele>2457.0</ele>
        <time>2013-07-02T13:59:20Z</time>
      </trkpt>
      <trkpt lat="40.246250" lon="-4.634383">
        <ele>2456.0</ele>
        <time>2013-07-02T13:59:21Z</time>
      </trkpt>
      <trkpt lat="40.246217" lon="-4.634267">
        <ele>2455.0</ele>
        <time>2013-07-02T13:59:22Z</time>
      </trkpt>
      <trkpt lat="40.246183" lon="-4.634133">
        <ele>2454.0</ele>
        <time>2013-07-02T13:59:23Z</time>
      </trkpt>
      <trkpt lat="40.246183" lon="-4.633967">
        <ele>2453.0</ele>
        <time>2013-07-02T13:59:24Z</time>
      </trkpt>
      <trkpt lat="40.246183" lon="-4.633800">
        <ele>2453.0</ele>
        <time>2013-07-02T13:59:25Z</time>
      </trkpt>
      <trkpt lat="40.246167" lon="-4.633633">
        <ele>2454.0</ele>
        <time>2013-07-02T13:59:26Z</time>
      </trkpt>
      <trkpt lat="40.246150" lon="-4.633483">
        <ele>2455.0</ele>
        <time>2013-07-02T13:59:27Z</time>
      </trkpt>
      <trkpt lat="40.246133" lon="-4.633333">
        <ele>2456.0</ele>
        <time>2013-07-02T13:59:28Z</time>
      </trkpt>
      <trkpt lat="40.246133" lon="-4.633200">
        <ele>2457.0</ele>
        <time>2013-07-02T13:59:29Z</time>
      </trkpt>
      <trkpt lat="40.246133" lon="-4.633067">
        <ele>2459.0</ele>
        <time>2013-07-02T13:59:30Z</time>
      </trkpt>
      <trkpt lat="40.246150" lon="-4.632950">
        <ele>2460.0</ele>
        <time>2013-07-02T13:59:31Z</time>
      </trkpt>
      <trkpt lat="40.246150" lon="-4.632817">
        <ele>2461.0</ele>
        <time>2013-07-02T13:59:32Z</time>
      </trkpt>
      <trkpt lat="40.246167" lon="-4.632700">
        <ele>2461.0</ele>
        <time>2013-07-02T13:59:33Z</time>
      </trkpt>
      <trkpt lat="40.246183" lon="-4.632550">
        <ele>2461.0</ele>
        <time>2013-07-02T13:59:34Z</time>
      </trkpt>
      <trkpt lat="40.246200" lon="-4.632400">
        <ele>2462.0</ele>
        <time>2013-07-02T13:59:35Z</time>
      </trkpt>
      <trkpt lat="40.246233" lon="-4.632267">
        <ele>2462.0</ele>
        <time>2013-07-02T13:59:36Z</time>
      </trkpt>
      <trkpt lat="40.246300" lon="-4.632133">
        <ele>2461.0</ele>
        <time>2013-07-02T13:59:37Z</time>
      </trkpt>
      <trkpt lat="40.246383" lon="-4.632033">
        <ele>2460.0</ele>
        <time>2013-07-02T13:59:38Z</time>
      </trkpt>
      <trkpt lat="40.246467" lon="-4.631933">
        <ele>2459.0</ele>
        <time>2013-07-02T13:59:39Z</time>
      </trkpt>
      <trkpt lat="40.246550" lon="-4.631817">
        <ele>2457.0</ele>
        <time>2013-07-02T13:59:40Z</time>
      </trkpt>
      <trkpt lat="40.246600" lon="-4.631683">
        <ele>2456.0</ele>
        <time>2013-07-02T13:59:41Z</time>
      </trkpt>
      <trkpt lat="40.246617" lon="-4.631500">
        <ele>2453.0</ele>
        <time>2013-07-02T13:59:42Z</time>
      </trkpt>
      <trkpt lat="40.246633" lon="-4.631333">
        <ele>2452.0</ele>
        <time>2013-07-02T13:59:43Z</time>
      </trkpt>
      <trkpt lat="40.246633" lon="-4.631150">
        <ele>2451.0</ele>
        <time>2013-07-02T13:59:44Z</time>
      </trkpt>
      <trkpt lat="40.246650" lon="-4.630983">
        <ele>2451.0</ele>
        <time>2013-07-02T13:59:45Z</time>
      </trkpt>
      <trkpt lat="40.246650" lon="-4.630817">
        <ele>2451.0</ele>
        <time>2013-07-02T13:59:46Z</time>
      </trkpt>
      <trkpt lat="40.246650" lon="-4.630683">
        <ele>2452.0</ele>
        <time>2013-07-02T13:59:47Z</time>
      </trkpt>
      <trkpt lat="40.246650" lon="-4.630533">
        <ele>2451.0</ele>
        <time>2013-07-02T13:59:48Z</time>
      </trkpt>
      <trkpt lat="40.246633" lon="-4.630383">
        <ele>2449.0</ele>
        <time>2013-07-02T13:59:49Z</time>
      </trkpt>
      <trkpt lat="40.246600" lon="-4.630233">
        <ele>2448.0</ele>
        <time>2013-07-02T13:59:50Z</time>
      </trkpt>
      <trkpt lat="40.246583" lon="-4.630083">
        <ele>2445.0</ele>
        <time>2013-07-02T13:59:51Z</time>
      </trkpt>
      <trkpt lat="40.246550" lon="-4.629900">
        <ele>2443.0</ele>
        <time>2013-07-02T13:59:52Z</time>
      </trkpt>
      <trkpt lat="40.246500" lon="-4.629750">
        <ele>2442.0</ele>
        <time>2013-07-02T13:59:53Z</time>
      </trkpt>
      <trkpt lat="40.246467" lon="-4.629600">
        <ele>2441.0</ele>
        <time>2013-07-02T13:59:54Z</time>
      </trkpt>
      <trkpt lat="40.246417" lon="-4.629467">
        <ele>2440.0</ele>
        <time>2013-07-02T13:59:55Z</time>
      </trkpt>
      <trkpt lat="40.246367" lon="-4.629333">
        <ele>2440.0</ele>
        <time>2013-07-02T13:59:56Z</time>
      </trkpt>
      <trkpt lat="40.246317" lon="-4.629183">
        <ele>2439.0</ele>
        <time>2013-07-02T13:59:57Z</time>
      </trkpt>
      <trkpt lat="40.246283" lon="-4.629050">
        <ele>2438.0</ele>
        <time>2013-07-02T13:59:58Z</time>
      </trkpt>
      <trkpt lat="40.246233" lon="-4.628900">
        <ele>2437.0</ele>
        <time>2013-07-02T13:59:59Z</time>
      </trkpt>
      <trkpt lat="40.246200" lon="-4.628750">
        <ele>2436.0</ele>
        <time>2013-07-02T14:00:00Z</time>
      </trkpt>
      <trkpt lat="40.246150" lon="-4.628617">
        <ele>2436.0</ele>
        <time>2013-07-02T14:00:01Z</time>
      </trkpt>
      <trkpt lat="40.246100" lon="-4.628500">
        <ele>2436.0</ele>
        <time>2013-07-02T14:00:02Z</time>
      </trkpt>
      <trkpt lat="40.246067" lon="-4.628383">
        <ele>2435.0</ele>
        <time>2013-07-02T14:00:03Z</time>
      </trkpt>
      <trkpt lat="40.246033" lon="-4.628250">
        <ele>2433.0</ele>
        <time>2013-07-02T14:00:04Z</time>
      </trkpt>
      <trkpt lat="40.245983" lon="-4.628117">
        <ele>2431.0</ele>
        <time>2013-07-02T14:00:05Z</time>
      </trkpt>
      <trkpt lat="40.245950" lon="-4.628000">
        <ele>2430.0</ele>
        <time>2013-07-02T14:00:06Z</time>
      </trkpt>
      <trkpt lat="40.245917" lon="-4.627867">
        <ele>2429.0</ele>
        <time>2013-07-02T14:00:07Z</time>
      </trkpt>
      <trkpt lat="40.245883" lon="-4.627750">
        <ele>2428.0</ele>
        <time>2013-07-02T14:00:08Z</time>
      </trkpt>
      <trkpt lat="40.245867" lon="-4.627617">
        <ele>2427.0</ele>
        <time>2013-07-02T14:00:09Z</time>
      </trkpt>
      <trkpt lat="40.245833" lon="-4.627500">
        <ele>2425.0</ele>
        <time>2013-07-02T14:00:10Z</time>
      </trkpt>
      <trkpt lat="40.245817" lon="-4.627367">
        <ele>2422.0</ele>
        <time>2013-07-02T14:00:11Z</time>
      </trkpt>
      <trkpt lat="40.245783" lon="-4.627233">
        <ele>2420.0</ele>
        <time>2013-07-02T14:00:12Z</time>
      </trkpt>
      <trkpt lat="40.245750" lon="-4.627117">
        <ele>2417.0</ele>
        <time>2013-07-02T14:00:13Z</time>
      </trkpt>
      <trkpt lat="40.245717" lon="-4.626983">
        <ele>2415.0</ele>
        <time>2013-07-02T14:00:14Z</time>
      </trkpt>
      <trkpt lat="40.245683" lon="-4.626850">
        <ele>2412.0</ele>
        <time>2013-07-02T14:00:15Z</time>
      </trkpt>
      <trkpt lat="40.245650" lon="-4.626733">
        <ele>2409.0</ele>
        <time>2013-07-02T14:00:16Z</time>
      </trkpt>
      <trkpt lat="40.245617" lon="-4.626600">
        <ele>2407.0</ele>
        <time>2013-07-02T14:00:17Z</time>
      </trkpt>
      <trkpt lat="40.245600" lon="-4.626467">
        <ele>2404.0</ele>
        <time>2013-07-02T14:00:18Z</time>
      </trkpt>
      <trkpt lat="40.245583" lon="-4.626333">
        <ele>2400.0</ele>
        <time>2013-07-02T14:00:19Z</time>
      </trkpt>
      <trkpt lat="40.245567" lon="-4.626200">
        <ele>2397.0</ele>
        <time>2013-07-02T14:00:20Z</time>
      </trkpt>
      <trkpt lat="40.245550" lon="-4.626050">
        <ele>2393.0</ele>
        <time>2013-07-02T14:00:21Z</time>
      </trkpt>
      <trkpt lat="40.245533" lon="-4.625900">
        <ele>2390.0</ele>
        <time>2013-07-02T14:00:22Z</time>
      </trkpt>
      <trkpt lat="40.245517" lon="-4.625733">
        <ele>2386.0</ele>
        <time>2013-07-02T14:00:23Z</time>
      </trkpt>
      <trkpt lat="40.245483" lon="-4.625583">
        <ele>2383.0</ele>
        <time>2013-07-02T14:00:24Z</time>
      </trkpt>
      <trkpt lat="40.245433" lon="-4.625433">
        <ele>2380.0</ele>
        <time>2013-07-02T14:00:25Z</time>
      </trkpt>
      <trkpt lat="40.245400" lon="-4.625283">
        <ele>2378.0</ele>
        <time>2013-07-02T14:00:26Z</time>
      </trkpt>
      <trkpt lat="40.245367" lon="-4.625133">
        <ele>2377.0</ele>
        <time>2013-07-02T14:00:27Z</time>
      </trkpt>
      <trkpt lat="40.245333" lon="-4.624983">
        <ele>2376.0</ele>
        <time>2013-07-02T14:00:28Z</time>
      </trkpt>
      <trkpt lat="40.245317" lon="-4.624817">
        <ele>2375.0</ele>
        <time>2013-07-02T14:00:29Z</time>
      </trkpt>
      <trkpt lat="40.245300" lon="-4.624667">
        <ele>2374.0</ele>
        <time>2013-07-02T14:00:30Z</time>
      </trkpt>
      <trkpt lat="40.245267" lon="-4.624517">
        <ele>2373.0</ele>
        <time>2013-07-02T14:00:31Z</time>
      </trkpt>
      <trkpt lat="40.245233" lon="-4.624367">
        <ele>2372.0</ele>
        <time>2013-07-02T14:00:32Z</time>
      </trkpt>
      <trkpt lat="40.245200" lon="-4.624233">
        <ele>2371.0</ele>
        <time>2013-07-02T14:00:33Z</time>
      </trkpt>
      <trkpt lat="40.245167" lon="-4.624100">
        <ele>2370.0</ele>
        <time>2013-07-02T14:00:34Z</time>
      </trkpt>
      <trkpt lat="40.245133" lon="-4.623983">
        <ele>2368.0</ele>
        <time>2013-07-02T14:00:35Z</time>
      </trkpt>
      <trkpt lat="40.245083" lon="-4.623833">
        <ele>2365.0</ele>
        <time>2013-07-02T14:00:36Z</time>
      </trkpt>
      <trkpt lat="40.245033" lon="-4.623667">
        <ele>2362.0</ele>
        <time>2013-07-02T14:00:37Z</time>
      </trkpt>
      <trkpt lat="40.245000" lon="-4.623483">
        <ele>2361.0</ele>
        <time>2013-07-02T14:00:38Z</time>
      </trkpt>
      <trkpt lat="40.244967" lon="-4.623317">
        <ele>2361.0</ele>
        <time>2013-07-02T14:00:39Z</time>
      </trkpt>
      <trkpt lat="40.244950" lon="-4.623167">
        <ele>2361.0</ele>
        <time>2013-07-02T14:00:40Z</time>
      </trkpt>
      <trkpt lat="40.244933" lon="-4.623017">
        <ele>2359.0</ele>
        <time>2013-07-02T14:00:41Z</time>
      </trkpt>
      <trkpt lat="40.244917" lon="-4.622883">
        <ele>2358.0</ele>
        <time>2013-07-02T14:00:42Z</time>
      </trkpt>
      <trkpt lat="40.244900" lon="-4.622717">
        <ele>2355.0</ele>
        <time>2013-07-02T14:00:43Z</time>
      </trkpt>
      <trkpt lat="40.244900" lon="-4.622533">
        <ele>2352.0</ele>
        <time>2013-07-02T14:00:44Z</time>
      </trkpt>
      <trkpt lat="40.244900" lon="-4.622367">
        <ele>2349.0</ele>
        <time>2013-07-02T14:00:45Z</time>
      </trkpt>
      <trkpt lat="40.244917" lon="-4.622183">
        <ele>2347.0</ele>
        <time>2013-07-02T14:00:46Z</time>
      </trkpt>
      <trkpt lat="40.244917" lon="-4.622017">
        <ele>2346.0</ele>
        <time>2013-07-02T14:00:47Z</time>
      </trkpt>
      <trkpt lat="40.244917" lon="-4.621850">
        <ele>2343.0</ele>
        <time>2013-07-02T14:00:48Z</time>
      </trkpt>
      <trkpt lat="40.244900" lon="-4.621683">
        <ele>2341.0</ele>
        <time>2013-07-02T14:00:49Z</time>
      </trkpt>
      <trkpt lat="40.244883" lon="-4.621517">
        <ele>2338.0</ele>
        <time>2013-07-02T14:00:50Z</time>
      </trkpt>
      <trkpt lat="40.244883" lon="-4.621333">
        <ele>2336.0</ele>
        <time>2013-07-02T14:00:51Z</time>
      </trkpt>
      <trkpt lat="40.244883" lon="-4.621150">
        <ele>2334.0</ele>
        <time>2013-07-02T14:00:52Z</time>
      </trkpt>
      <trkpt lat="40.244883" lon="-4.620983">
        <ele>2332.0</ele>
        <time>2013-07-02T14:00:53Z</time>
      </trkpt>
      <trkpt lat="40.244867" lon="-4.620817">
        <ele>2330.0</ele>
        <time>2013-07-02T14:00:54Z</time>
      </trkpt>
      <trkpt lat="40.244867" lon="-4.620667">
        <ele>2328.0</ele>
        <time>2013-07-02T14:00:55Z</time>
      </trkpt>
      <trkpt lat="40.244867" lon="-4.620483">
        <ele>2325.0</ele>
        <time>2013-07-02T14:00:56Z</time>
      </trkpt>
      <trkpt lat="40.244850" lon="-4.620317">
        <ele>2323.0</ele>
        <time>2013-07-02T14:00:57Z</time>
      </trkpt>
      <trkpt lat="40.244833" lon="-4.620133">
        <ele>2322.0</ele>
        <time>2013-07-02T14:00:58Z</time>
      </trkpt>
      <trkpt lat="40.244833" lon="-4.619950">
        <ele>2321.0</ele>
        <time>2013-07-02T14:00:59Z</time>
      </trkpt>
      <trkpt lat="40.244817" lon="-4.619783">
        <ele>2320.0</ele>
        <time>2013-07-02T14:01:00Z</time>
      </trkpt>
      <trkpt lat="40.244817" lon="-4.619617">
        <ele>2319.0</ele>
        <time>2013-07-02T14:01:01Z</time>
      </trkpt>
      <trkpt lat="40.244800" lon="-4.619433">
        <ele>2317.0</ele>
        <time>2013-07-02T14:01:02Z</time>
      </trkpt>
      <trkpt lat="40.244767" lon="-4.619250">
        <ele>2315.0</ele>
        <time>2013-07-02T14:01:03Z</time>
      </trkpt>
      <trkpt lat="40.244733" lon="-4.619067">
        <ele>2314.0</ele>
        <time>2013-07-02T14:01:04Z</time>
      </trkpt>
      <trkpt lat="40.244700" lon="-4.618867">
        <ele>2313.0</ele>
        <time>2013-07-02T14:01:05Z</time>
      </trkpt>
      <trkpt lat="40.244683" lon="-4.618700">
        <ele>2313.0</ele>
        <time>2013-07-02T14:01:06Z</time>
      </trkpt>
      <trkpt lat="40.244650" lon="-4.618517">
        <ele>2312.0</ele>
        <time>2013-07-02T14:01:07Z</time>
      </trkpt>
      <trkpt lat="40.244633" lon="-4.618333">
        <ele>2312.0</ele>
        <time>2013-07-02T14:01:08Z</time>
      </trkpt>
      <trkpt lat="40.244600" lon="-4.618167">
        <ele>2311.0</ele>
        <time>2013-07-02T14:01:09Z</time>
      </trkpt>
      <trkpt lat="40.244583" lon="-4.617967">
        <ele>2311.0</ele>
        <time>2013-07-02T14:01:10Z</time>
      </trkpt>
      <trkpt lat="40.244583" lon="-4.617800">
        <ele>2312.0</ele>
        <time>2013-07-02T14:01:11Z</time>
      </trkpt>
      <trkpt lat="40.244567" lon="-4.617633">
        <ele>2313.0</ele>
        <time>2013-07-02T14:01:12Z</time>
      </trkpt>
      <trkpt lat="40.244567" lon="-4.617467">
        <ele>2313.0</ele>
        <time>2013-07-02T14:01:13Z</time>
      </trkpt>
      <trkpt lat="40.244550" lon="-4.617300">
        <ele>2313.0</ele>
        <time>2013-07-02T14:01:14Z</time>
      </trkpt>
      <trkpt lat="40.244533" lon="-4.617133">
        <ele>2312.0</ele>
        <time>2013-07-02T14:01:15Z</time>
      </trkpt>
      <trkpt lat="40.244517" lon="-4.616950">
        <ele>2312.0</ele>
        <time>2013-07-02T14:01:16Z</time>
      </trkpt>
      <trkpt lat="40.244500" lon="-4.616783">
        <ele>2312.0</ele>
        <time>2013-07-02T14:01:17Z</time>
      </trkpt>
      <trkpt lat="40.244483" lon="-4.616617">
        <ele>2312.0</ele>
        <time>2013-07-02T14:01:18Z</time>
      </trkpt>
      <trkpt lat="40.244467" lon="-4.616467">
        <ele>2312.0</ele>
        <time>2013-07-02T14:01:19Z</time>
      </trkpt>
      <trkpt lat="40.244450" lon="-4.616300">
        <ele>2311.0</ele>
        <time>2013-07-02T14:01:20Z</time>
      </trkpt>
      <trkpt lat="40.244433" lon="-4.616133">
        <ele>2309.0</ele>
        <time>2013-07-02T14:01:21Z</time>
      </trkpt>
      <trkpt lat="40.244400" lon="-4.615967">
        <ele>2308.0</ele>
        <time>2013-07-02T14:01:22Z</time>
      </trkpt>
      <trkpt lat="40.244383" lon="-4.615783">
        <ele>2307.0</ele>
        <time>2013-07-02T14:01:23Z</time>
      </trkpt>
      <trkpt lat="40.244367" lon="-4.615617">
        <ele>2307.0</ele>
        <time>2013-07-02T14:01:24Z</time>
      </trkpt>
      <trkpt lat="40.244350" lon="-4.615467">
        <ele>2306.0</ele>
        <time>2013-07-02T14:01:25Z</time>
      </trkpt>
      <trkpt lat="40.244333" lon="-4.615300">
        <ele>2306.0</ele>
        <time>2013-07-02T14:01:26Z</time>
      </trkpt>
      <trkpt lat="40.244317" lon="-4.615133">
        <ele>2305.0</ele>
        <time>2013-07-02T14:01:27Z</time>
      </trkpt>
      <trkpt lat="40.244317" lon="-4.614967">
        <ele>2302.0</ele>
        <time>2013-07-02T14:01:28Z</time>
      </trkpt>
      <trkpt lat="40.244300" lon="-4.614767">
        <ele>2300.0</ele>
        <time>2013-07-02T14:01:29Z</time>
      </trkpt>
      <trkpt lat="40.244300" lon="-4.614583">
        <ele>2299.0</ele>
        <time>2013-07-02T14:01:30Z</time>
      </trkpt>
      <trkpt lat="40.244300" lon="-4.614400">
        <ele>2299.0</ele>
        <time>2013-07-02T14:01:31Z</time>
      </trkpt>
      <trkpt lat="40.244300" lon="-4.614233">
        <ele>2299.0</ele>
        <time>2013-07-02T14:01:32Z</time>
      </trkpt>
      <trkpt lat="40.244283" lon="-4.614083">
        <ele>2299.0</ele>
        <time>2013-07-02T14:01:33Z</time>
      </trkpt>
      <trkpt lat="40.244283" lon="-4.613933">
        <ele>2298.0</ele>
        <time>2013-07-02T14:01:34Z</time>
      </trkpt>
      <trkpt lat="40.244283" lon="-4.613783">
        <ele>2296.0</ele>
        <time>2013-07-02T14:01:35Z</time>
      </trkpt>
      <trkpt lat="40.244267" lon="-4.613617">
        <ele>2293.0</ele>
        <time>2013-07-02T14:01:36Z</time>
      </trkpt>
      <trkpt lat="40.244267" lon="-4.613433">
        <ele>2291.0</ele>
        <time>2013-07-02T14:01:37Z</time>
      </trkpt>
      <trkpt lat="40.244250" lon="-4.613250">
        <ele>2290.0</ele>
        <time>2013-07-02T14:01:38Z</time>
      </trkpt>
      <trkpt lat="40.244233" lon="-4.613083">
        <ele>2289.0</ele>
        <time>2013-07-02T14:01:39Z</time>
      </trkpt>
      <trkpt lat="40.244200" lon="-4.612917">
        <ele>2288.0</ele>
        <time>2013-07-02T14:01:40Z</time>
      </trkpt>
      <trkpt lat="40.244183" lon="-4.612733">
        <ele>2287.0</ele>
        <time>2013-07-02T14:01:41Z</time>
      </trkpt>
      <trkpt lat="40.244150" lon="-4.612567">
        <ele>2285.0</ele>
        <time>2013-07-02T14:01:42Z</time>
      </trkpt>
      <trkpt lat="40.244133" lon="-4.612367">
        <ele>2284.0</ele>
        <time>2013-07-02T14:01:43Z</time>
      </trkpt>
      <trkpt lat="40.244100" lon="-4.612183">
        <ele>2284.0</ele>
        <time>2013-07-02T14:01:44Z</time>
      </trkpt>
      <trkpt lat="40.244067" lon="-4.612000">
        <ele>2284.0</ele>
        <time>2013-07-02T14:01:45Z</time>
      </trkpt>
      <trkpt lat="40.244033" lon="-4.611833">
        <ele>2284.0</ele>
        <time>2013-07-02T14:01:46Z</time>
      </trkpt>
      <trkpt lat="40.244000" lon="-4.611650">
        <ele>2284.0</ele>
        <time>2013-07-02T14:01:47Z</time>
      </trkpt>
      <trkpt lat="40.243967" lon="-4.611483">
        <ele>2284.0</ele>
        <time>2013-07-02T14:01:48Z</time>
      </trkpt>
      <trkpt lat="40.243933" lon="-4.611317">
        <ele>2285.0</ele>
        <time>2013-07-02T14:01:49Z</time>
      </trkpt>
      <trkpt lat="40.243900" lon="-4.611150">
        <ele>2285.0</ele>
        <time>2013-07-02T14:01:50Z</time>
      </trkpt>
      <trkpt lat="40.243850" lon="-4.611000">
        <ele>2285.0</ele>
        <time>2013-07-02T14:01:51Z</time>
      </trkpt>
      <trkpt lat="40.243800" lon="-4.610850">
        <ele>2285.0</ele>
        <time>2013-07-02T14:01:52Z</time>
      </trkpt>
      <trkpt lat="40.243750" lon="-4.610683">
        <ele>2284.0</ele>
        <time>2013-07-02T14:01:53Z</time>
      </trkpt>
      <trkpt lat="40.243700" lon="-4.610533">
        <ele>2284.0</ele>
        <time>2013-07-02T14:01:54Z</time>
      </trkpt>
      <trkpt lat="40.243667" lon="-4.610367">
        <ele>2283.0</ele>
        <time>2013-07-02T14:01:55Z</time>
      </trkpt>
      <trkpt lat="40.243617" lon="-4.610217">
        <ele>2283.0</ele>
        <time>2013-07-02T14:01:56Z</time>
      </trkpt>
      <trkpt lat="40.243567" lon="-4.610067">
        <ele>2283.0</ele>
        <time>2013-07-02T14:01:57Z</time>
      </trkpt>
      <trkpt lat="40.243517" lon="-4.609917">
        <ele>2283.0</ele>
        <time>2013-07-02T14:01:58Z</time>
      </trkpt>
      <trkpt lat="40.243467" lon="-4.609750">
        <ele>2282.0</ele>
        <time>2013-07-02T14:01:59Z</time>
      </trkpt>
      <trkpt lat="40.243433" lon="-4.609600">
        <ele>2282.0</ele>
        <time>2013-07-02T14:02:00Z</time>
      </trkpt>
      <trkpt lat="40.243417" lon="-4.609433">
        <ele>2281.0</ele>
        <time>2013-07-02T14:02:01Z</time>
      </trkpt>
      <trkpt lat="40.243400" lon="-4.609267">
        <ele>2278.0</ele>
        <time>2013-07-02T14:02:02Z</time>
      </trkpt>
      <trkpt lat="40.243367" lon="-4.609100">
        <ele>2276.0</ele>
        <time>2013-07-02T14:02:03Z</time>
      </trkpt>
      <trkpt lat="40.243333" lon="-4.608917">
        <ele>2273.0</ele>
        <time>2013-07-02T14:02:04Z</time>
      </trkpt>
      <trkpt lat="40.243300" lon="-4.608733">
        <ele>2271.0</ele>
        <time>2013-07-02T14:02:05Z</time>
      </trkpt>
      <trkpt lat="40.243267" lon="-4.608567">
        <ele>2270.0</ele>
        <time>2013-07-02T14:02:06Z</time>
      </trkpt>
      <trkpt lat="40.243217" lon="-4.608417">
        <ele>2269.0</ele>
        <time>2013-07-02T14:02:07Z</time>
      </trkpt>
      <trkpt lat="40.243167" lon="-4.608250">
        <ele>2268.0</ele>
        <time>2013-07-02T14:02:08Z</time>
      </trkpt>
      <trkpt lat="40.243133" lon="-4.608100">
        <ele>2266.0</ele>
        <time>2013-07-02T14:02:09Z</time>
      </trkpt>
      <trkpt lat="40.243100" lon="-4.607933">
        <ele>2263.0</ele>
        <time>2013-07-02T14:02:10Z</time>
      </trkpt>
      <trkpt lat="40.243067" lon="-4.607767">
        <ele>2261.0</ele>
        <time>2013-07-02T14:02:11Z</time>
      </trkpt>
      <trkpt lat="40.243033" lon="-4.607600">
        <ele>2259.0</ele>
        <time>2013-07-02T14:02:12Z</time>
      </trkpt>
      <trkpt lat="40.243000" lon="-4.607433">
        <ele>2257.0</ele>
        <time>2013-07-02T14:02:13Z</time>
      </trkpt>
      <trkpt lat="40.242967" lon="-4.607283">
        <ele>2255.0</ele>
        <time>2013-07-02T14:02:14Z</time>
      </trkpt>
      <trkpt lat="40.242950" lon="-4.607117">
        <ele>2253.0</ele>
        <time>2013-07-02T14:02:15Z</time>
      </trkpt>
      <trkpt lat="40.242933" lon="-4.606950">
        <ele>2251.0</ele>
        <time>2013-07-02T14:02:16Z</time>
      </trkpt>
      <trkpt lat="40.242900" lon="-4.606767">
        <ele>2249.0</ele>
        <time>2013-07-02T14:02:17Z</time>
      </trkpt>
      <trkpt lat="40.242867" lon="-4.606600">
        <ele>2248.0</ele>
        <time>2013-07-02T14:02:18Z</time>
      </trkpt>
      <trkpt lat="40.242833" lon="-4.606450">
        <ele>2246.0</ele>
        <time>2013-07-02T14:02:19Z</time>
      </trkpt>
      <trkpt lat="40.242800" lon="-4.606300">
        <ele>2244.0</ele>
        <time>2013-07-02T14:02:20Z</time>
      </trkpt>
      <trkpt lat="40.242767" lon="-4.606150">
        <ele>2241.0</ele>
        <time>2013-07-02T14:02:21Z</time>
      </trkpt>
      <trkpt lat="40.242717" lon="-4.605983">
        <ele>2239.0</ele>
        <time>2013-07-02T14:02:22Z</time>
      </trkpt>
      <trkpt lat="40.242683" lon="-4.605817">
        <ele>2237.0</ele>
        <time>2013-07-02T14:02:23Z</time>
      </trkpt>
      <trkpt lat="40.242650" lon="-4.605667">
        <ele>2236.0</ele>
        <time>2013-07-02T14:02:24Z</time>
      </trkpt>
      <trkpt lat="40.242617" lon="-4.605517">
        <ele>2235.0</ele>
        <time>2013-07-02T14:02:25Z</time>
      </trkpt>
      <trkpt lat="40.242567" lon="-4.605367">
        <ele>2234.0</ele>
        <time>2013-07-02T14:02:26Z</time>
      </trkpt>
      <trkpt lat="40.242533" lon="-4.605217">
        <ele>2232.0</ele>
        <time>2013-07-02T14:02:27Z</time>
      </trkpt>
      <trkpt lat="40.242500" lon="-4.605067">
        <ele>2231.0</ele>
        <time>2013-07-02T14:02:28Z</time>
      </trkpt>
      <trkpt lat="40.242450" lon="-4.604917">
        <ele>2229.0</ele>
        <time>2013-07-02T14:02:29Z</time>
      </trkpt>
      <trkpt lat="40.242417" lon="-4.604767">
        <ele>2228.0</ele>
        <time>2013-07-02T14:02:30Z</time>
      </trkpt>
      <trkpt lat="40.242383" lon="-4.604617">
        <ele>2226.0</ele>
        <time>2013-07-02T14:02:31Z</time>
      </trkpt>
      <trkpt lat="40.242350" lon="-4.604467">
        <ele>2224.0</ele>
        <time>2013-07-02T14:02:32Z</time>
      </trkpt>
      <trkpt lat="40.242317" lon="-4.604300">
        <ele>2222.0</ele>
        <time>2013-07-02T14:02:33Z</time>
      </trkpt>
      <trkpt lat="40.242283" lon="-4.604133">
        <ele>2220.0</ele>
        <time>2013-07-02T14:02:34Z</time>
      </trkpt>
      <trkpt lat="40.242250" lon="-4.603983">
        <ele>2219.0</ele>
        <time>2013-07-02T14:02:35Z</time>
      </trkpt>
      <trkpt lat="40.242217" lon="-4.603817">
        <ele>2218.0</ele>
        <time>2013-07-02T14:02:36Z</time>
      </trkpt>
      <trkpt lat="40.242183" lon="-4.603667">
        <ele>2216.0</ele>
        <time>2013-07-02T14:02:37Z</time>
      </trkpt>
      <trkpt lat="40.242150" lon="-4.603517">
        <ele>2215.0</ele>
        <time>2013-07-02T14:02:38Z</time>
      </trkpt>
      <trkpt lat="40.242117" lon="-4.603350">
        <ele>2213.0</ele>
        <time>2013-07-02T14:02:39Z</time>
      </trkpt>
      <trkpt lat="40.242100" lon="-4.603183">
        <ele>2211.0</ele>
        <time>2013-07-02T14:02:40Z</time>
      </trkpt>
      <trkpt lat="40.242083" lon="-4.603017">
        <ele>2209.0</ele>
        <time>2013-07-02T14:02:41Z</time>
      </trkpt>
      <trkpt lat="40.242050" lon="-4.602833">
        <ele>2207.0</ele>
        <time>2013-07-02T14:02:42Z</time>
      </trkpt>
      <trkpt lat="40.242033" lon="-4.602667">
        <ele>2206.0</ele>
        <time>2013-07-02T14:02:43Z</time>
      </trkpt>
      <trkpt lat="40.242000" lon="-4.602500">
        <ele>2205.0</ele>
        <time>2013-07-02T14:02:44Z</time>
      </trkpt>
      <trkpt lat="40.241967" lon="-4.602333">
        <ele>2204.0</ele>
        <time>2013-07-02T14:02:45Z</time>
      </trkpt>
      <trkpt lat="40.241950" lon="-4.602183">
        <ele>2203.0</ele>
        <time>2013-07-02T14:02:46Z</time>
      </trkpt>
      <trkpt lat="40.241917" lon="-4.602017">
        <ele>2202.0</ele>
        <time>2013-07-02T14:02:47Z</time>
      </trkpt>
      <trkpt lat="40.241900" lon="-4.601850">
        <ele>2201.0</ele>
        <time>2013-07-02T14:02:48Z</time>
      </trkpt>
      <trkpt lat="40.241883" lon="-4.601683">
        <ele>2199.0</ele>
        <time>2013-07-02T14:02:49Z</time>
      </trkpt>
      <trkpt lat="40.241867" lon="-4.601533">
        <ele>2198.0</ele>
        <time>2013-07-02T14:02:50Z</time>
      </trkpt>
      <trkpt lat="40.241833" lon="-4.601383">
        <ele>2196.0</ele>
        <time>2013-07-02T14:02:51Z</time>
      </trkpt>
      <trkpt lat="40.241817" lon="-4.601217">
        <ele>2194.0</ele>
        <time>2013-07-02T14:02:52Z</time>
      </trkpt>
      <trkpt lat="40.241783" lon="-4.601050">
        <ele>2193.0</ele>
        <time>2013-07-02T14:02:53Z</time>
      </trkpt>
      <trkpt lat="40.241750" lon="-4.600883">
        <ele>2192.0</ele>
        <time>2013-07-02T14:02:54Z</time>
      </trkpt>
      <trkpt lat="40.241733" lon="-4.600733">
        <ele>2191.0</ele>
        <time>2013-07-02T14:02:55Z</time>
      </trkpt>
      <trkpt lat="40.241717" lon="-4.600567">
        <ele>2189.0</ele>
        <time>2013-07-02T14:02:56Z</time>
      </trkpt>
      <trkpt lat="40.241683" lon="-4.600417">
        <ele>2188.0</ele>
        <time>2013-07-02T14:02:57Z</time>
      </trkpt>
      <trkpt lat="40.241650" lon="-4.600250">
        <ele>2186.0</ele>
        <time>2013-07-02T14:02:58Z</time>
      </trkpt>
      <trkpt lat="40.241617" lon="-4.600100">
        <ele>2185.0</ele>
        <time>2013-07-02T14:02:59Z</time>
      </trkpt>
      <trkpt lat="40.241583" lon="-4.599933">
        <ele>2183.0</ele>
        <time>2013-07-02T14:03:00Z</time>
      </trkpt>
      <trkpt lat="40.241567" lon="-4.599783">
        <ele>2181.0</ele>
        <time>2013-07-02T14:03:01Z</time>
      </trkpt>
      <trkpt lat="40.241533" lon="-4.599633">
        <ele>2179.0</ele>
        <time>2013-07-02T14:03:02Z</time>
      </trkpt>
      <trkpt lat="40.241500" lon="-4.599483">
        <ele>2176.0</ele>
        <time>2013-07-02T14:03:03Z</time>
      </trkpt>
      <trkpt lat="40.241483" lon="-4.599317">
        <ele>2174.0</ele>
        <time>2013-07-02T14:03:04Z</time>
      </trkpt>
      <trkpt lat="40.241450" lon="-4.599167">
        <ele>2172.0</ele>
        <time>2013-07-02T14:03:05Z</time>
      </trkpt>
      <trkpt lat="40.241450" lon="-4.599000">
        <ele>2171.0</ele>
        <time>2013-07-02T14:03:06Z</time>
      </trkpt>
      <trkpt lat="40.241433" lon="-4.598833">
        <ele>2169.0</ele>
        <time>2013-07-02T14:03:07Z</time>
      </trkpt>
      <trkpt lat="40.241433" lon="-4.598667">
        <ele>2167.0</ele>
        <time>2013-07-02T14:03:08Z</time>
      </trkpt>
      <trkpt lat="40.241433" lon="-4.598500">
        <ele>2164.0</ele>
        <time>2013-07-02T14:03:09Z</time>
      </trkpt>
      <trkpt lat="40.241433" lon="-4.598333">
        <ele>2162.0</ele>
        <time>2013-07-02T14:03:10Z</time>
      </trkpt>
      <trkpt lat="40.241433" lon="-4.598167">
        <ele>2159.0</ele>
        <time>2013-07-02T14:03:11Z</time>
      </trkpt>
      <trkpt lat="40.241433" lon="-4.597983">
        <ele>2157.0</ele>
        <time>2013-07-02T14:03:12Z</time>
      </trkpt>
      <trkpt lat="40.241450" lon="-4.597800">
        <ele>2155.0</ele>
        <time>2013-07-02T14:03:13Z</time>
      </trkpt>
      <trkpt lat="40.241450" lon="-4.597633">
        <ele>2153.0</ele>
        <time>2013-07-02T14:03:14Z</time>
      </trkpt>
      <trkpt lat="40.241467" lon="-4.597467">
        <ele>2151.0</ele>
        <time>2013-07-02T14:03:15Z</time>
      </trkpt>
      <trkpt lat="40.241467" lon="-4.597283">
        <ele>2149.0</ele>
        <time>2013-07-02T14:03:16Z</time>
      </trkpt>
      <trkpt lat="40.241483" lon="-4.597117">
        <ele>2146.0</ele>
        <time>2013-07-02T14:03:17Z</time>
      </trkpt>
      <trkpt lat="40.241500" lon="-4.596933">
        <ele>2144.0</ele>
        <time>2013-07-02T14:03:18Z</time>
      </trkpt>
      <trkpt lat="40.241500" lon="-4.596750">
        <ele>2141.0</ele>
        <time>2013-07-02T14:03:19Z</time>
      </trkpt>
      <trkpt lat="40.241517" lon="-4.596567">
        <ele>2139.0</ele>
        <time>2013-07-02T14:03:20Z</time>
      </trkpt>
      <trkpt lat="40.241517" lon="-4.596383">
        <ele>2136.0</ele>
        <time>2013-07-02T14:03:21Z</time>
      </trkpt>
      <trkpt lat="40.241533" lon="-4.596200">
        <ele>2133.0</ele>
        <time>2013-07-02T14:03:22Z</time>
      </trkpt>
      <trkpt lat="40.241533" lon="-4.596033">
        <ele>2130.0</ele>
        <time>2013-07-02T14:03:23Z</time>
      </trkpt>
      <trkpt lat="40.241550" lon="-4.595850">
        <ele>2126.0</ele>
        <time>2013-07-02T14:03:24Z</time>
      </trkpt>
      <trkpt lat="40.241550" lon="-4.595667">
        <ele>2123.0</ele>
        <time>2013-07-02T14:03:25Z</time>
      </trkpt>
      <trkpt lat="40.241567" lon="-4.595467">
        <ele>2120.0</ele>
        <time>2013-07-02T14:03:26Z</time>
      </trkpt>
      <trkpt lat="40.241567" lon="-4.595283">
        <ele>2120.0</ele>
        <time>2013-07-02T14:03:27Z</time>
      </trkpt>
      <trkpt lat="40.241583" lon="-4.595117">
        <ele>2118.0</ele>
        <time>2013-07-02T14:03:28Z</time>
      </trkpt>
      <trkpt lat="40.241600" lon="-4.594950">
        <ele>2116.0</ele>
        <time>2013-07-02T14:03:29Z</time>
      </trkpt>
      <trkpt lat="40.241617" lon="-4.594767">
        <ele>2114.0</ele>
        <time>2013-07-02T14:03:30Z</time>
      </trkpt>
      <trkpt lat="40.241633" lon="-4.594583">
        <ele>2111.0</ele>
        <time>2013-07-02T14:03:31Z</time>
      </trkpt>
      <trkpt lat="40.241650" lon="-4.594400">
        <ele>2108.0</ele>
        <time>2013-07-02T14:03:32Z</time>
      </trkpt>
      <trkpt lat="40.241683" lon="-4.594217">
        <ele>2106.0</ele>
        <time>2013-07-02T14:03:33Z</time>
      </trkpt>
      <trkpt lat="40.241700" lon="-4.594017">
        <ele>2104.0</ele>
        <time>2013-07-02T14:03:34Z</time>
      </trkpt>
      <trkpt lat="40.241717" lon="-4.593850">
        <ele>2103.0</ele>
        <time>2013-07-02T14:03:35Z</time>
      </trkpt>
      <trkpt lat="40.241717" lon="-4.593667">
        <ele>2102.0</ele>
        <time>2013-07-02T14:03:36Z</time>
      </trkpt>
      <trkpt lat="40.241733" lon="-4.593500">
        <ele>2100.0</ele>
        <time>2013-07-02T14:03:37Z</time>
      </trkpt>
      <trkpt lat="40.241733" lon="-4.593333">
        <ele>2097.0</ele>
        <time>2013-07-02T14:03:38Z</time>
      </trkpt>
      <trkpt lat="40.241733" lon="-4.593150">
        <ele>2094.0</ele>
        <time>2013-07-02T14:03:39Z</time>
      </trkpt>
      <trkpt lat="40.241750" lon="-4.592967">
        <ele>2091.0</ele>
        <time>2013-07-02T14:03:40Z</time>
      </trkpt>
      <trkpt lat="40.241750" lon="-4.592800">
        <ele>2089.0</ele>
        <time>2013-07-02T14:03:41Z</time>
      </trkpt>
      <trkpt lat="40.241750" lon="-4.592617">
        <ele>2087.0</ele>
        <time>2013-07-02T14:03:42Z</time>
      </trkpt>
      <trkpt lat="40.241750" lon="-4.592450">
        <ele>2085.0</ele>
        <time>2013-07-02T14:03:43Z</time>
      </trkpt>
      <trkpt lat="40.241750" lon="-4.592283">
        <ele>2082.0</ele>
        <time>2013-07-02T14:03:44Z</time>
      </trkpt>
      <trkpt lat="40.241750" lon="-4.592117">
        <ele>2079.0</ele>
        <time>2013-07-02T14:03:45Z</time>
      </trkpt>
      <trkpt lat="40.241733" lon="-4.591950">
        <ele>2077.0</ele>
        <time>2013-07-02T14:03:46Z</time>
      </trkpt>
      <trkpt lat="40.241717" lon="-4.591783">
        <ele>2074.0</ele>
        <time>2013-07-02T14:03:47Z</time>
      </trkpt>
      <trkpt lat="40.241717" lon="-4.591617">
        <ele>2072.0</ele>
        <time>2013-07-02T14:03:48Z</time>
      </trkpt>
      <trkpt lat="40.241717" lon="-4.591450">
        <ele>2070.0</ele>
        <time>2013-07-02T14:03:49Z</time>
      </trkpt>
      <trkpt lat="40.241717" lon="-4.591283">
        <ele>2067.0</ele>
        <time>2013-07-02T14:03:50Z</time>
      </trkpt>
      <trkpt lat="40.241717" lon="-4.591100">
        <ele>2063.0</ele>
        <time>2013-07-02T14:03:51Z</time>
      </trkpt>
      <trkpt lat="40.241700" lon="-4.590917">
        <ele>2059.0</ele>
        <time>2013-07-02T14:03:52Z</time>
      </trkpt>
      <trkpt lat="40.241683" lon="-4.590717">
        <ele>2055.0</ele>
        <time>2013-07-02T14:03:53Z</time>
      </trkpt>
      <trkpt lat="40.241667" lon="-4.590517">
        <ele>2053.0</ele>
        <time>2013-07-02T14:03:54Z</time>
      </trkpt>
      <trkpt lat="40.241650" lon="-4.590350">
        <ele>2050.0</ele>
        <time>2013-07-02T14:03:55Z</time>
      </trkpt>
      <trkpt lat="40.241650" lon="-4.590200">
        <ele>2048.0</ele>
        <time>2013-07-02T14:03:56Z</time>
      </trkpt>
      <trkpt lat="40.241633" lon="-4.590033">
        <ele>2044.0</ele>
        <time>2013-07-02T14:03:57Z</time>
      </trkpt>
      <trkpt lat="40.241617" lon="-4.589883">
        <ele>2040.0</ele>
        <time>2013-07-02T14:03:58Z</time>
      </trkpt>
      <trkpt lat="40.241600" lon="-4.589717">
        <ele>2036.0</ele>
        <time>2013-07-02T14:03:59Z</time>
      </trkpt>
      <trkpt lat="40.241567" lon="-4.589550">
        <ele>2032.0</ele>
        <time>2013-07-02T14:04:00Z</time>
      </trkpt>
      <trkpt lat="40.241550" lon="-4.589367">
        <ele>2027.0</ele>
        <time>2013-07-02T14:04:01Z</time>
      </trkpt>
      <trkpt lat="40.241517" lon="-4.589183">
        <ele>2023.0</ele>
        <time>2013-07-02T14:04:02Z</time>
      </trkpt>
      <trkpt lat="40.241483" lon="-4.589000">
        <ele>2019.0</ele>
        <time>2013-07-02T14:04:03Z</time>
      </trkpt>
      <trkpt lat="40.241450" lon="-4.588833">
        <ele>2016.0</ele>
        <time>2013-07-02T14:04:04Z</time>
      </trkpt>
      <trkpt lat="40.241417" lon="-4.588650">
        <ele>2012.0</ele>
        <time>2013-07-02T14:04:05Z</time>
      </trkpt>
      <trkpt lat="40.241383" lon="-4.588467">
        <ele>2009.0</ele>
        <time>2013-07-02T14:04:06Z</time>
      </trkpt>
      <trkpt lat="40.241350" lon="-4.588300">
        <ele>2005.0</ele>
        <time>2013-07-02T14:04:07Z</time>
      </trkpt>
      <trkpt lat="40.241317" lon="-4.588117">
        <ele>2002.0</ele>
        <time>2013-07-02T14:04:08Z</time>
      </trkpt>
      <trkpt lat="40.241283" lon="-4.587933">
        <ele>1998.0</ele>
        <time>2013-07-02T14:04:09Z</time>
      </trkpt>
      <trkpt lat="40.241250" lon="-4.587750">
        <ele>1994.0</ele>
        <time>2013-07-02T14:04:10Z</time>
      </trkpt>
      <trkpt lat="40.241217" lon="-4.587583">
        <ele>1990.0</ele>
        <time>2013-07-02T14:04:11Z</time>
      </trkpt>
      <trkpt lat="40.241183" lon="-4.587400">
        <ele>1986.0</ele>
        <time>2013-07-02T14:04:12Z</time>
      </trkpt>
      <trkpt lat="40.241133" lon="-4.587217">
        <ele>1982.0</ele>
        <time>2013-07-02T14:04:13Z</time>
      </trkpt>
      <trkpt lat="40.241100" lon="-4.587033">
        <ele>1978.0</ele>
        <time>2013-07-02T14:04:14Z</time>
      </trkpt>
      <trkpt lat="40.241067" lon="-4.586850">
        <ele>1974.0</ele>
        <time>2013-07-02T14:04:15Z</time>
      </trkpt>
      <trkpt lat="40.241017" lon="-4.586683">
        <ele>1971.0</ele>
        <time>2013-07-02T14:04:16Z</time>
      </trkpt>
      <trkpt lat="40.240967" lon="-4.586517">
        <ele>1967.0</ele>
        <time>2013-07-02T14:04:17Z</time>
      </trkpt>
      <trkpt lat="40.240933" lon="-4.586350">
        <ele>1964.0</ele>
        <time>2013-07-02T14:04:18Z</time>
      </trkpt>
      <trkpt lat="40.240900" lon="-4.586167">
        <ele>1960.0</ele>
        <time>2013-07-02T14:04:19Z</time>
      </trkpt>
      <trkpt lat="40.240867" lon="-4.585983">
        <ele>1957.0</ele>
        <time>2013-07-02T14:04:20Z</time>
      </trkpt>
      <trkpt lat="40.240833" lon="-4.585783">
        <ele>1953.0</ele>
        <time>2013-07-02T14:04:21Z</time>
      </trkpt>
      <trkpt lat="40.240800" lon="-4.585583">
        <ele>1949.0</ele>
        <time>2013-07-02T14:04:22Z</time>
      </trkpt>
      <trkpt lat="40.240767" lon="-4.585383">
        <ele>1946.0</ele>
        <time>2013-07-02T14:04:23Z</time>
      </trkpt>
      <trkpt lat="40.240733" lon="-4.585183">
        <ele>1944.0</ele>
        <time>2013-07-02T14:04:24Z</time>
      </trkpt>
      <trkpt lat="40.240700" lon="-4.584950">
        <ele>1944.0</ele>
        <time>2013-07-02T14:04:25Z</time>
      </trkpt>
      <trkpt lat="40.240683" lon="-4.584750">
        <ele>1944.0</ele>
        <time>2013-07-02T14:04:26Z</time>
      </trkpt>
      <trkpt lat="40.240650" lon="-4.584567">
        <ele>1945.0</ele>
        <time>2013-07-02T14:04:27Z</time>
      </trkpt>
      <trkpt lat="40.240633" lon="-4.584400">
        <ele>1945.0</ele>
        <time>2013-07-02T14:04:28Z</time>
      </trkpt>
      <trkpt lat="40.240617" lon="-4.584233">
        <ele>1943.0</ele>
        <time>2013-07-02T14:04:29Z</time>
      </trkpt>
      <trkpt lat="40.240600" lon="-4.584050">
        <ele>1942.0</ele>
        <time>2013-07-02T14:04:30Z</time>
      </trkpt>
      <trkpt lat="40.240600" lon="-4.583833">
        <ele>1938.0</ele>
        <time>2013-07-02T14:04:31Z</time>
      </trkpt>
      <trkpt lat="40.240583" lon="-4.583617">
        <ele>1935.0</ele>
        <time>2013-07-02T14:04:32Z</time>
      </trkpt>
      <trkpt lat="40.240583" lon="-4.583383">
        <ele>1934.0</ele>
        <time>2013-07-02T14:04:33Z</time>
      </trkpt>
      <trkpt lat="40.240567" lon="-4.583183">
        <ele>1934.0</ele>
        <time>2013-07-02T14:04:34Z</time>
      </trkpt>
      <trkpt lat="40.240567" lon="-4.582983">
        <ele>1934.0</ele>
        <time>2013-07-02T14:04:35Z</time>
      </trkpt>
      <trkpt lat="40.240567" lon="-4.582800">
        <ele>1933.0</ele>
        <time>2013-07-02T14:04:36Z</time>
      </trkpt>
      <trkpt lat="40.240583" lon="-4.582600">
        <ele>1931.0</ele>
        <time>2013-07-02T14:04:37Z</time>
      </trkpt>
      <trkpt lat="40.240583" lon="-4.582400">
        <ele>1929.0</ele>
        <time>2013-07-02T14:04:38Z</time>
      </trkpt>
      <trkpt lat="40.240600" lon="-4.582200">
        <ele>1926.0</ele>
        <time>2013-07-02T14:04:39Z</time>
      </trkpt>
      <trkpt lat="40.240600" lon="-4.582000">
        <ele>1923.0</ele>
        <time>2013-07-02T14:04:40Z</time>
      </trkpt>
      <trkpt lat="40.240600" lon="-4.581817">
        <ele>1920.0</ele>
        <time>2013-07-02T14:04:41Z</time>
      </trkpt>
      <trkpt lat="40.240617" lon="-4.581617">
        <ele>1916.0</ele>
        <time>2013-07-02T14:04:42Z</time>
      </trkpt>
      <trkpt lat="40.240633" lon="-4.581417">
        <ele>1912.0</ele>
        <time>2013-07-02T14:04:43Z</time>
      </trkpt>
      <trkpt lat="40.240650" lon="-4.581217">
        <ele>1909.0</ele>
        <time>2013-07-02T14:04:44Z</time>
      </trkpt>
      <trkpt lat="40.240650" lon="-4.581033">
        <ele>1905.0</ele>
        <time>2013-07-02T14:04:45Z</time>
      </trkpt>
      <trkpt lat="40.240667" lon="-4.580850">
        <ele>1902.0</ele>
        <time>2013-07-02T14:04:46Z</time>
      </trkpt>
      <trkpt lat="40.240700" lon="-4.580650">
        <ele>1899.0</ele>
        <time>2013-07-02T14:04:47Z</time>
      </trkpt>
      <trkpt lat="40.240717" lon="-4.580450">
        <ele>1895.0</ele>
        <time>2013-07-02T14:04:48Z</time>
      </trkpt>
      <trkpt lat="40.240733" lon="-4.580267">
        <ele>1892.0</ele>
        <time>2013-07-02T14:04:49Z</time>
      </trkpt>
      <trkpt lat="40.240750" lon="-4.580083">
        <ele>1890.0</ele>
        <time>2013-07-02T14:04:50Z</time>
      </trkpt>
      <trkpt lat="40.240767" lon="-4.579900">
        <ele>1887.0</ele>
        <time>2013-07-02T14:04:51Z</time>
      </trkpt>
      <trkpt lat="40.240800" lon="-4.579717">
        <ele>1885.0</ele>
        <time>2013-07-02T14:04:52Z</time>
      </trkpt>
      <trkpt lat="40.240817" lon="-4.579533">
        <ele>1882.0</ele>
        <time>2013-07-02T14:04:53Z</time>
      </trkpt>
      <trkpt lat="40.240833" lon="-4.579350">
        <ele>1879.0</ele>
        <time>2013-07-02T14:04:54Z</time>
      </trkpt>
      <trkpt lat="40.240867" lon="-4.579150">
        <ele>1877.0</ele>
        <time>2013-07-02T14:04:55Z</time>
      </trkpt>
      <trkpt lat="40.240883" lon="-4.578967">
        <ele>1876.0</ele>
        <time>2013-07-02T14:04:56Z</time>
      </trkpt>
      <trkpt lat="40.240917" lon="-4.578800">
        <ele>1873.0</ele>
        <time>2013-07-02T14:04:57Z</time>
      </trkpt>
      <trkpt lat="40.240950" lon="-4.578617">
        <ele>1871.0</ele>
        <time>2013-07-02T14:04:58Z</time>
      </trkpt>
      <trkpt lat="40.240967" lon="-4.578433">
        <ele>1868.0</ele>
        <time>2013-07-02T14:04:59Z</time>
      </trkpt>
      <trkpt lat="40.240983" lon="-4.578233">
        <ele>1865.0</ele>
        <time>2013-07-02T14:05:00Z</time>
      </trkpt>
      <trkpt lat="40.241000" lon="-4.578033">
        <ele>1863.0</ele>
        <time>2013-07-02T14:05:01Z</time>
      </trkpt>
      <trkpt lat="40.241017" lon="-4.577833">
        <ele>1861.0</ele>
        <time>2013-07-02T14:05:02Z</time>
      </trkpt>
      <trkpt lat="40.241033" lon="-4.577667">
        <ele>1859.0</ele>
        <time>2013-07-02T14:05:03Z</time>
      </trkpt>
      <trkpt lat="40.241050" lon="-4.577483">
        <ele>1857.0</ele>
        <time>2013-07-02T14:05:04Z</time>
      </trkpt>
      <trkpt lat="40.241067" lon="-4.577317">
        <ele>1854.0</ele>
        <time>2013-07-02T14:05:05Z</time>
      </trkpt>
      <trkpt lat="40.241067" lon="-4.577133">
        <ele>1851.0</ele>
        <time>2013-07-02T14:05:06Z</time>
      </trkpt>
      <trkpt lat="40.241083" lon="-4.576933">
        <ele>1849.0</ele>
        <time>2013-07-02T14:05:07Z</time>
      </trkpt>
      <trkpt lat="40.241100" lon="-4.576750">
        <ele>1847.0</ele>
        <time>2013-07-02T14:05:08Z</time>
      </trkpt>
      <trkpt lat="40.241117" lon="-4.576550">
        <ele>1845.0</ele>
        <time>2013-07-02T14:05:09Z</time>
      </trkpt>
      <trkpt lat="40.241150" lon="-4.576367">
        <ele>1845.0</ele>
        <time>2013-07-02T14:05:10Z</time>
      </trkpt>
      <trkpt lat="40.241167" lon="-4.576200">
        <ele>1843.0</ele>
        <time>2013-07-02T14:05:11Z</time>
      </trkpt>
      <trkpt lat="40.241200" lon="-4.576017">
        <ele>1841.0</ele>
        <time>2013-07-02T14:05:12Z</time>
      </trkpt>
      <trkpt lat="40.241217" lon="-4.575833">
        <ele>1839.0</ele>
        <time>2013-07-02T14:05:13Z</time>
      </trkpt>
      <trkpt lat="40.241233" lon="-4.575650">
        <ele>1836.0</ele>
        <time>2013-07-02T14:05:14Z</time>
      </trkpt>
      <trkpt lat="40.241267" lon="-4.575450">
        <ele>1834.0</ele>
        <time>2013-07-02T14:05:15Z</time>
      </trkpt>
      <trkpt lat="40.241283" lon="-4.575267">
        <ele>1832.0</ele>
        <time>2013-07-02T14:05:16Z</time>
      </trkpt>
      <trkpt lat="40.241317" lon="-4.575083">
        <ele>1830.0</ele>
        <time>2013-07-02T14:05:17Z</time>
      </trkpt>
      <trkpt lat="40.241350" lon="-4.574883">
        <ele>1827.0</ele>
        <time>2013-07-02T14:05:18Z</time>
      </trkpt>
      <trkpt lat="40.241383" lon="-4.574683">
        <ele>1824.0</ele>
        <time>2013-07-02T14:05:19Z</time>
      </trkpt>
      <trkpt lat="40.241433" lon="-4.574483">
        <ele>1820.0</ele>
        <time>2013-07-02T14:05:20Z</time>
      </trkpt>
      <trkpt lat="40.241467" lon="-4.574267">
        <ele>1817.0</ele>
        <time>2013-07-02T14:05:21Z</time>
      </trkpt>
      <trkpt lat="40.241500" lon="-4.574050">
        <ele>1817.0</ele>
        <time>2013-07-02T14:05:22Z</time>
      </trkpt>
      <trkpt lat="40.241533" lon="-4.573867">
        <ele>1815.0</ele>
        <time>2013-07-02T14:05:23Z</time>
      </trkpt>
      <trkpt lat="40.241567" lon="-4.573683">
        <ele>1813.0</ele>
        <time>2013-07-02T14:05:24Z</time>
      </trkpt>
      <trkpt lat="40.241617" lon="-4.573517">
        <ele>1810.0</ele>
        <time>2013-07-02T14:05:25Z</time>
      </trkpt>
      <trkpt lat="40.241650" lon="-4.573317">
        <ele>1806.0</ele>
        <time>2013-07-02T14:05:26Z</time>
      </trkpt>
      <trkpt lat="40.241683" lon="-4.573117">
        <ele>1803.0</ele>
        <time>2013-07-02T14:05:27Z</time>
      </trkpt>
      <trkpt lat="40.241717" lon="-4.572933">
        <ele>1800.0</ele>
        <time>2013-07-02T14:05:28Z</time>
      </trkpt>
      <trkpt lat="40.241750" lon="-4.572750">
        <ele>1797.0</ele>
        <time>2013-07-02T14:05:29Z</time>
      </trkpt>
      <trkpt lat="40.241783" lon="-4.572567">
        <ele>1794.0</ele>
        <time>2013-07-02T14:05:30Z</time>
      </trkpt>
      <trkpt lat="40.241817" lon="-4.572383">
        <ele>1792.0</ele>
        <time>2013-07-02T14:05:31Z</time>
      </trkpt>
      <trkpt lat="40.241850" lon="-4.572200">
        <ele>1789.0</ele>
        <time>2013-07-02T14:05:32Z</time>
      </trkpt>
      <trkpt lat="40.241883" lon="-4.572017">
        <ele>1785.0</ele>
        <time>2013-07-02T14:05:33Z</time>
      </trkpt>
      <trkpt lat="40.241917" lon="-4.571833">
        <ele>1781.0</ele>
        <time>2013-07-02T14:05:34Z</time>
      </trkpt>
      <trkpt lat="40.241950" lon="-4.571633">
        <ele>1778.0</ele>
        <time>2013-07-02T14:05:35Z</time>
      </trkpt>
      <trkpt lat="40.241983" lon="-4.571450">
        <ele>1776.0</ele>
        <time>2013-07-02T14:05:36Z</time>
      </trkpt>
      <trkpt lat="40.242017" lon="-4.571283">
        <ele>1773.0</ele>
        <time>2013-07-02T14:05:37Z</time>
      </trkpt>
      <trkpt lat="40.242050" lon="-4.571100">
        <ele>1769.0</ele>
        <time>2013-07-02T14:05:38Z</time>
      </trkpt>
      <trkpt lat="40.242083" lon="-4.570917">
        <ele>1765.0</ele>
        <time>2013-07-02T14:05:39Z</time>
      </trkpt>
      <trkpt lat="40.242117" lon="-4.570717">
        <ele>1761.0</ele>
        <time>2013-07-02T14:05:40Z</time>
      </trkpt>
      <trkpt lat="40.242150" lon="-4.570517">
        <ele>1757.0</ele>
        <time>2013-07-02T14:05:41Z</time>
      </trkpt>
      <trkpt lat="40.242183" lon="-4.570333">
        <ele>1754.0</ele>
        <time>2013-07-02T14:05:42Z</time>
      </trkpt>
      <trkpt lat="40.242217" lon="-4.570150">
        <ele>1751.0</ele>
        <time>2013-07-02T14:05:43Z</time>
      </trkpt>
      <trkpt lat="40.242250" lon="-4.569967">
        <ele>1749.0</ele>
        <time>2013-07-02T14:05:44Z</time>
      </trkpt>
      <trkpt lat="40.242267" lon="-4.569783">
        <ele>1746.0</ele>
        <time>2013-07-02T14:05:45Z</time>
      </trkpt>
      <trkpt lat="40.242300" lon="-4.569583">
        <ele>1743.0</ele>
        <time>2013-07-02T14:05:46Z</time>
      </trkpt>
      <trkpt lat="40.242317" lon="-4.569383">
        <ele>1739.0</ele>
        <time>2013-07-02T14:05:47Z</time>
      </trkpt>
      <trkpt lat="40.242333" lon="-4.569200">
        <ele>1736.0</ele>
        <time>2013-07-02T14:05:48Z</time>
      </trkpt>
      <trkpt lat="40.242350" lon="-4.569000">
        <ele>1733.0</ele>
        <time>2013-07-02T14:05:49Z</time>
      </trkpt>
      <trkpt lat="40.242367" lon="-4.568817">
        <ele>1731.0</ele>
        <time>2013-07-02T14:05:50Z</time>
      </trkpt>
      <trkpt lat="40.242383" lon="-4.568633">
        <ele>1728.0</ele>
        <time>2013-07-02T14:05:51Z</time>
      </trkpt>
      <trkpt lat="40.242383" lon="-4.568433">
        <ele>1726.0</ele>
        <time>2013-07-02T14:05:52Z</time>
      </trkpt>
      <trkpt lat="40.242383" lon="-4.568233">
        <ele>1723.0</ele>
        <time>2013-07-02T14:05:53Z</time>
      </trkpt>
      <trkpt lat="40.242383" lon="-4.568033">
        <ele>1721.0</ele>
        <time>2013-07-02T14:05:54Z</time>
      </trkpt>
      <trkpt lat="40.242383" lon="-4.567850">
        <ele>1719.0</ele>
        <time>2013-07-02T14:05:55Z</time>
      </trkpt>
      <trkpt lat="40.242383" lon="-4.567667">
        <ele>1717.0</ele>
        <time>2013-07-02T14:05:56Z</time>
      </trkpt>
      <trkpt lat="40.242383" lon="-4.567483">
        <ele>1714.0</ele>
        <time>2013-07-02T14:05:57Z</time>
      </trkpt>
      <trkpt lat="40.242383" lon="-4.567300">
        <ele>1711.0</ele>
        <time>2013-07-02T14:05:58Z</time>
      </trkpt>
      <trkpt lat="40.242383" lon="-4.567100">
        <ele>1710.0</ele>
        <time>2013-07-02T14:05:59Z</time>
      </trkpt>
      <trkpt lat="40.242367" lon="-4.566917">
        <ele>1710.0</ele>
        <time>2013-07-02T14:06:00Z</time>
      </trkpt>
      <trkpt lat="40.242367" lon="-4.566767">
        <ele>1710.0</ele>
        <time>2013-07-02T14:06:01Z</time>
      </trkpt>
      <trkpt lat="40.242367" lon="-4.566617">
        <ele>1709.0</ele>
        <time>2013-07-02T14:06:02Z</time>
      </trkpt>
      <trkpt lat="40.242350" lon="-4.566483">
        <ele>1708.0</ele>
        <time>2013-07-02T14:06:03Z</time>
      </trkpt>
      <trkpt lat="40.242350" lon="-4.566317">
        <ele>1706.0</ele>
        <time>2013-07-02T14:06:04Z</time>
      </trkpt>
      <trkpt lat="40.242333" lon="-4.566150">
        <ele>1703.0</ele>
        <time>2013-07-02T14:06:05Z</time>
      </trkpt>
      <trkpt lat="40.242333" lon="-4.565983">
        <ele>1701.0</ele>
        <time>2013-07-02T14:06:06Z</time>
      </trkpt>
      <trkpt lat="40.242333" lon="-4.565833">
        <ele>1700.0</ele>
        <time>2013-07-02T14:06:07Z</time>
      </trkpt>
      <trkpt lat="40.242317" lon="-4.565683">
        <ele>1698.0</ele>
        <time>2013-07-02T14:06:08Z</time>
      </trkpt>
      <trkpt lat="40.242300" lon="-4.565550">
        <ele>1696.0</ele>
        <time>2013-07-02T14:06:09Z</time>
      </trkpt>
      <trkpt lat="40.242300" lon="-4.565400">
        <ele>1693.0</ele>
        <time>2013-07-02T14:06:10Z</time>
      </trkpt>
      <trkpt lat="40.242283" lon="-4.565233">
        <ele>1691.0</ele>
        <time>2013-07-02T14:06:11Z</time>
      </trkpt>
      <trkpt lat="40.242267" lon="-4.565067">
        <ele>1688.0</ele>
        <time>2013-07-02T14:06:12Z</time>
      </trkpt>
      <trkpt lat="40.242233" lon="-4.564917">
        <ele>1686.0</ele>
        <time>2013-07-02T14:06:13Z</time>
      </trkpt>
      <trkpt lat="40.242200" lon="-4.564767">
        <ele>1684.0</ele>
        <time>2013-07-02T14:06:14Z</time>
      </trkpt>
      <trkpt lat="40.242167" lon="-4.564633">
        <ele>1682.0</ele>
        <time>2013-07-02T14:06:15Z</time>
      </trkpt>
      <trkpt lat="40.242133" lon="-4.564500">
        <ele>1680.0</ele>
        <time>2013-07-02T14:06:16Z</time>
      </trkpt>
      <trkpt lat="40.242083" lon="-4.564367">
        <ele>1678.0</ele>
        <time>2013-07-02T14:06:17Z</time>
      </trkpt>
      <trkpt lat="40.242050" lon="-4.564217">
        <ele>1675.0</ele>
        <time>2013-07-02T14:06:18Z</time>
      </trkpt>
      <trkpt lat="40.242017" lon="-4.564067">
        <ele>1672.0</ele>
        <time>2013-07-02T14:06:19Z</time>
      </trkpt>
      <trkpt lat="40.241983" lon="-4.563900">
        <ele>1670.0</ele>
        <time>2013-07-02T14:06:20Z</time>
      </trkpt>
      <trkpt lat="40.241950" lon="-4.563750">
        <ele>1667.0</ele>
        <time>2013-07-02T14:06:21Z</time>
      </trkpt>
      <trkpt lat="40.241933" lon="-4.563600">
        <ele>1665.0</ele>
        <time>2013-07-02T14:06:22Z</time>
      </trkpt>
      <trkpt lat="40.241917" lon="-4.563433">
        <ele>1662.0</ele>
        <time>2013-07-02T14:06:23Z</time>
      </trkpt>
      <trkpt lat="40.241883" lon="-4.563283">
        <ele>1659.0</ele>
        <time>2013-07-02T14:06:24Z</time>
      </trkpt>
      <trkpt lat="40.241867" lon="-4.563133">
        <ele>1657.0</ele>
        <time>2013-07-02T14:06:25Z</time>
      </trkpt>
      <trkpt lat="40.241833" lon="-4.562967">
        <ele>1653.0</ele>
        <time>2013-07-02T14:06:26Z</time>
      </trkpt>
      <trkpt lat="40.241817" lon="-4.562800">
        <ele>1650.0</ele>
        <time>2013-07-02T14:06:27Z</time>
      </trkpt>
      <trkpt lat="40.241800" lon="-4.562633">
        <ele>1647.0</ele>
        <time>2013-07-02T14:06:28Z</time>
      </trkpt>
      <trkpt lat="40.241783" lon="-4.562483">
        <ele>1644.0</ele>
        <time>2013-07-02T14:06:29Z</time>
      </trkpt>
      <trkpt lat="40.241767" lon="-4.562300">
        <ele>1641.0</ele>
        <time>2013-07-02T14:06:30Z</time>
      </trkpt>
      <trkpt lat="40.241767" lon="-4.562133">
        <ele>1638.0</ele>
        <time>2013-07-02T14:06:31Z</time>
      </trkpt>
      <trkpt lat="40.241767" lon="-4.561967">
        <ele>1636.0</ele>
        <time>2013-07-02T14:06:32Z</time>
      </trkpt>
      <trkpt lat="40.241750" lon="-4.561800">
        <ele>1633.0</ele>
        <time>2013-07-02T14:06:33Z</time>
      </trkpt>
      <trkpt lat="40.241750" lon="-4.561633">
        <ele>1631.0</ele>
        <time>2013-07-02T14:06:34Z</time>
      </trkpt>
      <trkpt lat="40.241733" lon="-4.561467">
        <ele>1628.0</ele>
        <time>2013-07-02T14:06:35Z</time>
      </trkpt>
      <trkpt lat="40.241717" lon="-4.561317">
        <ele>1626.0</ele>
        <time>2013-07-02T14:06:36Z</time>
      </trkpt>
      <trkpt lat="40.241700" lon="-4.561150">
        <ele>1623.0</ele>
        <time>2013-07-02T14:06:37Z</time>
      </trkpt>
      <trkpt lat="40.241667" lon="-4.561000">
        <ele>1620.0</ele>
        <time>2013-07-02T14:06:38Z</time>
      </trkpt>
      <trkpt lat="40.241650" lon="-4.560850">
        <ele>1617.0</ele>
        <time>2013-07-02T14:06:39Z</time>
      </trkpt>
      <trkpt lat="40.241600" lon="-4.560700">
        <ele>1614.0</ele>
        <time>2013-07-02T14:06:40Z</time>
      </trkpt>
      <trkpt lat="40.241567" lon="-4.560550">
        <ele>1610.0</ele>
        <time>2013-07-02T14:06:41Z</time>
      </trkpt>
      <trkpt lat="40.241517" lon="-4.560400">
        <ele>1607.0</ele>
        <time>2013-07-02T14:06:42Z</time>
      </trkpt>
      <trkpt lat="40.241467" lon="-4.560250">
        <ele>1604.0</ele>
        <time>2013-07-02T14:06:43Z</time>
      </trkpt>
      <trkpt lat="40.241417" lon="-4.560100">
        <ele>1600.0</ele>
        <time>2013-07-02T14:06:44Z</time>
      </trkpt>
      <trkpt lat="40.241367" lon="-4.559967">
        <ele>1597.0</ele>
        <time>2013-07-02T14:06:45Z</time>
      </trkpt>
      <trkpt lat="40.241317" lon="-4.559817">
        <ele>1595.0</ele>
        <time>2013-07-02T14:06:46Z</time>
      </trkpt>
      <trkpt lat="40.241250" lon="-4.559700">
        <ele>1591.0</ele>
        <time>2013-07-02T14:06:47Z</time>
      </trkpt>
      <trkpt lat="40.241200" lon="-4.559550">
        <ele>1588.0</ele>
        <time>2013-07-02T14:06:48Z</time>
      </trkpt>
      <trkpt lat="40.241150" lon="-4.559417">
        <ele>1586.0</ele>
        <time>2013-07-02T14:06:49Z</time>
      </trkpt>
      <trkpt lat="40.241083" lon="-4.559283">
        <ele>1583.0</ele>
        <time>2013-07-02T14:06:50Z</time>
      </trkpt>
      <trkpt lat="40.241033" lon="-4.559133">
        <ele>1580.0</ele>
        <time>2013-07-02T14:06:51Z</time>
      </trkpt>
      <trkpt lat="40.240967" lon="-4.559000">
        <ele>1578.0</ele>
        <time>2013-07-02T14:06:52Z</time>
      </trkpt>
      <trkpt lat="40.240917" lon="-4.558867">
        <ele>1576.0</ele>
        <time>2013-07-02T14:06:53Z</time>
      </trkpt>
      <trkpt lat="40.240850" lon="-4.558733">
        <ele>1574.0</ele>
        <time>2013-07-02T14:06:54Z</time>
      </trkpt>
      <trkpt lat="40.240783" lon="-4.558617">
        <ele>1571.0</ele>
        <time>2013-07-02T14:06:55Z</time>
      </trkpt>
      <trkpt lat="40.240717" lon="-4.558517">
        <ele>1569.0</ele>
        <time>2013-07-02T14:06:56Z</time>
      </trkpt>
      <trkpt lat="40.240633" lon="-4.558400">
        <ele>1567.0</ele>
        <time>2013-07-02T14:06:57Z</time>
      </trkpt>
      <trkpt lat="40.240567" lon="-4.558283">
        <ele>1565.0</ele>
        <time>2013-07-02T14:06:58Z</time>
      </trkpt>
      <trkpt lat="40.240500" lon="-4.558150">
        <ele>1562.0</ele>
        <time>2013-07-02T14:06:59Z</time>
      </trkpt>
      <trkpt lat="40.240433" lon="-4.558017">
        <ele>1561.0</ele>
        <time>2013-07-02T14:07:00Z</time>
      </trkpt>
      <trkpt lat="40.240367" lon="-4.557917">
        <ele>1559.0</ele>
        <time>2013-07-02T14:07:01Z</time>
      </trkpt>
      <trkpt lat="40.240300" lon="-4.557800">
        <ele>1557.0</ele>
        <time>2013-07-02T14:07:02Z</time>
      </trkpt>
      <trkpt lat="40.240233" lon="-4.557683">
        <ele>1555.0</ele>
        <time>2013-07-02T14:07:03Z</time>
      </trkpt>
      <trkpt lat="40.240167" lon="-4.557567">
        <ele>1552.0</ele>
        <time>2013-07-02T14:07:04Z</time>
      </trkpt>
      <trkpt lat="40.240100" lon="-4.557450">
        <ele>1549.0</ele>
        <time>2013-07-02T14:07:05Z</time>
      </trkpt>
      <trkpt lat="40.240033" lon="-4.557350">
        <ele>1546.0</ele>
        <time>2013-07-02T14:07:06Z</time>
      </trkpt>
      <trkpt lat="40.239967" lon="-4.557233">
        <ele>1544.0</ele>
        <time>2013-07-02T14:07:07Z</time>
      </trkpt>
      <trkpt lat="40.239900" lon="-4.557133">
        <ele>1541.0</ele>
        <time>2013-07-02T14:07:08Z</time>
      </trkpt>
      <trkpt lat="40.239833" lon="-4.557017">
        <ele>1538.0</ele>
        <time>2013-07-02T14:07:09Z</time>
      </trkpt>
      <trkpt lat="40.239783" lon="-4.556900">
        <ele>1536.0</ele>
        <time>2013-07-02T14:07:10Z</time>
      </trkpt>
      <trkpt lat="40.239733" lon="-4.556783">
        <ele>1533.0</ele>
        <time>2013-07-02T14:07:11Z</time>
      </trkpt>
      <trkpt lat="40.239667" lon="-4.556683">
        <ele>1530.0</ele>
        <time>2013-07-02T14:07:12Z</time>
      </trkpt>
      <trkpt lat="40.239600" lon="-4.556567">
        <ele>1527.0</ele>
        <time>2013-07-02T14:07:13Z</time>
      </trkpt>
      <trkpt lat="40.239533" lon="-4.556433">
        <ele>1524.0</ele>
        <time>2013-07-02T14:07:14Z</time>
      </trkpt>
      <trkpt lat="40.239483" lon="-4.556317">
        <ele>1522.0</ele>
        <time>2013-07-02T14:07:15Z</time>
      </trkpt>
      <trkpt lat="40.239417" lon="-4.556200">
        <ele>1520.0</ele>
        <time>2013-07-02T14:07:16Z</time>
      </trkpt>
      <trkpt lat="40.239350" lon="-4.556083">
        <ele>1518.0</ele>
        <time>2013-07-02T14:07:17Z</time>
      </trkpt>
      <trkpt lat="40.239283" lon="-4.555983">
        <ele>1516.0</ele>
        <time>2013-07-02T14:07:18Z</time>
      </trkpt>
      <trkpt lat="40.239233" lon="-4.555883">
        <ele>1515.0</ele>
        <time>2013-07-02T14:07:19Z</time>
      </trkpt>
      <trkpt lat="40.239167" lon="-4.555767">
        <ele>1513.0</ele>
        <time>2013-07-02T14:07:20Z</time>
      </trkpt>
      <trkpt lat="40.239117" lon="-4.555667">
        <ele>1511.0</ele>
        <time>2013-07-02T14:07:21Z</time>
      </trkpt>
      <trkpt lat="40.239050" lon="-4.555567">
        <ele>1509.0</ele>
        <time>2013-07-02T14:07:22Z</time>
      </trkpt>
      <trkpt lat="40.239000" lon="-4.555450">
        <ele>1506.0</ele>
        <time>2013-07-02T14:07:23Z</time>
      </trkpt>
      <trkpt lat="40.238933" lon="-4.555350">
        <ele>1503.0</ele>
        <time>2013-07-02T14:07:24Z</time>
      </trkpt>
      <trkpt lat="40.238867" lon="-4.555233">
        <ele>1500.0</ele>
        <time>2013-07-02T14:07:25Z</time>
      </trkpt>
      <trkpt lat="40.238800" lon="-4.555133">
        <ele>1498.0</ele>
        <time>2013-07-02T14:07:26Z</time>
      </trkpt>
      <trkpt lat="40.238733" lon="-4.555017">
        <ele>1495.0</ele>
        <time>2013-07-02T14:07:27Z</time>
      </trkpt>
      <trkpt lat="40.238667" lon="-4.554917">
        <ele>1492.0</ele>
        <time>2013-07-02T14:07:28Z</time>
      </trkpt>
      <trkpt lat="40.238583" lon="-4.554800">
        <ele>1489.0</ele>
        <time>2013-07-02T14:07:29Z</time>
      </trkpt>
      <trkpt lat="40.238500" lon="-4.554700">
        <ele>1485.0</ele>
        <time>2013-07-02T14:07:30Z</time>
      </trkpt>
      <trkpt lat="40.238417" lon="-4.554583">
        <ele>1483.0</ele>
        <time>2013-07-02T14:07:31Z</time>
      </trkpt>
      <trkpt lat="40.238333" lon="-4.554450">
        <ele>1481.0</ele>
        <time>2013-07-02T14:07:32Z</time>
      </trkpt>
      <trkpt lat="40.238267" lon="-4.554333">
        <ele>1479.0</ele>
        <time>2013-07-02T14:07:33Z</time>
      </trkpt>
      <trkpt lat="40.238200" lon="-4.554217">
        <ele>1477.0</ele>
        <time>2013-07-02T14:07:34Z</time>
      </trkpt>
      <trkpt lat="40.238133" lon="-4.554100">
        <ele>1474.0</ele>
        <time>2013-07-02T14:07:35Z</time>
      </trkpt>
      <trkpt lat="40.238050" lon="-4.553983">
        <ele>1471.0</ele>
        <time>2013-07-02T14:07:36Z</time>
      </trkpt>
      <trkpt lat="40.237967" lon="-4.553867">
        <ele>1467.0</ele>
        <time>2013-07-02T14:07:37Z</time>
      </trkpt>
      <trkpt lat="40.237883" lon="-4.553767">
        <ele>1464.0</ele>
        <time>2013-07-02T14:07:38Z</time>
      </trkpt>
      <trkpt lat="40.237800" lon="-4.553650">
        <ele>1461.0</ele>
        <time>2013-07-02T14:07:39Z</time>
      </trkpt>
      <trkpt lat="40.237717" lon="-4.553550">
        <ele>1459.0</ele>
        <time>2013-07-02T14:07:40Z</time>
      </trkpt>
      <trkpt lat="40.237633" lon="-4.553467">
        <ele>1456.0</ele>
        <time>2013-07-02T14:07:41Z</time>
      </trkpt>
      <trkpt lat="40.237567" lon="-4.553383">
        <ele>1453.0</ele>
        <time>2013-07-02T14:07:42Z</time>
      </trkpt>
      <trkpt lat="40.237483" lon="-4.553283">
        <ele>1449.0</ele>
        <time>2013-07-02T14:07:43Z</time>
      </trkpt>
      <trkpt lat="40.237400" lon="-4.553200">
        <ele>1445.0</ele>
        <time>2013-07-02T14:07:44Z</time>
      </trkpt>
      <trkpt lat="40.237317" lon="-4.553100">
        <ele>1440.0</ele>
        <time>2013-07-02T14:07:45Z</time>
      </trkpt>
      <trkpt lat="40.237233" lon="-4.553017">
        <ele>1435.0</ele>
        <time>2013-07-02T14:07:46Z</time>
      </trkpt>
      <trkpt lat="40.237150" lon="-4.552917">
        <ele>1432.0</ele>
        <time>2013-07-02T14:07:47Z</time>
      </trkpt>
      <trkpt lat="40.237050" lon="-4.552833">
        <ele>1429.0</ele>
        <time>2013-07-02T14:07:48Z</time>
      </trkpt>
      <trkpt lat="40.236967" lon="-4.552717">
        <ele>1427.0</ele>
        <time>2013-07-02T14:07:49Z</time>
      </trkpt>
      <trkpt lat="40.236900" lon="-4.552617">
        <ele>1424.0</ele>
        <time>2013-07-02T14:07:50Z</time>
      </trkpt>
      <trkpt lat="40.236817" lon="-4.552517">
        <ele>1420.0</ele>
        <time>2013-07-02T14:07:51Z</time>
      </trkpt>
      <trkpt lat="40.236750" lon="-4.552400">
        <ele>1417.0</ele>
        <time>2013-07-02T14:07:52Z</time>
      </trkpt>
      <trkpt lat="40.236667" lon="-4.552300">
        <ele>1413.0</ele>
        <time>2013-07-02T14:07:53Z</time>
      </trkpt>
      <trkpt lat="40.236583" lon="-4.552200">
        <ele>1410.0</ele>
        <time>2013-07-02T14:07:54Z</time>
      </trkpt>
      <trkpt lat="40.236500" lon="-4.552100">
        <ele>1406.0</ele>
        <time>2013-07-02T14:07:55Z</time>
      </trkpt>
      <trkpt lat="40.236417" lon="-4.552017">
        <ele>1403.0</ele>
        <time>2013-07-02T14:07:56Z</time>
      </trkpt>
      <trkpt lat="40.236333" lon="-4.551917">
        <ele>1399.0</ele>
        <time>2013-07-02T14:07:57Z</time>
      </trkpt>
      <trkpt lat="40.236250" lon="-4.551817">
        <ele>1395.0</ele>
        <time>2013-07-02T14:07:58Z</time>
      </trkpt>
      <trkpt lat="40.236167" lon="-4.551733">
        <ele>1392.0</ele>
        <time>2013-07-02T14:07:59Z</time>
      </trkpt>
      <trkpt lat="40.236100" lon="-4.551633">
        <ele>1387.0</ele>
        <time>2013-07-02T14:08:00Z</time>
      </trkpt>
      <trkpt lat="40.236017" lon="-4.551533">
        <ele>1382.0</ele>
        <time>2013-07-02T14:08:01Z</time>
      </trkpt>
      <trkpt lat="40.235917" lon="-4.551417">
        <ele>1378.0</ele>
        <time>2013-07-02T14:08:02Z</time>
      </trkpt>
      <trkpt lat="40.235833" lon="-4.551300">
        <ele>1374.0</ele>
        <time>2013-07-02T14:08:03Z</time>
      </trkpt>
      <trkpt lat="40.235750" lon="-4.551167">
        <ele>1371.0</ele>
        <time>2013-07-02T14:08:04Z</time>
      </trkpt>
      <trkpt lat="40.235667" lon="-4.551050">
        <ele>1369.0</ele>
        <time>2013-07-02T14:08:05Z</time>
      </trkpt>
      <trkpt lat="40.235617" lon="-4.550933">
        <ele>1368.0</ele>
        <time>2013-07-02T14:08:06Z</time>
      </trkpt>
      <trkpt lat="40.235567" lon="-4.550833">
        <ele>1366.0</ele>
        <time>2013-07-02T14:08:07Z</time>
      </trkpt>
      <trkpt lat="40.235533" lon="-4.550717">
        <ele>1363.0</ele>
        <time>2013-07-02T14:08:08Z</time>
      </trkpt>
      <trkpt lat="40.235467" lon="-4.550583">
        <ele>1358.0</ele>
        <time>2013-07-02T14:08:09Z</time>
      </trkpt>
      <trkpt lat="40.235400" lon="-4.550467">
        <ele>1353.0</ele>
        <time>2013-07-02T14:08:10Z</time>
      </trkpt>
      <trkpt lat="40.235317" lon="-4.550333">
        <ele>1350.0</ele>
        <time>2013-07-02T14:08:11Z</time>
      </trkpt>
      <trkpt lat="40.235250" lon="-4.550217">
        <ele>1347.0</ele>
        <time>2013-07-02T14:08:12Z</time>
      </trkpt>
      <trkpt lat="40.235183" lon="-4.550100">
        <ele>1345.0</ele>
        <time>2013-07-02T14:08:13Z</time>
      </trkpt>
      <trkpt lat="40.235117" lon="-4.550000">
        <ele>1343.0</ele>
        <time>2013-07-02T14:08:14Z</time>
      </trkpt>
      <trkpt lat="40.235050" lon="-4.549900">
        <ele>1339.0</ele>
        <time>2013-07-02T14:08:15Z</time>
      </trkpt>
      <trkpt lat="40.234983" lon="-4.549783">
        <ele>1336.0</ele>
        <time>2013-07-02T14:08:16Z</time>
      </trkpt>
      <trkpt lat="40.234883" lon="-4.549667">
        <ele>1333.0</ele>
        <time>2013-07-02T14:08:17Z</time>
      </trkpt>
      <trkpt lat="40.234800" lon="-4.549567">
        <ele>1330.0</ele>
        <time>2013-07-02T14:08:18Z</time>
      </trkpt>
      <trkpt lat="40.234717" lon="-4.549467">
        <ele>1331.0</ele>
        <time>2013-07-02T14:08:19Z</time>
      </trkpt>
      <trkpt lat="40.234633" lon="-4.549367">
        <ele>1330.0</ele>
        <time>2013-07-02T14:08:20Z</time>
      </trkpt>
      <trkpt lat="40.234567" lon="-4.549267">
        <ele>1329.0</ele>
        <time>2013-07-02T14:08:21Z</time>
      </trkpt>
      <trkpt lat="40.234500" lon="-4.549167">
        <ele>1326.0</ele>
        <time>2013-07-02T14:08:22Z</time>
      </trkpt>
      <trkpt lat="40.234433" lon="-4.549067">
        <ele>1323.0</ele>
        <time>2013-07-02T14:08:23Z</time>
      </trkpt>
      <trkpt lat="40.234350" lon="-4.548967">
        <ele>1319.0</ele>
        <time>2013-07-02T14:08:24Z</time>
      </trkpt>
      <trkpt lat="40.234267" lon="-4.548867">
        <ele>1316.0</ele>
        <time>2013-07-02T14:08:25Z</time>
      </trkpt>
      <trkpt lat="40.234167" lon="-4.548750">
        <ele>1312.0</ele>
        <time>2013-07-02T14:08:26Z</time>
      </trkpt>
      <trkpt lat="40.234083" lon="-4.548650">
        <ele>1310.0</ele>
        <time>2013-07-02T14:08:27Z</time>
      </trkpt>
      <trkpt lat="40.233983" lon="-4.548550">
        <ele>1308.0</ele>
        <time>2013-07-02T14:08:28Z</time>
      </trkpt>
      <trkpt lat="40.233900" lon="-4.548433">
        <ele>1307.0</ele>
        <time>2013-07-02T14:08:29Z</time>
      </trkpt>
      <trkpt lat="40.233817" lon="-4.548333">
        <ele>1305.0</ele>
        <time>2013-07-02T14:08:30Z</time>
      </trkpt>
      <trkpt lat="40.233733" lon="-4.548233">
        <ele>1303.0</ele>
        <time>2013-07-02T14:08:31Z</time>
      </trkpt>
      <trkpt lat="40.233667" lon="-4.548117">
        <ele>1301.0</ele>
        <time>2013-07-02T14:08:32Z</time>
      </trkpt>
      <trkpt lat="40.233583" lon="-4.548017">
        <ele>1298.0</ele>
        <time>2013-07-02T14:08:33Z</time>
      </trkpt>
      <trkpt lat="40.233500" lon="-4.547883">
        <ele>1295.0</ele>
        <time>2013-07-02T14:08:34Z</time>
      </trkpt>
      <trkpt lat="40.233417" lon="-4.547767">
        <ele>1292.0</ele>
        <time>2013-07-02T14:08:35Z</time>
      </trkpt>
      <trkpt lat="40.233333" lon="-4.547633">
        <ele>1290.0</ele>
        <time>2013-07-02T14:08:36Z</time>
      </trkpt>
      <trkpt lat="40.233233" lon="-4.547517">
        <ele>1288.0</ele>
        <time>2013-07-02T14:08:37Z</time>
      </trkpt>
      <trkpt lat="40.233150" lon="-4.547400">
        <ele>1287.0</ele>
        <time>2013-07-02T14:08:38Z</time>
      </trkpt>
      <trkpt lat="40.233050" lon="-4.547300">
        <ele>1287.0</ele>
        <time>2013-07-02T14:08:39Z</time>
      </trkpt>
      <trkpt lat="40.232967" lon="-4.547183">
        <ele>1286.0</ele>
        <time>2013-07-02T14:08:40Z</time>
      </trkpt>
      <trkpt lat="40.232883" lon="-4.547067">
        <ele>1286.0</ele>
        <time>2013-07-02T14:08:41Z</time>
      </trkpt>
      <trkpt lat="40.232817" lon="-4.546950">
        <ele>1285.0</ele>
        <time>2013-07-02T14:08:42Z</time>
      </trkpt>
      <trkpt lat="40.232767" lon="-4.546850">
        <ele>1284.0</ele>
        <time>2013-07-02T14:08:43Z</time>
      </trkpt>
      <trkpt lat="40.232700" lon="-4.546750">
        <ele>1284.0</ele>
        <time>2013-07-02T14:08:44Z</time>
      </trkpt>
      <trkpt lat="40.232633" lon="-4.546650">
        <ele>1282.0</ele>
        <time>2013-07-02T14:08:45Z</time>
      </trkpt>
      <trkpt lat="40.232583" lon="-4.546533">
        <ele>1282.0</ele>
        <time>2013-07-02T14:08:46Z</time>
      </trkpt>
      <trkpt lat="40.232517" lon="-4.546417">
        <ele>1280.0</ele>
        <time>2013-07-02T14:08:47Z</time>
      </trkpt>
      <trkpt lat="40.232450" lon="-4.546267">
        <ele>1279.0</ele>
        <time>2013-07-02T14:08:48Z</time>
      </trkpt>
      <trkpt lat="40.232400" lon="-4.546117">
        <ele>1278.0</ele>
        <time>2013-07-02T14:08:49Z</time>
      </trkpt>
      <trkpt lat="40.232333" lon="-4.545967">
        <ele>1277.0</ele>
        <time>2013-07-02T14:08:50Z</time>
      </trkpt>
      <trkpt lat="40.232250" lon="-4.545850">
        <ele>1277.0</ele>
        <time>2013-07-02T14:08:51Z</time>
      </trkpt>
      <trkpt lat="40.232167" lon="-4.545733">
        <ele>1274.0</ele>
        <time>2013-07-02T14:08:52Z</time>
      </trkpt>
      <trkpt lat="40.232083" lon="-4.545633">
        <ele>1273.0</ele>
        <time>2013-07-02T14:08:53Z</time>
      </trkpt>
      <trkpt lat="40.232000" lon="-4.545533">
        <ele>1271.0</ele>
        <time>2013-07-02T14:08:54Z</time>
      </trkpt>
      <trkpt lat="40.231933" lon="-4.545433">
        <ele>1270.0</ele>
        <time>2013-07-02T14:08:55Z</time>
      </trkpt>
      <trkpt lat="40.231867" lon="-4.545333">
        <ele>1268.0</ele>
        <time>2013-07-02T14:08:56Z</time>
      </trkpt>
      <trkpt lat="40.231783" lon="-4.545217">
        <ele>1266.0</ele>
        <time>2013-07-02T14:08:57Z</time>
      </trkpt>
      <trkpt lat="40.231717" lon="-4.545117">
        <ele>1265.0</ele>
        <time>2013-07-02T14:08:58Z</time>
      </trkpt>
      <trkpt lat="40.231667" lon="-4.545000">
        <ele>1263.0</ele>
        <time>2013-07-02T14:08:59Z</time>
      </trkpt>
      <trkpt lat="40.231600" lon="-4.544867">
        <ele>1262.0</ele>
        <time>2013-07-02T14:09:00Z</time>
      </trkpt>
      <trkpt lat="40.231550" lon="-4.544750">
        <ele>1260.0</ele>
        <time>2013-07-02T14:09:01Z</time>
      </trkpt>
      <trkpt lat="40.231483" lon="-4.544633">
        <ele>1258.0</ele>
        <time>2013-07-02T14:09:02Z</time>
      </trkpt>
      <trkpt lat="40.231433" lon="-4.544533">
        <ele>1256.0</ele>
        <time>2013-07-02T14:09:03Z</time>
      </trkpt>
      <trkpt lat="40.231367" lon="-4.544417">
        <ele>1253.0</ele>
        <time>2013-07-02T14:09:04Z</time>
      </trkpt>
      <trkpt lat="40.231300" lon="-4.544300">
        <ele>1248.0</ele>
        <time>2013-07-02T14:09:05Z</time>
      </trkpt>
      <trkpt lat="40.231250" lon="-4.544167">
        <ele>1243.0</ele>
        <time>2013-07-02T14:09:06Z</time>
      </trkpt>
      <trkpt lat="40.231183" lon="-4.544017">
        <ele>1239.0</ele>
        <time>2013-07-02T14:09:07Z</time>
      </trkpt>
      <trkpt lat="40.231117" lon="-4.543850">
        <ele>1235.0</ele>
        <time>2013-07-02T14:09:08Z</time>
      </trkpt>
      <trkpt lat="40.231050" lon="-4.543700">
        <ele>1232.0</ele>
        <time>2013-07-02T14:09:09Z</time>
      </trkpt>
      <trkpt lat="40.231000" lon="-4.543550">
        <ele>1229.0</ele>
        <time>2013-07-02T14:09:10Z</time>
      </trkpt>
      <trkpt lat="40.230933" lon="-4.543383">
        <ele>1226.0</ele>
        <time>2013-07-02T14:09:11Z</time>
      </trkpt>
      <trkpt lat="40.230867" lon="-4.543233">
        <ele>1223.0</ele>
        <time>2013-07-02T14:09:12Z</time>
      </trkpt>
      <trkpt lat="40.230800" lon="-4.543083">
        <ele>1220.0</ele>
        <time>2013-07-02T14:09:13Z</time>
      </trkpt>
      <trkpt lat="40.230733" lon="-4.542933">
        <ele>1218.0</ele>
        <time>2013-07-02T14:09:14Z</time>
      </trkpt>
      <trkpt lat="40.230683" lon="-4.542783">
        <ele>1217.0</ele>
        <time>2013-07-02T14:09:15Z</time>
      </trkpt>
      <trkpt lat="40.230633" lon="-4.542633">
        <ele>1215.0</ele>
        <time>2013-07-02T14:09:16Z</time>
      </trkpt>
      <trkpt lat="40.230567" lon="-4.542500">
        <ele>1214.0</ele>
        <time>2013-07-02T14:09:17Z</time>
      </trkpt>
      <trkpt lat="40.230517" lon="-4.542383">
        <ele>1212.0</ele>
        <time>2013-07-02T14:09:18Z</time>
      </trkpt>
      <trkpt lat="40.230450" lon="-4.542250">
        <ele>1209.0</ele>
        <time>2013-07-02T14:09:19Z</time>
      </trkpt>
      <trkpt lat="40.230367" lon="-4.542117">
        <ele>1207.0</ele>
        <time>2013-07-02T14:09:20Z</time>
      </trkpt>
      <trkpt lat="40.230283" lon="-4.542000">
        <ele>1205.0</ele>
        <time>2013-07-02T14:09:21Z</time>
      </trkpt>
      <trkpt lat="40.230217" lon="-4.541883">
        <ele>1204.0</ele>
        <time>2013-07-02T14:09:22Z</time>
      </trkpt>
      <trkpt lat="40.230150" lon="-4.541783">
        <ele>1203.0</ele>
        <time>2013-07-02T14:09:23Z</time>
      </trkpt>
      <trkpt lat="40.230067" lon="-4.541717">
        <ele>1201.0</ele>
        <time>2013-07-02T14:09:24Z</time>
      </trkpt>
      <trkpt lat="40.229967" lon="-4.541617">
        <ele>1197.0</ele>
        <time>2013-07-02T14:09:25Z</time>
      </trkpt>
      <trkpt lat="40.229867" lon="-4.541500">
        <ele>1195.0</ele>
        <time>2013-07-02T14:09:26Z</time>
      </trkpt>
      <trkpt lat="40.229767" lon="-4.541367">
        <ele>1192.0</ele>
        <time>2013-07-02T14:09:27Z</time>
      </trkpt>
      <trkpt lat="40.229667" lon="-4.541233">
        <ele>1192.0</ele>
        <time>2013-07-02T14:09:28Z</time>
      </trkpt>
      <trkpt lat="40.229583" lon="-4.541133">
        <ele>1191.0</ele>
        <time>2013-07-02T14:09:29Z</time>
      </trkpt>
      <trkpt lat="40.229500" lon="-4.541050">
        <ele>1190.0</ele>
        <time>2013-07-02T14:09:30Z</time>
      </trkpt>
      <trkpt lat="40.229433" lon="-4.540950">
        <ele>1188.0</ele>
        <time>2013-07-02T14:09:31Z</time>
      </trkpt>
      <trkpt lat="40.229367" lon="-4.540833">
        <ele>1185.0</ele>
        <time>2013-07-02T14:09:32Z</time>
      </trkpt>
      <trkpt lat="40.229300" lon="-4.540717">
        <ele>1181.0</ele>
        <time>2013-07-02T14:09:33Z</time>
      </trkpt>
      <trkpt lat="40.229217" lon="-4.540600">
        <ele>1177.0</ele>
        <time>2013-07-02T14:09:34Z</time>
      </trkpt>
      <trkpt lat="40.229117" lon="-4.540483">
        <ele>1173.0</ele>
        <time>2013-07-02T14:09:35Z</time>
      </trkpt>
      <trkpt lat="40.229033" lon="-4.540383">
        <ele>1171.0</ele>
        <time>2013-07-02T14:09:36Z</time>
      </trkpt>
      <trkpt lat="40.228950" lon="-4.540283">
        <ele>1169.0</ele>
        <time>2013-07-02T14:09:37Z</time>
      </trkpt>
      <trkpt lat="40.228883" lon="-4.540200">
        <ele>1167.0</ele>
        <time>2013-07-02T14:09:38Z</time>
      </trkpt>
      <trkpt lat="40.228800" lon="-4.540117">
        <ele>1164.0</ele>
        <time>2013-07-02T14:09:39Z</time>
      </trkpt>
      <trkpt lat="40.228717" lon="-4.540017">
        <ele>1161.0</ele>
        <time>2013-07-02T14:09:40Z</time>
      </trkpt>
      <trkpt lat="40.228633" lon="-4.539917">
        <ele>1158.0</ele>
        <time>2013-07-02T14:09:41Z</time>
      </trkpt>
      <trkpt lat="40.228533" lon="-4.539850">
        <ele>1154.0</ele>
        <time>2013-07-02T14:09:42Z</time>
      </trkpt>
      <trkpt lat="40.228433" lon="-4.539767">
        <ele>1151.0</ele>
        <time>2013-07-02T14:09:43Z</time>
      </trkpt>
      <trkpt lat="40.228333" lon="-4.539667">
        <ele>1148.0</ele>
        <time>2013-07-02T14:09:44Z</time>
      </trkpt>
      <trkpt lat="40.228250" lon="-4.539567">
        <ele>1144.0</ele>
        <time>2013-07-02T14:09:45Z</time>
      </trkpt>
      <trkpt lat="40.228150" lon="-4.539467">
        <ele>1141.0</ele>
        <time>2013-07-02T14:09:46Z</time>
      </trkpt>
      <trkpt lat="40.228050" lon="-4.539383">
        <ele>1137.0</ele>
        <time>2013-07-02T14:09:47Z</time>
      </trkpt>
      <trkpt lat="40.227933" lon="-4.539267">
        <ele>1133.0</ele>
        <time>2013-07-02T14:09:48Z</time>
      </trkpt>
      <trkpt lat="40.227817" lon="-4.539167">
        <ele>1130.0</ele>
        <time>2013-07-02T14:09:49Z</time>
      </trkpt>
      <trkpt lat="40.227683" lon="-4.539033">
        <ele>1130.0</ele>
        <time>2013-07-02T14:09:50Z</time>
      </trkpt>
      <trkpt lat="40.227583" lon="-4.538917">
        <ele>1130.0</ele>
        <time>2013-07-02T14:09:51Z</time>
      </trkpt>
      <trkpt lat="40.227483" lon="-4.538817">
        <ele>1130.0</ele>
        <time>2013-07-02T14:09:52Z</time>
      </trkpt>
      <trkpt lat="40.227400" lon="-4.538733">
        <ele>1130.0</ele>
        <time>2013-07-02T14:09:53Z</time>
      </trkpt>
      <trkpt lat="40.227300" lon="-4.538633">
        <ele>1129.0</ele>
        <time>2013-07-02T14:09:54Z</time>
      </trkpt>
      <trkpt lat="40.227217" lon="-4.538550">
        <ele>1127.0</ele>
        <time>2013-07-02T14:09:55Z</time>
      </trkpt>
      <trkpt lat="40.227117" lon="-4.538450">
        <ele>1126.0</ele>
        <time>2013-07-02T14:09:56Z</time>
      </trkpt>
      <trkpt lat="40.227017" lon="-4.538350">
        <ele>1124.0</ele>
        <time>2013-07-02T14:09:57Z</time>
      </trkpt>
      <trkpt lat="40.226917" lon="-4.538250">
        <ele>1122.0</ele>
        <time>2013-07-02T14:09:58Z</time>
      </trkpt>
      <trkpt lat="40.226833" lon="-4.538150">
        <ele>1120.0</ele>
        <time>2013-07-02T14:09:59Z</time>
      </trkpt>
      <trkpt lat="40.226733" lon="-4.538050">
        <ele>1117.0</ele>
        <time>2013-07-02T14:10:00Z</time>
      </trkpt>
      <trkpt lat="40.226650" lon="-4.537933">
        <ele>1115.0</ele>
        <time>2013-07-02T14:10:01Z</time>
      </trkpt>
      <trkpt lat="40.226550" lon="-4.537833">
        <ele>1113.0</ele>
        <time>2013-07-02T14:10:02Z</time>
      </trkpt>
      <trkpt lat="40.226450" lon="-4.537700">
        <ele>1111.0</ele>
        <time>2013-07-02T14:10:03Z</time>
      </trkpt>
      <trkpt lat="40.226350" lon="-4.537583">
        <ele>1110.0</ele>
        <time>2013-07-02T14:10:04Z</time>
      </trkpt>
      <trkpt lat="40.226267" lon="-4.537467">
        <ele>1109.0</ele>
        <time>2013-07-02T14:10:05Z</time>
      </trkpt>
      <trkpt lat="40.226167" lon="-4.537350">
        <ele>1107.0</ele>
        <time>2013-07-02T14:10:06Z</time>
      </trkpt>
      <trkpt lat="40.226067" lon="-4.537250">
        <ele>1105.0</ele>
        <time>2013-07-02T14:10:07Z</time>
      </trkpt>
      <trkpt lat="40.225950" lon="-4.537133">
        <ele>1104.0</ele>
        <time>2013-07-02T14:10:08Z</time>
      </trkpt>
      <trkpt lat="40.225833" lon="-4.537000">
        <ele>1102.0</ele>
        <time>2013-07-02T14:10:09Z</time>
      </trkpt>
      <trkpt lat="40.225717" lon="-4.536883">
        <ele>1102.0</ele>
        <time>2013-07-02T14:10:10Z</time>
      </trkpt>
      <trkpt lat="40.225633" lon="-4.536767">
        <ele>1103.0</ele>
        <time>2013-07-02T14:10:11Z</time>
      </trkpt>
      <trkpt lat="40.225550" lon="-4.536667">
        <ele>1102.0</ele>
        <time>2013-07-02T14:10:12Z</time>
      </trkpt>
      <trkpt lat="40.225467" lon="-4.536583">
        <ele>1101.0</ele>
        <time>2013-07-02T14:10:13Z</time>
      </trkpt>
      <trkpt lat="40.225350" lon="-4.536467">
        <ele>1100.0</ele>
        <time>2013-07-02T14:10:14Z</time>
      </trkpt>
      <trkpt lat="40.225233" lon="-4.536333">
        <ele>1098.0</ele>
        <time>2013-07-02T14:10:15Z</time>
      </trkpt>
      <trkpt lat="40.225117" lon="-4.536183">
        <ele>1095.0</ele>
        <time>2013-07-02T14:10:16Z</time>
      </trkpt>
      <trkpt lat="40.225000" lon="-4.536050">
        <ele>1095.0</ele>
        <time>2013-07-02T14:10:17Z</time>
      </trkpt>
      <trkpt lat="40.224900" lon="-4.535933">
        <ele>1095.0</ele>
        <time>2013-07-02T14:10:18Z</time>
      </trkpt>
      <trkpt lat="40.224783" lon="-4.535833">
        <ele>1094.0</ele>
        <time>2013-07-02T14:10:19Z</time>
      </trkpt>
      <trkpt lat="40.224683" lon="-4.535733">
        <ele>1094.0</ele>
        <time>2013-07-02T14:10:20Z</time>
      </trkpt>
      <trkpt lat="40.224583" lon="-4.535633">
        <ele>1093.0</ele>
        <time>2013-07-02T14:10:21Z</time>
      </trkpt>
      <trkpt lat="40.224500" lon="-4.535517">
        <ele>1092.0</ele>
        <time>2013-07-02T14:10:22Z</time>
      </trkpt>
      <trkpt lat="40.224400" lon="-4.535383">
        <ele>1091.0</ele>
        <time>2013-07-02T14:10:23Z</time>
      </trkpt>
      <trkpt lat="40.224300" lon="-4.535267">
        <ele>1090.0</ele>
        <time>2013-07-02T14:10:24Z</time>
      </trkpt>
      <trkpt lat="40.224200" lon="-4.535167">
        <ele>1089.0</ele>
        <time>2013-07-02T14:10:25Z</time>
      </trkpt>
      <trkpt lat="40.224083" lon="-4.535050">
        <ele>1089.0</ele>
        <time>2013-07-02T14:10:26Z</time>
      </trkpt>
      <trkpt lat="40.223983" lon="-4.534933">
        <ele>1088.0</ele>
        <time>2013-07-02T14:10:27Z</time>
      </trkpt>
      <trkpt lat="40.223883" lon="-4.534817">
        <ele>1088.0</ele>
        <time>2013-07-02T14:10:28Z</time>
      </trkpt>
      <trkpt lat="40.223800" lon="-4.534683">
        <ele>1087.0</ele>
        <time>2013-07-02T14:10:29Z</time>
      </trkpt>
      <trkpt lat="40.223700" lon="-4.534550">
        <ele>1086.0</ele>
        <time>2013-07-02T14:10:30Z</time>
      </trkpt>
      <trkpt lat="40.223617" lon="-4.534417">
        <ele>1085.0</ele>
        <time>2013-07-02T14:10:31Z</time>
      </trkpt>
      <trkpt lat="40.223550" lon="-4.534300">
        <ele>1084.0</ele>
        <time>2013-07-02T14:10:32Z</time>
      </trkpt>
      <trkpt lat="40.223467" lon="-4.534167">
        <ele>1081.0</ele>
        <time>2013-07-02T14:10:33Z</time>
      </trkpt>
      <trkpt lat="40.223400" lon="-4.534017">
        <ele>1079.0</ele>
        <time>2013-07-02T14:10:34Z</time>
      </trkpt>
      <trkpt lat="40.223333" lon="-4.533850">
        <ele>1076.0</ele>
        <time>2013-07-02T14:10:35Z</time>
      </trkpt>
      <trkpt lat="40.223250" lon="-4.533683">
        <ele>1074.0</ele>
        <time>2013-07-02T14:10:36Z</time>
      </trkpt>
      <trkpt lat="40.223183" lon="-4.533517">
        <ele>1072.0</ele>
        <time>2013-07-02T14:10:37Z</time>
      </trkpt>
      <trkpt lat="40.223100" lon="-4.533367">
        <ele>1071.0</ele>
        <time>2013-07-02T14:10:38Z</time>
      </trkpt>
      <trkpt lat="40.223033" lon="-4.533217">
        <ele>1070.0</ele>
        <time>2013-07-02T14:10:39Z</time>
      </trkpt>
      <trkpt lat="40.222950" lon="-4.533067">
        <ele>1068.0</ele>
        <time>2013-07-02T14:10:40Z</time>
      </trkpt>
      <trkpt lat="40.222883" lon="-4.532900">
        <ele>1067.0</ele>
        <time>2013-07-02T14:10:41Z</time>
      </trkpt>
      <trkpt lat="40.222800" lon="-4.532750">
        <ele>1065.0</ele>
        <time>2013-07-02T14:10:42Z</time>
      </trkpt>
      <trkpt lat="40.222733" lon="-4.532600">
        <ele>1064.0</ele>
        <time>2013-07-02T14:10:43Z</time>
      </trkpt>
      <trkpt lat="40.222650" lon="-4.532433">
        <ele>1063.0</ele>
        <time>2013-07-02T14:10:44Z</time>
      </trkpt>
      <trkpt lat="40.222583" lon="-4.532267">
        <ele>1062.0</ele>
        <time>2013-07-02T14:10:45Z</time>
      </trkpt>
      <trkpt lat="40.222517" lon="-4.532100">
        <ele>1061.0</ele>
        <time>2013-07-02T14:10:46Z</time>
      </trkpt>
      <trkpt lat="40.222467" lon="-4.531933">
        <ele>1059.0</ele>
        <time>2013-07-02T14:10:47Z</time>
      </trkpt>
      <trkpt lat="40.222400" lon="-4.531767">
        <ele>1059.0</ele>
        <time>2013-07-02T14:10:48Z</time>
      </trkpt>
      <trkpt lat="40.222367" lon="-4.531583">
        <ele>1058.0</ele>
        <time>2013-07-02T14:10:49Z</time>
      </trkpt>
      <trkpt lat="40.222317" lon="-4.531400">
        <ele>1058.0</ele>
        <time>2013-07-02T14:10:50Z</time>
      </trkpt>
      <trkpt lat="40.222283" lon="-4.531233">
        <ele>1058.0</ele>
        <time>2013-07-02T14:10:51Z</time>
      </trkpt>
      <trkpt lat="40.222267" lon="-4.531067">
        <ele>1057.0</ele>
        <time>2013-07-02T14:10:52Z</time>
      </trkpt>
      <trkpt lat="40.222233" lon="-4.530883">
        <ele>1056.0</ele>
        <time>2013-07-02T14:10:53Z</time>
      </trkpt>
      <trkpt lat="40.222217" lon="-4.530717">
        <ele>1054.0</ele>
        <time>2013-07-02T14:10:54Z</time>
      </trkpt>
      <trkpt lat="40.222200" lon="-4.530533">
        <ele>1054.0</ele>
        <time>2013-07-02T14:10:55Z</time>
      </trkpt>
      <trkpt lat="40.222183" lon="-4.530367">
        <ele>1054.0</ele>
        <time>2013-07-02T14:10:56Z</time>
      </trkpt>
      <trkpt lat="40.222150" lon="-4.530200">
        <ele>1054.0</ele>
        <time>2013-07-02T14:10:57Z</time>
      </trkpt>
      <trkpt lat="40.222117" lon="-4.530033">
        <ele>1055.0</ele>
        <time>2013-07-02T14:10:58Z</time>
      </trkpt>
      <trkpt lat="40.222083" lon="-4.529900">
        <ele>1055.0</ele>
        <time>2013-07-02T14:10:59Z</time>
      </trkpt>
      <trkpt lat="40.222050" lon="-4.529767">
        <ele>1056.0</ele>
        <time>2013-07-02T14:11:00Z</time>
      </trkpt>
      <trkpt lat="40.222033" lon="-4.529633">
        <ele>1055.0</ele>
        <time>2013-07-02T14:11:01Z</time>
      </trkpt>
      <trkpt lat="40.222000" lon="-4.529500">
        <ele>1054.0</ele>
        <time>2013-07-02T14:11:02Z</time>
      </trkpt>
      <trkpt lat="40.221967" lon="-4.529367">
        <ele>1052.0</ele>
        <time>2013-07-02T14:11:03Z</time>
      </trkpt>
      <trkpt lat="40.221933" lon="-4.529200">
        <ele>1050.0</ele>
        <time>2013-07-02T14:11:04Z</time>
      </trkpt>
      <trkpt lat="40.221917" lon="-4.529017">
        <ele>1047.0</ele>
        <time>2013-07-02T14:11:05Z</time>
      </trkpt>
      <trkpt lat="40.221883" lon="-4.528817">
        <ele>1045.0</ele>
        <time>2013-07-02T14:11:06Z</time>
      </trkpt>
      <trkpt lat="40.221867" lon="-4.528633">
        <ele>1044.0</ele>
        <time>2013-07-02T14:11:07Z</time>
      </trkpt>
      <trkpt lat="40.221850" lon="-4.528450">
        <ele>1043.0</ele>
        <time>2013-07-02T14:11:08Z</time>
      </trkpt>
      <trkpt lat="40.221833" lon="-4.528267">
        <ele>1043.0</ele>
        <time>2013-07-02T14:11:09Z</time>
      </trkpt>
      <trkpt lat="40.221833" lon="-4.528067">
        <ele>1041.0</ele>
        <time>2013-07-02T14:11:10Z</time>
      </trkpt>
      <trkpt lat="40.221817" lon="-4.527883">
        <ele>1039.0</ele>
        <time>2013-07-02T14:11:11Z</time>
      </trkpt>
      <trkpt lat="40.221817" lon="-4.527683">
        <ele>1037.0</ele>
        <time>2013-07-02T14:11:12Z</time>
      </trkpt>
      <trkpt lat="40.221833" lon="-4.527483">
        <ele>1034.0</ele>
        <time>2013-07-02T14:11:13Z</time>
      </trkpt>
      <trkpt lat="40.221850" lon="-4.527267">
        <ele>1033.0</ele>
        <time>2013-07-02T14:11:14Z</time>
      </trkpt>
      <trkpt lat="40.221867" lon="-4.527083">
        <ele>1031.0</ele>
        <time>2013-07-02T14:11:15Z</time>
      </trkpt>
      <trkpt lat="40.221883" lon="-4.526883">
        <ele>1030.0</ele>
        <time>2013-07-02T14:11:16Z</time>
      </trkpt>
      <trkpt lat="40.221900" lon="-4.526700">
        <ele>1028.0</ele>
        <time>2013-07-02T14:11:17Z</time>
      </trkpt>
      <trkpt lat="40.221917" lon="-4.526517">
        <ele>1027.0</ele>
        <time>2013-07-02T14:11:18Z</time>
      </trkpt>
      <trkpt lat="40.221933" lon="-4.526317">
        <ele>1027.0</ele>
        <time>2013-07-02T14:11:19Z</time>
      </trkpt>
      <trkpt lat="40.221967" lon="-4.526117">
        <ele>1027.0</ele>
        <time>2013-07-02T14:11:20Z</time>
      </trkpt>
      <trkpt lat="40.221983" lon="-4.525933">
        <ele>1028.0</ele>
        <time>2013-07-02T14:11:21Z</time>
      </trkpt>
      <trkpt lat="40.222000" lon="-4.525767">
        <ele>1029.0</ele>
        <time>2013-07-02T14:11:22Z</time>
      </trkpt>
      <trkpt lat="40.222017" lon="-4.525617">
        <ele>1029.0</ele>
        <time>2013-07-02T14:11:23Z</time>
      </trkpt>
      <trkpt lat="40.222033" lon="-4.525467">
        <ele>1029.0</ele>
        <time>2013-07-02T14:11:24Z</time>
      </trkpt>
      <trkpt lat="40.222050" lon="-4.525317">
        <ele>1029.0</ele>
        <time>2013-07-02T14:11:25Z</time>
      </trkpt>
      <trkpt lat="40.222083" lon="-4.525183">
        <ele>1030.0</ele>
        <time>2013-07-02T14:11:26Z</time>
      </trkpt>
      <trkpt lat="40.222100" lon="-4.525050">
        <ele>1031.0</ele>
        <time>2013-07-02T14:11:27Z</time>
      </trkpt>
      <trkpt lat="40.222117" lon="-4.524900">
        <ele>1031.0</ele>
        <time>2013-07-02T14:11:28Z</time>
      </trkpt>
      <trkpt lat="40.222150" lon="-4.524767">
        <ele>1032.0</ele>
        <time>2013-07-02T14:11:29Z</time>
      </trkpt>
      <trkpt lat="40.222167" lon="-4.524633">
        <ele>1032.0</ele>
        <time>2013-07-02T14:11:30Z</time>
      </trkpt>
      <trkpt lat="40.222200" lon="-4.524517">
        <ele>1033.0</ele>
        <time>2013-07-02T14:11:31Z</time>
      </trkpt>
      <trkpt lat="40.222233" lon="-4.524383">
        <ele>1032.0</ele>
        <time>2013-07-02T14:11:32Z</time>
      </trkpt>
      <trkpt lat="40.222267" lon="-4.524250">
        <ele>1032.0</ele>
        <time>2013-07-02T14:11:33Z</time>
      </trkpt>
      <trkpt lat="40.222317" lon="-4.524117">
        <ele>1032.0</ele>
        <time>2013-07-02T14:11:34Z</time>
      </trkpt>
      <trkpt lat="40.222367" lon="-4.523967">
        <ele>1033.0</ele>
        <time>2013-07-02T14:11:35Z</time>
      </trkpt>
      <trkpt lat="40.222417" lon="-4.523817">
        <ele>1034.0</ele>
        <time>2013-07-02T14:11:36Z</time>
      </trkpt>
      <trkpt lat="40.222450" lon="-4.523667">
        <ele>1035.0</ele>
        <time>2013-07-02T14:11:37Z</time>
      </trkpt>
      <trkpt lat="40.222483" lon="-4.523533">
        <ele>1037.0</ele>
        <time>2013-07-02T14:11:38Z</time>
      </trkpt>
      <trkpt lat="40.222517" lon="-4.523400">
        <ele>1039.0</ele>
        <time>2013-07-02T14:11:39Z</time>
      </trkpt>
      <trkpt lat="40.222567" lon="-4.523283">
        <ele>1041.0</ele>
        <time>2013-07-02T14:11:40Z</time>
      </trkpt>
      <trkpt lat="40.222600" lon="-4.523183">
        <ele>1042.0</ele>
        <time>2013-07-02T14:11:41Z</time>
      </trkpt>
      <trkpt lat="40.222633" lon="-4.523100">
        <ele>1043.0</ele>
        <time>2013-07-02T14:11:42Z</time>
      </trkpt>
      <trkpt lat="40.222667" lon="-4.523017">
        <ele>1043.0</ele>
        <time>2013-07-02T14:11:43Z</time>
      </trkpt>
      <trkpt lat="40.222717" lon="-4.522933">
        <ele>1042.0</ele>
        <time>2013-07-02T14:11:44Z</time>
      </trkpt>
      <trkpt lat="40.222783" lon="-4.522850">
        <ele>1040.0</ele>
        <time>2013-07-02T14:11:45Z</time>
      </trkpt>
      <trkpt lat="40.222867" lon="-4.522783">
        <ele>1040.0</ele>
        <time>2013-07-02T14:11:46Z</time>
      </trkpt>
      <trkpt lat="40.222933" lon="-4.522733">
        <ele>1041.0</ele>
        <time>2013-07-02T14:11:47Z</time>
      </trkpt>
      <trkpt lat="40.223000" lon="-4.522717">
        <ele>1043.0</ele>
        <time>2013-07-02T14:11:48Z</time>
      </trkpt>
      <trkpt lat="40.223067" lon="-4.522717">
        <ele>1043.0</ele>
        <time>2013-07-02T14:11:49Z</time>
      </trkpt>
      <trkpt lat="40.223117" lon="-4.522750">
        <ele>1043.0</ele>
        <time>2013-07-02T14:11:50Z</time>
      </trkpt>
      <trkpt lat="40.223167" lon="-4.522800">
        <ele>1043.0</ele>
        <time>2013-07-02T14:11:51Z</time>
      </trkpt>
      <trkpt lat="40.223183" lon="-4.522850">
        <ele>1043.0</ele>
        <time>2013-07-02T14:11:52Z</time>
      </trkpt>
      <trkpt lat="40.223167" lon="-4.522900">
        <ele>1043.0</ele>
        <time>2013-07-02T14:11:53Z</time>
      </trkpt>
      <trkpt lat="40.223133" lon="-4.522933">
        <ele>1042.0</ele>
        <time>2013-07-02T14:11:54Z</time>
      </trkpt>
      <trkpt lat="40.223050" lon="-4.522933">
        <ele>1040.0</ele>
        <time>2013-07-02T14:11:55Z</time>
      </trkpt>
      <trkpt lat="40.222967" lon="-4.522917">
        <ele>1039.0</ele>
        <time>2013-07-02T14:11:56Z</time>
      </trkpt>
      <trkpt lat="40.222883" lon="-4.522833">
        <ele>1037.0</ele>
        <time>2013-07-02T14:11:57Z</time>
      </trkpt>
      <trkpt lat="40.222817" lon="-4.522717">
        <ele>1036.0</ele>
        <time>2013-07-02T14:11:58Z</time>
      </trkpt>
      <trkpt lat="40.222783" lon="-4.522550">
        <ele>1035.0</ele>
        <time>2013-07-02T14:11:59Z</time>
      </trkpt>
      <trkpt lat="40.222800" lon="-4.522400">
        <ele>1035.0</ele>
        <time>2013-07-02T14:12:00Z</time>
      </trkpt>
      <trkpt lat="40.222850" lon="-4.522250">
        <ele>1036.0</ele>
        <time>2013-07-02T14:12:01Z</time>
      </trkpt>
      <trkpt lat="40.222917" lon="-4.522150">
        <ele>1038.0</ele>
        <time>2013-07-02T14:12:02Z</time>
      </trkpt>
      <trkpt lat="40.222983" lon="-4.522067">
        <ele>1039.0</ele>
        <time>2013-07-02T14:12:03Z</time>
      </trkpt>
      <trkpt lat="40.223050" lon="-4.522000">
        <ele>1041.0</ele>
        <time>2013-07-02T14:12:04Z</time>
      </trkpt>
      <trkpt lat="40.223117" lon="-4.521933">
        <ele>1041.0</ele>
        <time>2013-07-02T14:12:05Z</time>
      </trkpt>
      <trkpt lat="40.223167" lon="-4.521867">
        <ele>1043.0</ele>
        <time>2013-07-02T14:12:06Z</time>
      </trkpt>
      <trkpt lat="40.223233" lon="-4.521833">
        <ele>1042.0</ele>
        <time>2013-07-02T14:12:07Z</time>
      </trkpt>
      <trkpt lat="40.223300" lon="-4.521817">
        <ele>1042.0</ele>
        <time>2013-07-02T14:12:08Z</time>
      </trkpt>
      <trkpt lat="40.223367" lon="-4.521833">
        <ele>1041.0</ele>
        <time>2013-07-02T14:12:09Z</time>
      </trkpt>
      <trkpt lat="40.223417" lon="-4.521867">
        <ele>1041.0</ele>
        <time>2013-07-02T14:12:10Z</time>
      </trkpt>
      <trkpt lat="40.223450" lon="-4.521917">
        <ele>1041.0</ele>
        <time>2013-07-02T14:12:11Z</time>
      </trkpt>
      <trkpt lat="40.223417" lon="-4.521967">
        <ele>1040.0</ele>
        <time>2013-07-02T14:12:12Z</time>
      </trkpt>
      <trkpt lat="40.223350" lon="-4.521950">
        <ele>1038.0</ele>
        <time>2013-07-02T14:12:13Z</time>
      </trkpt>
      <trkpt lat="40.223267" lon="-4.521900">
        <ele>1037.0</ele>
        <time>2013-07-02T14:12:14Z</time>
      </trkpt>
      <trkpt lat="40.223183" lon="-4.521800">
        <ele>1036.0</ele>
        <time>2013-07-02T14:12:15Z</time>
      </trkpt>
      <trkpt lat="40.223117" lon="-4.521650">
        <ele>1035.0</ele>
        <time>2013-07-02T14:12:16Z</time>
      </trkpt>
      <trkpt lat="40.223100" lon="-4.521467">
        <ele>1035.0</ele>
        <time>2013-07-02T14:12:17Z</time>
      </trkpt>
      <trkpt lat="40.223083" lon="-4.521300">
        <ele>1035.0</ele>
        <time>2013-07-02T14:12:18Z</time>
      </trkpt>
      <trkpt lat="40.223083" lon="-4.521150">
        <ele>1036.0</ele>
        <time>2013-07-02T14:12:19Z</time>
      </trkpt>
      <trkpt lat="40.223083" lon="-4.520983">
        <ele>1036.0</ele>
        <time>2013-07-02T14:12:20Z</time>
      </trkpt>
      <trkpt lat="40.223067" lon="-4.520833">
        <ele>1037.0</ele>
        <time>2013-07-02T14:12:21Z</time>
      </trkpt>
      <trkpt lat="40.223067" lon="-4.520683">
        <ele>1037.0</ele>
        <time>2013-07-02T14:12:22Z</time>
      </trkpt>
      <trkpt lat="40.223067" lon="-4.520533">
        <ele>1037.0</ele>
        <time>2013-07-02T14:12:23Z</time>
      </trkpt>
      <trkpt lat="40.223067" lon="-4.520383">
        <ele>1038.0</ele>
        <time>2013-07-02T14:12:24Z</time>
      </trkpt>
      <trkpt lat="40.223067" lon="-4.520217">
        <ele>1040.0</ele>
        <time>2013-07-02T14:12:25Z</time>
      </trkpt>
      <trkpt lat="40.223083" lon="-4.520083">
        <ele>1042.0</ele>
        <time>2013-07-02T14:12:26Z</time>
      </trkpt>
      <trkpt lat="40.223100" lon="-4.519950">
        <ele>1045.0</ele>
        <time>2013-07-02T14:12:27Z</time>
      </trkpt>
      <trkpt lat="40.223117" lon="-4.519833">
        <ele>1047.0</ele>
        <time>2013-07-02T14:12:28Z</time>
      </trkpt>
      <trkpt lat="40.223150" lon="-4.519733">
        <ele>1049.0</ele>
        <time>2013-07-02T14:12:29Z</time>
      </trkpt>
      <trkpt lat="40.223200" lon="-4.519600">
        <ele>1049.0</ele>
        <time>2013-07-02T14:12:30Z</time>
      </trkpt>
      <trkpt lat="40.223250" lon="-4.519500">
        <ele>1049.0</ele>
        <time>2013-07-02T14:12:31Z</time>
      </trkpt>
      <trkpt lat="40.223333" lon="-4.519417">
        <ele>1049.0</ele>
        <time>2013-07-02T14:12:32Z</time>
      </trkpt>
      <trkpt lat="40.223400" lon="-4.519383">
        <ele>1048.0</ele>
        <time>2013-07-02T14:12:33Z</time>
      </trkpt>
      <trkpt lat="40.223450" lon="-4.519400">
        <ele>1045.0</ele>
        <time>2013-07-02T14:12:34Z</time>
      </trkpt>
      <trkpt lat="40.223500" lon="-4.519467">
        <ele>1044.0</ele>
        <time>2013-07-02T14:12:35Z</time>
      </trkpt>
      <trkpt lat="40.223533" lon="-4.519533">
        <ele>1044.0</ele>
        <time>2013-07-02T14:12:36Z</time>
      </trkpt>
      <trkpt lat="40.223533" lon="-4.519583">
        <ele>1045.0</ele>
        <time>2013-07-02T14:12:37Z</time>
      </trkpt>
      <trkpt lat="40.223500" lon="-4.519633">
        <ele>1046.0</ele>
        <time>2013-07-02T14:12:38Z</time>
      </trkpt>
      <trkpt lat="40.223417" lon="-4.519650">
        <ele>1046.0</ele>
        <time>2013-07-02T14:12:39Z</time>
      </trkpt>
      <trkpt lat="40.223317" lon="-4.519617">
        <ele>1044.0</ele>
        <time>2013-07-02T14:12:40Z</time>
      </trkpt>
      <trkpt lat="40.223217" lon="-4.519517">
        <ele>1044.0</ele>
        <time>2013-07-02T14:12:41Z</time>
      </trkpt>
      <trkpt lat="40.223150" lon="-4.519383">
        <ele>1046.0</ele>
        <time>2013-07-02T14:12:42Z</time>
      </trkpt>
      <trkpt lat="40.223133" lon="-4.519233">
        <ele>1047.0</ele>
        <time>2013-07-02T14:12:43Z</time>
      </trkpt>
      <trkpt lat="40.223150" lon="-4.519067">
        <ele>1048.0</ele>
        <time>2013-07-02T14:12:44Z</time>
      </trkpt>
      <trkpt lat="40.223183" lon="-4.518933">
        <ele>1050.0</ele>
        <time>2013-07-02T14:12:45Z</time>
      </trkpt>
      <trkpt lat="40.223217" lon="-4.518833">
        <ele>1052.0</ele>
        <time>2013-07-02T14:12:46Z</time>
      </trkpt>
      <trkpt lat="40.223233" lon="-4.518733">
        <ele>1054.0</ele>
        <time>2013-07-02T14:12:47Z</time>
      </trkpt>
      <trkpt lat="40.223267" lon="-4.518633">
        <ele>1055.0</ele>
        <time>2013-07-02T14:12:48Z</time>
      </trkpt>
      <trkpt lat="40.223317" lon="-4.518567">
        <ele>1054.0</ele>
        <time>2013-07-02T14:12:49Z</time>
      </trkpt>
      <trkpt lat="40.223400" lon="-4.518500">
        <ele>1052.0</ele>
        <time>2013-07-02T14:12:50Z</time>
      </trkpt>
      <trkpt lat="40.223483" lon="-4.518500">
        <ele>1050.0</ele>
        <time>2013-07-02T14:12:51Z</time>
      </trkpt>
      <trkpt lat="40.223533" lon="-4.518533">
        <ele>1049.0</ele>
        <time>2013-07-02T14:12:52Z</time>
      </trkpt>
      <trkpt lat="40.223567" lon="-4.518600">
        <ele>1047.0</ele>
        <time>2013-07-02T14:12:53Z</time>
      </trkpt>
      <trkpt lat="40.223550" lon="-4.518667">
        <ele>1047.0</ele>
        <time>2013-07-02T14:12:54Z</time>
      </trkpt>
      <trkpt lat="40.223483" lon="-4.518717">
        <ele>1046.0</ele>
        <time>2013-07-02T14:12:55Z</time>
      </trkpt>
      <trkpt lat="40.223383" lon="-4.518683">
        <ele>1046.0</ele>
        <time>2013-07-02T14:12:56Z</time>
      </trkpt>
      <trkpt lat="40.223300" lon="-4.518533">
        <ele>1044.0</ele>
        <time>2013-07-02T14:12:57Z</time>
      </trkpt>
      <trkpt lat="40.223250" lon="-4.518367">
        <ele>1043.0</ele>
        <time>2013-07-02T14:12:58Z</time>
      </trkpt>
      <trkpt lat="40.223250" lon="-4.518183">
        <ele>1043.0</ele>
        <time>2013-07-02T14:12:59Z</time>
      </trkpt>
      <trkpt lat="40.223267" lon="-4.518017">
        <ele>1045.0</ele>
        <time>2013-07-02T14:13:00Z</time>
      </trkpt>
      <trkpt lat="40.223267" lon="-4.517867">
        <ele>1048.0</ele>
        <time>2013-07-02T14:13:01Z</time>
      </trkpt>
      <trkpt lat="40.223283" lon="-4.517750">
        <ele>1048.0</ele>
        <time>2013-07-02T14:13:02Z</time>
      </trkpt>
      <trkpt lat="40.223267" lon="-4.517617">
        <ele>1048.0</ele>
        <time>2013-07-02T14:13:03Z</time>
      </trkpt>
      <trkpt lat="40.223267" lon="-4.517483">
        <ele>1048.0</ele>
        <time>2013-07-02T14:13:04Z</time>
      </trkpt>
      <trkpt lat="40.223283" lon="-4.517333">
        <ele>1046.0</ele>
        <time>2013-07-02T14:13:05Z</time>
      </trkpt>
      <trkpt lat="40.223350" lon="-4.517200">
        <ele>1043.0</ele>
        <time>2013-07-02T14:13:06Z</time>
      </trkpt>
      <trkpt lat="40.223400" lon="-4.517083">
        <ele>1040.0</ele>
        <time>2013-07-02T14:13:07Z</time>
      </trkpt>
      <trkpt lat="40.223467" lon="-4.516950">
        <ele>1038.0</ele>
        <time>2013-07-02T14:13:08Z</time>
      </trkpt>
      <trkpt lat="40.223533" lon="-4.516833">
        <ele>1036.0</ele>
        <time>2013-07-02T14:13:09Z</time>
      </trkpt>
      <trkpt lat="40.223583" lon="-4.516683">
        <ele>1034.0</ele>
        <time>2013-07-02T14:13:10Z</time>
      </trkpt>
      <trkpt lat="40.223633" lon="-4.516550">
        <ele>1033.0</ele>
        <time>2013-07-02T14:13:11Z</time>
      </trkpt>
      <trkpt lat="40.223667" lon="-4.516400">
        <ele>1031.0</ele>
        <time>2013-07-02T14:13:12Z</time>
      </trkpt>
      <trkpt lat="40.223717" lon="-4.516267">
        <ele>1029.0</ele>
        <time>2013-07-02T14:13:13Z</time>
      </trkpt>
      <trkpt lat="40.223800" lon="-4.516117">
        <ele>1025.0</ele>
        <time>2013-07-02T14:13:14Z</time>
      </trkpt>
      <trkpt lat="40.223883" lon="-4.515950">
        <ele>1022.0</ele>
        <time>2013-07-02T14:13:15Z</time>
      </trkpt>
      <trkpt lat="40.223950" lon="-4.515783">
        <ele>1021.0</ele>
        <time>2013-07-02T14:13:16Z</time>
      </trkpt>
      <trkpt lat="40.224017" lon="-4.515633">
        <ele>1022.0</ele>
        <time>2013-07-02T14:13:17Z</time>
      </trkpt>
      <trkpt lat="40.224067" lon="-4.515483">
        <ele>1022.0</ele>
        <time>2013-07-02T14:13:18Z</time>
      </trkpt>
      <trkpt lat="40.224100" lon="-4.515350">
        <ele>1021.0</ele>
        <time>2013-07-02T14:13:19Z</time>
      </trkpt>
      <trkpt lat="40.224133" lon="-4.515200">
        <ele>1020.0</ele>
        <time>2013-07-02T14:13:20Z</time>
      </trkpt>
      <trkpt lat="40.224167" lon="-4.515050">
        <ele>1019.0</ele>
        <time>2013-07-02T14:13:21Z</time>
      </trkpt>
      <trkpt lat="40.224217" lon="-4.514917">
        <ele>1018.0</ele>
        <time>2013-07-02T14:13:22Z</time>
      </trkpt>
      <trkpt lat="40.224267" lon="-4.514767">
        <ele>1016.0</ele>
        <time>2013-07-02T14:13:23Z</time>
      </trkpt>
      <trkpt lat="40.224333" lon="-4.514600">
        <ele>1013.0</ele>
        <time>2013-07-02T14:13:24Z</time>
      </trkpt>
      <trkpt lat="40.224400" lon="-4.514433">
        <ele>1012.0</ele>
        <time>2013-07-02T14:13:25Z</time>
      </trkpt>
      <trkpt lat="40.224450" lon="-4.514267">
        <ele>1010.0</ele>
        <time>2013-07-02T14:13:26Z</time>
      </trkpt>
      <trkpt lat="40.224483" lon="-4.514100">
        <ele>1010.0</ele>
        <time>2013-07-02T14:13:27Z</time>
      </trkpt>
      <trkpt lat="40.224517" lon="-4.513950">
        <ele>1010.0</ele>
        <time>2013-07-02T14:13:28Z</time>
      </trkpt>
      <trkpt lat="40.224533" lon="-4.513817">
        <ele>1008.0</ele>
        <time>2013-07-02T14:13:29Z</time>
      </trkpt>
      <trkpt lat="40.224567" lon="-4.513667">
        <ele>1006.0</ele>
        <time>2013-07-02T14:13:30Z</time>
      </trkpt>
      <trkpt lat="40.224600" lon="-4.513517">
        <ele>1004.0</ele>
        <time>2013-07-02T14:13:31Z</time>
      </trkpt>
      <trkpt lat="40.224633" lon="-4.513350">
        <ele>1001.0</ele>
        <time>2013-07-02T14:13:32Z</time>
      </trkpt>
      <trkpt lat="40.224650" lon="-4.513200">
        <ele>998.0</ele>
        <time>2013-07-02T14:13:33Z</time>
      </trkpt>
      <trkpt lat="40.224683" lon="-4.513033">
        <ele>996.0</ele>
        <time>2013-07-02T14:13:34Z</time>
      </trkpt>
      <trkpt lat="40.224717" lon="-4.512883">
        <ele>994.0</ele>
        <time>2013-07-02T14:13:35Z</time>
      </trkpt>
      <trkpt lat="40.224750" lon="-4.512750">
        <ele>991.0</ele>
        <time>2013-07-02T14:13:36Z</time>
      </trkpt>
      <trkpt lat="40.224783" lon="-4.512600">
        <ele>988.0</ele>
        <time>2013-07-02T14:13:37Z</time>
      </trkpt>
      <trkpt lat="40.224817" lon="-4.512450">
        <ele>985.0</ele>
        <time>2013-07-02T14:13:38Z</time>
      </trkpt>
      <trkpt lat="40.224833" lon="-4.512300">
        <ele>981.0</ele>
        <time>2013-07-02T14:13:39Z</time>
      </trkpt>
      <trkpt lat="40.224867" lon="-4.512133">
        <ele>978.0</ele>
        <time>2013-07-02T14:13:40Z</time>
      </trkpt>
      <trkpt lat="40.224883" lon="-4.511967">
        <ele>975.0</ele>
        <time>2013-07-02T14:13:41Z</time>
      </trkpt>
      <trkpt lat="40.224883" lon="-4.511783">
        <ele>972.0</ele>
        <time>2013-07-02T14:13:42Z</time>
      </trkpt>
      <trkpt lat="40.224883" lon="-4.511617">
        <ele>968.0</ele>
        <time>2013-07-02T14:13:43Z</time>
      </trkpt>
      <trkpt lat="40.224900" lon="-4.511417">
        <ele>965.0</ele>
        <time>2013-07-02T14:13:44Z</time>
      </trkpt>
      <trkpt lat="40.224900" lon="-4.511233">
        <ele>962.0</ele>
        <time>2013-07-02T14:13:45Z</time>
      </trkpt>
      <trkpt lat="40.224900" lon="-4.511050">
        <ele>960.0</ele>
        <time>2013-07-02T14:13:46Z</time>
      </trkpt>
      <trkpt lat="40.224900" lon="-4.510883">
        <ele>958.0</ele>
        <time>2013-07-02T14:13:47Z</time>
      </trkpt>
      <trkpt lat="40.224900" lon="-4.510700">
        <ele>955.0</ele>
        <time>2013-07-02T14:13:48Z</time>
      </trkpt>
      <trkpt lat="40.224900" lon="-4.510517">
        <ele>951.0</ele>
        <time>2013-07-02T14:13:49Z</time>
      </trkpt>
      <trkpt lat="40.224883" lon="-4.510317">
        <ele>948.0</ele>
        <time>2013-07-02T14:13:50Z</time>
      </trkpt>
      <trkpt lat="40.224883" lon="-4.510117">
        <ele>946.0</ele>
        <time>2013-07-02T14:13:51Z</time>
      </trkpt>
      <trkpt lat="40.224867" lon="-4.509933">
        <ele>944.0</ele>
        <time>2013-07-02T14:13:52Z</time>
      </trkpt>
      <trkpt lat="40.224850" lon="-4.509767">
        <ele>942.0</ele>
        <time>2013-07-02T14:13:53Z</time>
      </trkpt>
      <trkpt lat="40.224833" lon="-4.509600">
        <ele>941.0</ele>
        <time>2013-07-02T14:13:54Z</time>
      </trkpt>
      <trkpt lat="40.224817" lon="-4.509417">
        <ele>939.0</ele>
        <time>2013-07-02T14:13:55Z</time>
      </trkpt>
      <trkpt lat="40.224800" lon="-4.509250">
        <ele>936.0</ele>
        <time>2013-07-02T14:13:56Z</time>
      </trkpt>
      <trkpt lat="40.224783" lon="-4.509067">
        <ele>933.0</ele>
        <time>2013-07-02T14:13:57Z</time>
      </trkpt>
      <trkpt lat="40.224767" lon="-4.508883">
        <ele>930.0</ele>
        <time>2013-07-02T14:13:58Z</time>
      </trkpt>
      <trkpt lat="40.224750" lon="-4.508700">
        <ele>929.0</ele>
        <time>2013-07-02T14:13:59Z</time>
      </trkpt>
      <trkpt lat="40.224733" lon="-4.508517">
        <ele>927.0</ele>
        <time>2013-07-02T14:14:00Z</time>
      </trkpt>
      <trkpt lat="40.224700" lon="-4.508350">
        <ele>925.0</ele>
        <time>2013-07-02T14:14:01Z</time>
      </trkpt>
      <trkpt lat="40.224667" lon="-4.508183">
        <ele>923.0</ele>
        <time>2013-07-02T14:14:02Z</time>
      </trkpt>
      <trkpt lat="40.224633" lon="-4.508017">
        <ele>921.0</ele>
        <time>2013-07-02T14:14:03Z</time>
      </trkpt>
      <trkpt lat="40.224600" lon="-4.507833">
        <ele>920.0</ele>
        <time>2013-07-02T14:14:04Z</time>
      </trkpt>
      <trkpt lat="40.224583" lon="-4.507633">
        <ele>918.0</ele>
        <time>2013-07-02T14:14:05Z</time>
      </trkpt>
      <trkpt lat="40.224567" lon="-4.507467">
        <ele>917.0</ele>
        <time>2013-07-02T14:14:06Z</time>
      </trkpt>
      <trkpt lat="40.224567" lon="-4.507283">
        <ele>915.0</ele>
        <time>2013-07-02T14:14:07Z</time>
      </trkpt>
      <trkpt lat="40.224533" lon="-4.507117">
        <ele>914.0</ele>
        <time>2013-07-02T14:14:08Z</time>
      </trkpt>
      <trkpt lat="40.224500" lon="-4.506950">
        <ele>913.0</ele>
        <time>2013-07-02T14:14:09Z</time>
      </trkpt>
      <trkpt lat="40.224483" lon="-4.506783">
        <ele>912.0</ele>
        <time>2013-07-02T14:14:10Z</time>
      </trkpt>
      <trkpt lat="40.224467" lon="-4.506617">
        <ele>910.0</ele>
        <time>2013-07-02T14:14:11Z</time>
      </trkpt>
      <trkpt lat="40.224450" lon="-4.506450">
        <ele>908.0</ele>
        <time>2013-07-02T14:14:12Z</time>
      </trkpt>
      <trkpt lat="40.224417" lon="-4.506267">
        <ele>905.0</ele>
        <time>2013-07-02T14:14:13Z</time>
      </trkpt>
      <trkpt lat="40.224367" lon="-4.506083">
        <ele>903.0</ele>
        <time>2013-07-02T14:14:14Z</time>
      </trkpt>
      <trkpt lat="40.224317" lon="-4.505900">
        <ele>905.0</ele>
        <time>2013-07-02T14:14:15Z</time>
      </trkpt>
      <trkpt lat="40.224300" lon="-4.505733">
        <ele>905.0</ele>
        <time>2013-07-02T14:14:16Z</time>
      </trkpt>
      <trkpt lat="40.224283" lon="-4.505567">
        <ele>905.0</ele>
        <time>2013-07-02T14:14:17Z</time>
      </trkpt>
      <trkpt lat="40.224267" lon="-4.505400">
        <ele>904.0</ele>
        <time>2013-07-02T14:14:18Z</time>
      </trkpt>
      <trkpt lat="40.224250" lon="-4.505200">
        <ele>903.0</ele>
        <time>2013-07-02T14:14:19Z</time>
      </trkpt>
      <trkpt lat="40.224233" lon="-4.505000">
        <ele>903.0</ele>
        <time>2013-07-02T14:14:20Z</time>
      </trkpt>
      <trkpt lat="40.224233" lon="-4.504800">
        <ele>902.0</ele>
        <time>2013-07-02T14:14:21Z</time>
      </trkpt>
      <trkpt lat="40.224233" lon="-4.504600">
        <ele>902.0</ele>
        <time>2013-07-02T14:14:22Z</time>
      </trkpt>
      <trkpt lat="40.224217" lon="-4.504417">
        <ele>902.0</ele>
        <time>2013-07-02T14:14:23Z</time>
      </trkpt>
      <trkpt lat="40.224217" lon="-4.504250">
        <ele>901.0</ele>
        <time>2013-07-02T14:14:24Z</time>
      </trkpt>
      <trkpt lat="40.224217" lon="-4.504067">
        <ele>901.0</ele>
        <time>2013-07-02T14:14:25Z</time>
      </trkpt>
      <trkpt lat="40.224217" lon="-4.503883">
        <ele>902.0</ele>
        <time>2013-07-02T14:14:26Z</time>
      </trkpt>
      <trkpt lat="40.224217" lon="-4.503733">
        <ele>903.0</ele>
        <time>2013-07-02T14:14:27Z</time>
      </trkpt>
      <trkpt lat="40.224200" lon="-4.503567">
        <ele>903.0</ele>
        <time>2013-07-02T14:14:28Z</time>
      </trkpt>
      <trkpt lat="40.224183" lon="-4.503400">
        <ele>903.0</ele>
        <time>2013-07-02T14:14:29Z</time>
      </trkpt>
      <trkpt lat="40.224183" lon="-4.503233">
        <ele>904.0</ele>
        <time>2013-07-02T14:14:30Z</time>
      </trkpt>
      <trkpt lat="40.224183" lon="-4.503050">
        <ele>904.0</ele>
        <time>2013-07-02T14:14:31Z</time>
      </trkpt>
      <trkpt lat="40.224200" lon="-4.502883">
        <ele>905.0</ele>
        <time>2013-07-02T14:14:32Z</time>
      </trkpt>
      <trkpt lat="40.224200" lon="-4.502717">
        <ele>906.0</ele>
        <time>2013-07-02T14:14:33Z</time>
      </trkpt>
      <trkpt lat="40.224200" lon="-4.502567">
        <ele>906.0</ele>
        <time>2013-07-02T14:14:34Z</time>
      </trkpt>
      <trkpt lat="40.224217" lon="-4.502400">
        <ele>906.0</ele>
        <time>2013-07-02T14:14:35Z</time>
      </trkpt>
      <trkpt lat="40.224217" lon="-4.502217">
        <ele>906.0</ele>
        <time>2013-07-02T14:14:36Z</time>
      </trkpt>
      <trkpt lat="40.224250" lon="-4.502050">
        <ele>906.0</ele>
        <time>2013-07-02T14:14:37Z</time>
      </trkpt>
      <trkpt lat="40.224267" lon="-4.501883">
        <ele>908.0</ele>
        <time>2013-07-02T14:14:38Z</time>
      </trkpt>
      <trkpt lat="40.224300" lon="-4.501733">
        <ele>908.0</ele>
        <time>2013-07-02T14:14:39Z</time>
      </trkpt>
      <trkpt lat="40.224333" lon="-4.501583">
        <ele>909.0</ele>
        <time>2013-07-02T14:14:40Z</time>
      </trkpt>
      <trkpt lat="40.224350" lon="-4.501433">
        <ele>910.0</ele>
        <time>2013-07-02T14:14:41Z</time>
      </trkpt>
      <trkpt lat="40.224367" lon="-4.501317">
        <ele>910.0</ele>
        <time>2013-07-02T14:14:42Z</time>
      </trkpt>
      <trkpt lat="40.224400" lon="-4.501200">
        <ele>908.0</ele>
        <time>2013-07-02T14:14:43Z</time>
      </trkpt>
      <trkpt lat="40.224417" lon="-4.501067">
        <ele>905.0</ele>
        <time>2013-07-02T14:14:44Z</time>
      </trkpt>
      <trkpt lat="40.224450" lon="-4.500917">
        <ele>902.0</ele>
        <time>2013-07-02T14:14:45Z</time>
      </trkpt>
      <trkpt lat="40.224483" lon="-4.500750">
        <ele>900.0</ele>
        <time>2013-07-02T14:14:46Z</time>
      </trkpt>
      <trkpt lat="40.224517" lon="-4.500567">
        <ele>898.0</ele>
        <time>2013-07-02T14:14:47Z</time>
      </trkpt>
      <trkpt lat="40.224533" lon="-4.500400">
        <ele>896.0</ele>
        <time>2013-07-02T14:14:48Z</time>
      </trkpt>
      <trkpt lat="40.224567" lon="-4.500233">
        <ele>895.0</ele>
        <time>2013-07-02T14:14:49Z</time>
      </trkpt>
      <trkpt lat="40.224600" lon="-4.500067">
        <ele>894.0</ele>
        <time>2013-07-02T14:14:50Z</time>
      </trkpt>
      <trkpt lat="40.224633" lon="-4.499917">
        <ele>893.0</ele>
        <time>2013-07-02T14:14:51Z</time>
      </trkpt>
      <trkpt lat="40.224683" lon="-4.499750">
        <ele>891.0</ele>
        <time>2013-07-02T14:14:52Z</time>
      </trkpt>
      <trkpt lat="40.224717" lon="-4.499600">
        <ele>890.0</ele>
        <time>2013-07-02T14:14:53Z</time>
      </trkpt>
      <trkpt lat="40.224767" lon="-4.499433">
        <ele>889.0</ele>
        <time>2013-07-02T14:14:54Z</time>
      </trkpt>
      <trkpt lat="40.224800" lon="-4.499283">
        <ele>888.0</ele>
        <time>2013-07-02T14:14:55Z</time>
      </trkpt>
      <trkpt lat="40.224817" lon="-4.499133">
        <ele>888.0</ele>
        <time>2013-07-02T14:14:56Z</time>
      </trkpt>
      <trkpt lat="40.224833" lon="-4.498983">
        <ele>888.0</ele>
        <time>2013-07-02T14:14:57Z</time>
      </trkpt>
      <trkpt lat="40.224850" lon="-4.498833">
        <ele>888.0</ele>
        <time>2013-07-02T14:14:58Z</time>
      </trkpt>
      <trkpt lat="40.224850" lon="-4.498667">
        <ele>889.0</ele>
        <time>2013-07-02T14:14:59Z</time>
      </trkpt>
      <trkpt lat="40.224867" lon="-4.498483">
        <ele>889.0</ele>
        <time>2013-07-02T14:15:00Z</time>
      </trkpt>
      <trkpt lat="40.224900" lon="-4.498317">
        <ele>891.0</ele>
        <time>2013-07-02T14:15:01Z</time>
      </trkpt>
      <trkpt lat="40.224933" lon="-4.498150">
        <ele>892.0</ele>
        <time>2013-07-02T14:15:02Z</time>
      </trkpt>
      <trkpt lat="40.224983" lon="-4.498033">
        <ele>893.0</ele>
        <time>2013-07-02T14:15:03Z</time>
      </trkpt>
      <trkpt lat="40.225033" lon="-4.497950">
        <ele>893.0</ele>
        <time>2013-07-02T14:15:04Z</time>
      </trkpt>
      <trkpt lat="40.225100" lon="-4.497883">
        <ele>893.0</ele>
        <time>2013-07-02T14:15:05Z</time>
      </trkpt>
      <trkpt lat="40.225150" lon="-4.497850">
        <ele>894.0</ele>
        <time>2013-07-02T14:15:06Z</time>
      </trkpt>
      <trkpt lat="40.225183" lon="-4.497850">
        <ele>895.0</ele>
        <time>2013-07-02T14:15:07Z</time>
      </trkpt>
      <trkpt lat="40.225217" lon="-4.497850">
        <ele>897.0</ele>
        <time>2013-07-02T14:15:08Z</time>
      </trkpt>
      <trkpt lat="40.225217" lon="-4.497883">
        <ele>897.0</ele>
        <time>2013-07-02T14:15:09Z</time>
      </trkpt>
      <trkpt lat="40.225183" lon="-4.497917">
        <ele>898.0</ele>
        <time>2013-07-02T14:15:10Z</time>
      </trkpt>
      <trkpt lat="40.225117" lon="-4.497933">
        <ele>900.0</ele>
        <time>2013-07-02T14:15:11Z</time>
      </trkpt>
      <trkpt lat="40.225033" lon="-4.497900">
        <ele>901.0</ele>
        <time>2013-07-02T14:15:12Z</time>
      </trkpt>
      <trkpt lat="40.224933" lon="-4.497833">
        <ele>901.0</ele>
        <time>2013-07-02T14:15:13Z</time>
      </trkpt>
      <trkpt lat="40.224850" lon="-4.497700">
        <ele>902.0</ele>
        <time>2013-07-02T14:15:14Z</time>
      </trkpt>
      <trkpt lat="40.224800" lon="-4.497550">
        <ele>902.0</ele>
        <time>2013-07-02T14:15:15Z</time>
      </trkpt>
      <trkpt lat="40.224767" lon="-4.497367">
        <ele>902.0</ele>
        <time>2013-07-02T14:15:16Z</time>
      </trkpt>
      <trkpt lat="40.224767" lon="-4.497183">
        <ele>902.0</ele>
        <time>2013-07-02T14:15:17Z</time>
      </trkpt>
      <trkpt lat="40.224817" lon="-4.497017">
        <ele>903.0</ele>
        <time>2013-07-02T14:15:18Z</time>
      </trkpt>
      <trkpt lat="40.224883" lon="-4.496867">
        <ele>904.0</ele>
        <time>2013-07-02T14:15:19Z</time>
      </trkpt>
      <trkpt lat="40.224950" lon="-4.496767">
        <ele>905.0</ele>
        <time>2013-07-02T14:15:20Z</time>
      </trkpt>
      <trkpt lat="40.225017" lon="-4.496700">
        <ele>906.0</ele>
        <time>2013-07-02T14:15:21Z</time>
      </trkpt>
      <trkpt lat="40.225067" lon="-4.496700">
        <ele>906.0</ele>
        <time>2013-07-02T14:15:22Z</time>
      </trkpt>
      <trkpt lat="40.225100" lon="-4.496733">
        <ele>906.0</ele>
        <time>2013-07-02T14:15:23Z</time>
      </trkpt>
      <trkpt lat="40.225083" lon="-4.496800">
        <ele>907.0</ele>
        <time>2013-07-02T14:15:24Z</time>
      </trkpt>
      <trkpt lat="40.225033" lon="-4.496833">
        <ele>909.0</ele>
        <time>2013-07-02T14:15:25Z</time>
      </trkpt>
      <trkpt lat="40.224967" lon="-4.496817">
        <ele>911.0</ele>
        <time>2013-07-02T14:15:26Z</time>
      </trkpt>
      <trkpt lat="40.224883" lon="-4.496750">
        <ele>912.0</ele>
        <time>2013-07-02T14:15:27Z</time>
      </trkpt>
      <trkpt lat="40.224817" lon="-4.496650">
        <ele>914.0</ele>
        <time>2013-07-02T14:15:28Z</time>
      </trkpt>
      <trkpt lat="40.224733" lon="-4.496533">
        <ele>916.0</ele>
        <time>2013-07-02T14:15:29Z</time>
      </trkpt>
      <trkpt lat="40.224683" lon="-4.496417">
        <ele>917.0</ele>
        <time>2013-07-02T14:15:30Z</time>
      </trkpt>
      <trkpt lat="40.224633" lon="-4.496267">
        <ele>917.0</ele>
        <time>2013-07-02T14:15:31Z</time>
      </trkpt>
      <trkpt lat="40.224600" lon="-4.496083">
        <ele>917.0</ele>
        <time>2013-07-02T14:15:32Z</time>
      </trkpt>
      <trkpt lat="40.224600" lon="-4.495883">
        <ele>916.0</ele>
        <time>2013-07-02T14:15:33Z</time>
      </trkpt>
      <trkpt lat="40.224650" lon="-4.495700">
        <ele>916.0</ele>
        <time>2013-07-02T14:15:34Z</time>
      </trkpt>
      <trkpt lat="40.224717" lon="-4.495533">
        <ele>915.0</ele>
        <time>2013-07-02T14:15:35Z</time>
      </trkpt>
      <trkpt lat="40.224800" lon="-4.495417">
        <ele>914.0</ele>
        <time>2013-07-02T14:15:36Z</time>
      </trkpt>
      <trkpt lat="40.224900" lon="-4.495350">
        <ele>915.0</ele>
        <time>2013-07-02T14:15:37Z</time>
      </trkpt>
      <trkpt lat="40.225017" lon="-4.495317">
        <ele>915.0</ele>
        <time>2013-07-02T14:15:38Z</time>
      </trkpt>
      <trkpt lat="40.225100" lon="-4.495317">
        <ele>918.0</ele>
        <time>2013-07-02T14:15:39Z</time>
      </trkpt>
      <trkpt lat="40.225150" lon="-4.495333">
        <ele>920.0</ele>
        <time>2013-07-02T14:15:40Z</time>
      </trkpt>
      <trkpt lat="40.225167" lon="-4.495350">
        <ele>922.0</ele>
        <time>2013-07-02T14:15:41Z</time>
      </trkpt>
      <trkpt lat="40.225167" lon="-4.495383">
        <ele>923.0</ele>
        <time>2013-07-02T14:15:42Z</time>
      </trkpt>
      <trkpt lat="40.225133" lon="-4.495417">
        <ele>924.0</ele>
        <time>2013-07-02T14:15:43Z</time>
      </trkpt>
      <trkpt lat="40.225067" lon="-4.495433">
        <ele>925.0</ele>
        <time>2013-07-02T14:15:44Z</time>
      </trkpt>
      <trkpt lat="40.225000" lon="-4.495417">
        <ele>927.0</ele>
        <time>2013-07-02T14:15:45Z</time>
      </trkpt>
      <trkpt lat="40.224917" lon="-4.495333">
        <ele>927.0</ele>
        <time>2013-07-02T14:15:46Z</time>
      </trkpt>
      <trkpt lat="40.224867" lon="-4.495183">
        <ele>927.0</ele>
        <time>2013-07-02T14:15:47Z</time>
      </trkpt>
      <trkpt lat="40.224850" lon="-4.495000">
        <ele>927.0</ele>
        <time>2013-07-02T14:15:48Z</time>
      </trkpt>
      <trkpt lat="40.224883" lon="-4.494800">
        <ele>928.0</ele>
        <time>2013-07-02T14:15:49Z</time>
      </trkpt>
      <trkpt lat="40.224950" lon="-4.494650">
        <ele>929.0</ele>
        <time>2013-07-02T14:15:50Z</time>
      </trkpt>
      <trkpt lat="40.225050" lon="-4.494550">
        <ele>930.0</ele>
        <time>2013-07-02T14:15:51Z</time>
      </trkpt>
      <trkpt lat="40.225150" lon="-4.494500">
        <ele>932.0</ele>
        <time>2013-07-02T14:15:52Z</time>
      </trkpt>
      <trkpt lat="40.225233" lon="-4.494483">
        <ele>935.0</ele>
        <time>2013-07-02T14:15:53Z</time>
      </trkpt>
      <trkpt lat="40.225300" lon="-4.494500">
        <ele>937.0</ele>
        <time>2013-07-02T14:15:54Z</time>
      </trkpt>
      <trkpt lat="40.225333" lon="-4.494517">
        <ele>940.0</ele>
        <time>2013-07-02T14:15:55Z</time>
      </trkpt>
      <trkpt lat="40.225350" lon="-4.494550">
        <ele>942.0</ele>
        <time>2013-07-02T14:15:56Z</time>
      </trkpt>
      <trkpt lat="40.225333" lon="-4.494583">
        <ele>944.0</ele>
        <time>2013-07-02T14:15:57Z</time>
      </trkpt>
      <trkpt lat="40.225283" lon="-4.494617">
        <ele>944.0</ele>
        <time>2013-07-02T14:15:58Z</time>
      </trkpt>
      <trkpt lat="40.225200" lon="-4.494633">
        <ele>945.0</ele>
        <time>2013-07-02T14:15:59Z</time>
      </trkpt>
      <trkpt lat="40.225100" lon="-4.494583">
        <ele>946.0</ele>
        <time>2013-07-02T14:16:00Z</time>
      </trkpt>
      <trkpt lat="40.225017" lon="-4.494467">
        <ele>948.0</ele>
        <time>2013-07-02T14:16:01Z</time>
      </trkpt>
      <trkpt lat="40.224983" lon="-4.494317">
        <ele>950.0</ele>
        <time>2013-07-02T14:16:02Z</time>
      </trkpt>
      <trkpt lat="40.224983" lon="-4.494133">
        <ele>951.0</ele>
        <time>2013-07-02T14:16:03Z</time>
      </trkpt>
      <trkpt lat="40.225033" lon="-4.494000">
        <ele>953.0</ele>
        <time>2013-07-02T14:16:04Z</time>
      </trkpt>
      <trkpt lat="40.225100" lon="-4.493867">
        <ele>954.0</ele>
        <time>2013-07-02T14:16:05Z</time>
      </trkpt>
      <trkpt lat="40.225183" lon="-4.493767">
        <ele>957.0</ele>
        <time>2013-07-02T14:16:06Z</time>
      </trkpt>
      <trkpt lat="40.225250" lon="-4.493683">
        <ele>960.0</ele>
        <time>2013-07-02T14:16:07Z</time>
      </trkpt>
      <trkpt lat="40.225317" lon="-4.493617">
        <ele>962.0</ele>
        <time>2013-07-02T14:16:08Z</time>
      </trkpt>
      <trkpt lat="40.225383" lon="-4.493600">
        <ele>965.0</ele>
        <time>2013-07-02T14:16:09Z</time>
      </trkpt>
      <trkpt lat="40.225433" lon="-4.493583">
        <ele>967.0</ele>
        <time>2013-07-02T14:16:10Z</time>
      </trkpt>
      <trkpt lat="40.225467" lon="-4.493600">
        <ele>968.0</ele>
        <time>2013-07-02T14:16:11Z</time>
      </trkpt>
      <trkpt lat="40.225483" lon="-4.493633">
        <ele>970.0</ele>
        <time>2013-07-02T14:16:12Z</time>
      </trkpt>
      <trkpt lat="40.225483" lon="-4.493667">
        <ele>972.0</ele>
        <time>2013-07-02T14:16:13Z</time>
      </trkpt>
      <trkpt lat="40.225467" lon="-4.493683">
        <ele>973.0</ele>
        <time>2013-07-02T14:16:14Z</time>
      </trkpt>
      <trkpt lat="40.225417" lon="-4.493700">
        <ele>974.0</ele>
        <time>2013-07-02T14:16:15Z</time>
      </trkpt>
      <trkpt lat="40.225333" lon="-4.493683">
        <ele>974.0</ele>
        <time>2013-07-02T14:16:16Z</time>
      </trkpt>
      <trkpt lat="40.225233" lon="-4.493600">
        <ele>975.0</ele>
        <time>2013-07-02T14:16:17Z</time>
      </trkpt>
      <trkpt lat="40.225150" lon="-4.493467">
        <ele>975.0</ele>
        <time>2013-07-02T14:16:18Z</time>
      </trkpt>
      <trkpt lat="40.225100" lon="-4.493300">
        <ele>977.0</ele>
        <time>2013-07-02T14:16:19Z</time>
      </trkpt>
      <trkpt lat="40.225117" lon="-4.493133">
        <ele>978.0</ele>
        <time>2013-07-02T14:16:20Z</time>
      </trkpt>
      <trkpt lat="40.225183" lon="-4.493017">
        <ele>980.0</ele>
        <time>2013-07-02T14:16:21Z</time>
      </trkpt>
      <trkpt lat="40.225267" lon="-4.492917">
        <ele>982.0</ele>
        <time>2013-07-02T14:16:22Z</time>
      </trkpt>
      <trkpt lat="40.225333" lon="-4.492833">
        <ele>985.0</ele>
        <time>2013-07-02T14:16:23Z</time>
      </trkpt>
      <trkpt lat="40.225400" lon="-4.492767">
        <ele>988.0</ele>
        <time>2013-07-02T14:16:24Z</time>
      </trkpt>
      <trkpt lat="40.225450" lon="-4.492700">
        <ele>991.0</ele>
        <time>2013-07-02T14:16:25Z</time>
      </trkpt>
      <trkpt lat="40.225500" lon="-4.492650">
        <ele>993.0</ele>
        <time>2013-07-02T14:16:26Z</time>
      </trkpt>
      <trkpt lat="40.225567" lon="-4.492600">
        <ele>995.0</ele>
        <time>2013-07-02T14:16:27Z</time>
      </trkpt>
      <trkpt lat="40.225600" lon="-4.492583">
        <ele>996.0</ele>
        <time>2013-07-02T14:16:28Z</time>
      </trkpt>
      <trkpt lat="40.225633" lon="-4.492600">
        <ele>996.0</ele>
        <time>2013-07-02T14:16:29Z</time>
      </trkpt>
      <trkpt lat="40.225617" lon="-4.492617">
        <ele>996.0</ele>
        <time>2013-07-02T14:16:30Z</time>
      </trkpt>
      <trkpt lat="40.225567" lon="-4.492633">
        <ele>996.0</ele>
        <time>2013-07-02T14:16:31Z</time>
      </trkpt>
      <trkpt lat="40.225483" lon="-4.492633">
        <ele>996.0</ele>
        <time>2013-07-02T14:16:32Z</time>
      </trkpt>
      <trkpt lat="40.225383" lon="-4.492583">
        <ele>995.0</ele>
        <time>2013-07-02T14:16:33Z</time>
      </trkpt>
      <trkpt lat="40.225283" lon="-4.492467">
        <ele>995.0</ele>
        <time>2013-07-02T14:16:34Z</time>
      </trkpt>
      <trkpt lat="40.225217" lon="-4.492300">
        <ele>996.0</ele>
        <time>2013-07-02T14:16:35Z</time>
      </trkpt>
      <trkpt lat="40.225200" lon="-4.492117">
        <ele>997.0</ele>
        <time>2013-07-02T14:16:36Z</time>
      </trkpt>
      <trkpt lat="40.225233" lon="-4.491983">
        <ele>999.0</ele>
        <time>2013-07-02T14:16:37Z</time>
      </trkpt>
      <trkpt lat="40.225283" lon="-4.491850">
        <ele>1000.0</ele>
        <time>2013-07-02T14:16:38Z</time>
      </trkpt>
      <trkpt lat="40.225333" lon="-4.491767">
        <ele>1002.0</ele>
        <time>2013-07-02T14:16:39Z</time>
      </trkpt>
      <trkpt lat="40.225383" lon="-4.491700">
        <ele>1003.0</ele>
        <time>2013-07-02T14:16:40Z</time>
      </trkpt>
      <trkpt lat="40.225417" lon="-4.491667">
        <ele>1003.0</ele>
        <time>2013-07-02T14:16:41Z</time>
      </trkpt>
      <trkpt lat="40.225467" lon="-4.491650">
        <ele>1004.0</ele>
        <time>2013-07-02T14:16:42Z</time>
      </trkpt>
      <trkpt lat="40.225483" lon="-4.491683">
        <ele>1004.0</ele>
        <time>2013-07-02T14:16:43Z</time>
      </trkpt>
      <trkpt lat="40.225467" lon="-4.491733">
        <ele>1004.0</ele>
        <time>2013-07-02T14:16:44Z</time>
      </trkpt>
      <trkpt lat="40.225450" lon="-4.491783">
        <ele>1004.0</ele>
        <time>2013-07-02T14:16:45Z</time>
      </trkpt>
      <trkpt lat="40.225383" lon="-4.491800">
        <ele>1005.0</ele>
        <time>2013-07-02T14:16:46Z</time>
      </trkpt>
      <trkpt lat="40.225300" lon="-4.491800">
        <ele>1004.0</ele>
        <time>2013-07-02T14:16:47Z</time>
      </trkpt>
      <trkpt lat="40.225183" lon="-4.491733">
        <ele>1005.0</ele>
        <time>2013-07-02T14:16:48Z</time>
      </trkpt>
      <trkpt lat="40.225100" lon="-4.491617">
        <ele>1007.0</ele>
        <time>2013-07-02T14:16:49Z</time>
      </trkpt>
      <trkpt lat="40.225067" lon="-4.491450">
        <ele>1010.0</ele>
        <time>2013-07-02T14:16:50Z</time>
      </trkpt>
      <trkpt lat="40.225067" lon="-4.491283">
        <ele>1013.0</ele>
        <time>2013-07-02T14:16:51Z</time>
      </trkpt>
      <trkpt lat="40.225100" lon="-4.491117">
        <ele>1015.0</ele>
        <time>2013-07-02T14:16:52Z</time>
      </trkpt>
      <trkpt lat="40.225150" lon="-4.490983">
        <ele>1017.0</ele>
        <time>2013-07-02T14:16:53Z</time>
      </trkpt>
      <trkpt lat="40.225217" lon="-4.490883">
        <ele>1019.0</ele>
        <time>2013-07-02T14:16:54Z</time>
      </trkpt>
      <trkpt lat="40.225267" lon="-4.490833">
        <ele>1021.0</ele>
        <time>2013-07-02T14:16:55Z</time>
      </trkpt>
      <trkpt lat="40.225300" lon="-4.490817">
        <ele>1023.0</ele>
        <time>2013-07-02T14:16:56Z</time>
      </trkpt>
      <trkpt lat="40.225333" lon="-4.490817">
        <ele>1025.0</ele>
        <time>2013-07-02T14:16:57Z</time>
      </trkpt>
      <trkpt lat="40.225367" lon="-4.490800">
        <ele>1026.0</ele>
        <time>2013-07-02T14:16:58Z</time>
      </trkpt>
      <trkpt lat="40.225383" lon="-4.490800">
        <ele>1026.0</ele>
        <time>2013-07-02T14:16:59Z</time>
      </trkpt>
      <trkpt lat="40.225383" lon="-4.490817">
        <ele>1026.0</ele>
        <time>2013-07-02T14:17:00Z</time>
      </trkpt>
      <trkpt lat="40.225367" lon="-4.490850">
        <ele>1024.0</ele>
        <time>2013-07-02T14:17:01Z</time>
      </trkpt>
      <trkpt lat="40.225300" lon="-4.490867">
        <ele>1022.0</ele>
        <time>2013-07-02T14:17:02Z</time>
      </trkpt>
      <trkpt lat="40.225167" lon="-4.490867">
        <ele>1022.0</ele>
        <time>2013-07-02T14:17:03Z</time>
      </trkpt>
      <trkpt lat="40.225050" lon="-4.490783">
        <ele>1026.0</ele>
        <time>2013-07-02T14:17:04Z</time>
      </trkpt>
      <trkpt lat="40.224983" lon="-4.490650">
        <ele>1028.0</ele>
        <time>2013-07-02T14:17:05Z</time>
      </trkpt>
      <trkpt lat="40.224950" lon="-4.490483">
        <ele>1028.0</ele>
        <time>2013-07-02T14:17:06Z</time>
      </trkpt>
      <trkpt lat="40.224933" lon="-4.490317">
        <ele>1029.0</ele>
        <time>2013-07-02T14:17:07Z</time>
      </trkpt>
      <trkpt lat="40.224917" lon="-4.490150">
        <ele>1029.0</ele>
        <time>2013-07-02T14:17:08Z</time>
      </trkpt>
      <trkpt lat="40.224900" lon="-4.489967">
        <ele>1030.0</ele>
        <time>2013-07-02T14:17:09Z</time>
      </trkpt>
      <trkpt lat="40.224900" lon="-4.489783">
        <ele>1030.0</ele>
        <time>2013-07-02T14:17:10Z</time>
      </trkpt>
      <trkpt lat="40.224933" lon="-4.489600">
        <ele>1031.0</ele>
        <time>2013-07-02T14:17:11Z</time>
      </trkpt>
      <trkpt lat="40.225017" lon="-4.489467">
        <ele>1031.0</ele>
        <time>2013-07-02T14:17:12Z</time>
      </trkpt>
      <trkpt lat="40.225100" lon="-4.489400">
        <ele>1030.0</ele>
        <time>2013-07-02T14:17:13Z</time>
      </trkpt>
      <trkpt lat="40.225167" lon="-4.489367">
        <ele>1031.0</ele>
        <time>2013-07-02T14:17:14Z</time>
      </trkpt>
      <trkpt lat="40.225200" lon="-4.489367">
        <ele>1032.0</ele>
        <time>2013-07-02T14:17:15Z</time>
      </trkpt>
      <trkpt lat="40.225200" lon="-4.489367">
        <ele>1033.0</ele>
        <time>2013-07-02T14:17:16Z</time>
      </trkpt>
      <trkpt lat="40.225183" lon="-4.489400">
        <ele>1033.0</ele>
        <time>2013-07-02T14:17:17Z</time>
      </trkpt>
      <trkpt lat="40.225167" lon="-4.489417">
        <ele>1033.0</ele>
        <time>2013-07-02T14:17:18Z</time>
      </trkpt>
      <trkpt lat="40.225133" lon="-4.489433">
        <ele>1035.0</ele>
        <time>2013-07-02T14:17:19Z</time>
      </trkpt>
      <trkpt lat="40.225083" lon="-4.489400">
        <ele>1035.0</ele>
        <time>2013-07-02T14:17:20Z</time>
      </trkpt>
      <trkpt lat="40.225000" lon="-4.489367">
        <ele>1034.0</ele>
        <time>2013-07-02T14:17:21Z</time>
      </trkpt>
      <trkpt lat="40.224933" lon="-4.489283">
        <ele>1033.0</ele>
        <time>2013-07-02T14:17:22Z</time>
      </trkpt>
      <trkpt lat="40.224850" lon="-4.489217">
        <ele>1033.0</ele>
        <time>2013-07-02T14:17:23Z</time>
      </trkpt>
      <trkpt lat="40.224767" lon="-4.489133">
        <ele>1035.0</ele>
        <time>2013-07-02T14:17:24Z</time>
      </trkpt>
      <trkpt lat="40.224700" lon="-4.489017">
        <ele>1039.0</ele>
        <time>2013-07-02T14:17:25Z</time>
      </trkpt>
      <trkpt lat="40.224667" lon="-4.488900">
        <ele>1042.0</ele>
        <time>2013-07-02T14:17:26Z</time>
      </trkpt>
      <trkpt lat="40.224650" lon="-4.488767">
        <ele>1043.0</ele>
        <time>2013-07-02T14:17:27Z</time>
      </trkpt>
      <trkpt lat="40.224633" lon="-4.488600">
        <ele>1044.0</ele>
        <time>2013-07-02T14:17:28Z</time>
      </trkpt>
      <trkpt lat="40.224633" lon="-4.488417">
        <ele>1044.0</ele>
        <time>2013-07-02T14:17:29Z</time>
      </trkpt>
      <trkpt lat="40.224650" lon="-4.488250">
        <ele>1046.0</ele>
        <time>2013-07-02T14:17:30Z</time>
      </trkpt>
      <trkpt lat="40.224700" lon="-4.488100">
        <ele>1048.0</ele>
        <time>2013-07-02T14:17:31Z</time>
      </trkpt>
      <trkpt lat="40.224750" lon="-4.487983">
        <ele>1050.0</ele>
        <time>2013-07-02T14:17:32Z</time>
      </trkpt>
      <trkpt lat="40.224817" lon="-4.487900">
        <ele>1052.0</ele>
        <time>2013-07-02T14:17:33Z</time>
      </trkpt>
      <trkpt lat="40.224883" lon="-4.487850">
        <ele>1054.0</ele>
        <time>2013-07-02T14:17:34Z</time>
      </trkpt>
      <trkpt lat="40.224950" lon="-4.487800">
        <ele>1055.0</ele>
        <time>2013-07-02T14:17:35Z</time>
      </trkpt>
      <trkpt lat="40.225000" lon="-4.487783">
        <ele>1057.0</ele>
        <time>2013-07-02T14:17:36Z</time>
      </trkpt>
      <trkpt lat="40.225033" lon="-4.487783">
        <ele>1058.0</ele>
        <time>2013-07-02T14:17:37Z</time>
      </trkpt>
      <trkpt lat="40.225050" lon="-4.487817">
        <ele>1059.0</ele>
        <time>2013-07-02T14:17:38Z</time>
      </trkpt>
      <trkpt lat="40.225067" lon="-4.487867">
        <ele>1060.0</ele>
        <time>2013-07-02T14:17:39Z</time>
      </trkpt>
      <trkpt lat="40.225033" lon="-4.487917">
        <ele>1060.0</ele>
        <time>2013-07-02T14:17:40Z</time>
      </trkpt>
      <trkpt lat="40.224983" lon="-4.487917">
        <ele>1062.0</ele>
        <time>2013-07-02T14:17:41Z</time>
      </trkpt>
      <trkpt lat="40.224917" lon="-4.487883">
        <ele>1062.0</ele>
        <time>2013-07-02T14:17:42Z</time>
      </trkpt>
      <trkpt lat="40.224850" lon="-4.487783">
        <ele>1063.0</ele>
        <time>2013-07-02T14:17:43Z</time>
      </trkpt>
      <trkpt lat="40.224783" lon="-4.487667">
        <ele>1066.0</ele>
        <time>2013-07-02T14:17:44Z</time>
      </trkpt>
      <trkpt lat="40.224750" lon="-4.487533">
        <ele>1068.0</ele>
        <time>2013-07-02T14:17:45Z</time>
      </trkpt>
      <trkpt lat="40.224717" lon="-4.487400">
        <ele>1069.0</ele>
        <time>2013-07-02T14:17:46Z</time>
      </trkpt>
      <trkpt lat="40.224683" lon="-4.487267">
        <ele>1069.0</ele>
        <time>2013-07-02T14:17:47Z</time>
      </trkpt>
      <trkpt lat="40.224650" lon="-4.487133">
        <ele>1070.0</ele>
        <time>2013-07-02T14:17:48Z</time>
      </trkpt>
      <trkpt lat="40.224617" lon="-4.486967">
        <ele>1071.0</ele>
        <time>2013-07-02T14:17:49Z</time>
      </trkpt>
      <trkpt lat="40.224600" lon="-4.486817">
        <ele>1073.0</ele>
        <time>2013-07-02T14:17:50Z</time>
      </trkpt>
      <trkpt lat="40.224633" lon="-4.486667">
        <ele>1075.0</ele>
        <time>2013-07-02T14:17:51Z</time>
      </trkpt>
      <trkpt lat="40.224667" lon="-4.486550">
        <ele>1077.0</ele>
        <time>2013-07-02T14:17:52Z</time>
      </trkpt>
      <trkpt lat="40.224733" lon="-4.486450">
        <ele>1078.0</ele>
        <time>2013-07-02T14:17:53Z</time>
      </trkpt>
      <trkpt lat="40.224783" lon="-4.486383">
        <ele>1080.0</ele>
        <time>2013-07-02T14:17:54Z</time>
      </trkpt>
      <trkpt lat="40.224850" lon="-4.486367">
        <ele>1080.0</ele>
        <time>2013-07-02T14:17:55Z</time>
      </trkpt>
      <trkpt lat="40.224917" lon="-4.486350">
        <ele>1081.0</ele>
        <time>2013-07-02T14:17:56Z</time>
      </trkpt>
      <trkpt lat="40.224967" lon="-4.486333">
        <ele>1083.0</ele>
        <time>2013-07-02T14:17:57Z</time>
      </trkpt>
      <trkpt lat="40.225017" lon="-4.486317">
        <ele>1086.0</ele>
        <time>2013-07-02T14:17:58Z</time>
      </trkpt>
      <trkpt lat="40.225050" lon="-4.486317">
        <ele>1087.0</ele>
        <time>2013-07-02T14:17:59Z</time>
      </trkpt>
      <trkpt lat="40.225050" lon="-4.486333">
        <ele>1088.0</ele>
        <time>2013-07-02T14:18:00Z</time>
      </trkpt>
      <trkpt lat="40.225033" lon="-4.486367">
        <ele>1089.0</ele>
        <time>2013-07-02T14:18:01Z</time>
      </trkpt>
      <trkpt lat="40.224983" lon="-4.486383">
        <ele>1089.0</ele>
        <time>2013-07-02T14:18:02Z</time>
      </trkpt>
      <trkpt lat="40.224917" lon="-4.486350">
        <ele>1090.0</ele>
        <time>2013-07-02T14:18:03Z</time>
      </trkpt>
      <trkpt lat="40.224850" lon="-4.486283">
        <ele>1091.0</ele>
        <time>2013-07-02T14:18:04Z</time>
      </trkpt>
      <trkpt lat="40.224783" lon="-4.486183">
        <ele>1092.0</ele>
        <time>2013-07-02T14:18:05Z</time>
      </trkpt>
      <trkpt lat="40.224717" lon="-4.486033">
        <ele>1093.0</ele>
        <time>2013-07-02T14:18:06Z</time>
      </trkpt>
      <trkpt lat="40.224683" lon="-4.485883">
        <ele>1093.0</ele>
        <time>2013-07-02T14:18:07Z</time>
      </trkpt>
      <trkpt lat="40.224683" lon="-4.485700">
        <ele>1094.0</ele>
        <time>2013-07-02T14:18:08Z</time>
      </trkpt>
      <trkpt lat="40.224700" lon="-4.485550">
        <ele>1095.0</ele>
        <time>2013-07-02T14:18:09Z</time>
      </trkpt>
      <trkpt lat="40.224733" lon="-4.485417">
        <ele>1097.0</ele>
        <time>2013-07-02T14:18:10Z</time>
      </trkpt>
      <trkpt lat="40.224783" lon="-4.485300">
        <ele>1099.0</ele>
        <time>2013-07-02T14:18:11Z</time>
      </trkpt>
      <trkpt lat="40.224817" lon="-4.485200">
        <ele>1101.0</ele>
        <time>2013-07-02T14:18:12Z</time>
      </trkpt>
      <trkpt lat="40.224883" lon="-4.485117">
        <ele>1103.0</ele>
        <time>2013-07-02T14:18:13Z</time>
      </trkpt>
      <trkpt lat="40.224933" lon="-4.485067">
        <ele>1103.0</ele>
        <time>2013-07-02T14:18:14Z</time>
      </trkpt>
      <trkpt lat="40.225000" lon="-4.485067">
        <ele>1104.0</ele>
        <time>2013-07-02T14:18:15Z</time>
      </trkpt>
      <trkpt lat="40.225050" lon="-4.485100">
        <ele>1105.0</ele>
        <time>2013-07-02T14:18:16Z</time>
      </trkpt>
      <trkpt lat="40.225067" lon="-4.485133">
        <ele>1108.0</ele>
        <time>2013-07-02T14:18:17Z</time>
      </trkpt>
      <trkpt lat="40.225033" lon="-4.485167">
        <ele>1110.0</ele>
        <time>2013-07-02T14:18:18Z</time>
      </trkpt>
      <trkpt lat="40.224983" lon="-4.485167">
        <ele>1112.0</ele>
        <time>2013-07-02T14:18:19Z</time>
      </trkpt>
      <trkpt lat="40.224917" lon="-4.485133">
        <ele>1114.0</ele>
        <time>2013-07-02T14:18:20Z</time>
      </trkpt>
      <trkpt lat="40.224850" lon="-4.485067">
        <ele>1114.0</ele>
        <time>2013-07-02T14:18:21Z</time>
      </trkpt>
      <trkpt lat="40.224783" lon="-4.484967">
        <ele>1115.0</ele>
        <time>2013-07-02T14:18:22Z</time>
      </trkpt>
      <trkpt lat="40.224733" lon="-4.484850">
        <ele>1115.0</ele>
        <time>2013-07-02T14:18:23Z</time>
      </trkpt>
      <trkpt lat="40.224683" lon="-4.484717">
        <ele>1116.0</ele>
        <time>2013-07-02T14:18:24Z</time>
      </trkpt>
      <trkpt lat="40.224683" lon="-4.484567">
        <ele>1116.0</ele>
        <time>2013-07-02T14:18:25Z</time>
      </trkpt>
      <trkpt lat="40.224683" lon="-4.484417">
        <ele>1116.0</ele>
        <time>2013-07-02T14:18:26Z</time>
      </trkpt>
      <trkpt lat="40.224717" lon="-4.484267">
        <ele>1116.0</ele>
        <time>2013-07-02T14:18:27Z</time>
      </trkpt>
      <trkpt lat="40.224750" lon="-4.484150">
        <ele>1118.0</ele>
        <time>2013-07-02T14:18:28Z</time>
      </trkpt>
      <trkpt lat="40.224783" lon="-4.484067">
        <ele>1118.0</ele>
        <time>2013-07-02T14:18:29Z</time>
      </trkpt>
      <trkpt lat="40.224850" lon="-4.483983">
        <ele>1118.0</ele>
        <time>2013-07-02T14:18:30Z</time>
      </trkpt>
      <trkpt lat="40.224917" lon="-4.483933">
        <ele>1117.0</ele>
        <time>2013-07-02T14:18:31Z</time>
      </trkpt>
      <trkpt lat="40.224983" lon="-4.483933">
        <ele>1115.0</ele>
        <time>2013-07-02T14:18:32Z</time>
      </trkpt>
      <trkpt lat="40.225033" lon="-4.483983">
        <ele>1115.0</ele>
        <time>2013-07-02T14:18:33Z</time>
      </trkpt>
      <trkpt lat="40.225050" lon="-4.484050">
        <ele>1115.0</ele>
        <time>2013-07-02T14:18:34Z</time>
      </trkpt>
      <trkpt lat="40.225033" lon="-4.484100">
        <ele>1116.0</ele>
        <time>2013-07-02T14:18:35Z</time>
      </trkpt>
      <trkpt lat="40.224983" lon="-4.484133">
        <ele>1117.0</ele>
        <time>2013-07-02T14:18:36Z</time>
      </trkpt>
      <trkpt lat="40.224933" lon="-4.484100">
        <ele>1120.0</ele>
        <time>2013-07-02T14:18:37Z</time>
      </trkpt>
      <trkpt lat="40.224883" lon="-4.484050">
        <ele>1122.0</ele>
        <time>2013-07-02T14:18:38Z</time>
      </trkpt>
      <trkpt lat="40.224833" lon="-4.483967">
        <ele>1123.0</ele>
        <time>2013-07-02T14:18:39Z</time>
      </trkpt>
      <trkpt lat="40.224783" lon="-4.483883">
        <ele>1124.0</ele>
        <time>2013-07-02T14:18:40Z</time>
      </trkpt>
      <trkpt lat="40.224733" lon="-4.483783">
        <ele>1125.0</ele>
        <time>2013-07-02T14:18:41Z</time>
      </trkpt>
      <trkpt lat="40.224683" lon="-4.483667">
        <ele>1125.0</ele>
        <time>2013-07-02T14:18:42Z</time>
      </trkpt>
      <trkpt lat="40.224667" lon="-4.483550">
        <ele>1125.0</ele>
        <time>2013-07-02T14:18:43Z</time>
      </trkpt>
      <trkpt lat="40.224683" lon="-4.483417">
        <ele>1125.0</ele>
        <time>2013-07-02T14:18:44Z</time>
      </trkpt>
      <trkpt lat="40.224733" lon="-4.483283">
        <ele>1126.0</ele>
        <time>2013-07-02T14:18:45Z</time>
      </trkpt>
      <trkpt lat="40.224783" lon="-4.483167">
        <ele>1127.0</ele>
        <time>2013-07-02T14:18:46Z</time>
      </trkpt>
      <trkpt lat="40.224833" lon="-4.483067">
        <ele>1128.0</ele>
        <time>2013-07-02T14:18:47Z</time>
      </trkpt>
      <trkpt lat="40.224900" lon="-4.482983">
        <ele>1129.0</ele>
        <time>2013-07-02T14:18:48Z</time>
      </trkpt>
      <trkpt lat="40.224967" lon="-4.482933">
        <ele>1128.0</ele>
        <time>2013-07-02T14:18:49Z</time>
      </trkpt>
      <trkpt lat="40.225033" lon="-4.482900">
        <ele>1127.0</ele>
        <time>2013-07-02T14:18:50Z</time>
      </trkpt>
      <trkpt lat="40.225100" lon="-4.482900">
        <ele>1126.0</ele>
        <time>2013-07-02T14:18:51Z</time>
      </trkpt>
      <trkpt lat="40.225167" lon="-4.482917">
        <ele>1125.0</ele>
        <time>2013-07-02T14:18:52Z</time>
      </trkpt>
      <trkpt lat="40.225217" lon="-4.482950">
        <ele>1127.0</ele>
        <time>2013-07-02T14:18:53Z</time>
      </trkpt>
      <trkpt lat="40.225267" lon="-4.482983">
        <ele>1132.0</ele>
        <time>2013-07-02T14:18:54Z</time>
      </trkpt>
      <trkpt lat="40.225283" lon="-4.482983">
        <ele>1135.0</ele>
        <time>2013-07-02T14:18:55Z</time>
      </trkpt>
      <trkpt lat="40.225283" lon="-4.482967">
        <ele>1136.0</ele>
        <time>2013-07-02T14:18:56Z</time>
      </trkpt>
      <trkpt lat="40.225267" lon="-4.482950">
        <ele>1137.0</ele>
        <time>2013-07-02T14:18:57Z</time>
      </trkpt>
      <trkpt lat="40.225250" lon="-4.482933">
        <ele>1136.0</ele>
        <time>2013-07-02T14:18:58Z</time>
      </trkpt>
      <trkpt lat="40.225200" lon="-4.482900">
        <ele>1134.0</ele>
        <time>2013-07-02T14:18:59Z</time>
      </trkpt>
      <trkpt lat="40.225133" lon="-4.482850">
        <ele>1132.0</ele>
        <time>2013-07-02T14:19:00Z</time>
      </trkpt>
      <trkpt lat="40.225067" lon="-4.482733">
        <ele>1130.0</ele>
        <time>2013-07-02T14:19:01Z</time>
      </trkpt>
      <trkpt lat="40.225017" lon="-4.482600">
        <ele>1132.0</ele>
        <time>2013-07-02T14:19:02Z</time>
      </trkpt>
      <trkpt lat="40.225017" lon="-4.482483">
        <ele>1133.0</ele>
        <time>2013-07-02T14:19:03Z</time>
      </trkpt>
      <trkpt lat="40.225000" lon="-4.482383">
        <ele>1133.0</ele>
        <time>2013-07-02T14:19:04Z</time>
      </trkpt>
      <trkpt lat="40.225000" lon="-4.482267">
        <ele>1132.0</ele>
        <time>2013-07-02T14:19:05Z</time>
      </trkpt>
      <trkpt lat="40.224983" lon="-4.482117">
        <ele>1131.0</ele>
        <time>2013-07-02T14:19:06Z</time>
      </trkpt>
      <trkpt lat="40.225000" lon="-4.481967">
        <ele>1128.0</ele>
        <time>2013-07-02T14:19:07Z</time>
      </trkpt>
      <trkpt lat="40.225033" lon="-4.481833">
        <ele>1127.0</ele>
        <time>2013-07-02T14:19:08Z</time>
      </trkpt>
      <trkpt lat="40.225083" lon="-4.481717">
        <ele>1126.0</ele>
        <time>2013-07-02T14:19:09Z</time>
      </trkpt>
      <trkpt lat="40.225133" lon="-4.481633">
        <ele>1124.0</ele>
        <time>2013-07-02T14:19:10Z</time>
      </trkpt>
      <trkpt lat="40.225200" lon="-4.481567">
        <ele>1122.0</ele>
        <time>2013-07-02T14:19:11Z</time>
      </trkpt>
      <trkpt lat="40.225267" lon="-4.481517">
        <ele>1121.0</ele>
        <time>2013-07-02T14:19:12Z</time>
      </trkpt>
      <trkpt lat="40.225350" lon="-4.481450">
        <ele>1121.0</ele>
        <time>2013-07-02T14:19:13Z</time>
      </trkpt>
      <trkpt lat="40.225433" lon="-4.481383">
        <ele>1121.0</ele>
        <time>2013-07-02T14:19:14Z</time>
      </trkpt>
      <trkpt lat="40.225483" lon="-4.481317">
        <ele>1122.0</ele>
        <time>2013-07-02T14:19:15Z</time>
      </trkpt>
      <trkpt lat="40.225550" lon="-4.481267">
        <ele>1123.0</ele>
        <time>2013-07-02T14:19:16Z</time>
      </trkpt>
      <trkpt lat="40.225617" lon="-4.481217">
        <ele>1123.0</ele>
        <time>2013-07-02T14:19:17Z</time>
      </trkpt>
      <trkpt lat="40.225683" lon="-4.481183">
        <ele>1122.0</ele>
        <time>2013-07-02T14:19:18Z</time>
      </trkpt>
      <trkpt lat="40.225750" lon="-4.481183">
        <ele>1121.0</ele>
        <time>2013-07-02T14:19:19Z</time>
      </trkpt>
      <trkpt lat="40.225817" lon="-4.481183">
        <ele>1123.0</ele>
        <time>2013-07-02T14:19:20Z</time>
      </trkpt>
      <trkpt lat="40.225850" lon="-4.481217">
        <ele>1124.0</ele>
        <time>2013-07-02T14:19:21Z</time>
      </trkpt>
      <trkpt lat="40.225850" lon="-4.481233">
        <ele>1124.0</ele>
        <time>2013-07-02T14:19:22Z</time>
      </trkpt>
      <trkpt lat="40.225850" lon="-4.481267">
        <ele>1124.0</ele>
        <time>2013-07-02T14:19:23Z</time>
      </trkpt>
      <trkpt lat="40.225833" lon="-4.481300">
        <ele>1125.0</ele>
        <time>2013-07-02T14:19:24Z</time>
      </trkpt>
      <trkpt lat="40.225817" lon="-4.481333">
        <ele>1125.0</ele>
        <time>2013-07-02T14:19:25Z</time>
      </trkpt>
      <trkpt lat="40.225800" lon="-4.481367">
        <ele>1126.0</ele>
        <time>2013-07-02T14:19:26Z</time>
      </trkpt>
      <trkpt lat="40.225767" lon="-4.481383">
        <ele>1127.0</ele>
        <time>2013-07-02T14:19:27Z</time>
      </trkpt>
      <trkpt lat="40.225717" lon="-4.481367">
        <ele>1127.0</ele>
        <time>2013-07-02T14:19:28Z</time>
      </trkpt>
      <trkpt lat="40.225667" lon="-4.481333">
        <ele>1128.0</ele>
        <time>2013-07-02T14:19:29Z</time>
      </trkpt>
      <trkpt lat="40.225617" lon="-4.481283">
        <ele>1130.0</ele>
        <time>2013-07-02T14:19:30Z</time>
      </trkpt>
      <trkpt lat="40.225567" lon="-4.481250">
        <ele>1131.0</ele>
        <time>2013-07-02T14:19:31Z</time>
      </trkpt>
      <trkpt lat="40.225500" lon="-4.481183">
        <ele>1133.0</ele>
        <time>2013-07-02T14:19:32Z</time>
      </trkpt>
      <trkpt lat="40.225433" lon="-4.481117">
        <ele>1135.0</ele>
        <time>2013-07-02T14:19:33Z</time>
      </trkpt>
      <trkpt lat="40.225367" lon="-4.481033">
        <ele>1137.0</ele>
        <time>2013-07-02T14:19:34Z</time>
      </trkpt>
      <trkpt lat="40.225333" lon="-4.480933">
        <ele>1139.0</ele>
        <time>2013-07-02T14:19:35Z</time>
      </trkpt>
      <trkpt lat="40.225283" lon="-4.480833">
        <ele>1141.0</ele>
        <time>2013-07-02T14:19:36Z</time>
      </trkpt>
      <trkpt lat="40.225233" lon="-4.480733">
        <ele>1143.0</ele>
        <time>2013-07-02T14:19:37Z</time>
      </trkpt>
      <trkpt lat="40.225183" lon="-4.480617">
        <ele>1144.0</ele>
        <time>2013-07-02T14:19:38Z</time>
      </trkpt>
      <trkpt lat="40.225117" lon="-4.480500">
        <ele>1145.0</ele>
        <time>2013-07-02T14:19:39Z</time>
      </trkpt>
      <trkpt lat="40.225100" lon="-4.480383">
        <ele>1146.0</ele>
        <time>2013-07-02T14:19:40Z</time>
      </trkpt>
      <trkpt lat="40.225100" lon="-4.480233">
        <ele>1146.0</ele>
        <time>2013-07-02T14:19:41Z</time>
      </trkpt>
      <trkpt lat="40.225133" lon="-4.480100">
        <ele>1146.0</ele>
        <time>2013-07-02T14:19:42Z</time>
      </trkpt>
      <trkpt lat="40.225200" lon="-4.479983">
        <ele>1148.0</ele>
        <time>2013-07-02T14:19:43Z</time>
      </trkpt>
      <trkpt lat="40.225283" lon="-4.479933">
        <ele>1151.0</ele>
        <time>2013-07-02T14:19:44Z</time>
      </trkpt>
      <trkpt lat="40.225350" lon="-4.479917">
        <ele>1154.0</ele>
        <time>2013-07-02T14:19:45Z</time>
      </trkpt>
      <trkpt lat="40.225400" lon="-4.479933">
        <ele>1157.0</ele>
        <time>2013-07-02T14:19:46Z</time>
      </trkpt>
      <trkpt lat="40.225450" lon="-4.479950">
        <ele>1160.0</ele>
        <time>2013-07-02T14:19:47Z</time>
      </trkpt>
      <trkpt lat="40.225483" lon="-4.479983">
        <ele>1162.0</ele>
        <time>2013-07-02T14:19:48Z</time>
      </trkpt>
      <trkpt lat="40.225517" lon="-4.480000">
        <ele>1163.0</ele>
        <time>2013-07-02T14:19:49Z</time>
      </trkpt>
      <trkpt lat="40.225550" lon="-4.480050">
        <ele>1165.0</ele>
        <time>2013-07-02T14:19:50Z</time>
      </trkpt>
      <trkpt lat="40.225533" lon="-4.480083">
        <ele>1166.0</ele>
        <time>2013-07-02T14:19:51Z</time>
      </trkpt>
      <trkpt lat="40.225500" lon="-4.480117">
        <ele>1167.0</ele>
        <time>2013-07-02T14:19:52Z</time>
      </trkpt>
      <trkpt lat="40.225450" lon="-4.480117">
        <ele>1168.0</ele>
        <time>2013-07-02T14:19:53Z</time>
      </trkpt>
      <trkpt lat="40.225400" lon="-4.480083">
        <ele>1170.0</ele>
        <time>2013-07-02T14:19:54Z</time>
      </trkpt>
      <trkpt lat="40.225367" lon="-4.480033">
        <ele>1172.0</ele>
        <time>2013-07-02T14:19:55Z</time>
      </trkpt>
      <trkpt lat="40.225317" lon="-4.479967">
        <ele>1173.0</ele>
        <time>2013-07-02T14:19:56Z</time>
      </trkpt>
      <trkpt lat="40.225283" lon="-4.479900">
        <ele>1173.0</ele>
        <time>2013-07-02T14:19:57Z</time>
      </trkpt>
      <trkpt lat="40.225233" lon="-4.479850">
        <ele>1172.0</ele>
        <time>2013-07-02T14:19:58Z</time>
      </trkpt>
      <trkpt lat="40.225183" lon="-4.479783">
        <ele>1172.0</ele>
        <time>2013-07-02T14:19:59Z</time>
      </trkpt>
      <trkpt lat="40.225133" lon="-4.479683">
        <ele>1170.0</ele>
        <time>2013-07-02T14:20:00Z</time>
      </trkpt>
      <trkpt lat="40.225083" lon="-4.479533">
        <ele>1170.0</ele>
        <time>2013-07-02T14:20:01Z</time>
      </trkpt>
      <trkpt lat="40.225050" lon="-4.479383">
        <ele>1173.0</ele>
        <time>2013-07-02T14:20:02Z</time>
      </trkpt>
      <trkpt lat="40.225033" lon="-4.479233">
        <ele>1177.0</ele>
        <time>2013-07-02T14:20:03Z</time>
      </trkpt>
      <trkpt lat="40.225050" lon="-4.479133">
        <ele>1181.0</ele>
        <time>2013-07-02T14:20:04Z</time>
      </trkpt>
      <trkpt lat="40.225067" lon="-4.479033">
        <ele>1184.0</ele>
        <time>2013-07-02T14:20:05Z</time>
      </trkpt>
      <trkpt lat="40.225100" lon="-4.478933">
        <ele>1186.0</ele>
        <time>2013-07-02T14:20:06Z</time>
      </trkpt>
      <trkpt lat="40.225133" lon="-4.478817">
        <ele>1187.0</ele>
        <time>2013-07-02T14:20:07Z</time>
      </trkpt>
      <trkpt lat="40.225200" lon="-4.478733">
        <ele>1188.0</ele>
        <time>2013-07-02T14:20:08Z</time>
      </trkpt>
      <trkpt lat="40.225283" lon="-4.478650">
        <ele>1190.0</ele>
        <time>2013-07-02T14:20:09Z</time>
      </trkpt>
      <trkpt lat="40.225367" lon="-4.478600">
        <ele>1192.0</ele>
        <time>2013-07-02T14:20:10Z</time>
      </trkpt>
      <trkpt lat="40.225433" lon="-4.478567">
        <ele>1195.0</ele>
        <time>2013-07-02T14:20:11Z</time>
      </trkpt>
      <trkpt lat="40.225517" lon="-4.478550">
        <ele>1197.0</ele>
        <time>2013-07-02T14:20:12Z</time>
      </trkpt>
      <trkpt lat="40.225583" lon="-4.478550">
        <ele>1200.0</ele>
        <time>2013-07-02T14:20:13Z</time>
      </trkpt>
      <trkpt lat="40.225650" lon="-4.478550">
        <ele>1201.0</ele>
        <time>2013-07-02T14:20:14Z</time>
      </trkpt>
      <trkpt lat="40.225683" lon="-4.478567">
        <ele>1202.0</ele>
        <time>2013-07-02T14:20:15Z</time>
      </trkpt>
      <trkpt lat="40.225717" lon="-4.478567">
        <ele>1204.0</ele>
        <time>2013-07-02T14:20:16Z</time>
      </trkpt>
      <trkpt lat="40.225733" lon="-4.478600">
        <ele>1204.0</ele>
        <time>2013-07-02T14:20:17Z</time>
      </trkpt>
      <trkpt lat="40.225767" lon="-4.478617">
        <ele>1205.0</ele>
        <time>2013-07-02T14:20:18Z</time>
      </trkpt>
      <trkpt lat="40.225767" lon="-4.478667">
        <ele>1206.0</ele>
        <time>2013-07-02T14:20:19Z</time>
      </trkpt>
      <trkpt lat="40.225767" lon="-4.478733">
        <ele>1207.0</ele>
        <time>2013-07-02T14:20:20Z</time>
      </trkpt>
      <trkpt lat="40.225733" lon="-4.478783">
        <ele>1210.0</ele>
        <time>2013-07-02T14:20:21Z</time>
      </trkpt>
      <trkpt lat="40.225700" lon="-4.478817">
        <ele>1213.0</ele>
        <time>2013-07-02T14:20:22Z</time>
      </trkpt>
      <trkpt lat="40.225650" lon="-4.478800">
        <ele>1216.0</ele>
        <time>2013-07-02T14:20:23Z</time>
      </trkpt>
      <trkpt lat="40.225600" lon="-4.478783">
        <ele>1218.0</ele>
        <time>2013-07-02T14:20:24Z</time>
      </trkpt>
      <trkpt lat="40.225550" lon="-4.478733">
        <ele>1220.0</ele>
        <time>2013-07-02T14:20:25Z</time>
      </trkpt>
      <trkpt lat="40.225533" lon="-4.478700">
        <ele>1221.0</ele>
        <time>2013-07-02T14:20:26Z</time>
      </trkpt>
      <trkpt lat="40.225500" lon="-4.478683">
        <ele>1221.0</ele>
        <time>2013-07-02T14:20:27Z</time>
      </trkpt>
      <trkpt lat="40.225450" lon="-4.478633">
        <ele>1221.0</ele>
        <time>2013-07-02T14:20:28Z</time>
      </trkpt>
      <trkpt lat="40.225383" lon="-4.478567">
        <ele>1221.0</ele>
        <time>2013-07-02T14:20:29Z</time>
      </trkpt>
      <trkpt lat="40.225333" lon="-4.478450">
        <ele>1222.0</ele>
        <time>2013-07-02T14:20:30Z</time>
      </trkpt>
      <trkpt lat="40.225300" lon="-4.478300">
        <ele>1223.0</ele>
        <time>2013-07-02T14:20:31Z</time>
      </trkpt>
      <trkpt lat="40.225333" lon="-4.478167">
        <ele>1225.0</ele>
        <time>2013-07-02T14:20:32Z</time>
      </trkpt>
      <trkpt lat="40.225383" lon="-4.478067">
        <ele>1227.0</ele>
        <time>2013-07-02T14:20:33Z</time>
      </trkpt>
      <trkpt lat="40.225467" lon="-4.478000">
        <ele>1229.0</ele>
        <time>2013-07-02T14:20:34Z</time>
      </trkpt>
      <trkpt lat="40.225533" lon="-4.477967">
        <ele>1231.0</ele>
        <time>2013-07-02T14:20:35Z</time>
      </trkpt>
      <trkpt lat="40.225617" lon="-4.477950">
        <ele>1232.0</ele>
        <time>2013-07-02T14:20:36Z</time>
      </trkpt>
      <trkpt lat="40.225683" lon="-4.477950">
        <ele>1232.0</ele>
        <time>2013-07-02T14:20:37Z</time>
      </trkpt>
      <trkpt lat="40.225750" lon="-4.477967">
        <ele>1233.0</ele>
        <time>2013-07-02T14:20:38Z</time>
      </trkpt>
      <trkpt lat="40.225800" lon="-4.478017">
        <ele>1234.0</ele>
        <time>2013-07-02T14:20:39Z</time>
      </trkpt>
      <trkpt lat="40.225817" lon="-4.478067">
        <ele>1235.0</ele>
        <time>2013-07-02T14:20:40Z</time>
      </trkpt>
      <trkpt lat="40.225817" lon="-4.478133">
        <ele>1235.0</ele>
        <time>2013-07-02T14:20:41Z</time>
      </trkpt>
      <trkpt lat="40.225800" lon="-4.478183">
        <ele>1236.0</ele>
        <time>2013-07-02T14:20:42Z</time>
      </trkpt>
      <trkpt lat="40.225767" lon="-4.478200">
        <ele>1238.0</ele>
        <time>2013-07-02T14:20:43Z</time>
      </trkpt>
      <trkpt lat="40.225717" lon="-4.478200">
        <ele>1241.0</ele>
        <time>2013-07-02T14:20:44Z</time>
      </trkpt>
      <trkpt lat="40.225683" lon="-4.478167">
        <ele>1242.0</ele>
        <time>2013-07-02T14:20:45Z</time>
      </trkpt>
      <trkpt lat="40.225617" lon="-4.478117">
        <ele>1244.0</ele>
        <time>2013-07-02T14:20:46Z</time>
      </trkpt>
      <trkpt lat="40.225550" lon="-4.478033">
        <ele>1245.0</ele>
        <time>2013-07-02T14:20:47Z</time>
      </trkpt>
      <trkpt lat="40.225500" lon="-4.477917">
        <ele>1247.0</ele>
        <time>2013-07-02T14:20:48Z</time>
      </trkpt>
      <trkpt lat="40.225467" lon="-4.477800">
        <ele>1249.0</ele>
        <time>2013-07-02T14:20:49Z</time>
      </trkpt>
      <trkpt lat="40.225467" lon="-4.477683">
        <ele>1250.0</ele>
        <time>2013-07-02T14:20:50Z</time>
      </trkpt>
      <trkpt lat="40.225467" lon="-4.477567">
        <ele>1252.0</ele>
        <time>2013-07-02T14:20:51Z</time>
      </trkpt>
      <trkpt lat="40.225483" lon="-4.477467">
        <ele>1252.0</ele>
        <time>2013-07-02T14:20:52Z</time>
      </trkpt>
      <trkpt lat="40.225500" lon="-4.477333">
        <ele>1252.0</ele>
        <time>2013-07-02T14:20:53Z</time>
      </trkpt>
      <trkpt lat="40.225550" lon="-4.477200">
        <ele>1252.0</ele>
        <time>2013-07-02T14:20:54Z</time>
      </trkpt>
      <trkpt lat="40.225633" lon="-4.477083">
        <ele>1253.0</ele>
        <time>2013-07-02T14:20:55Z</time>
      </trkpt>
      <trkpt lat="40.225717" lon="-4.476983">
        <ele>1255.0</ele>
        <time>2013-07-02T14:20:56Z</time>
      </trkpt>
      <trkpt lat="40.225800" lon="-4.476933">
        <ele>1256.0</ele>
        <time>2013-07-02T14:20:57Z</time>
      </trkpt>
      <trkpt lat="40.225883" lon="-4.476883">
        <ele>1258.0</ele>
        <time>2013-07-02T14:20:58Z</time>
      </trkpt>
      <trkpt lat="40.225967" lon="-4.476883">
        <ele>1259.0</ele>
        <time>2013-07-02T14:20:59Z</time>
      </trkpt>
      <trkpt lat="40.226050" lon="-4.476900">
        <ele>1260.0</ele>
        <time>2013-07-02T14:21:00Z</time>
      </trkpt>
      <trkpt lat="40.226117" lon="-4.476950">
        <ele>1263.0</ele>
        <time>2013-07-02T14:21:01Z</time>
      </trkpt>
      <trkpt lat="40.226183" lon="-4.476983">
        <ele>1266.0</ele>
        <time>2013-07-02T14:21:02Z</time>
      </trkpt>
      <trkpt lat="40.226217" lon="-4.477033">
        <ele>1268.0</ele>
        <time>2013-07-02T14:21:03Z</time>
      </trkpt>
      <trkpt lat="40.226250" lon="-4.477067">
        <ele>1271.0</ele>
        <time>2013-07-02T14:21:04Z</time>
      </trkpt>
      <trkpt lat="40.226267" lon="-4.477100">
        <ele>1273.0</ele>
        <time>2013-07-02T14:21:05Z</time>
      </trkpt>
      <trkpt lat="40.226283" lon="-4.477150">
        <ele>1275.0</ele>
        <time>2013-07-02T14:21:06Z</time>
      </trkpt>
      <trkpt lat="40.226267" lon="-4.477183">
        <ele>1278.0</ele>
        <time>2013-07-02T14:21:07Z</time>
      </trkpt>
      <trkpt lat="40.226250" lon="-4.477200">
        <ele>1280.0</ele>
        <time>2013-07-02T14:21:08Z</time>
      </trkpt>
      <trkpt lat="40.226200" lon="-4.477183">
        <ele>1283.0</ele>
        <time>2013-07-02T14:21:09Z</time>
      </trkpt>
      <trkpt lat="40.226150" lon="-4.477133">
        <ele>1285.0</ele>
        <time>2013-07-02T14:21:10Z</time>
      </trkpt>
      <trkpt lat="40.226100" lon="-4.477050">
        <ele>1287.0</ele>
        <time>2013-07-02T14:21:11Z</time>
      </trkpt>
      <trkpt lat="40.226067" lon="-4.476950">
        <ele>1289.0</ele>
        <time>2013-07-02T14:21:12Z</time>
      </trkpt>
      <trkpt lat="40.226050" lon="-4.476817">
        <ele>1292.0</ele>
        <time>2013-07-02T14:21:13Z</time>
      </trkpt>
      <trkpt lat="40.226050" lon="-4.476700">
        <ele>1294.0</ele>
        <time>2013-07-02T14:21:14Z</time>
      </trkpt>
      <trkpt lat="40.226083" lon="-4.476550">
        <ele>1295.0</ele>
        <time>2013-07-02T14:21:15Z</time>
      </trkpt>
      <trkpt lat="40.226150" lon="-4.476417">
        <ele>1296.0</ele>
        <time>2013-07-02T14:21:16Z</time>
      </trkpt>
      <trkpt lat="40.226217" lon="-4.476283">
        <ele>1297.0</ele>
        <time>2013-07-02T14:21:17Z</time>
      </trkpt>
      <trkpt lat="40.226300" lon="-4.476183">
        <ele>1298.0</ele>
        <time>2013-07-02T14:21:18Z</time>
      </trkpt>
      <trkpt lat="40.226383" lon="-4.476100">
        <ele>1300.0</ele>
        <time>2013-07-02T14:21:19Z</time>
      </trkpt>
      <trkpt lat="40.226483" lon="-4.476050">
        <ele>1301.0</ele>
        <time>2013-07-02T14:21:20Z</time>
      </trkpt>
      <trkpt lat="40.226583" lon="-4.476017">
        <ele>1303.0</ele>
        <time>2013-07-02T14:21:21Z</time>
      </trkpt>
      <trkpt lat="40.226683" lon="-4.476000">
        <ele>1307.0</ele>
        <time>2013-07-02T14:21:22Z</time>
      </trkpt>
      <trkpt lat="40.226750" lon="-4.476000">
        <ele>1311.0</ele>
        <time>2013-07-02T14:21:23Z</time>
      </trkpt>
      <trkpt lat="40.226800" lon="-4.475983">
        <ele>1313.0</ele>
        <time>2013-07-02T14:21:24Z</time>
      </trkpt>
      <trkpt lat="40.226833" lon="-4.476000">
        <ele>1315.0</ele>
        <time>2013-07-02T14:21:25Z</time>
      </trkpt>
      <trkpt lat="40.226850" lon="-4.476033">
        <ele>1318.0</ele>
        <time>2013-07-02T14:21:26Z</time>
      </trkpt>
      <trkpt lat="40.226850" lon="-4.476067">
        <ele>1319.0</ele>
        <time>2013-07-02T14:21:27Z</time>
      </trkpt>
      <trkpt lat="40.226817" lon="-4.476100">
        <ele>1321.0</ele>
        <time>2013-07-02T14:21:28Z</time>
      </trkpt>
      <trkpt lat="40.226767" lon="-4.476100">
        <ele>1323.0</ele>
        <time>2013-07-02T14:21:29Z</time>
      </trkpt>
      <trkpt lat="40.226717" lon="-4.476083">
        <ele>1325.0</ele>
        <time>2013-07-02T14:21:30Z</time>
      </trkpt>
      <trkpt lat="40.226667" lon="-4.476050">
        <ele>1327.0</ele>
        <time>2013-07-02T14:21:31Z</time>
      </trkpt>
      <trkpt lat="40.226633" lon="-4.476017">
        <ele>1328.0</ele>
        <time>2013-07-02T14:21:32Z</time>
      </trkpt>
      <trkpt lat="40.226583" lon="-4.475950">
        <ele>1329.0</ele>
        <time>2013-07-02T14:21:33Z</time>
      </trkpt>
      <trkpt lat="40.226517" lon="-4.475867">
        <ele>1329.0</ele>
        <time>2013-07-02T14:21:34Z</time>
      </trkpt>
      <trkpt lat="40.226483" lon="-4.475733">
        <ele>1330.0</ele>
        <time>2013-07-02T14:21:35Z</time>
      </trkpt>
      <trkpt lat="40.226467" lon="-4.475583">
        <ele>1332.0</ele>
        <time>2013-07-02T14:21:36Z</time>
      </trkpt>
      <trkpt lat="40.226483" lon="-4.475433">
        <ele>1335.0</ele>
        <time>2013-07-02T14:21:37Z</time>
      </trkpt>
      <trkpt lat="40.226533" lon="-4.475300">
        <ele>1337.0</ele>
        <time>2013-07-02T14:21:38Z</time>
      </trkpt>
      <trkpt lat="40.226600" lon="-4.475167">
        <ele>1338.0</ele>
        <time>2013-07-02T14:21:39Z</time>
      </trkpt>
      <trkpt lat="40.226700" lon="-4.475067">
        <ele>1339.0</ele>
        <time>2013-07-02T14:21:40Z</time>
      </trkpt>
      <trkpt lat="40.226800" lon="-4.475000">
        <ele>1341.0</ele>
        <time>2013-07-02T14:21:41Z</time>
      </trkpt>
      <trkpt lat="40.226900" lon="-4.474950">
        <ele>1343.0</ele>
        <time>2013-07-02T14:21:42Z</time>
      </trkpt>
      <trkpt lat="40.226983" lon="-4.474933">
        <ele>1345.0</ele>
        <time>2013-07-02T14:21:43Z</time>
      </trkpt>
      <trkpt lat="40.227033" lon="-4.474917">
        <ele>1348.0</ele>
        <time>2013-07-02T14:21:44Z</time>
      </trkpt>
      <trkpt lat="40.227083" lon="-4.474900">
        <ele>1350.0</ele>
        <time>2013-07-02T14:21:45Z</time>
      </trkpt>
      <trkpt lat="40.227133" lon="-4.474900">
        <ele>1351.0</ele>
        <time>2013-07-02T14:21:46Z</time>
      </trkpt>
      <trkpt lat="40.227167" lon="-4.474917">
        <ele>1350.0</ele>
        <time>2013-07-02T14:21:47Z</time>
      </trkpt>
      <trkpt lat="40.227200" lon="-4.474967">
        <ele>1350.0</ele>
        <time>2013-07-02T14:21:48Z</time>
      </trkpt>
      <trkpt lat="40.227200" lon="-4.475000">
        <ele>1350.0</ele>
        <time>2013-07-02T14:21:49Z</time>
      </trkpt>
      <trkpt lat="40.227200" lon="-4.475033">
        <ele>1350.0</ele>
        <time>2013-07-02T14:21:50Z</time>
      </trkpt>
      <trkpt lat="40.227167" lon="-4.475067">
        <ele>1350.0</ele>
        <time>2013-07-02T14:21:51Z</time>
      </trkpt>
      <trkpt lat="40.227100" lon="-4.475067">
        <ele>1350.0</ele>
        <time>2013-07-02T14:21:52Z</time>
      </trkpt>
      <trkpt lat="40.227033" lon="-4.475050">
        <ele>1351.0</ele>
        <time>2013-07-02T14:21:53Z</time>
      </trkpt>
      <trkpt lat="40.226967" lon="-4.475017">
        <ele>1352.0</ele>
        <time>2013-07-02T14:21:54Z</time>
      </trkpt>
      <trkpt lat="40.226900" lon="-4.474950">
        <ele>1354.0</ele>
        <time>2013-07-02T14:21:55Z</time>
      </trkpt>
      <trkpt lat="40.226833" lon="-4.474867">
        <ele>1356.0</ele>
        <time>2013-07-02T14:21:56Z</time>
      </trkpt>
      <trkpt lat="40.226783" lon="-4.474767">
        <ele>1359.0</ele>
        <time>2013-07-02T14:21:57Z</time>
      </trkpt>
      <trkpt lat="40.226733" lon="-4.474667">
        <ele>1362.0</ele>
        <time>2013-07-02T14:21:58Z</time>
      </trkpt>
      <trkpt lat="40.226700" lon="-4.474567">
        <ele>1365.0</ele>
        <time>2013-07-02T14:21:59Z</time>
      </trkpt>
      <trkpt lat="40.226667" lon="-4.474450">
        <ele>1367.0</ele>
        <time>2013-07-02T14:22:00Z</time>
      </trkpt>
      <trkpt lat="40.226650" lon="-4.474350">
        <ele>1370.0</ele>
        <time>2013-07-02T14:22:01Z</time>
      </trkpt>
      <trkpt lat="40.226617" lon="-4.474233">
        <ele>1372.0</ele>
        <time>2013-07-02T14:22:02Z</time>
      </trkpt>
      <trkpt lat="40.226617" lon="-4.474100">
        <ele>1373.0</ele>
        <time>2013-07-02T14:22:03Z</time>
      </trkpt>
      <trkpt lat="40.226600" lon="-4.473950">
        <ele>1374.0</ele>
        <time>2013-07-02T14:22:04Z</time>
      </trkpt>
      <trkpt lat="40.226617" lon="-4.473800">
        <ele>1376.0</ele>
        <time>2013-07-02T14:22:05Z</time>
      </trkpt>
      <trkpt lat="40.226633" lon="-4.473633">
        <ele>1378.0</ele>
        <time>2013-07-02T14:22:06Z</time>
      </trkpt>
      <trkpt lat="40.226683" lon="-4.473500">
        <ele>1381.0</ele>
        <time>2013-07-02T14:22:07Z</time>
      </trkpt>
      <trkpt lat="40.226767" lon="-4.473400">
        <ele>1383.0</ele>
        <time>2013-07-02T14:22:08Z</time>
      </trkpt>
      <trkpt lat="40.226867" lon="-4.473367">
        <ele>1384.0</ele>
        <time>2013-07-02T14:22:09Z</time>
      </trkpt>
      <trkpt lat="40.226950" lon="-4.473367">
        <ele>1386.0</ele>
        <time>2013-07-02T14:22:10Z</time>
      </trkpt>
      <trkpt lat="40.227017" lon="-4.473400">
        <ele>1388.0</ele>
        <time>2013-07-02T14:22:11Z</time>
      </trkpt>
      <trkpt lat="40.227050" lon="-4.473433">
        <ele>1391.0</ele>
        <time>2013-07-02T14:22:12Z</time>
      </trkpt>
      <trkpt lat="40.227067" lon="-4.473483">
        <ele>1394.0</ele>
        <time>2013-07-02T14:22:13Z</time>
      </trkpt>
      <trkpt lat="40.227067" lon="-4.473500">
        <ele>1397.0</ele>
        <time>2013-07-02T14:22:14Z</time>
      </trkpt>
      <trkpt lat="40.227067" lon="-4.473533">
        <ele>1399.0</ele>
        <time>2013-07-02T14:22:15Z</time>
      </trkpt>
      <trkpt lat="40.227050" lon="-4.473567">
        <ele>1401.0</ele>
        <time>2013-07-02T14:22:16Z</time>
      </trkpt>
      <trkpt lat="40.227017" lon="-4.473583">
        <ele>1402.0</ele>
        <time>2013-07-02T14:22:17Z</time>
      </trkpt>
      <trkpt lat="40.226950" lon="-4.473583">
        <ele>1405.0</ele>
        <time>2013-07-02T14:22:18Z</time>
      </trkpt>
      <trkpt lat="40.226883" lon="-4.473533">
        <ele>1407.0</ele>
        <time>2013-07-02T14:22:19Z</time>
      </trkpt>
      <trkpt lat="40.226833" lon="-4.473450">
        <ele>1410.0</ele>
        <time>2013-07-02T14:22:20Z</time>
      </trkpt>
      <trkpt lat="40.226800" lon="-4.473350">
        <ele>1411.0</ele>
        <time>2013-07-02T14:22:21Z</time>
      </trkpt>
      <trkpt lat="40.226767" lon="-4.473233">
        <ele>1412.0</ele>
        <time>2013-07-02T14:22:22Z</time>
      </trkpt>
      <trkpt lat="40.226750" lon="-4.473100">
        <ele>1413.0</ele>
        <time>2013-07-02T14:22:23Z</time>
      </trkpt>
      <trkpt lat="40.226717" lon="-4.472967">
        <ele>1415.0</ele>
        <time>2013-07-02T14:22:24Z</time>
      </trkpt>
      <trkpt lat="40.226733" lon="-4.472817">
        <ele>1417.0</ele>
        <time>2013-07-02T14:22:25Z</time>
      </trkpt>
      <trkpt lat="40.226767" lon="-4.472667">
        <ele>1418.0</ele>
        <time>2013-07-02T14:22:26Z</time>
      </trkpt>
      <trkpt lat="40.226833" lon="-4.472550">
        <ele>1420.0</ele>
        <time>2013-07-02T14:22:27Z</time>
      </trkpt>
      <trkpt lat="40.226900" lon="-4.472450">
        <ele>1423.0</ele>
        <time>2013-07-02T14:22:28Z</time>
      </trkpt>
      <trkpt lat="40.226983" lon="-4.472367">
        <ele>1425.0</ele>
        <time>2013-07-02T14:22:29Z</time>
      </trkpt>
      <trkpt lat="40.227067" lon="-4.472333">
        <ele>1427.0</ele>
        <time>2013-07-02T14:22:30Z</time>
      </trkpt>
      <trkpt lat="40.227150" lon="-4.472350">
        <ele>1429.0</ele>
        <time>2013-07-02T14:22:31Z</time>
      </trkpt>
      <trkpt lat="40.227200" lon="-4.472383">
        <ele>1431.0</ele>
        <time>2013-07-02T14:22:32Z</time>
      </trkpt>
      <trkpt lat="40.227233" lon="-4.472450">
        <ele>1433.0</ele>
        <time>2013-07-02T14:22:33Z</time>
      </trkpt>
      <trkpt lat="40.227233" lon="-4.472483">
        <ele>1435.0</ele>
        <time>2013-07-02T14:22:34Z</time>
      </trkpt>
      <trkpt lat="40.227217" lon="-4.472517">
        <ele>1438.0</ele>
        <time>2013-07-02T14:22:35Z</time>
      </trkpt>
      <trkpt lat="40.227217" lon="-4.472550">
        <ele>1441.0</ele>
        <time>2013-07-02T14:22:36Z</time>
      </trkpt>
      <trkpt lat="40.227200" lon="-4.472567">
        <ele>1443.0</ele>
        <time>2013-07-02T14:22:37Z</time>
      </trkpt>
      <trkpt lat="40.227167" lon="-4.472583">
        <ele>1445.0</ele>
        <time>2013-07-02T14:22:38Z</time>
      </trkpt>
      <trkpt lat="40.227117" lon="-4.472583">
        <ele>1447.0</ele>
        <time>2013-07-02T14:22:39Z</time>
      </trkpt>
      <trkpt lat="40.227067" lon="-4.472567">
        <ele>1450.0</ele>
        <time>2013-07-02T14:22:40Z</time>
      </trkpt>
      <trkpt lat="40.227000" lon="-4.472533">
        <ele>1453.0</ele>
        <time>2013-07-02T14:22:41Z</time>
      </trkpt>
      <trkpt lat="40.226950" lon="-4.472500">
        <ele>1456.0</ele>
        <time>2013-07-02T14:22:42Z</time>
      </trkpt>
      <trkpt lat="40.226883" lon="-4.472450">
        <ele>1458.0</ele>
        <time>2013-07-02T14:22:43Z</time>
      </trkpt>
      <trkpt lat="40.226833" lon="-4.472400">
        <ele>1459.0</ele>
        <time>2013-07-02T14:22:44Z</time>
      </trkpt>
      <trkpt lat="40.226783" lon="-4.472350">
        <ele>1462.0</ele>
        <time>2013-07-02T14:22:45Z</time>
      </trkpt>
      <trkpt lat="40.226733" lon="-4.472283">
        <ele>1464.0</ele>
        <time>2013-07-02T14:22:46Z</time>
      </trkpt>
      <trkpt lat="40.226667" lon="-4.472217">
        <ele>1466.0</ele>
        <time>2013-07-02T14:22:47Z</time>
      </trkpt>
      <trkpt lat="40.226617" lon="-4.472117">
        <ele>1469.0</ele>
        <time>2013-07-02T14:22:48Z</time>
      </trkpt>
      <trkpt lat="40.226583" lon="-4.472017">
        <ele>1472.0</ele>
        <time>2013-07-02T14:22:49Z</time>
      </trkpt>
      <trkpt lat="40.226600" lon="-4.471917">
        <ele>1474.0</ele>
        <time>2013-07-02T14:22:50Z</time>
      </trkpt>
      <trkpt lat="40.226617" lon="-4.471817">
        <ele>1475.0</ele>
        <time>2013-07-02T14:22:51Z</time>
      </trkpt>
      <trkpt lat="40.226650" lon="-4.471700">
        <ele>1474.0</ele>
        <time>2013-07-02T14:22:52Z</time>
      </trkpt>
      <trkpt lat="40.226700" lon="-4.471600">
        <ele>1475.0</ele>
        <time>2013-07-02T14:22:53Z</time>
      </trkpt>
      <trkpt lat="40.226783" lon="-4.471500">
        <ele>1475.0</ele>
        <time>2013-07-02T14:22:54Z</time>
      </trkpt>
      <trkpt lat="40.226867" lon="-4.471433">
        <ele>1475.0</ele>
        <time>2013-07-02T14:22:55Z</time>
      </trkpt>
      <trkpt lat="40.226967" lon="-4.471400">
        <ele>1475.0</ele>
        <time>2013-07-02T14:22:56Z</time>
      </trkpt>
      <trkpt lat="40.227050" lon="-4.471400">
        <ele>1475.0</ele>
        <time>2013-07-02T14:22:57Z</time>
      </trkpt>
      <trkpt lat="40.227117" lon="-4.471467">
        <ele>1475.0</ele>
        <time>2013-07-02T14:22:58Z</time>
      </trkpt>
      <trkpt lat="40.227167" lon="-4.471517">
        <ele>1478.0</ele>
        <time>2013-07-02T14:22:59Z</time>
      </trkpt>
      <trkpt lat="40.227217" lon="-4.471550">
        <ele>1484.0</ele>
        <time>2013-07-02T14:23:00Z</time>
      </trkpt>
      <trkpt lat="40.227233" lon="-4.471567">
        <ele>1488.0</ele>
        <time>2013-07-02T14:23:01Z</time>
      </trkpt>
      <trkpt lat="40.227267" lon="-4.471567">
        <ele>1492.0</ele>
        <time>2013-07-02T14:23:02Z</time>
      </trkpt>
      <trkpt lat="40.227283" lon="-4.471583">
        <ele>1495.0</ele>
        <time>2013-07-02T14:23:03Z</time>
      </trkpt>
      <trkpt lat="40.227300" lon="-4.471617">
        <ele>1496.0</ele>
        <time>2013-07-02T14:23:04Z</time>
      </trkpt>
      <trkpt lat="40.227283" lon="-4.471683">
        <ele>1498.0</ele>
        <time>2013-07-02T14:23:05Z</time>
      </trkpt>
      <trkpt lat="40.227250" lon="-4.471717">
        <ele>1499.0</ele>
        <time>2013-07-02T14:23:06Z</time>
      </trkpt>
      <trkpt lat="40.227183" lon="-4.471733">
        <ele>1501.0</ele>
        <time>2013-07-02T14:23:07Z</time>
      </trkpt>
      <trkpt lat="40.227117" lon="-4.471717">
        <ele>1505.0</ele>
        <time>2013-07-02T14:23:08Z</time>
      </trkpt>
      <trkpt lat="40.227050" lon="-4.471683">
        <ele>1509.0</ele>
        <time>2013-07-02T14:23:09Z</time>
      </trkpt>
      <trkpt lat="40.227000" lon="-4.471633">
        <ele>1513.0</ele>
        <time>2013-07-02T14:23:10Z</time>
      </trkpt>
      <trkpt lat="40.226967" lon="-4.471567">
        <ele>1516.0</ele>
        <time>2013-07-02T14:23:11Z</time>
      </trkpt>
      <trkpt lat="40.226917" lon="-4.471483">
        <ele>1516.0</ele>
        <time>2013-07-02T14:23:12Z</time>
      </trkpt>
      <trkpt lat="40.226867" lon="-4.471383">
        <ele>1514.0</ele>
        <time>2013-07-02T14:23:13Z</time>
      </trkpt>
      <trkpt lat="40.226833" lon="-4.471267">
        <ele>1514.0</ele>
        <time>2013-07-02T14:23:14Z</time>
      </trkpt>
      <trkpt lat="40.226850" lon="-4.471133">
        <ele>1514.0</ele>
        <time>2013-07-02T14:23:15Z</time>
      </trkpt>
      <trkpt lat="40.226900" lon="-4.471000">
        <ele>1514.0</ele>
        <time>2013-07-02T14:23:16Z</time>
      </trkpt>
      <trkpt lat="40.226983" lon="-4.470883">
        <ele>1513.0</ele>
        <time>2013-07-02T14:23:17Z</time>
      </trkpt>
      <trkpt lat="40.227100" lon="-4.470833">
        <ele>1514.0</ele>
        <time>2013-07-02T14:23:18Z</time>
      </trkpt>
      <trkpt lat="40.227200" lon="-4.470817">
        <ele>1515.0</ele>
        <time>2013-07-02T14:23:19Z</time>
      </trkpt>
      <trkpt lat="40.227283" lon="-4.470817">
        <ele>1516.0</ele>
        <time>2013-07-02T14:23:20Z</time>
      </trkpt>
      <trkpt lat="40.227367" lon="-4.470817">
        <ele>1517.0</ele>
        <time>2013-07-02T14:23:21Z</time>
      </trkpt>
      <trkpt lat="40.227450" lon="-4.470817">
        <ele>1519.0</ele>
        <time>2013-07-02T14:23:22Z</time>
      </trkpt>
      <trkpt lat="40.227533" lon="-4.470850">
        <ele>1521.0</ele>
        <time>2013-07-02T14:23:23Z</time>
      </trkpt>
      <trkpt lat="40.227583" lon="-4.470883">
        <ele>1524.0</ele>
        <time>2013-07-02T14:23:24Z</time>
      </trkpt>
      <trkpt lat="40.227617" lon="-4.470917">
        <ele>1526.0</ele>
        <time>2013-07-02T14:23:25Z</time>
      </trkpt>
      <trkpt lat="40.227633" lon="-4.470967">
        <ele>1527.0</ele>
        <time>2013-07-02T14:23:26Z</time>
      </trkpt>
      <trkpt lat="40.227667" lon="-4.471033">
        <ele>1528.0</ele>
        <time>2013-07-02T14:23:27Z</time>
      </trkpt>
      <trkpt lat="40.227700" lon="-4.471100">
        <ele>1528.0</ele>
        <time>2013-07-02T14:23:28Z</time>
      </trkpt>
      <trkpt lat="40.227733" lon="-4.471133">
        <ele>1529.0</ele>
        <time>2013-07-02T14:23:29Z</time>
      </trkpt>
      <trkpt lat="40.227750" lon="-4.471133">
        <ele>1530.0</ele>
        <time>2013-07-02T14:23:30Z</time>
      </trkpt>
      <trkpt lat="40.227733" lon="-4.471167">
        <ele>1529.0</ele>
        <time>2013-07-02T14:23:31Z</time>
      </trkpt>
      <trkpt lat="40.227700" lon="-4.471200">
        <ele>1528.0</ele>
        <time>2013-07-02T14:23:32Z</time>
      </trkpt>
      <trkpt lat="40.227633" lon="-4.471250">
        <ele>1526.0</ele>
        <time>2013-07-02T14:23:33Z</time>
      </trkpt>
      <trkpt lat="40.227567" lon="-4.471300">
        <ele>1525.0</ele>
        <time>2013-07-02T14:23:34Z</time>
      </trkpt>
      <trkpt lat="40.227517" lon="-4.471333">
        <ele>1525.0</ele>
        <time>2013-07-02T14:23:35Z</time>
      </trkpt>
      <trkpt lat="40.227450" lon="-4.471350">
        <ele>1526.0</ele>
        <time>2013-07-02T14:23:36Z</time>
      </trkpt>
      <trkpt lat="40.227383" lon="-4.471350">
        <ele>1527.0</ele>
        <time>2013-07-02T14:23:37Z</time>
      </trkpt>
      <trkpt lat="40.227317" lon="-4.471333">
        <ele>1528.0</ele>
        <time>2013-07-02T14:23:38Z</time>
      </trkpt>
      <trkpt lat="40.227267" lon="-4.471317">
        <ele>1528.0</ele>
        <time>2013-07-02T14:23:39Z</time>
      </trkpt>
      <trkpt lat="40.227200" lon="-4.471317">
        <ele>1529.0</ele>
        <time>2013-07-02T14:23:40Z</time>
      </trkpt>
      <trkpt lat="40.227150" lon="-4.471300">
        <ele>1530.0</ele>
        <time>2013-07-02T14:23:41Z</time>
      </trkpt>
      <trkpt lat="40.227100" lon="-4.471300">
        <ele>1532.0</ele>
        <time>2013-07-02T14:23:42Z</time>
      </trkpt>
      <trkpt lat="40.227050" lon="-4.471300">
        <ele>1533.0</ele>
        <time>2013-07-02T14:23:43Z</time>
      </trkpt>
      <trkpt lat="40.227000" lon="-4.471317">
        <ele>1534.0</ele>
        <time>2013-07-02T14:23:44Z</time>
      </trkpt>
      <trkpt lat="40.226950" lon="-4.471333">
        <ele>1533.0</ele>
        <time>2013-07-02T14:23:45Z</time>
      </trkpt>
      <trkpt lat="40.226900" lon="-4.471350">
        <ele>1534.0</ele>
        <time>2013-07-02T14:23:46Z</time>
      </trkpt>
      <trkpt lat="40.226883" lon="-4.471400">
        <ele>1535.0</ele>
        <time>2013-07-02T14:23:47Z</time>
      </trkpt>
      <trkpt lat="40.226883" lon="-4.471467">
        <ele>1534.0</ele>
        <time>2013-07-02T14:23:48Z</time>
      </trkpt>
      <trkpt lat="40.226900" lon="-4.471533">
        <ele>1535.0</ele>
        <time>2013-07-02T14:23:49Z</time>
      </trkpt>
      <trkpt lat="40.226950" lon="-4.471583">
        <ele>1536.0</ele>
        <time>2013-07-02T14:23:50Z</time>
      </trkpt>
      <trkpt lat="40.227017" lon="-4.471617">
        <ele>1537.0</ele>
        <time>2013-07-02T14:23:51Z</time>
      </trkpt>
      <trkpt lat="40.227083" lon="-4.471667">
        <ele>1538.0</ele>
        <time>2013-07-02T14:23:52Z</time>
      </trkpt>
      <trkpt lat="40.227150" lon="-4.471700">
        <ele>1538.0</ele>
        <time>2013-07-02T14:23:53Z</time>
      </trkpt>
      <trkpt lat="40.227217" lon="-4.471717">
        <ele>1538.0</ele>
        <time>2013-07-02T14:23:54Z</time>
      </trkpt>
      <trkpt lat="40.227300" lon="-4.471717">
        <ele>1538.0</ele>
        <time>2013-07-02T14:23:55Z</time>
      </trkpt>
      <trkpt lat="40.227383" lon="-4.471683">
        <ele>1537.0</ele>
        <time>2013-07-02T14:23:56Z</time>
      </trkpt>
      <trkpt lat="40.227450" lon="-4.471617">
        <ele>1536.0</ele>
        <time>2013-07-02T14:23:57Z</time>
      </trkpt>
      <trkpt lat="40.227500" lon="-4.471517">
        <ele>1534.0</ele>
        <time>2013-07-02T14:23:58Z</time>
      </trkpt>
      <trkpt lat="40.227533" lon="-4.471383">
        <ele>1531.0</ele>
        <time>2013-07-02T14:23:59Z</time>
      </trkpt>
      <trkpt lat="40.227550" lon="-4.471267">
        <ele>1528.0</ele>
        <time>2013-07-02T14:24:00Z</time>
      </trkpt>
      <trkpt lat="40.227533" lon="-4.471117">
        <ele>1526.0</ele>
        <time>2013-07-02T14:24:01Z</time>
      </trkpt>
      <trkpt lat="40.227517" lon="-4.470967">
        <ele>1523.0</ele>
        <time>2013-07-02T14:24:02Z</time>
      </trkpt>
      <trkpt lat="40.227500" lon="-4.470817">
        <ele>1522.0</ele>
        <time>2013-07-02T14:24:03Z</time>
      </trkpt>
      <trkpt lat="40.227483" lon="-4.470667">
        <ele>1521.0</ele>
        <time>2013-07-02T14:24:04Z</time>
      </trkpt>
      <trkpt lat="40.227467" lon="-4.470517">
        <ele>1520.0</ele>
        <time>2013-07-02T14:24:05Z</time>
      </trkpt>
      <trkpt lat="40.227433" lon="-4.470367">
        <ele>1520.0</ele>
        <time>2013-07-02T14:24:06Z</time>
      </trkpt>
      <trkpt lat="40.227400" lon="-4.470250">
        <ele>1520.0</ele>
        <time>2013-07-02T14:24:07Z</time>
      </trkpt>
      <trkpt lat="40.227367" lon="-4.470117">
        <ele>1520.0</ele>
        <time>2013-07-02T14:24:08Z</time>
      </trkpt>
      <trkpt lat="40.227333" lon="-4.470017">
        <ele>1520.0</ele>
        <time>2013-07-02T14:24:09Z</time>
      </trkpt>
      <trkpt lat="40.227283" lon="-4.469900">
        <ele>1522.0</ele>
        <time>2013-07-02T14:24:10Z</time>
      </trkpt>
      <trkpt lat="40.227233" lon="-4.469817">
        <ele>1523.0</ele>
        <time>2013-07-02T14:24:11Z</time>
      </trkpt>
      <trkpt lat="40.227200" lon="-4.469733">
        <ele>1524.0</ele>
        <time>2013-07-02T14:24:12Z</time>
      </trkpt>
      <trkpt lat="40.227133" lon="-4.469667">
        <ele>1525.0</ele>
        <time>2013-07-02T14:24:13Z</time>
      </trkpt>
      <trkpt lat="40.227083" lon="-4.469583">
        <ele>1526.0</ele>
        <time>2013-07-02T14:24:14Z</time>
      </trkpt>
      <trkpt lat="40.227017" lon="-4.469483">
        <ele>1528.0</ele>
        <time>2013-07-02T14:24:15Z</time>
      </trkpt>
      <trkpt lat="40.226967" lon="-4.469400">
        <ele>1528.0</ele>
        <time>2013-07-02T14:24:16Z</time>
      </trkpt>
      <trkpt lat="40.226917" lon="-4.469317">
        <ele>1529.0</ele>
        <time>2013-07-02T14:24:17Z</time>
      </trkpt>
      <trkpt lat="40.226850" lon="-4.469217">
        <ele>1530.0</ele>
        <time>2013-07-02T14:24:18Z</time>
      </trkpt>
      <trkpt lat="40.226783" lon="-4.469100">
        <ele>1532.0</ele>
        <time>2013-07-02T14:24:19Z</time>
      </trkpt>
      <trkpt lat="40.226750" lon="-4.468983">
        <ele>1534.0</ele>
        <time>2013-07-02T14:24:20Z</time>
      </trkpt>
      <trkpt lat="40.226717" lon="-4.468883">
        <ele>1538.0</ele>
        <time>2013-07-02T14:24:21Z</time>
      </trkpt>
      <trkpt lat="40.226683" lon="-4.468783">
        <ele>1541.0</ele>
        <time>2013-07-02T14:24:22Z</time>
      </trkpt>
      <trkpt lat="40.226650" lon="-4.468683">
        <ele>1543.0</ele>
        <time>2013-07-02T14:24:23Z</time>
      </trkpt>
      <trkpt lat="40.226633" lon="-4.468567">
        <ele>1545.0</ele>
        <time>2013-07-02T14:24:24Z</time>
      </trkpt>
      <trkpt lat="40.226633" lon="-4.468417">
        <ele>1546.0</ele>
        <time>2013-07-02T14:24:25Z</time>
      </trkpt>
      <trkpt lat="40.226650" lon="-4.468267">
        <ele>1548.0</ele>
        <time>2013-07-02T14:24:26Z</time>
      </trkpt>
      <trkpt lat="40.226717" lon="-4.468133">
        <ele>1550.0</ele>
        <time>2013-07-02T14:24:27Z</time>
      </trkpt>
      <trkpt lat="40.226800" lon="-4.468033">
        <ele>1553.0</ele>
        <time>2013-07-02T14:24:28Z</time>
      </trkpt>
      <trkpt lat="40.226883" lon="-4.467967">
        <ele>1555.0</ele>
        <time>2013-07-02T14:24:29Z</time>
      </trkpt>
      <trkpt lat="40.226983" lon="-4.467967">
        <ele>1557.0</ele>
        <time>2013-07-02T14:24:30Z</time>
      </trkpt>
      <trkpt lat="40.227067" lon="-4.467983">
        <ele>1559.0</ele>
        <time>2013-07-02T14:24:31Z</time>
      </trkpt>
      <trkpt lat="40.227133" lon="-4.468033">
        <ele>1561.0</ele>
        <time>2013-07-02T14:24:32Z</time>
      </trkpt>
      <trkpt lat="40.227167" lon="-4.468117">
        <ele>1564.0</ele>
        <time>2013-07-02T14:24:33Z</time>
      </trkpt>
      <trkpt lat="40.227183" lon="-4.468200">
        <ele>1566.0</ele>
        <time>2013-07-02T14:24:34Z</time>
      </trkpt>
      <trkpt lat="40.227167" lon="-4.468283">
        <ele>1568.0</ele>
        <time>2013-07-02T14:24:35Z</time>
      </trkpt>
      <trkpt lat="40.227100" lon="-4.468317">
        <ele>1570.0</ele>
        <time>2013-07-02T14:24:36Z</time>
      </trkpt>
      <trkpt lat="40.227017" lon="-4.468317">
        <ele>1572.0</ele>
        <time>2013-07-02T14:24:37Z</time>
      </trkpt>
      <trkpt lat="40.226917" lon="-4.468250">
        <ele>1572.0</ele>
        <time>2013-07-02T14:24:38Z</time>
      </trkpt>
      <trkpt lat="40.226850" lon="-4.468117">
        <ele>1574.0</ele>
        <time>2013-07-02T14:24:39Z</time>
      </trkpt>
      <trkpt lat="40.226850" lon="-4.467967">
        <ele>1577.0</ele>
        <time>2013-07-02T14:24:40Z</time>
      </trkpt>
      <trkpt lat="40.226883" lon="-4.467817">
        <ele>1579.0</ele>
        <time>2013-07-02T14:24:41Z</time>
      </trkpt>
      <trkpt lat="40.226933" lon="-4.467700">
        <ele>1582.0</ele>
        <time>2013-07-02T14:24:42Z</time>
      </trkpt>
      <trkpt lat="40.226983" lon="-4.467583">
        <ele>1584.0</ele>
        <time>2013-07-02T14:24:43Z</time>
      </trkpt>
      <trkpt lat="40.227050" lon="-4.467483">
        <ele>1588.0</ele>
        <time>2013-07-02T14:24:44Z</time>
      </trkpt>
      <trkpt lat="40.227117" lon="-4.467400">
        <ele>1591.0</ele>
        <time>2013-07-02T14:24:45Z</time>
      </trkpt>
      <trkpt lat="40.227200" lon="-4.467367">
        <ele>1594.0</ele>
        <time>2013-07-02T14:24:46Z</time>
      </trkpt>
      <trkpt lat="40.227300" lon="-4.467350">
        <ele>1594.0</ele>
        <time>2013-07-02T14:24:47Z</time>
      </trkpt>
      <trkpt lat="40.227383" lon="-4.467383">
        <ele>1596.0</ele>
        <time>2013-07-02T14:24:48Z</time>
      </trkpt>
      <trkpt lat="40.227450" lon="-4.467417">
        <ele>1599.0</ele>
        <time>2013-07-02T14:24:49Z</time>
      </trkpt>
      <trkpt lat="40.227500" lon="-4.467483">
        <ele>1600.0</ele>
        <time>2013-07-02T14:24:50Z</time>
      </trkpt>
      <trkpt lat="40.227517" lon="-4.467550">
        <ele>1602.0</ele>
        <time>2013-07-02T14:24:51Z</time>
      </trkpt>
      <trkpt lat="40.227533" lon="-4.467633">
        <ele>1604.0</ele>
        <time>2013-07-02T14:24:52Z</time>
      </trkpt>
      <trkpt lat="40.227533" lon="-4.467700">
        <ele>1605.0</ele>
        <time>2013-07-02T14:24:53Z</time>
      </trkpt>
      <trkpt lat="40.227500" lon="-4.467750">
        <ele>1605.0</ele>
        <time>2013-07-02T14:24:54Z</time>
      </trkpt>
      <trkpt lat="40.227433" lon="-4.467783">
        <ele>1606.0</ele>
        <time>2013-07-02T14:24:55Z</time>
      </trkpt>
      <trkpt lat="40.227333" lon="-4.467800">
        <ele>1606.0</ele>
        <time>2013-07-02T14:24:56Z</time>
      </trkpt>
      <trkpt lat="40.227233" lon="-4.467800">
        <ele>1605.0</ele>
        <time>2013-07-02T14:24:57Z</time>
      </trkpt>
      <trkpt lat="40.227150" lon="-4.467750">
        <ele>1604.0</ele>
        <time>2013-07-02T14:24:58Z</time>
      </trkpt>
      <trkpt lat="40.227050" lon="-4.467650">
        <ele>1603.0</ele>
        <time>2013-07-02T14:24:59Z</time>
      </trkpt>
      <trkpt lat="40.226983" lon="-4.467517">
        <ele>1602.0</ele>
        <time>2013-07-02T14:25:00Z</time>
      </trkpt>
      <trkpt lat="40.226933" lon="-4.467367">
        <ele>1604.0</ele>
        <time>2013-07-02T14:25:01Z</time>
      </trkpt>
      <trkpt lat="40.226883" lon="-4.467217">
        <ele>1606.0</ele>
        <time>2013-07-02T14:25:02Z</time>
      </trkpt>
      <trkpt lat="40.226850" lon="-4.467067">
        <ele>1609.0</ele>
        <time>2013-07-02T14:25:03Z</time>
      </trkpt>
      <trkpt lat="40.226817" lon="-4.466933">
        <ele>1611.0</ele>
        <time>2013-07-02T14:25:04Z</time>
      </trkpt>
      <trkpt lat="40.226800" lon="-4.466800">
        <ele>1614.0</ele>
        <time>2013-07-02T14:25:05Z</time>
      </trkpt>
      <trkpt lat="40.226783" lon="-4.466683">
        <ele>1616.0</ele>
        <time>2013-07-02T14:25:06Z</time>
      </trkpt>
      <trkpt lat="40.226767" lon="-4.466567">
        <ele>1618.0</ele>
        <time>2013-07-02T14:25:07Z</time>
      </trkpt>
      <trkpt lat="40.226750" lon="-4.466417">
        <ele>1619.0</ele>
        <time>2013-07-02T14:25:08Z</time>
      </trkpt>
      <trkpt lat="40.226733" lon="-4.466267">
        <ele>1621.0</ele>
        <time>2013-07-02T14:25:09Z</time>
      </trkpt>
      <trkpt lat="40.226733" lon="-4.466117">
        <ele>1623.0</ele>
        <time>2013-07-02T14:25:10Z</time>
      </trkpt>
      <trkpt lat="40.226750" lon="-4.465950">
        <ele>1624.0</ele>
        <time>2013-07-02T14:25:11Z</time>
      </trkpt>
      <trkpt lat="40.226800" lon="-4.465800">
        <ele>1626.0</ele>
        <time>2013-07-02T14:25:12Z</time>
      </trkpt>
      <trkpt lat="40.226850" lon="-4.465650">
        <ele>1627.0</ele>
        <time>2013-07-02T14:25:13Z</time>
      </trkpt>
      <trkpt lat="40.226900" lon="-4.465500">
        <ele>1628.0</ele>
        <time>2013-07-02T14:25:14Z</time>
      </trkpt>
      <trkpt lat="40.226983" lon="-4.465350">
        <ele>1630.0</ele>
        <time>2013-07-02T14:25:15Z</time>
      </trkpt>
      <trkpt lat="40.227067" lon="-4.465217">
        <ele>1632.0</ele>
        <time>2013-07-02T14:25:16Z</time>
      </trkpt>
      <trkpt lat="40.227167" lon="-4.465117">
        <ele>1635.0</ele>
        <time>2013-07-02T14:25:17Z</time>
      </trkpt>
      <trkpt lat="40.227267" lon="-4.465067">
        <ele>1638.0</ele>
        <time>2013-07-02T14:25:18Z</time>
      </trkpt>
      <trkpt lat="40.227350" lon="-4.465033">
        <ele>1641.0</ele>
        <time>2013-07-02T14:25:19Z</time>
      </trkpt>
      <trkpt lat="40.227433" lon="-4.465000">
        <ele>1643.0</ele>
        <time>2013-07-02T14:25:20Z</time>
      </trkpt>
      <trkpt lat="40.227533" lon="-4.465000">
        <ele>1645.0</ele>
        <time>2013-07-02T14:25:21Z</time>
      </trkpt>
      <trkpt lat="40.227600" lon="-4.465000">
        <ele>1647.0</ele>
        <time>2013-07-02T14:25:22Z</time>
      </trkpt>
      <trkpt lat="40.227667" lon="-4.465017">
        <ele>1648.0</ele>
        <time>2013-07-02T14:25:23Z</time>
      </trkpt>
      <trkpt lat="40.227717" lon="-4.465050">
        <ele>1649.0</ele>
        <time>2013-07-02T14:25:24Z</time>
      </trkpt>
      <trkpt lat="40.227767" lon="-4.465117">
        <ele>1650.0</ele>
        <time>2013-07-02T14:25:25Z</time>
      </trkpt>
      <trkpt lat="40.227800" lon="-4.465183">
        <ele>1650.0</ele>
        <time>2013-07-02T14:25:26Z</time>
      </trkpt>
      <trkpt lat="40.227800" lon="-4.465267">
        <ele>1651.0</ele>
        <time>2013-07-02T14:25:27Z</time>
      </trkpt>
      <trkpt lat="40.227750" lon="-4.465333">
        <ele>1651.0</ele>
        <time>2013-07-02T14:25:28Z</time>
      </trkpt>
      <trkpt lat="40.227683" lon="-4.465333">
        <ele>1652.0</ele>
        <time>2013-07-02T14:25:29Z</time>
      </trkpt>
      <trkpt lat="40.227600" lon="-4.465317">
        <ele>1654.0</ele>
        <time>2013-07-02T14:25:30Z</time>
      </trkpt>
      <trkpt lat="40.227550" lon="-4.465250">
        <ele>1657.0</ele>
        <time>2013-07-02T14:25:31Z</time>
      </trkpt>
      <trkpt lat="40.227500" lon="-4.465167">
        <ele>1659.0</ele>
        <time>2013-07-02T14:25:32Z</time>
      </trkpt>
      <trkpt lat="40.227467" lon="-4.465067">
        <ele>1661.0</ele>
        <time>2013-07-02T14:25:33Z</time>
      </trkpt>
      <trkpt lat="40.227417" lon="-4.464983">
        <ele>1662.0</ele>
        <time>2013-07-02T14:25:34Z</time>
      </trkpt>
      <trkpt lat="40.227383" lon="-4.464883">
        <ele>1663.0</ele>
        <time>2013-07-02T14:25:35Z</time>
      </trkpt>
      <trkpt lat="40.227350" lon="-4.464767">
        <ele>1663.0</ele>
        <time>2013-07-02T14:25:36Z</time>
      </trkpt>
      <trkpt lat="40.227333" lon="-4.464617">
        <ele>1664.0</ele>
        <time>2013-07-02T14:25:37Z</time>
      </trkpt>
      <trkpt lat="40.227350" lon="-4.464450">
        <ele>1664.0</ele>
        <time>2013-07-02T14:25:38Z</time>
      </trkpt>
      <trkpt lat="40.227400" lon="-4.464300">
        <ele>1665.0</ele>
        <time>2013-07-02T14:25:39Z</time>
      </trkpt>
      <trkpt lat="40.227483" lon="-4.464150">
        <ele>1665.0</ele>
        <time>2013-07-02T14:25:40Z</time>
      </trkpt>
      <trkpt lat="40.227583" lon="-4.464033">
        <ele>1666.0</ele>
        <time>2013-07-02T14:25:41Z</time>
      </trkpt>
      <trkpt lat="40.227683" lon="-4.463967">
        <ele>1668.0</ele>
        <time>2013-07-02T14:25:42Z</time>
      </trkpt>
      <trkpt lat="40.227800" lon="-4.463917">
        <ele>1671.0</ele>
        <time>2013-07-02T14:25:43Z</time>
      </trkpt>
      <trkpt lat="40.227883" lon="-4.463900">
        <ele>1675.0</ele>
        <time>2013-07-02T14:25:44Z</time>
      </trkpt>
      <trkpt lat="40.227967" lon="-4.463900">
        <ele>1677.0</ele>
        <time>2013-07-02T14:25:45Z</time>
      </trkpt>
      <trkpt lat="40.228050" lon="-4.463900">
        <ele>1679.0</ele>
        <time>2013-07-02T14:25:46Z</time>
      </trkpt>
      <trkpt lat="40.228133" lon="-4.463900">
        <ele>1681.0</ele>
        <time>2013-07-02T14:25:47Z</time>
      </trkpt>
      <trkpt lat="40.228233" lon="-4.463917">
        <ele>1682.0</ele>
        <time>2013-07-02T14:25:48Z</time>
      </trkpt>
      <trkpt lat="40.228300" lon="-4.463933">
        <ele>1684.0</ele>
        <time>2013-07-02T14:25:49Z</time>
      </trkpt>
      <trkpt lat="40.228350" lon="-4.463983">
        <ele>1685.0</ele>
        <time>2013-07-02T14:25:50Z</time>
      </trkpt>
      <trkpt lat="40.228400" lon="-4.464033">
        <ele>1686.0</ele>
        <time>2013-07-02T14:25:51Z</time>
      </trkpt>
      <trkpt lat="40.228433" lon="-4.464117">
        <ele>1688.0</ele>
        <time>2013-07-02T14:25:52Z</time>
      </trkpt>
      <trkpt lat="40.228450" lon="-4.464167">
        <ele>1691.0</ele>
        <time>2013-07-02T14:25:53Z</time>
      </trkpt>
      <trkpt lat="40.228467" lon="-4.464233">
        <ele>1693.0</ele>
        <time>2013-07-02T14:25:54Z</time>
      </trkpt>
      <trkpt lat="40.228467" lon="-4.464300">
        <ele>1693.0</ele>
        <time>2013-07-02T14:25:55Z</time>
      </trkpt>
      <trkpt lat="40.228450" lon="-4.464383">
        <ele>1694.0</ele>
        <time>2013-07-02T14:25:56Z</time>
      </trkpt>
      <trkpt lat="40.228467" lon="-4.464467">
        <ele>1695.0</ele>
        <time>2013-07-02T14:25:57Z</time>
      </trkpt>
      <trkpt lat="40.228500" lon="-4.464517">
        <ele>1698.0</ele>
        <time>2013-07-02T14:25:58Z</time>
      </trkpt>
      <trkpt lat="40.228533" lon="-4.464567">
        <ele>1701.0</ele>
        <time>2013-07-02T14:25:59Z</time>
      </trkpt>
      <trkpt lat="40.228550" lon="-4.464600">
        <ele>1702.0</ele>
        <time>2013-07-02T14:26:00Z</time>
      </trkpt>
      <trkpt lat="40.228533" lon="-4.464650">
        <ele>1703.0</ele>
        <time>2013-07-02T14:26:01Z</time>
      </trkpt>
      <trkpt lat="40.228500" lon="-4.464700">
        <ele>1701.0</ele>
        <time>2013-07-02T14:26:02Z</time>
      </trkpt>
      <trkpt lat="40.228450" lon="-4.464733">
        <ele>1700.0</ele>
        <time>2013-07-02T14:26:03Z</time>
      </trkpt>
      <trkpt lat="40.228383" lon="-4.464750">
        <ele>1700.0</ele>
        <time>2013-07-02T14:26:04Z</time>
      </trkpt>
      <trkpt lat="40.228317" lon="-4.464733">
        <ele>1699.0</ele>
        <time>2013-07-02T14:26:05Z</time>
      </trkpt>
      <trkpt lat="40.228233" lon="-4.464683">
        <ele>1698.0</ele>
        <time>2013-07-02T14:26:06Z</time>
      </trkpt>
      <trkpt lat="40.228133" lon="-4.464617">
        <ele>1697.0</ele>
        <time>2013-07-02T14:26:07Z</time>
      </trkpt>
      <trkpt lat="40.228067" lon="-4.464517">
        <ele>1696.0</ele>
        <time>2013-07-02T14:26:08Z</time>
      </trkpt>
      <trkpt lat="40.228000" lon="-4.464400">
        <ele>1696.0</ele>
        <time>2013-07-02T14:26:09Z</time>
      </trkpt>
      <trkpt lat="40.227967" lon="-4.464267">
        <ele>1695.0</ele>
        <time>2013-07-02T14:26:10Z</time>
      </trkpt>
      <trkpt lat="40.227933" lon="-4.464133">
        <ele>1694.0</ele>
        <time>2013-07-02T14:26:11Z</time>
      </trkpt>
      <trkpt lat="40.227917" lon="-4.463983">
        <ele>1694.0</ele>
        <time>2013-07-02T14:26:12Z</time>
      </trkpt>
      <trkpt lat="40.227883" lon="-4.463817">
        <ele>1693.0</ele>
        <time>2013-07-02T14:26:13Z</time>
      </trkpt>
      <trkpt lat="40.227850" lon="-4.463633">
        <ele>1691.0</ele>
        <time>2013-07-02T14:26:14Z</time>
      </trkpt>
      <trkpt lat="40.227833" lon="-4.463433">
        <ele>1690.0</ele>
        <time>2013-07-02T14:26:15Z</time>
      </trkpt>
      <trkpt lat="40.227833" lon="-4.463217">
        <ele>1691.0</ele>
        <time>2013-07-02T14:26:16Z</time>
      </trkpt>
      <trkpt lat="40.227817" lon="-4.462983">
        <ele>1695.0</ele>
        <time>2013-07-02T14:26:17Z</time>
      </trkpt>
      <trkpt lat="40.227817" lon="-4.462783">
        <ele>1701.0</ele>
        <time>2013-07-02T14:26:18Z</time>
      </trkpt>
      <trkpt lat="40.227800" lon="-4.462617">
        <ele>1706.0</ele>
        <time>2013-07-02T14:26:19Z</time>
      </trkpt>
      <trkpt lat="40.227800" lon="-4.462467">
        <ele>1709.0</ele>
        <time>2013-07-02T14:26:20Z</time>
      </trkpt>
      <trkpt lat="40.227800" lon="-4.462300">
        <ele>1712.0</ele>
        <time>2013-07-02T14:26:21Z</time>
      </trkpt>
      <trkpt lat="40.227800" lon="-4.462133">
        <ele>1716.0</ele>
        <time>2013-07-02T14:26:22Z</time>
      </trkpt>
      <trkpt lat="40.227833" lon="-4.461967">
        <ele>1719.0</ele>
        <time>2013-07-02T14:26:23Z</time>
      </trkpt>
      <trkpt lat="40.227883" lon="-4.461833">
        <ele>1722.0</ele>
        <time>2013-07-02T14:26:24Z</time>
      </trkpt>
      <trkpt lat="40.227950" lon="-4.461700">
        <ele>1725.0</ele>
        <time>2013-07-02T14:26:25Z</time>
      </trkpt>
      <trkpt lat="40.228017" lon="-4.461583">
        <ele>1728.0</ele>
        <time>2013-07-02T14:26:26Z</time>
      </trkpt>
      <trkpt lat="40.228100" lon="-4.461483">
        <ele>1731.0</ele>
        <time>2013-07-02T14:26:27Z</time>
      </trkpt>
      <trkpt lat="40.228183" lon="-4.461417">
        <ele>1734.0</ele>
        <time>2013-07-02T14:26:28Z</time>
      </trkpt>
      <trkpt lat="40.228250" lon="-4.461350">
        <ele>1736.0</ele>
        <time>2013-07-02T14:26:29Z</time>
      </trkpt>
      <trkpt lat="40.228333" lon="-4.461317">
        <ele>1738.0</ele>
        <time>2013-07-02T14:26:30Z</time>
      </trkpt>
      <trkpt lat="40.228417" lon="-4.461317">
        <ele>1739.0</ele>
        <time>2013-07-02T14:26:31Z</time>
      </trkpt>
      <trkpt lat="40.228500" lon="-4.461333">
        <ele>1741.0</ele>
        <time>2013-07-02T14:26:32Z</time>
      </trkpt>
      <trkpt lat="40.228567" lon="-4.461367">
        <ele>1743.0</ele>
        <time>2013-07-02T14:26:33Z</time>
      </trkpt>
      <trkpt lat="40.228600" lon="-4.461417">
        <ele>1745.0</ele>
        <time>2013-07-02T14:26:34Z</time>
      </trkpt>
      <trkpt lat="40.228633" lon="-4.461467">
        <ele>1747.0</ele>
        <time>2013-07-02T14:26:35Z</time>
      </trkpt>
      <trkpt lat="40.228633" lon="-4.461517">
        <ele>1748.0</ele>
        <time>2013-07-02T14:26:36Z</time>
      </trkpt>
      <trkpt lat="40.228633" lon="-4.461583">
        <ele>1749.0</ele>
        <time>2013-07-02T14:26:37Z</time>
      </trkpt>
      <trkpt lat="40.228617" lon="-4.461633">
        <ele>1750.0</ele>
        <time>2013-07-02T14:26:38Z</time>
      </trkpt>
      <trkpt lat="40.228583" lon="-4.461700">
        <ele>1751.0</ele>
        <time>2013-07-02T14:26:39Z</time>
      </trkpt>
      <trkpt lat="40.228517" lon="-4.461733">
        <ele>1752.0</ele>
        <time>2013-07-02T14:26:40Z</time>
      </trkpt>
      <trkpt lat="40.228450" lon="-4.461733">
        <ele>1755.0</ele>
        <time>2013-07-02T14:26:41Z</time>
      </trkpt>
      <trkpt lat="40.228367" lon="-4.461683">
        <ele>1758.0</ele>
        <time>2013-07-02T14:26:42Z</time>
      </trkpt>
      <trkpt lat="40.228283" lon="-4.461633">
        <ele>1763.0</ele>
        <time>2013-07-02T14:26:43Z</time>
      </trkpt>
      <trkpt lat="40.228217" lon="-4.461550">
        <ele>1767.0</ele>
        <time>2013-07-02T14:26:44Z</time>
      </trkpt>
      <trkpt lat="40.228150" lon="-4.461467">
        <ele>1772.0</ele>
        <time>2013-07-02T14:26:45Z</time>
      </trkpt>
      <trkpt lat="40.228100" lon="-4.461350">
        <ele>1777.0</ele>
        <time>2013-07-02T14:26:46Z</time>
      </trkpt>
      <trkpt lat="40.228067" lon="-4.461217">
        <ele>1781.0</ele>
        <time>2013-07-02T14:26:47Z</time>
      </trkpt>
      <trkpt lat="40.228033" lon="-4.461067">
        <ele>1785.0</ele>
        <time>2013-07-02T14:26:48Z</time>
      </trkpt>
      <trkpt lat="40.228017" lon="-4.460900">
        <ele>1789.0</ele>
        <time>2013-07-02T14:26:49Z</time>
      </trkpt>
      <trkpt lat="40.228000" lon="-4.460750">
        <ele>1794.0</ele>
        <time>2013-07-02T14:26:50Z</time>
      </trkpt>
      <trkpt lat="40.227967" lon="-4.460583">
        <ele>1798.0</ele>
        <time>2013-07-02T14:26:51Z</time>
      </trkpt>
      <trkpt lat="40.227950" lon="-4.460417">
        <ele>1801.0</ele>
        <time>2013-07-02T14:26:52Z</time>
      </trkpt>
      <trkpt lat="40.227933" lon="-4.460233">
        <ele>1805.0</ele>
        <time>2013-07-02T14:26:53Z</time>
      </trkpt>
      <trkpt lat="40.227917" lon="-4.460050">
        <ele>1809.0</ele>
        <time>2013-07-02T14:26:54Z</time>
      </trkpt>
      <trkpt lat="40.227900" lon="-4.459850">
        <ele>1813.0</ele>
        <time>2013-07-02T14:26:55Z</time>
      </trkpt>
      <trkpt lat="40.227883" lon="-4.459667">
        <ele>1816.0</ele>
        <time>2013-07-02T14:26:56Z</time>
      </trkpt>
      <trkpt lat="40.227867" lon="-4.459483">
        <ele>1819.0</ele>
        <time>2013-07-02T14:26:57Z</time>
      </trkpt>
      <trkpt lat="40.227850" lon="-4.459317">
        <ele>1822.0</ele>
        <time>2013-07-02T14:26:58Z</time>
      </trkpt>
      <trkpt lat="40.227833" lon="-4.459117">
        <ele>1825.0</ele>
        <time>2013-07-02T14:26:59Z</time>
      </trkpt>
      <trkpt lat="40.227817" lon="-4.458933">
        <ele>1829.0</ele>
        <time>2013-07-02T14:27:00Z</time>
      </trkpt>
      <trkpt lat="40.227817" lon="-4.458750">
        <ele>1833.0</ele>
        <time>2013-07-02T14:27:01Z</time>
      </trkpt>
      <trkpt lat="40.227817" lon="-4.458583">
        <ele>1837.0</ele>
        <time>2013-07-02T14:27:02Z</time>
      </trkpt>
      <trkpt lat="40.227833" lon="-4.458417">
        <ele>1841.0</ele>
        <time>2013-07-02T14:27:03Z</time>
      </trkpt>
      <trkpt lat="40.227833" lon="-4.458233">
        <ele>1843.0</ele>
        <time>2013-07-02T14:27:04Z</time>
      </trkpt>
      <trkpt lat="40.227850" lon="-4.458050">
        <ele>1846.0</ele>
        <time>2013-07-02T14:27:05Z</time>
      </trkpt>
      <trkpt lat="40.227850" lon="-4.457850">
        <ele>1850.0</ele>
        <time>2013-07-02T14:27:06Z</time>
      </trkpt>
      <trkpt lat="40.227867" lon="-4.457650">
        <ele>1854.0</ele>
        <time>2013-07-02T14:27:07Z</time>
      </trkpt>
      <trkpt lat="40.227867" lon="-4.457467">
        <ele>1858.0</ele>
        <time>2013-07-02T14:27:08Z</time>
      </trkpt>
      <trkpt lat="40.227883" lon="-4.457283">
        <ele>1862.0</ele>
        <time>2013-07-02T14:27:09Z</time>
      </trkpt>
      <trkpt lat="40.227883" lon="-4.457100">
        <ele>1865.0</ele>
        <time>2013-07-02T14:27:10Z</time>
      </trkpt>
      <trkpt lat="40.227900" lon="-4.456900">
        <ele>1868.0</ele>
        <time>2013-07-02T14:27:11Z</time>
      </trkpt>
      <trkpt lat="40.227917" lon="-4.456700">
        <ele>1871.0</ele>
        <time>2013-07-02T14:27:12Z</time>
      </trkpt>
      <trkpt lat="40.227933" lon="-4.456483">
        <ele>1875.0</ele>
        <time>2013-07-02T14:27:13Z</time>
      </trkpt>
      <trkpt lat="40.227967" lon="-4.456283">
        <ele>1880.0</ele>
        <time>2013-07-02T14:27:14Z</time>
      </trkpt>
      <trkpt lat="40.227983" lon="-4.456083">
        <ele>1884.0</ele>
        <time>2013-07-02T14:27:15Z</time>
      </trkpt>
      <trkpt lat="40.228000" lon="-4.455883">
        <ele>1888.0</ele>
        <time>2013-07-02T14:27:16Z</time>
      </trkpt>
      <trkpt lat="40.228000" lon="-4.455683">
        <ele>1892.0</ele>
        <time>2013-07-02T14:27:17Z</time>
      </trkpt>
      <trkpt lat="40.228017" lon="-4.455483">
        <ele>1896.0</ele>
        <time>2013-07-02T14:27:18Z</time>
      </trkpt>
      <trkpt lat="40.228050" lon="-4.455283">
        <ele>1902.0</ele>
        <time>2013-07-02T14:27:19Z</time>
      </trkpt>
      <trkpt lat="40.228067" lon="-4.455083">
        <ele>1907.0</ele>
        <time>2013-07-02T14:27:20Z</time>
      </trkpt>
      <trkpt lat="40.228100" lon="-4.454900">
        <ele>1912.0</ele>
        <time>2013-07-02T14:27:21Z</time>
      </trkpt>
      <trkpt lat="40.228133" lon="-4.454700">
        <ele>1916.0</ele>
        <time>2013-07-02T14:27:22Z</time>
      </trkpt>
      <trkpt lat="40.228150" lon="-4.454517">
        <ele>1920.0</ele>
        <time>2013-07-02T14:27:23Z</time>
      </trkpt>
      <trkpt lat="40.228167" lon="-4.454333">
        <ele>1923.0</ele>
        <time>2013-07-02T14:27:24Z</time>
      </trkpt>
      <trkpt lat="40.228167" lon="-4.454167">
        <ele>1925.0</ele>
        <time>2013-07-02T14:27:25Z</time>
      </trkpt>
      <trkpt lat="40.228167" lon="-4.453967">
        <ele>1928.0</ele>
        <time>2013-07-02T14:27:26Z</time>
      </trkpt>
      <trkpt lat="40.228183" lon="-4.453767">
        <ele>1931.0</ele>
        <time>2013-07-02T14:27:27Z</time>
      </trkpt>
      <trkpt lat="40.228217" lon="-4.453567">
        <ele>1935.0</ele>
        <time>2013-07-02T14:27:28Z</time>
      </trkpt>
      <trkpt lat="40.228250" lon="-4.453383">
        <ele>1940.0</ele>
        <time>2013-07-02T14:27:29Z</time>
      </trkpt>
      <trkpt lat="40.228283" lon="-4.453233">
        <ele>1945.0</ele>
        <time>2013-07-02T14:27:30Z</time>
      </trkpt>
      <trkpt lat="40.228300" lon="-4.453083">
        <ele>1949.0</ele>
        <time>2013-07-02T14:27:31Z</time>
      </trkpt>
      <trkpt lat="40.228300" lon="-4.452933">
        <ele>1952.0</ele>
        <time>2013-07-02T14:27:32Z</time>
      </trkpt>
      <trkpt lat="40.228317" lon="-4.452767">
        <ele>1955.0</ele>
        <time>2013-07-02T14:27:33Z</time>
      </trkpt>
      <trkpt lat="40.228350" lon="-4.452567">
        <ele>1957.0</ele>
        <time>2013-07-02T14:27:34Z</time>
      </trkpt>
      <trkpt lat="40.228383" lon="-4.452367">
        <ele>1960.0</ele>
        <time>2013-07-02T14:27:35Z</time>
      </trkpt>
      <trkpt lat="40.228433" lon="-4.452183">
        <ele>1964.0</ele>
        <time>2013-07-02T14:27:36Z</time>
      </trkpt>
      <trkpt lat="40.228467" lon="-4.452000">
        <ele>1968.0</ele>
        <time>2013-07-02T14:27:37Z</time>
      </trkpt>
      <trkpt lat="40.228500" lon="-4.451817">
        <ele>1972.0</ele>
        <time>2013-07-02T14:27:38Z</time>
      </trkpt>
      <trkpt lat="40.228517" lon="-4.451633">
        <ele>1976.0</ele>
        <time>2013-07-02T14:27:39Z</time>
      </trkpt>
      <trkpt lat="40.228533" lon="-4.451450">
        <ele>1979.0</ele>
        <time>2013-07-02T14:27:40Z</time>
      </trkpt>
      <trkpt lat="40.228533" lon="-4.451267">
        <ele>1981.0</ele>
        <time>2013-07-02T14:27:41Z</time>
      </trkpt>
      <trkpt lat="40.228533" lon="-4.451083">
        <ele>1984.0</ele>
        <time>2013-07-02T14:27:42Z</time>
      </trkpt>
      <trkpt lat="40.228533" lon="-4.450900">
        <ele>1987.0</ele>
        <time>2013-07-02T14:27:43Z</time>
      </trkpt>
      <trkpt lat="40.228550" lon="-4.450717">
        <ele>1991.0</ele>
        <time>2013-07-02T14:27:44Z</time>
      </trkpt>
      <trkpt lat="40.228550" lon="-4.450533">
        <ele>1994.0</ele>
        <time>2013-07-02T14:27:45Z</time>
      </trkpt>
      <trkpt lat="40.228550" lon="-4.450333">
        <ele>1997.0</ele>
        <time>2013-07-02T14:27:46Z</time>
      </trkpt>
      <trkpt lat="40.228550" lon="-4.450133">
        <ele>2002.0</ele>
        <time>2013-07-02T14:27:47Z</time>
      </trkpt>
      <trkpt lat="40.228550" lon="-4.449950">
        <ele>2006.0</ele>
        <time>2013-07-02T14:27:48Z</time>
      </trkpt>
      <trkpt lat="40.228567" lon="-4.449767">
        <ele>2011.0</ele>
        <time>2013-07-02T14:27:49Z</time>
      </trkpt>
      <trkpt lat="40.228583" lon="-4.449600">
        <ele>2014.0</ele>
        <time>2013-07-02T14:27:50Z</time>
      </trkpt>
      <trkpt lat="40.228583" lon="-4.449433">
        <ele>2016.0</ele>
        <time>2013-07-02T14:27:51Z</time>
      </trkpt>
      <trkpt lat="40.228583" lon="-4.449250">
        <ele>2018.0</ele>
        <time>2013-07-02T14:27:52Z</time>
      </trkpt>
      <trkpt lat="40.228583" lon="-4.449067">
        <ele>2021.0</ele>
        <time>2013-07-02T14:27:53Z</time>
      </trkpt>
      <trkpt lat="40.228600" lon="-4.448883">
        <ele>2024.0</ele>
        <time>2013-07-02T14:27:54Z</time>
      </trkpt>
      <trkpt lat="40.228600" lon="-4.448717">
        <ele>2025.0</ele>
        <time>2013-07-02T14:27:55Z</time>
      </trkpt>
      <trkpt lat="40.228583" lon="-4.448550">
        <ele>2027.0</ele>
        <time>2013-07-02T14:27:56Z</time>
      </trkpt>
      <trkpt lat="40.228550" lon="-4.448383">
        <ele>2028.0</ele>
        <time>2013-07-02T14:27:57Z</time>
      </trkpt>
      <trkpt lat="40.228533" lon="-4.448200">
        <ele>2031.0</ele>
        <time>2013-07-02T14:27:58Z</time>
      </trkpt>
      <trkpt lat="40.228533" lon="-4.448033">
        <ele>2033.0</ele>
        <time>2013-07-02T14:27:59Z</time>
      </trkpt>
      <trkpt lat="40.228533" lon="-4.447883">
        <ele>2036.0</ele>
        <time>2013-07-02T14:28:00Z</time>
      </trkpt>
      <trkpt lat="40.228500" lon="-4.447733">
        <ele>2038.0</ele>
        <time>2013-07-02T14:28:01Z</time>
      </trkpt>
      <trkpt lat="40.228467" lon="-4.447600">
        <ele>2040.0</ele>
        <time>2013-07-02T14:28:02Z</time>
      </trkpt>
      <trkpt lat="40.228417" lon="-4.447467">
        <ele>2042.0</ele>
        <time>2013-07-02T14:28:03Z</time>
      </trkpt>
      <trkpt lat="40.228383" lon="-4.447333">
        <ele>2045.0</ele>
        <time>2013-07-02T14:28:04Z</time>
      </trkpt>
      <trkpt lat="40.228350" lon="-4.447183">
        <ele>2048.0</ele>
        <time>2013-07-02T14:28:05Z</time>
      </trkpt>
      <trkpt lat="40.228317" lon="-4.447017">
        <ele>2051.0</ele>
        <time>2013-07-02T14:28:06Z</time>
      </trkpt>
      <trkpt lat="40.228300" lon="-4.446867">
        <ele>2053.0</ele>
        <time>2013-07-02T14:28:07Z</time>
      </trkpt>
      <trkpt lat="40.228267" lon="-4.446717">
        <ele>2055.0</ele>
        <time>2013-07-02T14:28:08Z</time>
      </trkpt>
      <trkpt lat="40.228233" lon="-4.446583">
        <ele>2056.0</ele>
        <time>2013-07-02T14:28:09Z</time>
      </trkpt>
      <trkpt lat="40.228200" lon="-4.446450">
        <ele>2057.0</ele>
        <time>2013-07-02T14:28:10Z</time>
      </trkpt>
      <trkpt lat="40.228167" lon="-4.446317">
        <ele>2059.0</ele>
        <time>2013-07-02T14:28:11Z</time>
      </trkpt>
      <trkpt lat="40.228133" lon="-4.446183">
        <ele>2061.0</ele>
        <time>2013-07-02T14:28:12Z</time>
      </trkpt>
      <trkpt lat="40.228083" lon="-4.446067">
        <ele>2064.0</ele>
        <time>2013-07-02T14:28:13Z</time>
      </trkpt>
      <trkpt lat="40.228050" lon="-4.445950">
        <ele>2066.0</ele>
        <time>2013-07-02T14:28:14Z</time>
      </trkpt>
      <trkpt lat="40.228000" lon="-4.445833">
        <ele>2070.0</ele>
        <time>2013-07-02T14:28:15Z</time>
      </trkpt>
      <trkpt lat="40.227967" lon="-4.445717">
        <ele>2073.0</ele>
        <time>2013-07-02T14:28:16Z</time>
      </trkpt>
      <trkpt lat="40.227917" lon="-4.445583">
        <ele>2075.0</ele>
        <time>2013-07-02T14:28:17Z</time>
      </trkpt>
      <trkpt lat="40.227883" lon="-4.445467">
        <ele>2078.0</ele>
        <time>2013-07-02T14:28:18Z</time>
      </trkpt>
      <trkpt lat="40.227833" lon="-4.445350">
        <ele>2080.0</ele>
        <time>2013-07-02T14:28:19Z</time>
      </trkpt>
      <trkpt lat="40.227783" lon="-4.445250">
        <ele>2082.0</ele>
        <time>2013-07-02T14:28:20Z</time>
      </trkpt>
      <trkpt lat="40.227733" lon="-4.445167">
        <ele>2084.0</ele>
        <time>2013-07-02T14:28:21Z</time>
      </trkpt>
      <trkpt lat="40.227683" lon="-4.445067">
        <ele>2086.0</ele>
        <time>2013-07-02T14:28:22Z</time>
      </trkpt>
      <trkpt lat="40.227633" lon="-4.444967">
        <ele>2088.0</ele>
        <time>2013-07-02T14:28:23Z</time>
      </trkpt>
      <trkpt lat="40.227600" lon="-4.444883">
        <ele>2088.0</ele>
        <time>2013-07-02T14:28:24Z</time>
      </trkpt>
      <trkpt lat="40.227550" lon="-4.444800">
        <ele>2089.0</ele>
        <time>2013-07-02T14:28:25Z</time>
      </trkpt>
      <trkpt lat="40.227500" lon="-4.444717">
        <ele>2091.0</ele>
        <time>2013-07-02T14:28:26Z</time>
      </trkpt>
      <trkpt lat="40.227450" lon="-4.444633">
        <ele>2092.0</ele>
        <time>2013-07-02T14:28:27Z</time>
      </trkpt>
      <trkpt lat="40.227383" lon="-4.444550">
        <ele>2094.0</ele>
        <time>2013-07-02T14:28:28Z</time>
      </trkpt>
      <trkpt lat="40.227333" lon="-4.444467">
        <ele>2096.0</ele>
        <time>2013-07-02T14:28:29Z</time>
      </trkpt>
      <trkpt lat="40.227283" lon="-4.444383">
        <ele>2099.0</ele>
        <time>2013-07-02T14:28:30Z</time>
      </trkpt>
      <trkpt lat="40.227217" lon="-4.444283">
        <ele>2102.0</ele>
        <time>2013-07-02T14:28:31Z</time>
      </trkpt>
      <trkpt lat="40.227167" lon="-4.444167">
        <ele>2105.0</ele>
        <time>2013-07-02T14:28:32Z</time>
      </trkpt>
      <trkpt lat="40.227100" lon="-4.444033">
        <ele>2108.0</ele>
        <time>2013-07-02T14:28:33Z</time>
      </trkpt>
      <trkpt lat="40.227050" lon="-4.443917">
        <ele>2109.0</ele>
        <time>2013-07-02T14:28:34Z</time>
      </trkpt>
      <trkpt lat="40.226983" lon="-4.443800">
        <ele>2111.0</ele>
        <time>2013-07-02T14:28:35Z</time>
      </trkpt>
      <trkpt lat="40.226917" lon="-4.443683">
        <ele>2111.0</ele>
        <time>2013-07-02T14:28:36Z</time>
      </trkpt>
      <trkpt lat="40.226850" lon="-4.443550">
        <ele>2111.0</ele>
        <time>2013-07-02T14:28:37Z</time>
      </trkpt>
      <trkpt lat="40.226783" lon="-4.443417">
        <ele>2111.0</ele>
        <time>2013-07-02T14:28:38Z</time>
      </trkpt>
      <trkpt lat="40.226717" lon="-4.443283">
        <ele>2111.0</ele>
        <time>2013-07-02T14:28:39Z</time>
      </trkpt>
      <trkpt lat="40.226633" lon="-4.443150">
        <ele>2112.0</ele>
        <time>2013-07-02T14:28:40Z</time>
      </trkpt>
      <trkpt lat="40.226567" lon="-4.443033">
        <ele>2112.0</ele>
        <time>2013-07-02T14:28:41Z</time>
      </trkpt>
      <trkpt lat="40.226517" lon="-4.442917">
        <ele>2112.0</ele>
        <time>2013-07-02T14:28:42Z</time>
      </trkpt>
      <trkpt lat="40.226450" lon="-4.442800">
        <ele>2110.0</ele>
        <time>2013-07-02T14:28:43Z</time>
      </trkpt>
      <trkpt lat="40.226383" lon="-4.442683">
        <ele>2108.0</ele>
        <time>2013-07-02T14:28:44Z</time>
      </trkpt>
      <trkpt lat="40.226317" lon="-4.442583">
        <ele>2104.0</ele>
        <time>2013-07-02T14:28:45Z</time>
      </trkpt>
      <trkpt lat="40.226233" lon="-4.442467">
        <ele>2101.0</ele>
        <time>2013-07-02T14:28:46Z</time>
      </trkpt>
      <trkpt lat="40.226150" lon="-4.442333">
        <ele>2098.0</ele>
        <time>2013-07-02T14:28:47Z</time>
      </trkpt>
      <trkpt lat="40.226050" lon="-4.442200">
        <ele>2097.0</ele>
        <time>2013-07-02T14:28:48Z</time>
      </trkpt>
      <trkpt lat="40.225967" lon="-4.442083">
        <ele>2097.0</ele>
        <time>2013-07-02T14:28:49Z</time>
      </trkpt>
      <trkpt lat="40.225900" lon="-4.441983">
        <ele>2097.0</ele>
        <time>2013-07-02T14:28:50Z</time>
      </trkpt>
      <trkpt lat="40.225850" lon="-4.441883">
        <ele>2097.0</ele>
        <time>2013-07-02T14:28:51Z</time>
      </trkpt>
      <trkpt lat="40.225800" lon="-4.441767">
        <ele>2096.0</ele>
        <time>2013-07-02T14:28:52Z</time>
      </trkpt>
      <trkpt lat="40.225750" lon="-4.441650">
        <ele>2094.0</ele>
        <time>2013-07-02T14:28:53Z</time>
      </trkpt>
      <trkpt lat="40.225683" lon="-4.441517">
        <ele>2090.0</ele>
        <time>2013-07-02T14:28:54Z</time>
      </trkpt>
      <trkpt lat="40.225633" lon="-4.441367">
        <ele>2089.0</ele>
        <time>2013-07-02T14:28:55Z</time>
      </trkpt>
      <trkpt lat="40.225567" lon="-4.441233">
        <ele>2088.0</ele>
        <time>2013-07-02T14:28:56Z</time>
      </trkpt>
      <trkpt lat="40.225500" lon="-4.441100">
        <ele>2087.0</ele>
        <time>2013-07-02T14:28:57Z</time>
      </trkpt>
      <trkpt lat="40.225450" lon="-4.440967">
        <ele>2086.0</ele>
        <time>2013-07-02T14:28:58Z</time>
      </trkpt>
      <trkpt lat="40.225383" lon="-4.440850">
        <ele>2085.0</ele>
        <time>2013-07-02T14:28:59Z</time>
      </trkpt>
      <trkpt lat="40.225317" lon="-4.440717">
        <ele>2083.0</ele>
        <time>2013-07-02T14:29:00Z</time>
      </trkpt>
      <trkpt lat="40.225250" lon="-4.440583">
        <ele>2081.0</ele>
        <time>2013-07-02T14:29:01Z</time>
      </trkpt>
      <trkpt lat="40.225183" lon="-4.440433">
        <ele>2080.0</ele>
        <time>2013-07-02T14:29:02Z</time>
      </trkpt>
      <trkpt lat="40.225117" lon="-4.440283">
        <ele>2079.0</ele>
        <time>2013-07-02T14:29:03Z</time>
      </trkpt>
      <trkpt lat="40.225067" lon="-4.440150">
        <ele>2080.0</ele>
        <time>2013-07-02T14:29:04Z</time>
      </trkpt>
      <trkpt lat="40.225000" lon="-4.440033">
        <ele>2080.0</ele>
        <time>2013-07-02T14:29:05Z</time>
      </trkpt>
      <trkpt lat="40.224933" lon="-4.439917">
        <ele>2080.0</ele>
        <time>2013-07-02T14:29:06Z</time>
      </trkpt>
      <trkpt lat="40.224883" lon="-4.439800">
        <ele>2080.0</ele>
        <time>2013-07-02T14:29:07Z</time>
      </trkpt>
      <trkpt lat="40.224833" lon="-4.439650">
        <ele>2078.0</ele>
        <time>2013-07-02T14:29:08Z</time>
      </trkpt>
      <trkpt lat="40.224767" lon="-4.439500">
        <ele>2076.0</ele>
        <time>2013-07-02T14:29:09Z</time>
      </trkpt>
      <trkpt lat="40.224700" lon="-4.439333">
        <ele>2075.0</ele>
        <time>2013-07-02T14:29:10Z</time>
      </trkpt>
      <trkpt lat="40.224650" lon="-4.439183">
        <ele>2074.0</ele>
        <time>2013-07-02T14:29:11Z</time>
      </trkpt>
      <trkpt lat="40.224583" lon="-4.439017">
        <ele>2074.0</ele>
        <time>2013-07-02T14:29:12Z</time>
      </trkpt>
      <trkpt lat="40.224550" lon="-4.438867">
        <ele>2074.0</ele>
        <time>2013-07-02T14:29:13Z</time>
      </trkpt>
      <trkpt lat="40.224500" lon="-4.438700">
        <ele>2073.0</ele>
        <time>2013-07-02T14:29:14Z</time>
      </trkpt>
      <trkpt lat="40.224450" lon="-4.438533">
        <ele>2072.0</ele>
        <time>2013-07-02T14:29:15Z</time>
      </trkpt>
      <trkpt lat="40.224383" lon="-4.438383">
        <ele>2070.0</ele>
        <time>2013-07-02T14:29:16Z</time>
      </trkpt>
      <trkpt lat="40.224317" lon="-4.438233">
        <ele>2070.0</ele>
        <time>2013-07-02T14:29:17Z</time>
      </trkpt>
      <trkpt lat="40.224267" lon="-4.438100">
        <ele>2070.0</ele>
        <time>2013-07-02T14:29:18Z</time>
      </trkpt>
      <trkpt lat="40.224217" lon="-4.437950">
        <ele>2070.0</ele>
        <time>2013-07-02T14:29:19Z</time>
      </trkpt>
      <trkpt lat="40.224167" lon="-4.437817">
        <ele>2070.0</ele>
        <time>2013-07-02T14:29:20Z</time>
      </trkpt>
      <trkpt lat="40.224117" lon="-4.437667">
        <ele>2069.0</ele>
        <time>2013-07-02T14:29:21Z</time>
      </trkpt>
      <trkpt lat="40.224033" lon="-4.437550">
        <ele>2066.0</ele>
        <time>2013-07-02T14:29:22Z</time>
      </trkpt>
      <trkpt lat="40.223950" lon="-4.437450">
        <ele>2065.0</ele>
        <time>2013-07-02T14:29:23Z</time>
      </trkpt>
      <trkpt lat="40.223867" lon="-4.437350">
        <ele>2063.0</ele>
        <time>2013-07-02T14:29:24Z</time>
      </trkpt>
      <trkpt lat="40.223783" lon="-4.437250">
        <ele>2063.0</ele>
        <time>2013-07-02T14:29:25Z</time>
      </trkpt>
      <trkpt lat="40.223717" lon="-4.437150">
        <ele>2063.0</ele>
        <time>2013-07-02T14:29:26Z</time>
      </trkpt>
      <trkpt lat="40.223633" lon="-4.437033">
        <ele>2062.0</ele>
        <time>2013-07-02T14:29:27Z</time>
      </trkpt>
      <trkpt lat="40.223583" lon="-4.436950">
        <ele>2061.0</ele>
        <time>2013-07-02T14:29:28Z</time>
      </trkpt>
      <trkpt lat="40.223500" lon="-4.436883">
        <ele>2059.0</ele>
        <time>2013-07-02T14:29:29Z</time>
      </trkpt>
      <trkpt lat="40.223433" lon="-4.436817">
        <ele>2057.0</ele>
        <time>2013-07-02T14:29:30Z</time>
      </trkpt>
      <trkpt lat="40.223350" lon="-4.436750">
        <ele>2056.0</ele>
        <time>2013-07-02T14:29:31Z</time>
      </trkpt>
      <trkpt lat="40.223283" lon="-4.436683">
        <ele>2054.0</ele>
        <time>2013-07-02T14:29:32Z</time>
      </trkpt>
      <trkpt lat="40.223200" lon="-4.436600">
        <ele>2053.0</ele>
        <time>2013-07-02T14:29:33Z</time>
      </trkpt>
      <trkpt lat="40.223150" lon="-4.436483">
        <ele>2052.0</ele>
        <time>2013-07-02T14:29:34Z</time>
      </trkpt>
      <trkpt lat="40.223083" lon="-4.436367">
        <ele>2049.0</ele>
        <time>2013-07-02T14:29:35Z</time>
      </trkpt>
      <trkpt lat="40.223000" lon="-4.436217">
        <ele>2047.0</ele>
        <time>2013-07-02T14:29:36Z</time>
      </trkpt>
      <trkpt lat="40.222933" lon="-4.436083">
        <ele>2044.0</ele>
        <time>2013-07-02T14:29:37Z</time>
      </trkpt>
      <trkpt lat="40.222850" lon="-4.435933">
        <ele>2041.0</ele>
        <time>2013-07-02T14:29:38Z</time>
      </trkpt>
      <trkpt lat="40.222783" lon="-4.435767">
        <ele>2037.0</ele>
        <time>2013-07-02T14:29:39Z</time>
      </trkpt>
      <trkpt lat="40.222717" lon="-4.435600">
        <ele>2034.0</ele>
        <time>2013-07-02T14:29:40Z</time>
      </trkpt>
      <trkpt lat="40.222650" lon="-4.435417">
        <ele>2031.0</ele>
        <time>2013-07-02T14:29:41Z</time>
      </trkpt>
      <trkpt lat="40.222583" lon="-4.435267">
        <ele>2027.0</ele>
        <time>2013-07-02T14:29:42Z</time>
      </trkpt>
      <trkpt lat="40.222517" lon="-4.435100">
        <ele>2024.0</ele>
        <time>2013-07-02T14:29:43Z</time>
      </trkpt>
      <trkpt lat="40.222450" lon="-4.434950">
        <ele>2020.0</ele>
        <time>2013-07-02T14:29:44Z</time>
      </trkpt>
      <trkpt lat="40.222367" lon="-4.434767">
        <ele>2016.0</ele>
        <time>2013-07-02T14:29:45Z</time>
      </trkpt>
      <trkpt lat="40.222300" lon="-4.434617">
        <ele>2012.0</ele>
        <time>2013-07-02T14:29:46Z</time>
      </trkpt>
      <trkpt lat="40.222217" lon="-4.434467">
        <ele>2010.0</ele>
        <time>2013-07-02T14:29:47Z</time>
      </trkpt>
      <trkpt lat="40.222133" lon="-4.434317">
        <ele>2008.0</ele>
        <time>2013-07-02T14:29:48Z</time>
      </trkpt>
      <trkpt lat="40.222067" lon="-4.434183">
        <ele>2005.0</ele>
        <time>2013-07-02T14:29:49Z</time>
      </trkpt>
      <trkpt lat="40.222000" lon="-4.434050">
        <ele>2001.0</ele>
        <time>2013-07-02T14:29:50Z</time>
      </trkpt>
      <trkpt lat="40.221933" lon="-4.433917">
        <ele>1996.0</ele>
        <time>2013-07-02T14:29:51Z</time>
      </trkpt>
      <trkpt lat="40.221850" lon="-4.433750">
        <ele>1991.0</ele>
        <time>2013-07-02T14:29:52Z</time>
      </trkpt>
      <trkpt lat="40.221767" lon="-4.433583">
        <ele>1986.0</ele>
        <time>2013-07-02T14:29:53Z</time>
      </trkpt>
      <trkpt lat="40.221700" lon="-4.433417">
        <ele>1983.0</ele>
        <time>2013-07-02T14:29:54Z</time>
      </trkpt>
      <trkpt lat="40.221633" lon="-4.433250">
        <ele>1981.0</ele>
        <time>2013-07-02T14:29:55Z</time>
      </trkpt>
      <trkpt lat="40.221567" lon="-4.433100">
        <ele>1979.0</ele>
        <time>2013-07-02T14:29:56Z</time>
      </trkpt>
      <trkpt lat="40.221500" lon="-4.432933">
        <ele>1977.0</ele>
        <time>2013-07-02T14:29:57Z</time>
      </trkpt>
      <trkpt lat="40.221433" lon="-4.432783">
        <ele>1976.0</ele>
        <time>2013-07-02T14:29:58Z</time>
      </trkpt>
      <trkpt lat="40.221367" lon="-4.432633">
        <ele>1977.0</ele>
        <time>2013-07-02T14:29:59Z</time>
      </trkpt>
      <trkpt lat="40.221300" lon="-4.432500">
        <ele>1978.0</ele>
        <time>2013-07-02T14:30:00Z</time>
      </trkpt>
      <trkpt lat="40.221267" lon="-4.432383">
        <ele>1978.0</ele>
        <time>2013-07-02T14:30:01Z</time>
      </trkpt>
      <trkpt lat="40.221217" lon="-4.432250">
        <ele>1976.0</ele>
        <time>2013-07-02T14:30:02Z</time>
      </trkpt>
      <trkpt lat="40.221150" lon="-4.432117">
        <ele>1973.0</ele>
        <time>2013-07-02T14:30:03Z</time>
      </trkpt>
      <trkpt lat="40.221083" lon="-4.431983">
        <ele>1969.0</ele>
        <time>2013-07-02T14:30:04Z</time>
      </trkpt>
      <trkpt lat="40.221000" lon="-4.431833">
        <ele>1967.0</ele>
        <time>2013-07-02T14:30:05Z</time>
      </trkpt>
      <trkpt lat="40.220933" lon="-4.431717">
        <ele>1966.0</ele>
        <time>2013-07-02T14:30:06Z</time>
      </trkpt>
      <trkpt lat="40.220883" lon="-4.431600">
        <ele>1965.0</ele>
        <time>2013-07-02T14:30:07Z</time>
      </trkpt>
      <trkpt lat="40.220833" lon="-4.431483">
        <ele>1964.0</ele>
        <time>2013-07-02T14:30:08Z</time>
      </trkpt>
      <trkpt lat="40.220783" lon="-4.431383">
        <ele>1961.0</ele>
        <time>2013-07-02T14:30:09Z</time>
      </trkpt>
      <trkpt lat="40.220717" lon="-4.431283">
        <ele>1957.0</ele>
        <time>2013-07-02T14:30:10Z</time>
      </trkpt>
      <trkpt lat="40.220650" lon="-4.431183">
        <ele>1954.0</ele>
        <time>2013-07-02T14:30:11Z</time>
      </trkpt>
      <trkpt lat="40.220583" lon="-4.431083">
        <ele>1952.0</ele>
        <time>2013-07-02T14:30:12Z</time>
      </trkpt>
      <trkpt lat="40.220517" lon="-4.431000">
        <ele>1951.0</ele>
        <time>2013-07-02T14:30:13Z</time>
      </trkpt>
      <trkpt lat="40.220467" lon="-4.430933">
        <ele>1949.0</ele>
        <time>2013-07-02T14:30:14Z</time>
      </trkpt>
      <trkpt lat="40.220417" lon="-4.430850">
        <ele>1947.0</ele>
        <time>2013-07-02T14:30:15Z</time>
      </trkpt>
      <trkpt lat="40.220367" lon="-4.430783">
        <ele>1943.0</ele>
        <time>2013-07-02T14:30:16Z</time>
      </trkpt>
      <trkpt lat="40.220283" lon="-4.430700">
        <ele>1939.0</ele>
        <time>2013-07-02T14:30:17Z</time>
      </trkpt>
      <trkpt lat="40.220217" lon="-4.430600">
        <ele>1935.0</ele>
        <time>2013-07-02T14:30:18Z</time>
      </trkpt>
      <trkpt lat="40.220150" lon="-4.430500">
        <ele>1931.0</ele>
        <time>2013-07-02T14:30:19Z</time>
      </trkpt>
      <trkpt lat="40.220083" lon="-4.430383">
        <ele>1926.0</ele>
        <time>2013-07-02T14:30:20Z</time>
      </trkpt>
      <trkpt lat="40.220033" lon="-4.430250">
        <ele>1922.0</ele>
        <time>2013-07-02T14:30:21Z</time>
      </trkpt>
      <trkpt lat="40.219967" lon="-4.430117">
        <ele>1918.0</ele>
        <time>2013-07-02T14:30:22Z</time>
      </trkpt>
      <trkpt lat="40.219917" lon="-4.429983">
        <ele>1913.0</ele>
        <time>2013-07-02T14:30:23Z</time>
      </trkpt>
      <trkpt lat="40.219850" lon="-4.429850">
        <ele>1909.0</ele>
        <time>2013-07-02T14:30:24Z</time>
      </trkpt>
      <trkpt lat="40.219783" lon="-4.429717">
        <ele>1905.0</ele>
        <time>2013-07-02T14:30:25Z</time>
      </trkpt>
      <trkpt lat="40.219717" lon="-4.429600">
        <ele>1902.0</ele>
        <time>2013-07-02T14:30:26Z</time>
      </trkpt>
      <trkpt lat="40.219667" lon="-4.429467">
        <ele>1900.0</ele>
        <time>2013-07-02T14:30:27Z</time>
      </trkpt>
      <trkpt lat="40.219600" lon="-4.429350">
        <ele>1898.0</ele>
        <time>2013-07-02T14:30:28Z</time>
      </trkpt>
      <trkpt lat="40.219550" lon="-4.429233">
        <ele>1896.0</ele>
        <time>2013-07-02T14:30:29Z</time>
      </trkpt>
      <trkpt lat="40.219483" lon="-4.429133">
        <ele>1895.0</ele>
        <time>2013-07-02T14:30:30Z</time>
      </trkpt>
      <trkpt lat="40.219433" lon="-4.429017">
        <ele>1893.0</ele>
        <time>2013-07-02T14:30:31Z</time>
      </trkpt>
      <trkpt lat="40.219383" lon="-4.428883">
        <ele>1891.0</ele>
        <time>2013-07-02T14:30:32Z</time>
      </trkpt>
      <trkpt lat="40.219333" lon="-4.428733">
        <ele>1890.0</ele>
        <time>2013-07-02T14:30:33Z</time>
      </trkpt>
      <trkpt lat="40.219283" lon="-4.428600">
        <ele>1889.0</ele>
        <time>2013-07-02T14:30:34Z</time>
      </trkpt>
      <trkpt lat="40.219233" lon="-4.428467">
        <ele>1890.0</ele>
        <time>2013-07-02T14:30:35Z</time>
      </trkpt>
      <trkpt lat="40.219200" lon="-4.428350">
        <ele>1891.0</ele>
        <time>2013-07-02T14:30:36Z</time>
      </trkpt>
      <trkpt lat="40.219167" lon="-4.428233">
        <ele>1892.0</ele>
        <time>2013-07-02T14:30:37Z</time>
      </trkpt>
      <trkpt lat="40.219133" lon="-4.428117">
        <ele>1893.0</ele>
        <time>2013-07-02T14:30:38Z</time>
      </trkpt>
      <trkpt lat="40.219083" lon="-4.428000">
        <ele>1894.0</ele>
        <time>2013-07-02T14:30:39Z</time>
      </trkpt>
      <trkpt lat="40.219050" lon="-4.427883">
        <ele>1894.0</ele>
        <time>2013-07-02T14:30:40Z</time>
      </trkpt>
      <trkpt lat="40.218983" lon="-4.427767">
        <ele>1894.0</ele>
        <time>2013-07-02T14:30:41Z</time>
      </trkpt>
      <trkpt lat="40.218933" lon="-4.427667">
        <ele>1895.0</ele>
        <time>2013-07-02T14:30:42Z</time>
      </trkpt>
      <trkpt lat="40.218867" lon="-4.427567">
        <ele>1897.0</ele>
        <time>2013-07-02T14:30:43Z</time>
      </trkpt>
      <trkpt lat="40.218817" lon="-4.427467">
        <ele>1898.0</ele>
        <time>2013-07-02T14:30:44Z</time>
      </trkpt>
      <trkpt lat="40.218750" lon="-4.427383">
        <ele>1900.0</ele>
        <time>2013-07-02T14:30:45Z</time>
      </trkpt>
      <trkpt lat="40.218700" lon="-4.427300">
        <ele>1901.0</ele>
        <time>2013-07-02T14:30:46Z</time>
      </trkpt>
      <trkpt lat="40.218650" lon="-4.427233">
        <ele>1901.0</ele>
        <time>2013-07-02T14:30:47Z</time>
      </trkpt>
      <trkpt lat="40.218583" lon="-4.427167">
        <ele>1901.0</ele>
        <time>2013-07-02T14:30:48Z</time>
      </trkpt>
      <trkpt lat="40.218500" lon="-4.427100">
        <ele>1901.0</ele>
        <time>2013-07-02T14:30:49Z</time>
      </trkpt>
      <trkpt lat="40.218433" lon="-4.427050">
        <ele>1901.0</ele>
        <time>2013-07-02T14:30:50Z</time>
      </trkpt>
      <trkpt lat="40.218367" lon="-4.427000">
        <ele>1901.0</ele>
        <time>2013-07-02T14:30:51Z</time>
      </trkpt>
      <trkpt lat="40.218300" lon="-4.426950">
        <ele>1901.0</ele>
        <time>2013-07-02T14:30:52Z</time>
      </trkpt>
      <trkpt lat="40.218233" lon="-4.426900">
        <ele>1901.0</ele>
        <time>2013-07-02T14:30:53Z</time>
      </trkpt>
      <trkpt lat="40.218167" lon="-4.426850">
        <ele>1900.0</ele>
        <time>2013-07-02T14:30:54Z</time>
      </trkpt>
      <trkpt lat="40.218100" lon="-4.426783">
        <ele>1899.0</ele>
        <time>2013-07-02T14:30:55Z</time>
      </trkpt>
      <trkpt lat="40.218033" lon="-4.426733">
        <ele>1898.0</ele>
        <time>2013-07-02T14:30:56Z</time>
      </trkpt>
      <trkpt lat="40.217967" lon="-4.426667">
        <ele>1897.0</ele>
        <time>2013-07-02T14:30:57Z</time>
      </trkpt>
      <trkpt lat="40.217900" lon="-4.426600">
        <ele>1895.0</ele>
        <time>2013-07-02T14:30:58Z</time>
      </trkpt>
      <trkpt lat="40.217833" lon="-4.426533">
        <ele>1896.0</ele>
        <time>2013-07-02T14:30:59Z</time>
      </trkpt>
      <trkpt lat="40.217783" lon="-4.426467">
        <ele>1896.0</ele>
        <time>2013-07-02T14:31:00Z</time>
      </trkpt>
      <trkpt lat="40.217717" lon="-4.426417">
        <ele>1896.0</ele>
        <time>2013-07-02T14:31:01Z</time>
      </trkpt>
      <trkpt lat="40.217650" lon="-4.426367">
        <ele>1896.0</ele>
        <time>2013-07-02T14:31:02Z</time>
      </trkpt>
      <trkpt lat="40.217583" lon="-4.426317">
        <ele>1896.0</ele>
        <time>2013-07-02T14:31:03Z</time>
      </trkpt>
      <trkpt lat="40.217500" lon="-4.426267">
        <ele>1897.0</ele>
        <time>2013-07-02T14:31:04Z</time>
      </trkpt>
      <trkpt lat="40.217433" lon="-4.426217">
        <ele>1898.0</ele>
        <time>2013-07-02T14:31:05Z</time>
      </trkpt>
      <trkpt lat="40.217350" lon="-4.426167">
        <ele>1898.0</ele>
        <time>2013-07-02T14:31:06Z</time>
      </trkpt>
      <trkpt lat="40.217267" lon="-4.426100">
        <ele>1898.0</ele>
        <time>2013-07-02T14:31:07Z</time>
      </trkpt>
      <trkpt lat="40.217200" lon="-4.426050">
        <ele>1898.0</ele>
        <time>2013-07-02T14:31:08Z</time>
      </trkpt>
      <trkpt lat="40.217117" lon="-4.425983">
        <ele>1897.0</ele>
        <time>2013-07-02T14:31:09Z</time>
      </trkpt>
      <trkpt lat="40.217050" lon="-4.425950">
        <ele>1897.0</ele>
        <time>2013-07-02T14:31:10Z</time>
      </trkpt>
      <trkpt lat="40.216967" lon="-4.425917">
        <ele>1897.0</ele>
        <time>2013-07-02T14:31:11Z</time>
      </trkpt>
      <trkpt lat="40.216883" lon="-4.425850">
        <ele>1896.0</ele>
        <time>2013-07-02T14:31:12Z</time>
      </trkpt>
      <trkpt lat="40.216800" lon="-4.425783">
        <ele>1895.0</ele>
        <time>2013-07-02T14:31:13Z</time>
      </trkpt>
      <trkpt lat="40.216733" lon="-4.425683">
        <ele>1894.0</ele>
        <time>2013-07-02T14:31:14Z</time>
      </trkpt>
      <trkpt lat="40.216650" lon="-4.425600">
        <ele>1894.0</ele>
        <time>2013-07-02T14:31:15Z</time>
      </trkpt>
      <trkpt lat="40.216583" lon="-4.425550">
        <ele>1893.0</ele>
        <time>2013-07-02T14:31:16Z</time>
      </trkpt>
      <trkpt lat="40.216500" lon="-4.425500">
        <ele>1892.0</ele>
        <time>2013-07-02T14:31:17Z</time>
      </trkpt>
      <trkpt lat="40.216433" lon="-4.425450">
        <ele>1890.0</ele>
        <time>2013-07-02T14:31:18Z</time>
      </trkpt>
      <trkpt lat="40.216350" lon="-4.425400">
        <ele>1888.0</ele>
        <time>2013-07-02T14:31:19Z</time>
      </trkpt>
      <trkpt lat="40.216267" lon="-4.425333">
        <ele>1886.0</ele>
        <time>2013-07-02T14:31:20Z</time>
      </trkpt>
      <trkpt lat="40.216183" lon="-4.425267">
        <ele>1883.0</ele>
        <time>2013-07-02T14:31:21Z</time>
      </trkpt>
      <trkpt lat="40.216100" lon="-4.425233">
        <ele>1881.0</ele>
        <time>2013-07-02T14:31:22Z</time>
      </trkpt>
      <trkpt lat="40.216017" lon="-4.425183">
        <ele>1879.0</ele>
        <time>2013-07-02T14:31:23Z</time>
      </trkpt>
      <trkpt lat="40.215933" lon="-4.425133">
        <ele>1877.0</ele>
        <time>2013-07-02T14:31:24Z</time>
      </trkpt>
      <trkpt lat="40.215867" lon="-4.425083">
        <ele>1875.0</ele>
        <time>2013-07-02T14:31:25Z</time>
      </trkpt>
      <trkpt lat="40.215800" lon="-4.425017">
        <ele>1873.0</ele>
        <time>2013-07-02T14:31:26Z</time>
      </trkpt>
      <trkpt lat="40.215717" lon="-4.424967">
        <ele>1870.0</ele>
        <time>2013-07-02T14:31:27Z</time>
      </trkpt>
      <trkpt lat="40.215633" lon="-4.424900">
        <ele>1866.0</ele>
        <time>2013-07-02T14:31:28Z</time>
      </trkpt>
      <trkpt lat="40.215533" lon="-4.424817">
        <ele>1864.0</ele>
        <time>2013-07-02T14:31:29Z</time>
      </trkpt>
      <trkpt lat="40.215467" lon="-4.424733">
        <ele>1863.0</ele>
        <time>2013-07-02T14:31:30Z</time>
      </trkpt>
      <trkpt lat="40.215400" lon="-4.424650">
        <ele>1862.0</ele>
        <time>2013-07-02T14:31:31Z</time>
      </trkpt>
      <trkpt lat="40.215333" lon="-4.424583">
        <ele>1861.0</ele>
        <time>2013-07-02T14:31:32Z</time>
      </trkpt>
      <trkpt lat="40.215267" lon="-4.424517">
        <ele>1858.0</ele>
        <time>2013-07-02T14:31:33Z</time>
      </trkpt>
      <trkpt lat="40.215183" lon="-4.424450">
        <ele>1854.0</ele>
        <time>2013-07-02T14:31:34Z</time>
      </trkpt>
      <trkpt lat="40.215100" lon="-4.424383">
        <ele>1851.0</ele>
        <time>2013-07-02T14:31:35Z</time>
      </trkpt>
      <trkpt lat="40.215000" lon="-4.424333">
        <ele>1848.0</ele>
        <time>2013-07-02T14:31:36Z</time>
      </trkpt>
      <trkpt lat="40.214917" lon="-4.424283">
        <ele>1846.0</ele>
        <time>2013-07-02T14:31:37Z</time>
      </trkpt>
      <trkpt lat="40.214833" lon="-4.424233">
        <ele>1844.0</ele>
        <time>2013-07-02T14:31:38Z</time>
      </trkpt>
      <trkpt lat="40.214767" lon="-4.424183">
        <ele>1842.0</ele>
        <time>2013-07-02T14:31:39Z</time>
      </trkpt>
      <trkpt lat="40.214683" lon="-4.424117">
        <ele>1839.0</ele>
        <time>2013-07-02T14:31:40Z</time>
      </trkpt>
      <trkpt lat="40.214600" lon="-4.424050">
        <ele>1836.0</ele>
        <time>2013-07-02T14:31:41Z</time>
      </trkpt>
      <trkpt lat="40.214517" lon="-4.424017">
        <ele>1833.0</ele>
        <time>2013-07-02T14:31:42Z</time>
      </trkpt>
      <trkpt lat="40.214450" lon="-4.423983">
        <ele>1831.0</ele>
        <time>2013-07-02T14:31:43Z</time>
      </trkpt>
      <trkpt lat="40.214383" lon="-4.423933">
        <ele>1830.0</ele>
        <time>2013-07-02T14:31:44Z</time>
      </trkpt>
      <trkpt lat="40.214333" lon="-4.423900">
        <ele>1829.0</ele>
        <time>2013-07-02T14:31:45Z</time>
      </trkpt>
      <trkpt lat="40.214267" lon="-4.423850">
        <ele>1827.0</ele>
        <time>2013-07-02T14:31:46Z</time>
      </trkpt>
      <trkpt lat="40.214183" lon="-4.423783">
        <ele>1823.0</ele>
        <time>2013-07-02T14:31:47Z</time>
      </trkpt>
      <trkpt lat="40.214100" lon="-4.423733">
        <ele>1820.0</ele>
        <time>2013-07-02T14:31:48Z</time>
      </trkpt>
      <trkpt lat="40.214017" lon="-4.423667">
        <ele>1817.0</ele>
        <time>2013-07-02T14:31:49Z</time>
      </trkpt>
      <trkpt lat="40.213933" lon="-4.423600">
        <ele>1815.0</ele>
        <time>2013-07-02T14:31:50Z</time>
      </trkpt>
      <trkpt lat="40.213867" lon="-4.423533">
        <ele>1814.0</ele>
        <time>2013-07-02T14:31:51Z</time>
      </trkpt>
      <trkpt lat="40.213800" lon="-4.423467">
        <ele>1811.0</ele>
        <time>2013-07-02T14:31:52Z</time>
      </trkpt>
      <trkpt lat="40.213717" lon="-4.423417">
        <ele>1807.0</ele>
        <time>2013-07-02T14:31:53Z</time>
      </trkpt>
      <trkpt lat="40.213633" lon="-4.423350">
        <ele>1803.0</ele>
        <time>2013-07-02T14:31:54Z</time>
      </trkpt>
      <trkpt lat="40.213533" lon="-4.423283">
        <ele>1800.0</ele>
        <time>2013-07-02T14:31:55Z</time>
      </trkpt>
      <trkpt lat="40.213450" lon="-4.423217">
        <ele>1799.0</ele>
        <time>2013-07-02T14:31:56Z</time>
      </trkpt>
      <trkpt lat="40.213367" lon="-4.423133">
        <ele>1797.0</ele>
        <time>2013-07-02T14:31:57Z</time>
      </trkpt>
      <trkpt lat="40.213300" lon="-4.423050">
        <ele>1794.0</ele>
        <time>2013-07-02T14:31:58Z</time>
      </trkpt>
      <trkpt lat="40.213233" lon="-4.422967">
        <ele>1791.0</ele>
        <time>2013-07-02T14:31:59Z</time>
      </trkpt>
      <trkpt lat="40.213167" lon="-4.422867">
        <ele>1787.0</ele>
        <time>2013-07-02T14:32:00Z</time>
      </trkpt>
      <trkpt lat="40.213100" lon="-4.422783">
        <ele>1782.0</ele>
        <time>2013-07-02T14:32:01Z</time>
      </trkpt>
      <trkpt lat="40.213017" lon="-4.422667">
        <ele>1778.0</ele>
        <time>2013-07-02T14:32:02Z</time>
      </trkpt>
      <trkpt lat="40.212950" lon="-4.422567">
        <ele>1774.0</ele>
        <time>2013-07-02T14:32:03Z</time>
      </trkpt>
      <trkpt lat="40.212883" lon="-4.422467">
        <ele>1772.0</ele>
        <time>2013-07-02T14:32:04Z</time>
      </trkpt>
      <trkpt lat="40.212817" lon="-4.422367">
        <ele>1769.0</ele>
        <time>2013-07-02T14:32:05Z</time>
      </trkpt>
      <trkpt lat="40.212750" lon="-4.422283">
        <ele>1766.0</ele>
        <time>2013-07-02T14:32:06Z</time>
      </trkpt>
      <trkpt lat="40.212683" lon="-4.422167">
        <ele>1762.0</ele>
        <time>2013-07-02T14:32:07Z</time>
      </trkpt>
      <trkpt lat="40.212617" lon="-4.422067">
        <ele>1759.0</ele>
        <time>2013-07-02T14:32:08Z</time>
      </trkpt>
      <trkpt lat="40.212567" lon="-4.421967">
        <ele>1756.0</ele>
        <time>2013-07-02T14:32:09Z</time>
      </trkpt>
      <trkpt lat="40.212500" lon="-4.421867">
        <ele>1754.0</ele>
        <time>2013-07-02T14:32:10Z</time>
      </trkpt>
      <trkpt lat="40.212450" lon="-4.421767">
        <ele>1751.0</ele>
        <time>2013-07-02T14:32:11Z</time>
      </trkpt>
      <trkpt lat="40.212400" lon="-4.421667">
        <ele>1748.0</ele>
        <time>2013-07-02T14:32:12Z</time>
      </trkpt>
      <trkpt lat="40.212350" lon="-4.421550">
        <ele>1744.0</ele>
        <time>2013-07-02T14:32:13Z</time>
      </trkpt>
      <trkpt lat="40.212283" lon="-4.421450">
        <ele>1740.0</ele>
        <time>2013-07-02T14:32:14Z</time>
      </trkpt>
      <trkpt lat="40.212233" lon="-4.421367">
        <ele>1737.0</ele>
        <time>2013-07-02T14:32:15Z</time>
      </trkpt>
      <trkpt lat="40.212167" lon="-4.421267">
        <ele>1733.0</ele>
        <time>2013-07-02T14:32:16Z</time>
      </trkpt>
      <trkpt lat="40.212117" lon="-4.421183">
        <ele>1729.0</ele>
        <time>2013-07-02T14:32:17Z</time>
      </trkpt>
      <trkpt lat="40.212050" lon="-4.421117">
        <ele>1725.0</ele>
        <time>2013-07-02T14:32:18Z</time>
      </trkpt>
      <trkpt lat="40.211967" lon="-4.421017">
        <ele>1724.0</ele>
        <time>2013-07-02T14:32:19Z</time>
      </trkpt>
      <trkpt lat="40.211900" lon="-4.420950">
        <ele>1722.0</ele>
        <time>2013-07-02T14:32:20Z</time>
      </trkpt>
      <trkpt lat="40.211833" lon="-4.420900">
        <ele>1718.0</ele>
        <time>2013-07-02T14:32:21Z</time>
      </trkpt>
      <trkpt lat="40.211783" lon="-4.420833">
        <ele>1715.0</ele>
        <time>2013-07-02T14:32:22Z</time>
      </trkpt>
      <trkpt lat="40.211717" lon="-4.420750">
        <ele>1712.0</ele>
        <time>2013-07-02T14:32:23Z</time>
      </trkpt>
      <trkpt lat="40.211667" lon="-4.420683">
        <ele>1709.0</ele>
        <time>2013-07-02T14:32:24Z</time>
      </trkpt>
      <trkpt lat="40.211600" lon="-4.420617">
        <ele>1706.0</ele>
        <time>2013-07-02T14:32:25Z</time>
      </trkpt>
      <trkpt lat="40.211517" lon="-4.420567">
        <ele>1702.0</ele>
        <time>2013-07-02T14:32:26Z</time>
      </trkpt>
      <trkpt lat="40.211450" lon="-4.420517">
        <ele>1698.0</ele>
        <time>2013-07-02T14:32:27Z</time>
      </trkpt>
      <trkpt lat="40.211383" lon="-4.420450">
        <ele>1695.0</ele>
        <time>2013-07-02T14:32:28Z</time>
      </trkpt>
      <trkpt lat="40.211317" lon="-4.420367">
        <ele>1690.0</ele>
        <time>2013-07-02T14:32:29Z</time>
      </trkpt>
      <trkpt lat="40.211250" lon="-4.420283">
        <ele>1686.0</ele>
        <time>2013-07-02T14:32:30Z</time>
      </trkpt>
      <trkpt lat="40.211183" lon="-4.420183">
        <ele>1681.0</ele>
        <time>2013-07-02T14:32:31Z</time>
      </trkpt>
      <trkpt lat="40.211100" lon="-4.420083">
        <ele>1677.0</ele>
        <time>2013-07-02T14:32:32Z</time>
      </trkpt>
      <trkpt lat="40.211033" lon="-4.419967">
        <ele>1673.0</ele>
        <time>2013-07-02T14:32:33Z</time>
      </trkpt>
      <trkpt lat="40.210967" lon="-4.419850">
        <ele>1670.0</ele>
        <time>2013-07-02T14:32:34Z</time>
      </trkpt>
      <trkpt lat="40.210883" lon="-4.419733">
        <ele>1667.0</ele>
        <time>2013-07-02T14:32:35Z</time>
      </trkpt>
      <trkpt lat="40.210817" lon="-4.419633">
        <ele>1663.0</ele>
        <time>2013-07-02T14:32:36Z</time>
      </trkpt>
      <trkpt lat="40.210750" lon="-4.419517">
        <ele>1660.0</ele>
        <time>2013-07-02T14:32:37Z</time>
      </trkpt>
      <trkpt lat="40.210700" lon="-4.419383">
        <ele>1656.0</ele>
        <time>2013-07-02T14:32:38Z</time>
      </trkpt>
      <trkpt lat="40.210633" lon="-4.419267">
        <ele>1651.0</ele>
        <time>2013-07-02T14:32:39Z</time>
      </trkpt>
      <trkpt lat="40.210550" lon="-4.419133">
        <ele>1647.0</ele>
        <time>2013-07-02T14:32:40Z</time>
      </trkpt>
      <trkpt lat="40.210467" lon="-4.419017">
        <ele>1642.0</ele>
        <time>2013-07-02T14:32:41Z</time>
      </trkpt>
      <trkpt lat="40.210400" lon="-4.418900">
        <ele>1638.0</ele>
        <time>2013-07-02T14:32:42Z</time>
      </trkpt>
      <trkpt lat="40.210333" lon="-4.418800">
        <ele>1634.0</ele>
        <time>2013-07-02T14:32:43Z</time>
      </trkpt>
      <trkpt lat="40.210250" lon="-4.418700">
        <ele>1630.0</ele>
        <time>2013-07-02T14:32:44Z</time>
      </trkpt>
      <trkpt lat="40.210183" lon="-4.418600">
        <ele>1626.0</ele>
        <time>2013-07-02T14:32:45Z</time>
      </trkpt>
      <trkpt lat="40.210100" lon="-4.418500">
        <ele>1621.0</ele>
        <time>2013-07-02T14:32:46Z</time>
      </trkpt>
      <trkpt lat="40.210033" lon="-4.418400">
        <ele>1618.0</ele>
        <time>2013-07-02T14:32:47Z</time>
      </trkpt>
      <trkpt lat="40.209967" lon="-4.418317">
        <ele>1615.0</ele>
        <time>2013-07-02T14:32:48Z</time>
      </trkpt>
      <trkpt lat="40.209900" lon="-4.418217">
        <ele>1611.0</ele>
        <time>2013-07-02T14:32:49Z</time>
      </trkpt>
      <trkpt lat="40.209833" lon="-4.418133">
        <ele>1607.0</ele>
        <time>2013-07-02T14:32:50Z</time>
      </trkpt>
      <trkpt lat="40.209767" lon="-4.418033">
        <ele>1603.0</ele>
        <time>2013-07-02T14:32:51Z</time>
      </trkpt>
      <trkpt lat="40.209700" lon="-4.417933">
        <ele>1598.0</ele>
        <time>2013-07-02T14:32:52Z</time>
      </trkpt>
      <trkpt lat="40.209633" lon="-4.417833">
        <ele>1594.0</ele>
        <time>2013-07-02T14:32:53Z</time>
      </trkpt>
      <trkpt lat="40.209567" lon="-4.417750">
        <ele>1590.0</ele>
        <time>2013-07-02T14:32:54Z</time>
      </trkpt>
      <trkpt lat="40.209500" lon="-4.417650">
        <ele>1587.0</ele>
        <time>2013-07-02T14:32:55Z</time>
      </trkpt>
      <trkpt lat="40.209433" lon="-4.417550">
        <ele>1583.0</ele>
        <time>2013-07-02T14:32:56Z</time>
      </trkpt>
      <trkpt lat="40.209367" lon="-4.417450">
        <ele>1579.0</ele>
        <time>2013-07-02T14:32:57Z</time>
      </trkpt>
      <trkpt lat="40.209300" lon="-4.417350">
        <ele>1575.0</ele>
        <time>2013-07-02T14:32:58Z</time>
      </trkpt>
      <trkpt lat="40.209233" lon="-4.417250">
        <ele>1571.0</ele>
        <time>2013-07-02T14:32:59Z</time>
      </trkpt>
      <trkpt lat="40.209167" lon="-4.417133">
        <ele>1567.0</ele>
        <time>2013-07-02T14:33:00Z</time>
      </trkpt>
      <trkpt lat="40.209100" lon="-4.417033">
        <ele>1563.0</ele>
        <time>2013-07-02T14:33:01Z</time>
      </trkpt>
      <trkpt lat="40.209033" lon="-4.416933">
        <ele>1559.0</ele>
        <time>2013-07-02T14:33:02Z</time>
      </trkpt>
      <trkpt lat="40.208967" lon="-4.416833">
        <ele>1555.0</ele>
        <time>2013-07-02T14:33:03Z</time>
      </trkpt>
      <trkpt lat="40.208900" lon="-4.416733">
        <ele>1551.0</ele>
        <time>2013-07-02T14:33:04Z</time>
      </trkpt>
      <trkpt lat="40.208833" lon="-4.416633">
        <ele>1547.0</ele>
        <time>2013-07-02T14:33:05Z</time>
      </trkpt>
      <trkpt lat="40.208767" lon="-4.416517">
        <ele>1543.0</ele>
        <time>2013-07-02T14:33:06Z</time>
      </trkpt>
      <trkpt lat="40.208683" lon="-4.416417">
        <ele>1539.0</ele>
        <time>2013-07-02T14:33:07Z</time>
      </trkpt>
      <trkpt lat="40.208617" lon="-4.416317">
        <ele>1535.0</ele>
        <time>2013-07-02T14:33:08Z</time>
      </trkpt>
      <trkpt lat="40.208550" lon="-4.416200">
        <ele>1531.0</ele>
        <time>2013-07-02T14:33:09Z</time>
      </trkpt>
      <trkpt lat="40.208483" lon="-4.416100">
        <ele>1527.0</ele>
        <time>2013-07-02T14:33:10Z</time>
      </trkpt>
      <trkpt lat="40.208417" lon="-4.416000">
        <ele>1523.0</ele>
        <time>2013-07-02T14:33:11Z</time>
      </trkpt>
      <trkpt lat="40.208350" lon="-4.415900">
        <ele>1519.0</ele>
        <time>2013-07-02T14:33:12Z</time>
      </trkpt>
      <trkpt lat="40.208283" lon="-4.415800">
        <ele>1515.0</ele>
        <time>2013-07-02T14:33:13Z</time>
      </trkpt>
      <trkpt lat="40.208217" lon="-4.415717">
        <ele>1511.0</ele>
        <time>2013-07-02T14:33:14Z</time>
      </trkpt>
      <trkpt lat="40.208133" lon="-4.415617">
        <ele>1508.0</ele>
        <time>2013-07-02T14:33:15Z</time>
      </trkpt>
      <trkpt lat="40.208067" lon="-4.415517">
        <ele>1504.0</ele>
        <time>2013-07-02T14:33:16Z</time>
      </trkpt>
      <trkpt lat="40.208000" lon="-4.415417">
        <ele>1500.0</ele>
        <time>2013-07-02T14:33:17Z</time>
      </trkpt>
      <trkpt lat="40.207933" lon="-4.415317">
        <ele>1496.0</ele>
        <time>2013-07-02T14:33:18Z</time>
      </trkpt>
      <trkpt lat="40.207867" lon="-4.415217">
        <ele>1491.0</ele>
        <time>2013-07-02T14:33:19Z</time>
      </trkpt>
      <trkpt lat="40.207800" lon="-4.415117">
        <ele>1487.0</ele>
        <time>2013-07-02T14:33:20Z</time>
      </trkpt>
      <trkpt lat="40.207717" lon="-4.415017">
        <ele>1483.0</ele>
        <time>2013-07-02T14:33:21Z</time>
      </trkpt>
      <trkpt lat="40.207650" lon="-4.414917">
        <ele>1479.0</ele>
        <time>2013-07-02T14:33:22Z</time>
      </trkpt>
      <trkpt lat="40.207567" lon="-4.414817">
        <ele>1474.0</ele>
        <time>2013-07-02T14:33:23Z</time>
      </trkpt>
      <trkpt lat="40.207500" lon="-4.414717">
        <ele>1470.0</ele>
        <time>2013-07-02T14:33:24Z</time>
      </trkpt>
      <trkpt lat="40.207417" lon="-4.414617">
        <ele>1466.0</ele>
        <time>2013-07-02T14:33:25Z</time>
      </trkpt>
      <trkpt lat="40.207350" lon="-4.414533">
        <ele>1462.0</ele>
        <time>2013-07-02T14:33:26Z</time>
      </trkpt>
      <trkpt lat="40.207283" lon="-4.414433">
        <ele>1458.0</ele>
        <time>2013-07-02T14:33:27Z</time>
      </trkpt>
      <trkpt lat="40.207200" lon="-4.414333">
        <ele>1454.0</ele>
        <time>2013-07-02T14:33:28Z</time>
      </trkpt>
      <trkpt lat="40.207133" lon="-4.414233">
        <ele>1449.0</ele>
        <time>2013-07-02T14:33:29Z</time>
      </trkpt>
      <trkpt lat="40.207067" lon="-4.414133">
        <ele>1444.0</ele>
        <time>2013-07-02T14:33:30Z</time>
      </trkpt>
      <trkpt lat="40.206983" lon="-4.414033">
        <ele>1440.0</ele>
        <time>2013-07-02T14:33:31Z</time>
      </trkpt>
      <trkpt lat="40.206917" lon="-4.413933">
        <ele>1435.0</ele>
        <time>2013-07-02T14:33:32Z</time>
      </trkpt>
      <trkpt lat="40.206850" lon="-4.413817">
        <ele>1430.0</ele>
        <time>2013-07-02T14:33:33Z</time>
      </trkpt>
      <trkpt lat="40.206767" lon="-4.413700">
        <ele>1426.0</ele>
        <time>2013-07-02T14:33:34Z</time>
      </trkpt>
      <trkpt lat="40.206700" lon="-4.413567">
        <ele>1421.0</ele>
        <time>2013-07-02T14:33:35Z</time>
      </trkpt>
      <trkpt lat="40.206617" lon="-4.413433">
        <ele>1417.0</ele>
        <time>2013-07-02T14:33:36Z</time>
      </trkpt>
      <trkpt lat="40.206550" lon="-4.413317">
        <ele>1413.0</ele>
        <time>2013-07-02T14:33:37Z</time>
      </trkpt>
      <trkpt lat="40.206483" lon="-4.413200">
        <ele>1408.0</ele>
        <time>2013-07-02T14:33:38Z</time>
      </trkpt>
      <trkpt lat="40.206400" lon="-4.413067">
        <ele>1404.0</ele>
        <time>2013-07-02T14:33:39Z</time>
      </trkpt>
      <trkpt lat="40.206317" lon="-4.412950">
        <ele>1400.0</ele>
        <time>2013-07-02T14:33:40Z</time>
      </trkpt>
      <trkpt lat="40.206250" lon="-4.412833">
        <ele>1396.0</ele>
        <time>2013-07-02T14:33:41Z</time>
      </trkpt>
      <trkpt lat="40.206167" lon="-4.412717">
        <ele>1393.0</ele>
        <time>2013-07-02T14:33:42Z</time>
      </trkpt>
      <trkpt lat="40.206100" lon="-4.412617">
        <ele>1389.0</ele>
        <time>2013-07-02T14:33:43Z</time>
      </trkpt>
      <trkpt lat="40.206017" lon="-4.412517">
        <ele>1386.0</ele>
        <time>2013-07-02T14:33:44Z</time>
      </trkpt>
      <trkpt lat="40.205950" lon="-4.412400">
        <ele>1382.0</ele>
        <time>2013-07-02T14:33:45Z</time>
      </trkpt>
      <trkpt lat="40.205867" lon="-4.412300">
        <ele>1379.0</ele>
        <time>2013-07-02T14:33:46Z</time>
      </trkpt>
      <trkpt lat="40.205800" lon="-4.412183">
        <ele>1375.0</ele>
        <time>2013-07-02T14:33:47Z</time>
      </trkpt>
      <trkpt lat="40.205733" lon="-4.412067">
        <ele>1370.0</ele>
        <time>2013-07-02T14:33:48Z</time>
      </trkpt>
      <trkpt lat="40.205650" lon="-4.411967">
        <ele>1366.0</ele>
        <time>2013-07-02T14:33:49Z</time>
      </trkpt>
      <trkpt lat="40.205567" lon="-4.411867">
        <ele>1362.0</ele>
        <time>2013-07-02T14:33:50Z</time>
      </trkpt>
      <trkpt lat="40.205483" lon="-4.411767">
        <ele>1358.0</ele>
        <time>2013-07-02T14:33:51Z</time>
      </trkpt>
      <trkpt lat="40.205417" lon="-4.411667">
        <ele>1354.0</ele>
        <time>2013-07-02T14:33:52Z</time>
      </trkpt>
      <trkpt lat="40.205350" lon="-4.411550">
        <ele>1350.0</ele>
        <time>2013-07-02T14:33:53Z</time>
      </trkpt>
      <trkpt lat="40.205283" lon="-4.411450">
        <ele>1345.0</ele>
        <time>2013-07-02T14:33:54Z</time>
      </trkpt>
      <trkpt lat="40.205200" lon="-4.411350">
        <ele>1341.0</ele>
        <time>2013-07-02T14:33:55Z</time>
      </trkpt>
      <trkpt lat="40.205133" lon="-4.411250">
        <ele>1336.0</ele>
        <time>2013-07-02T14:33:56Z</time>
      </trkpt>
      <trkpt lat="40.205050" lon="-4.411133">
        <ele>1332.0</ele>
        <time>2013-07-02T14:33:57Z</time>
      </trkpt>
      <trkpt lat="40.204983" lon="-4.411017">
        <ele>1329.0</ele>
        <time>2013-07-02T14:33:58Z</time>
      </trkpt>
      <trkpt lat="40.204917" lon="-4.410883">
        <ele>1326.0</ele>
        <time>2013-07-02T14:33:59Z</time>
      </trkpt>
      <trkpt lat="40.204850" lon="-4.410783">
        <ele>1321.0</ele>
        <time>2013-07-02T14:34:00Z</time>
      </trkpt>
      <trkpt lat="40.204767" lon="-4.410667">
        <ele>1316.0</ele>
        <time>2013-07-02T14:34:01Z</time>
      </trkpt>
      <trkpt lat="40.204683" lon="-4.410550">
        <ele>1311.0</ele>
        <time>2013-07-02T14:34:02Z</time>
      </trkpt>
      <trkpt lat="40.204600" lon="-4.410450">
        <ele>1307.0</ele>
        <time>2013-07-02T14:34:03Z</time>
      </trkpt>
      <trkpt lat="40.204533" lon="-4.410333">
        <ele>1303.0</ele>
        <time>2013-07-02T14:34:04Z</time>
      </trkpt>
      <trkpt lat="40.204467" lon="-4.410233">
        <ele>1300.0</ele>
        <time>2013-07-02T14:34:05Z</time>
      </trkpt>
      <trkpt lat="40.204400" lon="-4.410117">
        <ele>1296.0</ele>
        <time>2013-07-02T14:34:06Z</time>
      </trkpt>
      <trkpt lat="40.204333" lon="-4.410000">
        <ele>1292.0</ele>
        <time>2013-07-02T14:34:07Z</time>
      </trkpt>
      <trkpt lat="40.204267" lon="-4.409883">
        <ele>1288.0</ele>
        <time>2013-07-02T14:34:08Z</time>
      </trkpt>
      <trkpt lat="40.204200" lon="-4.409767">
        <ele>1285.0</ele>
        <time>2013-07-02T14:34:09Z</time>
      </trkpt>
      <trkpt lat="40.204117" lon="-4.409633">
        <ele>1281.0</ele>
        <time>2013-07-02T14:34:10Z</time>
      </trkpt>
      <trkpt lat="40.204050" lon="-4.409500">
        <ele>1277.0</ele>
        <time>2013-07-02T14:34:11Z</time>
      </trkpt>
      <trkpt lat="40.204000" lon="-4.409350">
        <ele>1274.0</ele>
        <time>2013-07-02T14:34:12Z</time>
      </trkpt>
      <trkpt lat="40.203933" lon="-4.409200">
        <ele>1271.0</ele>
        <time>2013-07-02T14:34:13Z</time>
      </trkpt>
      <trkpt lat="40.203883" lon="-4.409033">
        <ele>1268.0</ele>
        <time>2013-07-02T14:34:14Z</time>
      </trkpt>
      <trkpt lat="40.203833" lon="-4.408883">
        <ele>1265.0</ele>
        <time>2013-07-02T14:34:15Z</time>
      </trkpt>
      <trkpt lat="40.203767" lon="-4.408733">
        <ele>1262.0</ele>
        <time>2013-07-02T14:34:16Z</time>
      </trkpt>
      <trkpt lat="40.203717" lon="-4.408583">
        <ele>1258.0</ele>
        <time>2013-07-02T14:34:17Z</time>
      </trkpt>
      <trkpt lat="40.203650" lon="-4.408433">
        <ele>1255.0</ele>
        <time>2013-07-02T14:34:18Z</time>
      </trkpt>
      <trkpt lat="40.203600" lon="-4.408267">
        <ele>1251.0</ele>
        <time>2013-07-02T14:34:19Z</time>
      </trkpt>
      <trkpt lat="40.203550" lon="-4.408117">
        <ele>1248.0</ele>
        <time>2013-07-02T14:34:20Z</time>
      </trkpt>
      <trkpt lat="40.203500" lon="-4.407967">
        <ele>1244.0</ele>
        <time>2013-07-02T14:34:21Z</time>
      </trkpt>
      <trkpt lat="40.203433" lon="-4.407800">
        <ele>1240.0</ele>
        <time>2013-07-02T14:34:22Z</time>
      </trkpt>
      <trkpt lat="40.203383" lon="-4.407633">
        <ele>1238.0</ele>
        <time>2013-07-02T14:34:23Z</time>
      </trkpt>
      <trkpt lat="40.203333" lon="-4.407467">
        <ele>1236.0</ele>
        <time>2013-07-02T14:34:24Z</time>
      </trkpt>
      <trkpt lat="40.203283" lon="-4.407300">
        <ele>1233.0</ele>
        <time>2013-07-02T14:34:25Z</time>
      </trkpt>
      <trkpt lat="40.203250" lon="-4.407133">
        <ele>1231.0</ele>
        <time>2013-07-02T14:34:26Z</time>
      </trkpt>
      <trkpt lat="40.203217" lon="-4.406967">
        <ele>1228.0</ele>
        <time>2013-07-02T14:34:27Z</time>
      </trkpt>
      <trkpt lat="40.203167" lon="-4.406783">
        <ele>1224.0</ele>
        <time>2013-07-02T14:34:28Z</time>
      </trkpt>
      <trkpt lat="40.203133" lon="-4.406600">
        <ele>1220.0</ele>
        <time>2013-07-02T14:34:29Z</time>
      </trkpt>
      <trkpt lat="40.203083" lon="-4.406417">
        <ele>1217.0</ele>
        <time>2013-07-02T14:34:30Z</time>
      </trkpt>
      <trkpt lat="40.203050" lon="-4.406233">
        <ele>1215.0</ele>
        <time>2013-07-02T14:34:31Z</time>
      </trkpt>
      <trkpt lat="40.203017" lon="-4.406050">
        <ele>1212.0</ele>
        <time>2013-07-02T14:34:32Z</time>
      </trkpt>
      <trkpt lat="40.202967" lon="-4.405867">
        <ele>1210.0</ele>
        <time>2013-07-02T14:34:33Z</time>
      </trkpt>
      <trkpt lat="40.202933" lon="-4.405683">
        <ele>1207.0</ele>
        <time>2013-07-02T14:34:34Z</time>
      </trkpt>
      <trkpt lat="40.202900" lon="-4.405483">
        <ele>1204.0</ele>
        <time>2013-07-02T14:34:35Z</time>
      </trkpt>
      <trkpt lat="40.202867" lon="-4.405300">
        <ele>1202.0</ele>
        <time>2013-07-02T14:34:36Z</time>
      </trkpt>
      <trkpt lat="40.202817" lon="-4.405100">
        <ele>1200.0</ele>
        <time>2013-07-02T14:34:37Z</time>
      </trkpt>
      <trkpt lat="40.202783" lon="-4.404917">
        <ele>1199.0</ele>
        <time>2013-07-02T14:34:38Z</time>
      </trkpt>
      <trkpt lat="40.202767" lon="-4.404733">
        <ele>1197.0</ele>
        <time>2013-07-02T14:34:39Z</time>
      </trkpt>
      <trkpt lat="40.202733" lon="-4.404550">
        <ele>1195.0</ele>
        <time>2013-07-02T14:34:40Z</time>
      </trkpt>
      <trkpt lat="40.202683" lon="-4.404367">
        <ele>1193.0</ele>
        <time>2013-07-02T14:34:41Z</time>
      </trkpt>
      <trkpt lat="40.202650" lon="-4.404183">
        <ele>1191.0</ele>
        <time>2013-07-02T14:34:42Z</time>
      </trkpt>
      <trkpt lat="40.202600" lon="-4.404000">
        <ele>1189.0</ele>
        <time>2013-07-02T14:34:43Z</time>
      </trkpt>
      <trkpt lat="40.202550" lon="-4.403833">
        <ele>1187.0</ele>
        <time>2013-07-02T14:34:44Z</time>
      </trkpt>
      <trkpt lat="40.202500" lon="-4.403650">
        <ele>1185.0</ele>
        <time>2013-07-02T14:34:45Z</time>
      </trkpt>
      <trkpt lat="40.202467" lon="-4.403483">
        <ele>1184.0</ele>
        <time>2013-07-02T14:34:46Z</time>
      </trkpt>
      <trkpt lat="40.202417" lon="-4.403317">
        <ele>1182.0</ele>
        <time>2013-07-02T14:34:47Z</time>
      </trkpt>
      <trkpt lat="40.202367" lon="-4.403133">
        <ele>1180.0</ele>
        <time>2013-07-02T14:34:48Z</time>
      </trkpt>
      <trkpt lat="40.202317" lon="-4.402967">
        <ele>1178.0</ele>
        <time>2013-07-02T14:34:49Z</time>
      </trkpt>
      <trkpt lat="40.202283" lon="-4.402783">
        <ele>1176.0</ele>
        <time>2013-07-02T14:34:50Z</time>
      </trkpt>
      <trkpt lat="40.202233" lon="-4.402600">
        <ele>1174.0</ele>
        <time>2013-07-02T14:34:51Z</time>
      </trkpt>
      <trkpt lat="40.202183" lon="-4.402417">
        <ele>1172.0</ele>
        <time>2013-07-02T14:34:52Z</time>
      </trkpt>
      <trkpt lat="40.202150" lon="-4.402250">
        <ele>1170.0</ele>
        <time>2013-07-02T14:34:53Z</time>
      </trkpt>
      <trkpt lat="40.202100" lon="-4.402067">
        <ele>1168.0</ele>
        <time>2013-07-02T14:34:54Z</time>
      </trkpt>
      <trkpt lat="40.202050" lon="-4.401900">
        <ele>1165.0</ele>
        <time>2013-07-02T14:34:55Z</time>
      </trkpt>
      <trkpt lat="40.202000" lon="-4.401733">
        <ele>1162.0</ele>
        <time>2013-07-02T14:34:56Z</time>
      </trkpt>
      <trkpt lat="40.201933" lon="-4.401567">
        <ele>1159.0</ele>
        <time>2013-07-02T14:34:57Z</time>
      </trkpt>
      <trkpt lat="40.201883" lon="-4.401400">
        <ele>1156.0</ele>
        <time>2013-07-02T14:34:58Z</time>
      </trkpt>
      <trkpt lat="40.201850" lon="-4.401217">
        <ele>1153.0</ele>
        <time>2013-07-02T14:34:59Z</time>
      </trkpt>
      <trkpt lat="40.201817" lon="-4.401017">
        <ele>1151.0</ele>
        <time>2013-07-02T14:35:00Z</time>
      </trkpt>
      <trkpt lat="40.201783" lon="-4.400833">
        <ele>1148.0</ele>
        <time>2013-07-02T14:35:01Z</time>
      </trkpt>
      <trkpt lat="40.201767" lon="-4.400650">
        <ele>1146.0</ele>
        <time>2013-07-02T14:35:02Z</time>
      </trkpt>
      <trkpt lat="40.201733" lon="-4.400467">
        <ele>1144.0</ele>
        <time>2013-07-02T14:35:03Z</time>
      </trkpt>
      <trkpt lat="40.201717" lon="-4.400283">
        <ele>1141.0</ele>
        <time>2013-07-02T14:35:04Z</time>
      </trkpt>
      <trkpt lat="40.201700" lon="-4.400117">
        <ele>1138.0</ele>
        <time>2013-07-02T14:35:05Z</time>
      </trkpt>
      <trkpt lat="40.201683" lon="-4.399933">
        <ele>1135.0</ele>
        <time>2013-07-02T14:35:06Z</time>
      </trkpt>
      <trkpt lat="40.201650" lon="-4.399733">
        <ele>1131.0</ele>
        <time>2013-07-02T14:35:07Z</time>
      </trkpt>
      <trkpt lat="40.201633" lon="-4.399533">
        <ele>1128.0</ele>
        <time>2013-07-02T14:35:08Z</time>
      </trkpt>
      <trkpt lat="40.201600" lon="-4.399333">
        <ele>1126.0</ele>
        <time>2013-07-02T14:35:09Z</time>
      </trkpt>
      <trkpt lat="40.201567" lon="-4.399133">
        <ele>1125.0</ele>
        <time>2013-07-02T14:35:10Z</time>
      </trkpt>
      <trkpt lat="40.201550" lon="-4.398950">
        <ele>1124.0</ele>
        <time>2013-07-02T14:35:11Z</time>
      </trkpt>
      <trkpt lat="40.201533" lon="-4.398783">
        <ele>1124.0</ele>
        <time>2013-07-02T14:35:12Z</time>
      </trkpt>
      <trkpt lat="40.201500" lon="-4.398600">
        <ele>1123.0</ele>
        <time>2013-07-02T14:35:13Z</time>
      </trkpt>
      <trkpt lat="40.201467" lon="-4.398417">
        <ele>1121.0</ele>
        <time>2013-07-02T14:35:14Z</time>
      </trkpt>
      <trkpt lat="40.201433" lon="-4.398217">
        <ele>1120.0</ele>
        <time>2013-07-02T14:35:15Z</time>
      </trkpt>
      <trkpt lat="40.201400" lon="-4.398033">
        <ele>1118.0</ele>
        <time>2013-07-02T14:35:16Z</time>
      </trkpt>
      <trkpt lat="40.201367" lon="-4.397850">
        <ele>1116.0</ele>
        <time>2013-07-02T14:35:17Z</time>
      </trkpt>
      <trkpt lat="40.201350" lon="-4.397667">
        <ele>1114.0</ele>
        <time>2013-07-02T14:35:18Z</time>
      </trkpt>
      <trkpt lat="40.201333" lon="-4.397500">
        <ele>1112.0</ele>
        <time>2013-07-02T14:35:19Z</time>
      </trkpt>
      <trkpt lat="40.201317" lon="-4.397317">
        <ele>1109.0</ele>
        <time>2013-07-02T14:35:20Z</time>
      </trkpt>
      <trkpt lat="40.201283" lon="-4.397117">
        <ele>1106.0</ele>
        <time>2013-07-02T14:35:21Z</time>
      </trkpt>
      <trkpt lat="40.201267" lon="-4.396917">
        <ele>1103.0</ele>
        <time>2013-07-02T14:35:22Z</time>
      </trkpt>
      <trkpt lat="40.201250" lon="-4.396717">
        <ele>1102.0</ele>
        <time>2013-07-02T14:35:23Z</time>
      </trkpt>
      <trkpt lat="40.201233" lon="-4.396533">
        <ele>1101.0</ele>
        <time>2013-07-02T14:35:24Z</time>
      </trkpt>
      <trkpt lat="40.201200" lon="-4.396367">
        <ele>1101.0</ele>
        <time>2013-07-02T14:35:25Z</time>
      </trkpt>
      <trkpt lat="40.201167" lon="-4.396217">
        <ele>1100.0</ele>
        <time>2013-07-02T14:35:26Z</time>
      </trkpt>
      <trkpt lat="40.201117" lon="-4.396067">
        <ele>1099.0</ele>
        <time>2013-07-02T14:35:27Z</time>
      </trkpt>
      <trkpt lat="40.201067" lon="-4.395917">
        <ele>1097.0</ele>
        <time>2013-07-02T14:35:28Z</time>
      </trkpt>
      <trkpt lat="40.201033" lon="-4.395733">
        <ele>1094.0</ele>
        <time>2013-07-02T14:35:29Z</time>
      </trkpt>
      <trkpt lat="40.201017" lon="-4.395550">
        <ele>1091.0</ele>
        <time>2013-07-02T14:35:30Z</time>
      </trkpt>
      <trkpt lat="40.201017" lon="-4.395350">
        <ele>1091.0</ele>
        <time>2013-07-02T14:35:31Z</time>
      </trkpt>
      <trkpt lat="40.201000" lon="-4.395183">
        <ele>1091.0</ele>
        <time>2013-07-02T14:35:32Z</time>
      </trkpt>
      <trkpt lat="40.200967" lon="-4.395033">
        <ele>1091.0</ele>
        <time>2013-07-02T14:35:33Z</time>
      </trkpt>
      <trkpt lat="40.200950" lon="-4.394900">
        <ele>1090.0</ele>
        <time>2013-07-02T14:35:34Z</time>
      </trkpt>
      <trkpt lat="40.200917" lon="-4.394750">
        <ele>1087.0</ele>
        <time>2013-07-02T14:35:35Z</time>
      </trkpt>
      <trkpt lat="40.200900" lon="-4.394567">
        <ele>1084.0</ele>
        <time>2013-07-02T14:35:36Z</time>
      </trkpt>
      <trkpt lat="40.200883" lon="-4.394383">
        <ele>1082.0</ele>
        <time>2013-07-02T14:35:37Z</time>
      </trkpt>
      <trkpt lat="40.200850" lon="-4.394217">
        <ele>1082.0</ele>
        <time>2013-07-02T14:35:38Z</time>
      </trkpt>
      <trkpt lat="40.200833" lon="-4.394067">
        <ele>1082.0</ele>
        <time>2013-07-02T14:35:39Z</time>
      </trkpt>
      <trkpt lat="40.200817" lon="-4.393933">
        <ele>1082.0</ele>
        <time>2013-07-02T14:35:40Z</time>
      </trkpt>
      <trkpt lat="40.200800" lon="-4.393783">
        <ele>1082.0</ele>
        <time>2013-07-02T14:35:41Z</time>
      </trkpt>
      <trkpt lat="40.200767" lon="-4.393633">
        <ele>1081.0</ele>
        <time>2013-07-02T14:35:42Z</time>
      </trkpt>
      <trkpt lat="40.200733" lon="-4.393483">
        <ele>1079.0</ele>
        <time>2013-07-02T14:35:43Z</time>
      </trkpt>
      <trkpt lat="40.200700" lon="-4.393317">
        <ele>1079.0</ele>
        <time>2013-07-02T14:35:44Z</time>
      </trkpt>
      <trkpt lat="40.200683" lon="-4.393167">
        <ele>1080.0</ele>
        <time>2013-07-02T14:35:45Z</time>
      </trkpt>
      <trkpt lat="40.200667" lon="-4.393017">
        <ele>1082.0</ele>
        <time>2013-07-02T14:35:46Z</time>
      </trkpt>
      <trkpt lat="40.200683" lon="-4.392867">
        <ele>1082.0</ele>
        <time>2013-07-02T14:35:47Z</time>
      </trkpt>
      <trkpt lat="40.200700" lon="-4.392683">
        <ele>1084.0</ele>
        <time>2013-07-02T14:35:48Z</time>
      </trkpt>
      <trkpt lat="40.200717" lon="-4.392533">
        <ele>1086.0</ele>
        <time>2013-07-02T14:35:49Z</time>
      </trkpt>
      <trkpt lat="40.200717" lon="-4.392383">
        <ele>1089.0</ele>
        <time>2013-07-02T14:35:50Z</time>
      </trkpt>
      <trkpt lat="40.200733" lon="-4.392233">
        <ele>1092.0</ele>
        <time>2013-07-02T14:35:51Z</time>
      </trkpt>
      <trkpt lat="40.200750" lon="-4.392083">
        <ele>1094.0</ele>
        <time>2013-07-02T14:35:52Z</time>
      </trkpt>
      <trkpt lat="40.200767" lon="-4.391933">
        <ele>1097.0</ele>
        <time>2013-07-02T14:35:53Z</time>
      </trkpt>
      <trkpt lat="40.200767" lon="-4.391800">
        <ele>1098.0</ele>
        <time>2013-07-02T14:35:54Z</time>
      </trkpt>
      <trkpt lat="40.200767" lon="-4.391650">
        <ele>1099.0</ele>
        <time>2013-07-02T14:35:55Z</time>
      </trkpt>
      <trkpt lat="40.200783" lon="-4.391500">
        <ele>1100.0</ele>
        <time>2013-07-02T14:35:56Z</time>
      </trkpt>
      <trkpt lat="40.200783" lon="-4.391350">
        <ele>1100.0</ele>
        <time>2013-07-02T14:35:57Z</time>
      </trkpt>
      <trkpt lat="40.200783" lon="-4.391183">
        <ele>1101.0</ele>
        <time>2013-07-02T14:35:58Z</time>
      </trkpt>
      <trkpt lat="40.200800" lon="-4.391017">
        <ele>1102.0</ele>
        <time>2013-07-02T14:35:59Z</time>
      </trkpt>
      <trkpt lat="40.200800" lon="-4.390867">
        <ele>1103.0</ele>
        <time>2013-07-02T14:36:00Z</time>
      </trkpt>
      <trkpt lat="40.200800" lon="-4.390700">
        <ele>1103.0</ele>
        <time>2013-07-02T14:36:01Z</time>
      </trkpt>
      <trkpt lat="40.200783" lon="-4.390517">
        <ele>1103.0</ele>
        <time>2013-07-02T14:36:02Z</time>
      </trkpt>
      <trkpt lat="40.200783" lon="-4.390333">
        <ele>1102.0</ele>
        <time>2013-07-02T14:36:03Z</time>
      </trkpt>
      <trkpt lat="40.200767" lon="-4.390133">
        <ele>1100.0</ele>
        <time>2013-07-02T14:36:04Z</time>
      </trkpt>
      <trkpt lat="40.200733" lon="-4.389967">
        <ele>1098.0</ele>
        <time>2013-07-02T14:36:05Z</time>
      </trkpt>
      <trkpt lat="40.200700" lon="-4.389817">
        <ele>1096.0</ele>
        <time>2013-07-02T14:36:06Z</time>
      </trkpt>
      <trkpt lat="40.200650" lon="-4.389683">
        <ele>1093.0</ele>
        <time>2013-07-02T14:36:07Z</time>
      </trkpt>
      <trkpt lat="40.200617" lon="-4.389517">
        <ele>1090.0</ele>
        <time>2013-07-02T14:36:08Z</time>
      </trkpt>
      <trkpt lat="40.200600" lon="-4.389300">
        <ele>1088.0</ele>
        <time>2013-07-02T14:36:09Z</time>
      </trkpt>
      <trkpt lat="40.200600" lon="-4.389100">
        <ele>1086.0</ele>
        <time>2013-07-02T14:36:10Z</time>
      </trkpt>
      <trkpt lat="40.200567" lon="-4.388883">
        <ele>1089.0</ele>
        <time>2013-07-02T14:36:11Z</time>
      </trkpt>
      <trkpt lat="40.200550" lon="-4.388717">
        <ele>1094.0</ele>
        <time>2013-07-02T14:36:12Z</time>
      </trkpt>
      <trkpt lat="40.200567" lon="-4.388533">
        <ele>1098.0</ele>
        <time>2013-07-02T14:36:13Z</time>
      </trkpt>
      <trkpt lat="40.200600" lon="-4.388367">
        <ele>1101.0</ele>
        <time>2013-07-02T14:36:14Z</time>
      </trkpt>
      <trkpt lat="40.200667" lon="-4.388217">
        <ele>1104.0</ele>
        <time>2013-07-02T14:36:15Z</time>
      </trkpt>
      <trkpt lat="40.200733" lon="-4.388067">
        <ele>1107.0</ele>
        <time>2013-07-02T14:36:16Z</time>
      </trkpt>
      <trkpt lat="40.200783" lon="-4.387917">
        <ele>1110.0</ele>
        <time>2013-07-02T14:36:17Z</time>
      </trkpt>
      <trkpt lat="40.200833" lon="-4.387767">
        <ele>1113.0</ele>
        <time>2013-07-02T14:36:18Z</time>
      </trkpt>
      <trkpt lat="40.200867" lon="-4.387600">
        <ele>1116.0</ele>
        <time>2013-07-02T14:36:19Z</time>
      </trkpt>
      <trkpt lat="40.200883" lon="-4.387450">
        <ele>1120.0</ele>
        <time>2013-07-02T14:36:20Z</time>
      </trkpt>
      <trkpt lat="40.200917" lon="-4.387267">
        <ele>1123.0</ele>
        <time>2013-07-02T14:36:21Z</time>
      </trkpt>
      <trkpt lat="40.200917" lon="-4.387100">
        <ele>1125.0</ele>
        <time>2013-07-02T14:36:22Z</time>
      </trkpt>
      <trkpt lat="40.200917" lon="-4.386917">
        <ele>1128.0</ele>
        <time>2013-07-02T14:36:23Z</time>
      </trkpt>
      <trkpt lat="40.200900" lon="-4.386750">
        <ele>1129.0</ele>
        <time>2013-07-02T14:36:24Z</time>
      </trkpt>
      <trkpt lat="40.200867" lon="-4.386600">
        <ele>1132.0</ele>
        <time>2013-07-02T14:36:25Z</time>
      </trkpt>
      <trkpt lat="40.200850" lon="-4.386467">
        <ele>1136.0</ele>
        <time>2013-07-02T14:36:26Z</time>
      </trkpt>
      <trkpt lat="40.200833" lon="-4.386333">
        <ele>1139.0</ele>
        <time>2013-07-02T14:36:27Z</time>
      </trkpt>
      <trkpt lat="40.200833" lon="-4.386183">
        <ele>1141.0</ele>
        <time>2013-07-02T14:36:28Z</time>
      </trkpt>
      <trkpt lat="40.200850" lon="-4.386017">
        <ele>1143.0</ele>
        <time>2013-07-02T14:36:29Z</time>
      </trkpt>
      <trkpt lat="40.200867" lon="-4.385833">
        <ele>1146.0</ele>
        <time>2013-07-02T14:36:30Z</time>
      </trkpt>
      <trkpt lat="40.200917" lon="-4.385667">
        <ele>1150.0</ele>
        <time>2013-07-02T14:36:31Z</time>
      </trkpt>
      <trkpt lat="40.200950" lon="-4.385500">
        <ele>1155.0</ele>
        <time>2013-07-02T14:36:32Z</time>
      </trkpt>
      <trkpt lat="40.200983" lon="-4.385350">
        <ele>1161.0</ele>
        <time>2013-07-02T14:36:33Z</time>
      </trkpt>
      <trkpt lat="40.201033" lon="-4.385200">
        <ele>1167.0</ele>
        <time>2013-07-02T14:36:34Z</time>
      </trkpt>
      <trkpt lat="40.201083" lon="-4.385100">
        <ele>1171.0</ele>
        <time>2013-07-02T14:36:35Z</time>
      </trkpt>
      <trkpt lat="40.201167" lon="-4.385000">
        <ele>1174.0</ele>
        <time>2013-07-02T14:36:36Z</time>
      </trkpt>
      <trkpt lat="40.201267" lon="-4.384900">
        <ele>1178.0</ele>
        <time>2013-07-02T14:36:37Z</time>
      </trkpt>
      <trkpt lat="40.201367" lon="-4.384800">
        <ele>1182.0</ele>
        <time>2013-07-02T14:36:38Z</time>
      </trkpt>
      <trkpt lat="40.201450" lon="-4.384700">
        <ele>1186.0</ele>
        <time>2013-07-02T14:36:39Z</time>
      </trkpt>
      <trkpt lat="40.201533" lon="-4.384600">
        <ele>1190.0</ele>
        <time>2013-07-02T14:36:40Z</time>
      </trkpt>
      <trkpt lat="40.201617" lon="-4.384517">
        <ele>1193.0</ele>
        <time>2013-07-02T14:36:41Z</time>
      </trkpt>
      <trkpt lat="40.201700" lon="-4.384433">
        <ele>1196.0</ele>
        <time>2013-07-02T14:36:42Z</time>
      </trkpt>
      <trkpt lat="40.201800" lon="-4.384367">
        <ele>1198.0</ele>
        <time>2013-07-02T14:36:43Z</time>
      </trkpt>
      <trkpt lat="40.201917" lon="-4.384300">
        <ele>1201.0</ele>
        <time>2013-07-02T14:36:44Z</time>
      </trkpt>
      <trkpt lat="40.202017" lon="-4.384250">
        <ele>1204.0</ele>
        <time>2013-07-02T14:36:45Z</time>
      </trkpt>
      <trkpt lat="40.202100" lon="-4.384183">
        <ele>1208.0</ele>
        <time>2013-07-02T14:36:46Z</time>
      </trkpt>
      <trkpt lat="40.202183" lon="-4.384133">
        <ele>1212.0</ele>
        <time>2013-07-02T14:36:47Z</time>
      </trkpt>
      <trkpt lat="40.202267" lon="-4.384083">
        <ele>1216.0</ele>
        <time>2013-07-02T14:36:48Z</time>
      </trkpt>
      <trkpt lat="40.202367" lon="-4.384033">
        <ele>1219.0</ele>
        <time>2013-07-02T14:36:49Z</time>
      </trkpt>
      <trkpt lat="40.202467" lon="-4.383967">
        <ele>1223.0</ele>
        <time>2013-07-02T14:36:50Z</time>
      </trkpt>
      <trkpt lat="40.202583" lon="-4.383933">
        <ele>1228.0</ele>
        <time>2013-07-02T14:36:51Z</time>
      </trkpt>
      <trkpt lat="40.202683" lon="-4.383883">
        <ele>1232.0</ele>
        <time>2013-07-02T14:36:52Z</time>
      </trkpt>
      <trkpt lat="40.202767" lon="-4.383850">
        <ele>1237.0</ele>
        <time>2013-07-02T14:36:53Z</time>
      </trkpt>
      <trkpt lat="40.202850" lon="-4.383800">
        <ele>1241.0</ele>
        <time>2013-07-02T14:36:54Z</time>
      </trkpt>
      <trkpt lat="40.202950" lon="-4.383750">
        <ele>1243.0</ele>
        <time>2013-07-02T14:36:55Z</time>
      </trkpt>
      <trkpt lat="40.203050" lon="-4.383683">
        <ele>1246.0</ele>
        <time>2013-07-02T14:36:56Z</time>
      </trkpt>
      <trkpt lat="40.203150" lon="-4.383633">
        <ele>1248.0</ele>
        <time>2013-07-02T14:36:57Z</time>
      </trkpt>
      <trkpt lat="40.203233" lon="-4.383583">
        <ele>1251.0</ele>
        <time>2013-07-02T14:36:58Z</time>
      </trkpt>
      <trkpt lat="40.203317" lon="-4.383533">
        <ele>1252.0</ele>
        <time>2013-07-02T14:36:59Z</time>
      </trkpt>
      <trkpt lat="40.203400" lon="-4.383500">
        <ele>1253.0</ele>
        <time>2013-07-02T14:37:00Z</time>
      </trkpt>
      <trkpt lat="40.203467" lon="-4.383450">
        <ele>1254.0</ele>
        <time>2013-07-02T14:37:01Z</time>
      </trkpt>
      <trkpt lat="40.203550" lon="-4.383383">
        <ele>1253.0</ele>
        <time>2013-07-02T14:37:02Z</time>
      </trkpt>
      <trkpt lat="40.203650" lon="-4.383317">
        <ele>1253.0</ele>
        <time>2013-07-02T14:37:03Z</time>
      </trkpt>
      <trkpt lat="40.203733" lon="-4.383267">
        <ele>1253.0</ele>
        <time>2013-07-02T14:37:04Z</time>
      </trkpt>
      <trkpt lat="40.203833" lon="-4.383200">
        <ele>1252.0</ele>
        <time>2013-07-02T14:37:05Z</time>
      </trkpt>
      <trkpt lat="40.203933" lon="-4.383117">
        <ele>1252.0</ele>
        <time>2013-07-02T14:37:06Z</time>
      </trkpt>
      <trkpt lat="40.204017" lon="-4.383000">
        <ele>1252.0</ele>
        <time>2013-07-02T14:37:07Z</time>
      </trkpt>
      <trkpt lat="40.204100" lon="-4.382883">
        <ele>1252.0</ele>
        <time>2013-07-02T14:37:08Z</time>
      </trkpt>
      <trkpt lat="40.204167" lon="-4.382750">
        <ele>1252.0</ele>
        <time>2013-07-02T14:37:09Z</time>
      </trkpt>
      <trkpt lat="40.204250" lon="-4.382617">
        <ele>1252.0</ele>
        <time>2013-07-02T14:37:10Z</time>
      </trkpt>
      <trkpt lat="40.204317" lon="-4.382483">
        <ele>1252.0</ele>
        <time>2013-07-02T14:37:11Z</time>
      </trkpt>
      <trkpt lat="40.204400" lon="-4.382383">
        <ele>1252.0</ele>
        <time>2013-07-02T14:37:12Z</time>
      </trkpt>
      <trkpt lat="40.204483" lon="-4.382300">
        <ele>1252.0</ele>
        <time>2013-07-02T14:37:13Z</time>
      </trkpt>
      <trkpt lat="40.204567" lon="-4.382217">
        <ele>1252.0</ele>
        <time>2013-07-02T14:37:14Z</time>
      </trkpt>
      <trkpt lat="40.204650" lon="-4.382150">
        <ele>1254.0</ele>
        <time>2013-07-02T14:37:15Z</time>
      </trkpt>
      <trkpt lat="40.204717" lon="-4.382067">
        <ele>1256.0</ele>
        <time>2013-07-02T14:37:16Z</time>
      </trkpt>
      <trkpt lat="40.204800" lon="-4.382000">
        <ele>1260.0</ele>
        <time>2013-07-02T14:37:17Z</time>
      </trkpt>
      <trkpt lat="40.204867" lon="-4.381967">
        <ele>1263.0</ele>
        <time>2013-07-02T14:37:18Z</time>
      </trkpt>
      <trkpt lat="40.204917" lon="-4.381950">
        <ele>1267.0</ele>
        <time>2013-07-02T14:37:19Z</time>
      </trkpt>
      <trkpt lat="40.204983" lon="-4.381933">
        <ele>1272.0</ele>
        <time>2013-07-02T14:37:20Z</time>
      </trkpt>
      <trkpt lat="40.205050" lon="-4.381917">
        <ele>1276.0</ele>
        <time>2013-07-02T14:37:21Z</time>
      </trkpt>
      <trkpt lat="40.205117" lon="-4.381883">
        <ele>1280.0</ele>
        <time>2013-07-02T14:37:22Z</time>
      </trkpt>
      <trkpt lat="40.205200" lon="-4.381850">
        <ele>1283.0</ele>
        <time>2013-07-02T14:37:23Z</time>
      </trkpt>
      <trkpt lat="40.205267" lon="-4.381817">
        <ele>1286.0</ele>
        <time>2013-07-02T14:37:24Z</time>
      </trkpt>
      <trkpt lat="40.205350" lon="-4.381800">
        <ele>1288.0</ele>
        <time>2013-07-02T14:37:25Z</time>
      </trkpt>
      <trkpt lat="40.205417" lon="-4.381783">
        <ele>1288.0</ele>
        <time>2013-07-02T14:37:26Z</time>
      </trkpt>
      <trkpt lat="40.205500" lon="-4.381750">
        <ele>1288.0</ele>
        <time>2013-07-02T14:37:27Z</time>
      </trkpt>
      <trkpt lat="40.205550" lon="-4.381733">
        <ele>1285.0</ele>
        <time>2013-07-02T14:37:28Z</time>
      </trkpt>
      <trkpt lat="40.205633" lon="-4.381683">
        <ele>1284.0</ele>
        <time>2013-07-02T14:37:29Z</time>
      </trkpt>
      <trkpt lat="40.205733" lon="-4.381650">
        <ele>1280.0</ele>
        <time>2013-07-02T14:37:30Z</time>
      </trkpt>
      <trkpt lat="40.205833" lon="-4.381617">
        <ele>1278.0</ele>
        <time>2013-07-02T14:37:31Z</time>
      </trkpt>
      <trkpt lat="40.205917" lon="-4.381583">
        <ele>1276.0</ele>
        <time>2013-07-02T14:37:32Z</time>
      </trkpt>
      <trkpt lat="40.206017" lon="-4.381517">
        <ele>1275.0</ele>
        <time>2013-07-02T14:37:33Z</time>
      </trkpt>
      <trkpt lat="40.206100" lon="-4.381450">
        <ele>1273.0</ele>
        <time>2013-07-02T14:37:34Z</time>
      </trkpt>
      <trkpt lat="40.206183" lon="-4.381383">
        <ele>1271.0</ele>
        <time>2013-07-02T14:37:35Z</time>
      </trkpt>
      <trkpt lat="40.206283" lon="-4.381317">
        <ele>1268.0</ele>
        <time>2013-07-02T14:37:36Z</time>
      </trkpt>
      <trkpt lat="40.206383" lon="-4.381250">
        <ele>1266.0</ele>
        <time>2013-07-02T14:37:37Z</time>
      </trkpt>
      <trkpt lat="40.206467" lon="-4.381167">
        <ele>1264.0</ele>
        <time>2013-07-02T14:37:38Z</time>
      </trkpt>
      <trkpt lat="40.206567" lon="-4.381083">
        <ele>1262.0</ele>
        <time>2013-07-02T14:37:39Z</time>
      </trkpt>
      <trkpt lat="40.206650" lon="-4.381000">
        <ele>1259.0</ele>
        <time>2013-07-02T14:37:40Z</time>
      </trkpt>
      <trkpt lat="40.206733" lon="-4.380900">
        <ele>1257.0</ele>
        <time>2013-07-02T14:37:41Z</time>
      </trkpt>
      <trkpt lat="40.206833" lon="-4.380817">
        <ele>1254.0</ele>
        <time>2013-07-02T14:37:42Z</time>
      </trkpt>
      <trkpt lat="40.206933" lon="-4.380750">
        <ele>1251.0</ele>
        <time>2013-07-02T14:37:43Z</time>
      </trkpt>
      <trkpt lat="40.207033" lon="-4.380683">
        <ele>1249.0</ele>
        <time>2013-07-02T14:37:44Z</time>
      </trkpt>
      <trkpt lat="40.207150" lon="-4.380617">
        <ele>1247.0</ele>
        <time>2013-07-02T14:37:45Z</time>
      </trkpt>
      <trkpt lat="40.207233" lon="-4.380550">
        <ele>1245.0</ele>
        <time>2013-07-02T14:37:46Z</time>
      </trkpt>
      <trkpt lat="40.207300" lon="-4.380500">
        <ele>1244.0</ele>
        <time>2013-07-02T14:37:47Z</time>
      </trkpt>
      <trkpt lat="40.207333" lon="-4.380467">
        <ele>1242.0</ele>
        <time>2013-07-02T14:37:48Z</time>
      </trkpt>
      <trkpt lat="40.207350" lon="-4.380467">
        <ele>1237.0</ele>
        <time>2013-07-02T14:37:49Z</time>
      </trkpt>
      <trkpt lat="40.207350" lon="-4.380500">
        <ele>1234.0</ele>
        <time>2013-07-02T14:37:50Z</time>
      </trkpt>
      <trkpt lat="40.207333" lon="-4.380533">
        <ele>1231.0</ele>
        <time>2013-07-02T14:37:51Z</time>
      </trkpt>
      <trkpt lat="40.207333" lon="-4.380550">
        <ele>1228.0</ele>
        <time>2013-07-02T14:37:52Z</time>
      </trkpt>
      <trkpt lat="40.207317" lon="-4.380550">
        <ele>1227.0</ele>
        <time>2013-07-02T14:37:53Z</time>
      </trkpt>
      <trkpt lat="40.207300" lon="-4.380550">
        <ele>1225.0</ele>
        <time>2013-07-02T14:37:54Z</time>
      </trkpt>
      <trkpt lat="40.207300" lon="-4.380583">
        <ele>1224.0</ele>
        <time>2013-07-02T14:37:55Z</time>
      </trkpt>
      <trkpt lat="40.207267" lon="-4.380600">
        <ele>1228.0</ele>
        <time>2013-07-02T14:37:56Z</time>
      </trkpt>
      <trkpt lat="40.207250" lon="-4.380633">
        <ele>1228.0</ele>
        <time>2013-07-02T14:37:57Z</time>
      </trkpt>
      <trkpt lat="40.207217" lon="-4.380667">
        <ele>1228.0</ele>
        <time>2013-07-02T14:37:58Z</time>
      </trkpt>
      <trkpt lat="40.207167" lon="-4.380683">
        <ele>1227.0</ele>
        <time>2013-07-02T14:37:59Z</time>
      </trkpt>
      <trkpt lat="40.207117" lon="-4.380700">
        <ele>1227.0</ele>
        <time>2013-07-02T14:38:00Z</time>
      </trkpt>
      <trkpt lat="40.207067" lon="-4.380717">
        <ele>1226.0</ele>
        <time>2013-07-02T14:38:01Z</time>
      </trkpt>
      <trkpt lat="40.207033" lon="-4.380750">
        <ele>1226.0</ele>
        <time>2013-07-02T14:38:02Z</time>
      </trkpt>
      <trkpt lat="40.207000" lon="-4.380767">
        <ele>1226.0</ele>
        <time>2013-07-02T14:38:03Z</time>
      </trkpt>
      <trkpt lat="40.206967" lon="-4.380783">
        <ele>1226.0</ele>
        <time>2013-07-02T14:38:04Z</time>
      </trkpt>
      <trkpt lat="40.206933" lon="-4.380783">
        <ele>1225.0</ele>
        <time>2013-07-02T14:38:05Z</time>
      </trkpt>
      <trkpt lat="40.206883" lon="-4.380767">
        <ele>1225.0</ele>
        <time>2013-07-02T14:38:06Z</time>
      </trkpt>
      <trkpt lat="40.206850" lon="-4.380767">
        <ele>1225.0</ele>
        <time>2013-07-02T14:38:07Z</time>
      </trkpt>
      <trkpt lat="40.206800" lon="-4.380783">
        <ele>1224.0</ele>
        <time>2013-07-02T14:38:08Z</time>
      </trkpt>
      <trkpt lat="40.206733" lon="-4.380817">
        <ele>1224.0</ele>
        <time>2013-07-02T14:38:09Z</time>
      </trkpt>
      <trkpt lat="40.206683" lon="-4.380850">
        <ele>1223.0</ele>
        <time>2013-07-02T14:38:10Z</time>
      </trkpt>
      <trkpt lat="40.206633" lon="-4.380883">
        <ele>1222.0</ele>
        <time>2013-07-02T14:38:11Z</time>
      </trkpt>
      <trkpt lat="40.206617" lon="-4.380933">
        <ele>1218.0</ele>
        <time>2013-07-02T14:38:12Z</time>
      </trkpt>
      <trkpt lat="40.206617" lon="-4.380983">
        <ele>1215.0</ele>
        <time>2013-07-02T14:38:13Z</time>
      </trkpt>
      <trkpt lat="40.206617" lon="-4.381017">
        <ele>1213.0</ele>
        <time>2013-07-02T14:38:14Z</time>
      </trkpt>
      <trkpt lat="40.206617" lon="-4.381067">
        <ele>1210.0</ele>
        <time>2013-07-02T14:38:15Z</time>
      </trkpt>
      <trkpt lat="40.206617" lon="-4.381100">
        <ele>1205.0</ele>
        <time>2013-07-02T14:38:16Z</time>
      </trkpt>
      <trkpt lat="40.206617" lon="-4.381117">
        <ele>1200.0</ele>
        <time>2013-07-02T14:38:17Z</time>
      </trkpt>
      <trkpt lat="40.206633" lon="-4.381150">
        <ele>1197.0</ele>
        <time>2013-07-02T14:38:18Z</time>
      </trkpt>
      <trkpt lat="40.206633" lon="-4.381167">
        <ele>1192.0</ele>
        <time>2013-07-02T14:38:19Z</time>
      </trkpt>
      <trkpt lat="40.206617" lon="-4.381200">
        <ele>1189.0</ele>
        <time>2013-07-02T14:38:20Z</time>
      </trkpt>
      <trkpt lat="40.206600" lon="-4.381250">
        <ele>1187.0</ele>
        <time>2013-07-02T14:38:21Z</time>
      </trkpt>
      <trkpt lat="40.206567" lon="-4.381283">
        <ele>1185.0</ele>
        <time>2013-07-02T14:38:22Z</time>
      </trkpt>
      <trkpt lat="40.206550" lon="-4.381300">
        <ele>1183.0</ele>
        <time>2013-07-02T14:38:23Z</time>
      </trkpt>
      <trkpt lat="40.206517" lon="-4.381317">
        <ele>1181.0</ele>
        <time>2013-07-02T14:38:24Z</time>
      </trkpt>
      <trkpt lat="40.206483" lon="-4.381333">
        <ele>1178.0</ele>
        <time>2013-07-02T14:38:25Z</time>
      </trkpt>
      <trkpt lat="40.206417" lon="-4.381333">
        <ele>1175.0</ele>
        <time>2013-07-02T14:38:26Z</time>
      </trkpt>
      <trkpt lat="40.206367" lon="-4.381367">
        <ele>1181.0</ele>
        <time>2013-07-02T14:38:27Z</time>
      </trkpt>
      <trkpt lat="40.206350" lon="-4.381417">
        <ele>1179.0</ele>
        <time>2013-07-02T14:38:28Z</time>
      </trkpt>
      <trkpt lat="40.206350" lon="-4.381450">
        <ele>1174.0</ele>
        <time>2013-07-02T14:38:29Z</time>
      </trkpt>
      <trkpt lat="40.206367" lon="-4.381467">
        <ele>1171.0</ele>
        <time>2013-07-02T14:38:30Z</time>
      </trkpt>
      <trkpt lat="40.206367" lon="-4.381500">
        <ele>1167.0</ele>
        <time>2013-07-02T14:38:31Z</time>
      </trkpt>
      <trkpt lat="40.206350" lon="-4.381517">
        <ele>1165.0</ele>
        <time>2013-07-02T14:38:32Z</time>
      </trkpt>
      <trkpt lat="40.206333" lon="-4.381550">
        <ele>1162.0</ele>
        <time>2013-07-02T14:38:33Z</time>
      </trkpt>
      <trkpt lat="40.206333" lon="-4.381600">
        <ele>1158.0</ele>
        <time>2013-07-02T14:38:34Z</time>
      </trkpt>
      <trkpt lat="40.206333" lon="-4.381633">
        <ele>1154.0</ele>
        <time>2013-07-02T14:38:35Z</time>
      </trkpt>
      <trkpt lat="40.206350" lon="-4.381683">
        <ele>1150.0</ele>
        <time>2013-07-02T14:38:36Z</time>
      </trkpt>
      <trkpt lat="40.206367" lon="-4.381717">
        <ele>1148.0</ele>
        <time>2013-07-02T14:38:37Z</time>
      </trkpt>
      <trkpt lat="40.206383" lon="-4.381767">
        <ele>1145.0</ele>
        <time>2013-07-02T14:38:38Z</time>
      </trkpt>
      <trkpt lat="40.206417" lon="-4.381800">
        <ele>1142.0</ele>
        <time>2013-07-02T14:38:39Z</time>
      </trkpt>
      <trkpt lat="40.206450" lon="-4.381833">
        <ele>1139.0</ele>
        <time>2013-07-02T14:38:40Z</time>
      </trkpt>
      <trkpt lat="40.206483" lon="-4.381850">
        <ele>1137.0</ele>
        <time>2013-07-02T14:38:41Z</time>
      </trkpt>
      <trkpt lat="40.206517" lon="-4.381883">
        <ele>1135.0</ele>
        <time>2013-07-02T14:38:42Z</time>
      </trkpt>
      <trkpt lat="40.206500" lon="-4.381900">
        <ele>1133.0</ele>
        <time>2013-07-02T14:38:43Z</time>
      </trkpt>
      <trkpt lat="40.206500" lon="-4.381950">
        <ele>1135.0</ele>
        <time>2013-07-02T14:38:44Z</time>
      </trkpt>
      <trkpt lat="40.206483" lon="-4.381983">
        <ele>1134.0</ele>
        <time>2013-07-02T14:38:45Z</time>
      </trkpt>
      <trkpt lat="40.206467" lon="-4.382000">
        <ele>1134.0</ele>
        <time>2013-07-02T14:38:46Z</time>
      </trkpt>
      <trkpt lat="40.206450" lon="-4.382033">
        <ele>1133.0</ele>
        <time>2013-07-02T14:38:47Z</time>
      </trkpt>
      <trkpt lat="40.206433" lon="-4.382050">
        <ele>1132.0</ele>
        <time>2013-07-02T14:38:48Z</time>
      </trkpt>
      <trkpt lat="40.206400" lon="-4.382067">
        <ele>1132.0</ele>
        <time>2013-07-02T14:38:49Z</time>
      </trkpt>
      <trkpt lat="40.206383" lon="-4.382100">
        <ele>1132.0</ele>
        <time>2013-07-02T14:38:50Z</time>
      </trkpt>
      <trkpt lat="40.206367" lon="-4.382117">
        <ele>1133.0</ele>
        <time>2013-07-02T14:38:51Z</time>
      </trkpt>
      <trkpt lat="40.206350" lon="-4.382133">
        <ele>1133.0</ele>
        <time>2013-07-02T14:38:52Z</time>
      </trkpt>
      <trkpt lat="40.206317" lon="-4.382133">
        <ele>1133.0</ele>
        <time>2013-07-02T14:38:53Z</time>
      </trkpt>
      <trkpt lat="40.206283" lon="-4.382133">
        <ele>1132.0</ele>
        <time>2013-07-02T14:38:54Z</time>
      </trkpt>
      <trkpt lat="40.206233" lon="-4.382150">
        <ele>1129.0</ele>
        <time>2013-07-02T14:38:55Z</time>
      </trkpt>
      <trkpt lat="40.206183" lon="-4.382183">
        <ele>1128.0</ele>
        <time>2013-07-02T14:38:56Z</time>
      </trkpt>
      <trkpt lat="40.206117" lon="-4.382200">
        <ele>1128.0</ele>
        <time>2013-07-02T14:38:57Z</time>
      </trkpt>
      <trkpt lat="40.206067" lon="-4.382200">
        <ele>1128.0</ele>
        <time>2013-07-02T14:38:58Z</time>
      </trkpt>
      <trkpt lat="40.206000" lon="-4.382183">
        <ele>1127.0</ele>
        <time>2013-07-02T14:38:59Z</time>
      </trkpt>
      <trkpt lat="40.205933" lon="-4.382167">
        <ele>1127.0</ele>
        <time>2013-07-02T14:39:00Z</time>
      </trkpt>
      <trkpt lat="40.205883" lon="-4.382167">
        <ele>1126.0</ele>
        <time>2013-07-02T14:39:01Z</time>
      </trkpt>
      <trkpt lat="40.205850" lon="-4.382200">
        <ele>1125.0</ele>
        <time>2013-07-02T14:39:02Z</time>
      </trkpt>
      <trkpt lat="40.205833" lon="-4.382250">
        <ele>1124.0</ele>
        <time>2013-07-02T14:39:03Z</time>
      </trkpt>
      <trkpt lat="40.205850" lon="-4.382317">
        <ele>1124.0</ele>
        <time>2013-07-02T14:39:04Z</time>
      </trkpt>
      <trkpt lat="40.205883" lon="-4.382350">
        <ele>1125.0</ele>
        <time>2013-07-02T14:39:05Z</time>
      </trkpt>
      <trkpt lat="40.205933" lon="-4.382367">
        <ele>1124.0</ele>
        <time>2013-07-02T14:39:06Z</time>
      </trkpt>
      <trkpt lat="40.205983" lon="-4.382367">
        <ele>1122.0</ele>
        <time>2013-07-02T14:39:07Z</time>
      </trkpt>
      <trkpt lat="40.206050" lon="-4.382350">
        <ele>1120.0</ele>
        <time>2013-07-02T14:39:08Z</time>
      </trkpt>
      <trkpt lat="40.206133" lon="-4.382333">
        <ele>1119.0</ele>
        <time>2013-07-02T14:39:09Z</time>
      </trkpt>
      <trkpt lat="40.206233" lon="-4.382283">
        <ele>1117.0</ele>
        <time>2013-07-02T14:39:10Z</time>
      </trkpt>
      <trkpt lat="40.206333" lon="-4.382217">
        <ele>1118.0</ele>
        <time>2013-07-02T14:39:11Z</time>
      </trkpt>
      <trkpt lat="40.206433" lon="-4.382133">
        <ele>1119.0</ele>
        <time>2013-07-02T14:39:12Z</time>
      </trkpt>
      <trkpt lat="40.206500" lon="-4.382033">
        <ele>1121.0</ele>
        <time>2013-07-02T14:39:13Z</time>
      </trkpt>
      <trkpt lat="40.206567" lon="-4.381933">
        <ele>1123.0</ele>
        <time>2013-07-02T14:39:14Z</time>
      </trkpt>
      <trkpt lat="40.206617" lon="-4.381800">
        <ele>1125.0</ele>
        <time>2013-07-02T14:39:15Z</time>
      </trkpt>
      <trkpt lat="40.206650" lon="-4.381650">
        <ele>1126.0</ele>
        <time>2013-07-02T14:39:16Z</time>
      </trkpt>
      <trkpt lat="40.206650" lon="-4.381500">
        <ele>1126.0</ele>
        <time>2013-07-02T14:39:17Z</time>
      </trkpt>
      <trkpt lat="40.206633" lon="-4.381333">
        <ele>1126.0</ele>
        <time>2013-07-02T14:39:18Z</time>
      </trkpt>
      <trkpt lat="40.206600" lon="-4.381167">
        <ele>1127.0</ele>
        <time>2013-07-02T14:39:19Z</time>
      </trkpt>
      <trkpt lat="40.206550" lon="-4.381000">
        <ele>1128.0</ele>
        <time>2013-07-02T14:39:20Z</time>
      </trkpt>
      <trkpt lat="40.206500" lon="-4.380850">
        <ele>1128.0</ele>
        <time>2013-07-02T14:39:21Z</time>
      </trkpt>
      <trkpt lat="40.206417" lon="-4.380717">
        <ele>1129.0</ele>
        <time>2013-07-02T14:39:22Z</time>
      </trkpt>
      <trkpt lat="40.206333" lon="-4.380600">
        <ele>1130.0</ele>
        <time>2013-07-02T14:39:23Z</time>
      </trkpt>
      <trkpt lat="40.206250" lon="-4.380500">
        <ele>1133.0</ele>
        <time>2013-07-02T14:39:24Z</time>
      </trkpt>
      <trkpt lat="40.206167" lon="-4.380450">
        <ele>1136.0</ele>
        <time>2013-07-02T14:39:25Z</time>
      </trkpt>
      <trkpt lat="40.206117" lon="-4.380417">
        <ele>1138.0</ele>
        <time>2013-07-02T14:39:26Z</time>
      </trkpt>
      <trkpt lat="40.206067" lon="-4.380400">
        <ele>1138.0</ele>
        <time>2013-07-02T14:39:27Z</time>
      </trkpt>
      <trkpt lat="40.206017" lon="-4.380383">
        <ele>1139.0</ele>
        <time>2013-07-02T14:39:28Z</time>
      </trkpt>
      <trkpt lat="40.205933" lon="-4.380367">
        <ele>1139.0</ele>
        <time>2013-07-02T14:39:29Z</time>
      </trkpt>
      <trkpt lat="40.205850" lon="-4.380350">
        <ele>1139.0</ele>
        <time>2013-07-02T14:39:30Z</time>
      </trkpt>
      <trkpt lat="40.205783" lon="-4.380383">
        <ele>1139.0</ele>
        <time>2013-07-02T14:39:31Z</time>
      </trkpt>
      <trkpt lat="40.205733" lon="-4.380417">
        <ele>1141.0</ele>
        <time>2013-07-02T14:39:32Z</time>
      </trkpt>
      <trkpt lat="40.205700" lon="-4.380433">
        <ele>1144.0</ele>
        <time>2013-07-02T14:39:33Z</time>
      </trkpt>
      <trkpt lat="40.205667" lon="-4.380450">
        <ele>1146.0</ele>
        <time>2013-07-02T14:39:34Z</time>
      </trkpt>
      <trkpt lat="40.205617" lon="-4.380450">
        <ele>1147.0</ele>
        <time>2013-07-02T14:39:35Z</time>
      </trkpt>
      <trkpt lat="40.205567" lon="-4.380433">
        <ele>1147.0</ele>
        <time>2013-07-02T14:39:36Z</time>
      </trkpt>
      <trkpt lat="40.205517" lon="-4.380433">
        <ele>1148.0</ele>
        <time>2013-07-02T14:39:37Z</time>
      </trkpt>
      <trkpt lat="40.205483" lon="-4.380450">
        <ele>1148.0</ele>
        <time>2013-07-02T14:39:38Z</time>
      </trkpt>
      <trkpt lat="40.205450" lon="-4.380483">
        <ele>1148.0</ele>
        <time>2013-07-02T14:39:39Z</time>
      </trkpt>
      <trkpt lat="40.205417" lon="-4.380517">
        <ele>1148.0</ele>
        <time>2013-07-02T14:39:40Z</time>
      </trkpt>
      <trkpt lat="40.205367" lon="-4.380533">
        <ele>1149.0</ele>
        <time>2013-07-02T14:39:41Z</time>
      </trkpt>
      <trkpt lat="40.205350" lon="-4.380567">
        <ele>1150.0</ele>
        <time>2013-07-02T14:39:42Z</time>
      </trkpt>
      <trkpt lat="40.205333" lon="-4.380600">
        <ele>1150.0</ele>
        <time>2013-07-02T14:39:43Z</time>
      </trkpt>
      <trkpt lat="40.205333" lon="-4.380650">
        <ele>1151.0</ele>
        <time>2013-07-02T14:39:44Z</time>
      </trkpt>
      <trkpt lat="40.205333" lon="-4.380717">
        <ele>1152.0</ele>
        <time>2013-07-02T14:39:45Z</time>
      </trkpt>
      <trkpt lat="40.205317" lon="-4.380767">
        <ele>1154.0</ele>
        <time>2013-07-02T14:39:46Z</time>
      </trkpt>
      <trkpt lat="40.205300" lon="-4.380800">
        <ele>1156.0</ele>
        <time>2013-07-02T14:39:47Z</time>
      </trkpt>
      <trkpt lat="40.205300" lon="-4.380833">
        <ele>1156.0</ele>
        <time>2013-07-02T14:39:48Z</time>
      </trkpt>
      <trkpt lat="40.205300" lon="-4.380883">
        <ele>1155.0</ele>
        <time>2013-07-02T14:39:49Z</time>
      </trkpt>
      <trkpt lat="40.205317" lon="-4.380917">
        <ele>1153.0</ele>
        <time>2013-07-02T14:39:50Z</time>
      </trkpt>
      <trkpt lat="40.205317" lon="-4.380967">
        <ele>1151.0</ele>
        <time>2013-07-02T14:39:51Z</time>
      </trkpt>
      <trkpt lat="40.205350" lon="-4.381033">
        <ele>1150.0</ele>
        <time>2013-07-02T14:39:52Z</time>
      </trkpt>
      <trkpt lat="40.205367" lon="-4.381083">
        <ele>1148.0</ele>
        <time>2013-07-02T14:39:53Z</time>
      </trkpt>
      <trkpt lat="40.205383" lon="-4.381133">
        <ele>1148.0</ele>
        <time>2013-07-02T14:39:54Z</time>
      </trkpt>
      <trkpt lat="40.205400" lon="-4.381167">
        <ele>1147.0</ele>
        <time>2013-07-02T14:39:55Z</time>
      </trkpt>
      <trkpt lat="40.205433" lon="-4.381217">
        <ele>1146.0</ele>
        <time>2013-07-02T14:39:56Z</time>
      </trkpt>
      <trkpt lat="40.205450" lon="-4.381250">
        <ele>1143.0</ele>
        <time>2013-07-02T14:39:57Z</time>
      </trkpt>
      <trkpt lat="40.205467" lon="-4.381300">
        <ele>1141.0</ele>
        <time>2013-07-02T14:39:58Z</time>
      </trkpt>
      <trkpt lat="40.205483" lon="-4.381367">
        <ele>1139.0</ele>
        <time>2013-07-02T14:39:59Z</time>
      </trkpt>
      <trkpt lat="40.205517" lon="-4.381417">
        <ele>1137.0</ele>
        <time>2013-07-02T14:40:00Z</time>
      </trkpt>
      <trkpt lat="40.205567" lon="-4.381483">
        <ele>1135.0</ele>
        <time>2013-07-02T14:40:01Z</time>
      </trkpt>
      <trkpt lat="40.205617" lon="-4.381517">
        <ele>1133.0</ele>
        <time>2013-07-02T14:40:02Z</time>
      </trkpt>
      <trkpt lat="40.205667" lon="-4.381567">
        <ele>1131.0</ele>
        <time>2013-07-02T14:40:03Z</time>
      </trkpt>
      <trkpt lat="40.205700" lon="-4.381617">
        <ele>1129.0</ele>
        <time>2013-07-02T14:40:04Z</time>
      </trkpt>
      <trkpt lat="40.205750" lon="-4.381667">
        <ele>1127.0</ele>
        <time>2013-07-02T14:40:05Z</time>
      </trkpt>
      <trkpt lat="40.205767" lon="-4.381717">
        <ele>1124.0</ele>
        <time>2013-07-02T14:40:06Z</time>
      </trkpt>
      <trkpt lat="40.205800" lon="-4.381783">
        <ele>1122.0</ele>
        <time>2013-07-02T14:40:07Z</time>
      </trkpt>
      <trkpt lat="40.205800" lon="-4.381833">
        <ele>1119.0</ele>
        <time>2013-07-02T14:40:08Z</time>
      </trkpt>
      <trkpt lat="40.205817" lon="-4.381900">
        <ele>1116.0</ele>
        <time>2013-07-02T14:40:09Z</time>
      </trkpt>
      <trkpt lat="40.205817" lon="-4.381967">
        <ele>1113.0</ele>
        <time>2013-07-02T14:40:10Z</time>
      </trkpt>
      <trkpt lat="40.205817" lon="-4.382033">
        <ele>1111.0</ele>
        <time>2013-07-02T14:40:11Z</time>
      </trkpt>
      <trkpt lat="40.205850" lon="-4.382083">
        <ele>1108.0</ele>
        <time>2013-07-02T14:40:12Z</time>
      </trkpt>
      <trkpt lat="40.205883" lon="-4.382133">
        <ele>1105.0</ele>
        <time>2013-07-02T14:40:13Z</time>
      </trkpt>
      <trkpt lat="40.205917" lon="-4.382167">
        <ele>1102.0</ele>
        <time>2013-07-02T14:40:14Z</time>
      </trkpt>
      <trkpt lat="40.205967" lon="-4.382200">
        <ele>1099.0</ele>
        <time>2013-07-02T14:40:15Z</time>
      </trkpt>
      <trkpt lat="40.205983" lon="-4.382233">
        <ele>1094.0</ele>
        <time>2013-07-02T14:40:16Z</time>
      </trkpt>
      <trkpt lat="40.205983" lon="-4.382283">
        <ele>1090.0</ele>
        <time>2013-07-02T14:40:17Z</time>
      </trkpt>
      <trkpt lat="40.205950" lon="-4.382333">
        <ele>1086.0</ele>
        <time>2013-07-02T14:40:18Z</time>
      </trkpt>
      <trkpt lat="40.205917" lon="-4.382367">
        <ele>1087.0</ele>
        <time>2013-07-02T14:40:19Z</time>
      </trkpt>
      <trkpt lat="40.205883" lon="-4.382400">
        <ele>1084.0</ele>
        <time>2013-07-02T14:40:20Z</time>
      </trkpt>
      <trkpt lat="40.205833" lon="-4.382433">
        <ele>1081.0</ele>
        <time>2013-07-02T14:40:21Z</time>
      </trkpt>
      <trkpt lat="40.205767" lon="-4.382450">
        <ele>1079.0</ele>
        <time>2013-07-02T14:40:22Z</time>
      </trkpt>
      <trkpt lat="40.205733" lon="-4.382483">
        <ele>1076.0</ele>
        <time>2013-07-02T14:40:23Z</time>
      </trkpt>
      <trkpt lat="40.205683" lon="-4.382517">
        <ele>1073.0</ele>
        <time>2013-07-02T14:40:24Z</time>
      </trkpt>
      <trkpt lat="40.205667" lon="-4.382567">
        <ele>1071.0</ele>
        <time>2013-07-02T14:40:25Z</time>
      </trkpt>
      <trkpt lat="40.205600" lon="-4.382600">
        <ele>1068.0</ele>
        <time>2013-07-02T14:40:26Z</time>
      </trkpt>
      <trkpt lat="40.205550" lon="-4.382650">
        <ele>1073.0</ele>
        <time>2013-07-02T14:40:27Z</time>
      </trkpt>
      <trkpt lat="40.205500" lon="-4.382700">
        <ele>1072.0</ele>
        <time>2013-07-02T14:40:28Z</time>
      </trkpt>
      <trkpt lat="40.205467" lon="-4.382733">
        <ele>1069.0</ele>
        <time>2013-07-02T14:40:29Z</time>
      </trkpt>
      <trkpt lat="40.205433" lon="-4.382767">
        <ele>1066.0</ele>
        <time>2013-07-02T14:40:30Z</time>
      </trkpt>
      <trkpt lat="40.205417" lon="-4.382800">
        <ele>1062.0</ele>
        <time>2013-07-02T14:40:31Z</time>
      </trkpt>
      <trkpt lat="40.205417" lon="-4.382833">
        <ele>1056.0</ele>
        <time>2013-07-02T14:40:32Z</time>
      </trkpt>
      <trkpt lat="40.205400" lon="-4.382867">
        <ele>1052.0</ele>
        <time>2013-07-02T14:40:33Z</time>
      </trkpt>
      <trkpt lat="40.205383" lon="-4.382917">
        <ele>1048.0</ele>
        <time>2013-07-02T14:40:34Z</time>
      </trkpt>
      <trkpt lat="40.205367" lon="-4.382950">
        <ele>1046.0</ele>
        <time>2013-07-02T14:40:35Z</time>
      </trkpt>
      <trkpt lat="40.205317" lon="-4.383000">
        <ele>1043.0</ele>
        <time>2013-07-02T14:40:36Z</time>
      </trkpt>
      <trkpt lat="40.205300" lon="-4.383050">
        <ele>1048.0</ele>
        <time>2013-07-02T14:40:37Z</time>
      </trkpt>
      <trkpt lat="40.205267" lon="-4.383083">
        <ele>1046.0</ele>
        <time>2013-07-02T14:40:38Z</time>
      </trkpt>
      <trkpt lat="40.205233" lon="-4.383117">
        <ele>1045.0</ele>
        <time>2013-07-02T14:40:39Z</time>
      </trkpt>
      <trkpt lat="40.205200" lon="-4.383150">
        <ele>1043.0</ele>
        <time>2013-07-02T14:40:40Z</time>
      </trkpt>
      <trkpt lat="40.205150" lon="-4.383183">
        <ele>1040.0</ele>
        <time>2013-07-02T14:40:41Z</time>
      </trkpt>
      <trkpt lat="40.205117" lon="-4.383217">
        <ele>1037.0</ele>
        <time>2013-07-02T14:40:42Z</time>
      </trkpt>
      <trkpt lat="40.205083" lon="-4.383250">
        <ele>1034.0</ele>
        <time>2013-07-02T14:40:43Z</time>
      </trkpt>
      <trkpt lat="40.205050" lon="-4.383283">
        <ele>1031.0</ele>
        <time>2013-07-02T14:40:44Z</time>
      </trkpt>
      <trkpt lat="40.205000" lon="-4.383317">
        <ele>1029.0</ele>
        <time>2013-07-02T14:40:45Z</time>
      </trkpt>
      <trkpt lat="40.204967" lon="-4.383350">
        <ele>1026.0</ele>
        <time>2013-07-02T14:40:46Z</time>
      </trkpt>
      <trkpt lat="40.204933" lon="-4.383383">
        <ele>1024.0</ele>
        <time>2013-07-02T14:40:47Z</time>
      </trkpt>
      <trkpt lat="40.204900" lon="-4.383433">
        <ele>1022.0</ele>
        <time>2013-07-02T14:40:48Z</time>
      </trkpt>
      <trkpt lat="40.204867" lon="-4.383467">
        <ele>1020.0</ele>
        <time>2013-07-02T14:40:49Z</time>
      </trkpt>
      <trkpt lat="40.204833" lon="-4.383500">
        <ele>1018.0</ele>
        <time>2013-07-02T14:40:50Z</time>
      </trkpt>
      <trkpt lat="40.204783" lon="-4.383533">
        <ele>1016.0</ele>
        <time>2013-07-02T14:40:51Z</time>
      </trkpt>
      <trkpt lat="40.204750" lon="-4.383567">
        <ele>1013.0</ele>
        <time>2013-07-02T14:40:52Z</time>
      </trkpt>
      <trkpt lat="40.204717" lon="-4.383600">
        <ele>1012.0</ele>
        <time>2013-07-02T14:40:53Z</time>
      </trkpt>
      <trkpt lat="40.204683" lon="-4.383650">
        <ele>1009.0</ele>
        <time>2013-07-02T14:40:54Z</time>
      </trkpt>
      <trkpt lat="40.204683" lon="-4.383700">
        <ele>1005.0</ele>
        <time>2013-07-02T14:40:55Z</time>
      </trkpt>
      <trkpt lat="40.204683" lon="-4.383750">
        <ele>1000.0</ele>
        <time>2013-07-02T14:40:56Z</time>
      </trkpt>
      <trkpt lat="40.204683" lon="-4.383817">
        <ele>997.0</ele>
        <time>2013-07-02T14:40:57Z</time>
      </trkpt>
      <trkpt lat="40.204700" lon="-4.383900">
        <ele>994.0</ele>
        <time>2013-07-02T14:40:58Z</time>
      </trkpt>
      <trkpt lat="40.204700" lon="-4.383967">
        <ele>992.0</ele>
        <time>2013-07-02T14:40:59Z</time>
      </trkpt>
      <trkpt lat="40.204683" lon="-4.384033">
        <ele>992.0</ele>
        <time>2013-07-02T14:41:00Z</time>
      </trkpt>
      <trkpt lat="40.204667" lon="-4.384083">
        <ele>990.0</ele>
        <time>2013-07-02T14:41:01Z</time>
      </trkpt>
      <trkpt lat="40.204633" lon="-4.384117">
        <ele>988.0</ele>
        <time>2013-07-02T14:41:02Z</time>
      </trkpt>
      <trkpt lat="40.204617" lon="-4.384167">
        <ele>987.0</ele>
        <time>2013-07-02T14:41:03Z</time>
      </trkpt>
      <trkpt lat="40.204600" lon="-4.384217">
        <ele>985.0</ele>
        <time>2013-07-02T14:41:04Z</time>
      </trkpt>
      <trkpt lat="40.204583" lon="-4.384267">
        <ele>984.0</ele>
        <time>2013-07-02T14:41:05Z</time>
      </trkpt>
      <trkpt lat="40.204583" lon="-4.384333">
        <ele>982.0</ele>
        <time>2013-07-02T14:41:06Z</time>
      </trkpt>
      <trkpt lat="40.204583" lon="-4.384383">
        <ele>980.0</ele>
        <time>2013-07-02T14:41:07Z</time>
      </trkpt>
      <trkpt lat="40.204583" lon="-4.384433">
        <ele>978.0</ele>
        <time>2013-07-02T14:41:08Z</time>
      </trkpt>
      <trkpt lat="40.204583" lon="-4.384483">
        <ele>978.0</ele>
        <time>2013-07-02T14:41:09Z</time>
      </trkpt>
      <trkpt lat="40.204600" lon="-4.384533">
        <ele>976.0</ele>
        <time>2013-07-02T14:41:10Z</time>
      </trkpt>
      <trkpt lat="40.204617" lon="-4.384567">
        <ele>974.0</ele>
        <time>2013-07-02T14:41:11Z</time>
      </trkpt>
      <trkpt lat="40.204650" lon="-4.384633">
        <ele>971.0</ele>
        <time>2013-07-02T14:41:12Z</time>
      </trkpt>
      <trkpt lat="40.204683" lon="-4.384700">
        <ele>971.0</ele>
        <time>2013-07-02T14:41:13Z</time>
      </trkpt>
      <trkpt lat="40.204717" lon="-4.384750">
        <ele>971.0</ele>
        <time>2013-07-02T14:41:14Z</time>
      </trkpt>
      <trkpt lat="40.204750" lon="-4.384783">
        <ele>970.0</ele>
        <time>2013-07-02T14:41:15Z</time>
      </trkpt>
      <trkpt lat="40.204800" lon="-4.384817">
        <ele>968.0</ele>
        <time>2013-07-02T14:41:16Z</time>
      </trkpt>
      <trkpt lat="40.204833" lon="-4.384867">
        <ele>966.0</ele>
        <time>2013-07-02T14:41:17Z</time>
      </trkpt>
      <trkpt lat="40.204850" lon="-4.384917">
        <ele>964.0</ele>
        <time>2013-07-02T14:41:18Z</time>
      </trkpt>
      <trkpt lat="40.204883" lon="-4.385000">
        <ele>962.0</ele>
        <time>2013-07-02T14:41:19Z</time>
      </trkpt>
      <trkpt lat="40.204883" lon="-4.385067">
        <ele>961.0</ele>
        <time>2013-07-02T14:41:20Z</time>
      </trkpt>
      <trkpt lat="40.204883" lon="-4.385117">
        <ele>961.0</ele>
        <time>2013-07-02T14:41:21Z</time>
      </trkpt>
      <trkpt lat="40.204850" lon="-4.385183">
        <ele>960.0</ele>
        <time>2013-07-02T14:41:22Z</time>
      </trkpt>
      <trkpt lat="40.204817" lon="-4.385217">
        <ele>959.0</ele>
        <time>2013-07-02T14:41:23Z</time>
      </trkpt>
      <trkpt lat="40.204783" lon="-4.385267">
        <ele>959.0</ele>
        <time>2013-07-02T14:41:24Z</time>
      </trkpt>
      <trkpt lat="40.204750" lon="-4.385317">
        <ele>958.0</ele>
        <time>2013-07-02T14:41:25Z</time>
      </trkpt>
      <trkpt lat="40.204700" lon="-4.385350">
        <ele>958.0</ele>
        <time>2013-07-02T14:41:26Z</time>
      </trkpt>
      <trkpt lat="40.204683" lon="-4.385400">
        <ele>958.0</ele>
        <time>2013-07-02T14:41:27Z</time>
      </trkpt>
      <trkpt lat="40.204683" lon="-4.385433">
        <ele>958.0</ele>
        <time>2013-07-02T14:41:28Z</time>
      </trkpt>
      <trkpt lat="40.204667" lon="-4.385483">
        <ele>958.0</ele>
        <time>2013-07-02T14:41:29Z</time>
      </trkpt>
      <trkpt lat="40.204667" lon="-4.385533">
        <ele>958.0</ele>
        <time>2013-07-02T14:41:30Z</time>
      </trkpt>
      <trkpt lat="40.204633" lon="-4.385600">
        <ele>958.0</ele>
        <time>2013-07-02T14:41:31Z</time>
      </trkpt>
      <trkpt lat="40.204617" lon="-4.385633">
        <ele>958.0</ele>
        <time>2013-07-02T14:41:32Z</time>
      </trkpt>
      <trkpt lat="40.204567" lon="-4.385683">
        <ele>959.0</ele>
        <time>2013-07-02T14:41:33Z</time>
      </trkpt>
      <trkpt lat="40.204533" lon="-4.385717">
        <ele>959.0</ele>
        <time>2013-07-02T14:41:34Z</time>
      </trkpt>
      <trkpt lat="40.204500" lon="-4.385767">
        <ele>959.0</ele>
        <time>2013-07-02T14:41:35Z</time>
      </trkpt>
      <trkpt lat="40.204450" lon="-4.385817">
        <ele>959.0</ele>
        <time>2013-07-02T14:41:36Z</time>
      </trkpt>
      <trkpt lat="40.204417" lon="-4.385867">
        <ele>961.0</ele>
        <time>2013-07-02T14:41:37Z</time>
      </trkpt>
      <trkpt lat="40.204383" lon="-4.385900">
        <ele>963.0</ele>
        <time>2013-07-02T14:41:38Z</time>
      </trkpt>
      <trkpt lat="40.204350" lon="-4.385933">
        <ele>964.0</ele>
        <time>2013-07-02T14:41:39Z</time>
      </trkpt>
      <trkpt lat="40.204317" lon="-4.385950">
        <ele>965.0</ele>
        <time>2013-07-02T14:41:40Z</time>
      </trkpt>
      <trkpt lat="40.204283" lon="-4.385983">
        <ele>965.0</ele>
        <time>2013-07-02T14:41:41Z</time>
      </trkpt>
      <trkpt lat="40.204250" lon="-4.386017">
        <ele>966.0</ele>
        <time>2013-07-02T14:41:42Z</time>
      </trkpt>
      <trkpt lat="40.204200" lon="-4.386050">
        <ele>967.0</ele>
        <time>2013-07-02T14:41:43Z</time>
      </trkpt>
      <trkpt lat="40.204183" lon="-4.386100">
        <ele>968.0</ele>
        <time>2013-07-02T14:41:44Z</time>
      </trkpt>
      <trkpt lat="40.204150" lon="-4.386133">
        <ele>969.0</ele>
        <time>2013-07-02T14:41:45Z</time>
      </trkpt>
      <trkpt lat="40.204100" lon="-4.386167">
        <ele>969.0</ele>
        <time>2013-07-02T14:41:46Z</time>
      </trkpt>
      <trkpt lat="40.204050" lon="-4.386183">
        <ele>969.0</ele>
        <time>2013-07-02T14:41:47Z</time>
      </trkpt>
      <trkpt lat="40.204000" lon="-4.386200">
        <ele>968.0</ele>
        <time>2013-07-02T14:41:48Z</time>
      </trkpt>
      <trkpt lat="40.203933" lon="-4.386217">
        <ele>967.0</ele>
        <time>2013-07-02T14:41:49Z</time>
      </trkpt>
      <trkpt lat="40.203883" lon="-4.386217">
        <ele>967.0</ele>
        <time>2013-07-02T14:41:50Z</time>
      </trkpt>
      <trkpt lat="40.203833" lon="-4.386233">
        <ele>967.0</ele>
        <time>2013-07-02T14:41:51Z</time>
      </trkpt>
      <trkpt lat="40.203767" lon="-4.386267">
        <ele>967.0</ele>
        <time>2013-07-02T14:41:52Z</time>
      </trkpt>
      <trkpt lat="40.203717" lon="-4.386300">
        <ele>967.0</ele>
        <time>2013-07-02T14:41:53Z</time>
      </trkpt>
      <trkpt lat="40.203683" lon="-4.386333">
        <ele>967.0</ele>
        <time>2013-07-02T14:41:54Z</time>
      </trkpt>
      <trkpt lat="40.203633" lon="-4.386367">
        <ele>969.0</ele>
        <time>2013-07-02T14:41:55Z</time>
      </trkpt>
      <trkpt lat="40.203583" lon="-4.386400">
        <ele>970.0</ele>
        <time>2013-07-02T14:41:56Z</time>
      </trkpt>
      <trkpt lat="40.203550" lon="-4.386417">
        <ele>970.0</ele>
        <time>2013-07-02T14:41:57Z</time>
      </trkpt>
      <trkpt lat="40.203500" lon="-4.386450">
        <ele>970.0</ele>
        <time>2013-07-02T14:41:58Z</time>
      </trkpt>
      <trkpt lat="40.203467" lon="-4.386500">
        <ele>970.0</ele>
        <time>2013-07-02T14:41:59Z</time>
      </trkpt>
      <trkpt lat="40.203433" lon="-4.386550">
        <ele>970.0</ele>
        <time>2013-07-02T14:42:00Z</time>
      </trkpt>
      <trkpt lat="40.203417" lon="-4.386617">
        <ele>970.0</ele>
        <time>2013-07-02T14:42:01Z</time>
      </trkpt>
      <trkpt lat="40.203417" lon="-4.386667">
        <ele>971.0</ele>
        <time>2013-07-02T14:42:02Z</time>
      </trkpt>
      <trkpt lat="40.203417" lon="-4.386700">
        <ele>971.0</ele>
        <time>2013-07-02T14:42:03Z</time>
      </trkpt>
      <trkpt lat="40.203417" lon="-4.386733">
        <ele>971.0</ele>
        <time>2013-07-02T14:42:04Z</time>
      </trkpt>
      <trkpt lat="40.203433" lon="-4.386783">
        <ele>970.0</ele>
        <time>2013-07-02T14:42:05Z</time>
      </trkpt>
      <trkpt lat="40.203450" lon="-4.386817">
        <ele>970.0</ele>
        <time>2013-07-02T14:42:06Z</time>
      </trkpt>
      <trkpt lat="40.203467" lon="-4.386867">
        <ele>969.0</ele>
        <time>2013-07-02T14:42:07Z</time>
      </trkpt>
      <trkpt lat="40.203483" lon="-4.386900">
        <ele>968.0</ele>
        <time>2013-07-02T14:42:08Z</time>
      </trkpt>
      <trkpt lat="40.203500" lon="-4.386933">
        <ele>971.0</ele>
        <time>2013-07-02T14:42:09Z</time>
      </trkpt>
      <trkpt lat="40.203533" lon="-4.386967">
        <ele>971.0</ele>
        <time>2013-07-02T14:42:10Z</time>
      </trkpt>
      <trkpt lat="40.203533" lon="-4.387000">
        <ele>970.0</ele>
        <time>2013-07-02T14:42:11Z</time>
      </trkpt>
      <trkpt lat="40.203517" lon="-4.387033">
        <ele>971.0</ele>
        <time>2013-07-02T14:42:12Z</time>
      </trkpt>
      <trkpt lat="40.203483" lon="-4.387067">
        <ele>971.0</ele>
        <time>2013-07-02T14:42:13Z</time>
      </trkpt>
      <trkpt lat="40.203450" lon="-4.387100">
        <ele>972.0</ele>
        <time>2013-07-02T14:42:14Z</time>
      </trkpt>
      <trkpt lat="40.203383" lon="-4.387117">
        <ele>973.0</ele>
        <time>2013-07-02T14:42:15Z</time>
      </trkpt>
      <trkpt lat="40.203300" lon="-4.387100">
        <ele>973.0</ele>
        <time>2013-07-02T14:42:16Z</time>
      </trkpt>
      <trkpt lat="40.203200" lon="-4.387050">
        <ele>972.0</ele>
        <time>2013-07-02T14:42:17Z</time>
      </trkpt>
      <trkpt lat="40.203100" lon="-4.386983">
        <ele>973.0</ele>
        <time>2013-07-02T14:42:18Z</time>
      </trkpt>
      <trkpt lat="40.203000" lon="-4.386933">
        <ele>976.0</ele>
        <time>2013-07-02T14:42:19Z</time>
      </trkpt>
      <trkpt lat="40.202900" lon="-4.386900">
        <ele>977.0</ele>
        <time>2013-07-02T14:42:20Z</time>
      </trkpt>
      <trkpt lat="40.202817" lon="-4.386883">
        <ele>977.0</ele>
        <time>2013-07-02T14:42:21Z</time>
      </trkpt>
      <trkpt lat="40.202717" lon="-4.386867">
        <ele>979.0</ele>
        <time>2013-07-02T14:42:22Z</time>
      </trkpt>
      <trkpt lat="40.202600" lon="-4.386833">
        <ele>980.0</ele>
        <time>2013-07-02T14:42:23Z</time>
      </trkpt>
      <trkpt lat="40.202500" lon="-4.386800">
        <ele>982.0</ele>
        <time>2013-07-02T14:42:24Z</time>
      </trkpt>
      <trkpt lat="40.202400" lon="-4.386767">
        <ele>984.0</ele>
        <time>2013-07-02T14:42:25Z</time>
      </trkpt>
      <trkpt lat="40.202300" lon="-4.386733">
        <ele>986.0</ele>
        <time>2013-07-02T14:42:26Z</time>
      </trkpt>
      <trkpt lat="40.202217" lon="-4.386700">
        <ele>988.0</ele>
        <time>2013-07-02T14:42:27Z</time>
      </trkpt>
      <trkpt lat="40.202133" lon="-4.386700">
        <ele>992.0</ele>
        <time>2013-07-02T14:42:28Z</time>
      </trkpt>
      <trkpt lat="40.202067" lon="-4.386700">
        <ele>994.0</ele>
        <time>2013-07-02T14:42:29Z</time>
      </trkpt>
      <trkpt lat="40.202000" lon="-4.386700">
        <ele>997.0</ele>
        <time>2013-07-02T14:42:30Z</time>
      </trkpt>
      <trkpt lat="40.201933" lon="-4.386700">
        <ele>1000.0</ele>
        <time>2013-07-02T14:42:31Z</time>
      </trkpt>
      <trkpt lat="40.201850" lon="-4.386700">
        <ele>1003.0</ele>
        <time>2013-07-02T14:42:32Z</time>
      </trkpt>
      <trkpt lat="40.201783" lon="-4.386717">
        <ele>1006.0</ele>
        <time>2013-07-02T14:42:33Z</time>
      </trkpt>
      <trkpt lat="40.201700" lon="-4.386717">
        <ele>1009.0</ele>
        <time>2013-07-02T14:42:34Z</time>
      </trkpt>
      <trkpt lat="40.201633" lon="-4.386733">
        <ele>1012.0</ele>
        <time>2013-07-02T14:42:35Z</time>
      </trkpt>
      <trkpt lat="40.201567" lon="-4.386750">
        <ele>1014.0</ele>
        <time>2013-07-02T14:42:36Z</time>
      </trkpt>
      <trkpt lat="40.201500" lon="-4.386767">
        <ele>1017.0</ele>
        <time>2013-07-02T14:42:37Z</time>
      </trkpt>
      <trkpt lat="40.201433" lon="-4.386783">
        <ele>1021.0</ele>
        <time>2013-07-02T14:42:38Z</time>
      </trkpt>
      <trkpt lat="40.201367" lon="-4.386800">
        <ele>1024.0</ele>
        <time>2013-07-02T14:42:39Z</time>
      </trkpt>
      <trkpt lat="40.201317" lon="-4.386800">
        <ele>1027.0</ele>
        <time>2013-07-02T14:42:40Z</time>
      </trkpt>
      <trkpt lat="40.201283" lon="-4.386850">
        <ele>1030.0</ele>
        <time>2013-07-02T14:42:41Z</time>
      </trkpt>
      <trkpt lat="40.201233" lon="-4.386867">
        <ele>1020.0</ele>
        <time>2013-07-02T14:42:42Z</time>
      </trkpt>
      <trkpt lat="40.201183" lon="-4.386883">
        <ele>1021.0</ele>
        <time>2013-07-02T14:42:43Z</time>
      </trkpt>
      <trkpt lat="40.201133" lon="-4.386933">
        <ele>1022.0</ele>
        <time>2013-07-02T14:42:44Z</time>
      </trkpt>
      <trkpt lat="40.201083" lon="-4.386967">
        <ele>1021.0</ele>
        <time>2013-07-02T14:42:45Z</time>
      </trkpt>
      <trkpt lat="40.201050" lon="-4.387000">
        <ele>1023.0</ele>
        <time>2013-07-02T14:42:46Z</time>
      </trkpt>
      <trkpt lat="40.201017" lon="-4.387033">
        <ele>1024.0</ele>
        <time>2013-07-02T14:42:47Z</time>
      </trkpt>
      <trkpt lat="40.201000" lon="-4.387050">
        <ele>1026.0</ele>
        <time>2013-07-02T14:42:48Z</time>
      </trkpt>
      <trkpt lat="40.200983" lon="-4.387083">
        <ele>1028.0</ele>
        <time>2013-07-02T14:42:49Z</time>
      </trkpt>
      <trkpt lat="40.200983" lon="-4.387100">
        <ele>1030.0</ele>
        <time>2013-07-02T14:42:50Z</time>
      </trkpt>
      <trkpt lat="40.201017" lon="-4.387150">
        <ele>1031.0</ele>
        <time>2013-07-02T14:42:51Z</time>
      </trkpt>
      <trkpt lat="40.201067" lon="-4.387183">
        <ele>1033.0</ele>
        <time>2013-07-02T14:42:52Z</time>
      </trkpt>
      <trkpt lat="40.201133" lon="-4.387200">
        <ele>1034.0</ele>
        <time>2013-07-02T14:42:53Z</time>
      </trkpt>
      <trkpt lat="40.201217" lon="-4.387183">
        <ele>1036.0</ele>
        <time>2013-07-02T14:42:54Z</time>
      </trkpt>
      <trkpt lat="40.201283" lon="-4.387150">
        <ele>1036.0</ele>
        <time>2013-07-02T14:42:55Z</time>
      </trkpt>
      <trkpt lat="40.201367" lon="-4.387117">
        <ele>1037.0</ele>
        <time>2013-07-02T14:42:56Z</time>
      </trkpt>
      <trkpt lat="40.201450" lon="-4.387067">
        <ele>1037.0</ele>
        <time>2013-07-02T14:42:57Z</time>
      </trkpt>
      <trkpt lat="40.201550" lon="-4.387017">
        <ele>1036.0</ele>
        <time>2013-07-02T14:42:58Z</time>
      </trkpt>
      <trkpt lat="40.201633" lon="-4.386950">
        <ele>1036.0</ele>
        <time>2013-07-02T14:42:59Z</time>
      </trkpt>
      <trkpt lat="40.201733" lon="-4.386883">
        <ele>1036.0</ele>
        <time>2013-07-02T14:43:00Z</time>
      </trkpt>
      <trkpt lat="40.201817" lon="-4.386850">
        <ele>1036.0</ele>
        <time>2013-07-02T14:43:01Z</time>
      </trkpt>
      <trkpt lat="40.201900" lon="-4.386833">
        <ele>1037.0</ele>
        <time>2013-07-02T14:43:02Z</time>
      </trkpt>
      <trkpt lat="40.201983" lon="-4.386833">
        <ele>1038.0</ele>
        <time>2013-07-02T14:43:03Z</time>
      </trkpt>
      <trkpt lat="40.202067" lon="-4.386817">
        <ele>1039.0</ele>
        <time>2013-07-02T14:43:04Z</time>
      </trkpt>
      <trkpt lat="40.202133" lon="-4.386800">
        <ele>1040.0</ele>
        <time>2013-07-02T14:43:05Z</time>
      </trkpt>
      <trkpt lat="40.202217" lon="-4.386767">
        <ele>1040.0</ele>
        <time>2013-07-02T14:43:06Z</time>
      </trkpt>
      <trkpt lat="40.202317" lon="-4.386717">
        <ele>1040.0</ele>
        <time>2013-07-02T14:43:07Z</time>
      </trkpt>
      <trkpt lat="40.202417" lon="-4.386667">
        <ele>1040.0</ele>
        <time>2013-07-02T14:43:08Z</time>
      </trkpt>
      <trkpt lat="40.202517" lon="-4.386617">
        <ele>1041.0</ele>
        <time>2013-07-02T14:43:09Z</time>
      </trkpt>
      <trkpt lat="40.202600" lon="-4.386600">
        <ele>1043.0</ele>
        <time>2013-07-02T14:43:10Z</time>
      </trkpt>
      <trkpt lat="40.202683" lon="-4.386583">
        <ele>1044.0</ele>
        <time>2013-07-02T14:43:11Z</time>
      </trkpt>
      <trkpt lat="40.202767" lon="-4.386583">
        <ele>1044.0</ele>
        <time>2013-07-02T14:43:12Z</time>
      </trkpt>
      <trkpt lat="40.202850" lon="-4.386617">
        <ele>1045.0</ele>
        <time>2013-07-02T14:43:13Z</time>
      </trkpt>
      <trkpt lat="40.202917" lon="-4.386667">
        <ele>1046.0</ele>
        <time>2013-07-02T14:43:14Z</time>
      </trkpt>
      <trkpt lat="40.202983" lon="-4.386717">
        <ele>1046.0</ele>
        <time>2013-07-02T14:43:15Z</time>
      </trkpt>
      <trkpt lat="40.203017" lon="-4.386733">
        <ele>1048.0</ele>
        <time>2013-07-02T14:43:16Z</time>
      </trkpt>
      <trkpt lat="40.203050" lon="-4.386750">
        <ele>1050.0</ele>
        <time>2013-07-02T14:43:17Z</time>
      </trkpt>
      <trkpt lat="40.203067" lon="-4.386767">
        <ele>1051.0</ele>
        <time>2013-07-02T14:43:18Z</time>
      </trkpt>
      <trkpt lat="40.203100" lon="-4.386800">
        <ele>1050.0</ele>
        <time>2013-07-02T14:43:19Z</time>
      </trkpt>
      <trkpt lat="40.203117" lon="-4.386867">
        <ele>1050.0</ele>
        <time>2013-07-02T14:43:20Z</time>
      </trkpt>
      <trkpt lat="40.203150" lon="-4.386950">
        <ele>1050.0</ele>
        <time>2013-07-02T14:43:21Z</time>
      </trkpt>
      <trkpt lat="40.203167" lon="-4.387017">
        <ele>1051.0</ele>
        <time>2013-07-02T14:43:22Z</time>
      </trkpt>
      <trkpt lat="40.203167" lon="-4.387067">
        <ele>1052.0</ele>
        <time>2013-07-02T14:43:23Z</time>
      </trkpt>
      <trkpt lat="40.203167" lon="-4.387100">
        <ele>1052.0</ele>
        <time>2013-07-02T14:43:24Z</time>
      </trkpt>
      <trkpt lat="40.203150" lon="-4.387133">
        <ele>1053.0</ele>
        <time>2013-07-02T14:43:25Z</time>
      </trkpt>
      <trkpt lat="40.203133" lon="-4.387167">
        <ele>1052.0</ele>
        <time>2013-07-02T14:43:26Z</time>
      </trkpt>
      <trkpt lat="40.203100" lon="-4.387233">
        <ele>1052.0</ele>
        <time>2013-07-02T14:43:27Z</time>
      </trkpt>
      <trkpt lat="40.203067" lon="-4.387283">
        <ele>1051.0</ele>
        <time>2013-07-02T14:43:28Z</time>
      </trkpt>
      <trkpt lat="40.203033" lon="-4.387333">
        <ele>1050.0</ele>
        <time>2013-07-02T14:43:29Z</time>
      </trkpt>
      <trkpt lat="40.203017" lon="-4.387367">
        <ele>1049.0</ele>
        <time>2013-07-02T14:43:30Z</time>
      </trkpt>
      <trkpt lat="40.203000" lon="-4.387417">
        <ele>1048.0</ele>
        <time>2013-07-02T14:43:31Z</time>
      </trkpt>
      <trkpt lat="40.203000" lon="-4.387450">
        <ele>1048.0</ele>
        <time>2013-07-02T14:43:32Z</time>
      </trkpt>
      <trkpt lat="40.203000" lon="-4.387500">
        <ele>1047.0</ele>
        <time>2013-07-02T14:43:33Z</time>
      </trkpt>
      <trkpt lat="40.203017" lon="-4.387550">
        <ele>1045.0</ele>
        <time>2013-07-02T14:43:34Z</time>
      </trkpt>
      <trkpt lat="40.203050" lon="-4.387600">
        <ele>1043.0</ele>
        <time>2013-07-02T14:43:35Z</time>
      </trkpt>
      <trkpt lat="40.203100" lon="-4.387633">
        <ele>1042.0</ele>
        <time>2013-07-02T14:43:36Z</time>
      </trkpt>
      <trkpt lat="40.203133" lon="-4.387667">
        <ele>1041.0</ele>
        <time>2013-07-02T14:43:37Z</time>
      </trkpt>
      <trkpt lat="40.203200" lon="-4.387700">
        <ele>1039.0</ele>
        <time>2013-07-02T14:43:38Z</time>
      </trkpt>
      <trkpt lat="40.203250" lon="-4.387717">
        <ele>1036.0</ele>
        <time>2013-07-02T14:43:39Z</time>
      </trkpt>
      <trkpt lat="40.203317" lon="-4.387733">
        <ele>1034.0</ele>
        <time>2013-07-02T14:43:40Z</time>
      </trkpt>
      <trkpt lat="40.203383" lon="-4.387750">
        <ele>1031.0</ele>
        <time>2013-07-02T14:43:41Z</time>
      </trkpt>
      <trkpt lat="40.203450" lon="-4.387750">
        <ele>1029.0</ele>
        <time>2013-07-02T14:43:42Z</time>
      </trkpt>
      <trkpt lat="40.203517" lon="-4.387750">
        <ele>1027.0</ele>
        <time>2013-07-02T14:43:43Z</time>
      </trkpt>
      <trkpt lat="40.203600" lon="-4.387733">
        <ele>1025.0</ele>
        <time>2013-07-02T14:43:44Z</time>
      </trkpt>
      <trkpt lat="40.203667" lon="-4.387717">
        <ele>1023.0</ele>
        <time>2013-07-02T14:43:45Z</time>
      </trkpt>
      <trkpt lat="40.203733" lon="-4.387700">
        <ele>1020.0</ele>
        <time>2013-07-02T14:43:46Z</time>
      </trkpt>
      <trkpt lat="40.203817" lon="-4.387667">
        <ele>1017.0</ele>
        <time>2013-07-02T14:43:47Z</time>
      </trkpt>
      <trkpt lat="40.203900" lon="-4.387617">
        <ele>1014.0</ele>
        <time>2013-07-02T14:43:48Z</time>
      </trkpt>
      <trkpt lat="40.203983" lon="-4.387567">
        <ele>1011.0</ele>
        <time>2013-07-02T14:43:49Z</time>
      </trkpt>
      <trkpt lat="40.204050" lon="-4.387517">
        <ele>1008.0</ele>
        <time>2013-07-02T14:43:50Z</time>
      </trkpt>
      <trkpt lat="40.204133" lon="-4.387433">
        <ele>1005.0</ele>
        <time>2013-07-02T14:43:51Z</time>
      </trkpt>
      <trkpt lat="40.204217" lon="-4.387350">
        <ele>1001.0</ele>
        <time>2013-07-02T14:43:52Z</time>
      </trkpt>
      <trkpt lat="40.204300" lon="-4.387250">
        <ele>997.0</ele>
        <time>2013-07-02T14:43:53Z</time>
      </trkpt>
      <trkpt lat="40.204367" lon="-4.387133">
        <ele>994.0</ele>
        <time>2013-07-02T14:43:54Z</time>
      </trkpt>
      <trkpt lat="40.204450" lon="-4.387017">
        <ele>990.0</ele>
        <time>2013-07-02T14:43:55Z</time>
      </trkpt>
      <trkpt lat="40.204517" lon="-4.386900">
        <ele>987.0</ele>
        <time>2013-07-02T14:43:56Z</time>
      </trkpt>
      <trkpt lat="40.204567" lon="-4.386767">
        <ele>983.0</ele>
        <time>2013-07-02T14:43:57Z</time>
      </trkpt>
      <trkpt lat="40.204633" lon="-4.386633">
        <ele>980.0</ele>
        <time>2013-07-02T14:43:58Z</time>
      </trkpt>
      <trkpt lat="40.204683" lon="-4.386517">
        <ele>977.0</ele>
        <time>2013-07-02T14:43:59Z</time>
      </trkpt>
      <trkpt lat="40.204733" lon="-4.386383">
        <ele>973.0</ele>
        <time>2013-07-02T14:44:00Z</time>
      </trkpt>
      <trkpt lat="40.204800" lon="-4.386267">
        <ele>969.0</ele>
        <time>2013-07-02T14:44:01Z</time>
      </trkpt>
      <trkpt lat="40.204850" lon="-4.386117">
        <ele>965.0</ele>
        <time>2013-07-02T14:44:02Z</time>
      </trkpt>
      <trkpt lat="40.204917" lon="-4.386000">
        <ele>962.0</ele>
        <time>2013-07-02T14:44:03Z</time>
      </trkpt>
      <trkpt lat="40.204983" lon="-4.385867">
        <ele>959.0</ele>
        <time>2013-07-02T14:44:04Z</time>
      </trkpt>
      <trkpt lat="40.205050" lon="-4.385767">
        <ele>956.0</ele>
        <time>2013-07-02T14:44:05Z</time>
      </trkpt>
      <trkpt lat="40.205117" lon="-4.385667">
        <ele>953.0</ele>
        <time>2013-07-02T14:44:06Z</time>
      </trkpt>
      <trkpt lat="40.205183" lon="-4.385583">
        <ele>949.0</ele>
        <time>2013-07-02T14:44:07Z</time>
      </trkpt>
      <trkpt lat="40.205267" lon="-4.385517">
        <ele>946.0</ele>
        <time>2013-07-02T14:44:08Z</time>
      </trkpt>
      <trkpt lat="40.205350" lon="-4.385467">
        <ele>942.0</ele>
        <time>2013-07-02T14:44:09Z</time>
      </trkpt>
      <trkpt lat="40.205433" lon="-4.385417">
        <ele>939.0</ele>
        <time>2013-07-02T14:44:10Z</time>
      </trkpt>
      <trkpt lat="40.205517" lon="-4.385350">
        <ele>936.0</ele>
        <time>2013-07-02T14:44:11Z</time>
      </trkpt>
      <trkpt lat="40.205583" lon="-4.385300">
        <ele>933.0</ele>
        <time>2013-07-02T14:44:12Z</time>
      </trkpt>
      <trkpt lat="40.205667" lon="-4.385267">
        <ele>930.0</ele>
        <time>2013-07-02T14:44:13Z</time>
      </trkpt>
      <trkpt lat="40.205733" lon="-4.385233">
        <ele>927.0</ele>
        <time>2013-07-02T14:44:14Z</time>
      </trkpt>
      <trkpt lat="40.205817" lon="-4.385217">
        <ele>924.0</ele>
        <time>2013-07-02T14:44:15Z</time>
      </trkpt>
      <trkpt lat="40.205883" lon="-4.385217">
        <ele>921.0</ele>
        <time>2013-07-02T14:44:16Z</time>
      </trkpt>
      <trkpt lat="40.205950" lon="-4.385217">
        <ele>917.0</ele>
        <time>2013-07-02T14:44:17Z</time>
      </trkpt>
      <trkpt lat="40.206033" lon="-4.385233">
        <ele>913.0</ele>
        <time>2013-07-02T14:44:18Z</time>
      </trkpt>
      <trkpt lat="40.206117" lon="-4.385233">
        <ele>909.0</ele>
        <time>2013-07-02T14:44:19Z</time>
      </trkpt>
      <trkpt lat="40.206217" lon="-4.385217">
        <ele>905.0</ele>
        <time>2013-07-02T14:44:20Z</time>
      </trkpt>
      <trkpt lat="40.206300" lon="-4.385183">
        <ele>901.0</ele>
        <time>2013-07-02T14:44:21Z</time>
      </trkpt>
      <trkpt lat="40.206383" lon="-4.385133">
        <ele>896.0</ele>
        <time>2013-07-02T14:44:22Z</time>
      </trkpt>
      <trkpt lat="40.206483" lon="-4.385067">
        <ele>891.0</ele>
        <time>2013-07-02T14:44:23Z</time>
      </trkpt>
      <trkpt lat="40.206583" lon="-4.385017">
        <ele>886.0</ele>
        <time>2013-07-02T14:44:24Z</time>
      </trkpt>
      <trkpt lat="40.206700" lon="-4.384950">
        <ele>882.0</ele>
        <time>2013-07-02T14:44:25Z</time>
      </trkpt>
      <trkpt lat="40.206800" lon="-4.384917">
        <ele>878.0</ele>
        <time>2013-07-02T14:44:26Z</time>
      </trkpt>
      <trkpt lat="40.206917" lon="-4.384867">
        <ele>874.0</ele>
        <time>2013-07-02T14:44:27Z</time>
      </trkpt>
      <trkpt lat="40.207017" lon="-4.384817">
        <ele>870.0</ele>
        <time>2013-07-02T14:44:28Z</time>
      </trkpt>
      <trkpt lat="40.207133" lon="-4.384767">
        <ele>867.0</ele>
        <time>2013-07-02T14:44:29Z</time>
      </trkpt>
      <trkpt lat="40.207250" lon="-4.384700">
        <ele>864.0</ele>
        <time>2013-07-02T14:44:30Z</time>
      </trkpt>
      <trkpt lat="40.207367" lon="-4.384633">
        <ele>862.0</ele>
        <time>2013-07-02T14:44:31Z</time>
      </trkpt>
      <trkpt lat="40.207467" lon="-4.384567">
        <ele>860.0</ele>
        <time>2013-07-02T14:44:32Z</time>
      </trkpt>
      <trkpt lat="40.207583" lon="-4.384483">
        <ele>859.0</ele>
        <time>2013-07-02T14:44:33Z</time>
      </trkpt>
      <trkpt lat="40.207667" lon="-4.384417">
        <ele>859.0</ele>
        <time>2013-07-02T14:44:34Z</time>
      </trkpt>
      <trkpt lat="40.207767" lon="-4.384350">
        <ele>857.0</ele>
        <time>2013-07-02T14:44:35Z</time>
      </trkpt>
      <trkpt lat="40.207850" lon="-4.384267">
        <ele>856.0</ele>
        <time>2013-07-02T14:44:36Z</time>
      </trkpt>
      <trkpt lat="40.207950" lon="-4.384200">
        <ele>854.0</ele>
        <time>2013-07-02T14:44:37Z</time>
      </trkpt>
      <trkpt lat="40.208050" lon="-4.384117">
        <ele>852.0</ele>
        <time>2013-07-02T14:44:38Z</time>
      </trkpt>
      <trkpt lat="40.208150" lon="-4.384050">
        <ele>850.0</ele>
        <time>2013-07-02T14:44:39Z</time>
      </trkpt>
      <trkpt lat="40.208233" lon="-4.383983">
        <ele>849.0</ele>
        <time>2013-07-02T14:44:40Z</time>
      </trkpt>
      <trkpt lat="40.208317" lon="-4.383933">
        <ele>846.0</ele>
        <time>2013-07-02T14:44:41Z</time>
      </trkpt>
      <trkpt lat="40.208400" lon="-4.383900">
        <ele>844.0</ele>
        <time>2013-07-02T14:44:42Z</time>
      </trkpt>
      <trkpt lat="40.208483" lon="-4.383867">
        <ele>842.0</ele>
        <time>2013-07-02T14:44:43Z</time>
      </trkpt>
      <trkpt lat="40.208550" lon="-4.383867">
        <ele>840.0</ele>
        <time>2013-07-02T14:44:44Z</time>
      </trkpt>
      <trkpt lat="40.208600" lon="-4.383883">
        <ele>838.0</ele>
        <time>2013-07-02T14:44:45Z</time>
      </trkpt>
      <trkpt lat="40.208650" lon="-4.383917">
        <ele>836.0</ele>
        <time>2013-07-02T14:44:46Z</time>
      </trkpt>
      <trkpt lat="40.208683" lon="-4.383933">
        <ele>834.0</ele>
        <time>2013-07-02T14:44:47Z</time>
      </trkpt>
      <trkpt lat="40.208717" lon="-4.383950">
        <ele>833.0</ele>
        <time>2013-07-02T14:44:48Z</time>
      </trkpt>
      <trkpt lat="40.208767" lon="-4.383967">
        <ele>831.0</ele>
        <time>2013-07-02T14:44:49Z</time>
      </trkpt>
      <trkpt lat="40.208817" lon="-4.383983">
        <ele>829.0</ele>
        <time>2013-07-02T14:44:50Z</time>
      </trkpt>
      <trkpt lat="40.208883" lon="-4.384000">
        <ele>828.0</ele>
        <time>2013-07-02T14:44:51Z</time>
      </trkpt>
      <trkpt lat="40.208950" lon="-4.384017">
        <ele>827.0</ele>
        <time>2013-07-02T14:44:52Z</time>
      </trkpt>
      <trkpt lat="40.209017" lon="-4.384033">
        <ele>825.0</ele>
        <time>2013-07-02T14:44:53Z</time>
      </trkpt>
      <trkpt lat="40.209100" lon="-4.384033">
        <ele>824.0</ele>
        <time>2013-07-02T14:44:54Z</time>
      </trkpt>
      <trkpt lat="40.209200" lon="-4.384017">
        <ele>823.0</ele>
        <time>2013-07-02T14:44:55Z</time>
      </trkpt>
      <trkpt lat="40.209283" lon="-4.383983">
        <ele>822.0</ele>
        <time>2013-07-02T14:44:56Z</time>
      </trkpt>
      <trkpt lat="40.209383" lon="-4.383933">
        <ele>821.0</ele>
        <time>2013-07-02T14:44:57Z</time>
      </trkpt>
      <trkpt lat="40.209483" lon="-4.383867">
        <ele>821.0</ele>
        <time>2013-07-02T14:44:58Z</time>
      </trkpt>
      <trkpt lat="40.209567" lon="-4.383817">
        <ele>820.0</ele>
        <time>2013-07-02T14:44:59Z</time>
      </trkpt>
      <trkpt lat="40.209667" lon="-4.383733">
        <ele>819.0</ele>
        <time>2013-07-02T14:45:00Z</time>
      </trkpt>
      <trkpt lat="40.209783" lon="-4.383667">
        <ele>818.0</ele>
        <time>2013-07-02T14:45:01Z</time>
      </trkpt>
      <trkpt lat="40.209867" lon="-4.383600">
        <ele>818.0</ele>
        <time>2013-07-02T14:45:02Z</time>
      </trkpt>
      <trkpt lat="40.209950" lon="-4.383550">
        <ele>818.0</ele>
        <time>2013-07-02T14:45:03Z</time>
      </trkpt>
      <trkpt lat="40.210050" lon="-4.383483">
        <ele>817.0</ele>
        <time>2013-07-02T14:45:04Z</time>
      </trkpt>
      <trkpt lat="40.210150" lon="-4.383400">
        <ele>817.0</ele>
        <time>2013-07-02T14:45:05Z</time>
      </trkpt>
      <trkpt lat="40.210250" lon="-4.383333">
        <ele>816.0</ele>
        <time>2013-07-02T14:45:06Z</time>
      </trkpt>
      <trkpt lat="40.210333" lon="-4.383300">
        <ele>815.0</ele>
        <time>2013-07-02T14:45:07Z</time>
      </trkpt>
      <trkpt lat="40.210433" lon="-4.383267">
        <ele>815.0</ele>
        <time>2013-07-02T14:45:08Z</time>
      </trkpt>
      <trkpt lat="40.210533" lon="-4.383233">
        <ele>814.0</ele>
        <time>2013-07-02T14:45:09Z</time>
      </trkpt>
      <trkpt lat="40.210617" lon="-4.383200">
        <ele>813.0</ele>
        <time>2013-07-02T14:45:10Z</time>
      </trkpt>
      <trkpt lat="40.210733" lon="-4.383167">
        <ele>812.0</ele>
        <time>2013-07-02T14:45:11Z</time>
      </trkpt>
      <trkpt lat="40.210850" lon="-4.383117">
        <ele>811.0</ele>
        <time>2013-07-02T14:45:12Z</time>
      </trkpt>
      <trkpt lat="40.210950" lon="-4.383083">
        <ele>812.0</ele>
        <time>2013-07-02T14:45:13Z</time>
      </trkpt>
      <trkpt lat="40.211033" lon="-4.383050">
        <ele>812.0</ele>
        <time>2013-07-02T14:45:14Z</time>
      </trkpt>
      <trkpt lat="40.211133" lon="-4.383017">
        <ele>810.0</ele>
        <time>2013-07-02T14:45:15Z</time>
      </trkpt>
      <trkpt lat="40.211233" lon="-4.382967">
        <ele>809.0</ele>
        <time>2013-07-02T14:45:16Z</time>
      </trkpt>
      <trkpt lat="40.211333" lon="-4.382917">
        <ele>806.0</ele>
        <time>2013-07-02T14:45:17Z</time>
      </trkpt>
      <trkpt lat="40.211467" lon="-4.382867">
        <ele>804.0</ele>
        <time>2013-07-02T14:45:18Z</time>
      </trkpt>
      <trkpt lat="40.211583" lon="-4.382817">
        <ele>803.0</ele>
        <time>2013-07-02T14:45:19Z</time>
      </trkpt>
      <trkpt lat="40.211683" lon="-4.382767">
        <ele>804.0</ele>
        <time>2013-07-02T14:45:20Z</time>
      </trkpt>
      <trkpt lat="40.211783" lon="-4.382733">
        <ele>804.0</ele>
        <time>2013-07-02T14:45:21Z</time>
      </trkpt>
      <trkpt lat="40.211867" lon="-4.382683">
        <ele>804.0</ele>
        <time>2013-07-02T14:45:22Z</time>
      </trkpt>
      <trkpt lat="40.211950" lon="-4.382633">
        <ele>804.0</ele>
        <time>2013-07-02T14:45:23Z</time>
      </trkpt>
      <trkpt lat="40.212033" lon="-4.382583">
        <ele>804.0</ele>
        <time>2013-07-02T14:45:24Z</time>
      </trkpt>
      <trkpt lat="40.212117" lon="-4.382533">
        <ele>803.0</ele>
        <time>2013-07-02T14:45:25Z</time>
      </trkpt>
      <trkpt lat="40.212200" lon="-4.382517">
        <ele>802.0</ele>
        <time>2013-07-02T14:45:26Z</time>
      </trkpt>
      <trkpt lat="40.212283" lon="-4.382533">
        <ele>801.0</ele>
        <time>2013-07-02T14:45:27Z</time>
      </trkpt>
      <trkpt lat="40.212367" lon="-4.382550">
        <ele>801.0</ele>
        <time>2013-07-02T14:45:28Z</time>
      </trkpt>
      <trkpt lat="40.212450" lon="-4.382583">
        <ele>801.0</ele>
        <time>2013-07-02T14:45:29Z</time>
      </trkpt>
      <trkpt lat="40.212500" lon="-4.382600">
        <ele>801.0</ele>
        <time>2013-07-02T14:45:30Z</time>
      </trkpt>
      <trkpt lat="40.212550" lon="-4.382633">
        <ele>801.0</ele>
        <time>2013-07-02T14:45:31Z</time>
      </trkpt>
      <trkpt lat="40.212600" lon="-4.382683">
        <ele>800.0</ele>
        <time>2013-07-02T14:45:32Z</time>
      </trkpt>
      <trkpt lat="40.212667" lon="-4.382733">
        <ele>799.0</ele>
        <time>2013-07-02T14:45:33Z</time>
      </trkpt>
      <trkpt lat="40.212733" lon="-4.382783">
        <ele>799.0</ele>
        <time>2013-07-02T14:45:34Z</time>
      </trkpt>
      <trkpt lat="40.212800" lon="-4.382800">
        <ele>799.0</ele>
        <time>2013-07-02T14:45:35Z</time>
      </trkpt>
      <trkpt lat="40.212867" lon="-4.382817">
        <ele>798.0</ele>
        <time>2013-07-02T14:45:36Z</time>
      </trkpt>
      <trkpt lat="40.212950" lon="-4.382817">
        <ele>797.0</ele>
        <time>2013-07-02T14:45:37Z</time>
      </trkpt>
      <trkpt lat="40.213033" lon="-4.382833">
        <ele>796.0</ele>
        <time>2013-07-02T14:45:38Z</time>
      </trkpt>
      <trkpt lat="40.213117" lon="-4.382850">
        <ele>795.0</ele>
        <time>2013-07-02T14:45:39Z</time>
      </trkpt>
      <trkpt lat="40.213200" lon="-4.382850">
        <ele>795.0</ele>
        <time>2013-07-02T14:45:40Z</time>
      </trkpt>
      <trkpt lat="40.213283" lon="-4.382867">
        <ele>794.0</ele>
        <time>2013-07-02T14:45:41Z</time>
      </trkpt>
      <trkpt lat="40.213367" lon="-4.382883">
        <ele>794.0</ele>
        <time>2013-07-02T14:45:42Z</time>
      </trkpt>
      <trkpt lat="40.213433" lon="-4.382900">
        <ele>793.0</ele>
        <time>2013-07-02T14:45:43Z</time>
      </trkpt>
      <trkpt lat="40.213500" lon="-4.382933">
        <ele>792.0</ele>
        <time>2013-07-02T14:45:44Z</time>
      </trkpt>
      <trkpt lat="40.213567" lon="-4.382983">
        <ele>791.0</ele>
        <time>2013-07-02T14:45:45Z</time>
      </trkpt>
      <trkpt lat="40.213617" lon="-4.383017">
        <ele>790.0</ele>
        <time>2013-07-02T14:45:46Z</time>
      </trkpt>
      <trkpt lat="40.213650" lon="-4.383050">
        <ele>789.0</ele>
        <time>2013-07-02T14:45:47Z</time>
      </trkpt>
      <trkpt lat="40.213650" lon="-4.383067">
        <ele>787.0</ele>
        <time>2013-07-02T14:45:48Z</time>
      </trkpt>
      <trkpt lat="40.213633" lon="-4.383100">
        <ele>785.0</ele>
        <time>2013-07-02T14:45:49Z</time>
      </trkpt>
      <trkpt lat="40.213583" lon="-4.383117">
        <ele>782.0</ele>
        <time>2013-07-02T14:45:50Z</time>
      </trkpt>
      <trkpt lat="40.213500" lon="-4.383150">
        <ele>779.0</ele>
        <time>2013-07-02T14:45:51Z</time>
      </trkpt>
      <trkpt lat="40.213417" lon="-4.383167">
        <ele>777.0</ele>
        <time>2013-07-02T14:45:52Z</time>
      </trkpt>
      <trkpt lat="40.213333" lon="-4.383200">
        <ele>776.0</ele>
        <time>2013-07-02T14:45:53Z</time>
      </trkpt>
      <trkpt lat="40.213267" lon="-4.383217">
        <ele>776.0</ele>
        <time>2013-07-02T14:45:54Z</time>
      </trkpt>
      <trkpt lat="40.213217" lon="-4.383267">
        <ele>775.0</ele>
        <time>2013-07-02T14:45:55Z</time>
      </trkpt>
      <trkpt lat="40.213167" lon="-4.383300">
        <ele>774.0</ele>
        <time>2013-07-02T14:45:56Z</time>
      </trkpt>
      <trkpt lat="40.213133" lon="-4.383333">
        <ele>773.0</ele>
        <time>2013-07-02T14:45:57Z</time>
      </trkpt>
      <trkpt lat="40.213083" lon="-4.383383">
        <ele>772.0</ele>
        <time>2013-07-02T14:45:58Z</time>
      </trkpt>
      <trkpt lat="40.213067" lon="-4.383417">
        <ele>771.0</ele>
        <time>2013-07-02T14:45:59Z</time>
      </trkpt>
      <trkpt lat="40.213083" lon="-4.383483">
        <ele>769.0</ele>
        <time>2013-07-02T14:46:00Z</time>
      </trkpt>
      <trkpt lat="40.213133" lon="-4.383533">
        <ele>766.0</ele>
        <time>2013-07-02T14:46:01Z</time>
      </trkpt>
      <trkpt lat="40.213200" lon="-4.383583">
        <ele>763.0</ele>
        <time>2013-07-02T14:46:02Z</time>
      </trkpt>
      <trkpt lat="40.213267" lon="-4.383617">
        <ele>764.0</ele>
        <time>2013-07-02T14:46:03Z</time>
      </trkpt>
      <trkpt lat="40.213317" lon="-4.383667">
        <ele>765.0</ele>
        <time>2013-07-02T14:46:04Z</time>
      </trkpt>
      <trkpt lat="40.213367" lon="-4.383683">
        <ele>768.0</ele>
        <time>2013-07-02T14:46:05Z</time>
      </trkpt>
      <trkpt lat="40.213400" lon="-4.383700">
        <ele>769.0</ele>
        <time>2013-07-02T14:46:06Z</time>
      </trkpt>
      <trkpt lat="40.213417" lon="-4.383700">
        <ele>770.0</ele>
        <time>2013-07-02T14:46:07Z</time>
      </trkpt>
      <trkpt lat="40.213450" lon="-4.383733">
        <ele>771.0</ele>
        <time>2013-07-02T14:46:08Z</time>
      </trkpt>
      <trkpt lat="40.213467" lon="-4.383767">
        <ele>771.0</ele>
        <time>2013-07-02T14:46:09Z</time>
      </trkpt>
      <trkpt lat="40.213483" lon="-4.383817">
        <ele>772.0</ele>
        <time>2013-07-02T14:46:10Z</time>
      </trkpt>
      <trkpt lat="40.213517" lon="-4.383850">
        <ele>773.0</ele>
        <time>2013-07-02T14:46:11Z</time>
      </trkpt>
      <trkpt lat="40.213533" lon="-4.383900">
        <ele>773.0</ele>
        <time>2013-07-02T14:46:12Z</time>
      </trkpt>
      <trkpt lat="40.213550" lon="-4.383950">
        <ele>772.0</ele>
        <time>2013-07-02T14:46:13Z</time>
      </trkpt>
      <trkpt lat="40.213567" lon="-4.384017">
        <ele>772.0</ele>
        <time>2013-07-02T14:46:14Z</time>
      </trkpt>
      <trkpt lat="40.213567" lon="-4.384083">
        <ele>772.0</ele>
        <time>2013-07-02T14:46:15Z</time>
      </trkpt>
      <trkpt lat="40.213583" lon="-4.384150">
        <ele>774.0</ele>
        <time>2013-07-02T14:46:16Z</time>
      </trkpt>
      <trkpt lat="40.213600" lon="-4.384217">
        <ele>774.0</ele>
        <time>2013-07-02T14:46:17Z</time>
      </trkpt>
      <trkpt lat="40.213617" lon="-4.384283">
        <ele>775.0</ele>
        <time>2013-07-02T14:46:18Z</time>
      </trkpt>
      <trkpt lat="40.213650" lon="-4.384350">
        <ele>777.0</ele>
        <time>2013-07-02T14:46:19Z</time>
      </trkpt>
      <trkpt lat="40.213667" lon="-4.384400">
        <ele>779.0</ele>
        <time>2013-07-02T14:46:20Z</time>
      </trkpt>
      <trkpt lat="40.213667" lon="-4.384450">
        <ele>781.0</ele>
        <time>2013-07-02T14:46:21Z</time>
      </trkpt>
      <trkpt lat="40.213650" lon="-4.384500">
        <ele>783.0</ele>
        <time>2013-07-02T14:46:22Z</time>
      </trkpt>
      <trkpt lat="40.213633" lon="-4.384550">
        <ele>786.0</ele>
        <time>2013-07-02T14:46:23Z</time>
      </trkpt>
      <trkpt lat="40.213617" lon="-4.384600">
        <ele>788.0</ele>
        <time>2013-07-02T14:46:24Z</time>
      </trkpt>
      <trkpt lat="40.213600" lon="-4.384650">
        <ele>789.0</ele>
        <time>2013-07-02T14:46:25Z</time>
      </trkpt>
      <trkpt lat="40.213550" lon="-4.384700">
        <ele>791.0</ele>
        <time>2013-07-02T14:46:26Z</time>
      </trkpt>
      <trkpt lat="40.213500" lon="-4.384750">
        <ele>792.0</ele>
        <time>2013-07-02T14:46:27Z</time>
      </trkpt>
      <trkpt lat="40.213433" lon="-4.384783">
        <ele>794.0</ele>
        <time>2013-07-02T14:46:28Z</time>
      </trkpt>
      <trkpt lat="40.213383" lon="-4.384800">
        <ele>796.0</ele>
        <time>2013-07-02T14:46:29Z</time>
      </trkpt>
      <trkpt lat="40.213317" lon="-4.384833">
        <ele>797.0</ele>
        <time>2013-07-02T14:46:30Z</time>
      </trkpt>
      <trkpt lat="40.213283" lon="-4.384867">
        <ele>799.0</ele>
        <time>2013-07-02T14:46:31Z</time>
      </trkpt>
      <trkpt lat="40.213233" lon="-4.384900">
        <ele>799.0</ele>
        <time>2013-07-02T14:46:32Z</time>
      </trkpt>
      <trkpt lat="40.213183" lon="-4.384967">
        <ele>801.0</ele>
        <time>2013-07-02T14:46:33Z</time>
      </trkpt>
      <trkpt lat="40.213133" lon="-4.385033">
        <ele>801.0</ele>
        <time>2013-07-02T14:46:34Z</time>
      </trkpt>
      <trkpt lat="40.213083" lon="-4.385100">
        <ele>802.0</ele>
        <time>2013-07-02T14:46:35Z</time>
      </trkpt>
      <trkpt lat="40.213033" lon="-4.385133">
        <ele>804.0</ele>
        <time>2013-07-02T14:46:36Z</time>
      </trkpt>
      <trkpt lat="40.212967" lon="-4.385167">
        <ele>804.0</ele>
        <time>2013-07-02T14:46:37Z</time>
      </trkpt>
      <trkpt lat="40.212917" lon="-4.385217">
        <ele>804.0</ele>
        <time>2013-07-02T14:46:38Z</time>
      </trkpt>
      <trkpt lat="40.212883" lon="-4.385283">
        <ele>805.0</ele>
        <time>2013-07-02T14:46:39Z</time>
      </trkpt>
      <trkpt lat="40.212850" lon="-4.385350">
        <ele>806.0</ele>
        <time>2013-07-02T14:46:40Z</time>
      </trkpt>
      <trkpt lat="40.212800" lon="-4.385433">
        <ele>806.0</ele>
        <time>2013-07-02T14:46:41Z</time>
      </trkpt>
      <trkpt lat="40.212767" lon="-4.385467">
        <ele>808.0</ele>
        <time>2013-07-02T14:46:42Z</time>
      </trkpt>
      <trkpt lat="40.212700" lon="-4.385500">
        <ele>809.0</ele>
        <time>2013-07-02T14:46:43Z</time>
      </trkpt>
      <trkpt lat="40.212650" lon="-4.385533">
        <ele>809.0</ele>
        <time>2013-07-02T14:46:44Z</time>
      </trkpt>
      <trkpt lat="40.212600" lon="-4.385567">
        <ele>809.0</ele>
        <time>2013-07-02T14:46:45Z</time>
      </trkpt>
      <trkpt lat="40.212567" lon="-4.385600">
        <ele>808.0</ele>
        <time>2013-07-02T14:46:46Z</time>
      </trkpt>
      <trkpt lat="40.212533" lon="-4.385650">
        <ele>807.0</ele>
        <time>2013-07-02T14:46:47Z</time>
      </trkpt>
      <trkpt lat="40.212500" lon="-4.385700">
        <ele>806.0</ele>
        <time>2013-07-02T14:46:48Z</time>
      </trkpt>
      <trkpt lat="40.212467" lon="-4.385750">
        <ele>806.0</ele>
        <time>2013-07-02T14:46:49Z</time>
      </trkpt>
      <trkpt lat="40.212433" lon="-4.385783">
        <ele>805.0</ele>
        <time>2013-07-02T14:46:50Z</time>
      </trkpt>
      <trkpt lat="40.212383" lon="-4.385817">
        <ele>805.0</ele>
        <time>2013-07-02T14:46:51Z</time>
      </trkpt>
      <trkpt lat="40.212350" lon="-4.385850">
        <ele>804.0</ele>
        <time>2013-07-02T14:46:52Z</time>
      </trkpt>
      <trkpt lat="40.212317" lon="-4.385883">
        <ele>804.0</ele>
        <time>2013-07-02T14:46:53Z</time>
      </trkpt>
      <trkpt lat="40.212267" lon="-4.385917">
        <ele>803.0</ele>
        <time>2013-07-02T14:46:54Z</time>
      </trkpt>
      <trkpt lat="40.212217" lon="-4.385950">
        <ele>803.0</ele>
        <time>2013-07-02T14:46:55Z</time>
      </trkpt>
      <trkpt lat="40.212167" lon="-4.385983">
        <ele>803.0</ele>
        <time>2013-07-02T14:46:56Z</time>
      </trkpt>
      <trkpt lat="40.212133" lon="-4.386017">
        <ele>803.0</ele>
        <time>2013-07-02T14:46:57Z</time>
      </trkpt>
      <trkpt lat="40.212083" lon="-4.386050">
        <ele>802.0</ele>
        <time>2013-07-02T14:46:58Z</time>
      </trkpt>
      <trkpt lat="40.212050" lon="-4.386100">
        <ele>801.0</ele>
        <time>2013-07-02T14:46:59Z</time>
      </trkpt>
      <trkpt lat="40.212017" lon="-4.386133">
        <ele>800.0</ele>
        <time>2013-07-02T14:47:00Z</time>
      </trkpt>
      <trkpt lat="40.211983" lon="-4.386167">
        <ele>800.0</ele>
        <time>2013-07-02T14:47:01Z</time>
      </trkpt>
      <trkpt lat="40.211950" lon="-4.386183">
        <ele>799.0</ele>
        <time>2013-07-02T14:47:02Z</time>
      </trkpt>
      <trkpt lat="40.211900" lon="-4.386217">
        <ele>798.0</ele>
        <time>2013-07-02T14:47:03Z</time>
      </trkpt>
      <trkpt lat="40.211867" lon="-4.386250">
        <ele>797.0</ele>
        <time>2013-07-02T14:47:04Z</time>
      </trkpt>
      <trkpt lat="40.211833" lon="-4.386300">
        <ele>797.0</ele>
        <time>2013-07-02T14:47:05Z</time>
      </trkpt>
      <trkpt lat="40.211800" lon="-4.386317">
        <ele>796.0</ele>
        <time>2013-07-02T14:47:06Z</time>
      </trkpt>
      <trkpt lat="40.211750" lon="-4.386350">
        <ele>796.0</ele>
        <time>2013-07-02T14:47:07Z</time>
      </trkpt>
      <trkpt lat="40.211700" lon="-4.386367">
        <ele>796.0</ele>
        <time>2013-07-02T14:47:08Z</time>
      </trkpt>
      <trkpt lat="40.211633" lon="-4.386383">
        <ele>796.0</ele>
        <time>2013-07-02T14:47:09Z</time>
      </trkpt>
      <trkpt lat="40.211583" lon="-4.386367">
        <ele>796.0</ele>
        <time>2013-07-02T14:47:10Z</time>
      </trkpt>
      <trkpt lat="40.211533" lon="-4.386367">
        <ele>797.0</ele>
        <time>2013-07-02T14:47:11Z</time>
      </trkpt>
      <trkpt lat="40.211483" lon="-4.386400">
        <ele>796.0</ele>
        <time>2013-07-02T14:47:12Z</time>
      </trkpt>
      <trkpt lat="40.211417" lon="-4.386433">
        <ele>796.0</ele>
        <time>2013-07-02T14:47:13Z</time>
      </trkpt>
      <trkpt lat="40.211367" lon="-4.386450">
        <ele>795.0</ele>
        <time>2013-07-02T14:47:14Z</time>
      </trkpt>
      <trkpt lat="40.211300" lon="-4.386450">
        <ele>793.0</ele>
        <time>2013-07-02T14:47:15Z</time>
      </trkpt>
      <trkpt lat="40.211233" lon="-4.386433">
        <ele>792.0</ele>
        <time>2013-07-02T14:47:16Z</time>
      </trkpt>
      <trkpt lat="40.211150" lon="-4.386433">
        <ele>792.0</ele>
        <time>2013-07-02T14:47:17Z</time>
      </trkpt>
      <trkpt lat="40.211083" lon="-4.386450">
        <ele>792.0</ele>
        <time>2013-07-02T14:47:18Z</time>
      </trkpt>
      <trkpt lat="40.211017" lon="-4.386433">
        <ele>793.0</ele>
        <time>2013-07-02T14:47:19Z</time>
      </trkpt>
      <trkpt lat="40.210950" lon="-4.386417">
        <ele>794.0</ele>
        <time>2013-07-02T14:47:20Z</time>
      </trkpt>
      <trkpt lat="40.210883" lon="-4.386383">
        <ele>793.0</ele>
        <time>2013-07-02T14:47:21Z</time>
      </trkpt>
      <trkpt lat="40.210817" lon="-4.386367">
        <ele>793.0</ele>
        <time>2013-07-02T14:47:22Z</time>
      </trkpt>
      <trkpt lat="40.210767" lon="-4.386383">
        <ele>794.0</ele>
        <time>2013-07-02T14:47:23Z</time>
      </trkpt>
      <trkpt lat="40.210717" lon="-4.386383">
        <ele>794.0</ele>
        <time>2013-07-02T14:47:24Z</time>
      </trkpt>
      <trkpt lat="40.210667" lon="-4.386367">
        <ele>795.0</ele>
        <time>2013-07-02T14:47:25Z</time>
      </trkpt>
      <trkpt lat="40.210600" lon="-4.386350">
        <ele>795.0</ele>
        <time>2013-07-02T14:47:26Z</time>
      </trkpt>
      <trkpt lat="40.210533" lon="-4.386317">
        <ele>795.0</ele>
        <time>2013-07-02T14:47:27Z</time>
      </trkpt>
      <trkpt lat="40.210450" lon="-4.386317">
        <ele>796.0</ele>
        <time>2013-07-02T14:47:28Z</time>
      </trkpt>
      <trkpt lat="40.210383" lon="-4.386300">
        <ele>798.0</ele>
        <time>2013-07-02T14:47:29Z</time>
      </trkpt>
      <trkpt lat="40.210317" lon="-4.386283">
        <ele>800.0</ele>
        <time>2013-07-02T14:47:30Z</time>
      </trkpt>
      <trkpt lat="40.210267" lon="-4.386250">
        <ele>803.0</ele>
        <time>2013-07-02T14:47:31Z</time>
      </trkpt>
      <trkpt lat="40.210233" lon="-4.386233">
        <ele>805.0</ele>
        <time>2013-07-02T14:47:32Z</time>
      </trkpt>
      <trkpt lat="40.210167" lon="-4.386200">
        <ele>806.0</ele>
        <time>2013-07-02T14:47:33Z</time>
      </trkpt>
      <trkpt lat="40.210100" lon="-4.386183">
        <ele>807.0</ele>
        <time>2013-07-02T14:47:34Z</time>
      </trkpt>
      <trkpt lat="40.210033" lon="-4.386183">
        <ele>809.0</ele>
        <time>2013-07-02T14:47:35Z</time>
      </trkpt>
      <trkpt lat="40.209950" lon="-4.386183">
        <ele>813.0</ele>
        <time>2013-07-02T14:47:36Z</time>
      </trkpt>
      <trkpt lat="40.209867" lon="-4.386150">
        <ele>822.0</ele>
        <time>2013-07-02T14:47:37Z</time>
      </trkpt>
      <trkpt lat="40.209817" lon="-4.386117">
        <ele>828.0</ele>
        <time>2013-07-02T14:47:38Z</time>
      </trkpt>
      <trkpt lat="40.209767" lon="-4.386067">
        <ele>832.0</ele>
        <time>2013-07-02T14:47:39Z</time>
      </trkpt>
      <trkpt lat="40.209733" lon="-4.386017">
        <ele>837.0</ele>
        <time>2013-07-02T14:47:40Z</time>
      </trkpt>
      <trkpt lat="40.209667" lon="-4.385983">
        <ele>840.0</ele>
        <time>2013-07-02T14:47:41Z</time>
      </trkpt>
      <trkpt lat="40.209583" lon="-4.385983">
        <ele>841.0</ele>
        <time>2013-07-02T14:47:42Z</time>
      </trkpt>
      <trkpt lat="40.209517" lon="-4.386017">
        <ele>844.0</ele>
        <time>2013-07-02T14:47:43Z</time>
      </trkpt>
      <trkpt lat="40.209467" lon="-4.386050">
        <ele>847.0</ele>
        <time>2013-07-02T14:47:44Z</time>
      </trkpt>
      <trkpt lat="40.209417" lon="-4.386067">
        <ele>849.0</ele>
        <time>2013-07-02T14:47:45Z</time>
      </trkpt>
      <trkpt lat="40.209383" lon="-4.386067">
        <ele>850.0</ele>
        <time>2013-07-02T14:47:46Z</time>
      </trkpt>
      <trkpt lat="40.209333" lon="-4.386050">
        <ele>850.0</ele>
        <time>2013-07-02T14:47:47Z</time>
      </trkpt>
      <trkpt lat="40.209300" lon="-4.386050">
        <ele>851.0</ele>
        <time>2013-07-02T14:47:48Z</time>
      </trkpt>
      <trkpt lat="40.209250" lon="-4.386067">
        <ele>851.0</ele>
        <time>2013-07-02T14:47:49Z</time>
      </trkpt>
      <trkpt lat="40.209233" lon="-4.386083">
        <ele>851.0</ele>
        <time>2013-07-02T14:47:50Z</time>
      </trkpt>
      <trkpt lat="40.209200" lon="-4.386100">
        <ele>851.0</ele>
        <time>2013-07-02T14:47:51Z</time>
      </trkpt>
      <trkpt lat="40.209167" lon="-4.386133">
        <ele>851.0</ele>
        <time>2013-07-02T14:47:52Z</time>
      </trkpt>
      <trkpt lat="40.209117" lon="-4.386133">
        <ele>850.0</ele>
        <time>2013-07-02T14:47:53Z</time>
      </trkpt>
      <trkpt lat="40.209067" lon="-4.386133">
        <ele>849.0</ele>
        <time>2013-07-02T14:47:54Z</time>
      </trkpt>
      <trkpt lat="40.209017" lon="-4.386133">
        <ele>847.0</ele>
        <time>2013-07-02T14:47:55Z</time>
      </trkpt>
      <trkpt lat="40.208967" lon="-4.386133">
        <ele>845.0</ele>
        <time>2013-07-02T14:47:56Z</time>
      </trkpt>
      <trkpt lat="40.208933" lon="-4.386133">
        <ele>841.0</ele>
        <time>2013-07-02T14:47:57Z</time>
      </trkpt>
      <trkpt lat="40.208883" lon="-4.386133">
        <ele>838.0</ele>
        <time>2013-07-02T14:47:58Z</time>
      </trkpt>
      <trkpt lat="40.208833" lon="-4.386133">
        <ele>835.0</ele>
        <time>2013-07-02T14:47:59Z</time>
      </trkpt>
      <trkpt lat="40.208767" lon="-4.386117">
        <ele>829.0</ele>
        <time>2013-07-02T14:48:00Z</time>
      </trkpt>
      <trkpt lat="40.208700" lon="-4.386117">
        <ele>825.0</ele>
        <time>2013-07-02T14:48:01Z</time>
      </trkpt>
      <trkpt lat="40.208633" lon="-4.386083">
        <ele>822.0</ele>
        <time>2013-07-02T14:48:02Z</time>
      </trkpt>
      <trkpt lat="40.208583" lon="-4.386050">
        <ele>820.0</ele>
        <time>2013-07-02T14:48:03Z</time>
      </trkpt>
      <trkpt lat="40.208533" lon="-4.386000">
        <ele>818.0</ele>
        <time>2013-07-02T14:48:04Z</time>
      </trkpt>
      <trkpt lat="40.208483" lon="-4.385950">
        <ele>815.0</ele>
        <time>2013-07-02T14:48:05Z</time>
      </trkpt>
      <trkpt lat="40.208450" lon="-4.385917">
        <ele>813.0</ele>
        <time>2013-07-02T14:48:06Z</time>
      </trkpt>
      <trkpt lat="40.208400" lon="-4.385867">
        <ele>811.0</ele>
        <time>2013-07-02T14:48:07Z</time>
      </trkpt>
      <trkpt lat="40.208350" lon="-4.385833">
        <ele>808.0</ele>
        <time>2013-07-02T14:48:08Z</time>
      </trkpt>
      <trkpt lat="40.208300" lon="-4.385800">
        <ele>806.0</ele>
        <time>2013-07-02T14:48:09Z</time>
      </trkpt>
      <trkpt lat="40.208267" lon="-4.385750">
        <ele>806.0</ele>
        <time>2013-07-02T14:48:10Z</time>
      </trkpt>
      <trkpt lat="40.208217" lon="-4.385717">
        <ele>804.0</ele>
        <time>2013-07-02T14:48:11Z</time>
      </trkpt>
      <trkpt lat="40.208183" lon="-4.385683">
        <ele>802.0</ele>
        <time>2013-07-02T14:48:12Z</time>
      </trkpt>
      <trkpt lat="40.208133" lon="-4.385667">
        <ele>800.0</ele>
        <time>2013-07-02T14:48:13Z</time>
      </trkpt>
      <trkpt lat="40.208100" lon="-4.385650">
        <ele>798.0</ele>
        <time>2013-07-02T14:48:14Z</time>
      </trkpt>
      <trkpt lat="40.208067" lon="-4.385633">
        <ele>795.0</ele>
        <time>2013-07-02T14:48:15Z</time>
      </trkpt>
      <trkpt lat="40.208017" lon="-4.385617">
        <ele>793.0</ele>
        <time>2013-07-02T14:48:16Z</time>
      </trkpt>
      <trkpt lat="40.207983" lon="-4.385583">
        <ele>791.0</ele>
        <time>2013-07-02T14:48:17Z</time>
      </trkpt>
      <trkpt lat="40.207933" lon="-4.385567">
        <ele>788.0</ele>
        <time>2013-07-02T14:48:18Z</time>
      </trkpt>
      <trkpt lat="40.207883" lon="-4.385567">
        <ele>786.0</ele>
        <time>2013-07-02T14:48:19Z</time>
      </trkpt>
      <trkpt lat="40.207850" lon="-4.385567">
        <ele>783.0</ele>
        <time>2013-07-02T14:48:20Z</time>
      </trkpt>
      <trkpt lat="40.207817" lon="-4.385567">
        <ele>781.0</ele>
        <time>2013-07-02T14:48:21Z</time>
      </trkpt>
      <trkpt lat="40.207783" lon="-4.385583">
        <ele>778.0</ele>
        <time>2013-07-02T14:48:22Z</time>
      </trkpt>
      <trkpt lat="40.207750" lon="-4.385583">
        <ele>776.0</ele>
        <time>2013-07-02T14:48:23Z</time>
      </trkpt>
      <trkpt lat="40.207717" lon="-4.385600">
        <ele>774.0</ele>
        <time>2013-07-02T14:48:24Z</time>
      </trkpt>
      <trkpt lat="40.207683" lon="-4.385617">
        <ele>771.0</ele>
        <time>2013-07-02T14:48:25Z</time>
      </trkpt>
      <trkpt lat="40.207650" lon="-4.385650">
        <ele>768.0</ele>
        <time>2013-07-02T14:48:26Z</time>
      </trkpt>
      <trkpt lat="40.207617" lon="-4.385683">
        <ele>766.0</ele>
        <time>2013-07-02T14:48:27Z</time>
      </trkpt>
      <trkpt lat="40.207583" lon="-4.385700">
        <ele>763.0</ele>
        <time>2013-07-02T14:48:28Z</time>
      </trkpt>
      <trkpt lat="40.207533" lon="-4.385717">
        <ele>768.0</ele>
        <time>2013-07-02T14:48:29Z</time>
      </trkpt>
      <trkpt lat="40.207500" lon="-4.385750">
        <ele>766.0</ele>
        <time>2013-07-02T14:48:30Z</time>
      </trkpt>
      <trkpt lat="40.207483" lon="-4.385767">
        <ele>765.0</ele>
        <time>2013-07-02T14:48:31Z</time>
      </trkpt>
      <trkpt lat="40.207467" lon="-4.385783">
        <ele>761.0</ele>
        <time>2013-07-02T14:48:32Z</time>
      </trkpt>
      <trkpt lat="40.207467" lon="-4.385817">
        <ele>757.0</ele>
        <time>2013-07-02T14:48:33Z</time>
      </trkpt>
      <trkpt lat="40.207450" lon="-4.385850">
        <ele>753.0</ele>
        <time>2013-07-02T14:48:34Z</time>
      </trkpt>
      <trkpt lat="40.207433" lon="-4.385900">
        <ele>749.0</ele>
        <time>2013-07-02T14:48:35Z</time>
      </trkpt>
      <trkpt lat="40.207433" lon="-4.385950">
        <ele>745.0</ele>
        <time>2013-07-02T14:48:36Z</time>
      </trkpt>
      <trkpt lat="40.207417" lon="-4.385967">
        <ele>741.0</ele>
        <time>2013-07-02T14:48:37Z</time>
      </trkpt>
      <trkpt lat="40.207400" lon="-4.386000">
        <ele>738.0</ele>
        <time>2013-07-02T14:48:38Z</time>
      </trkpt>
      <trkpt lat="40.207383" lon="-4.386017">
        <ele>734.0</ele>
        <time>2013-07-02T14:48:39Z</time>
      </trkpt>
      <trkpt lat="40.207367" lon="-4.386033">
        <ele>731.0</ele>
        <time>2013-07-02T14:48:40Z</time>
      </trkpt>
      <trkpt lat="40.207367" lon="-4.386067">
        <ele>727.0</ele>
        <time>2013-07-02T14:48:41Z</time>
      </trkpt>
      <trkpt lat="40.207350" lon="-4.386100">
        <ele>724.0</ele>
        <time>2013-07-02T14:48:42Z</time>
      </trkpt>
      <trkpt lat="40.207317" lon="-4.386133">
        <ele>721.0</ele>
        <time>2013-07-02T14:48:43Z</time>
      </trkpt>
      <trkpt lat="40.207300" lon="-4.386150">
        <ele>717.0</ele>
        <time>2013-07-02T14:48:44Z</time>
      </trkpt>
      <trkpt lat="40.207267" lon="-4.386167">
        <ele>713.0</ele>
        <time>2013-07-02T14:48:45Z</time>
      </trkpt>
      <trkpt lat="40.207233" lon="-4.386200">
        <ele>709.0</ele>
        <time>2013-07-02T14:48:46Z</time>
      </trkpt>
      <trkpt lat="40.207217" lon="-4.386233">
        <ele>706.0</ele>
        <time>2013-07-02T14:48:47Z</time>
      </trkpt>
      <trkpt lat="40.207200" lon="-4.386267">
        <ele>702.0</ele>
        <time>2013-07-02T14:48:48Z</time>
      </trkpt>
      <trkpt lat="40.207183" lon="-4.386283">
        <ele>699.0</ele>
        <time>2013-07-02T14:48:49Z</time>
      </trkpt>
      <trkpt lat="40.207183" lon="-4.386283">
        <ele>695.0</ele>
        <time>2013-07-02T14:48:50Z</time>
      </trkpt>
      <trkpt lat="40.207167" lon="-4.386300">
        <ele>692.0</ele>
        <time>2013-07-02T14:48:51Z</time>
      </trkpt>
      <trkpt lat="40.207150" lon="-4.386317">
        <ele>688.0</ele>
        <time>2013-07-02T14:48:52Z</time>
      </trkpt>
      <trkpt lat="40.207150" lon="-4.386367">
        <ele>684.0</ele>
        <time>2013-07-02T14:48:53Z</time>
      </trkpt>
      <trkpt lat="40.207133" lon="-4.386400">
        <ele>681.0</ele>
        <time>2013-07-02T14:48:54Z</time>
      </trkpt>
      <trkpt lat="40.207117" lon="-4.386450">
        <ele>678.0</ele>
        <time>2013-07-02T14:48:55Z</time>
      </trkpt>
      <trkpt lat="40.207083" lon="-4.386467">
        <ele>676.0</ele>
        <time>2013-07-02T14:48:56Z</time>
      </trkpt>
      <trkpt lat="40.207067" lon="-4.386483">
        <ele>673.0</ele>
        <time>2013-07-02T14:48:57Z</time>
      </trkpt>
      <trkpt lat="40.207050" lon="-4.386517">
        <ele>669.0</ele>
        <time>2013-07-02T14:48:58Z</time>
      </trkpt>
      <trkpt lat="40.207033" lon="-4.386550">
        <ele>666.0</ele>
        <time>2013-07-02T14:48:59Z</time>
      </trkpt>
      <trkpt lat="40.207000" lon="-4.386600">
        <ele>663.0</ele>
        <time>2013-07-02T14:49:00Z</time>
      </trkpt>
      <trkpt lat="40.206983" lon="-4.386650">
        <ele>661.0</ele>
        <time>2013-07-02T14:49:01Z</time>
      </trkpt>
      <trkpt lat="40.206967" lon="-4.386700">
        <ele>658.0</ele>
        <time>2013-07-02T14:49:02Z</time>
      </trkpt>
      <trkpt lat="40.206950" lon="-4.386733">
        <ele>654.0</ele>
        <time>2013-07-02T14:49:03Z</time>
      </trkpt>
      <trkpt lat="40.206950" lon="-4.386783">
        <ele>650.0</ele>
        <time>2013-07-02T14:49:04Z</time>
      </trkpt>
      <trkpt lat="40.206950" lon="-4.386850">
        <ele>647.0</ele>
        <time>2013-07-02T14:49:05Z</time>
      </trkpt>
      <trkpt lat="40.206950" lon="-4.386900">
        <ele>644.0</ele>
        <time>2013-07-02T14:49:06Z</time>
      </trkpt>
      <trkpt lat="40.206933" lon="-4.386967">
        <ele>641.0</ele>
        <time>2013-07-02T14:49:07Z</time>
      </trkpt>
      <trkpt lat="40.206917" lon="-4.387017">
        <ele>639.0</ele>
        <time>2013-07-02T14:49:08Z</time>
      </trkpt>
      <trkpt lat="40.206917" lon="-4.387050">
        <ele>637.0</ele>
        <time>2013-07-02T14:49:09Z</time>
      </trkpt>
      <trkpt lat="40.206917" lon="-4.387100">
        <ele>635.0</ele>
        <time>2013-07-02T14:49:10Z</time>
      </trkpt>
      <trkpt lat="40.206900" lon="-4.387133">
        <ele>633.0</ele>
        <time>2013-07-02T14:49:11Z</time>
      </trkpt>
      <trkpt lat="40.206900" lon="-4.387183">
        <ele>630.0</ele>
        <time>2013-07-02T14:49:12Z</time>
      </trkpt>
      <trkpt lat="40.206883" lon="-4.387250">
        <ele>627.0</ele>
        <time>2013-07-02T14:49:13Z</time>
      </trkpt>
      <trkpt lat="40.206883" lon="-4.387300">
        <ele>626.0</ele>
        <time>2013-07-02T14:49:14Z</time>
      </trkpt>
      <trkpt lat="40.206883" lon="-4.387350">
        <ele>624.0</ele>
        <time>2013-07-02T14:49:15Z</time>
      </trkpt>
      <trkpt lat="40.206867" lon="-4.387383">
        <ele>627.0</ele>
        <time>2013-07-02T14:49:16Z</time>
      </trkpt>
      <trkpt lat="40.206850" lon="-4.387433">
        <ele>627.0</ele>
        <time>2013-07-02T14:49:17Z</time>
      </trkpt>
      <trkpt lat="40.206850" lon="-4.387467">
        <ele>626.0</ele>
        <time>2013-07-02T14:49:18Z</time>
      </trkpt>
      <trkpt lat="40.206833" lon="-4.387533">
        <ele>625.0</ele>
        <time>2013-07-02T14:49:19Z</time>
      </trkpt>
      <trkpt lat="40.206817" lon="-4.387567">
        <ele>625.0</ele>
        <time>2013-07-02T14:49:20Z</time>
      </trkpt>
      <trkpt lat="40.206817" lon="-4.387617">
        <ele>624.0</ele>
        <time>2013-07-02T14:49:21Z</time>
      </trkpt>
      <trkpt lat="40.206800" lon="-4.387650">
        <ele>624.0</ele>
        <time>2013-07-02T14:49:22Z</time>
      </trkpt>
      <trkpt lat="40.206800" lon="-4.387700">
        <ele>623.0</ele>
        <time>2013-07-02T14:49:23Z</time>
      </trkpt>
      <trkpt lat="40.206783" lon="-4.387750">
        <ele>621.0</ele>
        <time>2013-07-02T14:49:24Z</time>
      </trkpt>
      <trkpt lat="40.206783" lon="-4.387800">
        <ele>620.0</ele>
        <time>2013-07-02T14:49:25Z</time>
      </trkpt>
      <trkpt lat="40.206767" lon="-4.387850">
        <ele>618.0</ele>
        <time>2013-07-02T14:49:26Z</time>
      </trkpt>
      <trkpt lat="40.206783" lon="-4.387917">
        <ele>616.0</ele>
        <time>2013-07-02T14:49:27Z</time>
      </trkpt>
      <trkpt lat="40.206783" lon="-4.387983">
        <ele>613.0</ele>
        <time>2013-07-02T14:49:28Z</time>
      </trkpt>
      <trkpt lat="40.206800" lon="-4.388033">
        <ele>610.0</ele>
        <time>2013-07-02T14:49:29Z</time>
      </trkpt>
      <trkpt lat="40.206800" lon="-4.388067">
        <ele>610.0</ele>
        <time>2013-07-02T14:49:30Z</time>
      </trkpt>
      <trkpt lat="40.206783" lon="-4.388083">
        <ele>608.0</ele>
        <time>2013-07-02T14:49:31Z</time>
      </trkpt>
      <trkpt lat="40.206767" lon="-4.388100">
        <ele>606.0</ele>
        <time>2013-07-02T14:49:32Z</time>
      </trkpt>
      <trkpt lat="40.206733" lon="-4.388117">
        <ele>605.0</ele>
        <time>2013-07-02T14:49:33Z</time>
      </trkpt>
      <trkpt lat="40.206717" lon="-4.388150">
        <ele>604.0</ele>
        <time>2013-07-02T14:49:34Z</time>
      </trkpt>
      <trkpt lat="40.206700" lon="-4.388183">
        <ele>603.0</ele>
        <time>2013-07-02T14:49:35Z</time>
      </trkpt>
      <trkpt lat="40.206700" lon="-4.388217">
        <ele>602.0</ele>
        <time>2013-07-02T14:49:36Z</time>
      </trkpt>
      <trkpt lat="40.206700" lon="-4.388250">
        <ele>601.0</ele>
        <time>2013-07-02T14:49:37Z</time>
      </trkpt>
      <trkpt lat="40.206683" lon="-4.388267">
        <ele>601.0</ele>
        <time>2013-07-02T14:49:38Z</time>
      </trkpt>
      <trkpt lat="40.206667" lon="-4.388267">
        <ele>599.0</ele>
        <time>2013-07-02T14:49:39Z</time>
      </trkpt>
      <trkpt lat="40.206617" lon="-4.388233">
        <ele>597.0</ele>
        <time>2013-07-02T14:49:40Z</time>
      </trkpt>
      <trkpt lat="40.206583" lon="-4.388167">
        <ele>594.0</ele>
        <time>2013-07-02T14:49:41Z</time>
      </trkpt>
      <trkpt lat="40.206533" lon="-4.388083">
        <ele>590.0</ele>
        <time>2013-07-02T14:49:42Z</time>
      </trkpt>
      <trkpt lat="40.206500" lon="-4.387983">
        <ele>588.0</ele>
        <time>2013-07-02T14:49:43Z</time>
      </trkpt>
      <trkpt lat="40.206467" lon="-4.387883">
        <ele>586.0</ele>
        <time>2013-07-02T14:49:44Z</time>
      </trkpt>
      <trkpt lat="40.206433" lon="-4.387783">
        <ele>581.0</ele>
        <time>2013-07-02T14:49:45Z</time>
      </trkpt>
      <trkpt lat="40.206417" lon="-4.387683">
        <ele>577.0</ele>
        <time>2013-07-02T14:49:46Z</time>
      </trkpt>
      <trkpt lat="40.206367" lon="-4.387550">
        <ele>574.0</ele>
        <time>2013-07-02T14:49:47Z</time>
      </trkpt>
      <trkpt lat="40.206333" lon="-4.387433">
        <ele>571.0</ele>
        <time>2013-07-02T14:49:48Z</time>
      </trkpt>
      <trkpt lat="40.206283" lon="-4.387300">
        <ele>570.0</ele>
        <time>2013-07-02T14:49:49Z</time>
      </trkpt>
      <trkpt lat="40.206250" lon="-4.387183">
        <ele>568.0</ele>
        <time>2013-07-02T14:49:50Z</time>
      </trkpt>
      <trkpt lat="40.206200" lon="-4.387083">
        <ele>566.0</ele>
        <time>2013-07-02T14:49:51Z</time>
      </trkpt>
      <trkpt lat="40.206150" lon="-4.386967">
        <ele>564.0</ele>
        <time>2013-07-02T14:49:52Z</time>
      </trkpt>
      <trkpt lat="40.206100" lon="-4.386850">
        <ele>563.0</ele>
        <time>2013-07-02T14:49:53Z</time>
      </trkpt>
      <trkpt lat="40.206050" lon="-4.386750">
        <ele>562.0</ele>
        <time>2013-07-02T14:49:54Z</time>
      </trkpt>
      <trkpt lat="40.206000" lon="-4.386650">
        <ele>560.0</ele>
        <time>2013-07-02T14:49:55Z</time>
      </trkpt>
      <trkpt lat="40.205950" lon="-4.386567">
        <ele>559.0</ele>
        <time>2013-07-02T14:49:56Z</time>
      </trkpt>
      <trkpt lat="40.205900" lon="-4.386517">
        <ele>559.0</ele>
        <time>2013-07-02T14:49:57Z</time>
      </trkpt>
      <trkpt lat="40.205850" lon="-4.386500">
        <ele>558.0</ele>
        <time>2013-07-02T14:49:58Z</time>
      </trkpt>
      <trkpt lat="40.205833" lon="-4.386517">
        <ele>557.0</ele>
        <time>2013-07-02T14:49:59Z</time>
      </trkpt>
      <trkpt lat="40.205817" lon="-4.386550">
        <ele>557.0</ele>
        <time>2013-07-02T14:50:00Z</time>
      </trkpt>
      <trkpt lat="40.205833" lon="-4.386567">
        <ele>558.0</ele>
        <time>2013-07-02T14:50:01Z</time>
      </trkpt>
      <trkpt lat="40.205850" lon="-4.386600">
        <ele>559.0</ele>
        <time>2013-07-02T14:50:02Z</time>
      </trkpt>
      <trkpt lat="40.205867" lon="-4.386617">
        <ele>560.0</ele>
        <time>2013-07-02T14:50:03Z</time>
      </trkpt>
      <trkpt lat="40.205867" lon="-4.386633">
        <ele>560.0</ele>
        <time>2013-07-02T14:50:04Z</time>
      </trkpt>
      <trkpt lat="40.205833" lon="-4.386633">
        <ele>559.0</ele>
        <time>2013-07-02T14:50:05Z</time>
      </trkpt>
      <trkpt lat="40.205800" lon="-4.386617">
        <ele>557.0</ele>
        <time>2013-07-02T14:50:06Z</time>
      </trkpt>
      <trkpt lat="40.205733" lon="-4.386617">
        <ele>558.0</ele>
        <time>2013-07-02T14:50:07Z</time>
      </trkpt>
      <trkpt lat="40.205700" lon="-4.386600">
        <ele>558.0</ele>
        <time>2013-07-02T14:50:08Z</time>
      </trkpt>
      <trkpt lat="40.205667" lon="-4.386600">
        <ele>558.0</ele>
        <time>2013-07-02T14:50:09Z</time>
      </trkpt>
      <trkpt lat="40.205650" lon="-4.386583">
        <ele>559.0</ele>
        <time>2013-07-02T14:50:10Z</time>
      </trkpt>
      <trkpt lat="40.205617" lon="-4.386567">
        <ele>559.0</ele>
        <time>2013-07-02T14:50:11Z</time>
      </trkpt>
      <trkpt lat="40.205583" lon="-4.386533">
        <ele>559.0</ele>
        <time>2013-07-02T14:50:12Z</time>
      </trkpt>
      <trkpt lat="40.205550" lon="-4.386517">
        <ele>558.0</ele>
        <time>2013-07-02T14:50:13Z</time>
      </trkpt>
      <trkpt lat="40.205500" lon="-4.386483">
        <ele>558.0</ele>
        <time>2013-07-02T14:50:14Z</time>
      </trkpt>
      <trkpt lat="40.205467" lon="-4.386433">
        <ele>559.0</ele>
        <time>2013-07-02T14:50:15Z</time>
      </trkpt>
      <trkpt lat="40.205450" lon="-4.386367">
        <ele>558.0</ele>
        <time>2013-07-02T14:50:16Z</time>
      </trkpt>
      <trkpt lat="40.205417" lon="-4.386267">
        <ele>556.0</ele>
        <time>2013-07-02T14:50:17Z</time>
      </trkpt>
      <trkpt lat="40.205383" lon="-4.386150">
        <ele>555.0</ele>
        <time>2013-07-02T14:50:18Z</time>
      </trkpt>
      <trkpt lat="40.205350" lon="-4.386017">
        <ele>555.0</ele>
        <time>2013-07-02T14:50:19Z</time>
      </trkpt>
      <trkpt lat="40.205317" lon="-4.385933">
        <ele>555.0</ele>
        <time>2013-07-02T14:50:20Z</time>
      </trkpt>
      <trkpt lat="40.205283" lon="-4.385900">
        <ele>555.0</ele>
        <time>2013-07-02T14:50:21Z</time>
      </trkpt>
      <trkpt lat="40.205267" lon="-4.385900">
        <ele>554.0</ele>
        <time>2013-07-02T14:50:22Z</time>
      </trkpt>
      <trkpt lat="40.205283" lon="-4.385900">
        <ele>555.0</ele>
        <time>2013-07-02T14:50:23Z</time>
      </trkpt>
      <trkpt lat="40.205333" lon="-4.385883">
        <ele>554.0</ele>
        <time>2013-07-02T14:50:24Z</time>
      </trkpt>
      <trkpt lat="40.205400" lon="-4.385867">
        <ele>554.0</ele>
        <time>2013-07-02T14:50:25Z</time>
      </trkpt>
      <trkpt lat="40.205450" lon="-4.385850">
        <ele>554.0</ele>
        <time>2013-07-02T14:50:26Z</time>
      </trkpt>
      <trkpt lat="40.205517" lon="-4.385867">
        <ele>552.0</ele>
        <time>2013-07-02T14:50:27Z</time>
      </trkpt>
      <trkpt lat="40.205600" lon="-4.385900">
        <ele>551.0</ele>
        <time>2013-07-02T14:50:28Z</time>
      </trkpt>
      <trkpt lat="40.205667" lon="-4.385950">
        <ele>552.0</ele>
        <time>2013-07-02T14:50:29Z</time>
      </trkpt>
      <trkpt lat="40.205717" lon="-4.386000">
        <ele>553.0</ele>
        <time>2013-07-02T14:50:30Z</time>
      </trkpt>
      <trkpt lat="40.205733" lon="-4.386050">
        <ele>553.0</ele>
        <time>2013-07-02T14:50:31Z</time>
      </trkpt>
      <trkpt lat="40.205717" lon="-4.386083">
        <ele>554.0</ele>
        <time>2013-07-02T14:50:32Z</time>
      </trkpt>
      <trkpt lat="40.205733" lon="-4.386100">
        <ele>555.0</ele>
        <time>2013-07-02T14:50:33Z</time>
      </trkpt>
      <trkpt lat="40.205767" lon="-4.386117">
        <ele>555.0</ele>
        <time>2013-07-02T14:50:34Z</time>
      </trkpt>
      <trkpt lat="40.205800" lon="-4.386117">
        <ele>555.0</ele>
        <time>2013-07-02T14:50:35Z</time>
      </trkpt>
      <trkpt lat="40.205817" lon="-4.386117">
        <ele>554.0</ele>
        <time>2013-07-02T14:50:36Z</time>
      </trkpt>
      <trkpt lat="40.205817" lon="-4.386150">
        <ele>552.0</ele>
        <time>2013-07-02T14:50:37Z</time>
      </trkpt>
      <trkpt lat="40.205800" lon="-4.386183">
        <ele>553.0</ele>
        <time>2013-07-02T14:50:38Z</time>
      </trkpt>
      <trkpt lat="40.205800" lon="-4.386233">
        <ele>552.0</ele>
        <time>2013-07-02T14:50:39Z</time>
      </trkpt>
      <trkpt lat="40.205817" lon="-4.386250">
        <ele>552.0</ele>
        <time>2013-07-02T14:50:40Z</time>
      </trkpt>
      <trkpt lat="40.205833" lon="-4.386250">
        <ele>551.0</ele>
        <time>2013-07-02T14:50:41Z</time>
      </trkpt>
      <trkpt lat="40.205850" lon="-4.386250">
        <ele>550.0</ele>
        <time>2013-07-02T14:50:42Z</time>
      </trkpt>
      <trkpt lat="40.205850" lon="-4.386250">
        <ele>547.0</ele>
        <time>2013-07-02T14:50:43Z</time>
      </trkpt>
      <trkpt lat="40.205867" lon="-4.386267">
        <ele>544.0</ele>
        <time>2013-07-02T14:50:44Z</time>
      </trkpt>
      <trkpt lat="40.205883" lon="-4.386283">
        <ele>542.0</ele>
        <time>2013-07-02T14:50:45Z</time>
      </trkpt>
      <trkpt lat="40.205883" lon="-4.386317">
        <ele>538.0</ele>
        <time>2013-07-02T14:50:46Z</time>
      </trkpt>
      <trkpt lat="40.205900" lon="-4.386333">
        <ele>534.0</ele>
        <time>2013-07-02T14:50:47Z</time>
      </trkpt>
      <trkpt lat="40.205917" lon="-4.386367">
        <ele>530.0</ele>
        <time>2013-07-02T14:50:48Z</time>
      </trkpt>
      <trkpt lat="40.205950" lon="-4.386417">
        <ele>526.0</ele>
        <time>2013-07-02T14:50:49Z</time>
      </trkpt>
      <trkpt lat="40.205983" lon="-4.386483">
        <ele>523.0</ele>
        <time>2013-07-02T14:50:50Z</time>
      </trkpt>
      <trkpt lat="40.206017" lon="-4.386517">
        <ele>520.0</ele>
        <time>2013-07-02T14:50:51Z</time>
      </trkpt>
      <trkpt lat="40.206050" lon="-4.386550">
        <ele>518.0</ele>
        <time>2013-07-02T14:50:52Z</time>
      </trkpt>
      <trkpt lat="40.206083" lon="-4.386600">
        <ele>516.0</ele>
        <time>2013-07-02T14:50:53Z</time>
      </trkpt>
      <trkpt lat="40.206117" lon="-4.386650">
        <ele>514.0</ele>
        <time>2013-07-02T14:50:54Z</time>
      </trkpt>
      <trkpt lat="40.206150" lon="-4.386700">
        <ele>512.0</ele>
        <time>2013-07-02T14:50:55Z</time>
      </trkpt>
      <trkpt lat="40.206150" lon="-4.386733">
        <ele>511.0</ele>
        <time>2013-07-02T14:50:56Z</time>
      </trkpt>
      <trkpt lat="40.206150" lon="-4.386750">
        <ele>509.0</ele>
        <time>2013-07-02T14:50:57Z</time>
      </trkpt>
      <trkpt lat="40.206133" lon="-4.386750">
        <ele>509.0</ele>
        <time>2013-07-02T14:50:58Z</time>
      </trkpt>
      <trkpt lat="40.206117" lon="-4.386750">
        <ele>508.0</ele>
        <time>2013-07-02T14:50:59Z</time>
      </trkpt>
      <trkpt lat="40.206100" lon="-4.386750">
        <ele>507.0</ele>
        <time>2013-07-02T14:51:00Z</time>
      </trkpt>
      <trkpt lat="40.206067" lon="-4.386750">
        <ele>507.0</ele>
        <time>2013-07-02T14:51:01Z</time>
      </trkpt>
      <trkpt lat="40.206033" lon="-4.386750">
        <ele>506.0</ele>
        <time>2013-07-02T14:51:02Z</time>
      </trkpt>
      <trkpt lat="40.206017" lon="-4.386767">
        <ele>505.0</ele>
        <time>2013-07-02T14:51:03Z</time>
      </trkpt>
      <trkpt lat="40.206000" lon="-4.386783">
        <ele>504.0</ele>
        <time>2013-07-02T14:51:04Z</time>
      </trkpt>
      <trkpt lat="40.205983" lon="-4.386817">
        <ele>503.0</ele>
        <time>2013-07-02T14:51:05Z</time>
      </trkpt>
      <trkpt lat="40.205967" lon="-4.386833">
        <ele>503.0</ele>
        <time>2013-07-02T14:51:06Z</time>
      </trkpt>
      <trkpt lat="40.205950" lon="-4.386833">
        <ele>502.0</ele>
        <time>2013-07-02T14:51:07Z</time>
      </trkpt>
      <trkpt lat="40.205950" lon="-4.386817">
        <ele>504.0</ele>
        <time>2013-07-02T14:51:08Z</time>
      </trkpt>
      <trkpt lat="40.205967" lon="-4.386817">
        <ele>503.0</ele>
        <time>2013-07-02T14:51:09Z</time>
      </trkpt>
      <trkpt lat="40.205983" lon="-4.386800">
        <ele>503.0</ele>
        <time>2013-07-02T14:51:10Z</time>
      </trkpt>
      <trkpt lat="40.205983" lon="-4.386800">
        <ele>503.0</ele>
        <time>2013-07-02T14:51:11Z</time>
      </trkpt>
      <trkpt lat="40.205983" lon="-4.386800">
        <ele>503.0</ele>
        <time>2013-07-02T14:51:12Z</time>
      </trkpt>
      <trkpt lat="40.205983" lon="-4.386800">
        <ele>502.0</ele>
        <time>2013-07-02T14:51:13Z</time>
      </trkpt>
      <trkpt lat="40.205983" lon="-4.386817">
        <ele>502.0</ele>
        <time>2013-07-02T14:51:14Z</time>
      </trkpt>
      <trkpt lat="40.205983" lon="-4.386817">
        <ele>502.0</ele>
        <time>2013-07-02T14:51:15Z</time>
      </trkpt>
      <trkpt lat="40.205983" lon="-4.386817">
        <ele>502.0</ele>
        <time>2013-07-02T14:51:16Z</time>
      </trkpt>
      <trkpt lat="40.205983" lon="-4.386817">
        <ele>501.0</ele>
        <time>2013-07-02T14:51:17Z</time>
      </trkpt>
      <trkpt lat="40.205983" lon="-4.386817">
        <ele>501.0</ele>
        <time>2013-07-02T14:51:18Z</time>
      </trkpt>
      <trkpt lat="40.205983" lon="-4.386817">
        <ele>501.0</ele>
        <time>2013-07-02T14:51:19Z</time>
      </trkpt>
      <trkpt lat="40.205983" lon="-4.386817">
        <ele>501.0</ele>
        <time>2013-07-02T14:51:20Z</time>
      </trkpt>
      <trkpt lat="40.205983" lon="-4.386817">
        <ele>501.0</ele>
        <time>2013-07-02T14:51:21Z</time>
      </trkpt>
      <trkpt lat="40.205983" lon="-4.386817">
        <ele>500.0</ele>
        <time>2013-07-02T14:51:22Z</time>
      </trkpt>
      <trkpt lat="40.205983" lon="-4.386817">
        <ele>500.0</ele>
        <time>2013-07-02T14:51:23Z</time>
      </trkpt>
      <trkpt lat="40.205983" lon="-4.386817">
        <ele>500.0</ele>
        <time>2013-07-02T14:51:24Z</time>
      </trkpt>
      <trkpt lat="40.205967" lon="-4.386817">
        <ele>500.0</ele>
        <time>2013-07-02T14:51:25Z</time>
      </trkpt>
      <trkpt lat="40.205983" lon="-4.386817">
        <ele>499.0</ele>
        <time>2013-07-02T14:51:26Z</time>
      </trkpt>
      <trkpt lat="40.205967" lon="-4.386817">
        <ele>499.0</ele>
        <time>2013-07-02T14:51:27Z</time>
      </trkpt>
      <trkpt lat="40.205967" lon="-4.386817">
        <ele>499.0</ele>
        <time>2013-07-02T14:51:28Z</time>
      </trkpt>
      <trkpt lat="40.205967" lon="-4.386817">
        <ele>499.0</ele>
        <time>2013-07-02T14:51:29Z</time>
      </trkpt>
      <trkpt lat="40.205967" lon="-4.386817">
        <ele>499.0</ele>
        <time>2013-07-02T14:51:30Z</time>
      </trkpt>
      <trkpt lat="40.205967" lon="-4.386817">
        <ele>498.0</ele>
        <time>2013-07-02T14:51:31Z</time>
      </trkpt>
      <trkpt lat="40.205967" lon="-4.386817">
        <ele>498.0</ele>
        <time>2013-07-02T14:51:32Z</time>
      </trkpt>
      <trkpt lat="40.205967" lon="-4.386817">
        <ele>497.0</ele>
        <time>2013-07-02T14:51:33Z</time>
      </trkpt>
      <trkpt lat="40.205967" lon="-4.386817">
        <ele>497.0</ele>
        <time>2013-07-02T14:51:34Z</time>
      </trkpt>
      <trkpt lat="40.205967" lon="-4.386817">
        <ele>497.0</ele>
        <time>2013-07-02T14:51:35Z</time>
      </trkpt>
      <trkpt lat="40.205967" lon="-4.386817">
        <ele>497.0</ele>
        <time>2013-07-02T14:51:36Z</time>
      </trkpt>
      <trkpt lat="40.205967" lon="-4.386800">
        <ele>497.0</ele>
        <time>2013-07-02T14:51:37Z</time>
      </trkpt>
      <trkpt lat="40.205967" lon="-4.386800">
        <ele>496.0</ele>
        <time>2013-07-02T14:51:38Z</time>
      </trkpt>
      <trkpt lat="40.205967" lon="-4.386800">
        <ele>496.0</ele>
        <time>2013-07-02T14:51:39Z</time>
      </trkpt>
      <trkpt lat="40.205950" lon="-4.386800">
        <ele>496.0</ele>
        <time>2013-07-02T14:51:40Z</time>
      </trkpt>
      <trkpt lat="40.205950" lon="-4.386783">
        <ele>497.0</ele>
        <time>2013-07-02T14:51:41Z</time>
      </trkpt>
      <trkpt lat="40.205967" lon="-4.386783">
        <ele>497.0</ele>
        <time>2013-07-02T14:51:42Z</time>
      </trkpt>
      <trkpt lat="40.205967" lon="-4.386767">
        <ele>497.0</ele>
        <time>2013-07-02T14:51:43Z</time>
      </trkpt>
      <trkpt lat="40.205967" lon="-4.386750">
        <ele>497.0</ele>
        <time>2013-07-02T14:51:44Z</time>
      </trkpt>
      <trkpt lat="40.205967" lon="-4.386750">
        <ele>497.0</ele>
        <time>2013-07-02T14:51:45Z</time>
      </trkpt>
      <trkpt lat="40.205967" lon="-4.386750">
        <ele>497.0</ele>
        <time>2013-07-02T14:51:46Z</time>
      </trkpt>
      <trkpt lat="40.205967" lon="-4.386767">
        <ele>497.0</ele>
        <time>2013-07-02T14:51:47Z</time>
      </trkpt>
      <trkpt lat="40.205983" lon="-4.386767">
        <ele>497.0</ele>
        <time>2013-07-02T14:51:48Z</time>
      </trkpt>
      <trkpt lat="40.205983" lon="-4.386767">
        <ele>497.0</ele>
        <time>2013-07-02T14:51:49Z</time>
      </trkpt>
      <trkpt lat="40.205983" lon="-4.386783">
        <ele>497.0</ele>
        <time>2013-07-02T14:51:50Z</time>
      </trkpt>
      <trkpt lat="40.205983" lon="-4.386783">
        <ele>497.0</ele>
        <time>2013-07-02T14:51:51Z</time>
      </trkpt>
      <trkpt lat="40.205983" lon="-4.386783">
        <ele>497.0</ele>
        <time>2013-07-02T14:51:52Z</time>
      </trkpt>
      <trkpt lat="40.205983" lon="-4.386800">
        <ele>497.0</ele>
        <time>2013-07-02T14:51:53Z</time>
      </trkpt>
      <trkpt lat="40.205983" lon="-4.386800">
        <ele>497.0</ele>
        <time>2013-07-02T14:51:54Z</time>
      </trkpt>
      <trkpt lat="40.205983" lon="-4.386800">
        <ele>497.0</ele>
        <time>2013-07-02T14:51:55Z</time>
      </trkpt>
      <trkpt lat="40.205983" lon="-4.386800">
        <ele>497.0</ele>
        <time>2013-07-02T14:51:56Z</time>
      </trkpt>
      <trkpt lat="40.205983" lon="-4.386800">
        <ele>497.0</ele>
        <time>2013-07-02T14:51:57Z</time>
      </trkpt>
      <trkpt lat="40.205983" lon="-4.386800">
        <ele>497.0</ele>
        <time>2013-07-02T14:51:58Z</time>
      </trkpt>
      <trkpt lat="40.206000" lon="-4.386783">
        <ele>497.0</ele>
        <time>2013-07-02T14:51:59Z</time>
      </trkpt>
      <trkpt lat="40.206000" lon="-4.386800">
        <ele>497.0</ele>
        <time>2013-07-02T14:52:00Z</time>
      </trkpt>
      <trkpt lat="40.206017" lon="-4.386800">
        <ele>497.0</ele>
        <time>2013-07-02T14:52:01Z</time>
      </trkpt>
      <trkpt lat="40.206017" lon="-4.386783">
        <ele>497.0</ele>
        <time>2013-07-02T14:52:02Z</time>
      </trkpt>
      <trkpt lat="40.206017" lon="-4.386783">
        <ele>497.0</ele>
        <time>2013-07-02T14:52:03Z</time>
      </trkpt>
      <trkpt lat="40.206017" lon="-4.386783">
        <ele>497.0</ele>
        <time>2013-07-02T14:52:04Z</time>
      </trkpt>
      <trkpt lat="40.206033" lon="-4.386800">
        <ele>497.0</ele>
        <time>2013-07-02T14:52:05Z</time>
      </trkpt>
      <trkpt lat="40.206050" lon="-4.386800">
        <ele>497.0</ele>
        <time>2013-07-02T14:52:06Z</time>
      </trkpt>
      <trkpt lat="40.206050" lon="-4.386800">
        <ele>497.0</ele>
        <time>2013-07-02T14:52:07Z</time>
      </trkpt>
      <trkpt lat="40.206067" lon="-4.386817">
        <ele>497.0</ele>
        <time>2013-07-02T14:52:08Z</time>
      </trkpt>
      <trkpt lat="40.206067" lon="-4.386833">
        <ele>497.0</ele>
        <time>2013-07-02T14:52:09Z</time>
      </trkpt>
      <trkpt lat="40.206067" lon="-4.386833">
        <ele>498.0</ele>
        <time>2013-07-02T14:52:10Z</time>
      </trkpt>
      <trkpt lat="40.206067" lon="-4.386833">
        <ele>498.0</ele>
        <time>2013-07-02T14:52:11Z</time>
      </trkpt>
      <trkpt lat="40.206067" lon="-4.386850">
        <ele>498.0</ele>
        <time>2013-07-02T14:52:12Z</time>
      </trkpt>
      <trkpt lat="40.206083" lon="-4.386850">
        <ele>498.0</ele>
        <time>2013-07-02T14:52:13Z</time>
      </trkpt>
      <trkpt lat="40.206083" lon="-4.386850">
        <ele>498.0</ele>
        <time>2013-07-02T14:52:14Z</time>
      </trkpt>
      <trkpt lat="40.206083" lon="-4.386867">
        <ele>498.0</ele>
        <time>2013-07-02T14:52:15Z</time>
      </trkpt>
      <trkpt lat="40.206100" lon="-4.386867">
        <ele>498.0</ele>
        <time>2013-07-02T14:52:16Z</time>
      </trkpt>
      <trkpt lat="40.206100" lon="-4.386867">
        <ele>498.0</ele>
        <time>2013-07-02T14:52:17Z</time>
      </trkpt>
      <trkpt lat="40.206100" lon="-4.386867">
        <ele>498.0</ele>
        <time>2013-07-02T14:52:18Z</time>
      </trkpt>
      <trkpt lat="40.206100" lon="-4.386850">
        <ele>499.0</ele>
        <time>2013-07-02T14:52:19Z</time>
      </trkpt>
      <trkpt lat="40.206117" lon="-4.386867">
        <ele>499.0</ele>
        <time>2013-07-02T14:52:20Z</time>
      </trkpt>
      <trkpt lat="40.206117" lon="-4.386867">
        <ele>499.0</ele>
        <time>2013-07-02T14:52:21Z</time>
      </trkpt>
      <trkpt lat="40.206133" lon="-4.386867">
        <ele>499.0</ele>
        <time>2013-07-02T14:52:22Z</time>
      </trkpt>
      <trkpt lat="40.206133" lon="-4.386850">
        <ele>499.0</ele>
        <time>2013-07-02T14:52:23Z</time>
      </trkpt>
      <trkpt lat="40.206133" lon="-4.386850">
        <ele>499.0</ele>
        <time>2013-07-02T14:52:24Z</time>
      </trkpt>
      <trkpt lat="40.206150" lon="-4.386850">
        <ele>499.0</ele>
        <time>2013-07-02T14:52:25Z</time>
      </trkpt>
      <trkpt lat="40.206150" lon="-4.386833">
        <ele>499.0</ele>
        <time>2013-07-02T14:52:26Z</time>
      </trkpt>
      <trkpt lat="40.206150" lon="-4.386833">
        <ele>499.0</ele>
        <time>2013-07-02T14:52:27Z</time>
      </trkpt>
      <trkpt lat="40.206167" lon="-4.386833">
        <ele>499.0</ele>
        <time>2013-07-02T14:52:28Z</time>
      </trkpt>
      <trkpt lat="40.206167" lon="-4.386833">
        <ele>499.0</ele>
        <time>2013-07-02T14:52:29Z</time>
      </trkpt>
      <trkpt lat="40.206167" lon="-4.386833">
        <ele>498.0</ele>
        <time>2013-07-02T14:52:30Z</time>
      </trkpt>
      <trkpt lat="40.206167" lon="-4.386833">
        <ele>498.0</ele>
        <time>2013-07-02T14:52:31Z</time>
      </trkpt>
      <trkpt lat="40.206167" lon="-4.386833">
        <ele>498.0</ele>
        <time>2013-07-02T14:52:32Z</time>
      </trkpt>
      <trkpt lat="40.206183" lon="-4.386833">
        <ele>498.0</ele>
        <time>2013-07-02T14:52:33Z</time>
      </trkpt>
      <trkpt lat="40.206183" lon="-4.386833">
        <ele>498.0</ele>
        <time>2013-07-02T14:52:34Z</time>
      </trkpt>
      <trkpt lat="40.206183" lon="-4.386817">
        <ele>498.0</ele>
        <time>2013-07-02T14:52:35Z</time>
      </trkpt>
      <trkpt lat="40.206183" lon="-4.386800">
        <ele>498.0</ele>
        <time>2013-07-02T14:52:36Z</time>
      </trkpt>
      <trkpt lat="40.206200" lon="-4.386783">
        <ele>498.0</ele>
        <time>2013-07-02T14:52:37Z</time>
      </trkpt>
      <trkpt lat="40.206200" lon="-4.386767">
        <ele>499.0</ele>
        <time>2013-07-02T14:52:38Z</time>
      </trkpt>
      <trkpt lat="40.206217" lon="-4.386767">
        <ele>499.0</ele>
        <time>2013-07-02T14:52:39Z</time>
      </trkpt>
      <trkpt lat="40.206217" lon="-4.386750">
        <ele>499.0</ele>
        <time>2013-07-02T14:52:40Z</time>
      </trkpt>
      <trkpt lat="40.206217" lon="-4.386717">
        <ele>499.0</ele>
        <time>2013-07-02T14:52:41Z</time>
      </trkpt>
      <trkpt lat="40.206217" lon="-4.386717">
        <ele>499.0</ele>
        <time>2013-07-02T14:52:42Z</time>
      </trkpt>
      <trkpt lat="40.206217" lon="-4.386700">
        <ele>499.0</ele>
        <time>2013-07-02T14:52:43Z</time>
      </trkpt>
      <trkpt lat="40.206217" lon="-4.386683">
        <ele>499.0</ele>
        <time>2013-07-02T14:52:44Z</time>
      </trkpt>
      <trkpt lat="40.206233" lon="-4.386667">
        <ele>499.0</ele>
        <time>2013-07-02T14:52:45Z</time>
      </trkpt>
      <trkpt lat="40.206233" lon="-4.386650">
        <ele>499.0</ele>
        <time>2013-07-02T14:52:46Z</time>
      </trkpt>
      <trkpt lat="40.206233" lon="-4.386650">
        <ele>499.0</ele>
        <time>2013-07-02T14:52:47Z</time>
      </trkpt>
      <trkpt lat="40.206233" lon="-4.386633">
        <ele>499.0</ele>
        <time>2013-07-02T14:52:48Z</time>
      </trkpt>
      <trkpt lat="40.206250" lon="-4.386617">
        <ele>499.0</ele>
        <time>2013-07-02T14:52:49Z</time>
      </trkpt>
      <trkpt lat="40.206250" lon="-4.386600">
        <ele>499.0</ele>
        <time>2013-07-02T14:52:50Z</time>
      </trkpt>
      <trkpt lat="40.206267" lon="-4.386600">
        <ele>499.0</ele>
        <time>2013-07-02T14:52:51Z</time>
      </trkpt>
      <trkpt lat="40.206267" lon="-4.386617">
        <ele>499.0</ele>
        <time>2013-07-02T14:52:52Z</time>
      </trkpt>
      <trkpt lat="40.206267" lon="-4.386617">
        <ele>499.0</ele>
        <time>2013-07-02T14:52:53Z</time>
      </trkpt>
      <trkpt lat="40.206283" lon="-4.386633">
        <ele>499.0</ele>
        <time>2013-07-02T14:52:54Z</time>
      </trkpt>
      <trkpt lat="40.206300" lon="-4.386633">
        <ele>499.0</ele>
        <time>2013-07-02T14:52:55Z</time>
      </trkpt>
      <trkpt lat="40.206300" lon="-4.386633">
        <ele>499.0</ele>
        <time>2013-07-02T14:52:56Z</time>
      </trkpt>
      <trkpt lat="40.206300" lon="-4.386633">
        <ele>499.0</ele>
        <time>2013-07-02T14:52:57Z</time>
      </trkpt>
      <trkpt lat="40.206317" lon="-4.386633">
        <ele>499.0</ele>
        <time>2013-07-02T14:52:58Z</time>
      </trkpt>
      <trkpt lat="40.206317" lon="-4.386650">
        <ele>499.0</ele>
        <time>2013-07-02T14:52:59Z</time>
      </trkpt>
      <trkpt lat="40.206317" lon="-4.386650">
        <ele>499.0</ele>
        <time>2013-07-02T14:53:00Z</time>
      </trkpt>
      <trkpt lat="40.206317" lon="-4.386650">
        <ele>499.0</ele>
        <time>2013-07-02T14:53:01Z</time>
      </trkpt>
      <trkpt lat="40.206317" lon="-4.386650">
        <ele>499.0</ele>
        <time>2013-07-02T14:53:02Z</time>
      </trkpt>
      <trkpt lat="40.206317" lon="-4.386650">
        <ele>499.0</ele>
        <time>2013-07-02T14:53:03Z</time>
      </trkpt>
      <trkpt lat="40.206317" lon="-4.386667">
        <ele>499.0</ele>
        <time>2013-07-02T14:53:04Z</time>
      </trkpt>
      <trkpt lat="40.206317" lon="-4.386650">
        <ele>499.0</ele>
        <time>2013-07-02T14:53:05Z</time>
      </trkpt>
      <trkpt lat="40.206317" lon="-4.386650">
        <ele>499.0</ele>
        <time>2013-07-02T14:53:06Z</time>
      </trkpt>
      <trkpt lat="40.206317" lon="-4.386650">
        <ele>499.0</ele>
        <time>2013-07-02T14:53:07Z</time>
      </trkpt>
      <trkpt lat="40.206317" lon="-4.386650">
        <ele>499.0</ele>
        <time>2013-07-02T14:53:08Z</time>
      </trkpt>
      <trkpt lat="40.206333" lon="-4.386650">
        <ele>499.0</ele>
        <time>2013-07-02T14:53:09Z</time>
      </trkpt>
      <trkpt lat="40.206350" lon="-4.386667">
        <ele>499.0</ele>
        <time>2013-07-02T14:53:10Z</time>
      </trkpt>
      <trkpt lat="40.206350" lon="-4.386667">
        <ele>499.0</ele>
        <time>2013-07-02T14:53:11Z</time>
      </trkpt>
      <trkpt lat="40.206350" lon="-4.386667">
        <ele>499.0</ele>
        <time>2013-07-02T14:53:12Z</time>
      </trkpt>
      <trkpt lat="40.206333" lon="-4.386650">
        <ele>499.0</ele>
        <time>2013-07-02T14:53:13Z</time>
      </trkpt>
      <trkpt lat="40.206333" lon="-4.386650">
        <ele>499.0</ele>
        <time>2013-07-02T14:53:14Z</time>
      </trkpt>
      <trkpt lat="40.206333" lon="-4.386650">
        <ele>499.0</ele>
        <time>2013-07-02T14:53:15Z</time>
      </trkpt>
      <trkpt lat="40.206333" lon="-4.386650">
        <ele>499.0</ele>
        <time>2013-07-02T14:53:16Z</time>
      </trkpt>
      <trkpt lat="40.206333" lon="-4.386650">
        <ele>499.0</ele>
        <time>2013-07-02T14:53:17Z</time>
      </trkpt>
      <trkpt lat="40.206333" lon="-4.386650">
        <ele>499.0</ele>
        <time>2013-07-02T14:53:18Z</time>
      </trkpt>
      <trkpt lat="40.206333" lon="-4.386650">
        <ele>498.0</ele>
        <time>2013-07-02T14:53:19Z</time>
      </trkpt>
      <trkpt lat="40.206350" lon="-4.386650">
        <ele>498.0</ele>
        <time>2013-07-02T14:53:20Z</time>
      </trkpt>
      <trkpt lat="40.206350" lon="-4.386667">
        <ele>498.0</ele>
        <time>2013-07-02T14:53:21Z</time>
      </trkpt>
      <trkpt lat="40.206350" lon="-4.386667">
        <ele>498.0</ele>
        <time>2013-07-02T14:53:22Z</time>
      </trkpt>
      <trkpt lat="40.206350" lon="-4.386667">
        <ele>499.0</ele>
        <time>2013-07-02T14:53:23Z</time>
      </trkpt>
      <trkpt lat="40.206350" lon="-4.386667">
        <ele>498.0</ele>
        <time>2013-07-02T14:53:24Z</time>
      </trkpt>
      <trkpt lat="40.206350" lon="-4.386667">
        <ele>499.0</ele>
        <time>2013-07-02T14:53:25Z</time>
      </trkpt>
      <trkpt lat="40.206350" lon="-4.386650">
        <ele>499.0</ele>
        <time>2013-07-02T14:53:26Z</time>
      </trkpt>
      <trkpt lat="40.206350" lon="-4.386650">
        <ele>499.0</ele>
        <time>2013-07-02T14:53:27Z</time>
      </trkpt>
      <trkpt lat="40.206333" lon="-4.386650">
        <ele>499.0</ele>
        <time>2013-07-02T14:53:28Z</time>
      </trkpt>
      <trkpt lat="40.206333" lon="-4.386650">
        <ele>499.0</ele>
        <time>2013-07-02T14:53:29Z</time>
      </trkpt>
      <trkpt lat="40.206333" lon="-4.386650">
        <ele>499.0</ele>
        <time>2013-07-02T14:53:30Z</time>
      </trkpt>
      <trkpt lat="40.206333" lon="-4.386650">
        <ele>499.0</ele>
        <time>2013-07-02T14:53:31Z</time>
      </trkpt>
      <trkpt lat="40.206333" lon="-4.386650">
        <ele>499.0</ele>
        <time>2013-07-02T14:53:32Z</time>
      </trkpt>
      <trkpt lat="40.206333" lon="-4.386650">
        <ele>499.0</ele>
        <time>2013-07-02T14:53:33Z</time>
      </trkpt>
      <trkpt lat="40.206333" lon="-4.386650">
        <ele>499.0</ele>
        <time>2013-07-02T14:53:34Z</time>
      </trkpt>
      <trkpt lat="40.206333" lon="-4.386650">
        <ele>499.0</ele>
        <time>2013-07-02T14:53:35Z</time>
      </trkpt>
      <trkpt lat="40.206350" lon="-4.386650">
        <ele>499.0</ele>
        <time>2013-07-02T14:53:36Z</time>
      </trkpt>
      <trkpt lat="40.206350" lon="-4.386650">
        <ele>499.0</ele>
        <time>2013-07-02T14:53:37Z</time>
      </trkpt>
      <trkpt lat="40.206350" lon="-4.386667">
        <ele>499.0</ele>
        <time>2013-07-02T14:53:38Z</time>
      </trkpt>
      <trkpt lat="40.206367" lon="-4.386667">
        <ele>499.0</ele>
        <time>2013-07-02T14:53:39Z</time>
      </trkpt>
      <trkpt lat="40.206367" lon="-4.386683">
        <ele>499.0</ele>
        <time>2013-07-02T14:53:40Z</time>
      </trkpt>
      <trkpt lat="40.206367" lon="-4.386683">
        <ele>499.0</ele>
        <time>2013-07-02T14:53:41Z</time>
      </trkpt>
      <trkpt lat="40.206383" lon="-4.386700">
        <ele>499.0</ele>
        <time>2013-07-02T14:53:42Z</time>
      </trkpt>
      <trkpt lat="40.206383" lon="-4.386700">
        <ele>499.0</ele>
        <time>2013-07-02T14:53:43Z</time>
      </trkpt>
      <trkpt lat="40.206383" lon="-4.386717">
        <ele>499.0</ele>
        <time>2013-07-02T14:53:44Z</time>
      </trkpt>
      <trkpt lat="40.206383" lon="-4.386733">
        <ele>499.0</ele>
        <time>2013-07-02T14:53:45Z</time>
      </trkpt>
      <trkpt lat="40.206383" lon="-4.386733">
        <ele>499.0</ele>
        <time>2013-07-02T14:53:46Z</time>
      </trkpt>
      <trkpt lat="40.206383" lon="-4.386733">
        <ele>499.0</ele>
        <time>2013-07-02T14:53:47Z</time>
      </trkpt>
      <trkpt lat="40.206400" lon="-4.386733">
        <ele>499.0</ele>
        <time>2013-07-02T14:53:48Z</time>
      </trkpt>
      <trkpt lat="40.206400" lon="-4.386733">
        <ele>499.0</ele>
        <time>2013-07-02T14:53:49Z</time>
      </trkpt>
      <trkpt lat="40.206400" lon="-4.386733">
        <ele>499.0</ele>
        <time>2013-07-02T14:53:50Z</time>
      </trkpt>
      <trkpt lat="40.206400" lon="-4.386733">
        <ele>499.0</ele>
        <time>2013-07-02T14:53:51Z</time>
      </trkpt>
      <trkpt lat="40.206400" lon="-4.386733">
        <ele>499.0</ele>
        <time>2013-07-02T14:53:52Z</time>
      </trkpt>
      <trkpt lat="40.206400" lon="-4.386733">
        <ele>499.0</ele>
        <time>2013-07-02T14:53:53Z</time>
      </trkpt>
      <trkpt lat="40.206400" lon="-4.386733">
        <ele>499.0</ele>
        <time>2013-07-02T14:53:54Z</time>
      </trkpt>
      <trkpt lat="40.206383" lon="-4.386733">
        <ele>499.0</ele>
        <time>2013-07-02T14:53:55Z</time>
      </trkpt>
      <trkpt lat="40.206383" lon="-4.386733">
        <ele>499.0</ele>
        <time>2013-07-02T14:53:56Z</time>
      </trkpt>
      <trkpt lat="40.206383" lon="-4.386717">
        <ele>499.0</ele>
        <time>2013-07-02T14:53:57Z</time>
      </trkpt>
      <trkpt lat="40.206383" lon="-4.386700">
        <ele>499.0</ele>
        <time>2013-07-02T14:53:58Z</time>
      </trkpt>
      <trkpt lat="40.206383" lon="-4.386700">
        <ele>499.0</ele>
        <time>2013-07-02T14:53:59Z</time>
      </trkpt>
      <trkpt lat="40.206383" lon="-4.386700">
        <ele>499.0</ele>
        <time>2013-07-02T14:54:00Z</time>
      </trkpt>
      <trkpt lat="40.206383" lon="-4.386717">
        <ele>499.0</ele>
        <time>2013-07-02T14:54:01Z</time>
      </trkpt>
      <trkpt lat="40.206383" lon="-4.386700">
        <ele>499.0</ele>
        <time>2013-07-02T14:54:02Z</time>
      </trkpt>
      <trkpt lat="40.206367" lon="-4.386700">
        <ele>499.0</ele>
        <time>2013-07-02T14:54:03Z</time>
      </trkpt>
      <trkpt lat="40.206383" lon="-4.386700">
        <ele>499.0</ele>
        <time>2013-07-02T14:54:04Z</time>
      </trkpt>
      <trkpt lat="40.206383" lon="-4.386700">
        <ele>498.0</ele>
        <time>2013-07-02T14:54:05Z</time>
      </trkpt>
      <trkpt lat="40.206383" lon="-4.386700">
        <ele>498.0</ele>
        <time>2013-07-02T14:54:06Z</time>
      </trkpt>
      <trkpt lat="40.206383" lon="-4.386700">
        <ele>498.0</ele>
        <time>2013-07-02T14:54:07Z</time>
      </trkpt>
      <trkpt lat="40.206383" lon="-4.386700">
        <ele>498.0</ele>
        <time>2013-07-02T14:54:08Z</time>
      </trkpt>
      <trkpt lat="40.206383" lon="-4.386700">
        <ele>498.0</ele>
        <time>2013-07-02T14:54:09Z</time>
      </trkpt>
      <trkpt lat="40.206383" lon="-4.386700">
        <ele>498.0</ele>
        <time>2013-07-02T14:54:10Z</time>
      </trkpt>
      <trkpt lat="40.206383" lon="-4.386700">
        <ele>498.0</ele>
        <time>2013-07-02T14:54:11Z</time>
      </trkpt>
      <trkpt lat="40.206383" lon="-4.386717">
        <ele>498.0</ele>
        <time>2013-07-02T14:54:12Z</time>
      </trkpt>
      <trkpt lat="40.206383" lon="-4.386717">
        <ele>498.0</ele>
        <time>2013-07-02T14:54:13Z</time>
      </trkpt>
      <trkpt lat="40.206383" lon="-4.386717">
        <ele>498.0</ele>
        <time>2013-07-02T14:54:14Z</time>
      </trkpt>
      <trkpt lat="40.206383" lon="-4.386733">
        <ele>498.0</ele>
        <time>2013-07-02T14:54:15Z</time>
      </trkpt>
      <trkpt lat="40.206383" lon="-4.386733">
        <ele>499.0</ele>
        <time>2013-07-02T14:54:16Z</time>
      </trkpt>
      <trkpt lat="40.206383" lon="-4.386733">
        <ele>499.0</ele>
        <time>2013-07-02T14:54:17Z</time>
      </trkpt>
      <trkpt lat="40.206383" lon="-4.386733">
        <ele>499.0</ele>
        <time>2013-07-02T14:54:18Z</time>
      </trkpt>
      <trkpt lat="40.206383" lon="-4.386733">
        <ele>500.0</ele>
        <time>2013-07-02T14:54:19Z</time>
      </trkpt>
      <trkpt lat="40.206383" lon="-4.386733">
        <ele>500.0</ele>
        <time>2013-07-02T14:54:20Z</time>
      </trkpt>
      <trkpt lat="40.206383" lon="-4.386733">
        <ele>500.0</ele>
        <time>2013-07-02T14:54:21Z</time>
      </trkpt>
      <trkpt lat="40.206383" lon="-4.386733">
        <ele>500.0</ele>
        <time>2013-07-02T14:54:22Z</time>
      </trkpt>
      <trkpt lat="40.206367" lon="-4.386733">
        <ele>500.0</ele>
        <time>2013-07-02T14:54:23Z</time>
      </trkpt>
      <trkpt lat="40.206367" lon="-4.386733">
        <ele>499.0</ele>
        <time>2013-07-02T14:54:24Z</time>
      </trkpt>
      <trkpt lat="40.206367" lon="-4.386750">
        <ele>499.0</ele>
        <time>2013-07-02T14:54:25Z</time>
      </trkpt>
      <trkpt lat="40.206367" lon="-4.386750">
        <ele>499.0</ele>
        <time>2013-07-02T14:54:26Z</time>
      </trkpt>
      <trkpt lat="40.206367" lon="-4.386750">
        <ele>499.0</ele>
        <time>2013-07-02T14:54:27Z</time>
      </trkpt>
      <trkpt lat="40.206367" lon="-4.386750">
        <ele>499.0</ele>
        <time>2013-07-02T14:54:28Z</time>
      </trkpt>
      <trkpt lat="40.206367" lon="-4.386750">
        <ele>499.0</ele>
        <time>2013-07-02T14:54:29Z</time>
      </trkpt>
      <trkpt lat="40.206383" lon="-4.386750">
        <ele>500.0</ele>
        <time>2013-07-02T14:54:30Z</time>
      </trkpt>
      <trkpt lat="40.206383" lon="-4.386733">
        <ele>500.0</ele>
        <time>2013-07-02T14:54:31Z</time>
      </trkpt>
      <trkpt lat="40.206383" lon="-4.386733">
        <ele>500.0</ele>
        <time>2013-07-02T14:54:32Z</time>
      </trkpt>
      <trkpt lat="40.206383" lon="-4.386733">
        <ele>500.0</ele>
        <time>2013-07-02T14:54:33Z</time>
      </trkpt>
      <trkpt lat="40.206383" lon="-4.386733">
        <ele>500.0</ele>
        <time>2013-07-02T14:54:34Z</time>
      </trkpt>
      <trkpt lat="40.206383" lon="-4.386733">
        <ele>500.0</ele>
        <time>2013-07-02T14:54:35Z</time>
      </trkpt>
      <trkpt lat="40.206383" lon="-4.386750">
        <ele>500.0</ele>
        <time>2013-07-02T14:54:36Z</time>
      </trkpt>
      <trkpt lat="40.206383" lon="-4.386750">
        <ele>500.0</ele>
        <time>2013-07-02T14:54:37Z</time>
      </trkpt>
      <trkpt lat="40.206383" lon="-4.386750">
        <ele>500.0</ele>
        <time>2013-07-02T14:54:38Z</time>
      </trkpt>
      <trkpt lat="40.206383" lon="-4.386750">
        <ele>500.0</ele>
        <time>2013-07-02T14:54:39Z</time>
      </trkpt>
      <trkpt lat="40.206383" lon="-4.386750">
        <ele>500.0</ele>
        <time>2013-07-02T14:54:40Z</time>
      </trkpt>
      <trkpt lat="40.206383" lon="-4.386750">
        <ele>500.0</ele>
        <time>2013-07-02T14:54:41Z</time>
      </trkpt>
      <trkpt lat="40.206383" lon="-4.386750">
        <ele>500.0</ele>
        <time>2013-07-02T14:54:42Z</time>
      </trkpt>
      <trkpt lat="40.206383" lon="-4.386750">
        <ele>500.0</ele>
        <time>2013-07-02T14:54:43Z</time>
      </trkpt>
      <trkpt lat="40.206383" lon="-4.386750">
        <ele>500.0</ele>
        <time>2013-07-02T14:54:44Z</time>
      </trkpt>
      <trkpt lat="40.206383" lon="-4.386750">
        <ele>500.0</ele>
        <time>2013-07-02T14:54:45Z</time>
      </trkpt>
      <trkpt lat="40.206383" lon="-4.386750">
        <ele>500.0</ele>
        <time>2013-07-02T14:54:46Z</time>
      </trkpt>
      <trkpt lat="40.206383" lon="-4.386750">
        <ele>500.0</ele>
        <time>2013-07-02T14:54:47Z</time>
      </trkpt>
      <trkpt lat="40.206383" lon="-4.386750">
        <ele>500.0</ele>
        <time>2013-07-02T14:54:48Z</time>
      </trkpt>
      <trkpt lat="40.206383" lon="-4.386750">
        <ele>500.0</ele>
        <time>2013-07-02T14:54:49Z</time>
      </trkpt>
      <trkpt lat="40.206383" lon="-4.386750">
        <ele>500.0</ele>
        <time>2013-07-02T14:54:50Z</time>
      </trkpt>
      <trkpt lat="40.206383" lon="-4.386750">
        <ele>500.0</ele>
        <time>2013-07-02T14:54:51Z</time>
      </trkpt>
      <trkpt lat="40.206383" lon="-4.386750">
        <ele>500.0</ele>
        <time>2013-07-02T14:54:52Z</time>
      </trkpt>
      <trkpt lat="40.206383" lon="-4.386750">
        <ele>500.0</ele>
        <time>2013-07-02T14:54:53Z</time>
      </trkpt>
      <trkpt lat="40.206383" lon="-4.386750">
        <ele>500.0</ele>
        <time>2013-07-02T14:54:54Z</time>
      </trkpt>
      <trkpt lat="40.206383" lon="-4.386750">
        <ele>500.0</ele>
        <time>2013-07-02T14:54:55Z</time>
      </trkpt>
      <trkpt lat="40.206383" lon="-4.386750">
        <ele>500.0</ele>
        <time>2013-07-02T14:54:56Z</time>
      </trkpt>
      <trkpt lat="40.206383" lon="-4.386750">
        <ele>500.0</ele>
        <time>2013-07-02T14:54:57Z</time>
      </trkpt>
      <trkpt lat="40.206383" lon="-4.386750">
        <ele>500.0</ele>
        <time>2013-07-02T14:54:58Z</time>
      </trkpt>
      <trkpt lat="40.206383" lon="-4.386750">
        <ele>500.0</ele>
        <time>2013-07-02T14:54:59Z</time>
      </trkpt>
      <trkpt lat="40.206383" lon="-4.386750">
        <ele>500.0</ele>
        <time>2013-07-02T14:55:00Z</time>
      </trkpt>
      <trkpt lat="40.206383" lon="-4.386750">
        <ele>500.0</ele>
        <time>2013-07-02T14:55:01Z</time>
      </trkpt>
      <trkpt lat="40.206383" lon="-4.386750">
        <ele>500.0</ele>
        <time>2013-07-02T14:55:02Z</time>
      </trkpt>
      <trkpt lat="40.206383" lon="-4.386750">
        <ele>500.0</ele>
        <time>2013-07-02T14:55:03Z</time>
      </trkpt>
      <trkpt lat="40.206383" lon="-4.386750">
        <ele>500.0</ele>
        <time>2013-07-02T14:55:04Z</time>
      </trkpt>
      <trkpt lat="40.206383" lon="-4.386750">
        <ele>500.0</ele>
        <time>2013-07-02T14:55:05Z</time>
      </trkpt>
      <trkpt lat="40.206383" lon="-4.386750">
        <ele>500.0</ele>
        <time>2013-07-02T14:55:06Z</time>
      </trkpt>
      <trkpt lat="40.206383" lon="-4.386750">
        <ele>500.0</ele>
        <time>2013-07-02T14:55:07Z</time>
      </trkpt>
    </trkseg>
  </trk>
</gpx>
